<?xml version='1.0' encoding='UTF-8'?><gpx version="1.1" creator="JPX - https://github.com/jenetics/jpx" xmlns="http://www.topografix.com/GPX/1/1"><trk><trkseg><trkpt lat="44.0882644" lon="9.9005651"><ele>43.0</ele><time>2026-04-08T06:21:55.958Z</time></trkpt><trkpt lat="44.0883758" lon="9.9005994"><ele>43.0</ele><time>2026-04-08T06:21:57.958Z</time></trkpt><trkpt lat="44.0884839" lon="9.9006522"><ele>43.0</ele><time>2026-04-08T06:21:59.957Z</time></trkpt><trkpt lat="44.0885874" lon="9.9007148"><ele>43.0</ele><time>2026-04-08T06:22:01.957Z</time></trkpt><trkpt lat="44.0886935" lon="9.9007483"><ele>43.0</ele><time>2026-04-08T06:22:03.957Z</time></trkpt><trkpt lat="44.0887954" lon="9.900791"><ele>43.0</ele><time>2026-04-08T06:22:05.957Z</time></trkpt><trkpt lat="44.0888914" lon="9.9008788"><ele>43.0</ele><time>2026-04-08T06:22:07.958Z</time></trkpt><trkpt lat="44.0889881" lon="9.9009785"><ele>43.0</ele><time>2026-04-08T06:22:09.957Z</time></trkpt><trkpt lat="44.0890759" lon="9.9010965"><ele>43.75</ele><time>2026-04-08T06:22:11.957Z</time></trkpt><trkpt lat="44.0891484" lon="9.9012245"><ele>44.5</ele><time>2026-04-08T06:22:13.957Z</time></trkpt><trkpt lat="44.0891663" lon="9.9013772"><ele>45.25</ele><time>2026-04-08T06:22:15.957Z</time></trkpt><trkpt lat="44.0891311" lon="9.9015272"><ele>46.0</ele><time>2026-04-08T06:22:17.957Z</time></trkpt><trkpt lat="44.0890736" lon="9.9016744"><ele>47.333333333333336</ele><time>2026-04-08T06:22:19.957Z</time></trkpt><trkpt lat="44.0890103" lon="9.9018306"><ele>48.66666666666667</ele><time>2026-04-08T06:22:21.957Z</time></trkpt><trkpt lat="44.0889777" lon="9.9019148"><ele>50.0</ele><time>2026-04-08T06:22:22.958Z</time></trkpt><trkpt lat="44.0889465" lon="9.9019982"><ele>51.333333333333336</ele><time>2026-04-08T06:22:23.957Z</time></trkpt><trkpt lat="44.0889132" lon="9.9020821"><ele>52.666666666666664</ele><time>2026-04-08T06:22:24.958Z</time></trkpt><trkpt lat="44.0888712" lon="9.9021656"><ele>54.0</ele><time>2026-04-08T06:22:25.958Z</time></trkpt><trkpt lat="44.0888242" lon="9.9022508"><ele>54.0</ele><time>2026-04-08T06:22:26.957Z</time></trkpt><trkpt lat="44.0887781" lon="9.9023432"><ele>54.0</ele><time>2026-04-08T06:22:27.957Z</time></trkpt><trkpt lat="44.0887387" lon="9.9024437"><ele>54.0</ele><time>2026-04-08T06:22:28.958Z</time></trkpt><trkpt lat="44.0887085" lon="9.9025439"><ele>54.0</ele><time>2026-04-08T06:22:29.957Z</time></trkpt><trkpt lat="44.0886881" lon="9.9026521"><ele>54.0</ele><time>2026-04-08T06:22:30.957Z</time></trkpt><trkpt lat="44.0886697" lon="9.9027605"><ele>54.0</ele><time>2026-04-08T06:22:31.957Z</time></trkpt><trkpt lat="44.0886533" lon="9.9028666"><ele>56.5</ele><time>2026-04-08T06:22:32.957Z</time></trkpt><trkpt lat="44.0886407" lon="9.9029681"><ele>59.0</ele><time>2026-04-08T06:22:33.957Z</time></trkpt><trkpt lat="44.0886355" lon="9.9030684"><ele>61.5</ele><time>2026-04-08T06:22:34.957Z</time></trkpt><trkpt lat="44.0886505" lon="9.9031552"><ele>64.0</ele><time>2026-04-08T06:22:35.957Z</time></trkpt><trkpt lat="44.0887246" lon="9.9032192"><ele>66.5</ele><time>2026-04-08T06:22:37.957Z</time></trkpt><trkpt lat="44.088775" lon="9.9031319"><ele>69.0</ele><time>2026-04-08T06:22:39.957Z</time></trkpt><trkpt lat="44.0887791" lon="9.9030114"><ele>69.0</ele><time>2026-04-08T06:22:41.957Z</time></trkpt><trkpt lat="44.08879" lon="9.9028741"><ele>69.0</ele><time>2026-04-08T06:22:43.957Z</time></trkpt><trkpt lat="44.0888143" lon="9.902738"><ele>69.0</ele><time>2026-04-08T06:22:45.957Z</time></trkpt><trkpt lat="44.0888853" lon="9.9026459"><ele>69.0</ele><time>2026-04-08T06:22:47.957Z</time></trkpt><trkpt lat="44.0889875" lon="9.9026558"><ele>69.0</ele><time>2026-04-08T06:22:49.958Z</time></trkpt><trkpt lat="44.0890937" lon="9.902689"><ele>70.0</ele><time>2026-04-08T06:22:51.958Z</time></trkpt><trkpt lat="44.0892077" lon="9.9027216"><ele>71.0</ele><time>2026-04-08T06:22:53.957Z</time></trkpt><trkpt lat="44.0893292" lon="9.9027422"><ele>72.0</ele><time>2026-04-08T06:22:55.957Z</time></trkpt><trkpt lat="44.0893936" lon="9.9027544"><ele>73.0</ele><time>2026-04-08T06:22:56.957Z</time></trkpt><trkpt lat="44.0894569" lon="9.902767"><ele>74.0</ele><time>2026-04-08T06:22:57.957Z</time></trkpt><trkpt lat="44.0895788" lon="9.9027967"><ele>74.0</ele><time>2026-04-08T06:22:59.957Z</time></trkpt><trkpt lat="44.0896975" lon="9.9028267"><ele>74.0</ele><time>2026-04-08T06:23:01.957Z</time></trkpt><trkpt lat="44.0898044" lon="9.9028881"><ele>74.0</ele><time>2026-04-08T06:23:03.957Z</time></trkpt><trkpt lat="44.0898864" lon="9.9029898"><ele>74.0</ele><time>2026-04-08T06:23:05.957Z</time></trkpt><trkpt lat="44.0899616" lon="9.9030939"><ele>76.33333333333334</ele><time>2026-04-08T06:23:07.957Z</time></trkpt><trkpt lat="44.0900117" lon="9.9031853"><ele>78.66666666666667</ele><time>2026-04-08T06:23:09.958Z</time></trkpt><trkpt lat="44.0900952" lon="9.9032113"><ele>81.0</ele><time>2026-04-08T06:23:55.957Z</time></trkpt><trkpt lat="44.0902035" lon="9.9031476"><ele>83.33333333333333</ele><time>2026-04-08T06:23:57.957Z</time></trkpt><trkpt lat="44.0902653" lon="9.9031256"><ele>85.66666666666666</ele><time>2026-04-08T06:23:58.958Z</time></trkpt><trkpt lat="44.0903285" lon="9.9031059"><ele>88.0</ele><time>2026-04-08T06:23:59.957Z</time></trkpt><trkpt lat="44.0903862" lon="9.9030683"><ele>88.0</ele><time>2026-04-08T06:24:00.958Z</time></trkpt><trkpt lat="44.0904274" lon="9.9029921"><ele>88.0</ele><time>2026-04-08T06:24:01.957Z</time></trkpt><trkpt lat="44.0904385" lon="9.9028981"><ele>88.0</ele><time>2026-04-08T06:24:02.957Z</time></trkpt><trkpt lat="44.0904163" lon="9.9027998"><ele>88.0</ele><time>2026-04-08T06:24:03.958Z</time></trkpt><trkpt lat="44.0903788" lon="9.9027134"><ele>88.0</ele><time>2026-04-08T06:24:04.958Z</time></trkpt><trkpt lat="44.0903409" lon="9.9026218"><ele>88.0</ele><time>2026-04-08T06:24:05.957Z</time></trkpt><trkpt lat="44.0903186" lon="9.9025178"><ele>88.0</ele><time>2026-04-08T06:24:06.957Z</time></trkpt><trkpt lat="44.0903098" lon="9.9024024"><ele>86.16666666666666</ele><time>2026-04-08T06:24:07.957Z</time></trkpt><trkpt lat="44.0903191" lon="9.9022873"><ele>84.33333333333333</ele><time>2026-04-08T06:24:08.957Z</time></trkpt><trkpt lat="44.0903343" lon="9.9021721"><ele>82.5</ele><time>2026-04-08T06:24:09.957Z</time></trkpt><trkpt lat="44.0903531" lon="9.9020606"><ele>80.66666666666667</ele><time>2026-04-08T06:24:10.957Z</time></trkpt><trkpt lat="44.0903752" lon="9.9019481"><ele>78.83333333333334</ele><time>2026-04-08T06:24:11.957Z</time></trkpt><trkpt lat="44.0904142" lon="9.901843"><ele>77.0</ele><time>2026-04-08T06:24:12.958Z</time></trkpt><trkpt lat="44.0904705" lon="9.9017536"><ele>78.33333333333334</ele><time>2026-04-08T06:24:13.957Z</time></trkpt><trkpt lat="44.0905309" lon="9.9016764"><ele>79.66666666666667</ele><time>2026-04-08T06:24:14.957Z</time></trkpt><trkpt lat="44.090599" lon="9.901613"><ele>81.0</ele><time>2026-04-08T06:24:15.957Z</time></trkpt><trkpt lat="44.0906767" lon="9.9015749"><ele>82.33333333333333</ele><time>2026-04-08T06:24:16.957Z</time></trkpt><trkpt lat="44.0907561" lon="9.9015515"><ele>83.66666666666666</ele><time>2026-04-08T06:24:17.958Z</time></trkpt><trkpt lat="44.0908363" lon="9.9015385"><ele>85.0</ele><time>2026-04-08T06:24:18.957Z</time></trkpt><trkpt lat="44.090915" lon="9.9015241"><ele>85.0</ele><time>2026-04-08T06:24:19.957Z</time></trkpt><trkpt lat="44.0909929" lon="9.9015145"><ele>85.0</ele><time>2026-04-08T06:24:20.957Z</time></trkpt><trkpt lat="44.0910701" lon="9.9015097"><ele>85.0</ele><time>2026-04-08T06:24:21.958Z</time></trkpt><trkpt lat="44.091148" lon="9.9015062"><ele>85.0</ele><time>2026-04-08T06:24:22.958Z</time></trkpt><trkpt lat="44.091231" lon="9.9014999"><ele>85.0</ele><time>2026-04-08T06:24:23.957Z</time></trkpt><trkpt lat="44.0913212" lon="9.9014961"><ele>85.0</ele><time>2026-04-08T06:24:24.958Z</time></trkpt><trkpt lat="44.0914158" lon="9.9014945"><ele>85.0</ele><time>2026-04-08T06:24:25.957Z</time></trkpt><trkpt lat="44.0915161" lon="9.9014866"><ele>85.0</ele><time>2026-04-08T06:24:26.958Z</time></trkpt><trkpt lat="44.0916146" lon="9.9014612"><ele>85.0</ele><time>2026-04-08T06:24:27.957Z</time></trkpt><trkpt lat="44.0917115" lon="9.9014118"><ele>85.0</ele><time>2026-04-08T06:24:28.958Z</time></trkpt><trkpt lat="44.0918026" lon="9.9013505"><ele>85.0</ele><time>2026-04-08T06:24:29.958Z</time></trkpt><trkpt lat="44.0918757" lon="9.9012715"><ele>83.2</ele><time>2026-04-08T06:24:30.958Z</time></trkpt><trkpt lat="44.0919226" lon="9.9011639"><ele>81.4</ele><time>2026-04-08T06:24:31.958Z</time></trkpt><trkpt lat="44.0919324" lon="9.9010416"><ele>79.6</ele><time>2026-04-08T06:24:32.958Z</time></trkpt><trkpt lat="44.0918956" lon="9.9009259"><ele>77.8</ele><time>2026-04-08T06:24:33.957Z</time></trkpt><trkpt lat="44.0918238" lon="9.9008396"><ele>76.0</ele><time>2026-04-08T06:24:34.957Z</time></trkpt><trkpt lat="44.091744" lon="9.9007729"><ele>76.0</ele><time>2026-04-08T06:24:35.958Z</time></trkpt><trkpt lat="44.0916817" lon="9.9006849"><ele>76.0</ele><time>2026-04-08T06:24:36.957Z</time></trkpt><trkpt lat="44.0916729" lon="9.9005641"><ele>76.0</ele><time>2026-04-08T06:24:37.958Z</time></trkpt><trkpt lat="44.0917055" lon="9.9004542"><ele>76.0</ele><time>2026-04-08T06:24:38.958Z</time></trkpt><trkpt lat="44.0917596" lon="9.9003429"><ele>76.0</ele><time>2026-04-08T06:24:39.957Z</time></trkpt><trkpt lat="44.0918217" lon="9.9002283"><ele>76.0</ele><time>2026-04-08T06:24:40.958Z</time></trkpt><trkpt lat="44.0918817" lon="9.900113"><ele>76.0</ele><time>2026-04-08T06:24:41.957Z</time></trkpt><trkpt lat="44.0919219" lon="9.900005"><ele>76.0</ele><time>2026-04-08T06:24:42.958Z</time></trkpt><trkpt lat="44.0919286" lon="9.8998938"><ele>76.0</ele><time>2026-04-08T06:24:43.957Z</time></trkpt><trkpt lat="44.0918896" lon="9.8998021"><ele>76.0</ele><time>2026-04-08T06:24:44.957Z</time></trkpt><trkpt lat="44.091818" lon="9.8997569"><ele>76.0</ele><time>2026-04-08T06:24:45.957Z</time></trkpt><trkpt lat="44.0917228" lon="9.8997812"><ele>76.75</ele><time>2026-04-08T06:24:46.957Z</time></trkpt><trkpt lat="44.0916242" lon="9.8998336"><ele>77.5</ele><time>2026-04-08T06:24:47.957Z</time></trkpt><trkpt lat="44.0915222" lon="9.8998927"><ele>78.25</ele><time>2026-04-08T06:24:48.957Z</time></trkpt><trkpt lat="44.0914125" lon="9.8999603"><ele>79.0</ele><time>2026-04-08T06:24:49.957Z</time></trkpt><trkpt lat="44.0912947" lon="9.9000203"><ele>79.0</ele><time>2026-04-08T06:24:50.957Z</time></trkpt><trkpt lat="44.0911662" lon="9.900062"><ele>79.0</ele><time>2026-04-08T06:24:51.957Z</time></trkpt><trkpt lat="44.091047" lon="9.9000172"><ele>79.0</ele><time>2026-04-08T06:24:52.957Z</time></trkpt><trkpt lat="44.0909248" lon="9.8998731"><ele>79.0</ele><time>2026-04-08T06:24:53.958Z</time></trkpt><trkpt lat="44.0908204" lon="9.8997724"><ele>76.0</ele><time>2026-04-08T06:24:54.958Z</time></trkpt><trkpt lat="44.0907163" lon="9.899671"><ele>73.0</ele><time>2026-04-08T06:24:55.957Z</time></trkpt><trkpt lat="44.0906208" lon="9.8995756"><ele>70.0</ele><time>2026-04-08T06:24:56.958Z</time></trkpt><trkpt lat="44.090543" lon="9.8994756"><ele>67.0</ele><time>2026-04-08T06:24:57.957Z</time></trkpt><trkpt lat="44.0904979" lon="9.8993591"><ele>64.0</ele><time>2026-04-08T06:24:58.957Z</time></trkpt><trkpt lat="44.0904741" lon="9.8992335"><ele>64.0</ele><time>2026-04-08T06:24:59.957Z</time></trkpt><trkpt lat="44.090553" lon="9.8991338"><ele>64.0</ele><time>2026-04-08T06:25:00.957Z</time></trkpt><trkpt lat="44.0906342" lon="9.8990542"><ele>64.0</ele><time>2026-04-08T06:25:01.958Z</time></trkpt><trkpt lat="44.0907226" lon="9.8989717"><ele>64.0</ele><time>2026-04-08T06:25:02.958Z</time></trkpt><trkpt lat="44.0908118" lon="9.8988717"><ele>64.0</ele><time>2026-04-08T06:25:03.958Z</time></trkpt><trkpt lat="44.0908834" lon="9.8987446"><ele>71.0</ele><time>2026-04-08T06:25:04.958Z</time></trkpt><trkpt lat="44.0909148" lon="9.8985901"><ele>78.0</ele><time>2026-04-08T06:25:05.957Z</time></trkpt><trkpt lat="44.0909018" lon="9.898428"><ele>85.0</ele><time>2026-04-08T06:25:06.957Z</time></trkpt><trkpt lat="44.0908478" lon="9.8982804"><ele>92.0</ele><time>2026-04-08T06:25:07.957Z</time></trkpt><trkpt lat="44.090771" lon="9.8981586"><ele>87.8</ele><time>2026-04-08T06:25:08.957Z</time></trkpt><trkpt lat="44.090687" lon="9.8980609"><ele>83.6</ele><time>2026-04-08T06:25:09.957Z</time></trkpt><trkpt lat="44.0906253" lon="9.8979544"><ele>79.39999999999999</ele><time>2026-04-08T06:25:10.958Z</time></trkpt><trkpt lat="44.0906109" lon="9.8978185"><ele>75.19999999999999</ele><time>2026-04-08T06:25:11.957Z</time></trkpt><trkpt lat="44.0906412" lon="9.8976918"><ele>71.0</ele><time>2026-04-08T06:25:12.957Z</time></trkpt><trkpt lat="44.0907101" lon="9.8975999"><ele>76.0</ele><time>2026-04-08T06:25:13.957Z</time></trkpt><trkpt lat="44.090795" lon="9.8975097"><ele>81.0</ele><time>2026-04-08T06:25:14.958Z</time></trkpt><trkpt lat="44.0908935" lon="9.897421"><ele>86.0</ele><time>2026-04-08T06:25:15.957Z</time></trkpt><trkpt lat="44.0910075" lon="9.8973429"><ele>91.0</ele><time>2026-04-08T06:25:16.957Z</time></trkpt><trkpt lat="44.091125" lon="9.8972735"><ele>91.0</ele><time>2026-04-08T06:25:17.957Z</time></trkpt><trkpt lat="44.0912346" lon="9.8971844"><ele>91.0</ele><time>2026-04-08T06:25:18.957Z</time></trkpt><trkpt lat="44.0913302" lon="9.8970638"><ele>91.0</ele><time>2026-04-08T06:25:19.957Z</time></trkpt><trkpt lat="44.0914016" lon="9.8969113"><ele>91.0</ele><time>2026-04-08T06:25:20.958Z</time></trkpt><trkpt lat="44.0914838" lon="9.8967782"><ele>91.0</ele><time>2026-04-08T06:25:21.958Z</time></trkpt><trkpt lat="44.0915898" lon="9.8966892"><ele>91.0</ele><time>2026-04-08T06:25:22.958Z</time></trkpt><trkpt lat="44.0917098" lon="9.8966519"><ele>91.0</ele><time>2026-04-08T06:25:23.957Z</time></trkpt><trkpt lat="44.0918358" lon="9.8966582"><ele>91.0</ele><time>2026-04-08T06:25:24.958Z</time></trkpt><trkpt lat="44.0919543" lon="9.8966264"><ele>91.0</ele><time>2026-04-08T06:25:25.958Z</time></trkpt><trkpt lat="44.0920567" lon="9.8965541"><ele>91.0</ele><time>2026-04-08T06:25:26.957Z</time></trkpt><trkpt lat="44.0921308" lon="9.896439"><ele>91.0</ele><time>2026-04-08T06:25:27.958Z</time></trkpt><trkpt lat="44.0921706" lon="9.896299"><ele>91.0</ele><time>2026-04-08T06:25:28.957Z</time></trkpt><trkpt lat="44.0921679" lon="9.8961429"><ele>91.0</ele><time>2026-04-08T06:25:29.958Z</time></trkpt><trkpt lat="44.0921311" lon="9.8959868"><ele>87.8</ele><time>2026-04-08T06:25:30.958Z</time></trkpt><trkpt lat="44.0920822" lon="9.8958352"><ele>84.6</ele><time>2026-04-08T06:25:31.957Z</time></trkpt><trkpt lat="44.0920557" lon="9.8956845"><ele>81.4</ele><time>2026-04-08T06:25:32.957Z</time></trkpt><trkpt lat="44.0920939" lon="9.8955497"><ele>78.2</ele><time>2026-04-08T06:25:33.957Z</time></trkpt><trkpt lat="44.0921751" lon="9.8954576"><ele>75.0</ele><time>2026-04-08T06:25:34.958Z</time></trkpt><trkpt lat="44.0922788" lon="9.8954077"><ele>75.0</ele><time>2026-04-08T06:25:35.957Z</time></trkpt><trkpt lat="44.0923873" lon="9.8953405"><ele>75.0</ele><time>2026-04-08T06:25:36.957Z</time></trkpt><trkpt lat="44.0925112" lon="9.8953056"><ele>75.0</ele><time>2026-04-08T06:25:37.958Z</time></trkpt><trkpt lat="44.0926273" lon="9.8953325"><ele>75.0</ele><time>2026-04-08T06:25:38.957Z</time></trkpt><trkpt lat="44.0927405" lon="9.895356"><ele>76.8</ele><time>2026-04-08T06:25:39.958Z</time></trkpt><trkpt lat="44.0928522" lon="9.8953441"><ele>78.6</ele><time>2026-04-08T06:25:40.958Z</time></trkpt><trkpt lat="44.0929589" lon="9.8953086"><ele>80.4</ele><time>2026-04-08T06:25:41.957Z</time></trkpt><trkpt lat="44.0930501" lon="9.8952562"><ele>82.2</ele><time>2026-04-08T06:25:42.957Z</time></trkpt><trkpt lat="44.0931128" lon="9.8951748"><ele>84.0</ele><time>2026-04-08T06:25:43.957Z</time></trkpt><trkpt lat="44.0931308" lon="9.895054"><ele>84.0</ele><time>2026-04-08T06:25:44.957Z</time></trkpt><trkpt lat="44.0930912" lon="9.894955"><ele>84.0</ele><time>2026-04-08T06:25:45.957Z</time></trkpt><trkpt lat="44.0930158" lon="9.8948772"><ele>84.0</ele><time>2026-04-08T06:25:46.958Z</time></trkpt><trkpt lat="44.0929063" lon="9.8947995"><ele>84.0</ele><time>2026-04-08T06:25:47.957Z</time></trkpt><trkpt lat="44.0928035" lon="9.8947098"><ele>84.0</ele><time>2026-04-08T06:25:48.957Z</time></trkpt><trkpt lat="44.0926865" lon="9.8946219"><ele>84.0</ele><time>2026-04-08T06:25:49.957Z</time></trkpt><trkpt lat="44.0925518" lon="9.8945807"><ele>84.0</ele><time>2026-04-08T06:25:50.957Z</time></trkpt><trkpt lat="44.0924153" lon="9.8945423"><ele>84.0</ele><time>2026-04-08T06:25:51.957Z</time></trkpt><trkpt lat="44.0922735" lon="9.894506"><ele>84.0</ele><time>2026-04-08T06:25:52.958Z</time></trkpt><trkpt lat="44.0921302" lon="9.8944665"><ele>85.25</ele><time>2026-04-08T06:25:53.957Z</time></trkpt><trkpt lat="44.0919881" lon="9.8944293"><ele>86.5</ele><time>2026-04-08T06:25:54.957Z</time></trkpt><trkpt lat="44.0918522" lon="9.8943811"><ele>87.75</ele><time>2026-04-08T06:25:55.958Z</time></trkpt><trkpt lat="44.0917244" lon="9.8943088"><ele>89.0</ele><time>2026-04-08T06:25:56.957Z</time></trkpt><trkpt lat="44.0916004" lon="9.8942446"><ele>85.5</ele><time>2026-04-08T06:25:57.957Z</time></trkpt><trkpt lat="44.0914794" lon="9.8942155"><ele>82.0</ele><time>2026-04-08T06:25:58.958Z</time></trkpt><trkpt lat="44.0913656" lon="9.8941815"><ele>78.5</ele><time>2026-04-08T06:25:59.957Z</time></trkpt><trkpt lat="44.091272" lon="9.8941022"><ele>75.0</ele><time>2026-04-08T06:26:00.957Z</time></trkpt><trkpt lat="44.0912109" lon="9.893987"><ele>75.0</ele><time>2026-04-08T06:26:01.958Z</time></trkpt><trkpt lat="44.0911773" lon="9.8938641"><ele>75.0</ele><time>2026-04-08T06:26:02.957Z</time></trkpt><trkpt lat="44.0912125" lon="9.893719"><ele>75.0</ele><time>2026-04-08T06:26:03.957Z</time></trkpt><trkpt lat="44.0912414" lon="9.8935859"><ele>75.0</ele><time>2026-04-08T06:26:04.957Z</time></trkpt><trkpt lat="44.0912716" lon="9.8934465"><ele>75.0</ele><time>2026-04-08T06:26:05.957Z</time></trkpt><trkpt lat="44.0913038" lon="9.8933071"><ele>76.16666666666667</ele><time>2026-04-08T06:26:06.957Z</time></trkpt><trkpt lat="44.0913345" lon="9.8931786"><ele>77.33333333333333</ele><time>2026-04-08T06:26:07.958Z</time></trkpt><trkpt lat="44.0913621" lon="9.8930675"><ele>78.5</ele><time>2026-04-08T06:26:08.958Z</time></trkpt><trkpt lat="44.0913869" lon="9.892969"><ele>79.66666666666666</ele><time>2026-04-08T06:26:09.958Z</time></trkpt><trkpt lat="44.0914137" lon="9.8928507"><ele>80.83333333333333</ele><time>2026-04-08T06:26:11.957Z</time></trkpt><trkpt lat="44.0914099" lon="9.8927517"><ele>82.0</ele><time>2026-04-08T06:26:14.957Z</time></trkpt><trkpt lat="44.0913554" lon="9.8926153"><ele>83.33333333333333</ele><time>2026-04-08T06:26:16.957Z</time></trkpt><trkpt lat="44.0913108" lon="9.8925373"><ele>84.66666666666666</ele><time>2026-04-08T06:26:17.957Z</time></trkpt><trkpt lat="44.091256" lon="9.8924507"><ele>86.0</ele><time>2026-04-08T06:26:18.957Z</time></trkpt><trkpt lat="44.0911962" lon="9.892359"><ele>87.33333333333333</ele><time>2026-04-08T06:26:19.958Z</time></trkpt><trkpt lat="44.0911357" lon="9.8922635"><ele>88.66666666666667</ele><time>2026-04-08T06:26:20.957Z</time></trkpt><trkpt lat="44.0910831" lon="9.8921566"><ele>90.0</ele><time>2026-04-08T06:26:21.957Z</time></trkpt><trkpt lat="44.0910448" lon="9.8920398"><ele>90.0</ele><time>2026-04-08T06:26:22.957Z</time></trkpt><trkpt lat="44.0910137" lon="9.8919153"><ele>90.0</ele><time>2026-04-08T06:26:23.957Z</time></trkpt><trkpt lat="44.0909829" lon="9.8917862"><ele>90.0</ele><time>2026-04-08T06:26:24.958Z</time></trkpt><trkpt lat="44.0909503" lon="9.8916486"><ele>90.0</ele><time>2026-04-08T06:26:25.957Z</time></trkpt><trkpt lat="44.0909063" lon="9.8915125"><ele>90.0</ele><time>2026-04-08T06:26:26.957Z</time></trkpt><trkpt lat="44.0908396" lon="9.8913869"><ele>91.0</ele><time>2026-04-08T06:26:27.957Z</time></trkpt><trkpt lat="44.0907509" lon="9.8912712"><ele>92.0</ele><time>2026-04-08T06:26:28.958Z</time></trkpt><trkpt lat="44.0906541" lon="9.8911673"><ele>93.0</ele><time>2026-04-08T06:26:29.957Z</time></trkpt><trkpt lat="44.0905515" lon="9.8910803"><ele>94.0</ele><time>2026-04-08T06:26:30.957Z</time></trkpt><trkpt lat="44.0904487" lon="9.8909988"><ele>92.25</ele><time>2026-04-08T06:26:31.957Z</time></trkpt><trkpt lat="44.0903735" lon="9.8908764"><ele>90.5</ele><time>2026-04-08T06:26:32.957Z</time></trkpt><trkpt lat="44.0903002" lon="9.8907432"><ele>88.75</ele><time>2026-04-08T06:26:33.958Z</time></trkpt><trkpt lat="44.0902458" lon="9.8906016"><ele>87.0</ele><time>2026-04-08T06:26:34.958Z</time></trkpt><trkpt lat="44.0901782" lon="9.8904752"><ele>87.0</ele><time>2026-04-08T06:26:35.958Z</time></trkpt><trkpt lat="44.0900951" lon="9.8903718"><ele>87.0</ele><time>2026-04-08T06:26:36.957Z</time></trkpt><trkpt lat="44.0900037" lon="9.8902898"><ele>87.0</ele><time>2026-04-08T06:26:37.958Z</time></trkpt><trkpt lat="44.0899156" lon="9.8902173"><ele>87.0</ele><time>2026-04-08T06:26:38.957Z</time></trkpt><trkpt lat="44.0898415" lon="9.8901582"><ele>87.0</ele><time>2026-04-08T06:26:39.957Z</time></trkpt><trkpt lat="44.0897793" lon="9.8901093"><ele>87.0</ele><time>2026-04-08T06:26:40.957Z</time></trkpt><trkpt lat="44.089732" lon="9.8900283"><ele>87.0</ele><time>2026-04-08T06:26:42.957Z</time></trkpt><trkpt lat="44.0898214" lon="9.8900232"><ele>87.0</ele><time>2026-04-08T06:26:45.957Z</time></trkpt><trkpt lat="44.0898764" lon="9.8900844"><ele>87.0</ele><time>2026-04-08T06:26:46.957Z</time></trkpt><trkpt lat="44.0899337" lon="9.8901401"><ele>87.0</ele><time>2026-04-08T06:26:47.957Z</time></trkpt><trkpt lat="44.0900349" lon="9.8901514"><ele>87.0</ele><time>2026-04-08T06:26:49.958Z</time></trkpt><trkpt lat="44.0900411" lon="9.8900266"><ele>83.39999999999999</ele><time>2026-04-08T06:26:51.957Z</time></trkpt><trkpt lat="44.089947" lon="9.8898942"><ele>79.8</ele><time>2026-04-08T06:26:53.957Z</time></trkpt><trkpt lat="44.0898947" lon="9.8898239"><ele>76.2</ele><time>2026-04-08T06:26:54.958Z</time></trkpt><trkpt lat="44.0898335" lon="9.8897151"><ele>72.6</ele><time>2026-04-08T06:26:56.958Z</time></trkpt><trkpt lat="44.0898257" lon="9.889587"><ele>69.0</ele><time>2026-04-08T06:26:59.957Z</time></trkpt><trkpt lat="44.0898551" lon="9.8895068"><ele>69.0</ele><time>2026-04-08T06:27:00.957Z</time></trkpt><trkpt lat="44.089882" lon="9.8894123"><ele>69.0</ele><time>2026-04-08T06:27:01.957Z</time></trkpt><trkpt lat="44.0899074" lon="9.8893025"><ele>69.0</ele><time>2026-04-08T06:27:02.957Z</time></trkpt><trkpt lat="44.089928" lon="9.8891604"><ele>69.0</ele><time>2026-04-08T06:27:03.957Z</time></trkpt><trkpt lat="44.0899347" lon="9.8890003"><ele>69.0</ele><time>2026-04-08T06:27:04.957Z</time></trkpt><trkpt lat="44.0899294" lon="9.8888255"><ele>71.0</ele><time>2026-04-08T06:27:05.957Z</time></trkpt><trkpt lat="44.0899033" lon="9.8886395"><ele>73.0</ele><time>2026-04-08T06:27:06.957Z</time></trkpt><trkpt lat="44.0898624" lon="9.8884468"><ele>75.0</ele><time>2026-04-08T06:27:07.957Z</time></trkpt><trkpt lat="44.0898259" lon="9.8882539"><ele>77.0</ele><time>2026-04-08T06:27:08.957Z</time></trkpt><trkpt lat="44.0897878" lon="9.8880631"><ele>77.5</ele><time>2026-04-08T06:27:09.957Z</time></trkpt><trkpt lat="44.0897485" lon="9.8878717"><ele>78.0</ele><time>2026-04-08T06:27:10.957Z</time></trkpt><trkpt lat="44.0897212" lon="9.8876713"><ele>78.5</ele><time>2026-04-08T06:27:11.958Z</time></trkpt><trkpt lat="44.0897115" lon="9.8874686"><ele>79.0</ele><time>2026-04-08T06:27:12.957Z</time></trkpt><trkpt lat="44.0897179" lon="9.8872627"><ele>80.0</ele><time>2026-04-08T06:27:13.957Z</time></trkpt><trkpt lat="44.0897219" lon="9.8870565"><ele>81.0</ele><time>2026-04-08T06:27:14.957Z</time></trkpt><trkpt lat="44.0897147" lon="9.886852"><ele>82.0</ele><time>2026-04-08T06:27:15.957Z</time></trkpt><trkpt lat="44.0897049" lon="9.8866501"><ele>83.0</ele><time>2026-04-08T06:27:16.957Z</time></trkpt><trkpt lat="44.0896932" lon="9.8864499"><ele>83.5</ele><time>2026-04-08T06:27:17.958Z</time></trkpt><trkpt lat="44.0896805" lon="9.8862504"><ele>84.0</ele><time>2026-04-08T06:27:18.957Z</time></trkpt><trkpt lat="44.0896645" lon="9.8860495"><ele>84.5</ele><time>2026-04-08T06:27:19.958Z</time></trkpt><trkpt lat="44.0896351" lon="9.8858531"><ele>85.0</ele><time>2026-04-08T06:27:20.957Z</time></trkpt><trkpt lat="44.0895891" lon="9.8856595"><ele>82.25</ele><time>2026-04-08T06:27:21.957Z</time></trkpt><trkpt lat="44.0895426" lon="9.885464"><ele>79.5</ele><time>2026-04-08T06:27:22.957Z</time></trkpt><trkpt lat="44.0894975" lon="9.8852667"><ele>76.75</ele><time>2026-04-08T06:27:23.958Z</time></trkpt><trkpt lat="44.0894636" lon="9.8850654"><ele>74.0</ele><time>2026-04-08T06:27:24.957Z</time></trkpt><trkpt lat="44.0894285" lon="9.8848661"><ele>70.0</ele><time>2026-04-08T06:27:25.957Z</time></trkpt><trkpt lat="44.0893943" lon="9.8846686"><ele>66.0</ele><time>2026-04-08T06:27:26.957Z</time></trkpt><trkpt lat="44.0893601" lon="9.8844703"><ele>62.0</ele><time>2026-04-08T06:27:27.957Z</time></trkpt><trkpt lat="44.0893293" lon="9.8842739"><ele>58.0</ele><time>2026-04-08T06:27:28.957Z</time></trkpt><trkpt lat="44.0892954" lon="9.8840796"><ele>55.25</ele><time>2026-04-08T06:27:29.958Z</time></trkpt><trkpt lat="44.0892647" lon="9.883885"><ele>52.5</ele><time>2026-04-08T06:27:30.958Z</time></trkpt><trkpt lat="44.0892384" lon="9.8836906"><ele>49.75</ele><time>2026-04-08T06:27:31.958Z</time></trkpt><trkpt lat="44.0892144" lon="9.8834961"><ele>47.0</ele><time>2026-04-08T06:27:32.958Z</time></trkpt><trkpt lat="44.0891974" lon="9.8833026"><ele>44.5</ele><time>2026-04-08T06:27:33.957Z</time></trkpt><trkpt lat="44.0891872" lon="9.8831104"><ele>42.0</ele><time>2026-04-08T06:27:34.957Z</time></trkpt><trkpt lat="44.0891889" lon="9.8829175"><ele>39.5</ele><time>2026-04-08T06:27:35.957Z</time></trkpt><trkpt lat="44.0892016" lon="9.8827243"><ele>37.0</ele><time>2026-04-08T06:27:36.958Z</time></trkpt><trkpt lat="44.0892208" lon="9.8825338"><ele>36.0</ele><time>2026-04-08T06:27:37.957Z</time></trkpt><trkpt lat="44.0892352" lon="9.882345"><ele>35.0</ele><time>2026-04-08T06:27:38.958Z</time></trkpt><trkpt lat="44.0892504" lon="9.8821598"><ele>34.0</ele><time>2026-04-08T06:27:39.957Z</time></trkpt><trkpt lat="44.0892633" lon="9.8819815"><ele>33.0</ele><time>2026-04-08T06:27:40.957Z</time></trkpt><trkpt lat="44.0892772" lon="9.8818086"><ele>32.0</ele><time>2026-04-08T06:27:41.957Z</time></trkpt><trkpt lat="44.0892901" lon="9.8816436"><ele>30.999999999999996</ele><time>2026-04-08T06:27:42.957Z</time></trkpt><trkpt lat="44.0893026" lon="9.8814883"><ele>29.999999999999996</ele><time>2026-04-08T06:27:43.957Z</time></trkpt><trkpt lat="44.0893123" lon="9.8813399"><ele>29.0</ele><time>2026-04-08T06:27:44.957Z</time></trkpt><trkpt lat="44.0893216" lon="9.8812055"><ele>28.0</ele><time>2026-04-08T06:27:45.958Z</time></trkpt><trkpt lat="44.0893309" lon="9.8810786"><ele>28.000000000000004</ele><time>2026-04-08T06:27:46.958Z</time></trkpt><trkpt lat="44.0893382" lon="9.8809651"><ele>28.0</ele><time>2026-04-08T06:27:47.957Z</time></trkpt><trkpt lat="44.0893475" lon="9.8808191"><ele>28.0</ele><time>2026-04-08T06:27:49.957Z</time></trkpt><trkpt lat="44.0893852" lon="9.8807384"><ele>28.0</ele><time>2026-04-08T06:27:52.958Z</time></trkpt><trkpt lat="44.0894344" lon="9.880817"><ele>28.000000000000004</ele><time>2026-04-08T06:27:55.958Z</time></trkpt><trkpt lat="44.0894407" lon="9.8809624"><ele>28.0</ele><time>2026-04-08T06:27:57.957Z</time></trkpt><trkpt lat="44.0894535" lon="9.8810658"><ele>28.000000000000004</ele><time>2026-04-08T06:27:58.957Z</time></trkpt><trkpt lat="44.0894665" lon="9.8811745"><ele>28.0</ele><time>2026-04-08T06:27:59.957Z</time></trkpt><trkpt lat="44.0894852" lon="9.8812965"><ele>28.0</ele><time>2026-04-08T06:28:00.957Z</time></trkpt><trkpt lat="44.0895053" lon="9.8814226"><ele>28.0</ele><time>2026-04-08T06:28:01.957Z</time></trkpt><trkpt lat="44.0895264" lon="9.8815473"><ele>28.000000000000004</ele><time>2026-04-08T06:28:02.957Z</time></trkpt><trkpt lat="44.0895503" lon="9.8816709"><ele>28.0</ele><time>2026-04-08T06:28:03.957Z</time></trkpt><trkpt lat="44.089575" lon="9.8817943"><ele>29.0</ele><time>2026-04-08T06:28:04.957Z</time></trkpt><trkpt lat="44.0895913" lon="9.8819214"><ele>29.999999999999996</ele><time>2026-04-08T06:28:05.957Z</time></trkpt><trkpt lat="44.0895918" lon="9.8820501"><ele>30.999999999999996</ele><time>2026-04-08T06:28:06.957Z</time></trkpt><trkpt lat="44.0895757" lon="9.882177"><ele>32.0</ele><time>2026-04-08T06:28:07.957Z</time></trkpt><trkpt lat="44.0895474" lon="9.8823018"><ele>33.0</ele><time>2026-04-08T06:28:08.957Z</time></trkpt><trkpt lat="44.0895106" lon="9.8824214"><ele>33.0</ele><time>2026-04-08T06:28:09.958Z</time></trkpt><trkpt lat="44.0894643" lon="9.8825354"><ele>33.0</ele><time>2026-04-08T06:28:10.957Z</time></trkpt><trkpt lat="44.0894095" lon="9.8826416"><ele>33.0</ele><time>2026-04-08T06:28:11.957Z</time></trkpt><trkpt lat="44.0893551" lon="9.8827504"><ele>33.0</ele><time>2026-04-08T06:28:12.957Z</time></trkpt><trkpt lat="44.0893081" lon="9.882863"><ele>33.0</ele><time>2026-04-08T06:28:13.957Z</time></trkpt><trkpt lat="44.0892795" lon="9.8829875"><ele>33.8</ele><time>2026-04-08T06:28:14.957Z</time></trkpt><trkpt lat="44.089282" lon="9.8831224"><ele>34.599999999999994</ele><time>2026-04-08T06:28:15.957Z</time></trkpt><trkpt lat="44.0893168" lon="9.8832481"><ele>35.400000000000006</ele><time>2026-04-08T06:28:16.957Z</time></trkpt><trkpt lat="44.0893881" lon="9.8833524"><ele>36.2</ele><time>2026-04-08T06:28:17.958Z</time></trkpt><trkpt lat="44.0894841" lon="9.8834257"><ele>37.0</ele><time>2026-04-08T06:28:18.958Z</time></trkpt><trkpt lat="44.0895942" lon="9.8834556"><ele>37.0</ele><time>2026-04-08T06:28:19.957Z</time></trkpt><trkpt lat="44.0897127" lon="9.8834365"><ele>37.0</ele><time>2026-04-08T06:28:20.957Z</time></trkpt><trkpt lat="44.0898278" lon="9.8833992"><ele>37.0</ele><time>2026-04-08T06:28:21.957Z</time></trkpt><trkpt lat="44.0899382" lon="9.8833554"><ele>37.0</ele><time>2026-04-08T06:28:22.958Z</time></trkpt><trkpt lat="44.0900399" lon="9.8833118"><ele>38.0</ele><time>2026-04-08T06:28:23.957Z</time></trkpt><trkpt lat="44.0919148" lon="9.8821672"><ele>38.0</ele><time>2026-04-08T06:28:35.957Z</time></trkpt><trkpt lat="44.0920586" lon="9.8820372"><ele>38.0</ele><time>2026-04-08T06:28:36.957Z</time></trkpt><trkpt lat="44.1022418" lon="9.8668401"><ele>35.33333333333333</ele><time>2026-04-08T06:29:57.957Z</time></trkpt><trkpt lat="44.1023938" lon="9.8666493"><ele>32.666666666666664</ele><time>2026-04-08T06:29:58.957Z</time></trkpt><trkpt lat="44.1025064" lon="9.8664666"><ele>30.0</ele><time>2026-04-08T06:29:59.958Z</time></trkpt><trkpt lat="44.1026136" lon="9.8662804"><ele>30.0</ele><time>2026-04-08T06:30:00.958Z</time></trkpt><trkpt lat="44.1027242" lon="9.8660974"><ele>30.0</ele><time>2026-04-08T06:30:01.957Z</time></trkpt><trkpt lat="44.102835" lon="9.8659157"><ele>30.0</ele><time>2026-04-08T06:30:02.958Z</time></trkpt><trkpt lat="44.1029457" lon="9.8657339"><ele>32.0</ele><time>2026-04-08T06:30:03.957Z</time></trkpt><trkpt lat="44.1048542" lon="9.8626767"><ele>27.0</ele><time>2026-04-08T06:30:20.957Z</time></trkpt><trkpt lat="44.1049679" lon="9.8625219"><ele>22.0</ele><time>2026-04-08T06:30:21.958Z</time></trkpt><trkpt lat="44.1050904" lon="9.8623696"><ele>17.0</ele><time>2026-04-08T06:30:22.958Z</time></trkpt><trkpt lat="44.1052167" lon="9.8622285"><ele>17.0</ele><time>2026-04-08T06:30:23.957Z</time></trkpt><trkpt lat="44.1053495" lon="9.8620986"><ele>17.0</ele><time>2026-04-08T06:30:24.958Z</time></trkpt><trkpt lat="44.1054863" lon="9.8619767"><ele>17.0</ele><time>2026-04-08T06:30:25.957Z</time></trkpt><trkpt lat="44.1056289" lon="9.861866"><ele>16.0</ele><time>2026-04-08T06:30:26.957Z</time></trkpt><trkpt lat="44.1057746" lon="9.8617627"><ele>15.0</ele><time>2026-04-08T06:30:27.957Z</time></trkpt><trkpt lat="44.1059252" lon="9.8616669"><ele>14.0</ele><time>2026-04-08T06:30:28.958Z</time></trkpt><trkpt lat="44.1060874" lon="9.8615794"><ele>14.0</ele><time>2026-04-08T06:30:29.958Z</time></trkpt><trkpt lat="44.106257" lon="9.8615028"><ele>14.0</ele><time>2026-04-08T06:30:30.957Z</time></trkpt><trkpt lat="44.106428" lon="9.8614231"><ele>14.0</ele><time>2026-04-08T06:30:31.958Z</time></trkpt><trkpt lat="44.1066017" lon="9.8613356"><ele>13.666666666666668</ele><time>2026-04-08T06:30:32.957Z</time></trkpt><trkpt lat="44.1067754" lon="9.8612535"><ele>13.333333333333332</ele><time>2026-04-08T06:30:33.957Z</time></trkpt><trkpt lat="44.106946" lon="9.8611715"><ele>13.0</ele><time>2026-04-08T06:30:34.958Z</time></trkpt><trkpt lat="44.1071142" lon="9.8610926"><ele>13.0</ele><time>2026-04-08T06:30:35.957Z</time></trkpt><trkpt lat="44.1072816" lon="9.8610123"><ele>13.0</ele><time>2026-04-08T06:30:36.957Z</time></trkpt><trkpt lat="44.1074486" lon="9.8609333"><ele>13.0</ele><time>2026-04-08T06:30:37.957Z</time></trkpt><trkpt lat="44.1076131" lon="9.8608553"><ele>10.333333333333332</ele><time>2026-04-08T06:30:38.957Z</time></trkpt><trkpt lat="44.1077776" lon="9.8607737"><ele>7.666666666666666</ele><time>2026-04-08T06:30:39.957Z</time></trkpt><trkpt lat="44.1079455" lon="9.8606934"><ele>5.0</ele><time>2026-04-08T06:30:40.957Z</time></trkpt><trkpt lat="44.1081106" lon="9.8606135"><ele>3.666666666666667</ele><time>2026-04-08T06:30:41.957Z</time></trkpt><trkpt lat="44.1082762" lon="9.8605367"><ele>2.3333333333333335</ele><time>2026-04-08T06:30:42.957Z</time></trkpt><trkpt lat="44.1084438" lon="9.8604576"><ele>1.0</ele><time>2026-04-08T06:30:43.957Z</time></trkpt><trkpt lat="44.1086117" lon="9.8603766"><ele>1.0</ele><time>2026-04-08T06:30:44.957Z</time></trkpt><trkpt lat="44.1087829" lon="9.8602918"><ele>1.0</ele><time>2026-04-08T06:30:45.957Z</time></trkpt><trkpt lat="44.1089541" lon="9.8602108"><ele>1.0</ele><time>2026-04-08T06:30:46.957Z</time></trkpt><trkpt lat="44.109128" lon="9.8601289"><ele>1.6666666666666665</ele><time>2026-04-08T06:30:47.957Z</time></trkpt><trkpt lat="44.1093034" lon="9.8600433"><ele>2.3333333333333335</ele><time>2026-04-08T06:30:48.957Z</time></trkpt><trkpt lat="44.1094783" lon="9.8599566"><ele>3.0</ele><time>2026-04-08T06:30:49.957Z</time></trkpt><trkpt lat="44.1096534" lon="9.8598713"><ele>3.0</ele><time>2026-04-08T06:30:50.958Z</time></trkpt><trkpt lat="44.1098269" lon="9.8597868"><ele>3.0</ele><time>2026-04-08T06:30:51.958Z</time></trkpt><trkpt lat="44.1099971" lon="9.8597043"><ele>3.0</ele><time>2026-04-08T06:30:52.957Z</time></trkpt><trkpt lat="44.110162" lon="9.8596203"><ele>2.0</ele><time>2026-04-08T06:30:53.957Z</time></trkpt><trkpt lat="44.1103218" lon="9.8595411"><ele>1.0</ele><time>2026-04-08T06:30:54.958Z</time></trkpt><trkpt lat="44.1104751" lon="9.8594661"><ele>0.0</ele><time>2026-04-08T06:30:55.957Z</time></trkpt><trkpt lat="44.1106184" lon="9.8593963"><ele>0.5</ele><time>2026-04-08T06:30:56.957Z</time></trkpt><trkpt lat="44.1107516" lon="9.8593149"><ele>1.0</ele><time>2026-04-08T06:30:57.958Z</time></trkpt><trkpt lat="44.110869" lon="9.8592085"><ele>1.5</ele><time>2026-04-08T06:30:58.957Z</time></trkpt><trkpt lat="44.1109706" lon="9.8590742"><ele>2.0</ele><time>2026-04-08T06:30:59.957Z</time></trkpt><trkpt lat="44.111059" lon="9.8589203"><ele>2.0</ele><time>2026-04-08T06:31:00.957Z</time></trkpt><trkpt lat="44.1111315" lon="9.8587562"><ele>2.0</ele><time>2026-04-08T06:31:01.958Z</time></trkpt><trkpt lat="44.1112032" lon="9.8586001"><ele>2.0</ele><time>2026-04-08T06:31:02.957Z</time></trkpt><trkpt lat="44.1112885" lon="9.858468"><ele>2.0</ele><time>2026-04-08T06:31:03.957Z</time></trkpt><trkpt lat="44.1113984" lon="9.858389"><ele>2.0</ele><time>2026-04-08T06:31:04.958Z</time></trkpt><trkpt lat="44.1115165" lon="9.8583645"><ele>2.0</ele><time>2026-04-08T06:31:05.957Z</time></trkpt><trkpt lat="44.1116403" lon="9.8583767"><ele>2.0</ele><time>2026-04-08T06:31:06.957Z</time></trkpt><trkpt lat="44.1117663" lon="9.8584152"><ele>2.0</ele><time>2026-04-08T06:31:07.957Z</time></trkpt><trkpt lat="44.1118857" lon="9.8584897"><ele>2.0</ele><time>2026-04-08T06:31:08.957Z</time></trkpt><trkpt lat="44.1119977" lon="9.8585773"><ele>2.0</ele><time>2026-04-08T06:31:09.957Z</time></trkpt><trkpt lat="44.1121017" lon="9.8586709"><ele>2.0</ele><time>2026-04-08T06:31:10.957Z</time></trkpt><trkpt lat="44.1122025" lon="9.8587663"><ele>2.0</ele><time>2026-04-08T06:31:11.957Z</time></trkpt><trkpt lat="44.1122978" lon="9.8588621"><ele>2.0</ele><time>2026-04-08T06:31:12.957Z</time></trkpt><trkpt lat="44.1123883" lon="9.8589631"><ele>2.0</ele><time>2026-04-08T06:31:13.957Z</time></trkpt><trkpt lat="44.1124805" lon="9.8590771"><ele>2.0</ele><time>2026-04-08T06:31:14.958Z</time></trkpt><trkpt lat="44.1125735" lon="9.8591966"><ele>2.0</ele><time>2026-04-08T06:31:15.958Z</time></trkpt><trkpt lat="44.1126647" lon="9.8593254"><ele>1.75</ele><time>2026-04-08T06:31:16.957Z</time></trkpt><trkpt lat="44.1127548" lon="9.8594604"><ele>1.5</ele><time>2026-04-08T06:31:17.958Z</time></trkpt><trkpt lat="44.1128461" lon="9.8596045"><ele>1.25</ele><time>2026-04-08T06:31:18.957Z</time></trkpt><trkpt lat="44.1129361" lon="9.8597568"><ele>1.0</ele><time>2026-04-08T06:31:19.957Z</time></trkpt><trkpt lat="44.1130292" lon="9.8599176"><ele>1.0</ele><time>2026-04-08T06:31:20.958Z</time></trkpt><trkpt lat="44.1131239" lon="9.8600865"><ele>1.0</ele><time>2026-04-08T06:31:21.957Z</time></trkpt><trkpt lat="44.113225" lon="9.8602551"><ele>1.0</ele><time>2026-04-08T06:31:22.957Z</time></trkpt><trkpt lat="44.1133275" lon="9.8604273"><ele>2.0</ele><time>2026-04-08T06:31:23.957Z</time></trkpt><trkpt lat="44.1134374" lon="9.8606043"><ele>3.0</ele><time>2026-04-08T06:31:24.957Z</time></trkpt><trkpt lat="44.1135521" lon="9.860784"><ele>4.0</ele><time>2026-04-08T06:31:25.957Z</time></trkpt><trkpt lat="44.1136742" lon="9.8609621"><ele>4.0</ele><time>2026-04-08T06:31:26.958Z</time></trkpt><trkpt lat="44.1138003" lon="9.8611494"><ele>4.0</ele><time>2026-04-08T06:31:27.957Z</time></trkpt><trkpt lat="44.1139271" lon="9.861349"><ele>4.0</ele><time>2026-04-08T06:31:28.957Z</time></trkpt><trkpt lat="44.1140499" lon="9.8615623"><ele>4.0</ele><time>2026-04-08T06:31:29.957Z</time></trkpt><trkpt lat="44.1141755" lon="9.861781"><ele>4.0</ele><time>2026-04-08T06:31:30.957Z</time></trkpt><trkpt lat="44.1143033" lon="9.8620071"><ele>4.0</ele><time>2026-04-08T06:31:31.958Z</time></trkpt><trkpt lat="44.1144304" lon="9.8622406"><ele>4.0</ele><time>2026-04-08T06:31:32.958Z</time></trkpt><trkpt lat="44.1145557" lon="9.862485"><ele>4.0</ele><time>2026-04-08T06:31:33.957Z</time></trkpt><trkpt lat="44.1146728" lon="9.8627385"><ele>4.0</ele><time>2026-04-08T06:31:34.957Z</time></trkpt><trkpt lat="44.1147823" lon="9.8630039"><ele>3.6666666666666665</ele><time>2026-04-08T06:31:35.957Z</time></trkpt><trkpt lat="44.1148836" lon="9.863279"><ele>3.333333333333333</ele><time>2026-04-08T06:31:36.957Z</time></trkpt><trkpt lat="44.1149663" lon="9.8635651"><ele>3.0</ele><time>2026-04-08T06:31:37.958Z</time></trkpt><trkpt lat="44.1150309" lon="9.8638601"><ele>3.333333333333333</ele><time>2026-04-08T06:31:38.957Z</time></trkpt><trkpt lat="44.1150809" lon="9.8641634"><ele>3.6666666666666665</ele><time>2026-04-08T06:31:39.957Z</time></trkpt><trkpt lat="44.1151163" lon="9.8644719"><ele>4.0</ele><time>2026-04-08T06:31:40.957Z</time></trkpt><trkpt lat="44.1151329" lon="9.8647862"><ele>4.0</ele><time>2026-04-08T06:31:41.957Z</time></trkpt><trkpt lat="44.1151348" lon="9.8651025"><ele>4.0</ele><time>2026-04-08T06:31:42.957Z</time></trkpt><trkpt lat="44.1151238" lon="9.8654198"><ele>4.5</ele><time>2026-04-08T06:31:43.957Z</time></trkpt><trkpt lat="44.1151012" lon="9.8657367"><ele>5.0</ele><time>2026-04-08T06:31:44.957Z</time></trkpt><trkpt lat="44.1150632" lon="9.8660538"><ele>5.0</ele><time>2026-04-08T06:31:45.958Z</time></trkpt><trkpt lat="44.1150224" lon="9.8663716"><ele>5.0</ele><time>2026-04-08T06:31:46.957Z</time></trkpt><trkpt lat="44.1149824" lon="9.8666896"><ele>5.0</ele><time>2026-04-08T06:31:47.957Z</time></trkpt><trkpt lat="44.1149382" lon="9.8670092"><ele>5.0</ele><time>2026-04-08T06:31:48.957Z</time></trkpt><trkpt lat="44.1148936" lon="9.8673277"><ele>6.0</ele><time>2026-04-08T06:31:49.958Z</time></trkpt><trkpt lat="44.114848" lon="9.8676456"><ele>7.0</ele><time>2026-04-08T06:31:50.957Z</time></trkpt><trkpt lat="44.1148055" lon="9.8679653"><ele>7.0</ele><time>2026-04-08T06:31:51.957Z</time></trkpt><trkpt lat="44.1147643" lon="9.8682824"><ele>7.0</ele><time>2026-04-08T06:31:52.957Z</time></trkpt><trkpt lat="44.114724" lon="9.8685997"><ele>7.0</ele><time>2026-04-08T06:31:53.958Z</time></trkpt><trkpt lat="44.1146872" lon="9.8689192"><ele>7.0</ele><time>2026-04-08T06:31:54.957Z</time></trkpt><trkpt lat="44.1146538" lon="9.8692406"><ele>7.0</ele><time>2026-04-08T06:31:55.958Z</time></trkpt><trkpt lat="44.1146286" lon="9.8695631"><ele>7.0</ele><time>2026-04-08T06:31:56.958Z</time></trkpt><trkpt lat="44.1146105" lon="9.8698845"><ele>6.5</ele><time>2026-04-08T06:31:57.957Z</time></trkpt><trkpt lat="44.1146036" lon="9.8702092"><ele>6.0</ele><time>2026-04-08T06:31:58.957Z</time></trkpt><trkpt lat="44.1146115" lon="9.8705323"><ele>6.0</ele><time>2026-04-08T06:31:59.957Z</time></trkpt><trkpt lat="44.1146285" lon="9.8708556"><ele>6.0</ele><time>2026-04-08T06:32:00.957Z</time></trkpt><trkpt lat="44.1146576" lon="9.8711747"><ele>5.5</ele><time>2026-04-08T06:32:01.958Z</time></trkpt><trkpt lat="44.1146971" lon="9.8714931"><ele>5.0</ele><time>2026-04-08T06:32:02.958Z</time></trkpt><trkpt lat="44.1147478" lon="9.87181"><ele>6.0</ele><time>2026-04-08T06:32:03.957Z</time></trkpt><trkpt lat="44.1148068" lon="9.8721236"><ele>7.0</ele><time>2026-04-08T06:32:04.957Z</time></trkpt><trkpt lat="44.1148682" lon="9.8724371"><ele>9.0</ele><time>2026-04-08T06:32:05.958Z</time></trkpt><trkpt lat="44.1149293" lon="9.8727496"><ele>11.0</ele><time>2026-04-08T06:32:06.957Z</time></trkpt><trkpt lat="44.1149836" lon="9.8730619"><ele>11.0</ele><time>2026-04-08T06:32:07.957Z</time></trkpt><trkpt lat="44.1150313" lon="9.8733778"><ele>11.0</ele><time>2026-04-08T06:32:08.958Z</time></trkpt><trkpt lat="44.1150804" lon="9.8736926"><ele>10.0</ele><time>2026-04-08T06:32:09.958Z</time></trkpt><trkpt lat="44.1151292" lon="9.8740012"><ele>9.0</ele><time>2026-04-08T06:32:10.957Z</time></trkpt><trkpt lat="44.1151785" lon="9.8743092"><ele>9.0</ele><time>2026-04-08T06:32:11.958Z</time></trkpt><trkpt lat="44.1152266" lon="9.8746118"><ele>9.0</ele><time>2026-04-08T06:32:12.958Z</time></trkpt><trkpt lat="44.1152766" lon="9.8749143"><ele>9.0</ele><time>2026-04-08T06:32:13.957Z</time></trkpt><trkpt lat="44.1153218" lon="9.8752166"><ele>9.0</ele><time>2026-04-08T06:32:14.957Z</time></trkpt><trkpt lat="44.1153686" lon="9.8755155"><ele>9.0</ele><time>2026-04-08T06:32:15.957Z</time></trkpt><trkpt lat="44.1154169" lon="9.8758157"><ele>9.0</ele><time>2026-04-08T06:32:16.957Z</time></trkpt><trkpt lat="44.1154651" lon="9.8761134"><ele>9.0</ele><time>2026-04-08T06:32:17.957Z</time></trkpt><trkpt lat="44.1155119" lon="9.8764119"><ele>9.0</ele><time>2026-04-08T06:32:18.957Z</time></trkpt><trkpt lat="44.1155618" lon="9.8767099"><ele>9.0</ele><time>2026-04-08T06:32:19.957Z</time></trkpt><trkpt lat="44.1156121" lon="9.8770063"><ele>9.0</ele><time>2026-04-08T06:32:20.957Z</time></trkpt><trkpt lat="44.1156608" lon="9.8773027"><ele>9.0</ele><time>2026-04-08T06:32:21.957Z</time></trkpt><trkpt lat="44.1157095" lon="9.8776028"><ele>9.0</ele><time>2026-04-08T06:32:22.958Z</time></trkpt><trkpt lat="44.1157553" lon="9.8779045"><ele>10.5</ele><time>2026-04-08T06:32:23.957Z</time></trkpt><trkpt lat="44.1158024" lon="9.8782094"><ele>12.0</ele><time>2026-04-08T06:32:24.957Z</time></trkpt><trkpt lat="44.1158531" lon="9.8785177"><ele>14.5</ele><time>2026-04-08T06:32:25.957Z</time></trkpt><trkpt lat="44.1159036" lon="9.8788288"><ele>17.0</ele><time>2026-04-08T06:32:26.957Z</time></trkpt><trkpt lat="44.1159551" lon="9.8791479"><ele>19.0</ele><time>2026-04-08T06:32:27.958Z</time></trkpt><trkpt lat="44.1160096" lon="9.8794801"><ele>21.0</ele><time>2026-04-08T06:32:28.958Z</time></trkpt><trkpt lat="44.1160644" lon="9.8798172"><ele>19.5</ele><time>2026-04-08T06:32:29.957Z</time></trkpt><trkpt lat="44.1161175" lon="9.8801574"><ele>18.0</ele><time>2026-04-08T06:32:30.957Z</time></trkpt><trkpt lat="44.1161628" lon="9.8805051"><ele>18.0</ele><time>2026-04-08T06:32:31.957Z</time></trkpt><trkpt lat="44.1162052" lon="9.8808584"><ele>18.0</ele><time>2026-04-08T06:32:32.957Z</time></trkpt><trkpt lat="44.1162356" lon="9.8812094"><ele>17.5</ele><time>2026-04-08T06:32:33.957Z</time></trkpt><trkpt lat="44.1162583" lon="9.8815628"><ele>17.0</ele><time>2026-04-08T06:32:34.957Z</time></trkpt><trkpt lat="44.1162711" lon="9.8819162"><ele>17.0</ele><time>2026-04-08T06:32:35.957Z</time></trkpt><trkpt lat="44.1162775" lon="9.8822717"><ele>17.0</ele><time>2026-04-08T06:32:36.958Z</time></trkpt><trkpt lat="44.1162843" lon="9.8826287"><ele>18.5</ele><time>2026-04-08T06:32:37.958Z</time></trkpt><trkpt lat="44.1162948" lon="9.8829895"><ele>20.0</ele><time>2026-04-08T06:32:38.957Z</time></trkpt><trkpt lat="44.1163108" lon="9.8833528"><ele>21.0</ele><time>2026-04-08T06:32:39.958Z</time></trkpt><trkpt lat="44.1163314" lon="9.8837243"><ele>22.0</ele><time>2026-04-08T06:32:40.957Z</time></trkpt><trkpt lat="44.116366" lon="9.8840932"><ele>26.5</ele><time>2026-04-08T06:32:41.958Z</time></trkpt><trkpt lat="44.1164117" lon="9.8844583"><ele>31.0</ele><time>2026-04-08T06:32:42.958Z</time></trkpt><trkpt lat="44.1164703" lon="9.8848185"><ele>31.5</ele><time>2026-04-08T06:32:43.958Z</time></trkpt><trkpt lat="44.1165402" lon="9.8851709"><ele>32.0</ele><time>2026-04-08T06:32:44.958Z</time></trkpt><trkpt lat="44.1166231" lon="9.8855125"><ele>32.0</ele><time>2026-04-08T06:32:45.958Z</time></trkpt><trkpt lat="44.1167236" lon="9.8858385"><ele>32.0</ele><time>2026-04-08T06:32:46.957Z</time></trkpt><trkpt lat="44.1168398" lon="9.8861461"><ele>33.0</ele><time>2026-04-08T06:32:47.957Z</time></trkpt><trkpt lat="44.116972" lon="9.8864359"><ele>34.0</ele><time>2026-04-08T06:32:48.958Z</time></trkpt><trkpt lat="44.117114" lon="9.8867099"><ele>38.0</ele><time>2026-04-08T06:32:49.957Z</time></trkpt><trkpt lat="44.117263" lon="9.8869693"><ele>42.0</ele><time>2026-04-08T06:32:50.957Z</time></trkpt><trkpt lat="44.1174221" lon="9.887215"><ele>44.0</ele><time>2026-04-08T06:32:51.957Z</time></trkpt><trkpt lat="44.1175946" lon="9.8874442"><ele>46.0</ele><time>2026-04-08T06:32:52.958Z</time></trkpt><trkpt lat="44.1177775" lon="9.887662"><ele>52.0</ele><time>2026-04-08T06:32:53.957Z</time></trkpt><trkpt lat="44.117966" lon="9.8878665"><ele>58.0</ele><time>2026-04-08T06:32:54.958Z</time></trkpt><trkpt lat="44.1246131" lon="9.8936889"><ele>59.0</ele><time>2026-04-08T06:33:22.958Z</time></trkpt><trkpt lat="44.1247943" lon="9.8938579"><ele>60.0</ele><time>2026-04-08T06:33:23.957Z</time></trkpt><trkpt lat="44.1249909" lon="9.8940206"><ele>61.0</ele><time>2026-04-08T06:33:24.958Z</time></trkpt><trkpt lat="44.1251857" lon="9.8941861"><ele>53.0</ele><time>2026-04-08T06:33:25.957Z</time></trkpt><trkpt lat="44.1253859" lon="9.8943502"><ele>45.0</ele><time>2026-04-08T06:33:26.957Z</time></trkpt><trkpt lat="44.1255944" lon="9.8945098"><ele>38.0</ele><time>2026-04-08T06:33:27.957Z</time></trkpt><trkpt lat="44.1258085" lon="9.8946601"><ele>31.0</ele><time>2026-04-08T06:33:28.957Z</time></trkpt><trkpt lat="44.1260295" lon="9.8947982"><ele>31.0</ele><time>2026-04-08T06:33:29.958Z</time></trkpt><trkpt lat="44.126259" lon="9.8949181"><ele>31.0</ele><time>2026-04-08T06:33:30.958Z</time></trkpt><trkpt lat="44.1264944" lon="9.8950222"><ele>33.0</ele><time>2026-04-08T06:33:31.957Z</time></trkpt><trkpt lat="44.1267383" lon="9.8951091"><ele>35.0</ele><time>2026-04-08T06:33:32.957Z</time></trkpt><trkpt lat="44.1269795" lon="9.8951798"><ele>35.0</ele><time>2026-04-08T06:33:33.958Z</time></trkpt><trkpt lat="44.1272283" lon="9.8952342"><ele>35.0</ele><time>2026-04-08T06:33:34.957Z</time></trkpt><trkpt lat="44.1274771" lon="9.8952757"><ele>37.5</ele><time>2026-04-08T06:33:35.957Z</time></trkpt><trkpt lat="44.1277274" lon="9.895316"><ele>40.0</ele><time>2026-04-08T06:33:36.958Z</time></trkpt><trkpt lat="44.1279798" lon="9.8953558"><ele>46.5</ele><time>2026-04-08T06:33:37.957Z</time></trkpt><trkpt lat="44.128233" lon="9.8953894"><ele>53.0</ele><time>2026-04-08T06:33:38.957Z</time></trkpt><trkpt lat="44.1284865" lon="9.8954295"><ele>53.0</ele><time>2026-04-08T06:33:39.957Z</time></trkpt><trkpt lat="44.1287413" lon="9.8954718"><ele>53.0</ele><time>2026-04-08T06:33:40.958Z</time></trkpt><trkpt lat="44.128994" lon="9.8955249"><ele>54.0</ele><time>2026-04-08T06:33:41.957Z</time></trkpt><trkpt lat="44.1292442" lon="9.8955935"><ele>55.0</ele><time>2026-04-08T06:33:42.957Z</time></trkpt><trkpt lat="44.1294908" lon="9.8956859"><ele>55.0</ele><time>2026-04-08T06:33:43.957Z</time></trkpt><trkpt lat="44.1297343" lon="9.8957977"><ele>55.0</ele><time>2026-04-08T06:33:44.958Z</time></trkpt><trkpt lat="44.1299732" lon="9.8959282"><ele>61.0</ele><time>2026-04-08T06:33:45.957Z</time></trkpt><trkpt lat="44.1302064" lon="9.8960758"><ele>67.0</ele><time>2026-04-08T06:33:46.957Z</time></trkpt><trkpt lat="44.1304371" lon="9.8962323"><ele>67.0</ele><time>2026-04-08T06:33:47.957Z</time></trkpt><trkpt lat="44.1306678" lon="9.8963906"><ele>67.0</ele><time>2026-04-08T06:33:48.957Z</time></trkpt><trkpt lat="44.1308987" lon="9.8965462"><ele>68.0</ele><time>2026-04-08T06:33:49.957Z</time></trkpt><trkpt lat="44.1311296" lon="9.896697"><ele>69.0</ele><time>2026-04-08T06:33:50.957Z</time></trkpt><trkpt lat="44.1313634" lon="9.8968486"><ele>58.0</ele><time>2026-04-08T06:33:51.958Z</time></trkpt><trkpt lat="44.1315984" lon="9.8969961"><ele>47.0</ele><time>2026-04-08T06:33:52.957Z</time></trkpt><trkpt lat="44.1318322" lon="9.8971401"><ele>47.0</ele><time>2026-04-08T06:33:53.957Z</time></trkpt><trkpt lat="44.1320711" lon="9.8972768"><ele>47.0</ele><time>2026-04-08T06:33:54.957Z</time></trkpt><trkpt lat="44.1323129" lon="9.897407"><ele>38.0</ele><time>2026-04-08T06:33:55.957Z</time></trkpt><trkpt lat="44.132554" lon="9.8975347"><ele>29.0</ele><time>2026-04-08T06:33:56.958Z</time></trkpt><trkpt lat="44.1327964" lon="9.897662"><ele>26.5</ele><time>2026-04-08T06:33:57.957Z</time></trkpt><trkpt lat="44.1330386" lon="9.8977897"><ele>24.0</ele><time>2026-04-08T06:33:58.957Z</time></trkpt><trkpt lat="44.1332793" lon="9.8979198"><ele>22.5</ele><time>2026-04-08T06:33:59.957Z</time></trkpt><trkpt lat="44.1335203" lon="9.8980497"><ele>21.0</ele><time>2026-04-08T06:34:00.958Z</time></trkpt><trkpt lat="44.1337585" lon="9.8981795"><ele>21.0</ele><time>2026-04-08T06:34:01.957Z</time></trkpt><trkpt lat="44.1339988" lon="9.8983057"><ele>21.0</ele><time>2026-04-08T06:34:02.958Z</time></trkpt><trkpt lat="44.1342363" lon="9.8984349"><ele>19.0</ele><time>2026-04-08T06:34:03.957Z</time></trkpt><trkpt lat="44.1344745" lon="9.8985611"><ele>17.0</ele><time>2026-04-08T06:34:04.957Z</time></trkpt><trkpt lat="44.1347106" lon="9.8986949"><ele>17.5</ele><time>2026-04-08T06:34:05.958Z</time></trkpt><trkpt lat="44.134944" lon="9.8988334"><ele>18.0</ele><time>2026-04-08T06:34:06.957Z</time></trkpt><trkpt lat="44.1351767" lon="9.8989788"><ele>18.0</ele><time>2026-04-08T06:34:07.957Z</time></trkpt><trkpt lat="44.1354056" lon="9.8991242"><ele>18.0</ele><time>2026-04-08T06:34:08.957Z</time></trkpt><trkpt lat="44.1356293" lon="9.8992748"><ele>18.0</ele><time>2026-04-08T06:34:09.958Z</time></trkpt><trkpt lat="44.1358489" lon="9.8994355"><ele>18.0</ele><time>2026-04-08T06:34:10.957Z</time></trkpt><trkpt lat="44.1360599" lon="9.8996045"><ele>18.0</ele><time>2026-04-08T06:34:11.957Z</time></trkpt><trkpt lat="44.1362676" lon="9.8997781"><ele>18.0</ele><time>2026-04-08T06:34:12.957Z</time></trkpt><trkpt lat="44.136472" lon="9.8999581"><ele>16.5</ele><time>2026-04-08T06:34:13.958Z</time></trkpt><trkpt lat="44.1366734" lon="9.9001378"><ele>15.0</ele><time>2026-04-08T06:34:14.957Z</time></trkpt><trkpt lat="44.1368763" lon="9.9003146"><ele>15.0</ele><time>2026-04-08T06:34:15.957Z</time></trkpt><trkpt lat="44.1370816" lon="9.9004877"><ele>15.0</ele><time>2026-04-08T06:34:16.957Z</time></trkpt><trkpt lat="44.1372868" lon="9.9006575"><ele>15.5</ele><time>2026-04-08T06:34:17.958Z</time></trkpt><trkpt lat="44.1374889" lon="9.900837"><ele>16.0</ele><time>2026-04-08T06:34:18.957Z</time></trkpt><trkpt lat="44.137693" lon="9.9010181"><ele>15.0</ele><time>2026-04-08T06:34:19.958Z</time></trkpt><trkpt lat="44.1378967" lon="9.9012003"><ele>14.0</ele><time>2026-04-08T06:34:20.958Z</time></trkpt><trkpt lat="44.1380969" lon="9.9013862"><ele>14.0</ele><time>2026-04-08T06:34:21.957Z</time></trkpt><trkpt lat="44.1383018" lon="9.901571"><ele>14.0</ele><time>2026-04-08T06:34:22.957Z</time></trkpt><trkpt lat="44.1385087" lon="9.901752"><ele>14.5</ele><time>2026-04-08T06:34:23.957Z</time></trkpt><trkpt lat="44.1387169" lon="9.9019356"><ele>15.0</ele><time>2026-04-08T06:34:24.957Z</time></trkpt><trkpt lat="44.1389256" lon="9.9021183"><ele>17.0</ele><time>2026-04-08T06:34:25.957Z</time></trkpt><trkpt lat="44.139136" lon="9.9023006"><ele>19.0</ele><time>2026-04-08T06:34:26.957Z</time></trkpt><trkpt lat="44.1393458" lon="9.9024856"><ele>17.0</ele><time>2026-04-08T06:34:27.958Z</time></trkpt><trkpt lat="44.1395562" lon="9.9026693"><ele>15.0</ele><time>2026-04-08T06:34:28.958Z</time></trkpt><trkpt lat="44.1397679" lon="9.9028529"><ele>14.0</ele><time>2026-04-08T06:34:29.958Z</time></trkpt><trkpt lat="44.1399808" lon="9.9030397"><ele>13.0</ele><time>2026-04-08T06:34:30.958Z</time></trkpt><trkpt lat="44.1401901" lon="9.9032389"><ele>12.5</ele><time>2026-04-08T06:34:31.958Z</time></trkpt><trkpt lat="44.1403963" lon="9.9034388"><ele>12.0</ele><time>2026-04-08T06:34:32.958Z</time></trkpt><trkpt lat="44.1406045" lon="9.9036274"><ele>14.5</ele><time>2026-04-08T06:34:33.957Z</time></trkpt><trkpt lat="44.1408108" lon="9.9038087"><ele>17.0</ele><time>2026-04-08T06:34:34.957Z</time></trkpt><trkpt lat="44.1410134" lon="9.9039869"><ele>17.0</ele><time>2026-04-08T06:34:35.957Z</time></trkpt><trkpt lat="44.1412113" lon="9.9041631"><ele>17.0</ele><time>2026-04-08T06:34:36.958Z</time></trkpt><trkpt lat="44.1414078" lon="9.904338"><ele>16.5</ele><time>2026-04-08T06:34:37.957Z</time></trkpt><trkpt lat="44.1416018" lon="9.9045076"><ele>16.0</ele><time>2026-04-08T06:34:38.957Z</time></trkpt><trkpt lat="44.1417944" lon="9.904674"><ele>16.0</ele><time>2026-04-08T06:34:39.958Z</time></trkpt><trkpt lat="44.141989" lon="9.9048379"><ele>16.0</ele><time>2026-04-08T06:34:40.957Z</time></trkpt><trkpt lat="44.1421917" lon="9.9049992"><ele>15.0</ele><time>2026-04-08T06:34:41.957Z</time></trkpt><trkpt lat="44.1424003" lon="9.9051651"><ele>14.0</ele><time>2026-04-08T06:34:42.957Z</time></trkpt><trkpt lat="44.1426105" lon="9.9053388"><ele>14.0</ele><time>2026-04-08T06:34:43.957Z</time></trkpt><trkpt lat="44.1428212" lon="9.905522"><ele>14.0</ele><time>2026-04-08T06:34:44.958Z</time></trkpt><trkpt lat="44.1430366" lon="9.9057043"><ele>13.5</ele><time>2026-04-08T06:34:45.957Z</time></trkpt><trkpt lat="44.1432471" lon="9.9058812"><ele>13.0</ele><time>2026-04-08T06:34:46.957Z</time></trkpt><trkpt lat="44.1434393" lon="9.9060497"><ele>13.666666666666666</ele><time>2026-04-08T06:34:47.957Z</time></trkpt><trkpt lat="44.1436216" lon="9.9062099"><ele>14.333333333333332</ele><time>2026-04-08T06:34:48.957Z</time></trkpt><trkpt lat="44.1437955" lon="9.906365"><ele>15.0</ele><time>2026-04-08T06:34:49.957Z</time></trkpt><trkpt lat="44.1439707" lon="9.9065177"><ele>15.0</ele><time>2026-04-08T06:34:50.957Z</time></trkpt><trkpt lat="44.1441438" lon="9.9066719"><ele>15.0</ele><time>2026-04-08T06:34:51.958Z</time></trkpt><trkpt lat="44.1443222" lon="9.9068257"><ele>15.0</ele><time>2026-04-08T06:34:52.957Z</time></trkpt><trkpt lat="44.1445015" lon="9.906984"><ele>15.0</ele><time>2026-04-08T06:34:53.958Z</time></trkpt><trkpt lat="44.1446829" lon="9.9071441"><ele>15.0</ele><time>2026-04-08T06:34:54.957Z</time></trkpt><trkpt lat="44.1448673" lon="9.9073081"><ele>15.0</ele><time>2026-04-08T06:34:55.958Z</time></trkpt><trkpt lat="44.1450545" lon="9.90747"><ele>14.5</ele><time>2026-04-08T06:34:56.957Z</time></trkpt><trkpt lat="44.1452453" lon="9.9076357"><ele>14.0</ele><time>2026-04-08T06:34:57.958Z</time></trkpt><trkpt lat="44.1454363" lon="9.9078013"><ele>14.0</ele><time>2026-04-08T06:34:58.957Z</time></trkpt><trkpt lat="44.1456299" lon="9.9079708"><ele>14.0</ele><time>2026-04-08T06:34:59.957Z</time></trkpt><trkpt lat="44.1458249" lon="9.9081429"><ele>13.5</ele><time>2026-04-08T06:35:00.957Z</time></trkpt><trkpt lat="44.1460213" lon="9.9083157"><ele>13.0</ele><time>2026-04-08T06:35:01.957Z</time></trkpt><trkpt lat="44.1462194" lon="9.9084927"><ele>12.5</ele><time>2026-04-08T06:35:02.957Z</time></trkpt><trkpt lat="44.1464197" lon="9.9086686"><ele>12.0</ele><time>2026-04-08T06:35:03.958Z</time></trkpt><trkpt lat="44.146618" lon="9.9088427"><ele>12.0</ele><time>2026-04-08T06:35:04.957Z</time></trkpt><trkpt lat="44.1468235" lon="9.9090196"><ele>12.0</ele><time>2026-04-08T06:35:05.958Z</time></trkpt><trkpt lat="44.1470254" lon="9.9091964"><ele>11.5</ele><time>2026-04-08T06:35:06.957Z</time></trkpt><trkpt lat="44.1472251" lon="9.9093754"><ele>11.0</ele><time>2026-04-08T06:35:07.957Z</time></trkpt><trkpt lat="44.147424" lon="9.9095493"><ele>12.0</ele><time>2026-04-08T06:35:08.958Z</time></trkpt><trkpt lat="44.1476218" lon="9.9097231"><ele>13.0</ele><time>2026-04-08T06:35:09.957Z</time></trkpt><trkpt lat="44.1478189" lon="9.9098972"><ele>13.0</ele><time>2026-04-08T06:35:10.957Z</time></trkpt><trkpt lat="44.1480171" lon="9.9100676"><ele>13.0</ele><time>2026-04-08T06:35:11.957Z</time></trkpt><trkpt lat="44.1482151" lon="9.9102386"><ele>14.5</ele><time>2026-04-08T06:35:12.958Z</time></trkpt><trkpt lat="44.1484114" lon="9.91041"><ele>16.0</ele><time>2026-04-08T06:35:13.958Z</time></trkpt><trkpt lat="44.148606" lon="9.9105796"><ele>16.0</ele><time>2026-04-08T06:35:14.958Z</time></trkpt><trkpt lat="44.1487991" lon="9.9107446"><ele>16.0</ele><time>2026-04-08T06:35:15.958Z</time></trkpt><trkpt lat="44.1489882" lon="9.9109091"><ele>16.0</ele><time>2026-04-08T06:35:16.958Z</time></trkpt><trkpt lat="44.1491683" lon="9.9110714"><ele>16.0</ele><time>2026-04-08T06:35:17.958Z</time></trkpt><trkpt lat="44.1493445" lon="9.9112289"><ele>16.0</ele><time>2026-04-08T06:35:18.957Z</time></trkpt><trkpt lat="44.1495167" lon="9.9113808"><ele>16.0</ele><time>2026-04-08T06:35:19.957Z</time></trkpt><trkpt lat="44.1496846" lon="9.9115319"><ele>16.0</ele><time>2026-04-08T06:35:20.958Z</time></trkpt><trkpt lat="44.1498488" lon="9.9116763"><ele>16.0</ele><time>2026-04-08T06:35:21.958Z</time></trkpt><trkpt lat="44.1500101" lon="9.9118203"><ele>16.0</ele><time>2026-04-08T06:35:22.958Z</time></trkpt><trkpt lat="44.1501723" lon="9.9119656"><ele>16.0</ele><time>2026-04-08T06:35:23.958Z</time></trkpt><trkpt lat="44.1503338" lon="9.9121035"><ele>16.0</ele><time>2026-04-08T06:35:24.958Z</time></trkpt><trkpt lat="44.150497" lon="9.9122446"><ele>16.0</ele><time>2026-04-08T06:35:25.957Z</time></trkpt><trkpt lat="44.1506573" lon="9.9123855"><ele>17.0</ele><time>2026-04-08T06:35:26.957Z</time></trkpt><trkpt lat="44.1508192" lon="9.9125253"><ele>18.0</ele><time>2026-04-08T06:35:27.957Z</time></trkpt><trkpt lat="44.1509818" lon="9.9126668"><ele>19.0</ele><time>2026-04-08T06:35:28.957Z</time></trkpt><trkpt lat="44.1511429" lon="9.9128093"><ele>19.333333333333332</ele><time>2026-04-08T06:35:29.957Z</time></trkpt><trkpt lat="44.1513015" lon="9.9129521"><ele>19.666666666666668</ele><time>2026-04-08T06:35:30.957Z</time></trkpt><trkpt lat="44.1514603" lon="9.9130957"><ele>20.0</ele><time>2026-04-08T06:35:31.958Z</time></trkpt><trkpt lat="44.1516202" lon="9.9132401"><ele>20.0</ele><time>2026-04-08T06:35:32.957Z</time></trkpt><trkpt lat="44.1517726" lon="9.9133848"><ele>20.0</ele><time>2026-04-08T06:35:33.958Z</time></trkpt><trkpt lat="44.1519227" lon="9.9135345"><ele>20.0</ele><time>2026-04-08T06:35:34.957Z</time></trkpt><trkpt lat="44.1520664" lon="9.913687"><ele>19.666666666666668</ele><time>2026-04-08T06:35:35.957Z</time></trkpt><trkpt lat="44.1521984" lon="9.9138495"><ele>19.333333333333332</ele><time>2026-04-08T06:35:36.957Z</time></trkpt><trkpt lat="44.1523196" lon="9.9140077"><ele>19.0</ele><time>2026-04-08T06:35:37.957Z</time></trkpt><trkpt lat="44.1524282" lon="9.9141624"><ele>19.5</ele><time>2026-04-08T06:35:38.957Z</time></trkpt><trkpt lat="44.1525323" lon="9.9143133"><ele>20.0</ele><time>2026-04-08T06:35:39.958Z</time></trkpt><trkpt lat="44.1526316" lon="9.9144691"><ele>20.5</ele><time>2026-04-08T06:35:40.957Z</time></trkpt><trkpt lat="44.1527249" lon="9.914627"><ele>21.0</ele><time>2026-04-08T06:35:41.957Z</time></trkpt><trkpt lat="44.1528174" lon="9.9147868"><ele>21.0</ele><time>2026-04-08T06:35:42.957Z</time></trkpt><trkpt lat="44.1529002" lon="9.9149442"><ele>21.0</ele><time>2026-04-08T06:35:43.957Z</time></trkpt><trkpt lat="44.1529814" lon="9.9151073"><ele>21.0</ele><time>2026-04-08T06:35:44.957Z</time></trkpt><trkpt lat="44.1530594" lon="9.9152711"><ele>21.0</ele><time>2026-04-08T06:35:45.957Z</time></trkpt><trkpt lat="44.1531321" lon="9.915431"><ele>21.25</ele><time>2026-04-08T06:35:46.957Z</time></trkpt><trkpt lat="44.1532012" lon="9.9155843"><ele>21.5</ele><time>2026-04-08T06:35:47.958Z</time></trkpt><trkpt lat="44.1532648" lon="9.9157367"><ele>21.75</ele><time>2026-04-08T06:35:48.958Z</time></trkpt><trkpt lat="44.1533154" lon="9.9158884"><ele>22.0</ele><time>2026-04-08T06:35:49.957Z</time></trkpt><trkpt lat="44.1533571" lon="9.9160371"><ele>22.0</ele><time>2026-04-08T06:35:50.957Z</time></trkpt><trkpt lat="44.1533966" lon="9.9161776"><ele>22.0</ele><time>2026-04-08T06:35:51.958Z</time></trkpt><trkpt lat="44.1534344" lon="9.9163145"><ele>22.0</ele><time>2026-04-08T06:35:52.957Z</time></trkpt><trkpt lat="44.1534677" lon="9.9164522"><ele>22.0</ele><time>2026-04-08T06:35:53.958Z</time></trkpt><trkpt lat="44.1534931" lon="9.9165607"><ele>22.0</ele><time>2026-04-08T06:35:54.957Z</time></trkpt><trkpt lat="44.1535186" lon="9.9166544"><ele>22.200000000000003</ele><time>2026-04-08T06:35:55.957Z</time></trkpt><trkpt lat="44.153544" lon="9.9167421"><ele>22.4</ele><time>2026-04-08T06:35:56.958Z</time></trkpt><trkpt lat="44.1535897" lon="9.9168733"><ele>22.6</ele><time>2026-04-08T06:35:58.957Z</time></trkpt><trkpt lat="44.1536256" lon="9.9170295"><ele>22.799999999999997</ele><time>2026-04-08T06:36:00.957Z</time></trkpt><trkpt lat="44.1536269" lon="9.9171314"><ele>23.0</ele><time>2026-04-08T06:36:01.957Z</time></trkpt><trkpt lat="44.1536487" lon="9.9172498"><ele>23.0</ele><time>2026-04-08T06:36:02.957Z</time></trkpt><trkpt lat="44.1537104" lon="9.9173533"><ele>23.0</ele><time>2026-04-08T06:36:03.958Z</time></trkpt><trkpt lat="44.1537756" lon="9.9174316"><ele>23.0</ele><time>2026-04-08T06:36:04.957Z</time></trkpt><trkpt lat="44.1538457" lon="9.9175072"><ele>23.0</ele><time>2026-04-08T06:36:05.957Z</time></trkpt><trkpt lat="44.1539054" lon="9.9175985"><ele>23.0</ele><time>2026-04-08T06:36:06.957Z</time></trkpt><trkpt lat="44.1539542" lon="9.9177122"><ele>23.4</ele><time>2026-04-08T06:36:07.957Z</time></trkpt><trkpt lat="44.1539938" lon="9.9178378"><ele>23.799999999999997</ele><time>2026-04-08T06:36:08.957Z</time></trkpt><trkpt lat="44.1540324" lon="9.9179628"><ele>24.2</ele><time>2026-04-08T06:36:09.957Z</time></trkpt><trkpt lat="44.154067" lon="9.9180779"><ele>24.6</ele><time>2026-04-08T06:36:10.957Z</time></trkpt><trkpt lat="44.1540969" lon="9.9181853"><ele>25.0</ele><time>2026-04-08T06:36:11.957Z</time></trkpt><trkpt lat="44.154122" lon="9.9182943"><ele>25.333333333333336</ele><time>2026-04-08T06:36:12.958Z</time></trkpt><trkpt lat="44.1541277" lon="9.9184054"><ele>25.666666666666668</ele><time>2026-04-08T06:36:13.957Z</time></trkpt><trkpt lat="44.1541106" lon="9.9185164"><ele>26.0</ele><time>2026-04-08T06:36:14.957Z</time></trkpt><trkpt lat="44.1540977" lon="9.9186271"><ele>26.333333333333336</ele><time>2026-04-08T06:36:15.958Z</time></trkpt><trkpt lat="44.1541096" lon="9.9187398"><ele>26.666666666666668</ele><time>2026-04-08T06:36:16.957Z</time></trkpt><trkpt lat="44.1541566" lon="9.9188333"><ele>27.0</ele><time>2026-04-08T06:36:17.957Z</time></trkpt><trkpt lat="44.1542293" lon="9.9188883"><ele>27.0</ele><time>2026-04-08T06:36:18.957Z</time></trkpt><trkpt lat="44.1543122" lon="9.918896"><ele>27.0</ele><time>2026-04-08T06:36:19.957Z</time></trkpt><trkpt lat="44.1543923" lon="9.9188597"><ele>27.0</ele><time>2026-04-08T06:36:20.957Z</time></trkpt><trkpt lat="44.1544691" lon="9.9188122"><ele>27.0</ele><time>2026-04-08T06:36:21.957Z</time></trkpt><trkpt lat="44.1545502" lon="9.9187886"><ele>27.0</ele><time>2026-04-08T06:36:22.958Z</time></trkpt><trkpt lat="44.1546329" lon="9.9187725"><ele>27.0</ele><time>2026-04-08T06:36:23.958Z</time></trkpt><trkpt lat="44.1547187" lon="9.9187567"><ele>27.0</ele><time>2026-04-08T06:36:24.957Z</time></trkpt><trkpt lat="44.1548083" lon="9.9187415"><ele>27.000000000000004</ele><time>2026-04-08T06:36:25.958Z</time></trkpt><trkpt lat="44.154906" lon="9.9187266"><ele>27.000000000000004</ele><time>2026-04-08T06:36:26.957Z</time></trkpt><trkpt lat="44.1550127" lon="9.9186948"><ele>27.0</ele><time>2026-04-08T06:36:27.957Z</time></trkpt><trkpt lat="44.1551206" lon="9.9186474"><ele>27.0</ele><time>2026-04-08T06:36:28.958Z</time></trkpt><trkpt lat="44.1552279" lon="9.918601"><ele>27.5</ele><time>2026-04-08T06:36:29.957Z</time></trkpt><trkpt lat="44.1553403" lon="9.9185506"><ele>28.0</ele><time>2026-04-08T06:36:30.958Z</time></trkpt><trkpt lat="44.155457" lon="9.9185039"><ele>28.5</ele><time>2026-04-08T06:36:31.958Z</time></trkpt><trkpt lat="44.155576" lon="9.9184558"><ele>29.0</ele><time>2026-04-08T06:36:32.957Z</time></trkpt><trkpt lat="44.1556962" lon="9.918408"><ele>28.5</ele><time>2026-04-08T06:36:33.957Z</time></trkpt><trkpt lat="44.1558157" lon="9.9183597"><ele>28.0</ele><time>2026-04-08T06:36:34.958Z</time></trkpt><trkpt lat="44.1559324" lon="9.9183146"><ele>27.5</ele><time>2026-04-08T06:36:35.957Z</time></trkpt><trkpt lat="44.1560437" lon="9.9182703"><ele>27.0</ele><time>2026-04-08T06:36:36.958Z</time></trkpt><trkpt lat="44.1561505" lon="9.9182285"><ele>27.0</ele><time>2026-04-08T06:36:37.957Z</time></trkpt><trkpt lat="44.1562481" lon="9.9181899"><ele>27.000000000000004</ele><time>2026-04-08T06:36:38.957Z</time></trkpt><trkpt lat="44.1563365" lon="9.9181527"><ele>27.000000000000004</ele><time>2026-04-08T06:36:39.957Z</time></trkpt><trkpt lat="44.1564195" lon="9.9181197"><ele>27.0</ele><time>2026-04-08T06:36:40.957Z</time></trkpt><trkpt lat="44.1565035" lon="9.9180877"><ele>27.0</ele><time>2026-04-08T06:36:41.957Z</time></trkpt><trkpt lat="44.1565911" lon="9.9180505"><ele>28.0</ele><time>2026-04-08T06:36:42.957Z</time></trkpt><trkpt lat="44.1566763" lon="9.9180123"><ele>29.000000000000004</ele><time>2026-04-08T06:36:43.957Z</time></trkpt><trkpt lat="44.1567591" lon="9.9179796"><ele>30.000000000000004</ele><time>2026-04-08T06:36:44.957Z</time></trkpt><trkpt lat="44.156848" lon="9.9179457"><ele>31.0</ele><time>2026-04-08T06:36:45.957Z</time></trkpt><trkpt lat="44.1569371" lon="9.9179147"><ele>32.0</ele><time>2026-04-08T06:36:46.957Z</time></trkpt><trkpt lat="44.157033" lon="9.9178846"><ele>32.0</ele><time>2026-04-08T06:36:47.957Z</time></trkpt><trkpt lat="44.1571295" lon="9.9178531"><ele>32.0</ele><time>2026-04-08T06:36:48.957Z</time></trkpt><trkpt lat="44.1572285" lon="9.9178182"><ele>32.0</ele><time>2026-04-08T06:36:49.957Z</time></trkpt><trkpt lat="44.1573265" lon="9.9177808"><ele>32.0</ele><time>2026-04-08T06:36:50.957Z</time></trkpt><trkpt lat="44.1574301" lon="9.9177325"><ele>32.0</ele><time>2026-04-08T06:36:51.957Z</time></trkpt><trkpt lat="44.1575388" lon="9.9176831"><ele>31.75</ele><time>2026-04-08T06:36:52.957Z</time></trkpt><trkpt lat="44.1576484" lon="9.9176376"><ele>31.5</ele><time>2026-04-08T06:36:53.958Z</time></trkpt><trkpt lat="44.1577627" lon="9.9175932"><ele>31.25</ele><time>2026-04-08T06:36:54.957Z</time></trkpt><trkpt lat="44.157878" lon="9.9175481"><ele>31.0</ele><time>2026-04-08T06:36:55.957Z</time></trkpt><trkpt lat="44.1579914" lon="9.9175009"><ele>31.0</ele><time>2026-04-08T06:36:56.957Z</time></trkpt><trkpt lat="44.1581052" lon="9.9174479"><ele>31.0</ele><time>2026-04-08T06:36:57.958Z</time></trkpt><trkpt lat="44.1582172" lon="9.9173926"><ele>31.0</ele><time>2026-04-08T06:36:58.957Z</time></trkpt><trkpt lat="44.1583289" lon="9.9173322"><ele>31.0</ele><time>2026-04-08T06:36:59.957Z</time></trkpt><trkpt lat="44.1584355" lon="9.9172619"><ele>32.25</ele><time>2026-04-08T06:37:00.957Z</time></trkpt><trkpt lat="44.1585413" lon="9.9171848"><ele>33.5</ele><time>2026-04-08T06:37:01.957Z</time></trkpt><trkpt lat="44.1586438" lon="9.9171081"><ele>34.75</ele><time>2026-04-08T06:37:02.957Z</time></trkpt><trkpt lat="44.1587459" lon="9.9170347"><ele>36.0</ele><time>2026-04-08T06:37:03.957Z</time></trkpt><trkpt lat="44.1588496" lon="9.9169633"><ele>36.0</ele><time>2026-04-08T06:37:04.958Z</time></trkpt><trkpt lat="44.1589533" lon="9.9168937"><ele>36.0</ele><time>2026-04-08T06:37:05.957Z</time></trkpt><trkpt lat="44.1590545" lon="9.9168214"><ele>36.0</ele><time>2026-04-08T06:37:06.958Z</time></trkpt><trkpt lat="44.1591569" lon="9.9167465"><ele>36.0</ele><time>2026-04-08T06:37:07.958Z</time></trkpt><trkpt lat="44.1592599" lon="9.916669"><ele>35.5</ele><time>2026-04-08T06:37:08.958Z</time></trkpt><trkpt lat="44.1593629" lon="9.9165924"><ele>35.0</ele><time>2026-04-08T06:37:09.957Z</time></trkpt><trkpt lat="44.1594716" lon="9.9165144"><ele>34.5</ele><time>2026-04-08T06:37:10.957Z</time></trkpt><trkpt lat="44.1595825" lon="9.9164334"><ele>34.0</ele><time>2026-04-08T06:37:11.957Z</time></trkpt><trkpt lat="44.1597056" lon="9.9163451"><ele>34.0</ele><time>2026-04-08T06:37:12.957Z</time></trkpt><trkpt lat="44.1598373" lon="9.9162473"><ele>34.0</ele><time>2026-04-08T06:37:13.957Z</time></trkpt><trkpt lat="44.159969" lon="9.916151"><ele>34.0</ele><time>2026-04-08T06:37:14.957Z</time></trkpt><trkpt lat="44.1600922" lon="9.9160619"><ele>34.0</ele><time>2026-04-08T06:37:15.957Z</time></trkpt><trkpt lat="44.160211" lon="9.9159907"><ele>34.6</ele><time>2026-04-08T06:37:16.958Z</time></trkpt><trkpt lat="44.1603227" lon="9.915944"><ele>35.2</ele><time>2026-04-08T06:37:17.957Z</time></trkpt><trkpt lat="44.1604288" lon="9.9159148"><ele>35.800000000000004</ele><time>2026-04-08T06:37:18.957Z</time></trkpt><trkpt lat="44.1605274" lon="9.9159048"><ele>36.4</ele><time>2026-04-08T06:37:19.958Z</time></trkpt><trkpt lat="44.1606301" lon="9.9159212"><ele>37.0</ele><time>2026-04-08T06:37:20.957Z</time></trkpt><trkpt lat="44.1607342" lon="9.9159531"><ele>37.0</ele><time>2026-04-08T06:37:21.957Z</time></trkpt><trkpt lat="44.1608474" lon="9.9159397"><ele>37.0</ele><time>2026-04-08T06:37:22.957Z</time></trkpt><trkpt lat="44.160961" lon="9.9158867"><ele>37.0</ele><time>2026-04-08T06:37:23.957Z</time></trkpt><trkpt lat="44.161069" lon="9.9158933"><ele>37.0</ele><time>2026-04-08T06:37:24.958Z</time></trkpt><trkpt lat="44.1611663" lon="9.9159006"><ele>37.0</ele><time>2026-04-08T06:37:25.958Z</time></trkpt><trkpt lat="44.1612615" lon="9.9159103"><ele>37.0</ele><time>2026-04-08T06:37:26.958Z</time></trkpt><trkpt lat="44.1613621" lon="9.9159263"><ele>37.0</ele><time>2026-04-08T06:37:27.957Z</time></trkpt><trkpt lat="44.1614675" lon="9.9159435"><ele>37.0</ele><time>2026-04-08T06:37:28.957Z</time></trkpt><trkpt lat="44.1615748" lon="9.9159573"><ele>37.0</ele><time>2026-04-08T06:37:29.957Z</time></trkpt><trkpt lat="44.1616823" lon="9.915965"><ele>37.0</ele><time>2026-04-08T06:37:30.957Z</time></trkpt><trkpt lat="44.161788" lon="9.9159629"><ele>37.0</ele><time>2026-04-08T06:37:31.958Z</time></trkpt><trkpt lat="44.1618919" lon="9.9159654"><ele>37.0</ele><time>2026-04-08T06:37:32.958Z</time></trkpt><trkpt lat="44.1619936" lon="9.9159639"><ele>37.0</ele><time>2026-04-08T06:37:33.957Z</time></trkpt><trkpt lat="44.1620937" lon="9.9159637"><ele>37.0</ele><time>2026-04-08T06:37:34.957Z</time></trkpt><trkpt lat="44.1621931" lon="9.9159628"><ele>37.0</ele><time>2026-04-08T06:37:35.957Z</time></trkpt><trkpt lat="44.1622921" lon="9.9159643"><ele>38.8</ele><time>2026-04-08T06:37:36.957Z</time></trkpt><trkpt lat="44.1623943" lon="9.9159674"><ele>40.6</ele><time>2026-04-08T06:37:37.957Z</time></trkpt><trkpt lat="44.1624977" lon="9.9159674"><ele>42.4</ele><time>2026-04-08T06:37:38.957Z</time></trkpt><trkpt lat="44.1626055" lon="9.9159676"><ele>44.199999999999996</ele><time>2026-04-08T06:37:39.957Z</time></trkpt><trkpt lat="44.1627171" lon="9.915972"><ele>46.0</ele><time>2026-04-08T06:37:40.958Z</time></trkpt><trkpt lat="44.1628298" lon="9.9159689"><ele>46.0</ele><time>2026-04-08T06:37:41.957Z</time></trkpt><trkpt lat="44.162945" lon="9.9159663"><ele>46.0</ele><time>2026-04-08T06:37:42.957Z</time></trkpt><trkpt lat="44.1630592" lon="9.9159643"><ele>46.0</ele><time>2026-04-08T06:37:43.958Z</time></trkpt><trkpt lat="44.1631752" lon="9.9159642"><ele>46.0</ele><time>2026-04-08T06:37:44.957Z</time></trkpt><trkpt lat="44.1632956" lon="9.9159641"><ele>47.5</ele><time>2026-04-08T06:37:45.958Z</time></trkpt><trkpt lat="44.1634146" lon="9.9159651"><ele>49.0</ele><time>2026-04-08T06:37:46.958Z</time></trkpt><trkpt lat="44.1635312" lon="9.9159664"><ele>50.5</ele><time>2026-04-08T06:37:47.957Z</time></trkpt><trkpt lat="44.163646" lon="9.9159645"><ele>52.0</ele><time>2026-04-08T06:37:48.958Z</time></trkpt><trkpt lat="44.1637605" lon="9.9159623"><ele>52.0</ele><time>2026-04-08T06:37:49.958Z</time></trkpt><trkpt lat="44.1638736" lon="9.9159752"><ele>52.0</ele><time>2026-04-08T06:37:50.957Z</time></trkpt><trkpt lat="44.1639805" lon="9.9160149"><ele>52.0</ele><time>2026-04-08T06:37:51.957Z</time></trkpt><trkpt lat="44.1640777" lon="9.9160687"><ele>52.0</ele><time>2026-04-08T06:37:52.957Z</time></trkpt><trkpt lat="44.164163" lon="9.9161321"><ele>52.0</ele><time>2026-04-08T06:37:53.957Z</time></trkpt><trkpt lat="44.1642395" lon="9.9161905"><ele>52.49999999999999</ele><time>2026-04-08T06:37:54.958Z</time></trkpt><trkpt lat="44.1643154" lon="9.9162335"><ele>53.0</ele><time>2026-04-08T06:37:55.957Z</time></trkpt><trkpt lat="44.1643915" lon="9.9162531"><ele>53.5</ele><time>2026-04-08T06:37:56.958Z</time></trkpt><trkpt lat="44.1644691" lon="9.9162474"><ele>54.0</ele><time>2026-04-08T06:37:57.958Z</time></trkpt><trkpt lat="44.1645426" lon="9.9162236"><ele>54.49999999999999</ele><time>2026-04-08T06:37:58.958Z</time></trkpt><trkpt lat="44.1646156" lon="9.9161963"><ele>55.0</ele><time>2026-04-08T06:37:59.958Z</time></trkpt><trkpt lat="44.1646872" lon="9.9161658"><ele>54.99999999999999</ele><time>2026-04-08T06:38:00.957Z</time></trkpt><trkpt lat="44.1647619" lon="9.9161394"><ele>55.0</ele><time>2026-04-08T06:38:01.957Z</time></trkpt><trkpt lat="44.1648374" lon="9.9161193"><ele>55.0</ele><time>2026-04-08T06:38:02.958Z</time></trkpt><trkpt lat="44.1649105" lon="9.9161212"><ele>55.0</ele><time>2026-04-08T06:38:03.958Z</time></trkpt><trkpt lat="44.1649796" lon="9.9161446"><ele>55.0</ele><time>2026-04-08T06:38:04.958Z</time></trkpt><trkpt lat="44.1650406" lon="9.916204"><ele>54.99999999999999</ele><time>2026-04-08T06:38:05.957Z</time></trkpt><trkpt lat="44.1650907" lon="9.9162774"><ele>55.0</ele><time>2026-04-08T06:38:06.958Z</time></trkpt><trkpt lat="44.1651357" lon="9.9163635"><ele>55.666666666666664</ele><time>2026-04-08T06:38:07.958Z</time></trkpt><trkpt lat="44.1651855" lon="9.9164534"><ele>56.33333333333333</ele><time>2026-04-08T06:38:08.958Z</time></trkpt><trkpt lat="44.1652405" lon="9.916547"><ele>57.0</ele><time>2026-04-08T06:38:09.958Z</time></trkpt><trkpt lat="44.165301" lon="9.9166328"><ele>57.66666666666667</ele><time>2026-04-08T06:38:10.957Z</time></trkpt><trkpt lat="44.1653662" lon="9.9167154"><ele>58.333333333333336</ele><time>2026-04-08T06:38:11.957Z</time></trkpt><trkpt lat="44.1654412" lon="9.9168023"><ele>59.0</ele><time>2026-04-08T06:38:12.958Z</time></trkpt><trkpt lat="44.1655291" lon="9.9169001"><ele>59.25</ele><time>2026-04-08T06:38:13.958Z</time></trkpt><trkpt lat="44.1656208" lon="9.9169959"><ele>59.5</ele><time>2026-04-08T06:38:14.957Z</time></trkpt><trkpt lat="44.1657067" lon="9.9170995"><ele>59.75</ele><time>2026-04-08T06:38:15.958Z</time></trkpt><trkpt lat="44.1657888" lon="9.9172122"><ele>60.0</ele><time>2026-04-08T06:38:16.957Z</time></trkpt><trkpt lat="44.165856" lon="9.9173444"><ele>59.0</ele><time>2026-04-08T06:38:17.957Z</time></trkpt><trkpt lat="44.1659106" lon="9.9174854"><ele>58.0</ele><time>2026-04-08T06:38:18.957Z</time></trkpt><trkpt lat="44.1659619" lon="9.9176253"><ele>57.0</ele><time>2026-04-08T06:38:19.957Z</time></trkpt><trkpt lat="44.1660129" lon="9.9177644"><ele>56.0</ele><time>2026-04-08T06:38:20.957Z</time></trkpt><trkpt lat="44.1660641" lon="9.917901"><ele>56.0</ele><time>2026-04-08T06:38:21.957Z</time></trkpt><trkpt lat="44.1661153" lon="9.9180377"><ele>56.0</ele><time>2026-04-08T06:38:22.957Z</time></trkpt><trkpt lat="44.1661641" lon="9.9181819"><ele>56.0</ele><time>2026-04-08T06:38:23.958Z</time></trkpt><trkpt lat="44.166206" lon="9.9183336"><ele>56.0</ele><time>2026-04-08T06:38:24.957Z</time></trkpt><trkpt lat="44.1662402" lon="9.918494"><ele>56.0</ele><time>2026-04-08T06:38:25.958Z</time></trkpt><trkpt lat="44.1662664" lon="9.9186513"><ele>56.0</ele><time>2026-04-08T06:38:26.957Z</time></trkpt><trkpt lat="44.1662893" lon="9.9188116"><ele>56.0</ele><time>2026-04-08T06:38:27.957Z</time></trkpt><trkpt lat="44.1663073" lon="9.9189725"><ele>56.0</ele><time>2026-04-08T06:38:28.957Z</time></trkpt><trkpt lat="44.1663133" lon="9.9191326"><ele>57.199999999999996</ele><time>2026-04-08T06:38:29.957Z</time></trkpt><trkpt lat="44.1663061" lon="9.9192851"><ele>58.39999999999999</ele><time>2026-04-08T06:38:30.958Z</time></trkpt><trkpt lat="44.1662949" lon="9.9194274"><ele>59.6</ele><time>2026-04-08T06:38:31.957Z</time></trkpt><trkpt lat="44.1662836" lon="9.9195671"><ele>60.8</ele><time>2026-04-08T06:38:32.957Z</time></trkpt><trkpt lat="44.166274" lon="9.9197046"><ele>62.0</ele><time>2026-04-08T06:38:33.958Z</time></trkpt><trkpt lat="44.1662761" lon="9.9198392"><ele>62.0</ele><time>2026-04-08T06:38:34.957Z</time></trkpt><trkpt lat="44.1663094" lon="9.9199607"><ele>62.0</ele><time>2026-04-08T06:38:35.957Z</time></trkpt><trkpt lat="44.1663721" lon="9.9200595"><ele>62.0</ele><time>2026-04-08T06:38:36.958Z</time></trkpt><trkpt lat="44.1664496" lon="9.9201434"><ele>62.0</ele><time>2026-04-08T06:38:37.957Z</time></trkpt><trkpt lat="44.1665294" lon="9.920228"><ele>62.0</ele><time>2026-04-08T06:38:38.957Z</time></trkpt><trkpt lat="44.1666122" lon="9.9203176"><ele>59.0</ele><time>2026-04-08T06:38:39.957Z</time></trkpt><trkpt lat="44.1666964" lon="9.920412"><ele>56.0</ele><time>2026-04-08T06:38:40.957Z</time></trkpt><trkpt lat="44.1667792" lon="9.9205109"><ele>53.0</ele><time>2026-04-08T06:38:41.957Z</time></trkpt><trkpt lat="44.1668623" lon="9.9206147"><ele>50.0</ele><time>2026-04-08T06:38:42.958Z</time></trkpt><trkpt lat="44.1669415" lon="9.9207246"><ele>47.0</ele><time>2026-04-08T06:38:43.957Z</time></trkpt><trkpt lat="44.1670119" lon="9.9208411"><ele>49.400000000000006</ele><time>2026-04-08T06:38:44.958Z</time></trkpt><trkpt lat="44.1670711" lon="9.9209607"><ele>51.800000000000004</ele><time>2026-04-08T06:38:45.958Z</time></trkpt><trkpt lat="44.1671275" lon="9.9210769"><ele>54.2</ele><time>2026-04-08T06:38:46.958Z</time></trkpt><trkpt lat="44.1671823" lon="9.9211913"><ele>56.6</ele><time>2026-04-08T06:38:47.958Z</time></trkpt><trkpt lat="44.1672379" lon="9.9213024"><ele>59.0</ele><time>2026-04-08T06:38:48.957Z</time></trkpt><trkpt lat="44.1672962" lon="9.9214114"><ele>59.0</ele><time>2026-04-08T06:38:49.958Z</time></trkpt><trkpt lat="44.1673537" lon="9.9215192"><ele>59.00000000000001</ele><time>2026-04-08T06:38:50.957Z</time></trkpt><trkpt lat="44.1674139" lon="9.9216253"><ele>59.00000000000001</ele><time>2026-04-08T06:38:51.957Z</time></trkpt><trkpt lat="44.1674723" lon="9.9217313"><ele>59.0</ele><time>2026-04-08T06:38:52.957Z</time></trkpt><trkpt lat="44.1675325" lon="9.9218389"><ele>59.0</ele><time>2026-04-08T06:38:53.957Z</time></trkpt><trkpt lat="44.1675954" lon="9.9219467"><ele>57.0</ele><time>2026-04-08T06:38:54.957Z</time></trkpt><trkpt lat="44.1676608" lon="9.9220617"><ele>55.00000000000001</ele><time>2026-04-08T06:38:55.957Z</time></trkpt><trkpt lat="44.1677269" lon="9.922176"><ele>53.0</ele><time>2026-04-08T06:38:56.958Z</time></trkpt><trkpt lat="44.1677911" lon="9.9222868"><ele>51.0</ele><time>2026-04-08T06:38:57.957Z</time></trkpt><trkpt lat="44.1678524" lon="9.922397"><ele>49.0</ele><time>2026-04-08T06:38:58.958Z</time></trkpt><trkpt lat="44.1679085" lon="9.9225064"><ele>49.400000000000006</ele><time>2026-04-08T06:38:59.957Z</time></trkpt><trkpt lat="44.1679543" lon="9.9225926"><ele>49.8</ele><time>2026-04-08T06:39:00.957Z</time></trkpt><trkpt lat="44.1680209" lon="9.9227145"><ele>50.2</ele><time>2026-04-08T06:39:02.958Z</time></trkpt><trkpt lat="44.1680847" lon="9.9228301"><ele>50.599999999999994</ele><time>2026-04-08T06:39:04.958Z</time></trkpt><trkpt lat="44.16815" lon="9.9229469"><ele>51.0</ele><time>2026-04-08T06:39:06.957Z</time></trkpt><trkpt lat="44.1682406" lon="9.923083"><ele>48.4</ele><time>2026-04-08T06:39:08.957Z</time></trkpt><trkpt lat="44.1683002" lon="9.9231593"><ele>45.8</ele><time>2026-04-08T06:39:09.958Z</time></trkpt><trkpt lat="44.1683643" lon="9.9232408"><ele>43.199999999999996</ele><time>2026-04-08T06:39:10.957Z</time></trkpt><trkpt lat="44.1684364" lon="9.9233271"><ele>40.599999999999994</ele><time>2026-04-08T06:39:11.957Z</time></trkpt><trkpt lat="44.1685109" lon="9.9234158"><ele>38.0</ele><time>2026-04-08T06:39:12.957Z</time></trkpt><trkpt lat="44.1685895" lon="9.9235057"><ele>38.0</ele><time>2026-04-08T06:39:13.957Z</time></trkpt><trkpt lat="44.1686679" lon="9.923598"><ele>38.0</ele><time>2026-04-08T06:39:14.958Z</time></trkpt><trkpt lat="44.1687379" lon="9.923686"><ele>38.0</ele><time>2026-04-08T06:39:15.958Z</time></trkpt><trkpt lat="44.1688035" lon="9.9237655"><ele>38.0</ele><time>2026-04-08T06:39:16.958Z</time></trkpt><trkpt lat="44.1688717" lon="9.9238267"><ele>38.0</ele><time>2026-04-08T06:39:17.958Z</time></trkpt><trkpt lat="44.1689517" lon="9.9238572"><ele>38.0</ele><time>2026-04-08T06:39:18.957Z</time></trkpt><trkpt lat="44.1690333" lon="9.9238345"><ele>39.0</ele><time>2026-04-08T06:39:19.957Z</time></trkpt><trkpt lat="44.169112" lon="9.9237832"><ele>40.0</ele><time>2026-04-08T06:39:20.957Z</time></trkpt><trkpt lat="44.1691925" lon="9.9237311"><ele>41.0</ele><time>2026-04-08T06:39:21.957Z</time></trkpt><trkpt lat="44.1692768" lon="9.9236935"><ele>42.0</ele><time>2026-04-08T06:39:22.958Z</time></trkpt><trkpt lat="44.169366" lon="9.9236776"><ele>43.0</ele><time>2026-04-08T06:39:23.957Z</time></trkpt><trkpt lat="44.1694537" lon="9.9236995"><ele>44.0</ele><time>2026-04-08T06:39:24.957Z</time></trkpt><trkpt lat="44.1695334" lon="9.9237556"><ele>44.0</ele><time>2026-04-08T06:39:25.957Z</time></trkpt><trkpt lat="44.1696128" lon="9.92383"><ele>44.0</ele><time>2026-04-08T06:39:26.957Z</time></trkpt><trkpt lat="44.1697005" lon="9.923907"><ele>44.0</ele><time>2026-04-08T06:39:27.957Z</time></trkpt><trkpt lat="44.1697956" lon="9.9239955"><ele>44.0</ele><time>2026-04-08T06:39:28.958Z</time></trkpt><trkpt lat="44.169898" lon="9.9240932"><ele>44.0</ele><time>2026-04-08T06:39:29.957Z</time></trkpt><trkpt lat="44.1700039" lon="9.9241918"><ele>49.75</ele><time>2026-04-08T06:39:30.957Z</time></trkpt><trkpt lat="44.1701129" lon="9.9242957"><ele>55.5</ele><time>2026-04-08T06:39:31.957Z</time></trkpt><trkpt lat="44.1702234" lon="9.9243991"><ele>61.25</ele><time>2026-04-08T06:39:32.957Z</time></trkpt><trkpt lat="44.1703355" lon="9.9245118"><ele>67.0</ele><time>2026-04-08T06:39:33.958Z</time></trkpt><trkpt lat="44.1704436" lon="9.9246346"><ele>67.0</ele><time>2026-04-08T06:39:34.957Z</time></trkpt><trkpt lat="44.1705424" lon="9.9247747"><ele>67.0</ele><time>2026-04-08T06:39:35.957Z</time></trkpt><trkpt lat="44.1706354" lon="9.9249263"><ele>67.0</ele><time>2026-04-08T06:39:36.958Z</time></trkpt><trkpt lat="44.1707297" lon="9.9250775"><ele>67.0</ele><time>2026-04-08T06:39:37.958Z</time></trkpt><trkpt lat="44.1708262" lon="9.9252305"><ele>67.25</ele><time>2026-04-08T06:39:38.957Z</time></trkpt><trkpt lat="44.1709234" lon="9.925382"><ele>67.5</ele><time>2026-04-08T06:39:39.957Z</time></trkpt><trkpt lat="44.1710202" lon="9.925532"><ele>67.75</ele><time>2026-04-08T06:39:40.958Z</time></trkpt><trkpt lat="44.1711175" lon="9.9256783"><ele>68.0</ele><time>2026-04-08T06:39:41.957Z</time></trkpt><trkpt lat="44.1712188" lon="9.925818"><ele>65.75</ele><time>2026-04-08T06:39:42.958Z</time></trkpt><trkpt lat="44.1713273" lon="9.9259438"><ele>63.5</ele><time>2026-04-08T06:39:43.957Z</time></trkpt><trkpt lat="44.171447" lon="9.9260516"><ele>61.25</ele><time>2026-04-08T06:39:44.957Z</time></trkpt><trkpt lat="44.1715693" lon="9.9261512"><ele>59.0</ele><time>2026-04-08T06:39:45.957Z</time></trkpt><trkpt lat="44.1716901" lon="9.9262563"><ele>59.0</ele><time>2026-04-08T06:39:46.957Z</time></trkpt><trkpt lat="44.1718117" lon="9.9263534"><ele>59.0</ele><time>2026-04-08T06:39:47.958Z</time></trkpt><trkpt lat="44.1719348" lon="9.9264501"><ele>59.0</ele><time>2026-04-08T06:39:48.957Z</time></trkpt><trkpt lat="44.1720621" lon="9.9265343"><ele>59.0</ele><time>2026-04-08T06:39:49.958Z</time></trkpt><trkpt lat="44.1721935" lon="9.9266044"><ele>59.0</ele><time>2026-04-08T06:39:50.957Z</time></trkpt><trkpt lat="44.1723298" lon="9.9266718"><ele>59.0</ele><time>2026-04-08T06:39:51.957Z</time></trkpt><trkpt lat="44.1724719" lon="9.9267274"><ele>59.0</ele><time>2026-04-08T06:39:52.957Z</time></trkpt><trkpt lat="44.1726124" lon="9.9267817"><ele>59.0</ele><time>2026-04-08T06:39:53.957Z</time></trkpt><trkpt lat="44.1727565" lon="9.9268355"><ele>57.75</ele><time>2026-04-08T06:39:54.958Z</time></trkpt><trkpt lat="44.1728957" lon="9.9268963"><ele>56.5</ele><time>2026-04-08T06:39:55.957Z</time></trkpt><trkpt lat="44.1730225" lon="9.9269596"><ele>55.25</ele><time>2026-04-08T06:39:56.957Z</time></trkpt><trkpt lat="44.1731412" lon="9.9270295"><ele>54.0</ele><time>2026-04-08T06:39:57.957Z</time></trkpt><trkpt lat="44.173259" lon="9.9271067"><ele>51.75</ele><time>2026-04-08T06:39:58.958Z</time></trkpt><trkpt lat="44.1733786" lon="9.9271864"><ele>49.5</ele><time>2026-04-08T06:39:59.957Z</time></trkpt><trkpt lat="44.1734979" lon="9.9272672"><ele>47.25</ele><time>2026-04-08T06:40:00.957Z</time></trkpt><trkpt lat="44.1736136" lon="9.9273468"><ele>45.0</ele><time>2026-04-08T06:40:01.958Z</time></trkpt><trkpt lat="44.173726" lon="9.9274266"><ele>45.0</ele><time>2026-04-08T06:40:02.957Z</time></trkpt><trkpt lat="44.1738341" lon="9.9275019"><ele>45.0</ele><time>2026-04-08T06:40:03.958Z</time></trkpt><trkpt lat="44.1739347" lon="9.9275732"><ele>45.0</ele><time>2026-04-08T06:40:04.957Z</time></trkpt><trkpt lat="44.1740197" lon="9.9276386"><ele>45.0</ele><time>2026-04-08T06:40:05.957Z</time></trkpt><trkpt lat="44.1740866" lon="9.9277218"><ele>45.0</ele><time>2026-04-08T06:40:06.958Z</time></trkpt><trkpt lat="44.1741488" lon="9.9278119"><ele>46.4</ele><time>2026-04-08T06:40:07.957Z</time></trkpt><trkpt lat="44.1742448" lon="9.9278731"><ele>47.8</ele><time>2026-04-08T06:40:08.957Z</time></trkpt><trkpt lat="44.1743516" lon="9.9279062"><ele>49.2</ele><time>2026-04-08T06:40:09.957Z</time></trkpt><trkpt lat="44.1744548" lon="9.9279554"><ele>50.6</ele><time>2026-04-08T06:40:10.957Z</time></trkpt><trkpt lat="44.1745553" lon="9.9280191"><ele>52.0</ele><time>2026-04-08T06:40:11.958Z</time></trkpt><trkpt lat="44.1746532" lon="9.9280882"><ele>52.0</ele><time>2026-04-08T06:40:12.957Z</time></trkpt><trkpt lat="44.1747444" lon="9.9281618"><ele>52.0</ele><time>2026-04-08T06:40:13.958Z</time></trkpt><trkpt lat="44.174835" lon="9.9282444"><ele>52.0</ele><time>2026-04-08T06:40:14.957Z</time></trkpt><trkpt lat="44.1749272" lon="9.928329"><ele>52.0</ele><time>2026-04-08T06:40:15.958Z</time></trkpt><trkpt lat="44.1750231" lon="9.9284045"><ele>52.0</ele><time>2026-04-08T06:40:16.957Z</time></trkpt><trkpt lat="44.1751197" lon="9.9284608"><ele>55.400000000000006</ele><time>2026-04-08T06:40:17.957Z</time></trkpt><trkpt lat="44.1752238" lon="9.9284959"><ele>58.800000000000004</ele><time>2026-04-08T06:40:18.957Z</time></trkpt><trkpt lat="44.1753332" lon="9.9285102"><ele>62.2</ele><time>2026-04-08T06:40:19.957Z</time></trkpt><trkpt lat="44.1754458" lon="9.9285239"><ele>65.60000000000001</ele><time>2026-04-08T06:40:20.957Z</time></trkpt><trkpt lat="44.1755573" lon="9.9285432"><ele>69.0</ele><time>2026-04-08T06:40:21.957Z</time></trkpt><trkpt lat="44.1756704" lon="9.9285749"><ele>68.0</ele><time>2026-04-08T06:40:22.958Z</time></trkpt><trkpt lat="44.1757813" lon="9.9286243"><ele>67.0</ele><time>2026-04-08T06:40:23.957Z</time></trkpt><trkpt lat="44.1758869" lon="9.928695"><ele>66.0</ele><time>2026-04-08T06:40:24.957Z</time></trkpt><trkpt lat="44.1759877" lon="9.9287784"><ele>65.0</ele><time>2026-04-08T06:40:25.957Z</time></trkpt><trkpt lat="44.1760864" lon="9.9288701"><ele>65.0</ele><time>2026-04-08T06:40:26.957Z</time></trkpt><trkpt lat="44.1761853" lon="9.9289512"><ele>65.0</ele><time>2026-04-08T06:40:27.957Z</time></trkpt><trkpt lat="44.1762947" lon="9.9290177"><ele>65.0</ele><time>2026-04-08T06:40:28.957Z</time></trkpt><trkpt lat="44.1764113" lon="9.9290543"><ele>65.0</ele><time>2026-04-08T06:40:29.957Z</time></trkpt><trkpt lat="44.176531" lon="9.929058"><ele>59.0</ele><time>2026-04-08T06:40:30.957Z</time></trkpt><trkpt lat="44.1766567" lon="9.9290379"><ele>53.0</ele><time>2026-04-08T06:40:31.958Z</time></trkpt><trkpt lat="44.1767863" lon="9.9290077"><ele>47.0</ele><time>2026-04-08T06:40:32.958Z</time></trkpt><trkpt lat="44.1769259" lon="9.9289742"><ele>41.0</ele><time>2026-04-08T06:40:33.957Z</time></trkpt><trkpt lat="44.1770765" lon="9.9289347"><ele>41.0</ele><time>2026-04-08T06:40:34.958Z</time></trkpt><trkpt lat="44.1772381" lon="9.9289061"><ele>41.0</ele><time>2026-04-08T06:40:35.957Z</time></trkpt><trkpt lat="44.1774039" lon="9.9288679"><ele>41.0</ele><time>2026-04-08T06:40:36.957Z</time></trkpt><trkpt lat="44.1775711" lon="9.9288273"><ele>41.666666666666664</ele><time>2026-04-08T06:40:37.957Z</time></trkpt><trkpt lat="44.1777403" lon="9.928778"><ele>42.333333333333336</ele><time>2026-04-08T06:40:38.958Z</time></trkpt><trkpt lat="44.1779125" lon="9.9287287"><ele>43.0</ele><time>2026-04-08T06:40:39.957Z</time></trkpt><trkpt lat="44.1780829" lon="9.9286795"><ele>48.66666666666667</ele><time>2026-04-08T06:40:40.958Z</time></trkpt><trkpt lat="44.1782553" lon="9.9286297"><ele>54.333333333333336</ele><time>2026-04-08T06:40:41.957Z</time></trkpt><trkpt lat="44.1784227" lon="9.9285805"><ele>60.0</ele><time>2026-04-08T06:40:42.957Z</time></trkpt><trkpt lat="44.1785873" lon="9.9285371"><ele>60.0</ele><time>2026-04-08T06:40:43.958Z</time></trkpt><trkpt lat="44.1787436" lon="9.9284734"><ele>60.0</ele><time>2026-04-08T06:40:44.957Z</time></trkpt><trkpt lat="44.1788845" lon="9.9283657"><ele>60.0</ele><time>2026-04-08T06:40:45.958Z</time></trkpt><trkpt lat="44.1790343" lon="9.9282862"><ele>58.66666666666667</ele><time>2026-04-08T06:40:46.957Z</time></trkpt><trkpt lat="44.1791899" lon="9.9282486"><ele>57.333333333333336</ele><time>2026-04-08T06:40:47.957Z</time></trkpt><trkpt lat="44.1793513" lon="9.9282556"><ele>56.0</ele><time>2026-04-08T06:40:48.957Z</time></trkpt><trkpt lat="44.1795104" lon="9.928235"><ele>56.0</ele><time>2026-04-08T06:40:49.957Z</time></trkpt><trkpt lat="44.1796696" lon="9.9281841"><ele>56.0</ele><time>2026-04-08T06:40:50.958Z</time></trkpt><trkpt lat="44.1798219" lon="9.9281299"><ele>56.0</ele><time>2026-04-08T06:40:51.957Z</time></trkpt><trkpt lat="44.1799701" lon="9.9280694"><ele>59.0</ele><time>2026-04-08T06:40:52.957Z</time></trkpt><trkpt lat="44.1801163" lon="9.9279995"><ele>62.0</ele><time>2026-04-08T06:40:53.958Z</time></trkpt><trkpt lat="44.1802604" lon="9.9279223"><ele>65.0</ele><time>2026-04-08T06:40:54.957Z</time></trkpt><trkpt lat="44.1804051" lon="9.9278386"><ele>65.0</ele><time>2026-04-08T06:40:55.957Z</time></trkpt><trkpt lat="44.1805491" lon="9.927746"><ele>65.0</ele><time>2026-04-08T06:40:56.957Z</time></trkpt><trkpt lat="44.1806927" lon="9.9276438"><ele>65.0</ele><time>2026-04-08T06:40:57.958Z</time></trkpt><trkpt lat="44.1808377" lon="9.9275387"><ele>61.0</ele><time>2026-04-08T06:40:58.957Z</time></trkpt><trkpt lat="44.1809879" lon="9.9274348"><ele>57.0</ele><time>2026-04-08T06:40:59.957Z</time></trkpt><trkpt lat="44.1811441" lon="9.9273379"><ele>53.0</ele><time>2026-04-08T06:41:00.957Z</time></trkpt><trkpt lat="44.1813085" lon="9.9272544"><ele>53.0</ele><time>2026-04-08T06:41:01.958Z</time></trkpt><trkpt lat="44.181477" lon="9.9271854"><ele>53.0</ele><time>2026-04-08T06:41:02.957Z</time></trkpt><trkpt lat="44.1816513" lon="9.9271361"><ele>53.0</ele><time>2026-04-08T06:41:03.958Z</time></trkpt><trkpt lat="44.1818281" lon="9.9270891"><ele>59.333333333333336</ele><time>2026-04-08T06:41:04.957Z</time></trkpt><trkpt lat="44.182001" lon="9.927032"><ele>65.66666666666667</ele><time>2026-04-08T06:41:05.957Z</time></trkpt><trkpt lat="44.1821745" lon="9.9269625"><ele>72.0</ele><time>2026-04-08T06:41:06.957Z</time></trkpt><trkpt lat="44.1823476" lon="9.9268788"><ele>68.66666666666667</ele><time>2026-04-08T06:41:07.958Z</time></trkpt><trkpt lat="44.182519" lon="9.9267859"><ele>65.33333333333334</ele><time>2026-04-08T06:41:08.957Z</time></trkpt><trkpt lat="44.1826871" lon="9.926687"><ele>62.0</ele><time>2026-04-08T06:41:09.957Z</time></trkpt><trkpt lat="44.1828528" lon="9.926584"><ele>62.0</ele><time>2026-04-08T06:41:10.957Z</time></trkpt><trkpt lat="44.1830125" lon="9.9264787"><ele>62.0</ele><time>2026-04-08T06:41:11.958Z</time></trkpt><trkpt lat="44.1831688" lon="9.9263698"><ele>62.0</ele><time>2026-04-08T06:41:12.958Z</time></trkpt><trkpt lat="44.1833233" lon="9.9262696"><ele>69.0</ele><time>2026-04-08T06:41:13.957Z</time></trkpt><trkpt lat="44.1834819" lon="9.9261767"><ele>76.0</ele><time>2026-04-08T06:41:14.958Z</time></trkpt><trkpt lat="44.1836346" lon="9.9260886"><ele>83.0</ele><time>2026-04-08T06:41:15.957Z</time></trkpt><trkpt lat="44.1837795" lon="9.9259976"><ele>83.0</ele><time>2026-04-08T06:41:16.957Z</time></trkpt><trkpt lat="44.1839235" lon="9.9259073"><ele>83.0</ele><time>2026-04-08T06:41:17.957Z</time></trkpt><trkpt lat="44.1840647" lon="9.9258255"><ele>83.0</ele><time>2026-04-08T06:41:18.957Z</time></trkpt><trkpt lat="44.1842048" lon="9.9257617"><ele>81.75</ele><time>2026-04-08T06:41:19.957Z</time></trkpt><trkpt lat="44.1843474" lon="9.9257433"><ele>80.5</ele><time>2026-04-08T06:41:20.957Z</time></trkpt><trkpt lat="44.1844892" lon="9.9257844"><ele>79.25</ele><time>2026-04-08T06:41:21.958Z</time></trkpt><trkpt lat="44.1846185" lon="9.9258763"><ele>78.0</ele><time>2026-04-08T06:41:22.957Z</time></trkpt><trkpt lat="44.184723" lon="9.9260205"><ele>78.0</ele><time>2026-04-08T06:41:23.958Z</time></trkpt><trkpt lat="44.1847882" lon="9.926202"><ele>78.0</ele><time>2026-04-08T06:41:24.958Z</time></trkpt><trkpt lat="44.1848126" lon="9.9264043"><ele>78.0</ele><time>2026-04-08T06:41:25.957Z</time></trkpt><trkpt lat="44.1847921" lon="9.9266064"><ele>78.0</ele><time>2026-04-08T06:41:26.958Z</time></trkpt><trkpt lat="44.1847356" lon="9.9267957"><ele>80.66666666666667</ele><time>2026-04-08T06:41:27.957Z</time></trkpt><trkpt lat="44.1846537" lon="9.9269745"><ele>83.33333333333334</ele><time>2026-04-08T06:41:28.957Z</time></trkpt><trkpt lat="44.1845616" lon="9.9271577"><ele>86.0</ele><time>2026-04-08T06:41:29.957Z</time></trkpt><trkpt lat="44.1844684" lon="9.9273588"><ele>81.0</ele><time>2026-04-08T06:41:30.958Z</time></trkpt><trkpt lat="44.1843878" lon="9.9275779"><ele>76.0</ele><time>2026-04-08T06:41:31.957Z</time></trkpt><trkpt lat="44.1843214" lon="9.9278238"><ele>71.0</ele><time>2026-04-08T06:41:32.957Z</time></trkpt><trkpt lat="44.1842659" lon="9.9281265"><ele>64.5</ele><time>2026-04-08T06:41:33.957Z</time></trkpt><trkpt lat="44.1842154" lon="9.9284782"><ele>58.0</ele><time>2026-04-08T06:41:34.958Z</time></trkpt><trkpt lat="44.1841638" lon="9.9288731"><ele>54.5</ele><time>2026-04-08T06:41:35.958Z</time></trkpt><trkpt lat="44.1840932" lon="9.9292908"><ele>51.0</ele><time>2026-04-08T06:41:36.958Z</time></trkpt><trkpt lat="44.184001" lon="9.9297179"><ele>78.5</ele><time>2026-04-08T06:41:37.957Z</time></trkpt><trkpt lat="44.1839089" lon="9.9301445"><ele>106.0</ele><time>2026-04-08T06:41:38.957Z</time></trkpt><trkpt lat="44.1838352" lon="9.9305334"><ele>102.0</ele><time>2026-04-08T06:41:39.957Z</time></trkpt><trkpt lat="44.1837768" lon="9.9309012"><ele>98.0</ele><time>2026-04-08T06:41:40.957Z</time></trkpt><trkpt lat="44.1837309" lon="9.9312416"><ele>98.0</ele><time>2026-04-08T06:41:41.957Z</time></trkpt><trkpt lat="44.1836924" lon="9.93156"><ele>98.0</ele><time>2026-04-08T06:41:42.957Z</time></trkpt><trkpt lat="44.183652" lon="9.9318542"><ele>98.0</ele><time>2026-04-08T06:41:43.958Z</time></trkpt><trkpt lat="44.1836051" lon="9.9321185"><ele>96.5</ele><time>2026-04-08T06:41:44.957Z</time></trkpt><trkpt lat="44.1835697" lon="9.9323177"><ele>95.0</ele><time>2026-04-08T06:41:45.958Z</time></trkpt><trkpt lat="44.1835629" lon="9.9324878"><ele>93.5</ele><time>2026-04-08T06:41:46.958Z</time></trkpt><trkpt lat="44.1835933" lon="9.9326517"><ele>92.0</ele><time>2026-04-08T06:41:47.958Z</time></trkpt><trkpt lat="44.1836639" lon="9.9327774"><ele>89.75</ele><time>2026-04-08T06:41:48.958Z</time></trkpt><trkpt lat="44.1837647" lon="9.9328784"><ele>87.5</ele><time>2026-04-08T06:41:49.957Z</time></trkpt><trkpt lat="44.1838943" lon="9.9329701"><ele>85.25</ele><time>2026-04-08T06:41:50.957Z</time></trkpt><trkpt lat="44.1840226" lon="9.9330993"><ele>83.0</ele><time>2026-04-08T06:41:51.957Z</time></trkpt><trkpt lat="44.1841383" lon="9.9332584"><ele>74.66666666666667</ele><time>2026-04-08T06:41:52.958Z</time></trkpt><trkpt lat="44.1842367" lon="9.9334493"><ele>66.33333333333333</ele><time>2026-04-08T06:41:53.957Z</time></trkpt><trkpt lat="44.1843081" lon="9.9336621"><ele>58.0</ele><time>2026-04-08T06:41:54.958Z</time></trkpt><trkpt lat="44.1843769" lon="9.9338783"><ele>58.0</ele><time>2026-04-08T06:41:55.957Z</time></trkpt><trkpt lat="44.1844504" lon="9.9340905"><ele>58.0</ele><time>2026-04-08T06:41:56.957Z</time></trkpt><trkpt lat="44.1845219" lon="9.9343028"><ele>58.0</ele><time>2026-04-08T06:41:57.957Z</time></trkpt><trkpt lat="44.1845902" lon="9.9345145"><ele>62.33333333333333</ele><time>2026-04-08T06:41:58.957Z</time></trkpt><trkpt lat="44.184656" lon="9.9347236"><ele>66.66666666666667</ele><time>2026-04-08T06:41:59.958Z</time></trkpt><trkpt lat="44.1847218" lon="9.9349314"><ele>71.0</ele><time>2026-04-08T06:42:00.957Z</time></trkpt><trkpt lat="44.1847863" lon="9.9351379"><ele>67.0</ele><time>2026-04-08T06:42:01.957Z</time></trkpt><trkpt lat="44.184855" lon="9.9353431"><ele>63.0</ele><time>2026-04-08T06:42:02.957Z</time></trkpt><trkpt lat="44.184931" lon="9.9355415"><ele>59.0</ele><time>2026-04-08T06:42:03.957Z</time></trkpt><trkpt lat="44.185013" lon="9.9357317"><ele>63.0</ele><time>2026-04-08T06:42:04.957Z</time></trkpt><trkpt lat="44.185101" lon="9.9359146"><ele>67.0</ele><time>2026-04-08T06:42:05.957Z</time></trkpt><trkpt lat="44.1851883" lon="9.9360905"><ele>71.0</ele><time>2026-04-08T06:42:06.958Z</time></trkpt><trkpt lat="44.1852756" lon="9.9362611"><ele>71.0</ele><time>2026-04-08T06:42:07.958Z</time></trkpt><trkpt lat="44.1853626" lon="9.9364264"><ele>71.0</ele><time>2026-04-08T06:42:08.958Z</time></trkpt><trkpt lat="44.1854542" lon="9.9365876"><ele>71.0</ele><time>2026-04-08T06:42:09.958Z</time></trkpt><trkpt lat="44.1855493" lon="9.9367472"><ele>71.0</ele><time>2026-04-08T06:42:10.957Z</time></trkpt><trkpt lat="44.1856469" lon="9.9369077"><ele>70.66666666666667</ele><time>2026-04-08T06:42:11.957Z</time></trkpt><trkpt lat="44.1857441" lon="9.9370679"><ele>70.33333333333333</ele><time>2026-04-08T06:42:12.958Z</time></trkpt><trkpt lat="44.1858439" lon="9.9372251"><ele>70.0</ele><time>2026-04-08T06:42:13.957Z</time></trkpt><trkpt lat="44.1859501" lon="9.9373765"><ele>70.0</ele><time>2026-04-08T06:42:14.957Z</time></trkpt><trkpt lat="44.1860632" lon="9.9375205"><ele>70.0</ele><time>2026-04-08T06:42:15.957Z</time></trkpt><trkpt lat="44.1861846" lon="9.9376527"><ele>70.0</ele><time>2026-04-08T06:42:16.958Z</time></trkpt><trkpt lat="44.1863104" lon="9.9377757"><ele>71.66666666666666</ele><time>2026-04-08T06:42:17.958Z</time></trkpt><trkpt lat="44.1864422" lon="9.9378964"><ele>73.33333333333333</ele><time>2026-04-08T06:42:18.957Z</time></trkpt><trkpt lat="44.1865721" lon="9.9380174"><ele>75.0</ele><time>2026-04-08T06:42:19.957Z</time></trkpt><trkpt lat="44.1866958" lon="9.9381501"><ele>75.0</ele><time>2026-04-08T06:42:20.957Z</time></trkpt><trkpt lat="44.1868111" lon="9.9382901"><ele>75.0</ele><time>2026-04-08T06:42:21.957Z</time></trkpt><trkpt lat="44.1869247" lon="9.9384255"><ele>75.0</ele><time>2026-04-08T06:42:22.957Z</time></trkpt><trkpt lat="44.1870429" lon="9.9385419"><ele>75.0</ele><time>2026-04-08T06:42:23.957Z</time></trkpt><trkpt lat="44.1871648" lon="9.9386383"><ele>73.5</ele><time>2026-04-08T06:42:24.958Z</time></trkpt><trkpt lat="44.1872798" lon="9.9387276"><ele>72.0</ele><time>2026-04-08T06:42:25.957Z</time></trkpt><trkpt lat="44.1873809" lon="9.9388189"><ele>70.5</ele><time>2026-04-08T06:42:26.957Z</time></trkpt><trkpt lat="44.1874707" lon="9.9389061"><ele>69.0</ele><time>2026-04-08T06:42:27.957Z</time></trkpt><trkpt lat="44.1875563" lon="9.9389871"><ele>69.0</ele><time>2026-04-08T06:42:28.957Z</time></trkpt><trkpt lat="44.1876352" lon="9.9390648"><ele>69.0</ele><time>2026-04-08T06:42:29.957Z</time></trkpt><trkpt lat="44.1877094" lon="9.9391357"><ele>69.0</ele><time>2026-04-08T06:42:30.958Z</time></trkpt><trkpt lat="44.1877815" lon="9.9392014"><ele>69.0</ele><time>2026-04-08T06:42:31.957Z</time></trkpt><trkpt lat="44.1878561" lon="9.9392704"><ele>69.0</ele><time>2026-04-08T06:42:32.958Z</time></trkpt><trkpt lat="44.187937" lon="9.9393462"><ele>71.25</ele><time>2026-04-08T06:42:33.957Z</time></trkpt><trkpt lat="44.188029" lon="9.9394268"><ele>73.5</ele><time>2026-04-08T06:42:34.958Z</time></trkpt><trkpt lat="44.1881305" lon="9.9395126"><ele>75.75</ele><time>2026-04-08T06:42:35.957Z</time></trkpt><trkpt lat="44.1882371" lon="9.9396119"><ele>78.0</ele><time>2026-04-08T06:42:36.957Z</time></trkpt><trkpt lat="44.1883458" lon="9.9397276"><ele>78.0</ele><time>2026-04-08T06:42:37.957Z</time></trkpt><trkpt lat="44.1884587" lon="9.9398535"><ele>78.0</ele><time>2026-04-08T06:42:38.957Z</time></trkpt><trkpt lat="44.1885733" lon="9.9399844"><ele>78.0</ele><time>2026-04-08T06:42:39.957Z</time></trkpt><trkpt lat="44.1886891" lon="9.9401175"><ele>78.0</ele><time>2026-04-08T06:42:40.957Z</time></trkpt><trkpt lat="44.1888046" lon="9.9402545"><ele>79.66666666666667</ele><time>2026-04-08T06:42:41.957Z</time></trkpt><trkpt lat="44.1889232" lon="9.9403914"><ele>81.33333333333334</ele><time>2026-04-08T06:42:42.957Z</time></trkpt><trkpt lat="44.1890445" lon="9.9405301"><ele>83.0</ele><time>2026-04-08T06:42:43.958Z</time></trkpt><trkpt lat="44.1891636" lon="9.9406658"><ele>83.0</ele><time>2026-04-08T06:42:44.957Z</time></trkpt><trkpt lat="44.1892835" lon="9.9408022"><ele>83.0</ele><time>2026-04-08T06:42:45.957Z</time></trkpt><trkpt lat="44.1894025" lon="9.9409354"><ele>83.0</ele><time>2026-04-08T06:42:46.957Z</time></trkpt><trkpt lat="44.1895231" lon="9.9410662"><ele>82.75</ele><time>2026-04-08T06:42:47.958Z</time></trkpt><trkpt lat="44.1896473" lon="9.9411791"><ele>82.5</ele><time>2026-04-08T06:42:48.957Z</time></trkpt><trkpt lat="44.1897818" lon="9.9412681"><ele>82.25</ele><time>2026-04-08T06:42:49.958Z</time></trkpt><trkpt lat="44.1899201" lon="9.9413385"><ele>82.0</ele><time>2026-04-08T06:42:50.957Z</time></trkpt><trkpt lat="44.1900577" lon="9.9413992"><ele>82.0</ele><time>2026-04-08T06:42:51.958Z</time></trkpt><trkpt lat="44.1901953" lon="9.9414518"><ele>82.0</ele><time>2026-04-08T06:42:52.957Z</time></trkpt><trkpt lat="44.1903272" lon="9.9415149"><ele>82.0</ele><time>2026-04-08T06:42:53.958Z</time></trkpt><trkpt lat="44.1904557" lon="9.9415932"><ele>82.0</ele><time>2026-04-08T06:42:54.957Z</time></trkpt><trkpt lat="44.1905832" lon="9.9416752"><ele>89.25</ele><time>2026-04-08T06:42:55.957Z</time></trkpt><trkpt lat="44.1907168" lon="9.9417521"><ele>96.5</ele><time>2026-04-08T06:42:56.957Z</time></trkpt><trkpt lat="44.1908543" lon="9.9418246"><ele>103.75</ele><time>2026-04-08T06:42:57.957Z</time></trkpt><trkpt lat="44.1909966" lon="9.9418988"><ele>111.0</ele><time>2026-04-08T06:42:58.957Z</time></trkpt><trkpt lat="44.1911412" lon="9.9419751"><ele>111.0</ele><time>2026-04-08T06:42:59.957Z</time></trkpt><trkpt lat="44.1912901" lon="9.9420448"><ele>111.0</ele><time>2026-04-08T06:43:00.958Z</time></trkpt><trkpt lat="44.1914514" lon="9.9420905"><ele>111.0</ele><time>2026-04-08T06:43:01.957Z</time></trkpt><trkpt lat="44.1916198" lon="9.9421078"><ele>103.66666666666667</ele><time>2026-04-08T06:43:02.957Z</time></trkpt><trkpt lat="44.1917855" lon="9.9421122"><ele>96.33333333333334</ele><time>2026-04-08T06:43:03.957Z</time></trkpt><trkpt lat="44.1919515" lon="9.942107"><ele>89.0</ele><time>2026-04-08T06:43:04.957Z</time></trkpt><trkpt lat="44.1921147" lon="9.9421055"><ele>89.0</ele><time>2026-04-08T06:43:05.958Z</time></trkpt><trkpt lat="44.1922779" lon="9.9421089"><ele>89.0</ele><time>2026-04-08T06:43:06.957Z</time></trkpt><trkpt lat="44.1924404" lon="9.9421378"><ele>89.0</ele><time>2026-04-08T06:43:07.958Z</time></trkpt><trkpt lat="44.1925974" lon="9.9421992"><ele>84.33333333333334</ele><time>2026-04-08T06:43:08.957Z</time></trkpt><trkpt lat="44.1927468" lon="9.9422787"><ele>79.66666666666667</ele><time>2026-04-08T06:43:09.957Z</time></trkpt><trkpt lat="44.1928862" lon="9.9423688"><ele>75.0</ele><time>2026-04-08T06:43:10.958Z</time></trkpt><trkpt lat="44.1930199" lon="9.9424644"><ele>80.33333333333333</ele><time>2026-04-08T06:43:11.957Z</time></trkpt><trkpt lat="44.1931517" lon="9.9425658"><ele>85.66666666666666</ele><time>2026-04-08T06:43:12.958Z</time></trkpt><trkpt lat="44.1932815" lon="9.9426716"><ele>91.0</ele><time>2026-04-08T06:43:13.958Z</time></trkpt><trkpt lat="44.1934136" lon="9.9427794"><ele>91.0</ele><time>2026-04-08T06:43:14.958Z</time></trkpt><trkpt lat="44.1935474" lon="9.9428878"><ele>91.0</ele><time>2026-04-08T06:43:15.957Z</time></trkpt><trkpt lat="44.1936801" lon="9.9429941"><ele>91.0</ele><time>2026-04-08T06:43:16.957Z</time></trkpt><trkpt lat="44.1938102" lon="9.943094"><ele>91.0</ele><time>2026-04-08T06:43:17.957Z</time></trkpt><trkpt lat="44.1939344" lon="9.9431884"><ele>91.0</ele><time>2026-04-08T06:43:18.957Z</time></trkpt><trkpt lat="44.1940566" lon="9.9432885"><ele>91.0</ele><time>2026-04-08T06:43:19.958Z</time></trkpt><trkpt lat="44.1941777" lon="9.9433852"><ele>91.0</ele><time>2026-04-08T06:43:20.957Z</time></trkpt><trkpt lat="44.1942968" lon="9.9434866"><ele>91.75</ele><time>2026-04-08T06:43:21.957Z</time></trkpt><trkpt lat="44.1944164" lon="9.9435845"><ele>92.5</ele><time>2026-04-08T06:43:22.957Z</time></trkpt><trkpt lat="44.1945334" lon="9.9436826"><ele>93.25</ele><time>2026-04-08T06:43:23.957Z</time></trkpt><trkpt lat="44.1946445" lon="9.9437842"><ele>94.0</ele><time>2026-04-08T06:43:24.957Z</time></trkpt><trkpt lat="44.1947381" lon="9.9439032"><ele>94.0</ele><time>2026-04-08T06:43:25.957Z</time></trkpt><trkpt lat="44.1948109" lon="9.9440496"><ele>94.0</ele><time>2026-04-08T06:43:26.958Z</time></trkpt><trkpt lat="44.1948476" lon="9.9442087"><ele>94.0</ele><time>2026-04-08T06:43:27.957Z</time></trkpt><trkpt lat="44.1948465" lon="9.9443707"><ele>94.0</ele><time>2026-04-08T06:43:28.958Z</time></trkpt><trkpt lat="44.1948146" lon="9.9445326"><ele>93.5</ele><time>2026-04-08T06:43:29.958Z</time></trkpt><trkpt lat="44.1947571" lon="9.9446869"><ele>93.0</ele><time>2026-04-08T06:43:30.957Z</time></trkpt><trkpt lat="44.1946856" lon="9.9448421"><ele>92.5</ele><time>2026-04-08T06:43:31.957Z</time></trkpt><trkpt lat="44.1946124" lon="9.9450072"><ele>92.0</ele><time>2026-04-08T06:43:32.957Z</time></trkpt><trkpt lat="44.1945498" lon="9.9451842"><ele>92.0</ele><time>2026-04-08T06:43:33.957Z</time></trkpt><trkpt lat="44.1944883" lon="9.9453649"><ele>92.0</ele><time>2026-04-08T06:43:34.957Z</time></trkpt><trkpt lat="44.1944271" lon="9.9455532"><ele>92.0</ele><time>2026-04-08T06:43:35.957Z</time></trkpt><trkpt lat="44.1943727" lon="9.9457489"><ele>92.0</ele><time>2026-04-08T06:43:36.958Z</time></trkpt><trkpt lat="44.1943282" lon="9.9459491"><ele>91.25</ele><time>2026-04-08T06:43:37.957Z</time></trkpt><trkpt lat="44.1942935" lon="9.9461487"><ele>90.5</ele><time>2026-04-08T06:43:38.957Z</time></trkpt><trkpt lat="44.1942625" lon="9.9463502"><ele>89.75</ele><time>2026-04-08T06:43:39.957Z</time></trkpt><trkpt lat="44.1942387" lon="9.946552"><ele>89.0</ele><time>2026-04-08T06:43:40.957Z</time></trkpt><trkpt lat="44.1942306" lon="9.9467579"><ele>88.0</ele><time>2026-04-08T06:43:41.958Z</time></trkpt><trkpt lat="44.194238" lon="9.9469645"><ele>87.0</ele><time>2026-04-08T06:43:42.957Z</time></trkpt><trkpt lat="44.1942487" lon="9.9471726"><ele>86.0</ele><time>2026-04-08T06:43:43.958Z</time></trkpt><trkpt lat="44.1942639" lon="9.9473783"><ele>85.0</ele><time>2026-04-08T06:43:44.957Z</time></trkpt><trkpt lat="44.1942989" lon="9.9475806"><ele>87.66666666666666</ele><time>2026-04-08T06:43:45.957Z</time></trkpt><trkpt lat="44.194352" lon="9.9477804"><ele>90.33333333333333</ele><time>2026-04-08T06:43:46.957Z</time></trkpt><trkpt lat="44.1944209" lon="9.9479744"><ele>93.0</ele><time>2026-04-08T06:43:47.957Z</time></trkpt><trkpt lat="44.1945001" lon="9.9481604"><ele>93.0</ele><time>2026-04-08T06:43:48.958Z</time></trkpt><trkpt lat="44.1945781" lon="9.9483462"><ele>93.0</ele><time>2026-04-08T06:43:49.957Z</time></trkpt><trkpt lat="44.1946504" lon="9.9485351"><ele>93.0</ele><time>2026-04-08T06:43:50.957Z</time></trkpt><trkpt lat="44.1947165" lon="9.9487281"><ele>89.25</ele><time>2026-04-08T06:43:51.957Z</time></trkpt><trkpt lat="44.1947745" lon="9.9489218"><ele>85.5</ele><time>2026-04-08T06:43:52.957Z</time></trkpt><trkpt lat="44.1948281" lon="9.9491164"><ele>81.75</ele><time>2026-04-08T06:43:53.957Z</time></trkpt><trkpt lat="44.1948782" lon="9.9493091"><ele>78.0</ele><time>2026-04-08T06:43:54.957Z</time></trkpt><trkpt lat="44.1949309" lon="9.9494979"><ele>78.0</ele><time>2026-04-08T06:43:55.957Z</time></trkpt><trkpt lat="44.194978" lon="9.9496832"><ele>78.0</ele><time>2026-04-08T06:43:56.957Z</time></trkpt><trkpt lat="44.1950252" lon="9.9498624"><ele>78.0</ele><time>2026-04-08T06:43:57.957Z</time></trkpt><trkpt lat="44.1950682" lon="9.9500397"><ele>78.0</ele><time>2026-04-08T06:43:58.957Z</time></trkpt><trkpt lat="44.1951104" lon="9.9502168"><ele>78.25</ele><time>2026-04-08T06:43:59.957Z</time></trkpt><trkpt lat="44.1951515" lon="9.9503908"><ele>78.5</ele><time>2026-04-08T06:44:00.957Z</time></trkpt><trkpt lat="44.195191" lon="9.9505666"><ele>78.75</ele><time>2026-04-08T06:44:01.957Z</time></trkpt><trkpt lat="44.1952334" lon="9.9507377"><ele>79.0</ele><time>2026-04-08T06:44:02.957Z</time></trkpt><trkpt lat="44.1952757" lon="9.9509092"><ele>79.0</ele><time>2026-04-08T06:44:03.957Z</time></trkpt><trkpt lat="44.1953295" lon="9.9510752"><ele>79.0</ele><time>2026-04-08T06:44:04.957Z</time></trkpt><trkpt lat="44.1954024" lon="9.9512241"><ele>79.0</ele><time>2026-04-08T06:44:05.957Z</time></trkpt><trkpt lat="44.1954954" lon="9.9513575"><ele>79.0</ele><time>2026-04-08T06:44:06.957Z</time></trkpt><trkpt lat="44.1956013" lon="9.9514775"><ele>76.75</ele><time>2026-04-08T06:44:07.957Z</time></trkpt><trkpt lat="44.195707" lon="9.9515976"><ele>74.5</ele><time>2026-04-08T06:44:08.957Z</time></trkpt><trkpt lat="44.1958102" lon="9.9517153"><ele>72.25</ele><time>2026-04-08T06:44:09.957Z</time></trkpt><trkpt lat="44.1959076" lon="9.951826"><ele>70.0</ele><time>2026-04-08T06:44:10.957Z</time></trkpt><trkpt lat="44.1960001" lon="9.9519301"><ele>70.0</ele><time>2026-04-08T06:44:11.957Z</time></trkpt><trkpt lat="44.1960944" lon="9.9520264"><ele>70.0</ele><time>2026-04-08T06:44:12.957Z</time></trkpt><trkpt lat="44.1961962" lon="9.9521165"><ele>70.0</ele><time>2026-04-08T06:44:13.958Z</time></trkpt><trkpt lat="44.1963065" lon="9.9521956"><ele>70.0</ele><time>2026-04-08T06:44:14.957Z</time></trkpt><trkpt lat="44.1964261" lon="9.9522392"><ele>70.5</ele><time>2026-04-08T06:44:15.957Z</time></trkpt><trkpt lat="44.1965508" lon="9.9522322"><ele>71.0</ele><time>2026-04-08T06:44:16.957Z</time></trkpt><trkpt lat="44.196677" lon="9.9521784"><ele>71.5</ele><time>2026-04-08T06:44:17.957Z</time></trkpt><trkpt lat="44.1968061" lon="9.9521093"><ele>72.0</ele><time>2026-04-08T06:44:18.957Z</time></trkpt><trkpt lat="44.1969401" lon="9.952061"><ele>72.0</ele><time>2026-04-08T06:44:19.957Z</time></trkpt><trkpt lat="44.1970752" lon="9.9520308"><ele>72.0</ele><time>2026-04-08T06:44:20.958Z</time></trkpt><trkpt lat="44.1972075" lon="9.9520209"><ele>72.0</ele><time>2026-04-08T06:44:21.957Z</time></trkpt><trkpt lat="44.197333" lon="9.9520107"><ele>72.0</ele><time>2026-04-08T06:44:22.957Z</time></trkpt><trkpt lat="44.1974569" lon="9.9520022"><ele>72.5</ele><time>2026-04-08T06:44:23.958Z</time></trkpt><trkpt lat="44.1975831" lon="9.9520134"><ele>73.0</ele><time>2026-04-08T06:44:24.957Z</time></trkpt><trkpt lat="44.1977071" lon="9.9520545"><ele>73.5</ele><time>2026-04-08T06:44:25.958Z</time></trkpt><trkpt lat="44.19783" lon="9.9521008"><ele>74.0</ele><time>2026-04-08T06:44:26.957Z</time></trkpt><trkpt lat="44.1979532" lon="9.9521473"><ele>74.0</ele><time>2026-04-08T06:44:27.957Z</time></trkpt><trkpt lat="44.1980771" lon="9.9521905"><ele>74.0</ele><time>2026-04-08T06:44:28.958Z</time></trkpt><trkpt lat="44.1982011" lon="9.9522331"><ele>74.0</ele><time>2026-04-08T06:44:29.958Z</time></trkpt><trkpt lat="44.1983236" lon="9.9522739"><ele>74.0</ele><time>2026-04-08T06:44:30.957Z</time></trkpt><trkpt lat="44.1984422" lon="9.9523232"><ele>71.75</ele><time>2026-04-08T06:44:31.957Z</time></trkpt><trkpt lat="44.1985523" lon="9.9523949"><ele>69.5</ele><time>2026-04-08T06:44:32.957Z</time></trkpt><trkpt lat="44.1986453" lon="9.9525008"><ele>67.25</ele><time>2026-04-08T06:44:33.957Z</time></trkpt><trkpt lat="44.198718" lon="9.9526397"><ele>65.0</ele><time>2026-04-08T06:44:34.957Z</time></trkpt><trkpt lat="44.1987671" lon="9.9528008"><ele>69.5</ele><time>2026-04-08T06:44:35.957Z</time></trkpt><trkpt lat="44.1988051" lon="9.9529749"><ele>74.0</ele><time>2026-04-08T06:44:36.957Z</time></trkpt><trkpt lat="44.1988379" lon="9.9531549"><ele>78.5</ele><time>2026-04-08T06:44:37.957Z</time></trkpt><trkpt lat="44.1988689" lon="9.9533389"><ele>83.0</ele><time>2026-04-08T06:44:38.958Z</time></trkpt><trkpt lat="44.1988997" lon="9.9535264"><ele>84.75</ele><time>2026-04-08T06:44:39.957Z</time></trkpt><trkpt lat="44.1989371" lon="9.9537099"><ele>86.5</ele><time>2026-04-08T06:44:40.958Z</time></trkpt><trkpt lat="44.1989776" lon="9.9538965"><ele>88.25</ele><time>2026-04-08T06:44:41.957Z</time></trkpt><trkpt lat="44.1990238" lon="9.9540684"><ele>90.0</ele><time>2026-04-08T06:44:42.958Z</time></trkpt><trkpt lat="44.19908" lon="9.954229"><ele>84.75</ele><time>2026-04-08T06:44:43.957Z</time></trkpt><trkpt lat="44.1991458" lon="9.9543753"><ele>79.5</ele><time>2026-04-08T06:44:44.957Z</time></trkpt><trkpt lat="44.1992167" lon="9.9545181"><ele>74.25</ele><time>2026-04-08T06:44:45.957Z</time></trkpt><trkpt lat="44.1992869" lon="9.9546593"><ele>69.0</ele><time>2026-04-08T06:44:46.957Z</time></trkpt><trkpt lat="44.1993613" lon="9.9547991"><ele>69.0</ele><time>2026-04-08T06:44:47.957Z</time></trkpt><trkpt lat="44.1994414" lon="9.9549412"><ele>69.0</ele><time>2026-04-08T06:44:48.957Z</time></trkpt><trkpt lat="44.1995181" lon="9.9550956"><ele>69.0</ele><time>2026-04-08T06:44:49.957Z</time></trkpt><trkpt lat="44.199574" lon="9.9552607"><ele>69.0</ele><time>2026-04-08T06:44:50.957Z</time></trkpt><trkpt lat="44.1995966" lon="9.9554391"><ele>71.0</ele><time>2026-04-08T06:44:51.957Z</time></trkpt><trkpt lat="44.1995871" lon="9.9556212"><ele>73.0</ele><time>2026-04-08T06:44:52.957Z</time></trkpt><trkpt lat="44.1995618" lon="9.9558057"><ele>75.0</ele><time>2026-04-08T06:44:53.957Z</time></trkpt><trkpt lat="44.1995291" lon="9.9559921"><ele>77.0</ele><time>2026-04-08T06:44:54.957Z</time></trkpt><trkpt lat="44.1994933" lon="9.9561789"><ele>77.0</ele><time>2026-04-08T06:44:55.957Z</time></trkpt><trkpt lat="44.1994571" lon="9.9563668"><ele>77.0</ele><time>2026-04-08T06:44:56.957Z</time></trkpt><trkpt lat="44.1994234" lon="9.9565592"><ele>77.0</ele><time>2026-04-08T06:44:57.957Z</time></trkpt><trkpt lat="44.1994023" lon="9.9567482"><ele>77.0</ele><time>2026-04-08T06:44:58.957Z</time></trkpt><trkpt lat="44.1993943" lon="9.956942"><ele>76.5</ele><time>2026-04-08T06:44:59.958Z</time></trkpt><trkpt lat="44.1993941" lon="9.9571337"><ele>76.0</ele><time>2026-04-08T06:45:00.958Z</time></trkpt><trkpt lat="44.1993951" lon="9.9573254"><ele>75.5</ele><time>2026-04-08T06:45:01.958Z</time></trkpt><trkpt lat="44.1994055" lon="9.9575159"><ele>75.0</ele><time>2026-04-08T06:45:02.957Z</time></trkpt><trkpt lat="44.1994127" lon="9.9577108"><ele>76.25</ele><time>2026-04-08T06:45:03.957Z</time></trkpt><trkpt lat="44.1994197" lon="9.9579105"><ele>77.5</ele><time>2026-04-08T06:45:04.957Z</time></trkpt><trkpt lat="44.1994275" lon="9.9581102"><ele>78.75</ele><time>2026-04-08T06:45:05.957Z</time></trkpt><trkpt lat="44.1994359" lon="9.9583181"><ele>80.0</ele><time>2026-04-08T06:45:06.957Z</time></trkpt><trkpt lat="44.1994489" lon="9.958537"><ele>82.0</ele><time>2026-04-08T06:45:07.957Z</time></trkpt><trkpt lat="44.199467" lon="9.9587508"><ele>84.0</ele><time>2026-04-08T06:45:08.957Z</time></trkpt><trkpt lat="44.1994973" lon="9.9589597"><ele>86.0</ele><time>2026-04-08T06:45:09.958Z</time></trkpt><trkpt lat="44.1995316" lon="9.9591649"><ele>90.0</ele><time>2026-04-08T06:45:10.957Z</time></trkpt><trkpt lat="44.1995666" lon="9.9593646"><ele>94.0</ele><time>2026-04-08T06:45:11.957Z</time></trkpt><trkpt lat="44.1996044" lon="9.9595606"><ele>98.0</ele><time>2026-04-08T06:45:12.957Z</time></trkpt><trkpt lat="44.1996454" lon="9.9597515"><ele>102.0</ele><time>2026-04-08T06:45:13.957Z</time></trkpt><trkpt lat="44.1996971" lon="9.9599373"><ele>107.5</ele><time>2026-04-08T06:45:14.957Z</time></trkpt><trkpt lat="44.199759" lon="9.9601188"><ele>113.0</ele><time>2026-04-08T06:45:15.957Z</time></trkpt><trkpt lat="44.1998334" lon="9.9602932"><ele>118.5</ele><time>2026-04-08T06:45:16.957Z</time></trkpt><trkpt lat="44.1999148" lon="9.9604634"><ele>124.0</ele><time>2026-04-08T06:45:17.958Z</time></trkpt><trkpt lat="44.1999995" lon="9.9606317"><ele>116.5</ele><time>2026-04-08T06:45:18.958Z</time></trkpt><trkpt lat="44.2000872" lon="9.9608002"><ele>109.0</ele><time>2026-04-08T06:45:19.957Z</time></trkpt><trkpt lat="44.200173" lon="9.9609685"><ele>101.5</ele><time>2026-04-08T06:45:20.957Z</time></trkpt><trkpt lat="44.2002511" lon="9.9611399"><ele>94.0</ele><time>2026-04-08T06:45:21.957Z</time></trkpt><trkpt lat="44.2003175" lon="9.9613123"><ele>94.0</ele><time>2026-04-08T06:45:22.957Z</time></trkpt><trkpt lat="44.2003829" lon="9.961479"><ele>94.0</ele><time>2026-04-08T06:45:23.957Z</time></trkpt><trkpt lat="44.2004545" lon="9.9616439"><ele>94.0</ele><time>2026-04-08T06:45:24.957Z</time></trkpt><trkpt lat="44.2005402" lon="9.961802"><ele>94.0</ele><time>2026-04-08T06:45:25.958Z</time></trkpt><trkpt lat="44.2006345" lon="9.9619518"><ele>87.75</ele><time>2026-04-08T06:45:26.958Z</time></trkpt><trkpt lat="44.2007312" lon="9.9620925"><ele>81.5</ele><time>2026-04-08T06:45:27.958Z</time></trkpt><trkpt lat="44.2008249" lon="9.9622267"><ele>75.25</ele><time>2026-04-08T06:45:28.957Z</time></trkpt><trkpt lat="44.2009191" lon="9.9623572"><ele>69.0</ele><time>2026-04-08T06:45:29.958Z</time></trkpt><trkpt lat="44.2010131" lon="9.9624839"><ele>73.0</ele><time>2026-04-08T06:45:30.957Z</time></trkpt><trkpt lat="44.2011103" lon="9.9626067"><ele>77.0</ele><time>2026-04-08T06:45:31.957Z</time></trkpt><trkpt lat="44.2012079" lon="9.9627251"><ele>81.0</ele><time>2026-04-08T06:45:32.957Z</time></trkpt><trkpt lat="44.2013078" lon="9.9628423"><ele>85.0</ele><time>2026-04-08T06:45:33.957Z</time></trkpt><trkpt lat="44.2014094" lon="9.9629501"><ele>83.5</ele><time>2026-04-08T06:45:34.957Z</time></trkpt><trkpt lat="44.2015169" lon="9.9630494"><ele>82.0</ele><time>2026-04-08T06:45:35.957Z</time></trkpt><trkpt lat="44.2016194" lon="9.9631517"><ele>80.5</ele><time>2026-04-08T06:45:36.957Z</time></trkpt><trkpt lat="44.2016972" lon="9.9632884"><ele>79.0</ele><time>2026-04-08T06:45:37.957Z</time></trkpt><trkpt lat="44.201764" lon="9.9634256"><ele>79.0</ele><time>2026-04-08T06:45:38.957Z</time></trkpt><trkpt lat="44.2018336" lon="9.9635501"><ele>79.0</ele><time>2026-04-08T06:45:39.957Z</time></trkpt><trkpt lat="44.2019178" lon="9.9636534"><ele>79.0</ele><time>2026-04-08T06:45:40.958Z</time></trkpt><trkpt lat="44.2020173" lon="9.9637273"><ele>79.0</ele><time>2026-04-08T06:45:41.957Z</time></trkpt><trkpt lat="44.2021201" lon="9.9637943"><ele>79.0</ele><time>2026-04-08T06:45:42.957Z</time></trkpt><trkpt lat="44.2022211" lon="9.9638763"><ele>79.0</ele><time>2026-04-08T06:45:43.957Z</time></trkpt><trkpt lat="44.2023226" lon="9.9639708"><ele>79.0</ele><time>2026-04-08T06:45:44.957Z</time></trkpt><trkpt lat="44.2024285" lon="9.9640688"><ele>79.0</ele><time>2026-04-08T06:45:45.957Z</time></trkpt><trkpt lat="44.2025384" lon="9.9641694"><ele>78.0</ele><time>2026-04-08T06:45:46.958Z</time></trkpt><trkpt lat="44.2026517" lon="9.964271"><ele>77.0</ele><time>2026-04-08T06:45:47.957Z</time></trkpt><trkpt lat="44.2027618" lon="9.9643767"><ele>76.0</ele><time>2026-04-08T06:45:48.957Z</time></trkpt><trkpt lat="44.2028702" lon="9.9644838"><ele>75.0</ele><time>2026-04-08T06:45:49.957Z</time></trkpt><trkpt lat="44.2029729" lon="9.9645959"><ele>75.0</ele><time>2026-04-08T06:45:50.957Z</time></trkpt><trkpt lat="44.2030666" lon="9.9647232"><ele>75.0</ele><time>2026-04-08T06:45:51.957Z</time></trkpt><trkpt lat="44.2031352" lon="9.964878"><ele>75.0</ele><time>2026-04-08T06:45:52.957Z</time></trkpt><trkpt lat="44.203187" lon="9.9650441"><ele>75.0</ele><time>2026-04-08T06:45:53.957Z</time></trkpt><trkpt lat="44.2032432" lon="9.9652074"><ele>73.0</ele><time>2026-04-08T06:45:54.958Z</time></trkpt><trkpt lat="44.2033034" lon="9.9653606"><ele>71.0</ele><time>2026-04-08T06:45:55.957Z</time></trkpt><trkpt lat="44.2033656" lon="9.9655093"><ele>69.0</ele><time>2026-04-08T06:45:56.958Z</time></trkpt><trkpt lat="44.2034303" lon="9.9656529"><ele>67.0</ele><time>2026-04-08T06:45:57.957Z</time></trkpt><trkpt lat="44.2035009" lon="9.9657901"><ele>66.5</ele><time>2026-04-08T06:45:58.958Z</time></trkpt><trkpt lat="44.2035775" lon="9.9659188"><ele>66.0</ele><time>2026-04-08T06:45:59.957Z</time></trkpt><trkpt lat="44.2036554" lon="9.966047"><ele>65.5</ele><time>2026-04-08T06:46:00.957Z</time></trkpt><trkpt lat="44.2037302" lon="9.9661699"><ele>65.0</ele><time>2026-04-08T06:46:01.957Z</time></trkpt><trkpt lat="44.2037947" lon="9.9662962"><ele>65.0</ele><time>2026-04-08T06:46:02.957Z</time></trkpt><trkpt lat="44.2038394" lon="9.9664365"><ele>65.0</ele><time>2026-04-08T06:46:03.958Z</time></trkpt><trkpt lat="44.203868" lon="9.9665829"><ele>65.0</ele><time>2026-04-08T06:46:04.957Z</time></trkpt><trkpt lat="44.2038986" lon="9.9667337"><ele>65.0</ele><time>2026-04-08T06:46:05.958Z</time></trkpt><trkpt lat="44.2039358" lon="9.9668789"><ele>65.0</ele><time>2026-04-08T06:46:06.957Z</time></trkpt><trkpt lat="44.2039811" lon="9.9670166"><ele>64.4</ele><time>2026-04-08T06:46:07.958Z</time></trkpt><trkpt lat="44.2040306" lon="9.9671481"><ele>63.8</ele><time>2026-04-08T06:46:08.957Z</time></trkpt><trkpt lat="44.2040842" lon="9.9672783"><ele>63.2</ele><time>2026-04-08T06:46:09.957Z</time></trkpt><trkpt lat="44.2041454" lon="9.9674066"><ele>62.6</ele><time>2026-04-08T06:46:10.958Z</time></trkpt><trkpt lat="44.2042071" lon="9.9675367"><ele>62.0</ele><time>2026-04-08T06:46:11.957Z</time></trkpt><trkpt lat="44.204271" lon="9.9676685"><ele>62.0</ele><time>2026-04-08T06:46:12.957Z</time></trkpt><trkpt lat="44.2043374" lon="9.9678007"><ele>62.0</ele><time>2026-04-08T06:46:13.957Z</time></trkpt><trkpt lat="44.2044061" lon="9.967928"><ele>62.0</ele><time>2026-04-08T06:46:14.957Z</time></trkpt><trkpt lat="44.2044749" lon="9.9680473"><ele>62.0</ele><time>2026-04-08T06:46:15.958Z</time></trkpt><trkpt lat="44.204538" lon="9.968164"><ele>62.0</ele><time>2026-04-08T06:46:16.957Z</time></trkpt><trkpt lat="44.2045989" lon="9.9682797"><ele>62.2</ele><time>2026-04-08T06:46:17.957Z</time></trkpt><trkpt lat="44.2046605" lon="9.9683929"><ele>62.400000000000006</ele><time>2026-04-08T06:46:18.958Z</time></trkpt><trkpt lat="44.2047225" lon="9.9685045"><ele>62.599999999999994</ele><time>2026-04-08T06:46:19.957Z</time></trkpt><trkpt lat="44.2047841" lon="9.9686123"><ele>62.8</ele><time>2026-04-08T06:46:20.957Z</time></trkpt><trkpt lat="44.2048434" lon="9.9687195"><ele>63.0</ele><time>2026-04-08T06:46:21.957Z</time></trkpt><trkpt lat="44.2049045" lon="9.9688279"><ele>63.2</ele><time>2026-04-08T06:46:22.957Z</time></trkpt><trkpt lat="44.2049641" lon="9.9689393"><ele>63.4</ele><time>2026-04-08T06:46:23.957Z</time></trkpt><trkpt lat="44.205024" lon="9.969051"><ele>63.60000000000001</ele><time>2026-04-08T06:46:24.957Z</time></trkpt><trkpt lat="44.2050856" lon="9.969156"><ele>63.800000000000004</ele><time>2026-04-08T06:46:25.957Z</time></trkpt><trkpt lat="44.2051431" lon="9.969261"><ele>64.0</ele><time>2026-04-08T06:46:26.957Z</time></trkpt><trkpt lat="44.2051986" lon="9.9693583"><ele>63.99999999999999</ele><time>2026-04-08T06:46:27.958Z</time></trkpt><trkpt lat="44.2052508" lon="9.9694537"><ele>64.0</ele><time>2026-04-08T06:46:28.958Z</time></trkpt><trkpt lat="44.2053004" lon="9.9695508"><ele>64.0</ele><time>2026-04-08T06:46:29.957Z</time></trkpt><trkpt lat="44.2053533" lon="9.9696501"><ele>64.0</ele><time>2026-04-08T06:46:30.957Z</time></trkpt><trkpt lat="44.2054122" lon="9.969743"><ele>63.99999999999999</ele><time>2026-04-08T06:46:31.957Z</time></trkpt><trkpt lat="44.2054793" lon="9.9698316"><ele>64.0</ele><time>2026-04-08T06:46:32.957Z</time></trkpt><trkpt lat="44.2055607" lon="9.9699077"><ele>64.0</ele><time>2026-04-08T06:46:33.957Z</time></trkpt><trkpt lat="44.2056506" lon="9.9699741"><ele>64.0</ele><time>2026-04-08T06:46:34.957Z</time></trkpt><trkpt lat="44.2057549" lon="9.9700244"><ele>64.0</ele><time>2026-04-08T06:46:35.957Z</time></trkpt><trkpt lat="44.2058672" lon="9.9700624"><ele>64.0</ele><time>2026-04-08T06:46:36.958Z</time></trkpt><trkpt lat="44.2059808" lon="9.9700901"><ele>64.0</ele><time>2026-04-08T06:46:37.957Z</time></trkpt><trkpt lat="44.2060935" lon="9.9701124"><ele>65.0</ele><time>2026-04-08T06:46:38.958Z</time></trkpt><trkpt lat="44.2062044" lon="9.970133"><ele>66.0</ele><time>2026-04-08T06:46:39.957Z</time></trkpt><trkpt lat="44.2063158" lon="9.9701527"><ele>67.0</ele><time>2026-04-08T06:46:40.957Z</time></trkpt><trkpt lat="44.2064235" lon="9.9701712"><ele>68.0</ele><time>2026-04-08T06:46:41.957Z</time></trkpt><trkpt lat="44.2065304" lon="9.970193"><ele>69.0</ele><time>2026-04-08T06:46:42.957Z</time></trkpt><trkpt lat="44.2066376" lon="9.9702158"><ele>65.8</ele><time>2026-04-08T06:46:43.958Z</time></trkpt><trkpt lat="44.2067429" lon="9.970235"><ele>62.60000000000001</ele><time>2026-04-08T06:46:44.958Z</time></trkpt><trkpt lat="44.2068453" lon="9.9702544"><ele>59.4</ele><time>2026-04-08T06:46:45.958Z</time></trkpt><trkpt lat="44.2069486" lon="9.9702741"><ele>56.2</ele><time>2026-04-08T06:46:46.957Z</time></trkpt><trkpt lat="44.2070511" lon="9.9702941"><ele>53.0</ele><time>2026-04-08T06:46:47.957Z</time></trkpt><trkpt lat="44.2071539" lon="9.9703158"><ele>53.0</ele><time>2026-04-08T06:46:48.957Z</time></trkpt><trkpt lat="44.2072571" lon="9.9703351"><ele>53.0</ele><time>2026-04-08T06:46:49.957Z</time></trkpt><trkpt lat="44.2073601" lon="9.970353"><ele>53.0</ele><time>2026-04-08T06:46:50.957Z</time></trkpt><trkpt lat="44.2074617" lon="9.9703706"><ele>53.0</ele><time>2026-04-08T06:46:51.958Z</time></trkpt><trkpt lat="44.2075605" lon="9.9703897"><ele>53.0</ele><time>2026-04-08T06:46:52.957Z</time></trkpt><trkpt lat="44.2076566" lon="9.9704101"><ele>54.00000000000001</ele><time>2026-04-08T06:46:53.957Z</time></trkpt><trkpt lat="44.2077488" lon="9.970427"><ele>55.0</ele><time>2026-04-08T06:46:54.957Z</time></trkpt><trkpt lat="44.2078391" lon="9.9704429"><ele>56.0</ele><time>2026-04-08T06:46:55.957Z</time></trkpt><trkpt lat="44.2079214" lon="9.970454"><ele>57.0</ele><time>2026-04-08T06:46:56.957Z</time></trkpt><trkpt lat="44.2079998" lon="9.9704578"><ele>58.00000000000001</ele><time>2026-04-08T06:46:57.957Z</time></trkpt><trkpt lat="44.2080755" lon="9.9704583"><ele>59.0</ele><time>2026-04-08T06:46:58.957Z</time></trkpt><trkpt lat="44.2081505" lon="9.9704403"><ele>59.66666666666667</ele><time>2026-04-08T06:46:59.957Z</time></trkpt><trkpt lat="44.208223" lon="9.9704033"><ele>60.333333333333336</ele><time>2026-04-08T06:47:00.958Z</time></trkpt><trkpt lat="44.2082905" lon="9.9703543"><ele>61.0</ele><time>2026-04-08T06:47:01.957Z</time></trkpt><trkpt lat="44.2083466" lon="9.9703003"><ele>61.66666666666667</ele><time>2026-04-08T06:47:02.957Z</time></trkpt><trkpt lat="44.2084385" lon="9.9702008"><ele>62.333333333333336</ele><time>2026-04-08T06:47:04.958Z</time></trkpt><trkpt lat="44.2085184" lon="9.9700959"><ele>63.0</ele><time>2026-04-08T06:47:06.957Z</time></trkpt><trkpt lat="44.2085503" lon="9.9699983"><ele>63.333333333333336</ele><time>2026-04-08T06:47:08.957Z</time></trkpt><trkpt lat="44.2085859" lon="9.9699045"><ele>63.66666666666667</ele><time>2026-04-08T06:47:11.957Z</time></trkpt><trkpt lat="44.2086207" lon="9.9698117"><ele>64.0</ele><time>2026-04-08T06:47:15.957Z</time></trkpt><trkpt lat="44.2086513" lon="9.969711"><ele>64.33333333333334</ele><time>2026-04-08T06:47:19.958Z</time></trkpt><trkpt lat="44.2086789" lon="9.9696312"><ele>64.66666666666667</ele><time>2026-04-08T06:47:25.957Z</time></trkpt><trkpt lat="44.2086905" lon="9.9695214"><ele>65.0</ele><time>2026-04-08T06:47:41.957Z</time></trkpt><trkpt lat="44.2087233" lon="9.9694032"><ele>65.0</ele><time>2026-04-08T06:47:44.957Z</time></trkpt><trkpt lat="44.2087766" lon="9.9693331"><ele>65.0</ele><time>2026-04-08T06:47:46.957Z</time></trkpt><trkpt lat="44.2088789" lon="9.9693024"><ele>65.0</ele><time>2026-04-08T06:47:48.957Z</time></trkpt><trkpt lat="44.2089937" lon="9.9692954"><ele>65.0</ele><time>2026-04-08T06:47:50.957Z</time></trkpt><trkpt lat="44.2091016" lon="9.9692854"><ele>65.0</ele><time>2026-04-08T06:47:52.957Z</time></trkpt><trkpt lat="44.2092167" lon="9.96928"><ele>65.0</ele><time>2026-04-08T06:47:54.957Z</time></trkpt><trkpt lat="44.2092814" lon="9.9692726"><ele>65.0</ele><time>2026-04-08T06:47:55.958Z</time></trkpt><trkpt lat="44.2093529" lon="9.9692666"><ele>65.0</ele><time>2026-04-08T06:47:56.957Z</time></trkpt><trkpt lat="44.2094279" lon="9.969261"><ele>65.0</ele><time>2026-04-08T06:47:57.957Z</time></trkpt><trkpt lat="44.2095051" lon="9.9692584"><ele>65.0</ele><time>2026-04-08T06:47:58.957Z</time></trkpt><trkpt lat="44.2095869" lon="9.969257"><ele>65.0</ele><time>2026-04-08T06:47:59.957Z</time></trkpt><trkpt lat="44.2096706" lon="9.969252"><ele>65.0</ele><time>2026-04-08T06:48:00.957Z</time></trkpt><trkpt lat="44.2097626" lon="9.9692505"><ele>65.0</ele><time>2026-04-08T06:48:01.957Z</time></trkpt><trkpt lat="44.2098627" lon="9.9692506"><ele>65.0</ele><time>2026-04-08T06:48:02.957Z</time></trkpt><trkpt lat="44.2099634" lon="9.9692592"><ele>65.0</ele><time>2026-04-08T06:48:03.957Z</time></trkpt><trkpt lat="44.2100695" lon="9.969275"><ele>65.0</ele><time>2026-04-08T06:48:04.957Z</time></trkpt><trkpt lat="44.2101705" lon="9.9692885"><ele>65.0</ele><time>2026-04-08T06:48:05.957Z</time></trkpt><trkpt lat="44.2102751" lon="9.9693052"><ele>65.0</ele><time>2026-04-08T06:48:06.957Z</time></trkpt><trkpt lat="44.2103793" lon="9.969326"><ele>65.0</ele><time>2026-04-08T06:48:07.957Z</time></trkpt><trkpt lat="44.210481" lon="9.9693447"><ele>65.0</ele><time>2026-04-08T06:48:08.957Z</time></trkpt><trkpt lat="44.2105853" lon="9.9693656"><ele>65.0</ele><time>2026-04-08T06:48:09.957Z</time></trkpt><trkpt lat="44.2106909" lon="9.9693933"><ele>65.0</ele><time>2026-04-08T06:48:10.958Z</time></trkpt><trkpt lat="44.2107974" lon="9.9694172"><ele>65.0</ele><time>2026-04-08T06:48:11.957Z</time></trkpt><trkpt lat="44.2108989" lon="9.9694455"><ele>65.0</ele><time>2026-04-08T06:48:12.957Z</time></trkpt><trkpt lat="44.2109983" lon="9.9694776"><ele>65.0</ele><time>2026-04-08T06:48:13.957Z</time></trkpt><trkpt lat="44.2110973" lon="9.9695087"><ele>65.0</ele><time>2026-04-08T06:48:14.958Z</time></trkpt><trkpt lat="44.2111987" lon="9.9695369"><ele>65.0</ele><time>2026-04-08T06:48:15.958Z</time></trkpt><trkpt lat="44.2113025" lon="9.9695584"><ele>65.0</ele><time>2026-04-08T06:48:16.958Z</time></trkpt><trkpt lat="44.2114133" lon="9.969569"><ele>65.0</ele><time>2026-04-08T06:48:17.957Z</time></trkpt><trkpt lat="44.2115271" lon="9.9695695"><ele>65.0</ele><time>2026-04-08T06:48:18.957Z</time></trkpt><trkpt lat="44.2116464" lon="9.9695574"><ele>65.0</ele><time>2026-04-08T06:48:19.957Z</time></trkpt><trkpt lat="44.2117678" lon="9.9695342"><ele>65.75</ele><time>2026-04-08T06:48:20.957Z</time></trkpt><trkpt lat="44.2118906" lon="9.9694964"><ele>66.5</ele><time>2026-04-08T06:48:21.958Z</time></trkpt><trkpt lat="44.2120124" lon="9.9694574"><ele>67.25</ele><time>2026-04-08T06:48:22.957Z</time></trkpt><trkpt lat="44.2121339" lon="9.9694142"><ele>68.0</ele><time>2026-04-08T06:48:23.957Z</time></trkpt><trkpt lat="44.2122538" lon="9.9693665"><ele>67.0</ele><time>2026-04-08T06:48:24.957Z</time></trkpt><trkpt lat="44.2123708" lon="9.9693186"><ele>66.0</ele><time>2026-04-08T06:48:25.958Z</time></trkpt><trkpt lat="44.2124867" lon="9.9692651"><ele>65.0</ele><time>2026-04-08T06:48:26.957Z</time></trkpt><trkpt lat="44.2125968" lon="9.9692016"><ele>64.0</ele><time>2026-04-08T06:48:27.957Z</time></trkpt><trkpt lat="44.2127001" lon="9.9691189"><ele>64.0</ele><time>2026-04-08T06:48:28.958Z</time></trkpt><trkpt lat="44.2128002" lon="9.9690279"><ele>64.0</ele><time>2026-04-08T06:48:29.958Z</time></trkpt><trkpt lat="44.2129018" lon="9.9689373"><ele>64.0</ele><time>2026-04-08T06:48:30.957Z</time></trkpt><trkpt lat="44.2130078" lon="9.968849"><ele>64.0</ele><time>2026-04-08T06:48:31.958Z</time></trkpt><trkpt lat="44.2131149" lon="9.9687643"><ele>64.5</ele><time>2026-04-08T06:48:32.958Z</time></trkpt><trkpt lat="44.2132245" lon="9.9686838"><ele>65.0</ele><time>2026-04-08T06:48:33.957Z</time></trkpt><trkpt lat="44.2133386" lon="9.9686081"><ele>65.5</ele><time>2026-04-08T06:48:34.957Z</time></trkpt><trkpt lat="44.2134545" lon="9.9685369"><ele>66.0</ele><time>2026-04-08T06:48:35.957Z</time></trkpt><trkpt lat="44.2135701" lon="9.9684741"><ele>66.0</ele><time>2026-04-08T06:48:36.958Z</time></trkpt><trkpt lat="44.2136831" lon="9.9684214"><ele>66.0</ele><time>2026-04-08T06:48:37.958Z</time></trkpt><trkpt lat="44.2137913" lon="9.9683798"><ele>66.0</ele><time>2026-04-08T06:48:38.957Z</time></trkpt><trkpt lat="44.2138924" lon="9.9683375"><ele>66.0</ele><time>2026-04-08T06:48:39.957Z</time></trkpt><trkpt lat="44.2139921" lon="9.9683065"><ele>66.0</ele><time>2026-04-08T06:48:40.957Z</time></trkpt><trkpt lat="44.2140959" lon="9.9682797"><ele>65.2</ele><time>2026-04-08T06:48:41.958Z</time></trkpt><trkpt lat="44.2142042" lon="9.9682534"><ele>64.39999999999999</ele><time>2026-04-08T06:48:42.957Z</time></trkpt><trkpt lat="44.2143124" lon="9.9682249"><ele>63.6</ele><time>2026-04-08T06:48:43.957Z</time></trkpt><trkpt lat="44.2144214" lon="9.9681942"><ele>62.8</ele><time>2026-04-08T06:48:44.957Z</time></trkpt><trkpt lat="44.2145336" lon="9.9681655"><ele>62.0</ele><time>2026-04-08T06:48:45.957Z</time></trkpt><trkpt lat="44.2146471" lon="9.9681366"><ele>62.0</ele><time>2026-04-08T06:48:46.958Z</time></trkpt><trkpt lat="44.2147591" lon="9.9681073"><ele>62.0</ele><time>2026-04-08T06:48:47.957Z</time></trkpt><trkpt lat="44.2148729" lon="9.9680742"><ele>62.0</ele><time>2026-04-08T06:48:48.957Z</time></trkpt><trkpt lat="44.2149894" lon="9.9680403"><ele>62.0</ele><time>2026-04-08T06:48:49.958Z</time></trkpt><trkpt lat="44.2151047" lon="9.968012"><ele>61.8</ele><time>2026-04-08T06:48:50.957Z</time></trkpt><trkpt lat="44.2152154" lon="9.967983"><ele>61.6</ele><time>2026-04-08T06:48:51.957Z</time></trkpt><trkpt lat="44.2153214" lon="9.9679526"><ele>61.39999999999999</ele><time>2026-04-08T06:48:52.958Z</time></trkpt><trkpt lat="44.2154217" lon="9.967919"><ele>61.199999999999996</ele><time>2026-04-08T06:48:53.957Z</time></trkpt><trkpt lat="44.2155219" lon="9.9678835"><ele>61.0</ele><time>2026-04-08T06:48:54.958Z</time></trkpt><trkpt lat="44.2156314" lon="9.9678529"><ele>61.25</ele><time>2026-04-08T06:48:55.958Z</time></trkpt><trkpt lat="44.2157481" lon="9.9678249"><ele>61.5</ele><time>2026-04-08T06:48:56.957Z</time></trkpt><trkpt lat="44.2158663" lon="9.9677942"><ele>61.75</ele><time>2026-04-08T06:48:57.957Z</time></trkpt><trkpt lat="44.215983" lon="9.9677638"><ele>62.0</ele><time>2026-04-08T06:48:58.957Z</time></trkpt><trkpt lat="44.2161022" lon="9.9677345"><ele>62.0</ele><time>2026-04-08T06:48:59.958Z</time></trkpt><trkpt lat="44.2162212" lon="9.9677019"><ele>62.0</ele><time>2026-04-08T06:49:00.958Z</time></trkpt><trkpt lat="44.2163401" lon="9.9676742"><ele>62.0</ele><time>2026-04-08T06:49:01.958Z</time></trkpt><trkpt lat="44.2164595" lon="9.9676672"><ele>62.0</ele><time>2026-04-08T06:49:02.957Z</time></trkpt><trkpt lat="44.2165701" lon="9.967702"><ele>61.75</ele><time>2026-04-08T06:49:03.957Z</time></trkpt><trkpt lat="44.2166679" lon="9.967788"><ele>61.5</ele><time>2026-04-08T06:49:04.958Z</time></trkpt><trkpt lat="44.2167577" lon="9.9678986"><ele>61.25</ele><time>2026-04-08T06:49:05.957Z</time></trkpt><trkpt lat="44.2168432" lon="9.9680202"><ele>61.0</ele><time>2026-04-08T06:49:06.957Z</time></trkpt><trkpt lat="44.2169227" lon="9.9681443"><ele>61.0</ele><time>2026-04-08T06:49:07.957Z</time></trkpt><trkpt lat="44.2170079" lon="9.9682542"><ele>60.99999999999999</ele><time>2026-04-08T06:49:08.958Z</time></trkpt><trkpt lat="44.2171053" lon="9.968327"><ele>60.99999999999999</ele><time>2026-04-08T06:49:09.957Z</time></trkpt><trkpt lat="44.2171888" lon="9.9683629"><ele>61.0</ele><time>2026-04-08T06:49:10.957Z</time></trkpt><trkpt lat="44.217252" lon="9.9684159"><ele>61.0</ele><time>2026-04-08T06:49:11.957Z</time></trkpt><trkpt lat="44.2172929" lon="9.9685005"><ele>61.599999999999994</ele><time>2026-04-08T06:49:12.957Z</time></trkpt><trkpt lat="44.2173303" lon="9.9685856"><ele>62.199999999999996</ele><time>2026-04-08T06:49:13.958Z</time></trkpt><trkpt lat="44.2173741" lon="9.9686823"><ele>62.800000000000004</ele><time>2026-04-08T06:49:14.957Z</time></trkpt><trkpt lat="44.2174241" lon="9.9687902"><ele>63.400000000000006</ele><time>2026-04-08T06:49:15.957Z</time></trkpt><trkpt lat="44.217476" lon="9.9689088"><ele>64.0</ele><time>2026-04-08T06:49:16.957Z</time></trkpt><trkpt lat="44.2175302" lon="9.9690357"><ele>64.0</ele><time>2026-04-08T06:49:17.957Z</time></trkpt><trkpt lat="44.2175862" lon="9.9691621"><ele>64.0</ele><time>2026-04-08T06:49:18.957Z</time></trkpt><trkpt lat="44.2176406" lon="9.9692942"><ele>64.0</ele><time>2026-04-08T06:49:19.957Z</time></trkpt><trkpt lat="44.2176953" lon="9.9694244"><ele>64.0</ele><time>2026-04-08T06:49:20.957Z</time></trkpt><trkpt lat="44.2177658" lon="9.9695394"><ele>64.0</ele><time>2026-04-08T06:49:21.957Z</time></trkpt><trkpt lat="44.2178519" lon="9.9696374"><ele>63.75</ele><time>2026-04-08T06:49:22.957Z</time></trkpt><trkpt lat="44.2179489" lon="9.9697184"><ele>63.5</ele><time>2026-04-08T06:49:23.958Z</time></trkpt><trkpt lat="44.2180518" lon="9.9697917"><ele>63.25</ele><time>2026-04-08T06:49:24.957Z</time></trkpt><trkpt lat="44.218161" lon="9.9698618"><ele>63.0</ele><time>2026-04-08T06:49:25.957Z</time></trkpt><trkpt lat="44.2182751" lon="9.9699265"><ele>63.0</ele><time>2026-04-08T06:49:26.958Z</time></trkpt><trkpt lat="44.2183932" lon="9.9699788"><ele>63.0</ele><time>2026-04-08T06:49:27.957Z</time></trkpt><trkpt lat="44.218516" lon="9.970016"><ele>63.0</ele><time>2026-04-08T06:49:28.957Z</time></trkpt><trkpt lat="44.218644" lon="9.9700336"><ele>63.0</ele><time>2026-04-08T06:49:29.958Z</time></trkpt><trkpt lat="44.2187721" lon="9.9700337"><ele>63.0</ele><time>2026-04-08T06:49:30.958Z</time></trkpt><trkpt lat="44.2189001" lon="9.9700231"><ele>63.0</ele><time>2026-04-08T06:49:31.958Z</time></trkpt><trkpt lat="44.2190271" lon="9.9700007"><ele>63.0</ele><time>2026-04-08T06:49:32.958Z</time></trkpt><trkpt lat="44.2191512" lon="9.9699575"><ele>63.0</ele><time>2026-04-08T06:49:33.958Z</time></trkpt><trkpt lat="44.2192719" lon="9.9699016"><ele>62.75</ele><time>2026-04-08T06:49:34.958Z</time></trkpt><trkpt lat="44.2193885" lon="9.9698319"><ele>62.5</ele><time>2026-04-08T06:49:35.958Z</time></trkpt><trkpt lat="44.2194988" lon="9.9697474"><ele>62.25</ele><time>2026-04-08T06:49:36.957Z</time></trkpt><trkpt lat="44.2196079" lon="9.9696663"><ele>62.0</ele><time>2026-04-08T06:49:37.957Z</time></trkpt><trkpt lat="44.2197184" lon="9.9695882"><ele>62.0</ele><time>2026-04-08T06:49:38.957Z</time></trkpt><trkpt lat="44.2198312" lon="9.9695202"><ele>62.0</ele><time>2026-04-08T06:49:39.957Z</time></trkpt><trkpt lat="44.2199478" lon="9.9694732"><ele>62.0</ele><time>2026-04-08T06:49:40.958Z</time></trkpt><trkpt lat="44.2200663" lon="9.9694509"><ele>62.0</ele><time>2026-04-08T06:49:41.957Z</time></trkpt><trkpt lat="44.2201865" lon="9.9694539"><ele>62.0</ele><time>2026-04-08T06:49:42.958Z</time></trkpt><trkpt lat="44.2203049" lon="9.9694822"><ele>62.0</ele><time>2026-04-08T06:49:43.958Z</time></trkpt><trkpt lat="44.2204215" lon="9.9695322"><ele>62.0</ele><time>2026-04-08T06:49:44.957Z</time></trkpt><trkpt lat="44.2205372" lon="9.9695954"><ele>62.0</ele><time>2026-04-08T06:49:45.957Z</time></trkpt><trkpt lat="44.2206529" lon="9.9696592"><ele>62.25</ele><time>2026-04-08T06:49:46.957Z</time></trkpt><trkpt lat="44.2207678" lon="9.9697178"><ele>62.5</ele><time>2026-04-08T06:49:47.958Z</time></trkpt><trkpt lat="44.2208796" lon="9.9697735"><ele>62.75</ele><time>2026-04-08T06:49:48.958Z</time></trkpt><trkpt lat="44.2209878" lon="9.9698211"><ele>63.0</ele><time>2026-04-08T06:49:49.958Z</time></trkpt><trkpt lat="44.2210946" lon="9.9698653"><ele>63.0</ele><time>2026-04-08T06:49:50.958Z</time></trkpt><trkpt lat="44.2212044" lon="9.969912"><ele>63.0</ele><time>2026-04-08T06:49:51.957Z</time></trkpt><trkpt lat="44.2213193" lon="9.9699548"><ele>63.0</ele><time>2026-04-08T06:49:52.958Z</time></trkpt><trkpt lat="44.2214413" lon="9.9699872"><ele>63.0</ele><time>2026-04-08T06:49:53.958Z</time></trkpt><trkpt lat="44.2215675" lon="9.9700127"><ele>63.5</ele><time>2026-04-08T06:49:54.958Z</time></trkpt><trkpt lat="44.2216976" lon="9.9700324"><ele>64.0</ele><time>2026-04-08T06:49:55.957Z</time></trkpt><trkpt lat="44.2218311" lon="9.9700432"><ele>64.5</ele><time>2026-04-08T06:49:56.958Z</time></trkpt><trkpt lat="44.2219641" lon="9.9700488"><ele>65.0</ele><time>2026-04-08T06:49:57.957Z</time></trkpt><trkpt lat="44.2220956" lon="9.9700483"><ele>65.0</ele><time>2026-04-08T06:49:58.958Z</time></trkpt><trkpt lat="44.2222257" lon="9.9700418"><ele>65.0</ele><time>2026-04-08T06:49:59.957Z</time></trkpt><trkpt lat="44.2223566" lon="9.9700285"><ele>65.0</ele><time>2026-04-08T06:50:00.957Z</time></trkpt><trkpt lat="44.2224837" lon="9.9700102"><ele>65.0</ele><time>2026-04-08T06:50:01.957Z</time></trkpt><trkpt lat="44.2226075" lon="9.9699881"><ele>65.0</ele><time>2026-04-08T06:50:02.957Z</time></trkpt><trkpt lat="44.2227281" lon="9.9699594"><ele>65.0</ele><time>2026-04-08T06:50:03.957Z</time></trkpt><trkpt lat="44.2228416" lon="9.9699256"><ele>65.0</ele><time>2026-04-08T06:50:04.958Z</time></trkpt><trkpt lat="44.2229465" lon="9.9698857"><ele>65.0</ele><time>2026-04-08T06:50:05.957Z</time></trkpt><trkpt lat="44.2230492" lon="9.9698451"><ele>65.5</ele><time>2026-04-08T06:50:06.957Z</time></trkpt><trkpt lat="44.2231559" lon="9.9698097"><ele>66.0</ele><time>2026-04-08T06:50:07.958Z</time></trkpt><trkpt lat="44.2232637" lon="9.9697652"><ele>66.5</ele><time>2026-04-08T06:50:08.957Z</time></trkpt><trkpt lat="44.2233717" lon="9.9697089"><ele>67.0</ele><time>2026-04-08T06:50:09.958Z</time></trkpt><trkpt lat="44.2234843" lon="9.969651"><ele>67.0</ele><time>2026-04-08T06:50:10.958Z</time></trkpt><trkpt lat="44.2235973" lon="9.9695906"><ele>67.0</ele><time>2026-04-08T06:50:11.957Z</time></trkpt><trkpt lat="44.2237151" lon="9.9695299"><ele>67.0</ele><time>2026-04-08T06:50:12.958Z</time></trkpt><trkpt lat="44.2238365" lon="9.9694682"><ele>67.0</ele><time>2026-04-08T06:50:13.957Z</time></trkpt><trkpt lat="44.2239572" lon="9.9694058"><ele>66.75</ele><time>2026-04-08T06:50:14.957Z</time></trkpt><trkpt lat="44.2240789" lon="9.9693411"><ele>66.5</ele><time>2026-04-08T06:50:15.957Z</time></trkpt><trkpt lat="44.2242007" lon="9.9692768"><ele>66.25</ele><time>2026-04-08T06:50:16.957Z</time></trkpt><trkpt lat="44.2243236" lon="9.9692146"><ele>66.0</ele><time>2026-04-08T06:50:17.958Z</time></trkpt><trkpt lat="44.2244471" lon="9.9691528"><ele>66.0</ele><time>2026-04-08T06:50:18.957Z</time></trkpt><trkpt lat="44.2245674" lon="9.9690855"><ele>66.0</ele><time>2026-04-08T06:50:19.957Z</time></trkpt><trkpt lat="44.2246872" lon="9.9690145"><ele>66.0</ele><time>2026-04-08T06:50:20.957Z</time></trkpt><trkpt lat="44.2248072" lon="9.9689359"><ele>66.0</ele><time>2026-04-08T06:50:21.957Z</time></trkpt><trkpt lat="44.2249265" lon="9.9688555"><ele>66.25</ele><time>2026-04-08T06:50:22.957Z</time></trkpt><trkpt lat="44.2250457" lon="9.9687698"><ele>66.5</ele><time>2026-04-08T06:50:23.957Z</time></trkpt><trkpt lat="44.2251664" lon="9.9686767"><ele>66.75</ele><time>2026-04-08T06:50:24.957Z</time></trkpt><trkpt lat="44.2252874" lon="9.968575"><ele>67.0</ele><time>2026-04-08T06:50:25.958Z</time></trkpt><trkpt lat="44.225405" lon="9.9684661"><ele>67.0</ele><time>2026-04-08T06:50:26.957Z</time></trkpt><trkpt lat="44.2255217" lon="9.9683481"><ele>67.0</ele><time>2026-04-08T06:50:27.957Z</time></trkpt><trkpt lat="44.225639" lon="9.9682272"><ele>67.0</ele><time>2026-04-08T06:50:28.957Z</time></trkpt><trkpt lat="44.2257526" lon="9.9681027"><ele>67.0</ele><time>2026-04-08T06:50:29.958Z</time></trkpt><trkpt lat="44.2258639" lon="9.9679711"><ele>67.0</ele><time>2026-04-08T06:50:30.957Z</time></trkpt><trkpt lat="44.2259725" lon="9.9678325"><ele>67.0</ele><time>2026-04-08T06:50:31.957Z</time></trkpt><trkpt lat="44.226077" lon="9.9676896"><ele>67.0</ele><time>2026-04-08T06:50:32.957Z</time></trkpt><trkpt lat="44.2261805" lon="9.9675457"><ele>67.0</ele><time>2026-04-08T06:50:33.958Z</time></trkpt><trkpt lat="44.226282" lon="9.9673985"><ele>66.75</ele><time>2026-04-08T06:50:34.957Z</time></trkpt><trkpt lat="44.2263804" lon="9.9672508"><ele>66.5</ele><time>2026-04-08T06:50:35.957Z</time></trkpt><trkpt lat="44.2264741" lon="9.9670995"><ele>66.25</ele><time>2026-04-08T06:50:36.957Z</time></trkpt><trkpt lat="44.2265628" lon="9.9669461"><ele>66.0</ele><time>2026-04-08T06:50:37.957Z</time></trkpt><trkpt lat="44.2266506" lon="9.9667952"><ele>65.5</ele><time>2026-04-08T06:50:38.958Z</time></trkpt><trkpt lat="44.2267418" lon="9.9666443"><ele>65.0</ele><time>2026-04-08T06:50:39.958Z</time></trkpt><trkpt lat="44.2268342" lon="9.9664952"><ele>64.5</ele><time>2026-04-08T06:50:40.958Z</time></trkpt><trkpt lat="44.226924" lon="9.9663475"><ele>64.0</ele><time>2026-04-08T06:50:41.958Z</time></trkpt><trkpt lat="44.227017" lon="9.9662022"><ele>64.0</ele><time>2026-04-08T06:50:42.957Z</time></trkpt><trkpt lat="44.2271179" lon="9.9660693"><ele>64.0</ele><time>2026-04-08T06:50:43.958Z</time></trkpt><trkpt lat="44.2272304" lon="9.9659583"><ele>64.0</ele><time>2026-04-08T06:50:44.957Z</time></trkpt><trkpt lat="44.2273517" lon="9.9658756"><ele>64.0</ele><time>2026-04-08T06:50:45.958Z</time></trkpt><trkpt lat="44.2274806" lon="9.9658135"><ele>64.5</ele><time>2026-04-08T06:50:46.958Z</time></trkpt><trkpt lat="44.2276125" lon="9.9657665"><ele>65.0</ele><time>2026-04-08T06:50:47.957Z</time></trkpt><trkpt lat="44.2277448" lon="9.9657162"><ele>65.5</ele><time>2026-04-08T06:50:48.957Z</time></trkpt><trkpt lat="44.2278746" lon="9.9656668"><ele>66.0</ele><time>2026-04-08T06:50:49.957Z</time></trkpt><trkpt lat="44.2280038" lon="9.9656169"><ele>66.0</ele><time>2026-04-08T06:50:50.957Z</time></trkpt><trkpt lat="44.2281345" lon="9.9655675"><ele>66.0</ele><time>2026-04-08T06:50:51.958Z</time></trkpt><trkpt lat="44.2282629" lon="9.965519"><ele>66.0</ele><time>2026-04-08T06:50:52.957Z</time></trkpt><trkpt lat="44.2283914" lon="9.96547"><ele>66.0</ele><time>2026-04-08T06:50:53.957Z</time></trkpt><trkpt lat="44.2285172" lon="9.9654196"><ele>66.0</ele><time>2026-04-08T06:50:54.957Z</time></trkpt><trkpt lat="44.2286441" lon="9.9653696"><ele>66.0</ele><time>2026-04-08T06:50:55.958Z</time></trkpt><trkpt lat="44.2287726" lon="9.9653187"><ele>66.0</ele><time>2026-04-08T06:50:56.957Z</time></trkpt><trkpt lat="44.228903" lon="9.9652734"><ele>66.0</ele><time>2026-04-08T06:50:57.958Z</time></trkpt><trkpt lat="44.2290347" lon="9.9652322"><ele>66.0</ele><time>2026-04-08T06:50:58.957Z</time></trkpt><trkpt lat="44.2291657" lon="9.9651884"><ele>66.0</ele><time>2026-04-08T06:50:59.957Z</time></trkpt><trkpt lat="44.229298" lon="9.9651395"><ele>66.0</ele><time>2026-04-08T06:51:00.957Z</time></trkpt><trkpt lat="44.2294325" lon="9.9650885"><ele>66.0</ele><time>2026-04-08T06:51:01.957Z</time></trkpt><trkpt lat="44.2295669" lon="9.9650371"><ele>66.25</ele><time>2026-04-08T06:51:02.957Z</time></trkpt><trkpt lat="44.2297041" lon="9.9649882"><ele>66.5</ele><time>2026-04-08T06:51:03.957Z</time></trkpt><trkpt lat="44.2298423" lon="9.9649385"><ele>66.75</ele><time>2026-04-08T06:51:04.957Z</time></trkpt><trkpt lat="44.2299778" lon="9.9648884"><ele>67.0</ele><time>2026-04-08T06:51:05.957Z</time></trkpt><trkpt lat="44.2301103" lon="9.9648273"><ele>68.75</ele><time>2026-04-08T06:51:06.957Z</time></trkpt><trkpt lat="44.2302367" lon="9.9647516"><ele>70.5</ele><time>2026-04-08T06:51:07.957Z</time></trkpt><trkpt lat="44.2303595" lon="9.9646569"><ele>72.25</ele><time>2026-04-08T06:51:08.957Z</time></trkpt><trkpt lat="44.2304715" lon="9.9645429"><ele>74.0</ele><time>2026-04-08T06:51:09.958Z</time></trkpt><trkpt lat="44.230573" lon="9.9644096"><ele>74.25</ele><time>2026-04-08T06:51:10.957Z</time></trkpt><trkpt lat="44.2306592" lon="9.9642554"><ele>74.5</ele><time>2026-04-08T06:51:11.958Z</time></trkpt><trkpt lat="44.2307292" lon="9.9640855"><ele>74.75</ele><time>2026-04-08T06:51:12.957Z</time></trkpt><trkpt lat="44.2307827" lon="9.9638983"><ele>75.0</ele><time>2026-04-08T06:51:13.958Z</time></trkpt><trkpt lat="44.2308205" lon="9.9637024"><ele>74.75</ele><time>2026-04-08T06:51:14.957Z</time></trkpt><trkpt lat="44.2308562" lon="9.9635026"><ele>74.5</ele><time>2026-04-08T06:51:15.957Z</time></trkpt><trkpt lat="44.2308926" lon="9.9632971"><ele>74.25</ele><time>2026-04-08T06:51:16.957Z</time></trkpt><trkpt lat="44.230928" lon="9.9630933"><ele>74.0</ele><time>2026-04-08T06:51:17.957Z</time></trkpt><trkpt lat="44.2309615" lon="9.9628868"><ele>74.0</ele><time>2026-04-08T06:51:18.957Z</time></trkpt><trkpt lat="44.2309957" lon="9.9626813"><ele>74.0</ele><time>2026-04-08T06:51:19.957Z</time></trkpt><trkpt lat="44.2310294" lon="9.9624755"><ele>74.0</ele><time>2026-04-08T06:51:20.957Z</time></trkpt><trkpt lat="44.2310671" lon="9.9622693"><ele>73.66666666666667</ele><time>2026-04-08T06:51:21.958Z</time></trkpt><trkpt lat="44.2311135" lon="9.9620677"><ele>73.33333333333333</ele><time>2026-04-08T06:51:22.957Z</time></trkpt><trkpt lat="44.2311702" lon="9.9618709"><ele>73.0</ele><time>2026-04-08T06:51:23.957Z</time></trkpt><trkpt lat="44.2312455" lon="9.961681"><ele>73.0</ele><time>2026-04-08T06:51:24.957Z</time></trkpt><trkpt lat="44.2313356" lon="9.961499"><ele>73.0</ele><time>2026-04-08T06:51:25.957Z</time></trkpt><trkpt lat="44.2314327" lon="9.9613275"><ele>73.0</ele><time>2026-04-08T06:51:26.957Z</time></trkpt><trkpt lat="44.2315445" lon="9.9611729"><ele>73.66666666666666</ele><time>2026-04-08T06:51:27.958Z</time></trkpt><trkpt lat="44.2316661" lon="9.9610349"><ele>74.33333333333333</ele><time>2026-04-08T06:51:28.957Z</time></trkpt><trkpt lat="44.2317984" lon="9.9609113"><ele>75.0</ele><time>2026-04-08T06:51:29.958Z</time></trkpt><trkpt lat="44.2319385" lon="9.9608094"><ele>75.0</ele><time>2026-04-08T06:51:30.957Z</time></trkpt><trkpt lat="44.2320834" lon="9.9607278"><ele>75.0</ele><time>2026-04-08T06:51:31.957Z</time></trkpt><trkpt lat="44.2322334" lon="9.9606662"><ele>75.0</ele><time>2026-04-08T06:51:32.957Z</time></trkpt><trkpt lat="44.2323857" lon="9.9606184"><ele>76.66666666666667</ele><time>2026-04-08T06:51:33.957Z</time></trkpt><trkpt lat="44.2325398" lon="9.9605902"><ele>78.33333333333334</ele><time>2026-04-08T06:51:34.957Z</time></trkpt><trkpt lat="44.2326935" lon="9.9605665"><ele>80.0</ele><time>2026-04-08T06:51:35.957Z</time></trkpt><trkpt lat="44.2328381" lon="9.9605489"><ele>80.0</ele><time>2026-04-08T06:51:36.957Z</time></trkpt><trkpt lat="44.2329749" lon="9.9605331"><ele>80.0</ele><time>2026-04-08T06:51:37.958Z</time></trkpt><trkpt lat="44.2331067" lon="9.9605168"><ele>80.0</ele><time>2026-04-08T06:51:38.957Z</time></trkpt><trkpt lat="44.2332349" lon="9.9605006"><ele>80.0</ele><time>2026-04-08T06:51:39.958Z</time></trkpt><trkpt lat="44.2333609" lon="9.9604891"><ele>81.0</ele><time>2026-04-08T06:51:40.957Z</time></trkpt><trkpt lat="44.2334866" lon="9.9604755"><ele>82.0</ele><time>2026-04-08T06:51:41.957Z</time></trkpt><trkpt lat="44.2336079" lon="9.9604603"><ele>83.0</ele><time>2026-04-08T06:51:42.958Z</time></trkpt><trkpt lat="44.2337288" lon="9.9604463"><ele>84.0</ele><time>2026-04-08T06:51:43.957Z</time></trkpt><trkpt lat="44.2338454" lon="9.9604299"><ele>84.0</ele><time>2026-04-08T06:51:44.958Z</time></trkpt><trkpt lat="44.233961" lon="9.9604156"><ele>84.0</ele><time>2026-04-08T06:51:45.957Z</time></trkpt><trkpt lat="44.2340769" lon="9.9604037"><ele>84.0</ele><time>2026-04-08T06:51:46.957Z</time></trkpt><trkpt lat="44.2341948" lon="9.9603909"><ele>84.0</ele><time>2026-04-08T06:51:47.958Z</time></trkpt><trkpt lat="44.2343124" lon="9.9603739"><ele>85.25</ele><time>2026-04-08T06:51:48.957Z</time></trkpt><trkpt lat="44.2344285" lon="9.9603602"><ele>86.5</ele><time>2026-04-08T06:51:49.958Z</time></trkpt><trkpt lat="44.2345474" lon="9.9603472"><ele>87.75</ele><time>2026-04-08T06:51:50.957Z</time></trkpt><trkpt lat="44.2346689" lon="9.9603317"><ele>89.0</ele><time>2026-04-08T06:51:51.957Z</time></trkpt><trkpt lat="44.2347881" lon="9.9603168"><ele>89.5</ele><time>2026-04-08T06:51:52.957Z</time></trkpt><trkpt lat="44.2349075" lon="9.9603023"><ele>90.0</ele><time>2026-04-08T06:51:53.957Z</time></trkpt><trkpt lat="44.2350246" lon="9.9602906"><ele>90.5</ele><time>2026-04-08T06:51:54.957Z</time></trkpt><trkpt lat="44.2351421" lon="9.9602789"><ele>91.0</ele><time>2026-04-08T06:51:55.957Z</time></trkpt><trkpt lat="44.2352608" lon="9.960268"><ele>91.0</ele><time>2026-04-08T06:51:56.957Z</time></trkpt><trkpt lat="44.2353783" lon="9.9602546"><ele>91.0</ele><time>2026-04-08T06:51:57.957Z</time></trkpt><trkpt lat="44.2354959" lon="9.9602412"><ele>91.0</ele><time>2026-04-08T06:51:58.957Z</time></trkpt><trkpt lat="44.235613" lon="9.9602291"><ele>91.0</ele><time>2026-04-08T06:51:59.958Z</time></trkpt><trkpt lat="44.2357309" lon="9.9602156"><ele>92.25</ele><time>2026-04-08T06:52:00.957Z</time></trkpt><trkpt lat="44.2358478" lon="9.9601964"><ele>93.5</ele><time>2026-04-08T06:52:01.957Z</time></trkpt><trkpt lat="44.2359653" lon="9.9601765"><ele>94.75</ele><time>2026-04-08T06:52:02.957Z</time></trkpt><trkpt lat="44.2360846" lon="9.9601622"><ele>96.0</ele><time>2026-04-08T06:52:03.957Z</time></trkpt><trkpt lat="44.2362036" lon="9.9601472"><ele>96.0</ele><time>2026-04-08T06:52:04.957Z</time></trkpt><trkpt lat="44.236323" lon="9.9601334"><ele>96.0</ele><time>2026-04-08T06:52:05.958Z</time></trkpt><trkpt lat="44.2364439" lon="9.9601196"><ele>96.0</ele><time>2026-04-08T06:52:06.957Z</time></trkpt><trkpt lat="44.2365634" lon="9.960104"><ele>96.0</ele><time>2026-04-08T06:52:07.957Z</time></trkpt><trkpt lat="44.2366808" lon="9.9600922"><ele>96.75</ele><time>2026-04-08T06:52:08.957Z</time></trkpt><trkpt lat="44.2368008" lon="9.9600789"><ele>97.5</ele><time>2026-04-08T06:52:09.957Z</time></trkpt><trkpt lat="44.2369224" lon="9.9600605"><ele>98.25</ele><time>2026-04-08T06:52:10.957Z</time></trkpt><trkpt lat="44.2370432" lon="9.9600466"><ele>99.0</ele><time>2026-04-08T06:52:11.957Z</time></trkpt><trkpt lat="44.2371642" lon="9.960035"><ele>94.75</ele><time>2026-04-08T06:52:12.957Z</time></trkpt><trkpt lat="44.2372857" lon="9.9600198"><ele>90.5</ele><time>2026-04-08T06:52:13.957Z</time></trkpt><trkpt lat="44.2374051" lon="9.9600019"><ele>86.25</ele><time>2026-04-08T06:52:14.957Z</time></trkpt><trkpt lat="44.2375246" lon="9.9599874"><ele>82.0</ele><time>2026-04-08T06:52:15.957Z</time></trkpt><trkpt lat="44.2376423" lon="9.9599736"><ele>81.75</ele><time>2026-04-08T06:52:16.958Z</time></trkpt><trkpt lat="44.2377624" lon="9.9599601"><ele>81.5</ele><time>2026-04-08T06:52:17.958Z</time></trkpt><trkpt lat="44.2378815" lon="9.9599473"><ele>81.25</ele><time>2026-04-08T06:52:18.957Z</time></trkpt><trkpt lat="44.2380002" lon="9.9599325"><ele>81.0</ele><time>2026-04-08T06:52:19.958Z</time></trkpt><trkpt lat="44.238119" lon="9.9599178"><ele>81.25</ele><time>2026-04-08T06:52:20.957Z</time></trkpt><trkpt lat="44.2382394" lon="9.9599027"><ele>81.5</ele><time>2026-04-08T06:52:21.957Z</time></trkpt><trkpt lat="44.2383579" lon="9.9598867"><ele>81.75</ele><time>2026-04-08T06:52:22.957Z</time></trkpt><trkpt lat="44.2384775" lon="9.959872"><ele>82.0</ele><time>2026-04-08T06:52:23.958Z</time></trkpt><trkpt lat="44.2385966" lon="9.9598584"><ele>82.0</ele><time>2026-04-08T06:52:24.957Z</time></trkpt><trkpt lat="44.2387163" lon="9.9598462"><ele>82.0</ele><time>2026-04-08T06:52:25.958Z</time></trkpt><trkpt lat="44.2388362" lon="9.9598337"><ele>82.0</ele><time>2026-04-08T06:52:26.958Z</time></trkpt><trkpt lat="44.2389576" lon="9.9598214"><ele>82.0</ele><time>2026-04-08T06:52:27.957Z</time></trkpt><trkpt lat="44.2390786" lon="9.9598103"><ele>82.0</ele><time>2026-04-08T06:52:28.958Z</time></trkpt><trkpt lat="44.2392009" lon="9.9597954"><ele>82.0</ele><time>2026-04-08T06:52:29.957Z</time></trkpt><trkpt lat="44.2393253" lon="9.9597774"><ele>82.0</ele><time>2026-04-08T06:52:30.957Z</time></trkpt><trkpt lat="44.2394493" lon="9.9597638"><ele>82.0</ele><time>2026-04-08T06:52:31.957Z</time></trkpt><trkpt lat="44.2395727" lon="9.9597484"><ele>82.0</ele><time>2026-04-08T06:52:32.957Z</time></trkpt><trkpt lat="44.2396952" lon="9.9597316"><ele>82.0</ele><time>2026-04-08T06:52:33.958Z</time></trkpt><trkpt lat="44.2398197" lon="9.959715"><ele>82.0</ele><time>2026-04-08T06:52:34.957Z</time></trkpt><trkpt lat="44.2399445" lon="9.9596979"><ele>82.0</ele><time>2026-04-08T06:52:35.957Z</time></trkpt><trkpt lat="44.2400674" lon="9.9596844"><ele>82.5</ele><time>2026-04-08T06:52:36.957Z</time></trkpt><trkpt lat="44.2401906" lon="9.9596698"><ele>83.0</ele><time>2026-04-08T06:52:37.957Z</time></trkpt><trkpt lat="44.2403143" lon="9.9596557"><ele>83.5</ele><time>2026-04-08T06:52:38.958Z</time></trkpt><trkpt lat="44.2404379" lon="9.959641"><ele>84.0</ele><time>2026-04-08T06:52:39.958Z</time></trkpt><trkpt lat="44.2405612" lon="9.9596241"><ele>84.75</ele><time>2026-04-08T06:52:40.957Z</time></trkpt><trkpt lat="44.2406836" lon="9.9596055"><ele>85.5</ele><time>2026-04-08T06:52:41.958Z</time></trkpt><trkpt lat="44.2408054" lon="9.9595861"><ele>86.25</ele><time>2026-04-08T06:52:42.957Z</time></trkpt><trkpt lat="44.2409255" lon="9.9595705"><ele>87.0</ele><time>2026-04-08T06:52:43.958Z</time></trkpt><trkpt lat="44.2410476" lon="9.9595544"><ele>87.0</ele><time>2026-04-08T06:52:44.958Z</time></trkpt><trkpt lat="44.2411682" lon="9.9595411"><ele>87.0</ele><time>2026-04-08T06:52:45.957Z</time></trkpt><trkpt lat="44.2412889" lon="9.9595216"><ele>87.0</ele><time>2026-04-08T06:52:46.957Z</time></trkpt><trkpt lat="44.241411" lon="9.9595053"><ele>87.0</ele><time>2026-04-08T06:52:47.957Z</time></trkpt><trkpt lat="44.2415323" lon="9.9594887"><ele>88.0</ele><time>2026-04-08T06:52:48.958Z</time></trkpt><trkpt lat="44.2416516" lon="9.9594735"><ele>89.0</ele><time>2026-04-08T06:52:49.958Z</time></trkpt><trkpt lat="44.2417717" lon="9.9594615"><ele>90.0</ele><time>2026-04-08T06:52:50.958Z</time></trkpt><trkpt lat="44.2418918" lon="9.9594443"><ele>91.0</ele><time>2026-04-08T06:52:51.957Z</time></trkpt><trkpt lat="44.2420123" lon="9.9594266"><ele>91.0</ele><time>2026-04-08T06:52:52.957Z</time></trkpt><trkpt lat="44.2421321" lon="9.9594096"><ele>91.0</ele><time>2026-04-08T06:52:53.958Z</time></trkpt><trkpt lat="44.2422546" lon="9.9593892"><ele>91.0</ele><time>2026-04-08T06:52:54.957Z</time></trkpt><trkpt lat="44.2423851" lon="9.9593715"><ele>91.0</ele><time>2026-04-08T06:52:55.958Z</time></trkpt><trkpt lat="44.2425254" lon="9.9593561"><ele>92.25</ele><time>2026-04-08T06:52:56.957Z</time></trkpt><trkpt lat="44.242673" lon="9.9593379"><ele>93.5</ele><time>2026-04-08T06:52:57.957Z</time></trkpt><trkpt lat="44.242824" lon="9.9593275"><ele>94.75</ele><time>2026-04-08T06:52:58.957Z</time></trkpt><trkpt lat="44.2429719" lon="9.9593181"><ele>96.0</ele><time>2026-04-08T06:52:59.958Z</time></trkpt><trkpt lat="44.2431188" lon="9.9593307"><ele>96.33333333333334</ele><time>2026-04-08T06:53:00.957Z</time></trkpt><trkpt lat="44.2432584" lon="9.9593949"><ele>96.66666666666667</ele><time>2026-04-08T06:53:01.957Z</time></trkpt><trkpt lat="44.2433851" lon="9.9595036"><ele>97.0</ele><time>2026-04-08T06:53:02.957Z</time></trkpt><trkpt lat="44.2435182" lon="9.9596348"><ele>97.0</ele><time>2026-04-08T06:53:03.958Z</time></trkpt><trkpt lat="44.2436529" lon="9.9597746"><ele>97.0</ele><time>2026-04-08T06:53:04.958Z</time></trkpt><trkpt lat="44.2437821" lon="9.9599107"><ele>97.0</ele><time>2026-04-08T06:53:05.957Z</time></trkpt><trkpt lat="44.2439092" lon="9.9600491"><ele>97.33333333333334</ele><time>2026-04-08T06:53:06.957Z</time></trkpt><trkpt lat="44.2440341" lon="9.9601818"><ele>97.66666666666666</ele><time>2026-04-08T06:53:07.957Z</time></trkpt><trkpt lat="44.2441524" lon="9.9603125"><ele>98.0</ele><time>2026-04-08T06:53:08.957Z</time></trkpt><trkpt lat="44.2442684" lon="9.9604416"><ele>98.0</ele><time>2026-04-08T06:53:09.957Z</time></trkpt><trkpt lat="44.2443896" lon="9.9605581"><ele>98.0</ele><time>2026-04-08T06:53:10.957Z</time></trkpt><trkpt lat="44.2445207" lon="9.9606505"><ele>98.0</ele><time>2026-04-08T06:53:11.957Z</time></trkpt><trkpt lat="44.244665" lon="9.9607077"><ele>98.0</ele><time>2026-04-08T06:53:12.957Z</time></trkpt><trkpt lat="44.2448162" lon="9.9607273"><ele>95.33333333333333</ele><time>2026-04-08T06:53:13.957Z</time></trkpt><trkpt lat="44.2449725" lon="9.9607138"><ele>92.66666666666666</ele><time>2026-04-08T06:53:14.957Z</time></trkpt><trkpt lat="44.2451336" lon="9.9606875"><ele>90.0</ele><time>2026-04-08T06:53:15.957Z</time></trkpt><trkpt lat="44.2453005" lon="9.9606616"><ele>90.0</ele><time>2026-04-08T06:53:16.958Z</time></trkpt><trkpt lat="44.2454632" lon="9.960641"><ele>90.0</ele><time>2026-04-08T06:53:17.957Z</time></trkpt><trkpt lat="44.245621" lon="9.9606326"><ele>90.0</ele><time>2026-04-08T06:53:18.957Z</time></trkpt><trkpt lat="44.2457735" lon="9.9606442"><ele>90.0</ele><time>2026-04-08T06:53:19.958Z</time></trkpt><trkpt lat="44.2459179" lon="9.9606519"><ele>90.0</ele><time>2026-04-08T06:53:20.958Z</time></trkpt><trkpt lat="44.2460584" lon="9.96061"><ele>90.0</ele><time>2026-04-08T06:53:21.957Z</time></trkpt><trkpt lat="44.2461882" lon="9.9605309"><ele>90.0</ele><time>2026-04-08T06:53:22.958Z</time></trkpt><trkpt lat="44.2463068" lon="9.9604195"><ele>90.0</ele><time>2026-04-08T06:53:23.957Z</time></trkpt><trkpt lat="44.2464084" lon="9.9602722"><ele>90.0</ele><time>2026-04-08T06:53:24.957Z</time></trkpt><trkpt lat="44.2464845" lon="9.9600856"><ele>90.0</ele><time>2026-04-08T06:53:25.957Z</time></trkpt><trkpt lat="44.2465417" lon="9.9598651"><ele>90.0</ele><time>2026-04-08T06:53:26.957Z</time></trkpt><trkpt lat="44.2465993" lon="9.959624"><ele>90.0</ele><time>2026-04-08T06:53:27.958Z</time></trkpt><trkpt lat="44.2466651" lon="9.9593941"><ele>90.0</ele><time>2026-04-08T06:53:28.957Z</time></trkpt><trkpt lat="44.2467453" lon="9.9591849"><ele>91.33333333333333</ele><time>2026-04-08T06:53:29.957Z</time></trkpt><trkpt lat="44.2468509" lon="9.9590024"><ele>92.66666666666666</ele><time>2026-04-08T06:53:30.957Z</time></trkpt><trkpt lat="44.2469764" lon="9.9588367"><ele>94.0</ele><time>2026-04-08T06:53:31.957Z</time></trkpt><trkpt lat="44.2471206" lon="9.9586697"><ele>94.0</ele><time>2026-04-08T06:53:32.958Z</time></trkpt><trkpt lat="44.2472714" lon="9.9585066"><ele>94.0</ele><time>2026-04-08T06:53:33.957Z</time></trkpt><trkpt lat="44.2474227" lon="9.9583455"><ele>94.0</ele><time>2026-04-08T06:53:34.958Z</time></trkpt><trkpt lat="44.2475707" lon="9.9581908"><ele>96.0</ele><time>2026-04-08T06:53:35.957Z</time></trkpt><trkpt lat="44.2477147" lon="9.9580438"><ele>98.0</ele><time>2026-04-08T06:53:36.957Z</time></trkpt><trkpt lat="44.2478537" lon="9.9579026"><ele>100.0</ele><time>2026-04-08T06:53:37.958Z</time></trkpt><trkpt lat="44.247986" lon="9.9577656"><ele>100.0</ele><time>2026-04-08T06:53:38.957Z</time></trkpt><trkpt lat="44.2481156" lon="9.9576324"><ele>100.0</ele><time>2026-04-08T06:53:39.957Z</time></trkpt><trkpt lat="44.2482435" lon="9.9575024"><ele>100.0</ele><time>2026-04-08T06:53:40.957Z</time></trkpt><trkpt lat="44.2483702" lon="9.9573724"><ele>100.0</ele><time>2026-04-08T06:53:41.957Z</time></trkpt><trkpt lat="44.2484968" lon="9.9572451"><ele>100.0</ele><time>2026-04-08T06:53:42.957Z</time></trkpt><trkpt lat="44.2486218" lon="9.957115"><ele>100.0</ele><time>2026-04-08T06:53:43.958Z</time></trkpt><trkpt lat="44.2487463" lon="9.9569925"><ele>100.0</ele><time>2026-04-08T06:53:44.958Z</time></trkpt><trkpt lat="44.2488698" lon="9.9568668"><ele>100.0</ele><time>2026-04-08T06:53:45.957Z</time></trkpt><trkpt lat="44.2489954" lon="9.9567458"><ele>100.0</ele><time>2026-04-08T06:53:46.957Z</time></trkpt><trkpt lat="44.2491263" lon="9.9566331"><ele>102.66666666666667</ele><time>2026-04-08T06:53:47.957Z</time></trkpt><trkpt lat="44.249268" lon="9.9565292"><ele>105.33333333333334</ele><time>2026-04-08T06:53:48.957Z</time></trkpt><trkpt lat="44.2494183" lon="9.9564284"><ele>108.0</ele><time>2026-04-08T06:53:49.957Z</time></trkpt><trkpt lat="44.2495789" lon="9.9563117"><ele>108.0</ele><time>2026-04-08T06:53:50.958Z</time></trkpt><trkpt lat="44.2497431" lon="9.956165"><ele>108.0</ele><time>2026-04-08T06:53:51.957Z</time></trkpt><trkpt lat="44.2499026" lon="9.9559843"><ele>108.0</ele><time>2026-04-08T06:53:52.957Z</time></trkpt><trkpt lat="44.2500543" lon="9.9557762"><ele>108.33333333333334</ele><time>2026-04-08T06:53:53.957Z</time></trkpt><trkpt lat="44.2501967" lon="9.9555562"><ele>108.66666666666667</ele><time>2026-04-08T06:53:54.957Z</time></trkpt><trkpt lat="44.250333" lon="9.9553393"><ele>109.0</ele><time>2026-04-08T06:53:55.957Z</time></trkpt><trkpt lat="44.2504626" lon="9.9551303"><ele>111.66666666666667</ele><time>2026-04-08T06:53:56.957Z</time></trkpt><trkpt lat="44.2505852" lon="9.9549355"><ele>114.33333333333334</ele><time>2026-04-08T06:53:57.958Z</time></trkpt><trkpt lat="44.2507053" lon="9.9547463"><ele>117.0</ele><time>2026-04-08T06:53:58.957Z</time></trkpt><trkpt lat="44.2508359" lon="9.9545712"><ele>117.0</ele><time>2026-04-08T06:53:59.957Z</time></trkpt><trkpt lat="44.2509844" lon="9.9544393"><ele>117.0</ele><time>2026-04-08T06:54:00.957Z</time></trkpt><trkpt lat="44.2511461" lon="9.954328"><ele>117.0</ele><time>2026-04-08T06:54:01.957Z</time></trkpt><trkpt lat="44.2513019" lon="9.9542121"><ele>118.0</ele><time>2026-04-08T06:54:02.958Z</time></trkpt><trkpt lat="44.2514556" lon="9.9541004"><ele>119.0</ele><time>2026-04-08T06:54:03.957Z</time></trkpt><trkpt lat="44.2516037" lon="9.9540005"><ele>120.0</ele><time>2026-04-08T06:54:04.958Z</time></trkpt><trkpt lat="44.2517402" lon="9.9539227"><ele>120.0</ele><time>2026-04-08T06:54:05.958Z</time></trkpt><trkpt lat="44.2518755" lon="9.9538916"><ele>120.0</ele><time>2026-04-08T06:54:06.957Z</time></trkpt><trkpt lat="44.2519977" lon="9.9539269"><ele>120.0</ele><time>2026-04-08T06:54:07.958Z</time></trkpt><trkpt lat="44.2520867" lon="9.9540216"><ele>120.0</ele><time>2026-04-08T06:54:08.958Z</time></trkpt><trkpt lat="44.2521281" lon="9.95415"><ele>122.75</ele><time>2026-04-08T06:54:09.958Z</time></trkpt><trkpt lat="44.2521418" lon="9.9542949"><ele>125.5</ele><time>2026-04-08T06:54:10.957Z</time></trkpt><trkpt lat="44.2521519" lon="9.9544563"><ele>128.25</ele><time>2026-04-08T06:54:11.957Z</time></trkpt><trkpt lat="44.2521656" lon="9.9546318"><ele>131.0</ele><time>2026-04-08T06:54:12.958Z</time></trkpt><trkpt lat="44.2521819" lon="9.9548183"><ele>131.0</ele><time>2026-04-08T06:54:13.957Z</time></trkpt><trkpt lat="44.2522061" lon="9.9550168"><ele>131.0</ele><time>2026-04-08T06:54:14.957Z</time></trkpt><trkpt lat="44.2522593" lon="9.9552201"><ele>131.0</ele><time>2026-04-08T06:54:15.957Z</time></trkpt><trkpt lat="44.2523215" lon="9.9554358"><ele>129.66666666666666</ele><time>2026-04-08T06:54:16.957Z</time></trkpt><trkpt lat="44.2523472" lon="9.9556776"><ele>128.33333333333334</ele><time>2026-04-08T06:54:17.957Z</time></trkpt><trkpt lat="44.2523548" lon="9.9559037"><ele>127.0</ele><time>2026-04-08T06:54:18.957Z</time></trkpt><trkpt lat="44.2523685" lon="9.9561252"><ele>127.0</ele><time>2026-04-08T06:54:19.958Z</time></trkpt><trkpt lat="44.2524091" lon="9.9563471"><ele>127.0</ele><time>2026-04-08T06:54:20.957Z</time></trkpt><trkpt lat="44.2524779" lon="9.9565543"><ele>127.0</ele><time>2026-04-08T06:54:21.957Z</time></trkpt><trkpt lat="44.2525591" lon="9.9567515"><ele>128.66666666666669</ele><time>2026-04-08T06:54:22.957Z</time></trkpt><trkpt lat="44.2526461" lon="9.956939"><ele>130.33333333333334</ele><time>2026-04-08T06:54:23.958Z</time></trkpt><trkpt lat="44.2527589" lon="9.957106"><ele>132.0</ele><time>2026-04-08T06:54:24.957Z</time></trkpt><trkpt lat="44.2528976" lon="9.9572724"><ele>132.0</ele><time>2026-04-08T06:54:25.957Z</time></trkpt><trkpt lat="44.2530312" lon="9.9574302"><ele>132.0</ele><time>2026-04-08T06:54:26.957Z</time></trkpt><trkpt lat="44.2531574" lon="9.9575789"><ele>132.0</ele><time>2026-04-08T06:54:27.957Z</time></trkpt><trkpt lat="44.2532775" lon="9.9577197"><ele>131.75</ele><time>2026-04-08T06:54:28.957Z</time></trkpt><trkpt lat="44.2533877" lon="9.9578505"><ele>131.5</ele><time>2026-04-08T06:54:29.957Z</time></trkpt><trkpt lat="44.2534895" lon="9.9579757"><ele>131.25</ele><time>2026-04-08T06:54:30.958Z</time></trkpt><trkpt lat="44.2535935" lon="9.9580842"><ele>131.0</ele><time>2026-04-08T06:54:31.957Z</time></trkpt><trkpt lat="44.2537131" lon="9.9581544"><ele>131.0</ele><time>2026-04-08T06:54:32.957Z</time></trkpt><trkpt lat="44.2538462" lon="9.9581823"><ele>131.0</ele><time>2026-04-08T06:54:33.958Z</time></trkpt><trkpt lat="44.2539877" lon="9.9581635"><ele>131.0</ele><time>2026-04-08T06:54:34.957Z</time></trkpt><trkpt lat="44.2541309" lon="9.9581127"><ele>131.0</ele><time>2026-04-08T06:54:35.957Z</time></trkpt><trkpt lat="44.2542721" lon="9.9580208"><ele>133.33333333333331</ele><time>2026-04-08T06:54:36.957Z</time></trkpt><trkpt lat="44.2544096" lon="9.9578853"><ele>135.66666666666666</ele><time>2026-04-08T06:54:37.957Z</time></trkpt><trkpt lat="44.2545619" lon="9.9577256"><ele>138.0</ele><time>2026-04-08T06:54:38.957Z</time></trkpt><trkpt lat="44.2547391" lon="9.957578"><ele>137.66666666666666</ele><time>2026-04-08T06:54:39.957Z</time></trkpt><trkpt lat="44.2549092" lon="9.9574555"><ele>137.33333333333331</ele><time>2026-04-08T06:54:40.958Z</time></trkpt><trkpt lat="44.2550742" lon="9.9573324"><ele>137.0</ele><time>2026-04-08T06:54:41.957Z</time></trkpt><trkpt lat="44.2552337" lon="9.957213"><ele>137.0</ele><time>2026-04-08T06:54:42.957Z</time></trkpt><trkpt lat="44.255391" lon="9.9571042"><ele>137.0</ele><time>2026-04-08T06:54:43.957Z</time></trkpt><trkpt lat="44.2555456" lon="9.9570005"><ele>137.0</ele><time>2026-04-08T06:54:44.958Z</time></trkpt><trkpt lat="44.2556976" lon="9.9569006"><ele>134.66666666666666</ele><time>2026-04-08T06:54:45.957Z</time></trkpt><trkpt lat="44.2558459" lon="9.9568013"><ele>132.33333333333334</ele><time>2026-04-08T06:54:46.957Z</time></trkpt><trkpt lat="44.2559907" lon="9.9567002"><ele>130.0</ele><time>2026-04-08T06:54:47.957Z</time></trkpt><trkpt lat="44.2561356" lon="9.9566032"><ele>130.0</ele><time>2026-04-08T06:54:48.957Z</time></trkpt><trkpt lat="44.2562839" lon="9.9565314"><ele>130.0</ele><time>2026-04-08T06:54:49.958Z</time></trkpt><trkpt lat="44.2564306" lon="9.9564908"><ele>130.0</ele><time>2026-04-08T06:54:50.957Z</time></trkpt><trkpt lat="44.2565725" lon="9.9564595"><ele>134.0</ele><time>2026-04-08T06:54:51.957Z</time></trkpt><trkpt lat="44.2567115" lon="9.9564029"><ele>138.0</ele><time>2026-04-08T06:54:52.958Z</time></trkpt><trkpt lat="44.2568456" lon="9.9562986"><ele>142.0</ele><time>2026-04-08T06:54:53.957Z</time></trkpt><trkpt lat="44.2569715" lon="9.9561664"><ele>142.0</ele><time>2026-04-08T06:54:54.957Z</time></trkpt><trkpt lat="44.2570839" lon="9.9560263"><ele>142.0</ele><time>2026-04-08T06:54:55.957Z</time></trkpt><trkpt lat="44.2571886" lon="9.9558945"><ele>142.0</ele><time>2026-04-08T06:54:56.958Z</time></trkpt><trkpt lat="44.2572891" lon="9.9557705"><ele>142.0</ele><time>2026-04-08T06:54:57.957Z</time></trkpt><trkpt lat="44.2573886" lon="9.9556585"><ele>141.25</ele><time>2026-04-08T06:54:58.957Z</time></trkpt><trkpt lat="44.2574967" lon="9.9555599"><ele>140.5</ele><time>2026-04-08T06:54:59.958Z</time></trkpt><trkpt lat="44.2576124" lon="9.9554944"><ele>139.75</ele><time>2026-04-08T06:55:00.957Z</time></trkpt><trkpt lat="44.2577331" lon="9.9554649"><ele>139.0</ele><time>2026-04-08T06:55:01.958Z</time></trkpt><trkpt lat="44.2578576" lon="9.9554457"><ele>139.0</ele><time>2026-04-08T06:55:02.957Z</time></trkpt><trkpt lat="44.2579854" lon="9.9554102"><ele>139.0</ele><time>2026-04-08T06:55:03.957Z</time></trkpt><trkpt lat="44.2581158" lon="9.9553608"><ele>139.0</ele><time>2026-04-08T06:55:04.957Z</time></trkpt><trkpt lat="44.2582487" lon="9.9553075"><ele>139.0</ele><time>2026-04-08T06:55:05.957Z</time></trkpt><trkpt lat="44.258384" lon="9.9552444"><ele>143.25</ele><time>2026-04-08T06:55:06.958Z</time></trkpt><trkpt lat="44.2585196" lon="9.9551768"><ele>147.5</ele><time>2026-04-08T06:55:07.958Z</time></trkpt><trkpt lat="44.2586541" lon="9.9551034"><ele>151.75</ele><time>2026-04-08T06:55:08.958Z</time></trkpt><trkpt lat="44.2587844" lon="9.9550138"><ele>156.0</ele><time>2026-04-08T06:55:09.957Z</time></trkpt><trkpt lat="44.2589042" lon="9.9549002"><ele>152.25</ele><time>2026-04-08T06:55:10.958Z</time></trkpt><trkpt lat="44.2590101" lon="9.954765"><ele>148.5</ele><time>2026-04-08T06:55:11.958Z</time></trkpt><trkpt lat="44.2591079" lon="9.9546153"><ele>144.75</ele><time>2026-04-08T06:55:12.957Z</time></trkpt><trkpt lat="44.2592085" lon="9.9544719"><ele>141.0</ele><time>2026-04-08T06:55:13.957Z</time></trkpt><trkpt lat="44.2593243" lon="9.9543599"><ele>141.0</ele><time>2026-04-08T06:55:14.957Z</time></trkpt><trkpt lat="44.2594429" lon="9.9542688"><ele>141.0</ele><time>2026-04-08T06:55:15.957Z</time></trkpt><trkpt lat="44.259557" lon="9.9541884"><ele>141.0</ele><time>2026-04-08T06:55:16.957Z</time></trkpt><trkpt lat="44.2596706" lon="9.9541231"><ele>141.0</ele><time>2026-04-08T06:55:17.958Z</time></trkpt><trkpt lat="44.259793" lon="9.9540805"><ele>138.5</ele><time>2026-04-08T06:55:18.958Z</time></trkpt><trkpt lat="44.2599249" lon="9.9540628"><ele>136.0</ele><time>2026-04-08T06:55:19.958Z</time></trkpt><trkpt lat="44.2600468" lon="9.9540616"><ele>133.5</ele><time>2026-04-08T06:55:20.957Z</time></trkpt><trkpt lat="44.260164" lon="9.9540572"><ele>131.0</ele><time>2026-04-08T06:55:21.957Z</time></trkpt><trkpt lat="44.2602818" lon="9.9540313"><ele>131.0</ele><time>2026-04-08T06:55:22.958Z</time></trkpt><trkpt lat="44.2603967" lon="9.9539656"><ele>131.0</ele><time>2026-04-08T06:55:23.957Z</time></trkpt><trkpt lat="44.2605089" lon="9.9538743"><ele>131.0</ele><time>2026-04-08T06:55:24.958Z</time></trkpt><trkpt lat="44.2606201" lon="9.9537933"><ele>131.0</ele><time>2026-04-08T06:55:25.957Z</time></trkpt><trkpt lat="44.2607317" lon="9.9537209"><ele>132.75</ele><time>2026-04-08T06:55:26.957Z</time></trkpt><trkpt lat="44.2608448" lon="9.9536692"><ele>134.5</ele><time>2026-04-08T06:55:27.957Z</time></trkpt><trkpt lat="44.2609693" lon="9.9536413"><ele>136.25</ele><time>2026-04-08T06:55:28.958Z</time></trkpt><trkpt lat="44.2610955" lon="9.9536188"><ele>138.0</ele><time>2026-04-08T06:55:29.957Z</time></trkpt><trkpt lat="44.2612217" lon="9.9535996"><ele>138.0</ele><time>2026-04-08T06:55:30.957Z</time></trkpt><trkpt lat="44.2613463" lon="9.9535884"><ele>138.0</ele><time>2026-04-08T06:55:31.957Z</time></trkpt><trkpt lat="44.2614701" lon="9.9535872"><ele>138.0</ele><time>2026-04-08T06:55:32.958Z</time></trkpt><trkpt lat="44.2615938" lon="9.9535928"><ele>138.0</ele><time>2026-04-08T06:55:33.957Z</time></trkpt><trkpt lat="44.2617179" lon="9.9536067"><ele>139.0</ele><time>2026-04-08T06:55:34.958Z</time></trkpt><trkpt lat="44.2618455" lon="9.9536444"><ele>140.0</ele><time>2026-04-08T06:55:35.958Z</time></trkpt><trkpt lat="44.2619786" lon="9.9537106"><ele>141.0</ele><time>2026-04-08T06:55:36.957Z</time></trkpt><trkpt lat="44.2621144" lon="9.9537995"><ele>142.0</ele><time>2026-04-08T06:55:37.957Z</time></trkpt><trkpt lat="44.2622498" lon="9.9538858"><ele>138.75</ele><time>2026-04-08T06:55:38.957Z</time></trkpt><trkpt lat="44.262382" lon="9.9539651"><ele>135.5</ele><time>2026-04-08T06:55:39.957Z</time></trkpt><trkpt lat="44.2625152" lon="9.9540429"><ele>132.25</ele><time>2026-04-08T06:55:40.957Z</time></trkpt><trkpt lat="44.2626457" lon="9.9541215"><ele>129.0</ele><time>2026-04-08T06:55:41.957Z</time></trkpt><trkpt lat="44.2627741" lon="9.9542024"><ele>132.25</ele><time>2026-04-08T06:55:42.958Z</time></trkpt><trkpt lat="44.2629034" lon="9.9542787"><ele>135.5</ele><time>2026-04-08T06:55:43.957Z</time></trkpt><trkpt lat="44.2630331" lon="9.9543537"><ele>138.75</ele><time>2026-04-08T06:55:44.957Z</time></trkpt><trkpt lat="44.2631671" lon="9.9544262"><ele>142.0</ele><time>2026-04-08T06:55:45.957Z</time></trkpt><trkpt lat="44.2632983" lon="9.954491"><ele>142.0</ele><time>2026-04-08T06:55:46.957Z</time></trkpt><trkpt lat="44.2634321" lon="9.9545423"><ele>142.0</ele><time>2026-04-08T06:55:47.958Z</time></trkpt><trkpt lat="44.2635676" lon="9.9545786"><ele>142.0</ele><time>2026-04-08T06:55:48.957Z</time></trkpt><trkpt lat="44.2637028" lon="9.954618"><ele>142.0</ele><time>2026-04-08T06:55:49.957Z</time></trkpt><trkpt lat="44.2638384" lon="9.954671"><ele>141.0</ele><time>2026-04-08T06:55:50.957Z</time></trkpt><trkpt lat="44.263966" lon="9.9547424"><ele>140.0</ele><time>2026-04-08T06:55:51.957Z</time></trkpt><trkpt lat="44.2640905" lon="9.9548144"><ele>139.0</ele><time>2026-04-08T06:55:52.957Z</time></trkpt><trkpt lat="44.2642205" lon="9.9548527"><ele>138.0</ele><time>2026-04-08T06:55:53.958Z</time></trkpt><trkpt lat="44.2643494" lon="9.9548593"><ele>138.0</ele><time>2026-04-08T06:55:54.958Z</time></trkpt><trkpt lat="44.2644777" lon="9.9548243"><ele>138.0</ele><time>2026-04-08T06:55:55.958Z</time></trkpt><trkpt lat="44.2646001" lon="9.9547563"><ele>138.0</ele><time>2026-04-08T06:55:56.957Z</time></trkpt><trkpt lat="44.2647247" lon="9.9546833"><ele>138.0</ele><time>2026-04-08T06:55:57.957Z</time></trkpt><trkpt lat="44.2648518" lon="9.9546173"><ele>140.0</ele><time>2026-04-08T06:55:58.957Z</time></trkpt><trkpt lat="44.2649766" lon="9.954552"><ele>142.0</ele><time>2026-04-08T06:55:59.958Z</time></trkpt><trkpt lat="44.2651024" lon="9.9544926"><ele>144.0</ele><time>2026-04-08T06:56:00.958Z</time></trkpt><trkpt lat="44.2652306" lon="9.9544486"><ele>146.0</ele><time>2026-04-08T06:56:01.957Z</time></trkpt><trkpt lat="44.2653674" lon="9.9544281"><ele>146.0</ele><time>2026-04-08T06:56:02.957Z</time></trkpt><trkpt lat="44.2655066" lon="9.9544223"><ele>146.0</ele><time>2026-04-08T06:56:03.958Z</time></trkpt><trkpt lat="44.2656443" lon="9.9544247"><ele>146.0</ele><time>2026-04-08T06:56:04.957Z</time></trkpt><trkpt lat="44.2657799" lon="9.9544334"><ele>146.0</ele><time>2026-04-08T06:56:05.958Z</time></trkpt><trkpt lat="44.2659091" lon="9.9544338"><ele>149.75</ele><time>2026-04-08T06:56:06.957Z</time></trkpt><trkpt lat="44.2660365" lon="9.9544183"><ele>153.5</ele><time>2026-04-08T06:56:07.957Z</time></trkpt><trkpt lat="44.2661625" lon="9.9543948"><ele>157.25</ele><time>2026-04-08T06:56:08.957Z</time></trkpt><trkpt lat="44.266287" lon="9.9543594"><ele>161.0</ele><time>2026-04-08T06:56:09.957Z</time></trkpt><trkpt lat="44.2664086" lon="9.954312"><ele>162.0</ele><time>2026-04-08T06:56:10.957Z</time></trkpt><trkpt lat="44.2665263" lon="9.9542594"><ele>163.0</ele><time>2026-04-08T06:56:11.958Z</time></trkpt><trkpt lat="44.2666483" lon="9.9542218"><ele>164.0</ele><time>2026-04-08T06:56:12.957Z</time></trkpt><trkpt lat="44.2667743" lon="9.9541956"><ele>165.0</ele><time>2026-04-08T06:56:13.957Z</time></trkpt><trkpt lat="44.2668999" lon="9.9541611"><ele>156.5</ele><time>2026-04-08T06:56:14.957Z</time></trkpt><trkpt lat="44.2670112" lon="9.954077"><ele>148.0</ele><time>2026-04-08T06:56:15.957Z</time></trkpt><trkpt lat="44.2671065" lon="9.9539621"><ele>139.5</ele><time>2026-04-08T06:56:16.957Z</time></trkpt><trkpt lat="44.267189" lon="9.9538396"><ele>131.0</ele><time>2026-04-08T06:56:17.957Z</time></trkpt><trkpt lat="44.2672707" lon="9.9537148"><ele>130.75</ele><time>2026-04-08T06:56:18.957Z</time></trkpt><trkpt lat="44.2673545" lon="9.9535849"><ele>130.5</ele><time>2026-04-08T06:56:19.957Z</time></trkpt><trkpt lat="44.2674399" lon="9.9534603"><ele>130.25</ele><time>2026-04-08T06:56:20.957Z</time></trkpt><trkpt lat="44.2675256" lon="9.9533426"><ele>130.0</ele><time>2026-04-08T06:56:21.957Z</time></trkpt><trkpt lat="44.2676091" lon="9.9532351"><ele>130.0</ele><time>2026-04-08T06:56:22.957Z</time></trkpt><trkpt lat="44.2676902" lon="9.9531423"><ele>130.0</ele><time>2026-04-08T06:56:23.958Z</time></trkpt><trkpt lat="44.267785" lon="9.9530762"><ele>130.0</ele><time>2026-04-08T06:56:24.957Z</time></trkpt><trkpt lat="44.2678887" lon="9.9530324"><ele>130.0</ele><time>2026-04-08T06:56:25.958Z</time></trkpt><trkpt lat="44.2679994" lon="9.9530233"><ele>130.0</ele><time>2026-04-08T06:56:26.958Z</time></trkpt><trkpt lat="44.2681126" lon="9.9530464"><ele>132.0</ele><time>2026-04-08T06:56:27.958Z</time></trkpt><trkpt lat="44.2682255" lon="9.9531011"><ele>134.0</ele><time>2026-04-08T06:56:28.958Z</time></trkpt><trkpt lat="44.2683391" lon="9.9531787"><ele>136.0</ele><time>2026-04-08T06:56:29.957Z</time></trkpt><trkpt lat="44.268453" lon="9.9532538"><ele>138.0</ele><time>2026-04-08T06:56:30.957Z</time></trkpt><trkpt lat="44.2685573" lon="9.9533229"><ele>137.0</ele><time>2026-04-08T06:56:31.957Z</time></trkpt><trkpt lat="44.2686543" lon="9.9533908"><ele>136.0</ele><time>2026-04-08T06:56:32.958Z</time></trkpt><trkpt lat="44.2687525" lon="9.9534384"><ele>135.0</ele><time>2026-04-08T06:56:33.957Z</time></trkpt><trkpt lat="44.2688612" lon="9.9534522"><ele>134.0</ele><time>2026-04-08T06:56:34.957Z</time></trkpt><trkpt lat="44.2689769" lon="9.9534123"><ele>133.0</ele><time>2026-04-08T06:56:35.958Z</time></trkpt><trkpt lat="44.2690912" lon="9.9533269"><ele>133.0</ele><time>2026-04-08T06:56:36.958Z</time></trkpt><trkpt lat="44.2691981" lon="9.9532359"><ele>133.0</ele><time>2026-04-08T06:56:37.957Z</time></trkpt><trkpt lat="44.2693035" lon="9.9531457"><ele>133.0</ele><time>2026-04-08T06:56:38.957Z</time></trkpt><trkpt lat="44.2694083" lon="9.9530585"><ele>133.0</ele><time>2026-04-08T06:56:39.957Z</time></trkpt><trkpt lat="44.2695159" lon="9.9529782"><ele>133.0</ele><time>2026-04-08T06:56:40.957Z</time></trkpt><trkpt lat="44.2696361" lon="9.9529159"><ele>133.0</ele><time>2026-04-08T06:56:41.957Z</time></trkpt><trkpt lat="44.2697628" lon="9.9528828"><ele>133.0</ele><time>2026-04-08T06:56:42.957Z</time></trkpt><trkpt lat="44.2698917" lon="9.9528816"><ele>133.0</ele><time>2026-04-08T06:56:43.958Z</time></trkpt><trkpt lat="44.2700201" lon="9.9529129"><ele>134.75</ele><time>2026-04-08T06:56:44.958Z</time></trkpt><trkpt lat="44.2701412" lon="9.9529746"><ele>136.5</ele><time>2026-04-08T06:56:45.957Z</time></trkpt><trkpt lat="44.2702521" lon="9.9530608"><ele>138.25</ele><time>2026-04-08T06:56:46.958Z</time></trkpt><trkpt lat="44.2703553" lon="9.9531577"><ele>140.0</ele><time>2026-04-08T06:56:47.957Z</time></trkpt><trkpt lat="44.2704617" lon="9.9532584"><ele>140.0</ele><time>2026-04-08T06:56:48.957Z</time></trkpt><trkpt lat="44.2705659" lon="9.9533608"><ele>140.0</ele><time>2026-04-08T06:56:49.957Z</time></trkpt><trkpt lat="44.2706733" lon="9.953459"><ele>140.0</ele><time>2026-04-08T06:56:50.958Z</time></trkpt><trkpt lat="44.2707871" lon="9.9535501"><ele>140.0</ele><time>2026-04-08T06:56:51.957Z</time></trkpt><trkpt lat="44.2709029" lon="9.9536301"><ele>146.0</ele><time>2026-04-08T06:56:52.957Z</time></trkpt><trkpt lat="44.2710217" lon="9.9536969"><ele>152.0</ele><time>2026-04-08T06:56:53.957Z</time></trkpt><trkpt lat="44.2711392" lon="9.9537515"><ele>158.0</ele><time>2026-04-08T06:56:54.957Z</time></trkpt><trkpt lat="44.2712513" lon="9.9538062"><ele>164.0</ele><time>2026-04-08T06:56:55.957Z</time></trkpt><trkpt lat="44.2713567" lon="9.9538571"><ele>159.2</ele><time>2026-04-08T06:56:56.957Z</time></trkpt><trkpt lat="44.2714566" lon="9.9539071"><ele>154.39999999999998</ele><time>2026-04-08T06:56:57.957Z</time></trkpt><trkpt lat="44.2715531" lon="9.95396"><ele>149.6</ele><time>2026-04-08T06:56:58.957Z</time></trkpt><trkpt lat="44.2716382" lon="9.9540369"><ele>144.8</ele><time>2026-04-08T06:56:59.958Z</time></trkpt><trkpt lat="44.2717103" lon="9.9541416"><ele>140.0</ele><time>2026-04-08T06:57:00.957Z</time></trkpt><trkpt lat="44.2717569" lon="9.9542719"><ele>140.0</ele><time>2026-04-08T06:57:01.958Z</time></trkpt><trkpt lat="44.271791" lon="9.9544051"><ele>140.0</ele><time>2026-04-08T06:57:02.958Z</time></trkpt><trkpt lat="44.2718492" lon="9.9545261"><ele>140.0</ele><time>2026-04-08T06:57:03.958Z</time></trkpt><trkpt lat="44.271937" lon="9.9546348"><ele>140.0</ele><time>2026-04-08T06:57:04.958Z</time></trkpt><trkpt lat="44.2720484" lon="9.9547136"><ele>140.0</ele><time>2026-04-08T06:57:05.958Z</time></trkpt><trkpt lat="44.2721755" lon="9.9547591"><ele>139.5</ele><time>2026-04-08T06:57:06.958Z</time></trkpt><trkpt lat="44.2723105" lon="9.9547816"><ele>139.0</ele><time>2026-04-08T06:57:07.957Z</time></trkpt><trkpt lat="44.2724473" lon="9.9548052"><ele>138.5</ele><time>2026-04-08T06:57:08.957Z</time></trkpt><trkpt lat="44.2725826" lon="9.9548252"><ele>138.0</ele><time>2026-04-08T06:57:09.957Z</time></trkpt><trkpt lat="44.2727198" lon="9.9548441"><ele>138.0</ele><time>2026-04-08T06:57:10.957Z</time></trkpt><trkpt lat="44.2728585" lon="9.9548665"><ele>138.0</ele><time>2026-04-08T06:57:11.957Z</time></trkpt><trkpt lat="44.2730002" lon="9.9548887"><ele>138.0</ele><time>2026-04-08T06:57:12.958Z</time></trkpt><trkpt lat="44.2731447" lon="9.9549084"><ele>138.0</ele><time>2026-04-08T06:57:13.957Z</time></trkpt><trkpt lat="44.2732899" lon="9.9549282"><ele>137.5</ele><time>2026-04-08T06:57:14.958Z</time></trkpt><trkpt lat="44.2734357" lon="9.9549472"><ele>137.0</ele><time>2026-04-08T06:57:15.957Z</time></trkpt><trkpt lat="44.2735803" lon="9.9549574"><ele>136.5</ele><time>2026-04-08T06:57:16.957Z</time></trkpt><trkpt lat="44.2737226" lon="9.9549461"><ele>136.0</ele><time>2026-04-08T06:57:17.958Z</time></trkpt><trkpt lat="44.2738596" lon="9.9549145"><ele>135.25</ele><time>2026-04-08T06:57:18.957Z</time></trkpt><trkpt lat="44.2739971" lon="9.95488"><ele>134.5</ele><time>2026-04-08T06:57:19.957Z</time></trkpt><trkpt lat="44.2741328" lon="9.9548439"><ele>133.75</ele><time>2026-04-08T06:57:20.957Z</time></trkpt><trkpt lat="44.2742682" lon="9.9548062"><ele>133.0</ele><time>2026-04-08T06:57:21.957Z</time></trkpt><trkpt lat="44.2743991" lon="9.9547567"><ele>133.0</ele><time>2026-04-08T06:57:22.957Z</time></trkpt><trkpt lat="44.27453" lon="9.9546904"><ele>133.0</ele><time>2026-04-08T06:57:23.957Z</time></trkpt><trkpt lat="44.2746601" lon="9.9546119"><ele>133.0</ele><time>2026-04-08T06:57:24.958Z</time></trkpt><trkpt lat="44.2747937" lon="9.954536"><ele>133.0</ele><time>2026-04-08T06:57:25.958Z</time></trkpt><trkpt lat="44.2749277" lon="9.9544571"><ele>136.0</ele><time>2026-04-08T06:57:26.958Z</time></trkpt><trkpt lat="44.2750629" lon="9.9543813"><ele>139.0</ele><time>2026-04-08T06:57:27.957Z</time></trkpt><trkpt lat="44.2751981" lon="9.9543033"><ele>142.0</ele><time>2026-04-08T06:57:28.957Z</time></trkpt><trkpt lat="44.2753332" lon="9.9542213"><ele>145.0</ele><time>2026-04-08T06:57:29.957Z</time></trkpt><trkpt lat="44.2754701" lon="9.9541404"><ele>141.25</ele><time>2026-04-08T06:57:30.957Z</time></trkpt><trkpt lat="44.2756066" lon="9.9540584"><ele>137.5</ele><time>2026-04-08T06:57:31.957Z</time></trkpt><trkpt lat="44.2757444" lon="9.9539764"><ele>133.75</ele><time>2026-04-08T06:57:32.957Z</time></trkpt><trkpt lat="44.2758824" lon="9.9538914"><ele>130.0</ele><time>2026-04-08T06:57:33.957Z</time></trkpt><trkpt lat="44.2760207" lon="9.9538076"><ele>130.0</ele><time>2026-04-08T06:57:34.957Z</time></trkpt><trkpt lat="44.2761576" lon="9.9537225"><ele>130.0</ele><time>2026-04-08T06:57:35.957Z</time></trkpt><trkpt lat="44.2762958" lon="9.9536368"><ele>130.0</ele><time>2026-04-08T06:57:36.957Z</time></trkpt><trkpt lat="44.2764372" lon="9.953552"><ele>125.66666666666667</ele><time>2026-04-08T06:57:37.958Z</time></trkpt><trkpt lat="44.2765788" lon="9.9534672"><ele>121.33333333333334</ele><time>2026-04-08T06:57:38.957Z</time></trkpt><trkpt lat="44.2767206" lon="9.9533847"><ele>117.0</ele><time>2026-04-08T06:57:39.957Z</time></trkpt><trkpt lat="44.2768635" lon="9.9533045"><ele>117.0</ele><time>2026-04-08T06:57:40.958Z</time></trkpt><trkpt lat="44.2770045" lon="9.9532238"><ele>117.0</ele><time>2026-04-08T06:57:41.958Z</time></trkpt><trkpt lat="44.2771464" lon="9.953141"><ele>117.0</ele><time>2026-04-08T06:57:42.958Z</time></trkpt><trkpt lat="44.2772879" lon="9.9530567"><ele>120.66666666666666</ele><time>2026-04-08T06:57:43.957Z</time></trkpt><trkpt lat="44.2774305" lon="9.9529728"><ele>124.33333333333333</ele><time>2026-04-08T06:57:44.958Z</time></trkpt><trkpt lat="44.2775704" lon="9.9528867"><ele>128.0</ele><time>2026-04-08T06:57:45.957Z</time></trkpt><trkpt lat="44.2777098" lon="9.9528001"><ele>128.0</ele><time>2026-04-08T06:57:46.957Z</time></trkpt><trkpt lat="44.2778493" lon="9.952716"><ele>128.0</ele><time>2026-04-08T06:57:47.957Z</time></trkpt><trkpt lat="44.2779894" lon="9.9526322"><ele>128.0</ele><time>2026-04-08T06:57:48.957Z</time></trkpt><trkpt lat="44.2781288" lon="9.9525513"><ele>126.66666666666666</ele><time>2026-04-08T06:57:49.958Z</time></trkpt><trkpt lat="44.2782658" lon="9.9524694"><ele>125.33333333333334</ele><time>2026-04-08T06:57:50.957Z</time></trkpt><trkpt lat="44.2784075" lon="9.9523843"><ele>124.0</ele><time>2026-04-08T06:57:51.957Z</time></trkpt><trkpt lat="44.2785578" lon="9.9523095"><ele>124.0</ele><time>2026-04-08T06:57:52.957Z</time></trkpt><trkpt lat="44.2787114" lon="9.9522439"><ele>124.0</ele><time>2026-04-08T06:57:53.958Z</time></trkpt><trkpt lat="44.2788604" lon="9.9521718"><ele>124.0</ele><time>2026-04-08T06:57:54.957Z</time></trkpt><trkpt lat="44.2790121" lon="9.9520873"><ele>126.0</ele><time>2026-04-08T06:57:55.957Z</time></trkpt><trkpt lat="44.2791625" lon="9.9520012"><ele>128.0</ele><time>2026-04-08T06:57:56.957Z</time></trkpt><trkpt lat="44.2793157" lon="9.9519191"><ele>130.0</ele><time>2026-04-08T06:57:57.958Z</time></trkpt><trkpt lat="44.2794672" lon="9.9518455"><ele>130.0</ele><time>2026-04-08T06:57:58.958Z</time></trkpt><trkpt lat="44.2796237" lon="9.9517797"><ele>130.0</ele><time>2026-04-08T06:57:59.957Z</time></trkpt><trkpt lat="44.2797838" lon="9.951748"><ele>130.0</ele><time>2026-04-08T06:58:00.957Z</time></trkpt><trkpt lat="44.2799457" lon="9.9517311"><ele>125.33333333333334</ele><time>2026-04-08T06:58:01.958Z</time></trkpt><trkpt lat="44.2801026" lon="9.9516848"><ele>120.66666666666666</ele><time>2026-04-08T06:58:02.957Z</time></trkpt><trkpt lat="44.2802503" lon="9.9516052"><ele>116.0</ele><time>2026-04-08T06:58:03.958Z</time></trkpt><trkpt lat="44.2803928" lon="9.9515188"><ele>116.0</ele><time>2026-04-08T06:58:04.957Z</time></trkpt><trkpt lat="44.2805337" lon="9.9514321"><ele>116.0</ele><time>2026-04-08T06:58:05.957Z</time></trkpt><trkpt lat="44.2806747" lon="9.9513439"><ele>116.0</ele><time>2026-04-08T06:58:06.957Z</time></trkpt><trkpt lat="44.2808123" lon="9.9512546"><ele>117.66666666666666</ele><time>2026-04-08T06:58:07.957Z</time></trkpt><trkpt lat="44.2809486" lon="9.9511673"><ele>119.33333333333334</ele><time>2026-04-08T06:58:08.958Z</time></trkpt><trkpt lat="44.2810862" lon="9.9510822"><ele>121.0</ele><time>2026-04-08T06:58:09.957Z</time></trkpt><trkpt lat="44.2812246" lon="9.9510034"><ele>121.0</ele><time>2026-04-08T06:58:10.958Z</time></trkpt><trkpt lat="44.2813656" lon="9.9509335"><ele>121.0</ele><time>2026-04-08T06:58:11.958Z</time></trkpt><trkpt lat="44.2815104" lon="9.9508794"><ele>121.0</ele><time>2026-04-08T06:58:12.957Z</time></trkpt><trkpt lat="44.2816587" lon="9.9508415"><ele>119.66666666666667</ele><time>2026-04-08T06:58:13.958Z</time></trkpt><trkpt lat="44.2818094" lon="9.950822"><ele>118.33333333333334</ele><time>2026-04-08T06:58:14.957Z</time></trkpt><trkpt lat="44.2819625" lon="9.9508098"><ele>117.0</ele><time>2026-04-08T06:58:15.957Z</time></trkpt><trkpt lat="44.2821157" lon="9.9507965"><ele>117.0</ele><time>2026-04-08T06:58:16.957Z</time></trkpt><trkpt lat="44.2822677" lon="9.9507695"><ele>117.0</ele><time>2026-04-08T06:58:17.957Z</time></trkpt><trkpt lat="44.2824179" lon="9.9507197"><ele>117.0</ele><time>2026-04-08T06:58:18.958Z</time></trkpt><trkpt lat="44.2825621" lon="9.9506479"><ele>117.0</ele><time>2026-04-08T06:58:19.957Z</time></trkpt><trkpt lat="44.2826985" lon="9.9505508"><ele>117.0</ele><time>2026-04-08T06:58:20.957Z</time></trkpt><trkpt lat="44.2828257" lon="9.9504291"><ele>117.0</ele><time>2026-04-08T06:58:21.957Z</time></trkpt><trkpt lat="44.282946" lon="9.9502956"><ele>117.0</ele><time>2026-04-08T06:58:22.957Z</time></trkpt><trkpt lat="44.2830672" lon="9.9501666"><ele>117.0</ele><time>2026-04-08T06:58:23.958Z</time></trkpt><trkpt lat="44.2831888" lon="9.9500462"><ele>117.0</ele><time>2026-04-08T06:58:24.958Z</time></trkpt><trkpt lat="44.2833058" lon="9.9499346"><ele>117.0</ele><time>2026-04-08T06:58:25.957Z</time></trkpt><trkpt lat="44.2834182" lon="9.9498472"><ele>118.0</ele><time>2026-04-08T06:58:26.957Z</time></trkpt><trkpt lat="44.2835227" lon="9.9497769"><ele>118.99999999999999</ele><time>2026-04-08T06:58:27.957Z</time></trkpt><trkpt lat="44.2836185" lon="9.9497255"><ele>119.99999999999999</ele><time>2026-04-08T06:58:28.957Z</time></trkpt><trkpt lat="44.2837065" lon="9.9496828"><ele>121.0</ele><time>2026-04-08T06:58:29.958Z</time></trkpt><trkpt lat="44.283792" lon="9.9496422"><ele>122.0</ele><time>2026-04-08T06:58:30.957Z</time></trkpt><trkpt lat="44.2838766" lon="9.9496049"><ele>123.16666666666666</ele><time>2026-04-08T06:58:31.957Z</time></trkpt><trkpt lat="44.2839616" lon="9.9495705"><ele>124.33333333333333</ele><time>2026-04-08T06:58:32.957Z</time></trkpt><trkpt lat="44.2840465" lon="9.9495373"><ele>125.5</ele><time>2026-04-08T06:58:33.958Z</time></trkpt><trkpt lat="44.2841316" lon="9.9495076"><ele>126.66666666666666</ele><time>2026-04-08T06:58:34.957Z</time></trkpt><trkpt lat="44.2842152" lon="9.9494766"><ele>127.83333333333333</ele><time>2026-04-08T06:58:35.957Z</time></trkpt><trkpt lat="44.2843" lon="9.9494431"><ele>129.0</ele><time>2026-04-08T06:58:36.958Z</time></trkpt><trkpt lat="44.2843847" lon="9.9494074"><ele>129.0</ele><time>2026-04-08T06:58:37.958Z</time></trkpt><trkpt lat="44.2844697" lon="9.9493752"><ele>129.0</ele><time>2026-04-08T06:58:38.958Z</time></trkpt><trkpt lat="44.2845534" lon="9.9493411"><ele>129.0</ele><time>2026-04-08T06:58:39.957Z</time></trkpt><trkpt lat="44.2846387" lon="9.9493095"><ele>129.0</ele><time>2026-04-08T06:58:40.958Z</time></trkpt><trkpt lat="44.2847268" lon="9.9492755"><ele>129.0</ele><time>2026-04-08T06:58:41.958Z</time></trkpt><trkpt lat="44.2848144" lon="9.9492387"><ele>129.0</ele><time>2026-04-08T06:58:42.957Z</time></trkpt><trkpt lat="44.2848975" lon="9.9492037"><ele>129.16666666666666</ele><time>2026-04-08T06:58:43.957Z</time></trkpt><trkpt lat="44.2849833" lon="9.9491685"><ele>129.33333333333334</ele><time>2026-04-08T06:58:44.957Z</time></trkpt><trkpt lat="44.2850685" lon="9.9491364"><ele>129.5</ele><time>2026-04-08T06:58:45.957Z</time></trkpt><trkpt lat="44.2851547" lon="9.9491038"><ele>129.66666666666669</ele><time>2026-04-08T06:58:46.957Z</time></trkpt><trkpt lat="44.2852388" lon="9.949072"><ele>129.83333333333334</ele><time>2026-04-08T06:58:47.957Z</time></trkpt><trkpt lat="44.2853226" lon="9.9490403"><ele>130.0</ele><time>2026-04-08T06:58:48.957Z</time></trkpt><trkpt lat="44.2854061" lon="9.9490065"><ele>130.0</ele><time>2026-04-08T06:58:49.957Z</time></trkpt><trkpt lat="44.2854898" lon="9.9489747"><ele>130.0</ele><time>2026-04-08T06:58:50.958Z</time></trkpt><trkpt lat="44.2855751" lon="9.9489417"><ele>130.0</ele><time>2026-04-08T06:58:51.957Z</time></trkpt><trkpt lat="44.285664" lon="9.9489117"><ele>130.0</ele><time>2026-04-08T06:58:52.957Z</time></trkpt><trkpt lat="44.2857546" lon="9.9488815"><ele>130.0</ele><time>2026-04-08T06:58:53.957Z</time></trkpt><trkpt lat="44.2858481" lon="9.9488507"><ele>131.4</ele><time>2026-04-08T06:58:54.957Z</time></trkpt><trkpt lat="44.2859483" lon="9.9488207"><ele>132.8</ele><time>2026-04-08T06:58:55.957Z</time></trkpt><trkpt lat="44.2860522" lon="9.9487898"><ele>134.2</ele><time>2026-04-08T06:58:56.958Z</time></trkpt><trkpt lat="44.2861626" lon="9.9487628"><ele>135.6</ele><time>2026-04-08T06:58:57.957Z</time></trkpt><trkpt lat="44.2862783" lon="9.9487333"><ele>137.0</ele><time>2026-04-08T06:58:58.957Z</time></trkpt><trkpt lat="44.2864061" lon="9.9487007"><ele>140.66666666666666</ele><time>2026-04-08T06:58:59.958Z</time></trkpt><trkpt lat="44.2865461" lon="9.9486708"><ele>144.33333333333334</ele><time>2026-04-08T06:59:00.958Z</time></trkpt><trkpt lat="44.2867006" lon="9.9486339"><ele>148.0</ele><time>2026-04-08T06:59:01.957Z</time></trkpt><trkpt lat="44.2868656" lon="9.9485971"><ele>148.0</ele><time>2026-04-08T06:59:02.957Z</time></trkpt><trkpt lat="44.2870317" lon="9.9485623"><ele>148.0</ele><time>2026-04-08T06:59:03.958Z</time></trkpt><trkpt lat="44.2871969" lon="9.9485253"><ele>148.0</ele><time>2026-04-08T06:59:04.957Z</time></trkpt><trkpt lat="44.2873666" lon="9.9484901"><ele>151.66666666666669</ele><time>2026-04-08T06:59:05.957Z</time></trkpt><trkpt lat="44.2875355" lon="9.9484563"><ele>155.33333333333334</ele><time>2026-04-08T06:59:06.957Z</time></trkpt><trkpt lat="44.2876989" lon="9.9484052"><ele>159.0</ele><time>2026-04-08T06:59:07.957Z</time></trkpt><trkpt lat="44.2878604" lon="9.9483344"><ele>152.33333333333334</ele><time>2026-04-08T06:59:08.958Z</time></trkpt><trkpt lat="44.288021" lon="9.9482647"><ele>145.66666666666669</ele><time>2026-04-08T06:59:09.957Z</time></trkpt><trkpt lat="44.2881708" lon="9.9482032"><ele>139.0</ele><time>2026-04-08T06:59:10.957Z</time></trkpt><trkpt lat="44.288315" lon="9.9481448"><ele>139.0</ele><time>2026-04-08T06:59:11.958Z</time></trkpt><trkpt lat="44.2884499" lon="9.9480897"><ele>139.0</ele><time>2026-04-08T06:59:12.958Z</time></trkpt><trkpt lat="44.2885783" lon="9.9480427"><ele>139.0</ele><time>2026-04-08T06:59:13.957Z</time></trkpt><trkpt lat="44.2886998" lon="9.9480065"><ele>139.0</ele><time>2026-04-08T06:59:14.957Z</time></trkpt><trkpt lat="44.2888176" lon="9.9479951"><ele>137.0</ele><time>2026-04-08T06:59:15.958Z</time></trkpt><trkpt lat="44.2889304" lon="9.9480112"><ele>135.0</ele><time>2026-04-08T06:59:16.958Z</time></trkpt><trkpt lat="44.2890346" lon="9.9480588"><ele>133.0</ele><time>2026-04-08T06:59:17.957Z</time></trkpt><trkpt lat="44.2891303" lon="9.9481293"><ele>131.0</ele><time>2026-04-08T06:59:18.958Z</time></trkpt><trkpt lat="44.2892202" lon="9.9482148"><ele>129.0</ele><time>2026-04-08T06:59:19.957Z</time></trkpt><trkpt lat="44.2892973" lon="9.9483248"><ele>130.0</ele><time>2026-04-08T06:59:20.957Z</time></trkpt><trkpt lat="44.2893629" lon="9.9484459"><ele>131.0</ele><time>2026-04-08T06:59:21.957Z</time></trkpt><trkpt lat="44.2894199" lon="9.9485736"><ele>132.0</ele><time>2026-04-08T06:59:22.957Z</time></trkpt><trkpt lat="44.2894754" lon="9.9487024"><ele>133.0</ele><time>2026-04-08T06:59:23.958Z</time></trkpt><trkpt lat="44.2895311" lon="9.9488306"><ele>134.0</ele><time>2026-04-08T06:59:24.958Z</time></trkpt><trkpt lat="44.2895863" lon="9.9489519"><ele>134.0</ele><time>2026-04-08T06:59:25.957Z</time></trkpt><trkpt lat="44.2896414" lon="9.9490753"><ele>134.0</ele><time>2026-04-08T06:59:26.957Z</time></trkpt><trkpt lat="44.2896956" lon="9.9491948"><ele>134.0</ele><time>2026-04-08T06:59:27.957Z</time></trkpt><trkpt lat="44.2897485" lon="9.9493151"><ele>134.0</ele><time>2026-04-08T06:59:28.957Z</time></trkpt><trkpt lat="44.2897973" lon="9.9494379"><ele>134.0</ele><time>2026-04-08T06:59:29.958Z</time></trkpt><trkpt lat="44.2898474" lon="9.9495568"><ele>133.8</ele><time>2026-04-08T06:59:30.958Z</time></trkpt><trkpt lat="44.2898986" lon="9.9496781"><ele>133.60000000000002</ele><time>2026-04-08T06:59:31.958Z</time></trkpt><trkpt lat="44.2899488" lon="9.9497999"><ele>133.4</ele><time>2026-04-08T06:59:32.957Z</time></trkpt><trkpt lat="44.2900007" lon="9.9499224"><ele>133.20000000000002</ele><time>2026-04-08T06:59:33.958Z</time></trkpt><trkpt lat="44.2900519" lon="9.9500441"><ele>133.0</ele><time>2026-04-08T06:59:34.958Z</time></trkpt><trkpt lat="44.2901056" lon="9.9501678"><ele>133.6</ele><time>2026-04-08T06:59:35.957Z</time></trkpt><trkpt lat="44.2901602" lon="9.9502904"><ele>134.20000000000002</ele><time>2026-04-08T06:59:36.957Z</time></trkpt><trkpt lat="44.2902159" lon="9.9504142"><ele>134.8</ele><time>2026-04-08T06:59:37.957Z</time></trkpt><trkpt lat="44.2902705" lon="9.9505354"><ele>135.4</ele><time>2026-04-08T06:59:38.958Z</time></trkpt><trkpt lat="44.2903226" lon="9.9506603"><ele>136.0</ele><time>2026-04-08T06:59:39.957Z</time></trkpt><trkpt lat="44.2903751" lon="9.9507862"><ele>135.4</ele><time>2026-04-08T06:59:40.957Z</time></trkpt><trkpt lat="44.2904273" lon="9.9509161"><ele>134.8</ele><time>2026-04-08T06:59:41.957Z</time></trkpt><trkpt lat="44.2904807" lon="9.9510458"><ele>134.20000000000002</ele><time>2026-04-08T06:59:42.957Z</time></trkpt><trkpt lat="44.2905332" lon="9.9511774"><ele>133.6</ele><time>2026-04-08T06:59:43.957Z</time></trkpt><trkpt lat="44.2905982" lon="9.9513108"><ele>133.0</ele><time>2026-04-08T06:59:44.957Z</time></trkpt><trkpt lat="44.2906908" lon="9.9514342"><ele>133.0</ele><time>2026-04-08T06:59:45.958Z</time></trkpt><trkpt lat="44.2908077" lon="9.9515371"><ele>133.0</ele><time>2026-04-08T06:59:46.957Z</time></trkpt><trkpt lat="44.2909398" lon="9.9516034"><ele>133.0</ele><time>2026-04-08T06:59:47.957Z</time></trkpt><trkpt lat="44.2910773" lon="9.9516458"><ele>133.0</ele><time>2026-04-08T06:59:48.957Z</time></trkpt><trkpt lat="44.2912179" lon="9.95167"><ele>133.0</ele><time>2026-04-08T06:59:49.957Z</time></trkpt><trkpt lat="44.291354" lon="9.9516969"><ele>133.0</ele><time>2026-04-08T06:59:50.958Z</time></trkpt><trkpt lat="44.2914886" lon="9.9517239"><ele>133.0</ele><time>2026-04-08T06:59:51.957Z</time></trkpt><trkpt lat="44.2916186" lon="9.951754"><ele>133.0</ele><time>2026-04-08T06:59:52.958Z</time></trkpt><trkpt lat="44.2917412" lon="9.9517832"><ele>131.8</ele><time>2026-04-08T06:59:53.958Z</time></trkpt><trkpt lat="44.2918614" lon="9.9518067"><ele>130.60000000000002</ele><time>2026-04-08T06:59:54.957Z</time></trkpt><trkpt lat="44.2919771" lon="9.9518188"><ele>129.39999999999998</ele><time>2026-04-08T06:59:55.958Z</time></trkpt><trkpt lat="44.2920861" lon="9.9518184"><ele>128.2</ele><time>2026-04-08T06:59:56.957Z</time></trkpt><trkpt lat="44.2921853" lon="9.9518104"><ele>127.0</ele><time>2026-04-08T06:59:57.958Z</time></trkpt><trkpt lat="44.292278" lon="9.9517942"><ele>127.0</ele><time>2026-04-08T06:59:58.958Z</time></trkpt><trkpt lat="44.2923645" lon="9.9517719"><ele>126.99999999999999</ele><time>2026-04-08T06:59:59.958Z</time></trkpt><trkpt lat="44.2924425" lon="9.9517515"><ele>126.99999999999999</ele><time>2026-04-08T07:00:00.958Z</time></trkpt><trkpt lat="44.2925089" lon="9.9517284"><ele>127.0</ele><time>2026-04-08T07:00:01.958Z</time></trkpt><trkpt lat="44.2926266" lon="9.9516949"><ele>127.0</ele><time>2026-04-08T07:00:03.957Z</time></trkpt><trkpt lat="44.2927233" lon="9.95166"><ele>127.16666666666667</ele><time>2026-04-08T07:00:05.958Z</time></trkpt><trkpt lat="44.2928162" lon="9.9516318"><ele>127.33333333333334</ele><time>2026-04-08T07:00:07.957Z</time></trkpt><trkpt lat="44.2929303" lon="9.9515863"><ele>127.5</ele><time>2026-04-08T07:00:09.957Z</time></trkpt><trkpt lat="44.2929989" lon="9.9515602"><ele>127.66666666666666</ele><time>2026-04-08T07:00:10.957Z</time></trkpt><trkpt lat="44.293076" lon="9.9515319"><ele>127.83333333333333</ele><time>2026-04-08T07:00:11.957Z</time></trkpt><trkpt lat="44.2931573" lon="9.9515031"><ele>128.0</ele><time>2026-04-08T07:00:12.958Z</time></trkpt><trkpt lat="44.2932423" lon="9.9514704"><ele>128.16666666666666</ele><time>2026-04-08T07:00:13.958Z</time></trkpt><trkpt lat="44.2933302" lon="9.9514407"><ele>128.33333333333331</ele><time>2026-04-08T07:00:14.957Z</time></trkpt><trkpt lat="44.2934158" lon="9.9514117"><ele>128.5</ele><time>2026-04-08T07:00:15.958Z</time></trkpt><trkpt lat="44.2935019" lon="9.9513833"><ele>128.66666666666666</ele><time>2026-04-08T07:00:16.957Z</time></trkpt><trkpt lat="44.2935902" lon="9.9513552"><ele>128.83333333333334</ele><time>2026-04-08T07:00:17.957Z</time></trkpt><trkpt lat="44.2936785" lon="9.951322"><ele>129.0</ele><time>2026-04-08T07:00:18.957Z</time></trkpt><trkpt lat="44.2937711" lon="9.9512887"><ele>129.0</ele><time>2026-04-08T07:00:19.957Z</time></trkpt><trkpt lat="44.2938704" lon="9.9512545"><ele>129.0</ele><time>2026-04-08T07:00:20.957Z</time></trkpt><trkpt lat="44.2939728" lon="9.9512199"><ele>129.0</ele><time>2026-04-08T07:00:21.957Z</time></trkpt><trkpt lat="44.2940766" lon="9.9511805"><ele>129.0</ele><time>2026-04-08T07:00:22.958Z</time></trkpt><trkpt lat="44.2941784" lon="9.9511418"><ele>129.0</ele><time>2026-04-08T07:00:23.958Z</time></trkpt><trkpt lat="44.294279" lon="9.9511052"><ele>129.66666666666666</ele><time>2026-04-08T07:00:24.957Z</time></trkpt><trkpt lat="44.2943764" lon="9.9510713"><ele>130.33333333333334</ele><time>2026-04-08T07:00:25.957Z</time></trkpt><trkpt lat="44.2944725" lon="9.9510376"><ele>131.0</ele><time>2026-04-08T07:00:26.957Z</time></trkpt><trkpt lat="44.294556" lon="9.9510083"><ele>131.66666666666669</ele><time>2026-04-08T07:00:27.957Z</time></trkpt><trkpt lat="44.29463" lon="9.9509826"><ele>132.33333333333334</ele><time>2026-04-08T07:00:28.958Z</time></trkpt><trkpt lat="44.2946936" lon="9.9509575"><ele>133.0</ele><time>2026-04-08T07:00:29.957Z</time></trkpt><trkpt lat="44.2948032" lon="9.9509186"><ele>133.33333333333334</ele><time>2026-04-08T07:00:31.957Z</time></trkpt><trkpt lat="44.2948821" lon="9.9508927"><ele>133.66666666666669</ele><time>2026-04-08T07:00:33.957Z</time></trkpt><trkpt lat="44.2949477" lon="9.9508644"><ele>134.0</ele><time>2026-04-08T07:00:37.958Z</time></trkpt><trkpt lat="44.2950168" lon="9.9508401"><ele>134.33333333333334</ele><time>2026-04-08T07:00:49.958Z</time></trkpt><trkpt lat="44.2951228" lon="9.9507985"><ele>134.66666666666666</ele><time>2026-04-08T07:00:51.957Z</time></trkpt><trkpt lat="44.2952172" lon="9.9507689"><ele>135.0</ele><time>2026-04-08T07:00:53.957Z</time></trkpt><trkpt lat="44.2953147" lon="9.950736"><ele>135.2</ele><time>2026-04-08T07:00:55.957Z</time></trkpt><trkpt lat="44.2954418" lon="9.9506893"><ele>135.4</ele><time>2026-04-08T07:00:57.957Z</time></trkpt><trkpt lat="44.2955143" lon="9.9506613"><ele>135.6</ele><time>2026-04-08T07:00:58.958Z</time></trkpt><trkpt lat="44.2955942" lon="9.9506297"><ele>135.8</ele><time>2026-04-08T07:00:59.957Z</time></trkpt><trkpt lat="44.2956775" lon="9.9505976"><ele>136.0</ele><time>2026-04-08T07:01:00.957Z</time></trkpt><trkpt lat="44.2957635" lon="9.9505513"><ele>136.8</ele><time>2026-04-08T07:01:01.957Z</time></trkpt><trkpt lat="44.2958443" lon="9.9504948"><ele>137.6</ele><time>2026-04-08T07:01:02.957Z</time></trkpt><trkpt lat="44.2959213" lon="9.9504303"><ele>138.4</ele><time>2026-04-08T07:01:03.957Z</time></trkpt><trkpt lat="44.2959998" lon="9.9503525"><ele>139.2</ele><time>2026-04-08T07:01:04.957Z</time></trkpt><trkpt lat="44.2960731" lon="9.9502701"><ele>140.0</ele><time>2026-04-08T07:01:05.957Z</time></trkpt><trkpt lat="44.2961491" lon="9.9501811"><ele>140.0</ele><time>2026-04-08T07:01:06.957Z</time></trkpt><trkpt lat="44.2962282" lon="9.950091"><ele>140.0</ele><time>2026-04-08T07:01:07.957Z</time></trkpt><trkpt lat="44.2963097" lon="9.9499985"><ele>140.0</ele><time>2026-04-08T07:01:08.957Z</time></trkpt><trkpt lat="44.2963986" lon="9.9499076"><ele>140.0</ele><time>2026-04-08T07:01:09.957Z</time></trkpt><trkpt lat="44.2964904" lon="9.949822"><ele>140.0</ele><time>2026-04-08T07:01:10.957Z</time></trkpt><trkpt lat="44.2965876" lon="9.9497458"><ele>140.4</ele><time>2026-04-08T07:01:11.957Z</time></trkpt><trkpt lat="44.296689" lon="9.9496836"><ele>140.8</ele><time>2026-04-08T07:01:12.957Z</time></trkpt><trkpt lat="44.2967929" lon="9.9496323"><ele>141.2</ele><time>2026-04-08T07:01:13.958Z</time></trkpt><trkpt lat="44.296898" lon="9.9495822"><ele>141.6</ele><time>2026-04-08T07:01:14.957Z</time></trkpt><trkpt lat="44.2970056" lon="9.9495333"><ele>142.0</ele><time>2026-04-08T07:01:15.957Z</time></trkpt><trkpt lat="44.2971122" lon="9.9494855"><ele>142.0</ele><time>2026-04-08T07:01:16.957Z</time></trkpt><trkpt lat="44.2972192" lon="9.9494362"><ele>142.0</ele><time>2026-04-08T07:01:17.958Z</time></trkpt><trkpt lat="44.2973245" lon="9.9493855"><ele>142.0</ele><time>2026-04-08T07:01:18.957Z</time></trkpt><trkpt lat="44.2974307" lon="9.9493352"><ele>142.0</ele><time>2026-04-08T07:01:19.957Z</time></trkpt><trkpt lat="44.2975387" lon="9.9492826"><ele>142.25</ele><time>2026-04-08T07:01:20.957Z</time></trkpt><trkpt lat="44.2976486" lon="9.9492318"><ele>142.5</ele><time>2026-04-08T07:01:21.958Z</time></trkpt><trkpt lat="44.2977577" lon="9.9491857"><ele>142.75</ele><time>2026-04-08T07:01:22.957Z</time></trkpt><trkpt lat="44.2978671" lon="9.9491458"><ele>143.0</ele><time>2026-04-08T07:01:23.957Z</time></trkpt><trkpt lat="44.2979781" lon="9.9491193"><ele>143.0</ele><time>2026-04-08T07:01:24.957Z</time></trkpt><trkpt lat="44.2980869" lon="9.9491017"><ele>143.0</ele><time>2026-04-08T07:01:25.957Z</time></trkpt><trkpt lat="44.298195" lon="9.9490865"><ele>143.0</ele><time>2026-04-08T07:01:26.957Z</time></trkpt><trkpt lat="44.2983017" lon="9.9490746"><ele>143.0</ele><time>2026-04-08T07:01:27.957Z</time></trkpt><trkpt lat="44.2984085" lon="9.9490645"><ele>143.0</ele><time>2026-04-08T07:01:28.958Z</time></trkpt><trkpt lat="44.2985141" lon="9.9490536"><ele>143.0</ele><time>2026-04-08T07:01:29.957Z</time></trkpt><trkpt lat="44.2986199" lon="9.9490431"><ele>143.0</ele><time>2026-04-08T07:01:30.957Z</time></trkpt><trkpt lat="44.2987264" lon="9.9490351"><ele>143.0</ele><time>2026-04-08T07:01:31.957Z</time></trkpt><trkpt lat="44.2988356" lon="9.9490256"><ele>143.0</ele><time>2026-04-08T07:01:32.957Z</time></trkpt><trkpt lat="44.2989463" lon="9.949017"><ele>143.0</ele><time>2026-04-08T07:01:33.958Z</time></trkpt><trkpt lat="44.2990557" lon="9.9490077"><ele>142.75</ele><time>2026-04-08T07:01:34.958Z</time></trkpt><trkpt lat="44.2991683" lon="9.9489959"><ele>142.5</ele><time>2026-04-08T07:01:35.957Z</time></trkpt><trkpt lat="44.2992824" lon="9.9489881"><ele>142.25</ele><time>2026-04-08T07:01:36.957Z</time></trkpt><trkpt lat="44.2994" lon="9.9489769"><ele>142.0</ele><time>2026-04-08T07:01:37.957Z</time></trkpt><trkpt lat="44.2995157" lon="9.9489623"><ele>142.0</ele><time>2026-04-08T07:01:38.957Z</time></trkpt><trkpt lat="44.2996303" lon="9.9489446"><ele>142.0</ele><time>2026-04-08T07:01:39.957Z</time></trkpt><trkpt lat="44.2997403" lon="9.9489241"><ele>142.0</ele><time>2026-04-08T07:01:40.957Z</time></trkpt><trkpt lat="44.2998501" lon="9.9489014"><ele>142.0</ele><time>2026-04-08T07:01:41.958Z</time></trkpt><trkpt lat="44.2999569" lon="9.9488717"><ele>142.0</ele><time>2026-04-08T07:01:42.957Z</time></trkpt><trkpt lat="44.3000602" lon="9.9488428"><ele>141.79999999999998</ele><time>2026-04-08T07:01:43.957Z</time></trkpt><trkpt lat="44.3001614" lon="9.9488145"><ele>141.6</ele><time>2026-04-08T07:01:44.957Z</time></trkpt><trkpt lat="44.3002624" lon="9.9487829"><ele>141.39999999999998</ele><time>2026-04-08T07:01:45.957Z</time></trkpt><trkpt lat="44.3003641" lon="9.9487485"><ele>141.2</ele><time>2026-04-08T07:01:46.957Z</time></trkpt><trkpt lat="44.3004627" lon="9.9487095"><ele>141.0</ele><time>2026-04-08T07:01:47.957Z</time></trkpt><trkpt lat="44.3005648" lon="9.9486754"><ele>141.2</ele><time>2026-04-08T07:01:48.957Z</time></trkpt><trkpt lat="44.30067" lon="9.9486343"><ele>141.39999999999998</ele><time>2026-04-08T07:01:49.958Z</time></trkpt><trkpt lat="44.300775" lon="9.9485928"><ele>141.6</ele><time>2026-04-08T07:01:50.958Z</time></trkpt><trkpt lat="44.3008834" lon="9.9485552"><ele>141.79999999999998</ele><time>2026-04-08T07:01:51.957Z</time></trkpt><trkpt lat="44.3009913" lon="9.948516"><ele>142.0</ele><time>2026-04-08T07:01:52.958Z</time></trkpt><trkpt lat="44.3010999" lon="9.9484766"><ele>142.0</ele><time>2026-04-08T07:01:53.957Z</time></trkpt><trkpt lat="44.3012102" lon="9.9484336"><ele>142.0</ele><time>2026-04-08T07:01:54.957Z</time></trkpt><trkpt lat="44.3013204" lon="9.9483921"><ele>142.0</ele><time>2026-04-08T07:01:55.958Z</time></trkpt><trkpt lat="44.301431" lon="9.9483484"><ele>142.0</ele><time>2026-04-08T07:01:56.957Z</time></trkpt><trkpt lat="44.3015414" lon="9.9483035"><ele>143.0</ele><time>2026-04-08T07:01:57.958Z</time></trkpt><trkpt lat="44.3016537" lon="9.9482567"><ele>144.0</ele><time>2026-04-08T07:01:58.957Z</time></trkpt><trkpt lat="44.3017665" lon="9.9482092"><ele>145.0</ele><time>2026-04-08T07:01:59.957Z</time></trkpt><trkpt lat="44.3018858" lon="9.948161"><ele>146.0</ele><time>2026-04-08T07:02:00.957Z</time></trkpt><trkpt lat="44.3020126" lon="9.9481099"><ele>146.0</ele><time>2026-04-08T07:02:01.957Z</time></trkpt><trkpt lat="44.3021557" lon="9.9480527"><ele>146.0</ele><time>2026-04-08T07:02:02.957Z</time></trkpt><trkpt lat="44.3023176" lon="9.9479887"><ele>146.0</ele><time>2026-04-08T07:02:03.957Z</time></trkpt><trkpt lat="44.302491" lon="9.9479315"><ele>145.66666666666666</ele><time>2026-04-08T07:02:04.958Z</time></trkpt><trkpt lat="44.3026651" lon="9.9478844"><ele>145.33333333333334</ele><time>2026-04-08T07:02:05.958Z</time></trkpt><trkpt lat="44.3028401" lon="9.9478434"><ele>145.0</ele><time>2026-04-08T07:02:06.958Z</time></trkpt><trkpt lat="44.3030142" lon="9.9477988"><ele>145.33333333333334</ele><time>2026-04-08T07:02:07.957Z</time></trkpt><trkpt lat="44.3031828" lon="9.947754"><ele>145.66666666666666</ele><time>2026-04-08T07:02:08.957Z</time></trkpt><trkpt lat="44.3033478" lon="9.9477124"><ele>146.0</ele><time>2026-04-08T07:02:09.957Z</time></trkpt><trkpt lat="44.3035104" lon="9.9476701"><ele>146.0</ele><time>2026-04-08T07:02:10.957Z</time></trkpt><trkpt lat="44.3036697" lon="9.947629"><ele>146.0</ele><time>2026-04-08T07:02:11.958Z</time></trkpt><trkpt lat="44.3038279" lon="9.947588"><ele>146.0</ele><time>2026-04-08T07:02:12.958Z</time></trkpt><trkpt lat="44.3039827" lon="9.947544"><ele>145.33333333333331</ele><time>2026-04-08T07:02:13.958Z</time></trkpt><trkpt lat="44.304135" lon="9.9475005"><ele>144.66666666666666</ele><time>2026-04-08T07:02:14.958Z</time></trkpt><trkpt lat="44.3042836" lon="9.94746"><ele>144.0</ele><time>2026-04-08T07:02:15.958Z</time></trkpt><trkpt lat="44.3044299" lon="9.9474179"><ele>144.0</ele><time>2026-04-08T07:02:16.958Z</time></trkpt><trkpt lat="44.3045698" lon="9.9473759"><ele>144.0</ele><time>2026-04-08T07:02:17.957Z</time></trkpt><trkpt lat="44.3047048" lon="9.9473367"><ele>144.0</ele><time>2026-04-08T07:02:18.957Z</time></trkpt><trkpt lat="44.3048357" lon="9.9473004"><ele>144.0</ele><time>2026-04-08T07:02:19.957Z</time></trkpt><trkpt lat="44.3049663" lon="9.9472673"><ele>144.5</ele><time>2026-04-08T07:02:20.957Z</time></trkpt><trkpt lat="44.3050953" lon="9.9472295"><ele>145.0</ele><time>2026-04-08T07:02:21.958Z</time></trkpt><trkpt lat="44.3052263" lon="9.9471895"><ele>145.5</ele><time>2026-04-08T07:02:22.957Z</time></trkpt><trkpt lat="44.305359" lon="9.9471438"><ele>146.0</ele><time>2026-04-08T07:02:23.958Z</time></trkpt><trkpt lat="44.3054957" lon="9.9470866"><ele>146.0</ele><time>2026-04-08T07:02:24.957Z</time></trkpt><trkpt lat="44.3056333" lon="9.9470229"><ele>146.0</ele><time>2026-04-08T07:02:25.957Z</time></trkpt><trkpt lat="44.3057695" lon="9.9469461"><ele>146.0</ele><time>2026-04-08T07:02:26.958Z</time></trkpt><trkpt lat="44.3059042" lon="9.9468666"><ele>146.0</ele><time>2026-04-08T07:02:27.957Z</time></trkpt><trkpt lat="44.3060384" lon="9.9467897"><ele>146.0</ele><time>2026-04-08T07:02:28.958Z</time></trkpt><trkpt lat="44.3061725" lon="9.9467121"><ele>146.0</ele><time>2026-04-08T07:02:29.958Z</time></trkpt><trkpt lat="44.3063075" lon="9.9466417"><ele>146.0</ele><time>2026-04-08T07:02:30.957Z</time></trkpt><trkpt lat="44.3064491" lon="9.9465907"><ele>146.0</ele><time>2026-04-08T07:02:31.957Z</time></trkpt><trkpt lat="44.306596" lon="9.9465749"><ele>145.0</ele><time>2026-04-08T07:02:32.957Z</time></trkpt><trkpt lat="44.3067453" lon="9.9465878"><ele>144.0</ele><time>2026-04-08T07:02:33.957Z</time></trkpt><trkpt lat="44.3068997" lon="9.9466023"><ele>143.0</ele><time>2026-04-08T07:02:34.957Z</time></trkpt><trkpt lat="44.3070587" lon="9.9466152"><ele>143.0</ele><time>2026-04-08T07:02:35.958Z</time></trkpt><trkpt lat="44.3072166" lon="9.9466317"><ele>143.0</ele><time>2026-04-08T07:02:36.958Z</time></trkpt><trkpt lat="44.3073754" lon="9.9466491"><ele>143.0</ele><time>2026-04-08T07:02:37.957Z</time></trkpt><trkpt lat="44.3075344" lon="9.9466577"><ele>143.0</ele><time>2026-04-08T07:02:38.958Z</time></trkpt><trkpt lat="44.3076957" lon="9.9466623"><ele>143.0</ele><time>2026-04-08T07:02:39.957Z</time></trkpt><trkpt lat="44.3078587" lon="9.9466604"><ele>143.0</ele><time>2026-04-08T07:02:40.957Z</time></trkpt><trkpt lat="44.3080207" lon="9.9466483"><ele>143.0</ele><time>2026-04-08T07:02:41.958Z</time></trkpt><trkpt lat="44.3081822" lon="9.9466225"><ele>143.0</ele><time>2026-04-08T07:02:42.958Z</time></trkpt><trkpt lat="44.3083447" lon="9.9465882"><ele>143.0</ele><time>2026-04-08T07:02:43.957Z</time></trkpt><trkpt lat="44.3085129" lon="9.9465515"><ele>143.0</ele><time>2026-04-08T07:02:44.957Z</time></trkpt><trkpt lat="44.3086914" lon="9.9465186"><ele>143.0</ele><time>2026-04-08T07:02:45.957Z</time></trkpt><trkpt lat="44.3088729" lon="9.9464989"><ele>143.0</ele><time>2026-04-08T07:02:46.958Z</time></trkpt><trkpt lat="44.3090514" lon="9.946491"><ele>142.66666666666666</ele><time>2026-04-08T07:02:47.957Z</time></trkpt><trkpt lat="44.3092285" lon="9.9464966"><ele>142.33333333333334</ele><time>2026-04-08T07:02:48.957Z</time></trkpt><trkpt lat="44.3094048" lon="9.9465094"><ele>142.0</ele><time>2026-04-08T07:02:49.957Z</time></trkpt><trkpt lat="44.3095784" lon="9.9465293"><ele>142.0</ele><time>2026-04-08T07:02:50.957Z</time></trkpt><trkpt lat="44.3097507" lon="9.9465569"><ele>142.0</ele><time>2026-04-08T07:02:51.957Z</time></trkpt><trkpt lat="44.3099213" lon="9.9465892"><ele>142.0</ele><time>2026-04-08T07:02:52.957Z</time></trkpt><trkpt lat="44.310089" lon="9.9466269"><ele>142.0</ele><time>2026-04-08T07:02:53.957Z</time></trkpt><trkpt lat="44.3102548" lon="9.9466631"><ele>142.0</ele><time>2026-04-08T07:02:54.957Z</time></trkpt><trkpt lat="44.3104197" lon="9.9466949"><ele>142.0</ele><time>2026-04-08T07:02:55.958Z</time></trkpt><trkpt lat="44.3105816" lon="9.9467217"><ele>142.66666666666669</ele><time>2026-04-08T07:02:56.957Z</time></trkpt><trkpt lat="44.3107426" lon="9.9467483"><ele>143.33333333333334</ele><time>2026-04-08T07:02:57.958Z</time></trkpt><trkpt lat="44.3109035" lon="9.9467567"><ele>144.0</ele><time>2026-04-08T07:02:58.958Z</time></trkpt><trkpt lat="44.3110617" lon="9.9467382"><ele>142.66666666666666</ele><time>2026-04-08T07:02:59.957Z</time></trkpt><trkpt lat="44.3112141" lon="9.9466747"><ele>141.33333333333331</ele><time>2026-04-08T07:03:00.957Z</time></trkpt><trkpt lat="44.3113577" lon="9.9465648"><ele>140.0</ele><time>2026-04-08T07:03:01.957Z</time></trkpt><trkpt lat="44.3115054" lon="9.9464218"><ele>140.0</ele><time>2026-04-08T07:03:02.958Z</time></trkpt><trkpt lat="44.3116784" lon="9.9462806"><ele>140.0</ele><time>2026-04-08T07:03:03.957Z</time></trkpt><trkpt lat="44.3118662" lon="9.9461555"><ele>140.0</ele><time>2026-04-08T07:03:04.957Z</time></trkpt><trkpt lat="44.312057" lon="9.9460511"><ele>139.66666666666666</ele><time>2026-04-08T07:03:05.957Z</time></trkpt><trkpt lat="44.3122441" lon="9.9459662"><ele>139.33333333333334</ele><time>2026-04-08T07:03:06.957Z</time></trkpt><trkpt lat="44.312425" lon="9.945892"><ele>139.0</ele><time>2026-04-08T07:03:07.957Z</time></trkpt><trkpt lat="44.3125984" lon="9.9458158"><ele>139.0</ele><time>2026-04-08T07:03:08.958Z</time></trkpt><trkpt lat="44.3127682" lon="9.945738"><ele>139.0</ele><time>2026-04-08T07:03:09.957Z</time></trkpt><trkpt lat="44.3129363" lon="9.9456631"><ele>139.0</ele><time>2026-04-08T07:03:10.957Z</time></trkpt><trkpt lat="44.3131025" lon="9.9455891"><ele>139.33333333333334</ele><time>2026-04-08T07:03:11.957Z</time></trkpt><trkpt lat="44.3132659" lon="9.9455171"><ele>139.66666666666666</ele><time>2026-04-08T07:03:12.957Z</time></trkpt><trkpt lat="44.3134269" lon="9.9454462"><ele>140.0</ele><time>2026-04-08T07:03:13.957Z</time></trkpt><trkpt lat="44.3135848" lon="9.9453776"><ele>140.0</ele><time>2026-04-08T07:03:14.957Z</time></trkpt><trkpt lat="44.3137389" lon="9.9453107"><ele>140.0</ele><time>2026-04-08T07:03:15.957Z</time></trkpt><trkpt lat="44.31389" lon="9.9452468"><ele>140.0</ele><time>2026-04-08T07:03:16.958Z</time></trkpt><trkpt lat="44.31404" lon="9.9451828"><ele>139.66666666666666</ele><time>2026-04-08T07:03:17.957Z</time></trkpt><trkpt lat="44.3141873" lon="9.9451218"><ele>139.33333333333334</ele><time>2026-04-08T07:03:18.957Z</time></trkpt><trkpt lat="44.3143333" lon="9.9450601"><ele>139.0</ele><time>2026-04-08T07:03:19.958Z</time></trkpt><trkpt lat="44.3144798" lon="9.9449951"><ele>138.33333333333334</ele><time>2026-04-08T07:03:20.957Z</time></trkpt><trkpt lat="44.3146257" lon="9.9449323"><ele>137.66666666666666</ele><time>2026-04-08T07:03:21.957Z</time></trkpt><trkpt lat="44.3147715" lon="9.9448698"><ele>137.0</ele><time>2026-04-08T07:03:22.957Z</time></trkpt><trkpt lat="44.314915" lon="9.9448052"><ele>137.0</ele><time>2026-04-08T07:03:23.957Z</time></trkpt><trkpt lat="44.315059" lon="9.9447429"><ele>137.0</ele><time>2026-04-08T07:03:24.957Z</time></trkpt><trkpt lat="44.3152038" lon="9.9446764"><ele>137.0</ele><time>2026-04-08T07:03:25.957Z</time></trkpt><trkpt lat="44.3153445" lon="9.9446114"><ele>137.0</ele><time>2026-04-08T07:03:26.957Z</time></trkpt><trkpt lat="44.3154868" lon="9.9445478"><ele>137.0</ele><time>2026-04-08T07:03:27.957Z</time></trkpt><trkpt lat="44.3156285" lon="9.9444833"><ele>137.0</ele><time>2026-04-08T07:03:28.957Z</time></trkpt><trkpt lat="44.3157709" lon="9.9444226"><ele>137.0</ele><time>2026-04-08T07:03:29.958Z</time></trkpt><trkpt lat="44.315913" lon="9.9443656"><ele>137.25</ele><time>2026-04-08T07:03:30.957Z</time></trkpt><trkpt lat="44.3160519" lon="9.9443035"><ele>137.5</ele><time>2026-04-08T07:03:31.957Z</time></trkpt><trkpt lat="44.3161913" lon="9.9442421"><ele>137.75</ele><time>2026-04-08T07:03:32.957Z</time></trkpt><trkpt lat="44.3163301" lon="9.9441787"><ele>138.0</ele><time>2026-04-08T07:03:33.958Z</time></trkpt><trkpt lat="44.3164651" lon="9.9441161"><ele>138.0</ele><time>2026-04-08T07:03:34.957Z</time></trkpt><trkpt lat="44.3166038" lon="9.9440536"><ele>138.0</ele><time>2026-04-08T07:03:35.957Z</time></trkpt><trkpt lat="44.3167382" lon="9.9439933"><ele>138.0</ele><time>2026-04-08T07:03:36.958Z</time></trkpt><trkpt lat="44.316873" lon="9.9439307"><ele>138.0</ele><time>2026-04-08T07:03:37.958Z</time></trkpt><trkpt lat="44.317011" lon="9.9438671"><ele>138.0</ele><time>2026-04-08T07:03:38.957Z</time></trkpt><trkpt lat="44.317146" lon="9.9438035"><ele>138.0</ele><time>2026-04-08T07:03:39.957Z</time></trkpt><trkpt lat="44.3172833" lon="9.9437421"><ele>138.0</ele><time>2026-04-08T07:03:40.957Z</time></trkpt><trkpt lat="44.3174196" lon="9.9436805"><ele>138.0</ele><time>2026-04-08T07:03:41.957Z</time></trkpt><trkpt lat="44.3175566" lon="9.9436158"><ele>138.75</ele><time>2026-04-08T07:03:42.957Z</time></trkpt><trkpt lat="44.3176952" lon="9.9435489"><ele>139.5</ele><time>2026-04-08T07:03:43.957Z</time></trkpt><trkpt lat="44.3178329" lon="9.9434801"><ele>140.25</ele><time>2026-04-08T07:03:44.957Z</time></trkpt><trkpt lat="44.3179713" lon="9.9434163"><ele>141.0</ele><time>2026-04-08T07:03:45.958Z</time></trkpt><trkpt lat="44.3181106" lon="9.943348"><ele>141.0</ele><time>2026-04-08T07:03:46.957Z</time></trkpt><trkpt lat="44.3182474" lon="9.9432818"><ele>141.0</ele><time>2026-04-08T07:03:47.958Z</time></trkpt><trkpt lat="44.3183846" lon="9.9432158"><ele>141.0</ele><time>2026-04-08T07:03:48.957Z</time></trkpt><trkpt lat="44.3185231" lon="9.9431535"><ele>141.0</ele><time>2026-04-08T07:03:49.957Z</time></trkpt><trkpt lat="44.3186618" lon="9.9430912"><ele>141.0</ele><time>2026-04-08T07:03:50.957Z</time></trkpt><trkpt lat="44.3187999" lon="9.9430252"><ele>141.0</ele><time>2026-04-08T07:03:51.958Z</time></trkpt><trkpt lat="44.3189368" lon="9.9429582"><ele>141.0</ele><time>2026-04-08T07:03:52.957Z</time></trkpt><trkpt lat="44.3190776" lon="9.9428937"><ele>141.0</ele><time>2026-04-08T07:03:53.957Z</time></trkpt><trkpt lat="44.3192169" lon="9.9428276"><ele>141.25</ele><time>2026-04-08T07:03:54.957Z</time></trkpt><trkpt lat="44.3193556" lon="9.9427605"><ele>141.5</ele><time>2026-04-08T07:03:55.957Z</time></trkpt><trkpt lat="44.3194919" lon="9.9426978"><ele>141.75</ele><time>2026-04-08T07:03:56.957Z</time></trkpt><trkpt lat="44.3196267" lon="9.9426356"><ele>142.0</ele><time>2026-04-08T07:03:57.957Z</time></trkpt><trkpt lat="44.3197587" lon="9.9425711"><ele>142.0</ele><time>2026-04-08T07:03:58.958Z</time></trkpt><trkpt lat="44.3198939" lon="9.942507"><ele>142.0</ele><time>2026-04-08T07:03:59.957Z</time></trkpt><trkpt lat="44.3200294" lon="9.9424439"><ele>142.0</ele><time>2026-04-08T07:04:00.957Z</time></trkpt><trkpt lat="44.3201654" lon="9.9423759"><ele>142.0</ele><time>2026-04-08T07:04:01.957Z</time></trkpt><trkpt lat="44.3203028" lon="9.9423091"><ele>142.0</ele><time>2026-04-08T07:04:02.957Z</time></trkpt><trkpt lat="44.320439" lon="9.9422441"><ele>142.0</ele><time>2026-04-08T07:04:03.957Z</time></trkpt><trkpt lat="44.3205753" lon="9.9421793"><ele>142.0</ele><time>2026-04-08T07:04:04.957Z</time></trkpt><trkpt lat="44.3207118" lon="9.9421144"><ele>142.0</ele><time>2026-04-08T07:04:05.957Z</time></trkpt><trkpt lat="44.3208456" lon="9.9420566"><ele>142.0</ele><time>2026-04-08T07:04:06.957Z</time></trkpt><trkpt lat="44.3209802" lon="9.9419959"><ele>142.0</ele><time>2026-04-08T07:04:07.957Z</time></trkpt><trkpt lat="44.321112" lon="9.9419347"><ele>142.0</ele><time>2026-04-08T07:04:08.957Z</time></trkpt><trkpt lat="44.3212415" lon="9.9418755"><ele>142.0</ele><time>2026-04-08T07:04:09.957Z</time></trkpt><trkpt lat="44.3213706" lon="9.9418171"><ele>142.25</ele><time>2026-04-08T07:04:10.957Z</time></trkpt><trkpt lat="44.3214999" lon="9.9417589"><ele>142.5</ele><time>2026-04-08T07:04:11.958Z</time></trkpt><trkpt lat="44.3216266" lon="9.9416993"><ele>142.75</ele><time>2026-04-08T07:04:12.957Z</time></trkpt><trkpt lat="44.3217528" lon="9.9416382"><ele>143.0</ele><time>2026-04-08T07:04:13.957Z</time></trkpt><trkpt lat="44.3218786" lon="9.9415783"><ele>143.0</ele><time>2026-04-08T07:04:14.957Z</time></trkpt><trkpt lat="44.3220026" lon="9.9415179"><ele>143.0</ele><time>2026-04-08T07:04:15.957Z</time></trkpt><trkpt lat="44.3221279" lon="9.9414592"><ele>143.0</ele><time>2026-04-08T07:04:16.957Z</time></trkpt><trkpt lat="44.3222548" lon="9.9414008"><ele>143.0</ele><time>2026-04-08T07:04:17.957Z</time></trkpt><trkpt lat="44.3223855" lon="9.9413412"><ele>143.25</ele><time>2026-04-08T07:04:18.958Z</time></trkpt><trkpt lat="44.3225168" lon="9.941281"><ele>143.5</ele><time>2026-04-08T07:04:19.957Z</time></trkpt><trkpt lat="44.3226484" lon="9.9412181"><ele>143.75</ele><time>2026-04-08T07:04:20.958Z</time></trkpt><trkpt lat="44.3227782" lon="9.9411569"><ele>144.0</ele><time>2026-04-08T07:04:21.957Z</time></trkpt><trkpt lat="44.322909" lon="9.9410943"><ele>144.0</ele><time>2026-04-08T07:04:22.957Z</time></trkpt><trkpt lat="44.3230354" lon="9.9410351"><ele>144.0</ele><time>2026-04-08T07:04:23.957Z</time></trkpt><trkpt lat="44.3231632" lon="9.9409707"><ele>144.0</ele><time>2026-04-08T07:04:24.957Z</time></trkpt><trkpt lat="44.3232891" lon="9.9409114"><ele>144.0</ele><time>2026-04-08T07:04:25.958Z</time></trkpt><trkpt lat="44.3234123" lon="9.9408569"><ele>144.5</ele><time>2026-04-08T07:04:26.957Z</time></trkpt><trkpt lat="44.3235337" lon="9.9407967"><ele>145.0</ele><time>2026-04-08T07:04:27.957Z</time></trkpt><trkpt lat="44.3236533" lon="9.9407391"><ele>145.5</ele><time>2026-04-08T07:04:28.957Z</time></trkpt><trkpt lat="44.3237711" lon="9.9406825"><ele>146.0</ele><time>2026-04-08T07:04:29.957Z</time></trkpt><trkpt lat="44.3238895" lon="9.9406267"><ele>146.0</ele><time>2026-04-08T07:04:30.957Z</time></trkpt><trkpt lat="44.3240117" lon="9.9405724"><ele>146.0</ele><time>2026-04-08T07:04:31.957Z</time></trkpt><trkpt lat="44.3241362" lon="9.9405124"><ele>146.0</ele><time>2026-04-08T07:04:32.957Z</time></trkpt><trkpt lat="44.3242629" lon="9.9404497"><ele>146.0</ele><time>2026-04-08T07:04:33.957Z</time></trkpt><trkpt lat="44.3243907" lon="9.9403834"><ele>146.0</ele><time>2026-04-08T07:04:34.957Z</time></trkpt><trkpt lat="44.3245175" lon="9.9403212"><ele>146.0</ele><time>2026-04-08T07:04:35.957Z</time></trkpt><trkpt lat="44.3246447" lon="9.9402645"><ele>146.0</ele><time>2026-04-08T07:04:36.957Z</time></trkpt><trkpt lat="44.324772" lon="9.9402081"><ele>146.0</ele><time>2026-04-08T07:04:37.957Z</time></trkpt><trkpt lat="44.3248946" lon="9.9401536"><ele>146.0</ele><time>2026-04-08T07:04:38.957Z</time></trkpt><trkpt lat="44.3250145" lon="9.9401009"><ele>146.0</ele><time>2026-04-08T07:04:39.957Z</time></trkpt><trkpt lat="44.3251304" lon="9.9400412"><ele>146.0</ele><time>2026-04-08T07:04:40.957Z</time></trkpt><trkpt lat="44.3252416" lon="9.9399798"><ele>146.0</ele><time>2026-04-08T07:04:41.957Z</time></trkpt><trkpt lat="44.3253535" lon="9.9399166"><ele>146.0</ele><time>2026-04-08T07:04:42.958Z</time></trkpt><trkpt lat="44.3254663" lon="9.9398546"><ele>146.0</ele><time>2026-04-08T07:04:43.958Z</time></trkpt><trkpt lat="44.3255773" lon="9.9397911"><ele>146.0</ele><time>2026-04-08T07:04:44.957Z</time></trkpt><trkpt lat="44.3256854" lon="9.9397269"><ele>146.0</ele><time>2026-04-08T07:04:45.957Z</time></trkpt><trkpt lat="44.3257928" lon="9.9396671"><ele>148.0</ele><time>2026-04-08T07:04:46.958Z</time></trkpt><trkpt lat="44.3258993" lon="9.9396061"><ele>150.0</ele><time>2026-04-08T07:04:47.957Z</time></trkpt><trkpt lat="44.3260086" lon="9.9395433"><ele>152.0</ele><time>2026-04-08T07:04:48.957Z</time></trkpt><trkpt lat="44.3261168" lon="9.9394828"><ele>154.0</ele><time>2026-04-08T07:04:49.958Z</time></trkpt><trkpt lat="44.3262254" lon="9.9394207"><ele>154.0</ele><time>2026-04-08T07:04:50.957Z</time></trkpt><trkpt lat="44.3263375" lon="9.9393552"><ele>154.0</ele><time>2026-04-08T07:04:51.957Z</time></trkpt><trkpt lat="44.3264506" lon="9.9392927"><ele>154.0</ele><time>2026-04-08T07:04:52.957Z</time></trkpt><trkpt lat="44.3265616" lon="9.9392296"><ele>154.0</ele><time>2026-04-08T07:04:53.957Z</time></trkpt><trkpt lat="44.3266751" lon="9.9391644"><ele>153.25</ele><time>2026-04-08T07:04:54.958Z</time></trkpt><trkpt lat="44.3267878" lon="9.9391034"><ele>152.5</ele><time>2026-04-08T07:04:55.957Z</time></trkpt><trkpt lat="44.3268991" lon="9.9390393"><ele>151.75</ele><time>2026-04-08T07:04:56.957Z</time></trkpt><trkpt lat="44.3270085" lon="9.938975"><ele>151.0</ele><time>2026-04-08T07:04:57.958Z</time></trkpt><trkpt lat="44.3271199" lon="9.9389099"><ele>151.0</ele><time>2026-04-08T07:04:58.958Z</time></trkpt><trkpt lat="44.3272272" lon="9.9388387"><ele>151.0</ele><time>2026-04-08T07:04:59.957Z</time></trkpt><trkpt lat="44.3273313" lon="9.938764"><ele>151.0</ele><time>2026-04-08T07:05:00.958Z</time></trkpt><trkpt lat="44.3274276" lon="9.9386721"><ele>151.0</ele><time>2026-04-08T07:05:01.958Z</time></trkpt><trkpt lat="44.3275155" lon="9.9385613"><ele>151.25</ele><time>2026-04-08T07:05:02.958Z</time></trkpt><trkpt lat="44.3275944" lon="9.9384404"><ele>151.5</ele><time>2026-04-08T07:05:03.957Z</time></trkpt><trkpt lat="44.3276686" lon="9.9383134"><ele>151.75</ele><time>2026-04-08T07:05:04.957Z</time></trkpt><trkpt lat="44.3277379" lon="9.9381876"><ele>152.0</ele><time>2026-04-08T07:05:05.957Z</time></trkpt><trkpt lat="44.3278086" lon="9.9380663"><ele>152.0</ele><time>2026-04-08T07:05:06.957Z</time></trkpt><trkpt lat="44.3278774" lon="9.9379452"><ele>152.0</ele><time>2026-04-08T07:05:07.957Z</time></trkpt><trkpt lat="44.3279432" lon="9.9378249"><ele>152.0</ele><time>2026-04-08T07:05:08.957Z</time></trkpt><trkpt lat="44.328007" lon="9.9377071"><ele>152.0</ele><time>2026-04-08T07:05:09.958Z</time></trkpt><trkpt lat="44.3280734" lon="9.9375925"><ele>152.0</ele><time>2026-04-08T07:05:10.957Z</time></trkpt><trkpt lat="44.3281415" lon="9.9374784"><ele>152.4</ele><time>2026-04-08T07:05:11.958Z</time></trkpt><trkpt lat="44.3282082" lon="9.9373638"><ele>152.79999999999998</ele><time>2026-04-08T07:05:12.957Z</time></trkpt><trkpt lat="44.3282743" lon="9.937244"><ele>153.2</ele><time>2026-04-08T07:05:13.958Z</time></trkpt><trkpt lat="44.3283415" lon="9.9371213"><ele>153.6</ele><time>2026-04-08T07:05:14.958Z</time></trkpt><trkpt lat="44.3284104" lon="9.936996"><ele>154.0</ele><time>2026-04-08T07:05:15.957Z</time></trkpt><trkpt lat="44.3284826" lon="9.9368697"><ele>154.0</ele><time>2026-04-08T07:05:16.958Z</time></trkpt><trkpt lat="44.3285521" lon="9.9367447"><ele>154.0</ele><time>2026-04-08T07:05:17.957Z</time></trkpt><trkpt lat="44.3286225" lon="9.9366228"><ele>154.0</ele><time>2026-04-08T07:05:18.957Z</time></trkpt><trkpt lat="44.3286941" lon="9.9364986"><ele>154.0</ele><time>2026-04-08T07:05:19.958Z</time></trkpt><trkpt lat="44.3287643" lon="9.936375"><ele>153.75</ele><time>2026-04-08T07:05:20.957Z</time></trkpt><trkpt lat="44.3288378" lon="9.9362507"><ele>153.5</ele><time>2026-04-08T07:05:21.957Z</time></trkpt><trkpt lat="44.3289075" lon="9.9361268"><ele>153.25</ele><time>2026-04-08T07:05:22.956Z</time></trkpt><trkpt lat="44.3289756" lon="9.9360036"><ele>153.0</ele><time>2026-04-08T07:05:23.957Z</time></trkpt><trkpt lat="44.3290472" lon="9.9358801"><ele>153.0</ele><time>2026-04-08T07:05:24.957Z</time></trkpt><trkpt lat="44.3291083" lon="9.9357625"><ele>153.0</ele><time>2026-04-08T07:05:25.958Z</time></trkpt><trkpt lat="44.3291644" lon="9.9356552"><ele>153.0</ele><time>2026-04-08T07:05:26.958Z</time></trkpt><trkpt lat="44.3292186" lon="9.9355571"><ele>153.0</ele><time>2026-04-08T07:05:27.957Z</time></trkpt><trkpt lat="44.3292742" lon="9.9354567"><ele>153.0</ele><time>2026-04-08T07:05:28.958Z</time></trkpt><trkpt lat="44.3293339" lon="9.9353547"><ele>153.0</ele><time>2026-04-08T07:05:29.957Z</time></trkpt><trkpt lat="44.3293972" lon="9.9352498"><ele>153.0</ele><time>2026-04-08T07:05:30.957Z</time></trkpt><trkpt lat="44.3294622" lon="9.9351396"><ele>153.0</ele><time>2026-04-08T07:05:31.957Z</time></trkpt><trkpt lat="44.3295303" lon="9.9350204"><ele>153.0</ele><time>2026-04-08T07:05:32.957Z</time></trkpt><trkpt lat="44.329602" lon="9.9349"><ele>153.0</ele><time>2026-04-08T07:05:33.957Z</time></trkpt><trkpt lat="44.3296762" lon="9.9347751"><ele>153.75</ele><time>2026-04-08T07:05:34.958Z</time></trkpt><trkpt lat="44.3297497" lon="9.9346387"><ele>154.5</ele><time>2026-04-08T07:05:35.958Z</time></trkpt><trkpt lat="44.3298324" lon="9.9344837"><ele>155.25</ele><time>2026-04-08T07:05:36.957Z</time></trkpt><trkpt lat="44.3299209" lon="9.9343108"><ele>156.0</ele><time>2026-04-08T07:05:37.958Z</time></trkpt><trkpt lat="44.3300077" lon="9.9341297"><ele>156.0</ele><time>2026-04-08T07:05:38.957Z</time></trkpt><trkpt lat="44.3300897" lon="9.9339581"><ele>156.0</ele><time>2026-04-08T07:05:39.957Z</time></trkpt><trkpt lat="44.3301671" lon="9.9337949"><ele>156.0</ele><time>2026-04-08T07:05:40.958Z</time></trkpt><trkpt lat="44.3302429" lon="9.9336392"><ele>156.0</ele><time>2026-04-08T07:05:41.957Z</time></trkpt><trkpt lat="44.3303158" lon="9.9334854"><ele>156.25</ele><time>2026-04-08T07:05:42.958Z</time></trkpt><trkpt lat="44.3303857" lon="9.9333322"><ele>156.5</ele><time>2026-04-08T07:05:43.957Z</time></trkpt><trkpt lat="44.3304565" lon="9.933178"><ele>156.75</ele><time>2026-04-08T07:05:44.958Z</time></trkpt><trkpt lat="44.3305301" lon="9.9330226"><ele>157.0</ele><time>2026-04-08T07:05:45.957Z</time></trkpt><trkpt lat="44.3306018" lon="9.9328666"><ele>157.0</ele><time>2026-04-08T07:05:46.958Z</time></trkpt><trkpt lat="44.3306754" lon="9.9327148"><ele>157.0</ele><time>2026-04-08T07:05:47.957Z</time></trkpt><trkpt lat="44.3307463" lon="9.9325615"><ele>157.0</ele><time>2026-04-08T07:05:48.957Z</time></trkpt><trkpt lat="44.3308177" lon="9.932408"><ele>157.0</ele><time>2026-04-08T07:05:49.957Z</time></trkpt><trkpt lat="44.3308906" lon="9.9322535"><ele>156.5</ele><time>2026-04-08T07:05:50.957Z</time></trkpt><trkpt lat="44.3309632" lon="9.9320997"><ele>156.0</ele><time>2026-04-08T07:05:51.957Z</time></trkpt><trkpt lat="44.331038" lon="9.9319472"><ele>155.5</ele><time>2026-04-08T07:05:52.957Z</time></trkpt><trkpt lat="44.3311093" lon="9.9317949"><ele>155.0</ele><time>2026-04-08T07:05:53.957Z</time></trkpt><trkpt lat="44.3311819" lon="9.9316439"><ele>154.75</ele><time>2026-04-08T07:05:54.957Z</time></trkpt><trkpt lat="44.3312548" lon="9.931495"><ele>154.5</ele><time>2026-04-08T07:05:55.957Z</time></trkpt><trkpt lat="44.3313276" lon="9.9313412"><ele>154.25</ele><time>2026-04-08T07:05:56.957Z</time></trkpt><trkpt lat="44.3313982" lon="9.9311933"><ele>154.0</ele><time>2026-04-08T07:05:57.957Z</time></trkpt><trkpt lat="44.331463" lon="9.9310579"><ele>154.0</ele><time>2026-04-08T07:05:58.957Z</time></trkpt><trkpt lat="44.3315261" lon="9.9309295"><ele>154.0</ele><time>2026-04-08T07:05:59.957Z</time></trkpt><trkpt lat="44.3315835" lon="9.9308103"><ele>154.0</ele><time>2026-04-08T07:06:00.957Z</time></trkpt><trkpt lat="44.331634" lon="9.9307036"><ele>154.0</ele><time>2026-04-08T07:06:01.957Z</time></trkpt><trkpt lat="44.3316771" lon="9.9306076"><ele>154.0</ele><time>2026-04-08T07:06:02.957Z</time></trkpt><trkpt lat="44.3317177" lon="9.9305251"><ele>154.0</ele><time>2026-04-08T07:06:03.957Z</time></trkpt><trkpt lat="44.3317547" lon="9.930451"><ele>154.0</ele><time>2026-04-08T07:06:04.957Z</time></trkpt><trkpt lat="44.3318288" lon="9.9303384"><ele>154.0</ele><time>2026-04-08T07:06:06.958Z</time></trkpt><trkpt lat="44.331935" lon="9.9302813"><ele>154.0</ele><time>2026-04-08T07:06:08.958Z</time></trkpt><trkpt lat="44.332008" lon="9.9301431"><ele>154.0</ele><time>2026-04-08T07:06:10.957Z</time></trkpt><trkpt lat="44.3320267" lon="9.9300519"><ele>154.0</ele><time>2026-04-08T07:06:11.958Z</time></trkpt><trkpt lat="44.3320521" lon="9.9299392"><ele>154.0</ele><time>2026-04-08T07:06:12.957Z</time></trkpt><trkpt lat="44.3320917" lon="9.9297877"><ele>154.0</ele><time>2026-04-08T07:06:13.957Z</time></trkpt><trkpt lat="44.3321459" lon="9.9296436"><ele>154.0</ele><time>2026-04-08T07:06:14.957Z</time></trkpt><trkpt lat="44.3322067" lon="9.9295169"><ele>154.0</ele><time>2026-04-08T07:06:15.958Z</time></trkpt><trkpt lat="44.3322643" lon="9.9293946"><ele>155.0</ele><time>2026-04-08T07:06:16.957Z</time></trkpt><trkpt lat="44.3323202" lon="9.9292778"><ele>156.0</ele><time>2026-04-08T07:06:17.958Z</time></trkpt><trkpt lat="44.3323769" lon="9.9291569"><ele>157.0</ele><time>2026-04-08T07:06:18.957Z</time></trkpt><trkpt lat="44.3324356" lon="9.9290245"><ele>158.0</ele><time>2026-04-08T07:06:19.957Z</time></trkpt><trkpt lat="44.3324912" lon="9.9288838"><ele>159.0</ele><time>2026-04-08T07:06:20.957Z</time></trkpt><trkpt lat="44.3325453" lon="9.928739"><ele>159.0</ele><time>2026-04-08T07:06:21.957Z</time></trkpt><trkpt lat="44.3325994" lon="9.9285918"><ele>159.0</ele><time>2026-04-08T07:06:22.957Z</time></trkpt><trkpt lat="44.3326577" lon="9.9284393"><ele>159.0</ele><time>2026-04-08T07:06:23.957Z</time></trkpt><trkpt lat="44.3327163" lon="9.9282849"><ele>159.0</ele><time>2026-04-08T07:06:24.957Z</time></trkpt><trkpt lat="44.3327762" lon="9.9281297"><ele>158.75</ele><time>2026-04-08T07:06:25.957Z</time></trkpt><trkpt lat="44.3328365" lon="9.927976"><ele>158.5</ele><time>2026-04-08T07:06:26.957Z</time></trkpt><trkpt lat="44.3328912" lon="9.9278227"><ele>158.25</ele><time>2026-04-08T07:06:27.957Z</time></trkpt><trkpt lat="44.3329408" lon="9.9276667"><ele>158.0</ele><time>2026-04-08T07:06:28.958Z</time></trkpt><trkpt lat="44.3329856" lon="9.9275113"><ele>157.5</ele><time>2026-04-08T07:06:29.957Z</time></trkpt><trkpt lat="44.3330181" lon="9.9273517"><ele>157.0</ele><time>2026-04-08T07:06:30.957Z</time></trkpt><trkpt lat="44.3330353" lon="9.9271868"><ele>156.5</ele><time>2026-04-08T07:06:31.958Z</time></trkpt><trkpt lat="44.333044" lon="9.927014"><ele>156.0</ele><time>2026-04-08T07:06:32.957Z</time></trkpt><trkpt lat="44.3330506" lon="9.9268271"><ele>157.0</ele><time>2026-04-08T07:06:33.957Z</time></trkpt><trkpt lat="44.3330593" lon="9.92664"><ele>158.0</ele><time>2026-04-08T07:06:34.957Z</time></trkpt><trkpt lat="44.3330716" lon="9.926455"><ele>159.0</ele><time>2026-04-08T07:06:35.957Z</time></trkpt><trkpt lat="44.3330825" lon="9.9262714"><ele>160.0</ele><time>2026-04-08T07:06:36.957Z</time></trkpt><trkpt lat="44.3330882" lon="9.9260843"><ele>160.0</ele><time>2026-04-08T07:06:37.957Z</time></trkpt><trkpt lat="44.3330982" lon="9.9258928"><ele>160.0</ele><time>2026-04-08T07:06:38.957Z</time></trkpt><trkpt lat="44.333113" lon="9.9257083"><ele>160.0</ele><time>2026-04-08T07:06:39.957Z</time></trkpt><trkpt lat="44.3331372" lon="9.9255332"><ele>160.0</ele><time>2026-04-08T07:06:40.957Z</time></trkpt><trkpt lat="44.3331732" lon="9.9253581"><ele>160.0</ele><time>2026-04-08T07:06:41.957Z</time></trkpt><trkpt lat="44.3332207" lon="9.9251876"><ele>160.0</ele><time>2026-04-08T07:06:42.958Z</time></trkpt><trkpt lat="44.3332799" lon="9.9250231"><ele>160.0</ele><time>2026-04-08T07:06:43.957Z</time></trkpt><trkpt lat="44.3333399" lon="9.9248638"><ele>160.0</ele><time>2026-04-08T07:06:44.957Z</time></trkpt><trkpt lat="44.3333992" lon="9.9247087"><ele>160.0</ele><time>2026-04-08T07:06:45.957Z</time></trkpt><trkpt lat="44.3334601" lon="9.9245558"><ele>160.0</ele><time>2026-04-08T07:06:46.957Z</time></trkpt><trkpt lat="44.3335214" lon="9.9244024"><ele>160.0</ele><time>2026-04-08T07:06:47.957Z</time></trkpt><trkpt lat="44.3335813" lon="9.9242518"><ele>160.0</ele><time>2026-04-08T07:06:48.958Z</time></trkpt><trkpt lat="44.3336411" lon="9.9240986"><ele>160.0</ele><time>2026-04-08T07:06:49.957Z</time></trkpt><trkpt lat="44.3336937" lon="9.9239389"><ele>160.0</ele><time>2026-04-08T07:06:50.957Z</time></trkpt><trkpt lat="44.3337445" lon="9.9237745"><ele>160.0</ele><time>2026-04-08T07:06:51.957Z</time></trkpt><trkpt lat="44.3338079" lon="9.9236084"><ele>160.0</ele><time>2026-04-08T07:06:52.957Z</time></trkpt><trkpt lat="44.3339001" lon="9.9234621"><ele>161.0</ele><time>2026-04-08T07:06:53.957Z</time></trkpt><trkpt lat="44.3340015" lon="9.9233201"><ele>162.0</ele><time>2026-04-08T07:06:54.957Z</time></trkpt><trkpt lat="44.3341089" lon="9.9231773"><ele>163.0</ele><time>2026-04-08T07:06:55.957Z</time></trkpt><trkpt lat="44.3342207" lon="9.923032"><ele>164.0</ele><time>2026-04-08T07:06:56.957Z</time></trkpt><trkpt lat="44.3343277" lon="9.9228819"><ele>164.0</ele><time>2026-04-08T07:06:57.957Z</time></trkpt><trkpt lat="44.3344297" lon="9.9227248"><ele>164.0</ele><time>2026-04-08T07:06:58.957Z</time></trkpt><trkpt lat="44.3345311" lon="9.9225671"><ele>164.0</ele><time>2026-04-08T07:06:59.957Z</time></trkpt><trkpt lat="44.3346322" lon="9.9224086"><ele>164.0</ele><time>2026-04-08T07:07:00.957Z</time></trkpt><trkpt lat="44.3347305" lon="9.9222508"><ele>164.0</ele><time>2026-04-08T07:07:01.957Z</time></trkpt><trkpt lat="44.334816" lon="9.9220879"><ele>164.0</ele><time>2026-04-08T07:07:02.957Z</time></trkpt><trkpt lat="44.3349169" lon="9.921937"><ele>164.0</ele><time>2026-04-08T07:07:03.957Z</time></trkpt><trkpt lat="44.3350274" lon="9.9217917"><ele>164.0</ele><time>2026-04-08T07:07:04.958Z</time></trkpt><trkpt lat="44.3351272" lon="9.9216293"><ele>164.0</ele><time>2026-04-08T07:07:05.957Z</time></trkpt><trkpt lat="44.335224" lon="9.9214705"><ele>164.0</ele><time>2026-04-08T07:07:06.957Z</time></trkpt><trkpt lat="44.3353156" lon="9.921317"><ele>164.0</ele><time>2026-04-08T07:07:07.957Z</time></trkpt><trkpt lat="44.3354032" lon="9.9211632"><ele>164.0</ele><time>2026-04-08T07:07:08.957Z</time></trkpt><trkpt lat="44.3354895" lon="9.9210053"><ele>164.0</ele><time>2026-04-08T07:07:09.957Z</time></trkpt><trkpt lat="44.3355715" lon="9.9208416"><ele>164.0</ele><time>2026-04-08T07:07:10.957Z</time></trkpt><trkpt lat="44.3356502" lon="9.9206734"><ele>164.0</ele><time>2026-04-08T07:07:11.958Z</time></trkpt><trkpt lat="44.3357242" lon="9.9204994"><ele>164.0</ele><time>2026-04-08T07:07:12.957Z</time></trkpt><trkpt lat="44.335793" lon="9.9203238"><ele>164.0</ele><time>2026-04-08T07:07:13.957Z</time></trkpt><trkpt lat="44.3358551" lon="9.9201467"><ele>164.0</ele><time>2026-04-08T07:07:14.957Z</time></trkpt><trkpt lat="44.3359145" lon="9.9199677"><ele>164.0</ele><time>2026-04-08T07:07:15.957Z</time></trkpt><trkpt lat="44.335972" lon="9.9197893"><ele>163.75</ele><time>2026-04-08T07:07:16.957Z</time></trkpt><trkpt lat="44.3360325" lon="9.9196091"><ele>163.5</ele><time>2026-04-08T07:07:17.957Z</time></trkpt><trkpt lat="44.3360933" lon="9.9194283"><ele>163.25</ele><time>2026-04-08T07:07:18.958Z</time></trkpt><trkpt lat="44.3361541" lon="9.9192503"><ele>163.0</ele><time>2026-04-08T07:07:19.957Z</time></trkpt><trkpt lat="44.3362146" lon="9.9190722"><ele>163.0</ele><time>2026-04-08T07:07:20.957Z</time></trkpt><trkpt lat="44.3362766" lon="9.9188887"><ele>163.0</ele><time>2026-04-08T07:07:21.957Z</time></trkpt><trkpt lat="44.336337" lon="9.9187039"><ele>163.0</ele><time>2026-04-08T07:07:22.957Z</time></trkpt><trkpt lat="44.3364003" lon="9.9185177"><ele>163.0</ele><time>2026-04-08T07:07:23.957Z</time></trkpt><trkpt lat="44.3364631" lon="9.9183323"><ele>163.25</ele><time>2026-04-08T07:07:24.957Z</time></trkpt><trkpt lat="44.336526" lon="9.9181469"><ele>163.5</ele><time>2026-04-08T07:07:25.957Z</time></trkpt><trkpt lat="44.3365915" lon="9.9179629"><ele>163.75</ele><time>2026-04-08T07:07:26.957Z</time></trkpt><trkpt lat="44.3366528" lon="9.9177783"><ele>164.0</ele><time>2026-04-08T07:07:27.957Z</time></trkpt><trkpt lat="44.3367155" lon="9.917596"><ele>164.25</ele><time>2026-04-08T07:07:28.957Z</time></trkpt><trkpt lat="44.3367727" lon="9.9174178"><ele>164.5</ele><time>2026-04-08T07:07:29.957Z</time></trkpt><trkpt lat="44.336829" lon="9.9172405"><ele>164.75</ele><time>2026-04-08T07:07:30.957Z</time></trkpt><trkpt lat="44.3368874" lon="9.917066"><ele>165.0</ele><time>2026-04-08T07:07:31.958Z</time></trkpt><trkpt lat="44.3369457" lon="9.9168919"><ele>165.25</ele><time>2026-04-08T07:07:32.957Z</time></trkpt><trkpt lat="44.3370023" lon="9.9167191"><ele>165.5</ele><time>2026-04-08T07:07:33.957Z</time></trkpt><trkpt lat="44.3370627" lon="9.9165483"><ele>165.75</ele><time>2026-04-08T07:07:34.957Z</time></trkpt><trkpt lat="44.3371281" lon="9.9163845"><ele>166.0</ele><time>2026-04-08T07:07:35.958Z</time></trkpt><trkpt lat="44.337199" lon="9.9162271"><ele>166.75</ele><time>2026-04-08T07:07:36.958Z</time></trkpt><trkpt lat="44.337273" lon="9.9160772"><ele>167.5</ele><time>2026-04-08T07:07:37.957Z</time></trkpt><trkpt lat="44.3373484" lon="9.9159299"><ele>168.25</ele><time>2026-04-08T07:07:38.957Z</time></trkpt><trkpt lat="44.33743" lon="9.9157766"><ele>169.0</ele><time>2026-04-08T07:07:39.957Z</time></trkpt><trkpt lat="44.3375174" lon="9.9156206"><ele>169.0</ele><time>2026-04-08T07:07:40.958Z</time></trkpt><trkpt lat="44.337603" lon="9.9154598"><ele>169.0</ele><time>2026-04-08T07:07:41.957Z</time></trkpt><trkpt lat="44.3376911" lon="9.9152984"><ele>169.0</ele><time>2026-04-08T07:07:42.958Z</time></trkpt><trkpt lat="44.3377782" lon="9.9151371"><ele>169.0</ele><time>2026-04-08T07:07:43.957Z</time></trkpt><trkpt lat="44.3378668" lon="9.9149729"><ele>169.25</ele><time>2026-04-08T07:07:44.957Z</time></trkpt><trkpt lat="44.3379561" lon="9.9148107"><ele>169.5</ele><time>2026-04-08T07:07:45.957Z</time></trkpt><trkpt lat="44.338045" lon="9.9146524"><ele>169.75</ele><time>2026-04-08T07:07:46.957Z</time></trkpt><trkpt lat="44.3381336" lon="9.9144982"><ele>170.0</ele><time>2026-04-08T07:07:47.957Z</time></trkpt><trkpt lat="44.3382229" lon="9.914345"><ele>171.25</ele><time>2026-04-08T07:07:48.957Z</time></trkpt><trkpt lat="44.3383093" lon="9.9141936"><ele>172.5</ele><time>2026-04-08T07:07:49.957Z</time></trkpt><trkpt lat="44.3383947" lon="9.9140445"><ele>173.75</ele><time>2026-04-08T07:07:50.958Z</time></trkpt><trkpt lat="44.3384776" lon="9.9138986"><ele>175.0</ele><time>2026-04-08T07:07:51.957Z</time></trkpt><trkpt lat="44.3385566" lon="9.9137534"><ele>175.0</ele><time>2026-04-08T07:07:52.957Z</time></trkpt><trkpt lat="44.3386367" lon="9.9136081"><ele>175.0</ele><time>2026-04-08T07:07:53.957Z</time></trkpt><trkpt lat="44.338716" lon="9.9134708"><ele>175.0</ele><time>2026-04-08T07:07:54.957Z</time></trkpt><trkpt lat="44.3387935" lon="9.9133309"><ele>175.0</ele><time>2026-04-08T07:07:55.957Z</time></trkpt><trkpt lat="44.3388725" lon="9.9131875"><ele>176.5</ele><time>2026-04-08T07:07:56.958Z</time></trkpt><trkpt lat="44.3389526" lon="9.91304"><ele>178.0</ele><time>2026-04-08T07:07:57.957Z</time></trkpt><trkpt lat="44.3390339" lon="9.9128931"><ele>179.5</ele><time>2026-04-08T07:07:58.957Z</time></trkpt><trkpt lat="44.3391228" lon="9.9127508"><ele>181.0</ele><time>2026-04-08T07:07:59.957Z</time></trkpt><trkpt lat="44.3392236" lon="9.9126184"><ele>180.75</ele><time>2026-04-08T07:08:00.957Z</time></trkpt><trkpt lat="44.3393318" lon="9.9124916"><ele>180.5</ele><time>2026-04-08T07:08:01.957Z</time></trkpt><trkpt lat="44.3394469" lon="9.9123717"><ele>180.25</ele><time>2026-04-08T07:08:02.957Z</time></trkpt><trkpt lat="44.3395717" lon="9.9122581"><ele>180.0</ele><time>2026-04-08T07:08:03.957Z</time></trkpt><trkpt lat="44.3397043" lon="9.9121431"><ele>181.0</ele><time>2026-04-08T07:08:04.958Z</time></trkpt><trkpt lat="44.3398432" lon="9.9120267"><ele>182.0</ele><time>2026-04-08T07:08:05.957Z</time></trkpt><trkpt lat="44.3399862" lon="9.9119141"><ele>183.0</ele><time>2026-04-08T07:08:06.957Z</time></trkpt><trkpt lat="44.3401283" lon="9.9118097"><ele>182.66666666666666</ele><time>2026-04-08T07:08:07.957Z</time></trkpt><trkpt lat="44.3402738" lon="9.9117193"><ele>182.33333333333331</ele><time>2026-04-08T07:08:08.957Z</time></trkpt><trkpt lat="44.3404221" lon="9.9116418"><ele>182.0</ele><time>2026-04-08T07:08:09.957Z</time></trkpt><trkpt lat="44.3405694" lon="9.9115686"><ele>182.0</ele><time>2026-04-08T07:08:10.957Z</time></trkpt><trkpt lat="44.3407134" lon="9.9114962"><ele>182.0</ele><time>2026-04-08T07:08:11.957Z</time></trkpt><trkpt lat="44.3408533" lon="9.9114265"><ele>182.0</ele><time>2026-04-08T07:08:12.957Z</time></trkpt><trkpt lat="44.3409964" lon="9.9113618"><ele>182.0</ele><time>2026-04-08T07:08:13.958Z</time></trkpt><trkpt lat="44.3411381" lon="9.9113099"><ele>182.0</ele><time>2026-04-08T07:08:14.958Z</time></trkpt><trkpt lat="44.3412826" lon="9.9112701"><ele>182.0</ele><time>2026-04-08T07:08:15.958Z</time></trkpt><trkpt lat="44.3414274" lon="9.9112418"><ele>182.0</ele><time>2026-04-08T07:08:16.957Z</time></trkpt><trkpt lat="44.3415724" lon="9.9112184"><ele>182.0</ele><time>2026-04-08T07:08:17.957Z</time></trkpt><trkpt lat="44.3417161" lon="9.9111948"><ele>182.0</ele><time>2026-04-08T07:08:18.957Z</time></trkpt><trkpt lat="44.341857" lon="9.9111743"><ele>182.0</ele><time>2026-04-08T07:08:19.957Z</time></trkpt><trkpt lat="44.3419989" lon="9.9111561"><ele>182.0</ele><time>2026-04-08T07:08:20.957Z</time></trkpt><trkpt lat="44.3421409" lon="9.9111458"><ele>182.5</ele><time>2026-04-08T07:08:21.957Z</time></trkpt><trkpt lat="44.3422805" lon="9.9111439"><ele>183.0</ele><time>2026-04-08T07:08:22.957Z</time></trkpt><trkpt lat="44.3424214" lon="9.9111499"><ele>183.5</ele><time>2026-04-08T07:08:23.957Z</time></trkpt><trkpt lat="44.342559" lon="9.91117"><ele>184.0</ele><time>2026-04-08T07:08:24.957Z</time></trkpt><trkpt lat="44.3426964" lon="9.9112032"><ele>184.0</ele><time>2026-04-08T07:08:25.958Z</time></trkpt><trkpt lat="44.3428349" lon="9.9112429"><ele>184.0</ele><time>2026-04-08T07:08:26.958Z</time></trkpt><trkpt lat="44.342975" lon="9.9112854"><ele>184.0</ele><time>2026-04-08T07:08:27.957Z</time></trkpt><trkpt lat="44.3431178" lon="9.9113265"><ele>184.0</ele><time>2026-04-08T07:08:28.958Z</time></trkpt><trkpt lat="44.3432589" lon="9.9113676"><ele>184.0</ele><time>2026-04-08T07:08:29.957Z</time></trkpt><trkpt lat="44.3434021" lon="9.9114088"><ele>184.0</ele><time>2026-04-08T07:08:30.957Z</time></trkpt><trkpt lat="44.3435445" lon="9.9114502"><ele>184.0</ele><time>2026-04-08T07:08:31.957Z</time></trkpt><trkpt lat="44.3436859" lon="9.9114914"><ele>184.0</ele><time>2026-04-08T07:08:32.957Z</time></trkpt><trkpt lat="44.3438247" lon="9.9115329"><ele>184.75</ele><time>2026-04-08T07:08:33.957Z</time></trkpt><trkpt lat="44.3439657" lon="9.9115745"><ele>185.5</ele><time>2026-04-08T07:08:34.957Z</time></trkpt><trkpt lat="44.3441085" lon="9.9116224"><ele>186.25</ele><time>2026-04-08T07:08:35.957Z</time></trkpt><trkpt lat="44.344249" lon="9.9116705"><ele>187.0</ele><time>2026-04-08T07:08:36.957Z</time></trkpt><trkpt lat="44.3443893" lon="9.9117135"><ele>187.5</ele><time>2026-04-08T07:08:37.958Z</time></trkpt><trkpt lat="44.3445316" lon="9.9117493"><ele>188.0</ele><time>2026-04-08T07:08:38.958Z</time></trkpt><trkpt lat="44.3446749" lon="9.9117764"><ele>188.5</ele><time>2026-04-08T07:08:39.957Z</time></trkpt><trkpt lat="44.34482" lon="9.911792"><ele>189.0</ele><time>2026-04-08T07:08:40.958Z</time></trkpt><trkpt lat="44.3449596" lon="9.911796"><ele>189.25</ele><time>2026-04-08T07:08:41.958Z</time></trkpt><trkpt lat="44.3450852" lon="9.9117879"><ele>189.5</ele><time>2026-04-08T07:08:42.957Z</time></trkpt><trkpt lat="44.3452028" lon="9.9117747"><ele>189.75</ele><time>2026-04-08T07:08:43.957Z</time></trkpt><trkpt lat="44.3453199" lon="9.9117633"><ele>190.0</ele><time>2026-04-08T07:08:44.957Z</time></trkpt><trkpt lat="44.3454439" lon="9.9117541"><ele>190.5</ele><time>2026-04-08T07:08:45.957Z</time></trkpt><trkpt lat="44.3455727" lon="9.9117465"><ele>191.0</ele><time>2026-04-08T07:08:46.957Z</time></trkpt><trkpt lat="44.345704" lon="9.9117413"><ele>191.5</ele><time>2026-04-08T07:08:47.957Z</time></trkpt><trkpt lat="44.3458396" lon="9.9117309"><ele>192.0</ele><time>2026-04-08T07:08:48.957Z</time></trkpt><trkpt lat="44.3459749" lon="9.9117089"><ele>191.75</ele><time>2026-04-08T07:08:49.958Z</time></trkpt><trkpt lat="44.3461074" lon="9.9116674"><ele>191.5</ele><time>2026-04-08T07:08:50.958Z</time></trkpt><trkpt lat="44.3462364" lon="9.9116024"><ele>191.25</ele><time>2026-04-08T07:08:51.957Z</time></trkpt><trkpt lat="44.3463622" lon="9.9115207"><ele>191.0</ele><time>2026-04-08T07:08:52.957Z</time></trkpt><trkpt lat="44.3464817" lon="9.9114229"><ele>191.0</ele><time>2026-04-08T07:08:53.958Z</time></trkpt><trkpt lat="44.3465959" lon="9.9113103"><ele>191.0</ele><time>2026-04-08T07:08:54.957Z</time></trkpt><trkpt lat="44.3467045" lon="9.9111826"><ele>191.0</ele><time>2026-04-08T07:08:55.957Z</time></trkpt><trkpt lat="44.3468063" lon="9.9110483"><ele>191.0</ele><time>2026-04-08T07:08:56.957Z</time></trkpt><trkpt lat="44.3469015" lon="9.9109055"><ele>189.75</ele><time>2026-04-08T07:08:57.958Z</time></trkpt><trkpt lat="44.3469891" lon="9.9107602"><ele>188.5</ele><time>2026-04-08T07:08:58.957Z</time></trkpt><trkpt lat="44.347077" lon="9.9106108"><ele>187.25</ele><time>2026-04-08T07:08:59.957Z</time></trkpt><trkpt lat="44.3471601" lon="9.910463"><ele>186.0</ele><time>2026-04-08T07:09:00.957Z</time></trkpt><trkpt lat="44.3472385" lon="9.9103152"><ele>186.0</ele><time>2026-04-08T07:09:01.958Z</time></trkpt><trkpt lat="44.347316" lon="9.9101667"><ele>186.0</ele><time>2026-04-08T07:09:02.957Z</time></trkpt><trkpt lat="44.347396" lon="9.9100208"><ele>186.0</ele><time>2026-04-08T07:09:03.957Z</time></trkpt><trkpt lat="44.3474726" lon="9.9098776"><ele>186.0</ele><time>2026-04-08T07:09:04.958Z</time></trkpt><trkpt lat="44.3475485" lon="9.909734"><ele>185.5</ele><time>2026-04-08T07:09:05.957Z</time></trkpt><trkpt lat="44.3476237" lon="9.9095948"><ele>185.0</ele><time>2026-04-08T07:09:06.958Z</time></trkpt><trkpt lat="44.3477001" lon="9.9094575"><ele>184.5</ele><time>2026-04-08T07:09:07.957Z</time></trkpt><trkpt lat="44.3477742" lon="9.9093224"><ele>184.0</ele><time>2026-04-08T07:09:08.957Z</time></trkpt><trkpt lat="44.3478514" lon="9.9091899"><ele>184.0</ele><time>2026-04-08T07:09:09.958Z</time></trkpt><trkpt lat="44.3479299" lon="9.9090595"><ele>184.0</ele><time>2026-04-08T07:09:10.957Z</time></trkpt><trkpt lat="44.3480082" lon="9.9089298"><ele>184.0</ele><time>2026-04-08T07:09:11.957Z</time></trkpt><trkpt lat="44.3480859" lon="9.9088057"><ele>184.0</ele><time>2026-04-08T07:09:12.958Z</time></trkpt><trkpt lat="44.3481637" lon="9.9086836"><ele>184.0</ele><time>2026-04-08T07:09:13.957Z</time></trkpt><trkpt lat="44.3482434" lon="9.9085662"><ele>184.0</ele><time>2026-04-08T07:09:14.957Z</time></trkpt><trkpt lat="44.3483246" lon="9.9084547"><ele>184.0</ele><time>2026-04-08T07:09:15.957Z</time></trkpt><trkpt lat="44.3484088" lon="9.9083531"><ele>184.0</ele><time>2026-04-08T07:09:16.957Z</time></trkpt><trkpt lat="44.3484974" lon="9.9082596"><ele>184.0</ele><time>2026-04-08T07:09:17.957Z</time></trkpt><trkpt lat="44.3485894" lon="9.9081675"><ele>184.0</ele><time>2026-04-08T07:09:18.958Z</time></trkpt><trkpt lat="44.3486824" lon="9.9080815"><ele>184.0</ele><time>2026-04-08T07:09:19.957Z</time></trkpt><trkpt lat="44.3487734" lon="9.9079989"><ele>184.0</ele><time>2026-04-08T07:09:20.958Z</time></trkpt><trkpt lat="44.3488657" lon="9.9079227"><ele>184.0</ele><time>2026-04-08T07:09:21.957Z</time></trkpt><trkpt lat="44.3489558" lon="9.907846"><ele>184.39999999999998</ele><time>2026-04-08T07:09:22.958Z</time></trkpt><trkpt lat="44.3490487" lon="9.9077689"><ele>184.8</ele><time>2026-04-08T07:09:23.957Z</time></trkpt><trkpt lat="44.3491421" lon="9.9076919"><ele>185.2</ele><time>2026-04-08T07:09:24.957Z</time></trkpt><trkpt lat="44.3492352" lon="9.9076163"><ele>185.60000000000002</ele><time>2026-04-08T07:09:25.957Z</time></trkpt><trkpt lat="44.3493275" lon="9.907545"><ele>186.0</ele><time>2026-04-08T07:09:26.958Z</time></trkpt><trkpt lat="44.3494215" lon="9.9074783"><ele>186.0</ele><time>2026-04-08T07:09:27.957Z</time></trkpt><trkpt lat="44.3495181" lon="9.9074098"><ele>186.0</ele><time>2026-04-08T07:09:28.957Z</time></trkpt><trkpt lat="44.3496152" lon="9.9073452"><ele>186.0</ele><time>2026-04-08T07:09:29.957Z</time></trkpt><trkpt lat="44.3497154" lon="9.9072848"><ele>186.0</ele><time>2026-04-08T07:09:30.957Z</time></trkpt><trkpt lat="44.3498161" lon="9.9072262"><ele>186.0</ele><time>2026-04-08T07:09:31.958Z</time></trkpt><trkpt lat="44.3499194" lon="9.9071724"><ele>186.5</ele><time>2026-04-08T07:09:32.957Z</time></trkpt><trkpt lat="44.3500263" lon="9.9071223"><ele>187.0</ele><time>2026-04-08T07:09:33.957Z</time></trkpt><trkpt lat="44.3501325" lon="9.9070723"><ele>187.5</ele><time>2026-04-08T07:09:34.958Z</time></trkpt><trkpt lat="44.35024" lon="9.9070216"><ele>188.0</ele><time>2026-04-08T07:09:35.957Z</time></trkpt><trkpt lat="44.3503522" lon="9.9069777"><ele>188.0</ele><time>2026-04-08T07:09:36.958Z</time></trkpt><trkpt lat="44.3504665" lon="9.906935"><ele>188.0</ele><time>2026-04-08T07:09:37.957Z</time></trkpt><trkpt lat="44.3505795" lon="9.9068936"><ele>188.0</ele><time>2026-04-08T07:09:38.957Z</time></trkpt><trkpt lat="44.3506924" lon="9.9068518"><ele>188.0</ele><time>2026-04-08T07:09:39.957Z</time></trkpt><trkpt lat="44.3508047" lon="9.9068075"><ele>188.25</ele><time>2026-04-08T07:09:40.958Z</time></trkpt><trkpt lat="44.3509183" lon="9.9067644"><ele>188.5</ele><time>2026-04-08T07:09:41.958Z</time></trkpt><trkpt lat="44.3510304" lon="9.9067224"><ele>188.75</ele><time>2026-04-08T07:09:42.957Z</time></trkpt><trkpt lat="44.3511425" lon="9.9066803"><ele>189.0</ele><time>2026-04-08T07:09:43.957Z</time></trkpt><trkpt lat="44.3512556" lon="9.9066352"><ele>189.75</ele><time>2026-04-08T07:09:44.957Z</time></trkpt><trkpt lat="44.3513761" lon="9.9065867"><ele>190.5</ele><time>2026-04-08T07:09:45.957Z</time></trkpt><trkpt lat="44.3515112" lon="9.9065324"><ele>191.25</ele><time>2026-04-08T07:09:46.957Z</time></trkpt><trkpt lat="44.3516585" lon="9.906472"><ele>192.0</ele><time>2026-04-08T07:09:47.957Z</time></trkpt><trkpt lat="44.3518199" lon="9.9064041"><ele>192.0</ele><time>2026-04-08T07:09:48.957Z</time></trkpt><trkpt lat="44.3519966" lon="9.9063301"><ele>192.0</ele><time>2026-04-08T07:09:49.958Z</time></trkpt><trkpt lat="44.3521859" lon="9.9062496"><ele>192.0</ele><time>2026-04-08T07:09:50.957Z</time></trkpt><trkpt lat="44.3523817" lon="9.9061637"><ele>192.33333333333331</ele><time>2026-04-08T07:09:51.958Z</time></trkpt><trkpt lat="44.3525761" lon="9.9060661"><ele>192.66666666666666</ele><time>2026-04-08T07:09:52.957Z</time></trkpt><trkpt lat="44.3527651" lon="9.9059497"><ele>193.0</ele><time>2026-04-08T07:09:53.957Z</time></trkpt><trkpt lat="44.3529438" lon="9.905814"><ele>194.0</ele><time>2026-04-08T07:09:54.957Z</time></trkpt><trkpt lat="44.353116" lon="9.9056715"><ele>195.0</ele><time>2026-04-08T07:09:55.957Z</time></trkpt><trkpt lat="44.3532799" lon="9.9055342"><ele>196.0</ele><time>2026-04-08T07:09:56.958Z</time></trkpt><trkpt lat="44.3534379" lon="9.9054081"><ele>196.0</ele><time>2026-04-08T07:09:57.957Z</time></trkpt><trkpt lat="44.3535868" lon="9.9052894"><ele>196.0</ele><time>2026-04-08T07:09:58.958Z</time></trkpt><trkpt lat="44.3537289" lon="9.9051767"><ele>196.0</ele><time>2026-04-08T07:09:59.958Z</time></trkpt><trkpt lat="44.3538691" lon="9.9050672"><ele>196.66666666666666</ele><time>2026-04-08T07:10:00.958Z</time></trkpt><trkpt lat="44.354008" lon="9.9049517"><ele>197.33333333333331</ele><time>2026-04-08T07:10:01.958Z</time></trkpt><trkpt lat="44.3541471" lon="9.9048397"><ele>198.0</ele><time>2026-04-08T07:10:02.957Z</time></trkpt><trkpt lat="44.354283" lon="9.9047239"><ele>198.0</ele><time>2026-04-08T07:10:03.957Z</time></trkpt><trkpt lat="44.354424" lon="9.9046072"><ele>198.0</ele><time>2026-04-08T07:10:04.957Z</time></trkpt><trkpt lat="44.3545586" lon="9.9044953"><ele>198.0</ele><time>2026-04-08T07:10:05.958Z</time></trkpt><trkpt lat="44.3546937" lon="9.9043916"><ele>198.33333333333331</ele><time>2026-04-08T07:10:06.958Z</time></trkpt><trkpt lat="44.3548259" lon="9.9042844"><ele>198.66666666666666</ele><time>2026-04-08T07:10:07.957Z</time></trkpt><trkpt lat="44.3549604" lon="9.9041759"><ele>199.0</ele><time>2026-04-08T07:10:08.957Z</time></trkpt><trkpt lat="44.3550916" lon="9.904068"><ele>199.0</ele><time>2026-04-08T07:10:09.957Z</time></trkpt><trkpt lat="44.3552216" lon="9.9039616"><ele>199.0</ele><time>2026-04-08T07:10:10.957Z</time></trkpt><trkpt lat="44.3553512" lon="9.9038591"><ele>199.0</ele><time>2026-04-08T07:10:11.957Z</time></trkpt><trkpt lat="44.3554789" lon="9.9037595"><ele>199.0</ele><time>2026-04-08T07:10:12.958Z</time></trkpt><trkpt lat="44.3556097" lon="9.9036637"><ele>198.66666666666666</ele><time>2026-04-08T07:10:13.958Z</time></trkpt><trkpt lat="44.3557474" lon="9.9035723"><ele>198.33333333333331</ele><time>2026-04-08T07:10:14.957Z</time></trkpt><trkpt lat="44.3558974" lon="9.903487"><ele>198.0</ele><time>2026-04-08T07:10:15.958Z</time></trkpt><trkpt lat="44.3560493" lon="9.9034056"><ele>199.0</ele><time>2026-04-08T07:10:16.957Z</time></trkpt><trkpt lat="44.3561994" lon="9.9033218"><ele>200.0</ele><time>2026-04-08T07:10:17.958Z</time></trkpt><trkpt lat="44.3563437" lon="9.9032396"><ele>201.0</ele><time>2026-04-08T07:10:18.958Z</time></trkpt><trkpt lat="44.3564854" lon="9.9031606"><ele>201.25</ele><time>2026-04-08T07:10:19.957Z</time></trkpt><trkpt lat="44.3566256" lon="9.9030823"><ele>201.5</ele><time>2026-04-08T07:10:20.957Z</time></trkpt><trkpt lat="44.3567639" lon="9.9030033"><ele>201.75</ele><time>2026-04-08T07:10:21.958Z</time></trkpt><trkpt lat="44.3569028" lon="9.9029279"><ele>202.0</ele><time>2026-04-08T07:10:22.957Z</time></trkpt><trkpt lat="44.3570373" lon="9.9028527"><ele>202.0</ele><time>2026-04-08T07:10:23.957Z</time></trkpt><trkpt lat="44.3571709" lon="9.9027793"><ele>202.0</ele><time>2026-04-08T07:10:24.957Z</time></trkpt><trkpt lat="44.3573005" lon="9.9027093"><ele>202.0</ele><time>2026-04-08T07:10:25.957Z</time></trkpt><trkpt lat="44.3574263" lon="9.9026408"><ele>202.0</ele><time>2026-04-08T07:10:26.957Z</time></trkpt><trkpt lat="44.3575519" lon="9.9025734"><ele>202.0</ele><time>2026-04-08T07:10:27.957Z</time></trkpt><trkpt lat="44.3576719" lon="9.9025002"><ele>202.0</ele><time>2026-04-08T07:10:28.958Z</time></trkpt><trkpt lat="44.3577834" lon="9.9024261"><ele>202.0</ele><time>2026-04-08T07:10:29.957Z</time></trkpt><trkpt lat="44.3578876" lon="9.9023362"><ele>202.0</ele><time>2026-04-08T07:10:30.957Z</time></trkpt><trkpt lat="44.3579833" lon="9.9022417"><ele>202.25</ele><time>2026-04-08T07:10:31.957Z</time></trkpt><trkpt lat="44.3580757" lon="9.9021451"><ele>202.5</ele><time>2026-04-08T07:10:32.958Z</time></trkpt><trkpt lat="44.3581649" lon="9.9020492"><ele>202.75</ele><time>2026-04-08T07:10:33.958Z</time></trkpt><trkpt lat="44.3582531" lon="9.9019529"><ele>203.0</ele><time>2026-04-08T07:10:34.958Z</time></trkpt><trkpt lat="44.35834" lon="9.9018535"><ele>203.0</ele><time>2026-04-08T07:10:35.957Z</time></trkpt><trkpt lat="44.3584291" lon="9.9017491"><ele>203.0</ele><time>2026-04-08T07:10:36.957Z</time></trkpt><trkpt lat="44.3585236" lon="9.9016428"><ele>203.0</ele><time>2026-04-08T07:10:37.957Z</time></trkpt><trkpt lat="44.3586176" lon="9.9015359"><ele>203.0</ele><time>2026-04-08T07:10:38.958Z</time></trkpt><trkpt lat="44.3587115" lon="9.9014257"><ele>203.0</ele><time>2026-04-08T07:10:39.957Z</time></trkpt><trkpt lat="44.3588076" lon="9.9013154"><ele>203.0</ele><time>2026-04-08T07:10:40.958Z</time></trkpt><trkpt lat="44.3589031" lon="9.9012048"><ele>203.0</ele><time>2026-04-08T07:10:41.957Z</time></trkpt><trkpt lat="44.3590014" lon="9.9010923"><ele>203.0</ele><time>2026-04-08T07:10:42.957Z</time></trkpt><trkpt lat="44.3590968" lon="9.9009824"><ele>202.75</ele><time>2026-04-08T07:10:43.957Z</time></trkpt><trkpt lat="44.3591902" lon="9.9008756"><ele>202.5</ele><time>2026-04-08T07:10:44.957Z</time></trkpt><trkpt lat="44.3592831" lon="9.9007684"><ele>202.25</ele><time>2026-04-08T07:10:45.957Z</time></trkpt><trkpt lat="44.3593726" lon="9.9006628"><ele>202.0</ele><time>2026-04-08T07:10:46.957Z</time></trkpt><trkpt lat="44.3594583" lon="9.9005608"><ele>202.0</ele><time>2026-04-08T07:10:47.958Z</time></trkpt><trkpt lat="44.3595449" lon="9.9004628"><ele>202.0</ele><time>2026-04-08T07:10:48.958Z</time></trkpt><trkpt lat="44.3596296" lon="9.9003688"><ele>202.0</ele><time>2026-04-08T07:10:49.957Z</time></trkpt><trkpt lat="44.3597092" lon="9.9002796"><ele>202.0</ele><time>2026-04-08T07:10:50.957Z</time></trkpt><trkpt lat="44.3597909" lon="9.9001887"><ele>202.0</ele><time>2026-04-08T07:10:51.957Z</time></trkpt><trkpt lat="44.3598713" lon="9.900097"><ele>202.39999999999998</ele><time>2026-04-08T07:10:52.957Z</time></trkpt><trkpt lat="44.3599544" lon="9.9000063"><ele>202.79999999999998</ele><time>2026-04-08T07:10:53.957Z</time></trkpt><trkpt lat="44.3600377" lon="9.8999123"><ele>203.2</ele><time>2026-04-08T07:10:54.958Z</time></trkpt><trkpt lat="44.3601222" lon="9.8998193"><ele>203.6</ele><time>2026-04-08T07:10:55.958Z</time></trkpt><trkpt lat="44.3602076" lon="9.8997203"><ele>204.0</ele><time>2026-04-08T07:10:56.958Z</time></trkpt><trkpt lat="44.3602947" lon="9.8996219"><ele>204.0</ele><time>2026-04-08T07:10:57.957Z</time></trkpt><trkpt lat="44.3603806" lon="9.899525"><ele>204.0</ele><time>2026-04-08T07:10:58.957Z</time></trkpt><trkpt lat="44.3604671" lon="9.8994251"><ele>204.0</ele><time>2026-04-08T07:10:59.957Z</time></trkpt><trkpt lat="44.360555" lon="9.8993233"><ele>204.0</ele><time>2026-04-08T07:11:00.958Z</time></trkpt><trkpt lat="44.360643" lon="9.8992224"><ele>204.5</ele><time>2026-04-08T07:11:01.957Z</time></trkpt><trkpt lat="44.360732" lon="9.8991162"><ele>205.0</ele><time>2026-04-08T07:11:02.957Z</time></trkpt><trkpt lat="44.3608187" lon="9.8990151"><ele>205.5</ele><time>2026-04-08T07:11:03.958Z</time></trkpt><trkpt lat="44.360909" lon="9.8989129"><ele>206.0</ele><time>2026-04-08T07:11:04.957Z</time></trkpt><trkpt lat="44.3609969" lon="9.8988107"><ele>206.0</ele><time>2026-04-08T07:11:05.957Z</time></trkpt><trkpt lat="44.3610839" lon="9.8987111"><ele>206.0</ele><time>2026-04-08T07:11:06.958Z</time></trkpt><trkpt lat="44.3611706" lon="9.8986071"><ele>206.0</ele><time>2026-04-08T07:11:07.957Z</time></trkpt><trkpt lat="44.3612603" lon="9.8985009"><ele>206.0</ele><time>2026-04-08T07:11:08.958Z</time></trkpt><trkpt lat="44.3613528" lon="9.8983937"><ele>206.5</ele><time>2026-04-08T07:11:09.958Z</time></trkpt><trkpt lat="44.3614484" lon="9.8982871"><ele>207.0</ele><time>2026-04-08T07:11:10.957Z</time></trkpt><trkpt lat="44.3615461" lon="9.8981745"><ele>207.5</ele><time>2026-04-08T07:11:11.957Z</time></trkpt><trkpt lat="44.361654" lon="9.898052"><ele>208.0</ele><time>2026-04-08T07:11:12.958Z</time></trkpt><trkpt lat="44.3617662" lon="9.8979246"><ele>208.0</ele><time>2026-04-08T07:11:13.958Z</time></trkpt><trkpt lat="44.3618803" lon="9.8977917"><ele>208.0</ele><time>2026-04-08T07:11:14.957Z</time></trkpt><trkpt lat="44.3619974" lon="9.8976572"><ele>208.0</ele><time>2026-04-08T07:11:15.958Z</time></trkpt><trkpt lat="44.3621098" lon="9.8975275"><ele>208.0</ele><time>2026-04-08T07:11:16.957Z</time></trkpt><trkpt lat="44.3622144" lon="9.8974057"><ele>208.25</ele><time>2026-04-08T07:11:17.958Z</time></trkpt><trkpt lat="44.3623134" lon="9.8972903"><ele>208.5</ele><time>2026-04-08T07:11:18.958Z</time></trkpt><trkpt lat="44.3624085" lon="9.8971799"><ele>208.75</ele><time>2026-04-08T07:11:19.957Z</time></trkpt><trkpt lat="44.3625045" lon="9.897069"><ele>209.0</ele><time>2026-04-08T07:11:20.957Z</time></trkpt><trkpt lat="44.3625976" lon="9.8969602"><ele>209.0</ele><time>2026-04-08T07:11:21.957Z</time></trkpt><trkpt lat="44.3626915" lon="9.8968531"><ele>209.0</ele><time>2026-04-08T07:11:22.957Z</time></trkpt><trkpt lat="44.3627851" lon="9.8967499"><ele>209.0</ele><time>2026-04-08T07:11:23.957Z</time></trkpt><trkpt lat="44.3628769" lon="9.8966476"><ele>209.0</ele><time>2026-04-08T07:11:24.958Z</time></trkpt><trkpt lat="44.3629678" lon="9.8965475"><ele>209.5</ele><time>2026-04-08T07:11:25.958Z</time></trkpt><trkpt lat="44.3630566" lon="9.8964491"><ele>210.0</ele><time>2026-04-08T07:11:26.957Z</time></trkpt><trkpt lat="44.3631432" lon="9.8963513"><ele>210.5</ele><time>2026-04-08T07:11:27.957Z</time></trkpt><trkpt lat="44.3632302" lon="9.8962459"><ele>211.0</ele><time>2026-04-08T07:11:28.958Z</time></trkpt><trkpt lat="44.3633131" lon="9.8961336"><ele>211.0</ele><time>2026-04-08T07:11:29.957Z</time></trkpt><trkpt lat="44.3633875" lon="9.8960067"><ele>211.0</ele><time>2026-04-08T07:11:30.957Z</time></trkpt><trkpt lat="44.3634514" lon="9.8958712"><ele>211.0</ele><time>2026-04-08T07:11:31.958Z</time></trkpt><trkpt lat="44.3635138" lon="9.8957256"><ele>211.0</ele><time>2026-04-08T07:11:32.957Z</time></trkpt><trkpt lat="44.3635786" lon="9.8955826"><ele>210.25</ele><time>2026-04-08T07:11:33.957Z</time></trkpt><trkpt lat="44.3636427" lon="9.8954386"><ele>209.5</ele><time>2026-04-08T07:11:34.958Z</time></trkpt><trkpt lat="44.3637103" lon="9.8952941"><ele>208.75</ele><time>2026-04-08T07:11:35.957Z</time></trkpt><trkpt lat="44.3637781" lon="9.8951479"><ele>208.0</ele><time>2026-04-08T07:11:36.957Z</time></trkpt><trkpt lat="44.3638433" lon="9.8950015"><ele>209.75</ele><time>2026-04-08T07:11:37.957Z</time></trkpt><trkpt lat="44.3639085" lon="9.8948533"><ele>211.5</ele><time>2026-04-08T07:11:38.958Z</time></trkpt><trkpt lat="44.3639747" lon="9.8947051"><ele>213.25</ele><time>2026-04-08T07:11:39.958Z</time></trkpt><trkpt lat="44.3640393" lon="9.8945577"><ele>215.0</ele><time>2026-04-08T07:11:40.958Z</time></trkpt><trkpt lat="44.3641044" lon="9.8944085"><ele>215.0</ele><time>2026-04-08T07:11:41.957Z</time></trkpt><trkpt lat="44.3641682" lon="9.8942587"><ele>215.0</ele><time>2026-04-08T07:11:42.958Z</time></trkpt><trkpt lat="44.3642291" lon="9.8940998"><ele>215.0</ele><time>2026-04-08T07:11:43.957Z</time></trkpt><trkpt lat="44.3642854" lon="9.8939303"><ele>215.0</ele><time>2026-04-08T07:11:44.957Z</time></trkpt><trkpt lat="44.364335" lon="9.8937494"><ele>214.25</ele><time>2026-04-08T07:11:45.957Z</time></trkpt><trkpt lat="44.3643769" lon="9.8935613"><ele>213.5</ele><time>2026-04-08T07:11:46.958Z</time></trkpt><trkpt lat="44.3644134" lon="9.8933665"><ele>212.75</ele><time>2026-04-08T07:11:47.957Z</time></trkpt><trkpt lat="44.3644417" lon="9.893167"><ele>212.0</ele><time>2026-04-08T07:11:48.958Z</time></trkpt><trkpt lat="44.3644612" lon="9.8929691"><ele>211.75</ele><time>2026-04-08T07:11:49.957Z</time></trkpt><trkpt lat="44.3644702" lon="9.8927723"><ele>211.5</ele><time>2026-04-08T07:11:50.957Z</time></trkpt><trkpt lat="44.3644697" lon="9.8925756"><ele>211.25</ele><time>2026-04-08T07:11:51.957Z</time></trkpt><trkpt lat="44.3644633" lon="9.8923791"><ele>211.0</ele><time>2026-04-08T07:11:52.958Z</time></trkpt><trkpt lat="44.3644526" lon="9.8921847"><ele>211.0</ele><time>2026-04-08T07:11:53.958Z</time></trkpt><trkpt lat="44.3644406" lon="9.8919981"><ele>211.0</ele><time>2026-04-08T07:11:54.957Z</time></trkpt><trkpt lat="44.364431" lon="9.8918157"><ele>211.0</ele><time>2026-04-08T07:11:55.957Z</time></trkpt><trkpt lat="44.3644231" lon="9.891633"><ele>211.0</ele><time>2026-04-08T07:11:56.957Z</time></trkpt><trkpt lat="44.3644116" lon="9.8914503"><ele>211.0</ele><time>2026-04-08T07:11:57.958Z</time></trkpt><trkpt lat="44.3643993" lon="9.8912703"><ele>211.0</ele><time>2026-04-08T07:11:58.957Z</time></trkpt><trkpt lat="44.3643877" lon="9.8911002"><ele>211.0</ele><time>2026-04-08T07:11:59.957Z</time></trkpt><trkpt lat="44.3643782" lon="9.8909417"><ele>211.0</ele><time>2026-04-08T07:12:00.958Z</time></trkpt><trkpt lat="44.3643679" lon="9.8907848"><ele>211.5</ele><time>2026-04-08T07:12:01.957Z</time></trkpt><trkpt lat="44.3643581" lon="9.8906277"><ele>212.0</ele><time>2026-04-08T07:12:02.957Z</time></trkpt><trkpt lat="44.3643493" lon="9.8904708"><ele>212.5</ele><time>2026-04-08T07:12:03.957Z</time></trkpt><trkpt lat="44.3643383" lon="9.8903041"><ele>213.0</ele><time>2026-04-08T07:12:04.958Z</time></trkpt><trkpt lat="44.3643133" lon="9.890139"><ele>213.5</ele><time>2026-04-08T07:12:05.958Z</time></trkpt><trkpt lat="44.3642759" lon="9.8899683"><ele>214.0</ele><time>2026-04-08T07:12:06.957Z</time></trkpt><trkpt lat="44.3642343" lon="9.8897973"><ele>214.5</ele><time>2026-04-08T07:12:07.958Z</time></trkpt><trkpt lat="44.3641926" lon="9.8896264"><ele>215.0</ele><time>2026-04-08T07:12:08.957Z</time></trkpt><trkpt lat="44.364148" lon="9.8894618"><ele>215.0</ele><time>2026-04-08T07:12:09.958Z</time></trkpt><trkpt lat="44.3641041" lon="9.8893029"><ele>215.0</ele><time>2026-04-08T07:12:10.958Z</time></trkpt><trkpt lat="44.3640629" lon="9.889155"><ele>215.0</ele><time>2026-04-08T07:12:11.957Z</time></trkpt><trkpt lat="44.364025" lon="9.8890145"><ele>215.0</ele><time>2026-04-08T07:12:12.958Z</time></trkpt><trkpt lat="44.363991" lon="9.8888768"><ele>215.0</ele><time>2026-04-08T07:12:13.957Z</time></trkpt><trkpt lat="44.3639534" lon="9.8887407"><ele>214.2</ele><time>2026-04-08T07:12:14.957Z</time></trkpt><trkpt lat="44.3639165" lon="9.8886071"><ele>213.4</ele><time>2026-04-08T07:12:15.957Z</time></trkpt><trkpt lat="44.3638769" lon="9.8884769"><ele>212.60000000000002</ele><time>2026-04-08T07:12:16.958Z</time></trkpt><trkpt lat="44.363826" lon="9.8883558"><ele>211.8</ele><time>2026-04-08T07:12:17.957Z</time></trkpt><trkpt lat="44.3637712" lon="9.8882444"><ele>211.0</ele><time>2026-04-08T07:12:18.958Z</time></trkpt><trkpt lat="44.3637191" lon="9.8881403"><ele>210.99999999999997</ele><time>2026-04-08T07:12:19.958Z</time></trkpt><trkpt lat="44.3636798" lon="9.8880372"><ele>211.0</ele><time>2026-04-08T07:12:20.958Z</time></trkpt><trkpt lat="44.3636578" lon="9.887927"><ele>211.0</ele><time>2026-04-08T07:12:21.957Z</time></trkpt><trkpt lat="44.3636484" lon="9.8878077"><ele>211.0</ele><time>2026-04-08T07:12:22.957Z</time></trkpt><trkpt lat="44.3636426" lon="9.887687"><ele>210.99999999999997</ele><time>2026-04-08T07:12:23.957Z</time></trkpt><trkpt lat="44.3636371" lon="9.887566"><ele>211.0</ele><time>2026-04-08T07:12:24.957Z</time></trkpt><trkpt lat="44.3636301" lon="9.8874459"><ele>211.60000000000002</ele><time>2026-04-08T07:12:25.957Z</time></trkpt><trkpt lat="44.3636237" lon="9.8873207"><ele>212.2</ele><time>2026-04-08T07:12:26.957Z</time></trkpt><trkpt lat="44.3636214" lon="9.8871921"><ele>212.79999999999998</ele><time>2026-04-08T07:12:27.957Z</time></trkpt><trkpt lat="44.3636287" lon="9.8870534"><ele>213.39999999999998</ele><time>2026-04-08T07:12:28.957Z</time></trkpt><trkpt lat="44.363659" lon="9.8869096"><ele>214.0</ele><time>2026-04-08T07:12:29.957Z</time></trkpt><trkpt lat="44.3637143" lon="9.8867755"><ele>214.0</ele><time>2026-04-08T07:12:30.957Z</time></trkpt><trkpt lat="44.3637809" lon="9.8866532"><ele>213.99999999999997</ele><time>2026-04-08T07:12:31.957Z</time></trkpt><trkpt lat="44.3638469" lon="9.8865362"><ele>213.99999999999997</ele><time>2026-04-08T07:12:32.957Z</time></trkpt><trkpt lat="44.3639131" lon="9.8864186"><ele>214.0</ele><time>2026-04-08T07:12:33.957Z</time></trkpt><trkpt lat="44.3639773" lon="9.8863051"><ele>214.0</ele><time>2026-04-08T07:12:34.958Z</time></trkpt><trkpt lat="44.3640421" lon="9.8861901"><ele>216.0</ele><time>2026-04-08T07:12:35.957Z</time></trkpt><trkpt lat="44.3641062" lon="9.8860742"><ele>217.99999999999997</ele><time>2026-04-08T07:12:36.958Z</time></trkpt><trkpt lat="44.3641701" lon="9.8859603"><ele>219.99999999999997</ele><time>2026-04-08T07:12:37.957Z</time></trkpt><trkpt lat="44.3642325" lon="9.8858443"><ele>222.0</ele><time>2026-04-08T07:12:38.957Z</time></trkpt><trkpt lat="44.3642976" lon="9.8857297"><ele>224.0</ele><time>2026-04-08T07:12:39.958Z</time></trkpt><trkpt lat="44.3643627" lon="9.8856215"><ele>224.0</ele><time>2026-04-08T07:12:40.957Z</time></trkpt><trkpt lat="44.3644361" lon="9.8855154"><ele>223.99999999999997</ele><time>2026-04-08T07:12:41.957Z</time></trkpt><trkpt lat="44.3645136" lon="9.8854153"><ele>223.99999999999997</ele><time>2026-04-08T07:12:42.957Z</time></trkpt><trkpt lat="44.364593" lon="9.8853238"><ele>224.0</ele><time>2026-04-08T07:12:43.958Z</time></trkpt><trkpt lat="44.3646806" lon="9.8852443"><ele>224.0</ele><time>2026-04-08T07:12:44.958Z</time></trkpt><trkpt lat="44.3647755" lon="9.8851785"><ele>223.79999999999998</ele><time>2026-04-08T07:12:45.958Z</time></trkpt><trkpt lat="44.3648772" lon="9.8851228"><ele>223.59999999999997</ele><time>2026-04-08T07:12:46.958Z</time></trkpt><trkpt lat="44.36498" lon="9.8850764"><ele>223.4</ele><time>2026-04-08T07:12:47.957Z</time></trkpt><trkpt lat="44.3650844" lon="9.8850453"><ele>223.2</ele><time>2026-04-08T07:12:48.957Z</time></trkpt><trkpt lat="44.3651924" lon="9.8850356"><ele>223.0</ele><time>2026-04-08T07:12:49.957Z</time></trkpt><trkpt lat="44.3652999" lon="9.8850414"><ele>223.0</ele><time>2026-04-08T07:12:50.957Z</time></trkpt><trkpt lat="44.3654042" lon="9.885058"><ele>223.0</ele><time>2026-04-08T07:12:51.957Z</time></trkpt><trkpt lat="44.3655094" lon="9.8850796"><ele>223.0</ele><time>2026-04-08T07:12:52.957Z</time></trkpt><trkpt lat="44.3656131" lon="9.8850981"><ele>223.0</ele><time>2026-04-08T07:12:53.957Z</time></trkpt><trkpt lat="44.3657158" lon="9.8851181"><ele>223.0</ele><time>2026-04-08T07:12:54.958Z</time></trkpt><trkpt lat="44.3658152" lon="9.8851375"><ele>230.8</ele><time>2026-04-08T07:12:55.957Z</time></trkpt><trkpt lat="44.3659156" lon="9.8851527"><ele>238.60000000000002</ele><time>2026-04-08T07:12:56.957Z</time></trkpt><trkpt lat="44.3660175" lon="9.8851678"><ele>246.39999999999998</ele><time>2026-04-08T07:12:57.957Z</time></trkpt><trkpt lat="44.3661213" lon="9.8851869"><ele>254.2</ele><time>2026-04-08T07:12:58.957Z</time></trkpt><trkpt lat="44.3662238" lon="9.8851993"><ele>262.0</ele><time>2026-04-08T07:12:59.958Z</time></trkpt><trkpt lat="44.3663278" lon="9.8852069"><ele>258.8</ele><time>2026-04-08T07:13:00.958Z</time></trkpt><trkpt lat="44.3664329" lon="9.885214"><ele>255.6</ele><time>2026-04-08T07:13:01.958Z</time></trkpt><trkpt lat="44.3665352" lon="9.8852176"><ele>252.40000000000003</ele><time>2026-04-08T07:13:02.958Z</time></trkpt><trkpt lat="44.3666378" lon="9.8852182"><ele>249.20000000000002</ele><time>2026-04-08T07:13:03.957Z</time></trkpt><trkpt lat="44.3667402" lon="9.8852162"><ele>246.0</ele><time>2026-04-08T07:13:04.957Z</time></trkpt><trkpt lat="44.3668421" lon="9.8852186"><ele>246.0</ele><time>2026-04-08T07:13:05.958Z</time></trkpt><trkpt lat="44.3669437" lon="9.8852226"><ele>246.00000000000003</ele><time>2026-04-08T07:13:06.958Z</time></trkpt><trkpt lat="44.3670445" lon="9.8852265"><ele>246.00000000000003</ele><time>2026-04-08T07:13:07.958Z</time></trkpt><trkpt lat="44.36715" lon="9.8852304"><ele>246.0</ele><time>2026-04-08T07:13:08.957Z</time></trkpt><trkpt lat="44.3672582" lon="9.8852334"><ele>246.0</ele><time>2026-04-08T07:13:09.957Z</time></trkpt><trkpt lat="44.3673731" lon="9.8852342"><ele>242.25</ele><time>2026-04-08T07:13:10.957Z</time></trkpt><trkpt lat="44.3674912" lon="9.8852364"><ele>238.5</ele><time>2026-04-08T07:13:11.958Z</time></trkpt><trkpt lat="44.3676088" lon="9.8852368"><ele>234.75</ele><time>2026-04-08T07:13:12.957Z</time></trkpt><trkpt lat="44.3677272" lon="9.88524"><ele>231.0</ele><time>2026-04-08T07:13:13.957Z</time></trkpt><trkpt lat="44.3678473" lon="9.8852446"><ele>231.0</ele><time>2026-04-08T07:13:14.958Z</time></trkpt><trkpt lat="44.3679685" lon="9.8852609"><ele>231.0</ele><time>2026-04-08T07:13:15.958Z</time></trkpt><trkpt lat="44.3680848" lon="9.8852908"><ele>231.0</ele><time>2026-04-08T07:13:16.958Z</time></trkpt><trkpt lat="44.3681982" lon="9.8853317"><ele>231.0</ele><time>2026-04-08T07:13:17.957Z</time></trkpt><trkpt lat="44.3683103" lon="9.8853817"><ele>230.8</ele><time>2026-04-08T07:13:18.958Z</time></trkpt><trkpt lat="44.3684126" lon="9.8854391"><ele>230.60000000000002</ele><time>2026-04-08T07:13:19.958Z</time></trkpt><trkpt lat="44.3685089" lon="9.8854985"><ele>230.4</ele><time>2026-04-08T07:13:20.957Z</time></trkpt><trkpt lat="44.3686055" lon="9.8855575"><ele>230.2</ele><time>2026-04-08T07:13:21.958Z</time></trkpt><trkpt lat="44.3686986" lon="9.8856145"><ele>230.0</ele><time>2026-04-08T07:13:22.957Z</time></trkpt><trkpt lat="44.3687905" lon="9.8856717"><ele>230.2</ele><time>2026-04-08T07:13:23.957Z</time></trkpt><trkpt lat="44.3688833" lon="9.885726"><ele>230.4</ele><time>2026-04-08T07:13:24.957Z</time></trkpt><trkpt lat="44.3689735" lon="9.8857844"><ele>230.60000000000002</ele><time>2026-04-08T07:13:25.958Z</time></trkpt><trkpt lat="44.3690618" lon="9.8858442"><ele>230.8</ele><time>2026-04-08T07:13:26.957Z</time></trkpt><trkpt lat="44.369142" lon="9.8859001"><ele>231.0</ele><time>2026-04-08T07:13:27.958Z</time></trkpt><trkpt lat="44.3692206" lon="9.8859504"><ele>231.0</ele><time>2026-04-08T07:13:28.957Z</time></trkpt><trkpt lat="44.3692984" lon="9.8859978"><ele>231.0</ele><time>2026-04-08T07:13:29.957Z</time></trkpt><trkpt lat="44.3693741" lon="9.8860458"><ele>231.0</ele><time>2026-04-08T07:13:30.957Z</time></trkpt><trkpt lat="44.3694487" lon="9.8860916"><ele>231.0</ele><time>2026-04-08T07:13:31.957Z</time></trkpt><trkpt lat="44.3695257" lon="9.8861387"><ele>231.0</ele><time>2026-04-08T07:13:32.957Z</time></trkpt><trkpt lat="44.3696008" lon="9.8861934"><ele>231.0</ele><time>2026-04-08T07:13:33.957Z</time></trkpt><trkpt lat="44.3696793" lon="9.8862534"><ele>231.0</ele><time>2026-04-08T07:13:34.957Z</time></trkpt><trkpt lat="44.3697609" lon="9.8863159"><ele>231.00000000000003</ele><time>2026-04-08T07:13:35.957Z</time></trkpt><trkpt lat="44.3698458" lon="9.8863844"><ele>231.00000000000003</ele><time>2026-04-08T07:13:36.957Z</time></trkpt><trkpt lat="44.3699371" lon="9.8864586"><ele>231.0</ele><time>2026-04-08T07:13:37.958Z</time></trkpt><trkpt lat="44.3700351" lon="9.8865386"><ele>231.0</ele><time>2026-04-08T07:13:38.957Z</time></trkpt><trkpt lat="44.3701384" lon="9.8866169"><ele>231.0</ele><time>2026-04-08T07:13:39.957Z</time></trkpt><trkpt lat="44.3702436" lon="9.8866934"><ele>231.0</ele><time>2026-04-08T07:13:40.957Z</time></trkpt><trkpt lat="44.3703441" lon="9.8867694"><ele>231.0</ele><time>2026-04-08T07:13:41.957Z</time></trkpt><trkpt lat="44.370443" lon="9.8868413"><ele>231.0</ele><time>2026-04-08T07:13:42.958Z</time></trkpt><trkpt lat="44.3705443" lon="9.886901"><ele>231.20000000000002</ele><time>2026-04-08T07:13:43.957Z</time></trkpt><trkpt lat="44.3706446" lon="9.8869579"><ele>231.40000000000003</ele><time>2026-04-08T07:13:44.957Z</time></trkpt><trkpt lat="44.3707458" lon="9.8870089"><ele>231.6</ele><time>2026-04-08T07:13:45.957Z</time></trkpt><trkpt lat="44.3708503" lon="9.8870601"><ele>231.8</ele><time>2026-04-08T07:13:46.957Z</time></trkpt><trkpt lat="44.3709617" lon="9.8871157"><ele>232.0</ele><time>2026-04-08T07:13:47.958Z</time></trkpt><trkpt lat="44.3710799" lon="9.8871634"><ele>232.0</ele><time>2026-04-08T07:13:48.957Z</time></trkpt><trkpt lat="44.3712013" lon="9.8872001"><ele>232.0</ele><time>2026-04-08T07:13:49.957Z</time></trkpt><trkpt lat="44.3713222" lon="9.8872247"><ele>232.0</ele><time>2026-04-08T07:13:50.957Z</time></trkpt><trkpt lat="44.3714415" lon="9.8872439"><ele>232.0</ele><time>2026-04-08T07:13:51.957Z</time></trkpt><trkpt lat="44.3715601" lon="9.8872545"><ele>232.5</ele><time>2026-04-08T07:13:52.957Z</time></trkpt><trkpt lat="44.3716759" lon="9.8872601"><ele>233.0</ele><time>2026-04-08T07:13:53.958Z</time></trkpt><trkpt lat="44.3717907" lon="9.8872542"><ele>233.5</ele><time>2026-04-08T07:13:54.957Z</time></trkpt><trkpt lat="44.3719034" lon="9.8872375"><ele>234.0</ele><time>2026-04-08T07:13:55.957Z</time></trkpt><trkpt lat="44.372015" lon="9.8872117"><ele>234.0</ele><time>2026-04-08T07:13:56.957Z</time></trkpt><trkpt lat="44.3721274" lon="9.8871762"><ele>234.0</ele><time>2026-04-08T07:13:57.957Z</time></trkpt><trkpt lat="44.3722382" lon="9.8871404"><ele>234.0</ele><time>2026-04-08T07:13:58.957Z</time></trkpt><trkpt lat="44.372349" lon="9.8871106"><ele>234.0</ele><time>2026-04-08T07:13:59.957Z</time></trkpt><trkpt lat="44.3724593" lon="9.8870764"><ele>234.25</ele><time>2026-04-08T07:14:00.957Z</time></trkpt><trkpt lat="44.3725678" lon="9.8870395"><ele>234.5</ele><time>2026-04-08T07:14:01.958Z</time></trkpt><trkpt lat="44.3726804" lon="9.8870014"><ele>234.75</ele><time>2026-04-08T07:14:02.957Z</time></trkpt><trkpt lat="44.3727932" lon="9.8869693"><ele>235.0</ele><time>2026-04-08T07:14:03.957Z</time></trkpt><trkpt lat="44.3729074" lon="9.8869359"><ele>235.25</ele><time>2026-04-08T07:14:04.957Z</time></trkpt><trkpt lat="44.3730226" lon="9.8869002"><ele>235.5</ele><time>2026-04-08T07:14:05.957Z</time></trkpt><trkpt lat="44.3731409" lon="9.8868683"><ele>235.75</ele><time>2026-04-08T07:14:06.958Z</time></trkpt><trkpt lat="44.3732605" lon="9.8868336"><ele>236.0</ele><time>2026-04-08T07:14:07.957Z</time></trkpt><trkpt lat="44.3733791" lon="9.8867966"><ele>236.0</ele><time>2026-04-08T07:14:08.957Z</time></trkpt><trkpt lat="44.3734999" lon="9.8867623"><ele>236.0</ele><time>2026-04-08T07:14:09.957Z</time></trkpt><trkpt lat="44.3736191" lon="9.8867267"><ele>236.0</ele><time>2026-04-08T07:14:10.957Z</time></trkpt><trkpt lat="44.3737386" lon="9.8866891"><ele>236.0</ele><time>2026-04-08T07:14:11.957Z</time></trkpt><trkpt lat="44.3738561" lon="9.8866528"><ele>235.75</ele><time>2026-04-08T07:14:12.958Z</time></trkpt><trkpt lat="44.3739727" lon="9.8866183"><ele>235.5</ele><time>2026-04-08T07:14:13.957Z</time></trkpt><trkpt lat="44.3740883" lon="9.8865786"><ele>235.25</ele><time>2026-04-08T07:14:14.957Z</time></trkpt><trkpt lat="44.3742034" lon="9.8865421"><ele>235.0</ele><time>2026-04-08T07:14:15.957Z</time></trkpt><trkpt lat="44.3743152" lon="9.8865095"><ele>235.0</ele><time>2026-04-08T07:14:16.957Z</time></trkpt><trkpt lat="44.3744252" lon="9.8864751"><ele>235.0</ele><time>2026-04-08T07:14:17.957Z</time></trkpt><trkpt lat="44.3745343" lon="9.8864391"><ele>235.0</ele><time>2026-04-08T07:14:18.957Z</time></trkpt><trkpt lat="44.3746421" lon="9.8864076"><ele>235.0</ele><time>2026-04-08T07:14:19.957Z</time></trkpt><trkpt lat="44.3747482" lon="9.8863716"><ele>235.0</ele><time>2026-04-08T07:14:20.958Z</time></trkpt><trkpt lat="44.3748556" lon="9.8863423"><ele>236.0</ele><time>2026-04-08T07:14:21.957Z</time></trkpt><trkpt lat="44.3749641" lon="9.8863142"><ele>237.0</ele><time>2026-04-08T07:14:22.957Z</time></trkpt><trkpt lat="44.375075" lon="9.8862788"><ele>238.0</ele><time>2026-04-08T07:14:23.957Z</time></trkpt><trkpt lat="44.3751891" lon="9.8862205"><ele>239.0</ele><time>2026-04-08T07:14:24.957Z</time></trkpt><trkpt lat="44.3752978" lon="9.886134"><ele>239.0</ele><time>2026-04-08T07:14:25.957Z</time></trkpt><trkpt lat="44.3754055" lon="9.886047"><ele>239.0</ele><time>2026-04-08T07:14:26.957Z</time></trkpt><trkpt lat="44.3755066" lon="9.8859646"><ele>239.0</ele><time>2026-04-08T07:14:27.958Z</time></trkpt><trkpt lat="44.3756009" lon="9.8858847"><ele>239.0</ele><time>2026-04-08T07:14:28.957Z</time></trkpt><trkpt lat="44.3756901" lon="9.8858127"><ele>239.83333333333334</ele><time>2026-04-08T07:14:29.957Z</time></trkpt><trkpt lat="44.3757709" lon="9.8857525"><ele>240.66666666666669</ele><time>2026-04-08T07:14:30.958Z</time></trkpt><trkpt lat="44.3758472" lon="9.885699"><ele>241.5</ele><time>2026-04-08T07:14:31.957Z</time></trkpt><trkpt lat="44.3759208" lon="9.8856463"><ele>242.33333333333331</ele><time>2026-04-08T07:14:32.958Z</time></trkpt><trkpt lat="44.3759948" lon="9.8855993"><ele>243.16666666666666</ele><time>2026-04-08T07:14:33.957Z</time></trkpt><trkpt lat="44.3760713" lon="9.8855533"><ele>244.0</ele><time>2026-04-08T07:14:34.957Z</time></trkpt><trkpt lat="44.3761483" lon="9.88551"><ele>243.99999999999997</ele><time>2026-04-08T07:14:35.957Z</time></trkpt><trkpt lat="44.3762265" lon="9.8854656"><ele>244.0</ele><time>2026-04-08T07:14:36.957Z</time></trkpt><trkpt lat="44.3763051" lon="9.885422"><ele>244.0</ele><time>2026-04-08T07:14:37.957Z</time></trkpt><trkpt lat="44.3763872" lon="9.8853804"><ele>244.0</ele><time>2026-04-08T07:14:38.957Z</time></trkpt><trkpt lat="44.3764729" lon="9.8853413"><ele>243.99999999999997</ele><time>2026-04-08T07:14:39.958Z</time></trkpt><trkpt lat="44.3765586" lon="9.885304"><ele>244.0</ele><time>2026-04-08T07:14:40.957Z</time></trkpt><trkpt lat="44.376647" lon="9.8852711"><ele>246.0</ele><time>2026-04-08T07:14:41.958Z</time></trkpt><trkpt lat="44.3767372" lon="9.8852418"><ele>247.99999999999997</ele><time>2026-04-08T07:14:42.958Z</time></trkpt><trkpt lat="44.376832" lon="9.885213"><ele>249.99999999999997</ele><time>2026-04-08T07:14:43.958Z</time></trkpt><trkpt lat="44.3769304" lon="9.8851857"><ele>252.0</ele><time>2026-04-08T07:14:44.957Z</time></trkpt><trkpt lat="44.3770318" lon="9.8851588"><ele>254.0</ele><time>2026-04-08T07:14:45.957Z</time></trkpt><trkpt lat="44.3771273" lon="9.8851323"><ele>252.0</ele><time>2026-04-08T07:14:46.958Z</time></trkpt><trkpt lat="44.377232" lon="9.8851011"><ele>249.99999999999997</ele><time>2026-04-08T07:14:48.958Z</time></trkpt><trkpt lat="44.3773072" lon="9.8850784"><ele>247.99999999999997</ele><time>2026-04-08T07:14:50.957Z</time></trkpt><trkpt lat="44.3773951" lon="9.8850478"><ele>246.0</ele><time>2026-04-08T07:14:52.958Z</time></trkpt><trkpt lat="44.37752" lon="9.8850015"><ele>244.0</ele><time>2026-04-08T07:14:54.957Z</time></trkpt><trkpt lat="44.3775933" lon="9.8849726"><ele>243.99999999999997</ele><time>2026-04-08T07:14:55.957Z</time></trkpt><trkpt lat="44.3776675" lon="9.8849405"><ele>244.0</ele><time>2026-04-08T07:14:56.958Z</time></trkpt><trkpt lat="44.3777473" lon="9.8849111"><ele>244.0</ele><time>2026-04-08T07:14:57.957Z</time></trkpt><trkpt lat="44.3778318" lon="9.8848793"><ele>244.0</ele><time>2026-04-08T07:14:58.957Z</time></trkpt><trkpt lat="44.3779244" lon="9.8848426"><ele>243.99999999999997</ele><time>2026-04-08T07:14:59.957Z</time></trkpt><trkpt lat="44.3780171" lon="9.884807"><ele>244.0</ele><time>2026-04-08T07:15:00.958Z</time></trkpt><trkpt lat="44.3781145" lon="9.8847676"><ele>244.79999999999998</ele><time>2026-04-08T07:15:01.958Z</time></trkpt><trkpt lat="44.3782173" lon="9.8847289"><ele>245.59999999999997</ele><time>2026-04-08T07:15:02.957Z</time></trkpt><trkpt lat="44.3783208" lon="9.8846853"><ele>246.4</ele><time>2026-04-08T07:15:03.957Z</time></trkpt><trkpt lat="44.3784273" lon="9.8846453"><ele>247.2</ele><time>2026-04-08T07:15:04.958Z</time></trkpt><trkpt lat="44.3785309" lon="9.8846043"><ele>248.0</ele><time>2026-04-08T07:15:05.957Z</time></trkpt><trkpt lat="44.3786311" lon="9.8845667"><ele>248.0</ele><time>2026-04-08T07:15:06.957Z</time></trkpt><trkpt lat="44.3787253" lon="9.8845257"><ele>248.0</ele><time>2026-04-08T07:15:07.957Z</time></trkpt><trkpt lat="44.3788175" lon="9.8844858"><ele>248.0</ele><time>2026-04-08T07:15:08.958Z</time></trkpt><trkpt lat="44.3789079" lon="9.8844386"><ele>248.0</ele><time>2026-04-08T07:15:09.957Z</time></trkpt><trkpt lat="44.3789924" lon="9.8843946"><ele>248.0</ele><time>2026-04-08T07:15:10.958Z</time></trkpt><trkpt lat="44.379078" lon="9.8843477"><ele>249.0</ele><time>2026-04-08T07:15:11.957Z</time></trkpt><trkpt lat="44.3791663" lon="9.8843005"><ele>250.0</ele><time>2026-04-08T07:15:12.957Z</time></trkpt><trkpt lat="44.3792583" lon="9.8842501"><ele>251.0</ele><time>2026-04-08T07:15:13.957Z</time></trkpt><trkpt lat="44.379357" lon="9.8842009"><ele>252.0</ele><time>2026-04-08T07:15:14.957Z</time></trkpt><trkpt lat="44.3794632" lon="9.8841513"><ele>253.0</ele><time>2026-04-08T07:15:15.957Z</time></trkpt><trkpt lat="44.3795797" lon="9.8841082"><ele>252.0</ele><time>2026-04-08T07:15:16.958Z</time></trkpt><trkpt lat="44.3797044" lon="9.8840726"><ele>251.0</ele><time>2026-04-08T07:15:17.957Z</time></trkpt><trkpt lat="44.3798316" lon="9.8840474"><ele>250.0</ele><time>2026-04-08T07:15:18.957Z</time></trkpt><trkpt lat="44.3799575" lon="9.8840414"><ele>249.0</ele><time>2026-04-08T07:15:19.957Z</time></trkpt><trkpt lat="44.3816055" lon="9.8847692"><ele>251.75</ele><time>2026-04-08T07:15:31.958Z</time></trkpt><trkpt lat="44.38173" lon="9.8847517"><ele>254.5</ele><time>2026-04-08T07:15:32.957Z</time></trkpt><trkpt lat="44.3818463" lon="9.8847153"><ele>257.25</ele><time>2026-04-08T07:15:33.957Z</time></trkpt><trkpt lat="44.3819622" lon="9.8846561"><ele>260.0</ele><time>2026-04-08T07:15:34.957Z</time></trkpt><trkpt lat="44.3820727" lon="9.8845772"><ele>260.0</ele><time>2026-04-08T07:15:35.958Z</time></trkpt><trkpt lat="44.3821771" lon="9.8844838"><ele>260.0</ele><time>2026-04-08T07:15:36.957Z</time></trkpt><trkpt lat="44.3822787" lon="9.8843835"><ele>260.0</ele><time>2026-04-08T07:15:37.958Z</time></trkpt><trkpt lat="44.3823787" lon="9.8842796"><ele>260.0</ele><time>2026-04-08T07:15:38.957Z</time></trkpt><trkpt lat="44.3824776" lon="9.8841767"><ele>257.25</ele><time>2026-04-08T07:15:39.958Z</time></trkpt><trkpt lat="44.3825763" lon="9.8840781"><ele>254.5</ele><time>2026-04-08T07:15:40.958Z</time></trkpt><trkpt lat="44.3826803" lon="9.8839838"><ele>251.75</ele><time>2026-04-08T07:15:41.957Z</time></trkpt><trkpt lat="44.3827928" lon="9.8839132"><ele>249.0</ele><time>2026-04-08T07:15:42.957Z</time></trkpt><trkpt lat="44.3829091" lon="9.8838667"><ele>249.0</ele><time>2026-04-08T07:15:43.957Z</time></trkpt><trkpt lat="44.3830292" lon="9.883841"><ele>249.0</ele><time>2026-04-08T07:15:44.958Z</time></trkpt><trkpt lat="44.3831517" lon="9.8838255"><ele>249.0</ele><time>2026-04-08T07:15:45.957Z</time></trkpt><trkpt lat="44.3832777" lon="9.8838085"><ele>249.0</ele><time>2026-04-08T07:15:46.957Z</time></trkpt><trkpt lat="44.3834004" lon="9.8837937"><ele>249.0</ele><time>2026-04-08T07:15:47.958Z</time></trkpt><trkpt lat="44.3835149" lon="9.8837758"><ele>249.0</ele><time>2026-04-08T07:15:48.957Z</time></trkpt><trkpt lat="44.3836313" lon="9.8837571"><ele>249.0</ele><time>2026-04-08T07:15:49.957Z</time></trkpt><trkpt lat="44.3837454" lon="9.8837406"><ele>249.0</ele><time>2026-04-08T07:15:50.957Z</time></trkpt><trkpt lat="44.3838631" lon="9.8837346"><ele>250.0</ele><time>2026-04-08T07:15:51.957Z</time></trkpt><trkpt lat="44.3839841" lon="9.8837323"><ele>251.0</ele><time>2026-04-08T07:15:52.958Z</time></trkpt><trkpt lat="44.3841063" lon="9.8837327"><ele>252.0</ele><time>2026-04-08T07:15:53.957Z</time></trkpt><trkpt lat="44.3842299" lon="9.8837414"><ele>253.0</ele><time>2026-04-08T07:15:54.957Z</time></trkpt><trkpt lat="44.3843539" lon="9.8837517"><ele>253.0</ele><time>2026-04-08T07:15:55.957Z</time></trkpt><trkpt lat="44.3844739" lon="9.8837608"><ele>253.0</ele><time>2026-04-08T07:15:56.957Z</time></trkpt><trkpt lat="44.3845936" lon="9.8837778"><ele>253.0</ele><time>2026-04-08T07:15:57.958Z</time></trkpt><trkpt lat="44.3847139" lon="9.8837927"><ele>253.0</ele><time>2026-04-08T07:15:58.957Z</time></trkpt><trkpt lat="44.3848334" lon="9.8838095"><ele>253.75</ele><time>2026-04-08T07:15:59.957Z</time></trkpt><trkpt lat="44.3849548" lon="9.8838259"><ele>254.5</ele><time>2026-04-08T07:16:00.957Z</time></trkpt><trkpt lat="44.3850757" lon="9.8838436"><ele>255.25</ele><time>2026-04-08T07:16:01.957Z</time></trkpt><trkpt lat="44.3851964" lon="9.8838625"><ele>256.0</ele><time>2026-04-08T07:16:02.957Z</time></trkpt><trkpt lat="44.3853171" lon="9.8838788"><ele>256.0</ele><time>2026-04-08T07:16:03.958Z</time></trkpt><trkpt lat="44.3854389" lon="9.8838949"><ele>256.0</ele><time>2026-04-08T07:16:04.957Z</time></trkpt><trkpt lat="44.3855589" lon="9.8839105"><ele>256.0</ele><time>2026-04-08T07:16:05.957Z</time></trkpt><trkpt lat="44.3856764" lon="9.8839255"><ele>256.0</ele><time>2026-04-08T07:16:06.957Z</time></trkpt><trkpt lat="44.3857963" lon="9.8839397"><ele>256.5</ele><time>2026-04-08T07:16:07.957Z</time></trkpt><trkpt lat="44.3859164" lon="9.8839576"><ele>257.0</ele><time>2026-04-08T07:16:08.957Z</time></trkpt><trkpt lat="44.3860378" lon="9.8839745"><ele>257.5</ele><time>2026-04-08T07:16:09.957Z</time></trkpt><trkpt lat="44.3861565" lon="9.8839925"><ele>258.0</ele><time>2026-04-08T07:16:10.957Z</time></trkpt><trkpt lat="44.3862694" lon="9.8840103"><ele>258.6</ele><time>2026-04-08T07:16:11.957Z</time></trkpt><trkpt lat="44.3863822" lon="9.8840274"><ele>259.20000000000005</ele><time>2026-04-08T07:16:12.957Z</time></trkpt><trkpt lat="44.3864933" lon="9.8840439"><ele>259.8</ele><time>2026-04-08T07:16:13.958Z</time></trkpt><trkpt lat="44.3866029" lon="9.8840609"><ele>260.40000000000003</ele><time>2026-04-08T07:16:14.957Z</time></trkpt><trkpt lat="44.3867125" lon="9.8840788"><ele>261.0</ele><time>2026-04-08T07:16:15.958Z</time></trkpt><trkpt lat="44.3868209" lon="9.8840967"><ele>261.0</ele><time>2026-04-08T07:16:16.957Z</time></trkpt><trkpt lat="44.3869282" lon="9.8841103"><ele>261.0</ele><time>2026-04-08T07:16:17.957Z</time></trkpt><trkpt lat="44.3870343" lon="9.8841246"><ele>261.0</ele><time>2026-04-08T07:16:18.957Z</time></trkpt><trkpt lat="44.3871423" lon="9.8841386"><ele>261.0</ele><time>2026-04-08T07:16:19.957Z</time></trkpt><trkpt lat="44.3872497" lon="9.8841517"><ele>261.0</ele><time>2026-04-08T07:16:20.957Z</time></trkpt><trkpt lat="44.3873574" lon="9.8841653"><ele>262.0</ele><time>2026-04-08T07:16:21.957Z</time></trkpt><trkpt lat="44.3874699" lon="9.8841825"><ele>263.0</ele><time>2026-04-08T07:16:22.957Z</time></trkpt><trkpt lat="44.3875827" lon="9.8842029"><ele>264.0</ele><time>2026-04-08T07:16:23.957Z</time></trkpt><trkpt lat="44.3877021" lon="9.8842253"><ele>265.0</ele><time>2026-04-08T07:16:24.957Z</time></trkpt><trkpt lat="44.3878249" lon="9.8842452"><ele>265.0</ele><time>2026-04-08T07:16:25.957Z</time></trkpt><trkpt lat="44.3879521" lon="9.8842622"><ele>265.0</ele><time>2026-04-08T07:16:26.957Z</time></trkpt><trkpt lat="44.388087" lon="9.884278"><ele>265.0</ele><time>2026-04-08T07:16:27.958Z</time></trkpt><trkpt lat="44.3882306" lon="9.8842969"><ele>265.0</ele><time>2026-04-08T07:16:28.958Z</time></trkpt><trkpt lat="44.3883776" lon="9.8843208"><ele>265.0</ele><time>2026-04-08T07:16:29.957Z</time></trkpt><trkpt lat="44.3885253" lon="9.8843432"><ele>265.0</ele><time>2026-04-08T07:16:30.957Z</time></trkpt><trkpt lat="44.3886788" lon="9.8843659"><ele>265.0</ele><time>2026-04-08T07:16:31.957Z</time></trkpt><trkpt lat="44.3888339" lon="9.8843868"><ele>265.0</ele><time>2026-04-08T07:16:32.957Z</time></trkpt><trkpt lat="44.3889944" lon="9.8844047"><ele>265.0</ele><time>2026-04-08T07:16:33.957Z</time></trkpt><trkpt lat="44.3891589" lon="9.8844193"><ele>265.0</ele><time>2026-04-08T07:16:34.957Z</time></trkpt><trkpt lat="44.3893245" lon="9.8844253"><ele>265.0</ele><time>2026-04-08T07:16:35.957Z</time></trkpt><trkpt lat="44.3894871" lon="9.8844222"><ele>265.0</ele><time>2026-04-08T07:16:36.958Z</time></trkpt><trkpt lat="44.3896479" lon="9.8844054"><ele>265.0</ele><time>2026-04-08T07:16:37.957Z</time></trkpt><trkpt lat="44.3898054" lon="9.8843746"><ele>266.0</ele><time>2026-04-08T07:16:38.958Z</time></trkpt><trkpt lat="44.389964" lon="9.8843279"><ele>267.0</ele><time>2026-04-08T07:16:39.957Z</time></trkpt><trkpt lat="44.3901214" lon="9.8842719"><ele>268.0</ele><time>2026-04-08T07:16:40.957Z</time></trkpt><trkpt lat="44.3902812" lon="9.8842033"><ele>271.0</ele><time>2026-04-08T07:16:41.957Z</time></trkpt><trkpt lat="44.3904378" lon="9.8841202"><ele>274.0</ele><time>2026-04-08T07:16:42.957Z</time></trkpt><trkpt lat="44.3905871" lon="9.8840219"><ele>277.0</ele><time>2026-04-08T07:16:43.957Z</time></trkpt><trkpt lat="44.3907279" lon="9.8839104"><ele>277.0</ele><time>2026-04-08T07:16:44.958Z</time></trkpt><trkpt lat="44.3908595" lon="9.883789"><ele>277.0</ele><time>2026-04-08T07:16:45.958Z</time></trkpt><trkpt lat="44.3909877" lon="9.8836621"><ele>277.0</ele><time>2026-04-08T07:16:46.957Z</time></trkpt><trkpt lat="44.3911145" lon="9.8835349"><ele>278.66666666666663</ele><time>2026-04-08T07:16:47.958Z</time></trkpt><trkpt lat="44.3912419" lon="9.8834099"><ele>280.3333333333333</ele><time>2026-04-08T07:16:48.957Z</time></trkpt><trkpt lat="44.3913664" lon="9.8832853"><ele>282.0</ele><time>2026-04-08T07:16:49.957Z</time></trkpt><trkpt lat="44.391488" lon="9.8831635"><ele>282.0</ele><time>2026-04-08T07:16:50.957Z</time></trkpt><trkpt lat="44.3916078" lon="9.8830411"><ele>282.0</ele><time>2026-04-08T07:16:51.957Z</time></trkpt><trkpt lat="44.3917259" lon="9.882918"><ele>282.0</ele><time>2026-04-08T07:16:52.957Z</time></trkpt><trkpt lat="44.391842" lon="9.8827952"><ele>282.0</ele><time>2026-04-08T07:16:53.957Z</time></trkpt><trkpt lat="44.3919581" lon="9.8826704"><ele>283.5</ele><time>2026-04-08T07:16:54.957Z</time></trkpt><trkpt lat="44.3920747" lon="9.8825486"><ele>285.0</ele><time>2026-04-08T07:16:55.957Z</time></trkpt><trkpt lat="44.3921908" lon="9.8824322"><ele>286.5</ele><time>2026-04-08T07:16:56.957Z</time></trkpt><trkpt lat="44.3923052" lon="9.88232"><ele>288.0</ele><time>2026-04-08T07:16:57.958Z</time></trkpt><trkpt lat="44.3924219" lon="9.8822049"><ele>288.0</ele><time>2026-04-08T07:16:58.958Z</time></trkpt><trkpt lat="44.3925402" lon="9.8820932"><ele>288.0</ele><time>2026-04-08T07:16:59.957Z</time></trkpt><trkpt lat="44.3926565" lon="9.8819815"><ele>288.0</ele><time>2026-04-08T07:17:00.957Z</time></trkpt><trkpt lat="44.3927728" lon="9.8818701"><ele>288.0</ele><time>2026-04-08T07:17:01.957Z</time></trkpt><trkpt lat="44.3928865" lon="9.8817583"><ele>287.0</ele><time>2026-04-08T07:17:02.958Z</time></trkpt><trkpt lat="44.3930017" lon="9.8816421"><ele>286.0</ele><time>2026-04-08T07:17:03.957Z</time></trkpt><trkpt lat="44.3931115" lon="9.8815319"><ele>285.0</ele><time>2026-04-08T07:17:04.958Z</time></trkpt><trkpt lat="44.3932132" lon="9.8814272"><ele>284.0</ele><time>2026-04-08T07:17:05.957Z</time></trkpt><trkpt lat="44.3933173" lon="9.8813434"><ele>284.0</ele><time>2026-04-08T07:17:06.958Z</time></trkpt><trkpt lat="44.3934256" lon="9.8813132"><ele>284.0</ele><time>2026-04-08T07:17:07.957Z</time></trkpt><trkpt lat="44.393538" lon="9.8813354"><ele>284.0</ele><time>2026-04-08T07:17:08.957Z</time></trkpt><trkpt lat="44.3936382" lon="9.8814165"><ele>284.0</ele><time>2026-04-08T07:17:09.957Z</time></trkpt><trkpt lat="44.3937276" lon="9.8815426"><ele>284.0</ele><time>2026-04-08T07:17:10.957Z</time></trkpt><trkpt lat="44.3938234" lon="9.8816954"><ele>284.0</ele><time>2026-04-08T07:17:11.957Z</time></trkpt><trkpt lat="44.3939319" lon="9.8818698"><ele>284.0</ele><time>2026-04-08T07:17:12.958Z</time></trkpt><trkpt lat="44.394045" lon="9.8820441"><ele>284.33333333333337</ele><time>2026-04-08T07:17:13.957Z</time></trkpt><trkpt lat="44.3941502" lon="9.8822106"><ele>284.6666666666667</ele><time>2026-04-08T07:17:14.957Z</time></trkpt><trkpt lat="44.3942635" lon="9.8823661"><ele>285.0</ele><time>2026-04-08T07:17:15.957Z</time></trkpt><trkpt lat="44.394402" lon="9.8824833"><ele>285.0</ele><time>2026-04-08T07:17:16.957Z</time></trkpt><trkpt lat="44.3945602" lon="9.8825532"><ele>285.0</ele><time>2026-04-08T07:17:17.958Z</time></trkpt><trkpt lat="44.3947391" lon="9.8825725"><ele>285.0</ele><time>2026-04-08T07:17:18.957Z</time></trkpt><trkpt lat="44.3949389" lon="9.8825667"><ele>284.0</ele><time>2026-04-08T07:17:19.957Z</time></trkpt><trkpt lat="44.395134" lon="9.8825706"><ele>283.0</ele><time>2026-04-08T07:17:20.957Z</time></trkpt><trkpt lat="44.3953239" lon="9.8826101"><ele>282.0</ele><time>2026-04-08T07:17:21.958Z</time></trkpt><trkpt lat="44.3955076" lon="9.8826692"><ele>286.6666666666667</ele><time>2026-04-08T07:17:22.957Z</time></trkpt><trkpt lat="44.3956901" lon="9.882734"><ele>291.33333333333337</ele><time>2026-04-08T07:17:23.958Z</time></trkpt><trkpt lat="44.3958782" lon="9.8828014"><ele>296.0</ele><time>2026-04-08T07:17:24.958Z</time></trkpt><trkpt lat="44.3960604" lon="9.8828636"><ele>296.0</ele><time>2026-04-08T07:17:25.957Z</time></trkpt><trkpt lat="44.3962284" lon="9.8829224"><ele>296.0</ele><time>2026-04-08T07:17:26.957Z</time></trkpt><trkpt lat="44.3963733" lon="9.883"><ele>296.0</ele><time>2026-04-08T07:17:27.958Z</time></trkpt><trkpt lat="44.3965005" lon="9.8831018"><ele>299.0</ele><time>2026-04-08T07:17:28.957Z</time></trkpt><trkpt lat="44.3966069" lon="9.8832322"><ele>302.0</ele><time>2026-04-08T07:17:29.957Z</time></trkpt><trkpt lat="44.3966924" lon="9.8833916"><ele>305.0</ele><time>2026-04-08T07:17:30.958Z</time></trkpt><trkpt lat="44.3967618" lon="9.8835767"><ele>308.0</ele><time>2026-04-08T07:17:31.957Z</time></trkpt><trkpt lat="44.3968317" lon="9.8837776"><ele>308.0</ele><time>2026-04-08T07:17:32.957Z</time></trkpt><trkpt lat="44.3969125" lon="9.8839939"><ele>308.0</ele><time>2026-04-08T07:17:33.957Z</time></trkpt><trkpt lat="44.3970056" lon="9.8842161"><ele>308.0</ele><time>2026-04-08T07:17:34.957Z</time></trkpt><trkpt lat="44.3971093" lon="9.8844292"><ele>313.6666666666667</ele><time>2026-04-08T07:17:35.958Z</time></trkpt><trkpt lat="44.3972197" lon="9.8846437"><ele>319.3333333333333</ele><time>2026-04-08T07:17:36.957Z</time></trkpt><trkpt lat="44.3973281" lon="9.8848513"><ele>325.0</ele><time>2026-04-08T07:17:37.957Z</time></trkpt><trkpt lat="44.3974296" lon="9.8850432"><ele>322.0</ele><time>2026-04-08T07:17:38.958Z</time></trkpt><trkpt lat="44.3975224" lon="9.8852179"><ele>319.0</ele><time>2026-04-08T07:17:39.958Z</time></trkpt><trkpt lat="44.3976136" lon="9.8853669"><ele>316.0</ele><time>2026-04-08T07:17:40.958Z</time></trkpt><trkpt lat="44.397713" lon="9.8854914"><ele>313.0</ele><time>2026-04-08T07:17:41.958Z</time></trkpt><trkpt lat="44.3978131" lon="9.8855985"><ele>313.0</ele><time>2026-04-08T07:17:42.957Z</time></trkpt><trkpt lat="44.3979154" lon="9.8856709"><ele>313.0</ele><time>2026-04-08T07:17:43.957Z</time></trkpt><trkpt lat="44.3980303" lon="9.8856827"><ele>313.0</ele><time>2026-04-08T07:17:44.957Z</time></trkpt><trkpt lat="44.3981509" lon="9.8856362"><ele>313.0</ele><time>2026-04-08T07:17:45.958Z</time></trkpt><trkpt lat="44.398278" lon="9.8855793"><ele>316.75</ele><time>2026-04-08T07:17:46.957Z</time></trkpt><trkpt lat="44.3984179" lon="9.8856047"><ele>320.5</ele><time>2026-04-08T07:17:47.957Z</time></trkpt><trkpt lat="44.398564" lon="9.885666"><ele>324.25</ele><time>2026-04-08T07:17:48.957Z</time></trkpt><trkpt lat="44.3987129" lon="9.8856875"><ele>328.0</ele><time>2026-04-08T07:17:49.957Z</time></trkpt><trkpt lat="44.3988537" lon="9.8856966"><ele>324.0</ele><time>2026-04-08T07:17:50.957Z</time></trkpt><trkpt lat="44.3989818" lon="9.8857858"><ele>320.0</ele><time>2026-04-08T07:17:51.958Z</time></trkpt><trkpt lat="44.3990834" lon="9.8859277"><ele>316.0</ele><time>2026-04-08T07:17:52.957Z</time></trkpt><trkpt lat="44.3991974" lon="9.8860357"><ele>312.0</ele><time>2026-04-08T07:17:53.957Z</time></trkpt><trkpt lat="44.3993493" lon="9.886086"><ele>312.0</ele><time>2026-04-08T07:17:54.957Z</time></trkpt><trkpt lat="44.3995251" lon="9.8861205"><ele>312.0</ele><time>2026-04-08T07:17:55.957Z</time></trkpt><trkpt lat="44.3997079" lon="9.8861712"><ele>312.0</ele><time>2026-04-08T07:17:56.957Z</time></trkpt><trkpt lat="44.39986" lon="9.8862592"><ele>319.0</ele><time>2026-04-08T07:17:57.957Z</time></trkpt><trkpt lat="44.3999844" lon="9.886389"><ele>326.0</ele><time>2026-04-08T07:17:58.957Z</time></trkpt><trkpt lat="44.4000728" lon="9.8865657"><ele>333.0</ele><time>2026-04-08T07:17:59.957Z</time></trkpt><trkpt lat="44.4001386" lon="9.8867666"><ele>333.0</ele><time>2026-04-08T07:18:00.957Z</time></trkpt><trkpt lat="44.4001857" lon="9.8869505"><ele>333.0</ele><time>2026-04-08T07:18:01.957Z</time></trkpt><trkpt lat="44.4002283" lon="9.8871202"><ele>333.0</ele><time>2026-04-08T07:18:02.957Z</time></trkpt><trkpt lat="44.4002766" lon="9.8872829"><ele>333.0</ele><time>2026-04-08T07:18:03.957Z</time></trkpt><trkpt lat="44.4003427" lon="9.8874278"><ele>333.0</ele><time>2026-04-08T07:18:04.957Z</time></trkpt><trkpt lat="44.400435" lon="9.8875555"><ele>333.0</ele><time>2026-04-08T07:18:05.957Z</time></trkpt><trkpt lat="44.4005561" lon="9.8876724"><ele>333.0</ele><time>2026-04-08T07:18:06.957Z</time></trkpt><trkpt lat="44.4006885" lon="9.8878022"><ele>333.0</ele><time>2026-04-08T07:18:07.957Z</time></trkpt><trkpt lat="44.4008047" lon="9.8879126"><ele>336.5</ele><time>2026-04-08T07:18:08.957Z</time></trkpt><trkpt lat="44.4009114" lon="9.8880185"><ele>340.0</ele><time>2026-04-08T07:18:09.957Z</time></trkpt><trkpt lat="44.4010063" lon="9.8881184"><ele>343.5</ele><time>2026-04-08T07:18:10.958Z</time></trkpt><trkpt lat="44.4010953" lon="9.8881998"><ele>347.0</ele><time>2026-04-08T07:18:11.957Z</time></trkpt><trkpt lat="44.4011759" lon="9.8882711"><ele>347.0</ele><time>2026-04-08T07:18:12.957Z</time></trkpt><trkpt lat="44.4012427" lon="9.8883143"><ele>347.0</ele><time>2026-04-08T07:18:13.957Z</time></trkpt><trkpt lat="44.4013483" lon="9.8882844"><ele>347.0</ele><time>2026-04-08T07:18:15.957Z</time></trkpt><trkpt lat="44.401356" lon="9.8881354"><ele>347.0</ele><time>2026-04-08T07:18:17.958Z</time></trkpt><trkpt lat="44.4013083" lon="9.88805"><ele>347.0</ele><time>2026-04-08T07:18:18.957Z</time></trkpt><trkpt lat="44.401234" lon="9.8879582"><ele>347.0</ele><time>2026-04-08T07:18:19.957Z</time></trkpt><trkpt lat="44.4011401" lon="9.8878497"><ele>347.0</ele><time>2026-04-08T07:18:20.957Z</time></trkpt><trkpt lat="44.4010368" lon="9.8877275"><ele>347.0</ele><time>2026-04-08T07:18:21.958Z</time></trkpt><trkpt lat="44.4009288" lon="9.8875949"><ele>347.0</ele><time>2026-04-08T07:18:22.958Z</time></trkpt><trkpt lat="44.4008259" lon="9.8874677"><ele>351.75</ele><time>2026-04-08T07:18:23.958Z</time></trkpt><trkpt lat="44.4007428" lon="9.8873312"><ele>356.5</ele><time>2026-04-08T07:18:24.957Z</time></trkpt><trkpt lat="44.4007035" lon="9.8871581"><ele>361.25</ele><time>2026-04-08T07:18:25.958Z</time></trkpt><trkpt lat="44.4006914" lon="9.8869666"><ele>366.0</ele><time>2026-04-08T07:18:26.957Z</time></trkpt><trkpt lat="44.4006716" lon="9.8867487"><ele>370.6666666666667</ele><time>2026-04-08T07:18:27.957Z</time></trkpt><trkpt lat="44.400638" lon="9.8865317"><ele>375.33333333333337</ele><time>2026-04-08T07:18:28.957Z</time></trkpt><trkpt lat="44.4005764" lon="9.8863196"><ele>380.0</ele><time>2026-04-08T07:18:29.958Z</time></trkpt><trkpt lat="44.4004811" lon="9.8861009"><ele>377.6666666666667</ele><time>2026-04-08T07:18:30.957Z</time></trkpt><trkpt lat="44.400372" lon="9.8858942"><ele>375.3333333333333</ele><time>2026-04-08T07:18:31.957Z</time></trkpt><trkpt lat="44.4002492" lon="9.8857094"><ele>373.0</ele><time>2026-04-08T07:18:32.957Z</time></trkpt><trkpt lat="44.4001061" lon="9.8855709"><ele>373.0</ele><time>2026-04-08T07:18:33.957Z</time></trkpt><trkpt lat="44.399954" lon="9.8854787"><ele>373.0</ele><time>2026-04-08T07:18:34.957Z</time></trkpt><trkpt lat="44.3998096" lon="9.8854123"><ele>373.0</ele><time>2026-04-08T07:18:35.957Z</time></trkpt><trkpt lat="44.3996788" lon="9.8853286"><ele>374.66666666666663</ele><time>2026-04-08T07:18:36.958Z</time></trkpt><trkpt lat="44.3995849" lon="9.885181"><ele>376.3333333333333</ele><time>2026-04-08T07:18:37.957Z</time></trkpt><trkpt lat="44.3994995" lon="9.8850048"><ele>378.0</ele><time>2026-04-08T07:18:38.957Z</time></trkpt><trkpt lat="44.3994025" lon="9.8848097"><ele>378.0</ele><time>2026-04-08T07:18:39.957Z</time></trkpt><trkpt lat="44.3993038" lon="9.8846123"><ele>378.0</ele><time>2026-04-08T07:18:40.957Z</time></trkpt><trkpt lat="44.3992056" lon="9.8844294"><ele>378.0</ele><time>2026-04-08T07:18:41.958Z</time></trkpt><trkpt lat="44.3990973" lon="9.8842645"><ele>374.3333333333333</ele><time>2026-04-08T07:18:42.958Z</time></trkpt><trkpt lat="44.3989892" lon="9.8841078"><ele>370.66666666666663</ele><time>2026-04-08T07:18:43.957Z</time></trkpt><trkpt lat="44.3988964" lon="9.8839339"><ele>367.0</ele><time>2026-04-08T07:18:44.958Z</time></trkpt><trkpt lat="44.3988295" lon="9.8837286"><ele>367.0</ele><time>2026-04-08T07:18:45.957Z</time></trkpt><trkpt lat="44.3987923" lon="9.8835115"><ele>367.0</ele><time>2026-04-08T07:18:46.958Z</time></trkpt><trkpt lat="44.3987821" lon="9.883273"><ele>367.0</ele><time>2026-04-08T07:18:47.958Z</time></trkpt><trkpt lat="44.3987849" lon="9.8830402"><ele>371.3333333333333</ele><time>2026-04-08T07:18:48.957Z</time></trkpt><trkpt lat="44.3987563" lon="9.8828148"><ele>375.6666666666667</ele><time>2026-04-08T07:18:49.958Z</time></trkpt><trkpt lat="44.3986804" lon="9.8826071"><ele>380.0</ele><time>2026-04-08T07:18:50.957Z</time></trkpt><trkpt lat="44.3985804" lon="9.8824069"><ele>382.75</ele><time>2026-04-08T07:18:51.958Z</time></trkpt><trkpt lat="44.3984953" lon="9.8822137"><ele>385.5</ele><time>2026-04-08T07:18:52.958Z</time></trkpt><trkpt lat="44.3984392" lon="9.8820292"><ele>388.25</ele><time>2026-04-08T07:18:53.957Z</time></trkpt><trkpt lat="44.3984109" lon="9.8818919"><ele>391.0</ele><time>2026-04-08T07:18:54.957Z</time></trkpt><trkpt lat="44.3984007" lon="9.8817859"><ele>391.0</ele><time>2026-04-08T07:18:55.957Z</time></trkpt><trkpt lat="44.3984727" lon="9.8816985"><ele>391.0</ele><time>2026-04-08T07:18:57.957Z</time></trkpt><trkpt lat="44.3985636" lon="9.881834"><ele>391.0</ele><time>2026-04-08T07:18:59.957Z</time></trkpt><trkpt lat="44.3986" lon="9.8819618"><ele>391.0</ele><time>2026-04-08T07:19:00.958Z</time></trkpt><trkpt lat="44.398647" lon="9.8821064"><ele>391.0</ele><time>2026-04-08T07:19:01.957Z</time></trkpt><trkpt lat="44.3987083" lon="9.8822518"><ele>391.0</ele><time>2026-04-08T07:19:02.957Z</time></trkpt><trkpt lat="44.3987976" lon="9.8823857"><ele>391.0</ele><time>2026-04-08T07:19:03.957Z</time></trkpt><trkpt lat="44.398929" lon="9.8824822"><ele>391.0</ele><time>2026-04-08T07:19:04.957Z</time></trkpt><trkpt lat="44.3990687" lon="9.8825416"><ele>391.0</ele><time>2026-04-08T07:19:05.958Z</time></trkpt><trkpt lat="44.3991933" lon="9.8826119"><ele>396.25</ele><time>2026-04-08T07:19:06.957Z</time></trkpt><trkpt lat="44.3992959" lon="9.8827409"><ele>401.5</ele><time>2026-04-08T07:19:07.957Z</time></trkpt><trkpt lat="44.3993538" lon="9.8829037"><ele>406.75</ele><time>2026-04-08T07:19:08.957Z</time></trkpt><trkpt lat="44.3993497" lon="9.8831094"><ele>412.0</ele><time>2026-04-08T07:19:09.957Z</time></trkpt><trkpt lat="44.3993677" lon="9.8832892"><ele>416.0</ele><time>2026-04-08T07:19:10.956Z</time></trkpt><trkpt lat="44.399437" lon="9.8834459"><ele>420.0</ele><time>2026-04-08T07:19:11.957Z</time></trkpt><trkpt lat="44.3995294" lon="9.883582"><ele>424.0</ele><time>2026-04-08T07:19:12.957Z</time></trkpt><trkpt lat="44.399707" lon="9.8837505"><ele>424.0</ele><time>2026-04-08T07:19:13.957Z</time></trkpt><trkpt lat="44.3998701" lon="9.8839381"><ele>424.0</ele><time>2026-04-08T07:19:14.957Z</time></trkpt><trkpt lat="44.400012" lon="9.8840954"><ele>424.0</ele><time>2026-04-08T07:19:15.957Z</time></trkpt><trkpt lat="44.4001588" lon="9.8842257"><ele>423.6666666666667</ele><time>2026-04-08T07:19:16.957Z</time></trkpt><trkpt lat="44.4003177" lon="9.8842986"><ele>423.33333333333337</ele><time>2026-04-08T07:19:17.957Z</time></trkpt><trkpt lat="44.4004595" lon="9.8843677"><ele>423.0</ele><time>2026-04-08T07:19:18.957Z</time></trkpt><trkpt lat="44.4005897" lon="9.8844901"><ele>423.0</ele><time>2026-04-08T07:19:19.957Z</time></trkpt><trkpt lat="44.400721" lon="9.884631"><ele>423.0</ele><time>2026-04-08T07:19:20.957Z</time></trkpt><trkpt lat="44.4008685" lon="9.8847611"><ele>423.0</ele><time>2026-04-08T07:19:21.957Z</time></trkpt><trkpt lat="44.4010275" lon="9.8848578"><ele>423.0</ele><time>2026-04-08T07:19:22.957Z</time></trkpt><trkpt lat="44.4012102" lon="9.884939"><ele>423.0</ele><time>2026-04-08T07:19:23.958Z</time></trkpt><trkpt lat="44.4014008" lon="9.8850269"><ele>423.0</ele><time>2026-04-08T07:19:24.957Z</time></trkpt><trkpt lat="44.4016153" lon="9.8851161"><ele>423.5</ele><time>2026-04-08T07:19:25.957Z</time></trkpt><trkpt lat="44.4018655" lon="9.8851796"><ele>424.0</ele><time>2026-04-08T07:19:26.958Z</time></trkpt><trkpt lat="44.4021142" lon="9.885224"><ele>430.6666666666667</ele><time>2026-04-08T07:19:27.957Z</time></trkpt><trkpt lat="44.4023329" lon="9.8852663"><ele>437.33333333333337</ele><time>2026-04-08T07:19:28.958Z</time></trkpt><trkpt lat="44.4025372" lon="9.8853126"><ele>444.0</ele><time>2026-04-08T07:19:29.957Z</time></trkpt><trkpt lat="44.4027161" lon="9.8853827"><ele>444.0</ele><time>2026-04-08T07:19:30.957Z</time></trkpt><trkpt lat="44.4028663" lon="9.8854853"><ele>444.0</ele><time>2026-04-08T07:19:31.957Z</time></trkpt><trkpt lat="44.4029963" lon="9.8856205"><ele>444.0</ele><time>2026-04-08T07:19:32.958Z</time></trkpt><trkpt lat="44.4031092" lon="9.8857743"><ele>444.0</ele><time>2026-04-08T07:19:33.957Z</time></trkpt><trkpt lat="44.4032245" lon="9.8859176"><ele>444.0</ele><time>2026-04-08T07:19:34.957Z</time></trkpt><trkpt lat="44.4033586" lon="9.8860415"><ele>444.0</ele><time>2026-04-08T07:19:35.957Z</time></trkpt><trkpt lat="44.4035022" lon="9.886158"><ele>444.0</ele><time>2026-04-08T07:19:36.957Z</time></trkpt><trkpt lat="44.4036332" lon="9.8862608"><ele>444.0</ele><time>2026-04-08T07:19:37.958Z</time></trkpt><trkpt lat="44.4037535" lon="9.8863534"><ele>444.0</ele><time>2026-04-08T07:19:38.957Z</time></trkpt><trkpt lat="44.4038613" lon="9.8864411"><ele>444.0</ele><time>2026-04-08T07:19:39.957Z</time></trkpt><trkpt lat="44.4039597" lon="9.8865226"><ele>446.5</ele><time>2026-04-08T07:19:40.956Z</time></trkpt><trkpt lat="44.4040493" lon="9.886596"><ele>449.0</ele><time>2026-04-08T07:19:41.957Z</time></trkpt><trkpt lat="44.404131" lon="9.88666"><ele>451.5</ele><time>2026-04-08T07:19:42.958Z</time></trkpt><trkpt lat="44.4042105" lon="9.8866935"><ele>454.0</ele><time>2026-04-08T07:19:43.957Z</time></trkpt><trkpt lat="44.4042838" lon="9.886662"><ele>456.5</ele><time>2026-04-08T07:19:44.957Z</time></trkpt><trkpt lat="44.4043235" lon="9.8865821"><ele>459.0</ele><time>2026-04-08T07:19:45.957Z</time></trkpt><trkpt lat="44.4043165" lon="9.8864768"><ele>459.0</ele><time>2026-04-08T07:19:46.958Z</time></trkpt><trkpt lat="44.4042621" lon="9.8863928"><ele>459.0</ele><time>2026-04-08T07:19:47.957Z</time></trkpt><trkpt lat="44.4041869" lon="9.8863386"><ele>459.0</ele><time>2026-04-08T07:19:48.957Z</time></trkpt><trkpt lat="44.4041005" lon="9.8862908"><ele>459.0</ele><time>2026-04-08T07:19:49.957Z</time></trkpt><trkpt lat="44.4040085" lon="9.886235"><ele>459.0</ele><time>2026-04-08T07:19:50.958Z</time></trkpt><trkpt lat="44.4039157" lon="9.8861647"><ele>459.5</ele><time>2026-04-08T07:19:51.957Z</time></trkpt><trkpt lat="44.4038188" lon="9.8860884"><ele>460.0</ele><time>2026-04-08T07:19:52.957Z</time></trkpt><trkpt lat="44.4037207" lon="9.8860083"><ele>460.5</ele><time>2026-04-08T07:19:53.958Z</time></trkpt><trkpt lat="44.4036258" lon="9.8859149"><ele>461.0</ele><time>2026-04-08T07:19:54.957Z</time></trkpt><trkpt lat="44.4035414" lon="9.8857918"><ele>461.0</ele><time>2026-04-08T07:19:55.957Z</time></trkpt><trkpt lat="44.4034702" lon="9.8856315"><ele>461.0</ele><time>2026-04-08T07:19:56.958Z</time></trkpt><trkpt lat="44.4033984" lon="9.8854493"><ele>461.0</ele><time>2026-04-08T07:19:57.957Z</time></trkpt><trkpt lat="44.4033089" lon="9.8852599"><ele>461.0</ele><time>2026-04-08T07:19:58.957Z</time></trkpt><trkpt lat="44.4031851" lon="9.8851079"><ele>461.66666666666663</ele><time>2026-04-08T07:19:59.957Z</time></trkpt><trkpt lat="44.4030486" lon="9.884998"><ele>462.33333333333337</ele><time>2026-04-08T07:20:00.958Z</time></trkpt><trkpt lat="44.4029009" lon="9.8848846"><ele>463.0</ele><time>2026-04-08T07:20:01.957Z</time></trkpt><trkpt lat="44.4027527" lon="9.8847669"><ele>463.0</ele><time>2026-04-08T07:20:02.957Z</time></trkpt><trkpt lat="44.4026051" lon="9.8846626"><ele>463.0</ele><time>2026-04-08T07:20:03.957Z</time></trkpt><trkpt lat="44.4024522" lon="9.8845816"><ele>463.0</ele><time>2026-04-08T07:20:04.958Z</time></trkpt><trkpt lat="44.4023046" lon="9.8844993"><ele>463.0</ele><time>2026-04-08T07:20:05.957Z</time></trkpt><trkpt lat="44.4021683" lon="9.8844087"><ele>463.0</ele><time>2026-04-08T07:20:06.957Z</time></trkpt><trkpt lat="44.4020414" lon="9.8843037"><ele>463.0</ele><time>2026-04-08T07:20:07.957Z</time></trkpt><trkpt lat="44.4019342" lon="9.8841707"><ele>463.0</ele><time>2026-04-08T07:20:08.957Z</time></trkpt><trkpt lat="44.4018447" lon="9.8839885"><ele>464.6666666666667</ele><time>2026-04-08T07:20:09.958Z</time></trkpt><trkpt lat="44.4017625" lon="9.8837813"><ele>466.33333333333337</ele><time>2026-04-08T07:20:10.958Z</time></trkpt><trkpt lat="44.4016883" lon="9.8835992"><ele>468.0</ele><time>2026-04-08T07:20:11.958Z</time></trkpt><trkpt lat="44.4016181" lon="9.8834306"><ele>470.4</ele><time>2026-04-08T07:20:12.957Z</time></trkpt><trkpt lat="44.401551" lon="9.8832731"><ele>472.79999999999995</ele><time>2026-04-08T07:20:13.957Z</time></trkpt><trkpt lat="44.4014851" lon="9.8831331"><ele>475.2</ele><time>2026-04-08T07:20:14.958Z</time></trkpt><trkpt lat="44.4014186" lon="9.8830189"><ele>477.6</ele><time>2026-04-08T07:20:15.957Z</time></trkpt><trkpt lat="44.401367" lon="9.8829215"><ele>480.0</ele><time>2026-04-08T07:20:16.958Z</time></trkpt><trkpt lat="44.4013563" lon="9.882824"><ele>480.0</ele><time>2026-04-08T07:20:17.957Z</time></trkpt><trkpt lat="44.4014055" lon="9.882742"><ele>480.0</ele><time>2026-04-08T07:20:18.957Z</time></trkpt><trkpt lat="44.4014719" lon="9.882728"><ele>480.0</ele><time>2026-04-08T07:20:19.957Z</time></trkpt><trkpt lat="44.4015442" lon="9.8827832"><ele>480.0</ele><time>2026-04-08T07:20:20.957Z</time></trkpt><trkpt lat="44.4015835" lon="9.8828908"><ele>480.0</ele><time>2026-04-08T07:20:21.957Z</time></trkpt><trkpt lat="44.4016186" lon="9.8830219"><ele>480.0</ele><time>2026-04-08T07:20:22.957Z</time></trkpt><trkpt lat="44.4016861" lon="9.8831642"><ele>480.0</ele><time>2026-04-08T07:20:23.957Z</time></trkpt><trkpt lat="44.4017651" lon="9.8833133"><ele>480.0</ele><time>2026-04-08T07:20:24.958Z</time></trkpt><trkpt lat="44.4018486" lon="9.8834613"><ele>480.0</ele><time>2026-04-08T07:20:25.957Z</time></trkpt><trkpt lat="44.4019621" lon="9.883605"><ele>480.0</ele><time>2026-04-08T07:20:26.958Z</time></trkpt><trkpt lat="44.4020986" lon="9.883729"><ele>480.66666666666663</ele><time>2026-04-08T07:20:27.957Z</time></trkpt><trkpt lat="44.402251" lon="9.8838084"><ele>481.3333333333333</ele><time>2026-04-08T07:20:28.957Z</time></trkpt><trkpt lat="44.4024159" lon="9.8838287"><ele>482.0</ele><time>2026-04-08T07:20:29.957Z</time></trkpt><trkpt lat="44.4025948" lon="9.8838126"><ele>482.0</ele><time>2026-04-08T07:20:30.957Z</time></trkpt><trkpt lat="44.4027782" lon="9.8838182"><ele>482.0</ele><time>2026-04-08T07:20:31.958Z</time></trkpt><trkpt lat="44.4029693" lon="9.8838734"><ele>482.0</ele><time>2026-04-08T07:20:32.957Z</time></trkpt><trkpt lat="44.4031499" lon="9.8839662"><ele>486.3333333333333</ele><time>2026-04-08T07:20:33.958Z</time></trkpt><trkpt lat="44.4033177" lon="9.8840276"><ele>490.66666666666663</ele><time>2026-04-08T07:20:34.956Z</time></trkpt><trkpt lat="44.4034764" lon="9.8840653"><ele>495.0</ele><time>2026-04-08T07:20:35.958Z</time></trkpt><trkpt lat="44.4036219" lon="9.8841274"><ele>495.0</ele><time>2026-04-08T07:20:36.958Z</time></trkpt><trkpt lat="44.4037553" lon="9.8842345"><ele>495.0</ele><time>2026-04-08T07:20:37.958Z</time></trkpt><trkpt lat="44.4038801" lon="9.8843729"><ele>495.0</ele><time>2026-04-08T07:20:38.958Z</time></trkpt><trkpt lat="44.4040088" lon="9.884509"><ele>495.0</ele><time>2026-04-08T07:20:39.957Z</time></trkpt><trkpt lat="44.4041389" lon="9.884617"><ele>495.0</ele><time>2026-04-08T07:20:40.958Z</time></trkpt><trkpt lat="44.4042581" lon="9.884719"><ele>495.0</ele><time>2026-04-08T07:20:41.958Z</time></trkpt><trkpt lat="44.4043605" lon="9.8848174"><ele>495.0</ele><time>2026-04-08T07:20:42.957Z</time></trkpt><trkpt lat="44.4044524" lon="9.8849022"><ele>495.0</ele><time>2026-04-08T07:20:43.957Z</time></trkpt><trkpt lat="44.4045358" lon="9.8849756"><ele>495.0</ele><time>2026-04-08T07:20:44.957Z</time></trkpt><trkpt lat="44.4046076" lon="9.8850519"><ele>495.0</ele><time>2026-04-08T07:20:45.957Z</time></trkpt><trkpt lat="44.4046736" lon="9.8851212"><ele>495.0</ele><time>2026-04-08T07:20:46.957Z</time></trkpt><trkpt lat="44.4047538" lon="9.8851573"><ele>495.0</ele><time>2026-04-08T07:20:47.958Z</time></trkpt><trkpt lat="44.4048356" lon="9.8851347"><ele>495.0</ele><time>2026-04-08T07:20:48.957Z</time></trkpt><trkpt lat="44.4048925" lon="9.8850477"><ele>495.0</ele><time>2026-04-08T07:20:49.958Z</time></trkpt><trkpt lat="44.4049078" lon="9.8849256"><ele>495.0</ele><time>2026-04-08T07:20:50.957Z</time></trkpt><trkpt lat="44.4048739" lon="9.8848071"><ele>495.0</ele><time>2026-04-08T07:20:51.958Z</time></trkpt><trkpt lat="44.4047691" lon="9.8846839"><ele>495.0</ele><time>2026-04-08T07:20:52.957Z</time></trkpt><trkpt lat="44.4046439" lon="9.8845097"><ele>495.0</ele><time>2026-04-08T07:20:53.958Z</time></trkpt><trkpt lat="44.4045092" lon="9.8843164"><ele>495.0</ele><time>2026-04-08T07:20:54.958Z</time></trkpt><trkpt lat="44.4043653" lon="9.8841028"><ele>495.0</ele><time>2026-04-08T07:20:55.957Z</time></trkpt><trkpt lat="44.404234" lon="9.8839239"><ele>499.66666666666663</ele><time>2026-04-08T07:20:56.957Z</time></trkpt><trkpt lat="44.4040969" lon="9.883777"><ele>504.3333333333333</ele><time>2026-04-08T07:20:57.958Z</time></trkpt><trkpt lat="44.4039617" lon="9.8836678"><ele>509.0</ele><time>2026-04-08T07:20:58.958Z</time></trkpt><trkpt lat="44.403849" lon="9.8835765"><ele>509.3333333333333</ele><time>2026-04-08T07:20:59.958Z</time></trkpt><trkpt lat="44.4037665" lon="9.8835034"><ele>509.66666666666663</ele><time>2026-04-08T07:21:00.957Z</time></trkpt><trkpt lat="44.4037204" lon="9.8834209"><ele>510.0</ele><time>2026-04-08T07:21:01.957Z</time></trkpt><trkpt lat="44.4037383" lon="9.8833312"><ele>510.33333333333337</ele><time>2026-04-08T07:21:02.957Z</time></trkpt><trkpt lat="44.4037934" lon="9.8832839"><ele>510.6666666666667</ele><time>2026-04-08T07:21:03.957Z</time></trkpt><trkpt lat="44.4038672" lon="9.8833076"><ele>511.0</ele><time>2026-04-08T07:21:04.957Z</time></trkpt><trkpt lat="44.4039691" lon="9.8833723"><ele>510.5</ele><time>2026-04-08T07:21:05.957Z</time></trkpt><trkpt lat="44.4041026" lon="9.8834458"><ele>510.0</ele><time>2026-04-08T07:21:06.957Z</time></trkpt><trkpt lat="44.404237" lon="9.8835171"><ele>509.5</ele><time>2026-04-08T07:21:07.957Z</time></trkpt><trkpt lat="44.404376" lon="9.8835837"><ele>509.0</ele><time>2026-04-08T07:21:08.957Z</time></trkpt><trkpt lat="44.4045307" lon="9.8836613"><ele>514.3333333333333</ele><time>2026-04-08T07:21:09.957Z</time></trkpt><trkpt lat="44.4047144" lon="9.8837581"><ele>519.6666666666666</ele><time>2026-04-08T07:21:10.957Z</time></trkpt><trkpt lat="44.404902" lon="9.8838814"><ele>525.0</ele><time>2026-04-08T07:21:11.957Z</time></trkpt><trkpt lat="44.4051023" lon="9.8840559"><ele>525.0</ele><time>2026-04-08T07:21:12.957Z</time></trkpt><trkpt lat="44.4052958" lon="9.8842516"><ele>525.0</ele><time>2026-04-08T07:21:13.957Z</time></trkpt><trkpt lat="44.4054674" lon="9.8844448"><ele>527.6666666666666</ele><time>2026-04-08T07:21:14.957Z</time></trkpt><trkpt lat="44.4056138" lon="9.8846522"><ele>530.3333333333333</ele><time>2026-04-08T07:21:15.958Z</time></trkpt><trkpt lat="44.4057288" lon="9.8848613"><ele>533.0</ele><time>2026-04-08T07:21:16.957Z</time></trkpt><trkpt lat="44.4058274" lon="9.8850607"><ele>526.6666666666666</ele><time>2026-04-08T07:21:17.957Z</time></trkpt><trkpt lat="44.4059393" lon="9.8852467"><ele>520.3333333333334</ele><time>2026-04-08T07:21:18.957Z</time></trkpt><trkpt lat="44.4060826" lon="9.885399"><ele>514.0</ele><time>2026-04-08T07:21:19.957Z</time></trkpt><trkpt lat="44.4062361" lon="9.8855415"><ele>522.6666666666667</ele><time>2026-04-08T07:21:20.957Z</time></trkpt><trkpt lat="44.4063776" lon="9.8856716"><ele>531.3333333333334</ele><time>2026-04-08T07:21:21.958Z</time></trkpt><trkpt lat="44.4065233" lon="9.8857886"><ele>540.0</ele><time>2026-04-08T07:21:22.958Z</time></trkpt><trkpt lat="44.4066823" lon="9.8858917"><ele>537.6666666666666</ele><time>2026-04-08T07:21:23.957Z</time></trkpt><trkpt lat="44.4068626" lon="9.8859762"><ele>535.3333333333333</ele><time>2026-04-08T07:21:24.958Z</time></trkpt><trkpt lat="44.4070493" lon="9.8860603"><ele>533.0</ele><time>2026-04-08T07:21:25.958Z</time></trkpt><trkpt lat="44.4072282" lon="9.8861346"><ele>533.0</ele><time>2026-04-08T07:21:26.957Z</time></trkpt><trkpt lat="44.4073971" lon="9.8862057"><ele>533.0</ele><time>2026-04-08T07:21:27.957Z</time></trkpt><trkpt lat="44.4075632" lon="9.8862922"><ele>533.0</ele><time>2026-04-08T07:21:28.957Z</time></trkpt><trkpt lat="44.407721" lon="9.8864363"><ele>533.0</ele><time>2026-04-08T07:21:29.958Z</time></trkpt><trkpt lat="44.4078787" lon="9.8865919"><ele>533.0</ele><time>2026-04-08T07:21:30.957Z</time></trkpt><trkpt lat="44.4080331" lon="9.8867522"><ele>533.0</ele><time>2026-04-08T07:21:31.956Z</time></trkpt><trkpt lat="44.4081745" lon="9.8869349"><ele>535.3333333333333</ele><time>2026-04-08T07:21:32.957Z</time></trkpt><trkpt lat="44.4083079" lon="9.8871172"><ele>537.6666666666666</ele><time>2026-04-08T07:21:33.957Z</time></trkpt><trkpt lat="44.4084646" lon="9.8872732"><ele>540.0</ele><time>2026-04-08T07:21:34.957Z</time></trkpt><trkpt lat="44.4086278" lon="9.8874073"><ele>540.0</ele><time>2026-04-08T07:21:35.957Z</time></trkpt><trkpt lat="44.4087776" lon="9.8875358"><ele>540.0</ele><time>2026-04-08T07:21:36.957Z</time></trkpt><trkpt lat="44.4089158" lon="9.8876519"><ele>540.0</ele><time>2026-04-08T07:21:37.957Z</time></trkpt><trkpt lat="44.4090385" lon="9.8877889"><ele>544.5</ele><time>2026-04-08T07:21:38.958Z</time></trkpt><trkpt lat="44.4091352" lon="9.8879438"><ele>549.0</ele><time>2026-04-08T07:21:39.958Z</time></trkpt><trkpt lat="44.4092271" lon="9.8880771"><ele>553.5</ele><time>2026-04-08T07:21:40.957Z</time></trkpt><trkpt lat="44.4093173" lon="9.888197"><ele>558.0</ele><time>2026-04-08T07:21:41.957Z</time></trkpt><trkpt lat="44.4093949" lon="9.8883093"><ele>558.0</ele><time>2026-04-08T07:21:42.958Z</time></trkpt><trkpt lat="44.4094467" lon="9.888426"><ele>558.0</ele><time>2026-04-08T07:21:43.957Z</time></trkpt><trkpt lat="44.4094473" lon="9.888559"><ele>558.0</ele><time>2026-04-08T07:21:44.958Z</time></trkpt><trkpt lat="44.4093938" lon="9.8886851"><ele>558.0</ele><time>2026-04-08T07:21:45.957Z</time></trkpt><trkpt lat="44.4093234" lon="9.8888202"><ele>558.0</ele><time>2026-04-08T07:21:46.957Z</time></trkpt><trkpt lat="44.4092425" lon="9.888974"><ele>560.0</ele><time>2026-04-08T07:21:47.957Z</time></trkpt><trkpt lat="44.4091565" lon="9.889132"><ele>562.0</ele><time>2026-04-08T07:21:48.958Z</time></trkpt><trkpt lat="44.4090708" lon="9.8892862"><ele>564.0</ele><time>2026-04-08T07:21:49.957Z</time></trkpt><trkpt lat="44.4089906" lon="9.8894399"><ele>566.0</ele><time>2026-04-08T07:21:50.958Z</time></trkpt><trkpt lat="44.4089271" lon="9.889614"><ele>564.6666666666666</ele><time>2026-04-08T07:21:51.957Z</time></trkpt><trkpt lat="44.4088991" lon="9.8898157"><ele>563.3333333333334</ele><time>2026-04-08T07:21:52.958Z</time></trkpt><trkpt lat="44.4089019" lon="9.8900285"><ele>562.0</ele><time>2026-04-08T07:21:53.957Z</time></trkpt><trkpt lat="44.4089367" lon="9.8902402"><ele>562.0</ele><time>2026-04-08T07:21:54.957Z</time></trkpt><trkpt lat="44.4090127" lon="9.8904363"><ele>562.0</ele><time>2026-04-08T07:21:55.957Z</time></trkpt><trkpt lat="44.4091082" lon="9.8906147"><ele>562.0</ele><time>2026-04-08T07:21:56.957Z</time></trkpt><trkpt lat="44.4092062" lon="9.8907871"><ele>554.6666666666667</ele><time>2026-04-08T07:21:57.958Z</time></trkpt><trkpt lat="44.4093125" lon="9.8909511"><ele>547.3333333333334</ele><time>2026-04-08T07:21:58.957Z</time></trkpt><trkpt lat="44.409446" lon="9.8910842"><ele>540.0</ele><time>2026-04-08T07:21:59.958Z</time></trkpt><trkpt lat="44.409611" lon="9.8911849"><ele>551.6666666666666</ele><time>2026-04-08T07:22:00.958Z</time></trkpt><trkpt lat="44.4098042" lon="9.8912875"><ele>563.3333333333333</ele><time>2026-04-08T07:22:01.957Z</time></trkpt><trkpt lat="44.4100228" lon="9.8914193"><ele>575.0</ele><time>2026-04-08T07:22:02.958Z</time></trkpt><trkpt lat="44.4102525" lon="9.8915582"><ele>578.0</ele><time>2026-04-08T07:22:03.958Z</time></trkpt><trkpt lat="44.410509" lon="9.8917079"><ele>581.0</ele><time>2026-04-08T07:22:04.957Z</time></trkpt><trkpt lat="44.4107665" lon="9.891853"><ele>586.0</ele><time>2026-04-08T07:22:05.957Z</time></trkpt><trkpt lat="44.4109956" lon="9.8919813"><ele>591.0</ele><time>2026-04-08T07:22:06.958Z</time></trkpt><trkpt lat="44.4112105" lon="9.8921017"><ele>592.0</ele><time>2026-04-08T07:22:07.958Z</time></trkpt><trkpt lat="44.4114088" lon="9.892227"><ele>593.0</ele><time>2026-04-08T07:22:08.957Z</time></trkpt><trkpt lat="44.4115951" lon="9.892393"><ele>594.0</ele><time>2026-04-08T07:22:09.957Z</time></trkpt><trkpt lat="44.4117592" lon="9.8925863"><ele>599.0</ele><time>2026-04-08T07:22:10.957Z</time></trkpt><trkpt lat="44.4118994" lon="9.8927652"><ele>604.0</ele><time>2026-04-08T07:22:11.957Z</time></trkpt><trkpt lat="44.4120211" lon="9.8929793"><ele>609.0</ele><time>2026-04-08T07:22:12.957Z</time></trkpt><trkpt lat="44.4121223" lon="9.8932166"><ele>610.3333333333334</ele><time>2026-04-08T07:22:13.956Z</time></trkpt><trkpt lat="44.4122402" lon="9.8934502"><ele>611.6666666666667</ele><time>2026-04-08T07:22:14.958Z</time></trkpt><trkpt lat="44.4123775" lon="9.8936707"><ele>613.0</ele><time>2026-04-08T07:22:15.956Z</time></trkpt><trkpt lat="44.4125036" lon="9.893871"><ele>613.0</ele><time>2026-04-08T07:22:16.957Z</time></trkpt><trkpt lat="44.4126373" lon="9.8940496"><ele>613.0</ele><time>2026-04-08T07:22:17.957Z</time></trkpt><trkpt lat="44.4127715" lon="9.894202"><ele>613.0</ele><time>2026-04-08T07:22:18.957Z</time></trkpt><trkpt lat="44.4128977" lon="9.8943655"><ele>611.0</ele><time>2026-04-08T07:22:19.957Z</time></trkpt><trkpt lat="44.4129779" lon="9.8945705"><ele>609.0</ele><time>2026-04-08T07:22:20.958Z</time></trkpt><trkpt lat="44.4130268" lon="9.894802"><ele>607.0</ele><time>2026-04-08T07:22:21.957Z</time></trkpt><trkpt lat="44.4130695" lon="9.8950444"><ele>610.3333333333334</ele><time>2026-04-08T07:22:22.957Z</time></trkpt><trkpt lat="44.4131096" lon="9.8952981"><ele>613.6666666666666</ele><time>2026-04-08T07:22:23.957Z</time></trkpt><trkpt lat="44.4131429" lon="9.8955533"><ele>617.0</ele><time>2026-04-08T07:22:24.958Z</time></trkpt><trkpt lat="44.4131692" lon="9.895815"><ele>615.3333333333333</ele><time>2026-04-08T07:22:25.957Z</time></trkpt><trkpt lat="44.4131964" lon="9.896082"><ele>613.6666666666666</ele><time>2026-04-08T07:22:26.957Z</time></trkpt><trkpt lat="44.4132297" lon="9.8963312"><ele>612.0</ele><time>2026-04-08T07:22:27.958Z</time></trkpt><trkpt lat="44.4132679" lon="9.89655"><ele>612.0</ele><time>2026-04-08T07:22:28.957Z</time></trkpt><trkpt lat="44.4133083" lon="9.8967418"><ele>612.0</ele><time>2026-04-08T07:22:29.957Z</time></trkpt><trkpt lat="44.4133549" lon="9.8969165"><ele>612.0</ele><time>2026-04-08T07:22:30.958Z</time></trkpt><trkpt lat="44.4134409" lon="9.8970682"><ele>612.0</ele><time>2026-04-08T07:22:31.957Z</time></trkpt><trkpt lat="44.4135692" lon="9.8971834"><ele>616.6666666666666</ele><time>2026-04-08T07:22:32.957Z</time></trkpt><trkpt lat="44.4137293" lon="9.8972747"><ele>621.3333333333333</ele><time>2026-04-08T07:22:33.957Z</time></trkpt><trkpt lat="44.4138977" lon="9.897382"><ele>626.0</ele><time>2026-04-08T07:22:34.957Z</time></trkpt><trkpt lat="44.4140574" lon="9.8975244"><ele>619.6666666666666</ele><time>2026-04-08T07:22:35.958Z</time></trkpt><trkpt lat="44.4141856" lon="9.8977085"><ele>613.3333333333334</ele><time>2026-04-08T07:22:36.957Z</time></trkpt><trkpt lat="44.4142703" lon="9.8979276"><ele>607.0</ele><time>2026-04-08T07:22:37.957Z</time></trkpt><trkpt lat="44.4143233" lon="9.89818"><ele>603.3333333333334</ele><time>2026-04-08T07:22:38.957Z</time></trkpt><trkpt lat="44.414358" lon="9.8984623"><ele>599.6666666666666</ele><time>2026-04-08T07:22:39.958Z</time></trkpt><trkpt lat="44.4143922" lon="9.8987428"><ele>596.0</ele><time>2026-04-08T07:22:40.957Z</time></trkpt><trkpt lat="44.4144245" lon="9.8990043"><ele>593.0</ele><time>2026-04-08T07:22:41.957Z</time></trkpt><trkpt lat="44.4144529" lon="9.8992532"><ele>590.0</ele><time>2026-04-08T07:22:42.957Z</time></trkpt><trkpt lat="44.4144877" lon="9.8994874"><ele>587.0</ele><time>2026-04-08T07:22:43.958Z</time></trkpt><trkpt lat="44.41455" lon="9.899705"><ele>593.6666666666666</ele><time>2026-04-08T07:22:44.957Z</time></trkpt><trkpt lat="44.4146554" lon="9.8999048"><ele>600.3333333333334</ele><time>2026-04-08T07:22:45.958Z</time></trkpt><trkpt lat="44.4147752" lon="9.9001053"><ele>607.0</ele><time>2026-04-08T07:22:46.958Z</time></trkpt><trkpt lat="44.4148627" lon="9.9003246"><ele>607.0</ele><time>2026-04-08T07:22:47.957Z</time></trkpt><trkpt lat="44.4149417" lon="9.9005505"><ele>607.0</ele><time>2026-04-08T07:22:48.957Z</time></trkpt><trkpt lat="44.4150613" lon="9.9007482"><ele>607.0</ele><time>2026-04-08T07:22:49.958Z</time></trkpt><trkpt lat="44.4151946" lon="9.9009305"><ele>600.0</ele><time>2026-04-08T07:22:50.957Z</time></trkpt><trkpt lat="44.4153049" lon="9.9011161"><ele>593.0</ele><time>2026-04-08T07:22:51.958Z</time></trkpt><trkpt lat="44.4153824" lon="9.9013276"><ele>586.0</ele><time>2026-04-08T07:22:52.956Z</time></trkpt><trkpt lat="44.4154413" lon="9.9015324"><ele>590.3333333333334</ele><time>2026-04-08T07:22:53.957Z</time></trkpt><trkpt lat="44.4155002" lon="9.9017254"><ele>594.6666666666666</ele><time>2026-04-08T07:22:54.957Z</time></trkpt><trkpt lat="44.4155765" lon="9.9019068"><ele>599.0</ele><time>2026-04-08T07:22:55.956Z</time></trkpt><trkpt lat="44.4156778" lon="9.902061"><ele>599.0</ele><time>2026-04-08T07:22:56.957Z</time></trkpt><trkpt lat="44.4158088" lon="9.902165"><ele>599.0</ele><time>2026-04-08T07:22:57.957Z</time></trkpt><trkpt lat="44.4159694" lon="9.9022145"><ele>599.0</ele><time>2026-04-08T07:22:58.957Z</time></trkpt><trkpt lat="44.4161469" lon="9.9022489"><ele>600.6666666666666</ele><time>2026-04-08T07:22:59.957Z</time></trkpt><trkpt lat="44.4163205" lon="9.9022872"><ele>602.3333333333334</ele><time>2026-04-08T07:23:00.957Z</time></trkpt><trkpt lat="44.4164844" lon="9.9023206"><ele>604.0</ele><time>2026-04-08T07:23:01.958Z</time></trkpt><trkpt lat="44.4166404" lon="9.902346"><ele>604.0</ele><time>2026-04-08T07:23:02.958Z</time></trkpt><trkpt lat="44.4167868" lon="9.9023725"><ele>604.0</ele><time>2026-04-08T07:23:03.957Z</time></trkpt><trkpt lat="44.4169279" lon="9.9024008"><ele>604.0</ele><time>2026-04-08T07:23:04.958Z</time></trkpt><trkpt lat="44.4170653" lon="9.9024351"><ele>604.0</ele><time>2026-04-08T07:23:05.957Z</time></trkpt><trkpt lat="44.4171935" lon="9.9024997"><ele>601.5</ele><time>2026-04-08T07:23:06.958Z</time></trkpt><trkpt lat="44.4172905" lon="9.9026496"><ele>599.0</ele><time>2026-04-08T07:23:07.957Z</time></trkpt><trkpt lat="44.4173694" lon="9.9028212"><ele>596.5</ele><time>2026-04-08T07:23:08.957Z</time></trkpt><trkpt lat="44.4174655" lon="9.9029745"><ele>594.0</ele><time>2026-04-08T07:23:09.957Z</time></trkpt><trkpt lat="44.4175967" lon="9.9030928"><ele>594.0</ele><time>2026-04-08T07:23:10.957Z</time></trkpt><trkpt lat="44.417754" lon="9.903179"><ele>594.0</ele><time>2026-04-08T07:23:11.958Z</time></trkpt><trkpt lat="44.417909" lon="9.9032488"><ele>594.0</ele><time>2026-04-08T07:23:12.957Z</time></trkpt><trkpt lat="44.4180574" lon="9.9033032"><ele>595.0</ele><time>2026-04-08T07:23:13.957Z</time></trkpt><trkpt lat="44.4182002" lon="9.9033426"><ele>596.0</ele><time>2026-04-08T07:23:14.957Z</time></trkpt><trkpt lat="44.4183423" lon="9.9033447"><ele>597.0</ele><time>2026-04-08T07:23:15.957Z</time></trkpt><trkpt lat="44.418484" lon="9.9033138"><ele>598.0</ele><time>2026-04-08T07:23:16.957Z</time></trkpt><trkpt lat="44.4186202" lon="9.9032728"><ele>598.0</ele><time>2026-04-08T07:23:17.957Z</time></trkpt><trkpt lat="44.4187536" lon="9.9032332"><ele>598.0</ele><time>2026-04-08T07:23:18.957Z</time></trkpt><trkpt lat="44.4188864" lon="9.9032061"><ele>598.0</ele><time>2026-04-08T07:23:19.957Z</time></trkpt><trkpt lat="44.4190193" lon="9.9032095"><ele>598.0</ele><time>2026-04-08T07:23:20.957Z</time></trkpt><trkpt lat="44.4191459" lon="9.903282"><ele>599.0</ele><time>2026-04-08T07:23:21.958Z</time></trkpt><trkpt lat="44.4192593" lon="9.9033913"><ele>600.0</ele><time>2026-04-08T07:23:22.957Z</time></trkpt><trkpt lat="44.4193717" lon="9.903511"><ele>601.0</ele><time>2026-04-08T07:23:23.958Z</time></trkpt><trkpt lat="44.4194889" lon="9.9036231"><ele>602.0</ele><time>2026-04-08T07:23:24.958Z</time></trkpt><trkpt lat="44.4196075" lon="9.9037277"><ele>604.75</ele><time>2026-04-08T07:23:25.957Z</time></trkpt><trkpt lat="44.4197301" lon="9.9038203"><ele>607.5</ele><time>2026-04-08T07:23:26.957Z</time></trkpt><trkpt lat="44.4198497" lon="9.903914"><ele>610.25</ele><time>2026-04-08T07:23:27.957Z</time></trkpt><trkpt lat="44.4199642" lon="9.9040163"><ele>613.0</ele><time>2026-04-08T07:23:28.957Z</time></trkpt><trkpt lat="44.4200633" lon="9.9041388"><ele>612.5</ele><time>2026-04-08T07:23:29.957Z</time></trkpt><trkpt lat="44.4201445" lon="9.9042807"><ele>612.0</ele><time>2026-04-08T07:23:30.957Z</time></trkpt><trkpt lat="44.4202241" lon="9.9044229"><ele>611.5</ele><time>2026-04-08T07:23:31.957Z</time></trkpt><trkpt lat="44.4203088" lon="9.9045564"><ele>611.0</ele><time>2026-04-08T07:23:32.958Z</time></trkpt><trkpt lat="44.4204033" lon="9.9046756"><ele>612.0</ele><time>2026-04-08T07:23:33.957Z</time></trkpt><trkpt lat="44.4205086" lon="9.9047856"><ele>613.0</ele><time>2026-04-08T07:23:34.957Z</time></trkpt><trkpt lat="44.420629" lon="9.9048744"><ele>614.0</ele><time>2026-04-08T07:23:35.957Z</time></trkpt><trkpt lat="44.4207634" lon="9.9049366"><ele>615.0</ele><time>2026-04-08T07:23:36.957Z</time></trkpt><trkpt lat="44.4209139" lon="9.9049548"><ele>615.0</ele><time>2026-04-08T07:23:37.957Z</time></trkpt><trkpt lat="44.4210738" lon="9.9049348"><ele>615.0</ele><time>2026-04-08T07:23:38.957Z</time></trkpt><trkpt lat="44.4212417" lon="9.9048934"><ele>615.0</ele><time>2026-04-08T07:23:39.957Z</time></trkpt><trkpt lat="44.4214139" lon="9.9048581"><ele>618.6666666666666</ele><time>2026-04-08T07:23:40.957Z</time></trkpt><trkpt lat="44.421589" lon="9.9048264"><ele>622.3333333333333</ele><time>2026-04-08T07:23:41.957Z</time></trkpt><trkpt lat="44.4217647" lon="9.9047972"><ele>626.0</ele><time>2026-04-08T07:23:42.957Z</time></trkpt><trkpt lat="44.4219402" lon="9.9047716"><ele>626.0</ele><time>2026-04-08T07:23:43.957Z</time></trkpt><trkpt lat="44.4221166" lon="9.9047364"><ele>626.0</ele><time>2026-04-08T07:23:44.957Z</time></trkpt><trkpt lat="44.4222856" lon="9.9046475"><ele>626.0</ele><time>2026-04-08T07:23:45.957Z</time></trkpt><trkpt lat="44.422437" lon="9.9045096"><ele>627.0</ele><time>2026-04-08T07:23:46.957Z</time></trkpt><trkpt lat="44.4225734" lon="9.9043516"><ele>628.0</ele><time>2026-04-08T07:23:47.957Z</time></trkpt><trkpt lat="44.4227171" lon="9.9042128"><ele>629.0</ele><time>2026-04-08T07:23:48.958Z</time></trkpt><trkpt lat="44.4228785" lon="9.9041195"><ele>631.0</ele><time>2026-04-08T07:23:49.957Z</time></trkpt><trkpt lat="44.4230541" lon="9.9040849"><ele>633.0</ele><time>2026-04-08T07:23:50.958Z</time></trkpt><trkpt lat="44.4232357" lon="9.9040798"><ele>635.0</ele><time>2026-04-08T07:23:51.958Z</time></trkpt><trkpt lat="44.4234146" lon="9.9041057"><ele>635.0</ele><time>2026-04-08T07:23:52.957Z</time></trkpt><trkpt lat="44.4235853" lon="9.9041617"><ele>635.0</ele><time>2026-04-08T07:23:53.957Z</time></trkpt><trkpt lat="44.4237445" lon="9.9042355"><ele>635.0</ele><time>2026-04-08T07:23:54.957Z</time></trkpt><trkpt lat="44.4238937" lon="9.9043169"><ele>636.25</ele><time>2026-04-08T07:23:55.957Z</time></trkpt><trkpt lat="44.4240285" lon="9.9044105"><ele>637.5</ele><time>2026-04-08T07:23:56.957Z</time></trkpt><trkpt lat="44.4241394" lon="9.9045374"><ele>638.75</ele><time>2026-04-08T07:23:57.957Z</time></trkpt><trkpt lat="44.4242024" lon="9.9047145"><ele>640.0</ele><time>2026-04-08T07:23:58.958Z</time></trkpt><trkpt lat="44.424234" lon="9.9049117"><ele>635.6666666666667</ele><time>2026-04-08T07:23:59.958Z</time></trkpt><trkpt lat="44.4242816" lon="9.9051072"><ele>631.3333333333334</ele><time>2026-04-08T07:24:00.958Z</time></trkpt><trkpt lat="44.4243685" lon="9.9053006"><ele>627.0</ele><time>2026-04-08T07:24:01.957Z</time></trkpt><trkpt lat="44.4244544" lon="9.9054899"><ele>627.0</ele><time>2026-04-08T07:24:02.958Z</time></trkpt><trkpt lat="44.4245516" lon="9.905657"><ele>627.0</ele><time>2026-04-08T07:24:03.958Z</time></trkpt><trkpt lat="44.4246675" lon="9.905804"><ele>627.0</ele><time>2026-04-08T07:24:04.958Z</time></trkpt><trkpt lat="44.4247968" lon="9.9059308"><ele>629.3333333333334</ele><time>2026-04-08T07:24:05.957Z</time></trkpt><trkpt lat="44.4249331" lon="9.9060398"><ele>631.6666666666667</ele><time>2026-04-08T07:24:06.957Z</time></trkpt><trkpt lat="44.4250705" lon="9.9061348"><ele>634.0</ele><time>2026-04-08T07:24:07.957Z</time></trkpt><trkpt lat="44.4252061" lon="9.9062372"><ele>634.0</ele><time>2026-04-08T07:24:08.958Z</time></trkpt><trkpt lat="44.4253252" lon="9.9063729"><ele>634.0</ele><time>2026-04-08T07:24:09.958Z</time></trkpt><trkpt lat="44.425429" lon="9.9065413"><ele>634.0</ele><time>2026-04-08T07:24:10.957Z</time></trkpt><trkpt lat="44.4255357" lon="9.9067083"><ele>638.6666666666667</ele><time>2026-04-08T07:24:11.958Z</time></trkpt><trkpt lat="44.4256407" lon="9.9068777"><ele>643.3333333333334</ele><time>2026-04-08T07:24:12.958Z</time></trkpt><trkpt lat="44.4257368" lon="9.9070488"><ele>648.0</ele><time>2026-04-08T07:24:13.957Z</time></trkpt><trkpt lat="44.4258085" lon="9.9072314"><ele>648.0</ele><time>2026-04-08T07:24:14.957Z</time></trkpt><trkpt lat="44.4258643" lon="9.9074157"><ele>648.0</ele><time>2026-04-08T07:24:15.957Z</time></trkpt><trkpt lat="44.4259345" lon="9.9075823"><ele>648.0</ele><time>2026-04-08T07:24:16.957Z</time></trkpt><trkpt lat="44.4260142" lon="9.9077175"><ele>648.0</ele><time>2026-04-08T07:24:17.958Z</time></trkpt><trkpt lat="44.4261121" lon="9.9078055"><ele>647.5</ele><time>2026-04-08T07:24:18.958Z</time></trkpt><trkpt lat="44.4262323" lon="9.9078267"><ele>647.0</ele><time>2026-04-08T07:24:19.957Z</time></trkpt><trkpt lat="44.4263602" lon="9.9077848"><ele>646.5</ele><time>2026-04-08T07:24:20.957Z</time></trkpt><trkpt lat="44.4264972" lon="9.9077222"><ele>646.0</ele><time>2026-04-08T07:24:21.958Z</time></trkpt><trkpt lat="44.426641" lon="9.9076731"><ele>646.0</ele><time>2026-04-08T07:24:22.957Z</time></trkpt><trkpt lat="44.4267909" lon="9.9076728"><ele>646.0</ele><time>2026-04-08T07:24:23.957Z</time></trkpt><trkpt lat="44.4269446" lon="9.9077352"><ele>646.0</ele><time>2026-04-08T07:24:24.958Z</time></trkpt><trkpt lat="44.4271111" lon="9.9078058"><ele>649.3333333333334</ele><time>2026-04-08T07:24:25.957Z</time></trkpt><trkpt lat="44.4272931" lon="9.9078787"><ele>652.6666666666666</ele><time>2026-04-08T07:24:26.957Z</time></trkpt><trkpt lat="44.4274676" lon="9.9079562"><ele>656.0</ele><time>2026-04-08T07:24:27.958Z</time></trkpt><trkpt lat="44.4276264" lon="9.9080323"><ele>656.0</ele><time>2026-04-08T07:24:28.958Z</time></trkpt><trkpt lat="44.4277827" lon="9.9080926"><ele>656.0</ele><time>2026-04-08T07:24:29.957Z</time></trkpt><trkpt lat="44.4279434" lon="9.9081307"><ele>656.0</ele><time>2026-04-08T07:24:30.957Z</time></trkpt><trkpt lat="44.4281003" lon="9.9081953"><ele>656.3333333333333</ele><time>2026-04-08T07:24:31.958Z</time></trkpt><trkpt lat="44.4282461" lon="9.908303"><ele>656.6666666666666</ele><time>2026-04-08T07:24:32.957Z</time></trkpt><trkpt lat="44.4283945" lon="9.9083941"><ele>657.0</ele><time>2026-04-08T07:24:33.957Z</time></trkpt><trkpt lat="44.4285458" lon="9.9084643"><ele>657.0</ele><time>2026-04-08T07:24:34.957Z</time></trkpt><trkpt lat="44.4287029" lon="9.9085082"><ele>657.0</ele><time>2026-04-08T07:24:35.957Z</time></trkpt><trkpt lat="44.4288662" lon="9.9085101"><ele>657.0</ele><time>2026-04-08T07:24:36.957Z</time></trkpt><trkpt lat="44.4290319" lon="9.9084781"><ele>657.3333333333334</ele><time>2026-04-08T07:24:37.958Z</time></trkpt><trkpt lat="44.4291989" lon="9.9084349"><ele>657.6666666666667</ele><time>2026-04-08T07:24:38.956Z</time></trkpt><trkpt lat="44.4293535" lon="9.9083965"><ele>658.0</ele><time>2026-04-08T07:24:39.957Z</time></trkpt><trkpt lat="44.4295009" lon="9.9083973"><ele>658.0</ele><time>2026-04-08T07:24:40.956Z</time></trkpt><trkpt lat="44.4296226" lon="9.9084965"><ele>658.0</ele><time>2026-04-08T07:24:41.957Z</time></trkpt><trkpt lat="44.4297213" lon="9.9086127"><ele>658.0</ele><time>2026-04-08T07:24:42.957Z</time></trkpt><trkpt lat="44.429838" lon="9.9086875"><ele>658.0</ele><time>2026-04-08T07:24:43.958Z</time></trkpt><trkpt lat="44.429974" lon="9.9087112"><ele>658.25</ele><time>2026-04-08T07:24:44.957Z</time></trkpt><trkpt lat="44.4301097" lon="9.9087199"><ele>658.5</ele><time>2026-04-08T07:24:45.958Z</time></trkpt><trkpt lat="44.4302441" lon="9.9086644"><ele>658.75</ele><time>2026-04-08T07:24:46.957Z</time></trkpt><trkpt lat="44.4303679" lon="9.9085628"><ele>659.0</ele><time>2026-04-08T07:24:47.957Z</time></trkpt><trkpt lat="44.4304951" lon="9.9084565"><ele>663.0</ele><time>2026-04-08T07:24:48.957Z</time></trkpt><trkpt lat="44.4306207" lon="9.9083571"><ele>667.0</ele><time>2026-04-08T07:24:49.957Z</time></trkpt><trkpt lat="44.4307434" lon="9.908259"><ele>671.0</ele><time>2026-04-08T07:24:50.957Z</time></trkpt><trkpt lat="44.4308647" lon="9.9081684"><ele>675.0</ele><time>2026-04-08T07:24:51.957Z</time></trkpt><trkpt lat="44.4309891" lon="9.9080975"><ele>675.0</ele><time>2026-04-08T07:24:52.957Z</time></trkpt><trkpt lat="44.4311175" lon="9.9080614"><ele>675.0</ele><time>2026-04-08T07:24:53.957Z</time></trkpt><trkpt lat="44.4312462" lon="9.9080485"><ele>675.0</ele><time>2026-04-08T07:24:54.957Z</time></trkpt><trkpt lat="44.4313784" lon="9.9080422"><ele>675.0</ele><time>2026-04-08T07:24:55.958Z</time></trkpt><trkpt lat="44.4315132" lon="9.9080459"><ele>674.0</ele><time>2026-04-08T07:24:56.957Z</time></trkpt><trkpt lat="44.4316519" lon="9.9080538"><ele>673.0</ele><time>2026-04-08T07:24:57.958Z</time></trkpt><trkpt lat="44.4317921" lon="9.9080577"><ele>672.0</ele><time>2026-04-08T07:24:58.957Z</time></trkpt><trkpt lat="44.4319332" lon="9.9080601"><ele>671.0</ele><time>2026-04-08T07:24:59.957Z</time></trkpt><trkpt lat="44.4320761" lon="9.908063"><ele>673.5</ele><time>2026-04-08T07:25:00.957Z</time></trkpt><trkpt lat="44.4322184" lon="9.9080825"><ele>676.0</ele><time>2026-04-08T07:25:01.957Z</time></trkpt><trkpt lat="44.4323576" lon="9.908133"><ele>678.5</ele><time>2026-04-08T07:25:02.957Z</time></trkpt><trkpt lat="44.4324913" lon="9.9082126"><ele>681.0</ele><time>2026-04-08T07:25:03.958Z</time></trkpt><trkpt lat="44.432623" lon="9.9082928"><ele>681.0</ele><time>2026-04-08T07:25:04.958Z</time></trkpt><trkpt lat="44.4327519" lon="9.9083635"><ele>681.0</ele><time>2026-04-08T07:25:05.957Z</time></trkpt><trkpt lat="44.4328843" lon="9.9084118"><ele>681.0</ele><time>2026-04-08T07:25:06.957Z</time></trkpt><trkpt lat="44.4330144" lon="9.9083999"><ele>681.0</ele><time>2026-04-08T07:25:07.957Z</time></trkpt><trkpt lat="44.4331314" lon="9.9083261"><ele>681.75</ele><time>2026-04-08T07:25:08.957Z</time></trkpt><trkpt lat="44.4332276" lon="9.9082027"><ele>682.5</ele><time>2026-04-08T07:25:09.958Z</time></trkpt><trkpt lat="44.4333083" lon="9.9080685"><ele>683.25</ele><time>2026-04-08T07:25:10.957Z</time></trkpt><trkpt lat="44.4333774" lon="9.9079588"><ele>684.0</ele><time>2026-04-08T07:25:11.957Z</time></trkpt><trkpt lat="44.4334686" lon="9.9079086"><ele>684.0</ele><time>2026-04-08T07:25:12.958Z</time></trkpt><trkpt lat="44.4335647" lon="9.9079256"><ele>684.0</ele><time>2026-04-08T07:25:13.957Z</time></trkpt><trkpt lat="44.4336462" lon="9.908015"><ele>684.0</ele><time>2026-04-08T07:25:14.958Z</time></trkpt><trkpt lat="44.4337314" lon="9.9081394"><ele>684.0</ele><time>2026-04-08T07:25:15.957Z</time></trkpt><trkpt lat="44.4338241" lon="9.908296"><ele>686.3333333333334</ele><time>2026-04-08T07:25:16.957Z</time></trkpt><trkpt lat="44.4339253" lon="9.9084789"><ele>688.6666666666667</ele><time>2026-04-08T07:25:17.958Z</time></trkpt><trkpt lat="44.4340234" lon="9.9086631"><ele>691.0</ele><time>2026-04-08T07:25:18.957Z</time></trkpt><trkpt lat="44.4341268" lon="9.9088228"><ele>691.0</ele><time>2026-04-08T07:25:19.958Z</time></trkpt><trkpt lat="44.4342599" lon="9.9089326"><ele>691.0</ele><time>2026-04-08T07:25:20.957Z</time></trkpt><trkpt lat="44.4344181" lon="9.9089926"><ele>691.0</ele><time>2026-04-08T07:25:21.958Z</time></trkpt><trkpt lat="44.4345925" lon="9.9090215"><ele>690.6666666666667</ele><time>2026-04-08T07:25:22.957Z</time></trkpt><trkpt lat="44.4347494" lon="9.9090544"><ele>690.3333333333334</ele><time>2026-04-08T07:25:23.957Z</time></trkpt><trkpt lat="44.4348891" lon="9.9091375"><ele>690.0</ele><time>2026-04-08T07:25:24.957Z</time></trkpt><trkpt lat="44.4350018" lon="9.9092767"><ele>693.3333333333334</ele><time>2026-04-08T07:25:25.958Z</time></trkpt><trkpt lat="44.4350882" lon="9.9094574"><ele>696.6666666666667</ele><time>2026-04-08T07:25:26.957Z</time></trkpt><trkpt lat="44.4351957" lon="9.909616"><ele>700.0</ele><time>2026-04-08T07:25:27.958Z</time></trkpt><trkpt lat="44.4353368" lon="9.9097464"><ele>699.6666666666667</ele><time>2026-04-08T07:25:28.958Z</time></trkpt><trkpt lat="44.435497" lon="9.9098612"><ele>699.3333333333334</ele><time>2026-04-08T07:25:29.958Z</time></trkpt><trkpt lat="44.4356695" lon="9.9099611"><ele>699.0</ele><time>2026-04-08T07:25:30.958Z</time></trkpt><trkpt lat="44.4358539" lon="9.9100705"><ele>703.0</ele><time>2026-04-08T07:25:31.957Z</time></trkpt><trkpt lat="44.4360314" lon="9.9101789"><ele>707.0</ele><time>2026-04-08T07:25:32.957Z</time></trkpt><trkpt lat="44.4361961" lon="9.9102821"><ele>711.0</ele><time>2026-04-08T07:25:33.958Z</time></trkpt><trkpt lat="44.43635" lon="9.9103715"><ele>711.0</ele><time>2026-04-08T07:25:34.957Z</time></trkpt><trkpt lat="44.4364991" lon="9.9104414"><ele>711.0</ele><time>2026-04-08T07:25:35.957Z</time></trkpt><trkpt lat="44.4366527" lon="9.9104631"><ele>711.0</ele><time>2026-04-08T07:25:36.958Z</time></trkpt><trkpt lat="44.4368072" lon="9.910425"><ele>711.0</ele><time>2026-04-08T07:25:37.957Z</time></trkpt><trkpt lat="44.4369484" lon="9.9103294"><ele>711.0</ele><time>2026-04-08T07:25:38.957Z</time></trkpt><trkpt lat="44.437079" lon="9.9101924"><ele>711.0</ele><time>2026-04-08T07:25:39.957Z</time></trkpt><trkpt lat="44.4371999" lon="9.910038"><ele>710.0</ele><time>2026-04-08T07:25:40.958Z</time></trkpt><trkpt lat="44.4373224" lon="9.9098967"><ele>709.0</ele><time>2026-04-08T07:25:41.957Z</time></trkpt><trkpt lat="44.4374655" lon="9.9097902"><ele>708.0</ele><time>2026-04-08T07:25:42.957Z</time></trkpt><trkpt lat="44.4376288" lon="9.9097376"><ele>708.0</ele><time>2026-04-08T07:25:43.958Z</time></trkpt><trkpt lat="44.4378009" lon="9.909741"><ele>708.0</ele><time>2026-04-08T07:25:44.957Z</time></trkpt><trkpt lat="44.4379774" lon="9.9097731"><ele>708.0</ele><time>2026-04-08T07:25:45.958Z</time></trkpt><trkpt lat="44.4381571" lon="9.9097984"><ele>709.3333333333334</ele><time>2026-04-08T07:25:46.957Z</time></trkpt><trkpt lat="44.4383382" lon="9.9098224"><ele>710.6666666666667</ele><time>2026-04-08T07:25:47.957Z</time></trkpt><trkpt lat="44.4385174" lon="9.909847"><ele>712.0</ele><time>2026-04-08T07:25:48.957Z</time></trkpt><trkpt lat="44.4386919" lon="9.909863"><ele>711.6666666666667</ele><time>2026-04-08T07:25:49.957Z</time></trkpt><trkpt lat="44.4388546" lon="9.9098616"><ele>711.3333333333334</ele><time>2026-04-08T07:25:50.958Z</time></trkpt><trkpt lat="44.4390064" lon="9.9098648"><ele>711.0</ele><time>2026-04-08T07:25:51.958Z</time></trkpt><trkpt lat="44.439149" lon="9.9099173"><ele>711.0</ele><time>2026-04-08T07:25:52.958Z</time></trkpt><trkpt lat="44.4392601" lon="9.9100275"><ele>711.0</ele><time>2026-04-08T07:25:53.957Z</time></trkpt><trkpt lat="44.4393386" lon="9.9101749"><ele>711.0</ele><time>2026-04-08T07:25:54.957Z</time></trkpt><trkpt lat="44.4394075" lon="9.9103327"><ele>711.0</ele><time>2026-04-08T07:25:55.958Z</time></trkpt><trkpt lat="44.4395204" lon="9.9104479"><ele>712.25</ele><time>2026-04-08T07:25:56.958Z</time></trkpt><trkpt lat="44.4396572" lon="9.9104838"><ele>713.5</ele><time>2026-04-08T07:25:57.957Z</time></trkpt><trkpt lat="44.4398061" lon="9.9104801"><ele>714.75</ele><time>2026-04-08T07:25:58.958Z</time></trkpt><trkpt lat="44.4399629" lon="9.9104766"><ele>716.0</ele><time>2026-04-08T07:25:59.957Z</time></trkpt><trkpt lat="44.4401268" lon="9.9104632"><ele>716.0</ele><time>2026-04-08T07:26:00.957Z</time></trkpt><trkpt lat="44.4402875" lon="9.9104477"><ele>716.0</ele><time>2026-04-08T07:26:01.957Z</time></trkpt><trkpt lat="44.4404408" lon="9.910419"><ele>716.0</ele><time>2026-04-08T07:26:02.958Z</time></trkpt><trkpt lat="44.4405877" lon="9.9103765"><ele>719.25</ele><time>2026-04-08T07:26:03.957Z</time></trkpt><trkpt lat="44.4407307" lon="9.9103312"><ele>722.5</ele><time>2026-04-08T07:26:04.957Z</time></trkpt><trkpt lat="44.4408674" lon="9.9102779"><ele>725.75</ele><time>2026-04-08T07:26:05.957Z</time></trkpt><trkpt lat="44.4410005" lon="9.9102101"><ele>729.0</ele><time>2026-04-08T07:26:06.957Z</time></trkpt><trkpt lat="44.4411246" lon="9.9101267"><ele>730.25</ele><time>2026-04-08T07:26:07.957Z</time></trkpt><trkpt lat="44.4412392" lon="9.9100239"><ele>731.5</ele><time>2026-04-08T07:26:08.957Z</time></trkpt><trkpt lat="44.4413498" lon="9.9099104"><ele>732.75</ele><time>2026-04-08T07:26:09.957Z</time></trkpt><trkpt lat="44.44146" lon="9.9097939"><ele>734.0</ele><time>2026-04-08T07:26:10.958Z</time></trkpt><trkpt lat="44.4415665" lon="9.9096796"><ele>734.0</ele><time>2026-04-08T07:26:11.957Z</time></trkpt><trkpt lat="44.4416677" lon="9.9095692"><ele>734.0</ele><time>2026-04-08T07:26:12.957Z</time></trkpt><trkpt lat="44.4417639" lon="9.9094736"><ele>734.0</ele><time>2026-04-08T07:26:13.957Z</time></trkpt><trkpt lat="44.4418614" lon="9.9094119"><ele>734.0</ele><time>2026-04-08T07:26:14.957Z</time></trkpt><trkpt lat="44.4419619" lon="9.9094027"><ele>734.0</ele><time>2026-04-08T07:26:15.957Z</time></trkpt><trkpt lat="44.4420483" lon="9.9094609"><ele>734.0</ele><time>2026-04-08T07:26:16.957Z</time></trkpt><trkpt lat="44.4421216" lon="9.9095596"><ele>734.0</ele><time>2026-04-08T07:26:17.957Z</time></trkpt><trkpt lat="44.4421929" lon="9.9096749"><ele>734.0</ele><time>2026-04-08T07:26:18.957Z</time></trkpt><trkpt lat="44.4422765" lon="9.9097863"><ele>734.0</ele><time>2026-04-08T07:26:19.957Z</time></trkpt><trkpt lat="44.4423835" lon="9.9098648"><ele>735.25</ele><time>2026-04-08T07:26:20.958Z</time></trkpt><trkpt lat="44.4425054" lon="9.9099152"><ele>736.5</ele><time>2026-04-08T07:26:21.957Z</time></trkpt><trkpt lat="44.4426329" lon="9.9099446"><ele>737.75</ele><time>2026-04-08T07:26:22.958Z</time></trkpt><trkpt lat="44.4427562" lon="9.9099465"><ele>739.0</ele><time>2026-04-08T07:26:23.957Z</time></trkpt><trkpt lat="44.4428775" lon="9.9099232"><ele>742.25</ele><time>2026-04-08T07:26:24.957Z</time></trkpt><trkpt lat="44.4429955" lon="9.909889"><ele>745.5</ele><time>2026-04-08T07:26:25.957Z</time></trkpt><trkpt lat="44.4431074" lon="9.9098496"><ele>748.75</ele><time>2026-04-08T07:26:26.957Z</time></trkpt><trkpt lat="44.443216" lon="9.909808"><ele>752.0</ele><time>2026-04-08T07:26:27.957Z</time></trkpt><trkpt lat="44.4433208" lon="9.9097616"><ele>752.0</ele><time>2026-04-08T07:26:28.957Z</time></trkpt><trkpt lat="44.4434175" lon="9.9096922"><ele>752.0</ele><time>2026-04-08T07:26:29.957Z</time></trkpt><trkpt lat="44.4435006" lon="9.9095983"><ele>752.0</ele><time>2026-04-08T07:26:30.958Z</time></trkpt><trkpt lat="44.4435748" lon="9.9094907"><ele>752.0</ele><time>2026-04-08T07:26:31.957Z</time></trkpt><trkpt lat="44.4436467" lon="9.9093806"><ele>752.0</ele><time>2026-04-08T07:26:32.958Z</time></trkpt><trkpt lat="44.4437147" lon="9.9092651"><ele>751.0</ele><time>2026-04-08T07:26:33.957Z</time></trkpt><trkpt lat="44.4437754" lon="9.9091437"><ele>750.0</ele><time>2026-04-08T07:26:34.958Z</time></trkpt><trkpt lat="44.4438258" lon="9.9090088"><ele>749.0</ele><time>2026-04-08T07:26:35.957Z</time></trkpt><trkpt lat="44.4438661" lon="9.9088658"><ele>748.0</ele><time>2026-04-08T07:26:36.958Z</time></trkpt><trkpt lat="44.4438956" lon="9.9087147"><ele>747.0</ele><time>2026-04-08T07:26:37.957Z</time></trkpt><trkpt lat="44.44392" lon="9.9085599"><ele>750.6</ele><time>2026-04-08T07:26:38.958Z</time></trkpt><trkpt lat="44.4439461" lon="9.9084087"><ele>754.2</ele><time>2026-04-08T07:26:39.957Z</time></trkpt><trkpt lat="44.4439834" lon="9.9082622"><ele>757.8</ele><time>2026-04-08T07:26:40.957Z</time></trkpt><trkpt lat="44.4440372" lon="9.9081304"><ele>761.4</ele><time>2026-04-08T07:26:41.957Z</time></trkpt><trkpt lat="44.4441112" lon="9.9080157"><ele>765.0</ele><time>2026-04-08T07:26:42.957Z</time></trkpt><trkpt lat="44.4441912" lon="9.9078981"><ele>765.0</ele><time>2026-04-08T07:26:43.957Z</time></trkpt><trkpt lat="44.4442684" lon="9.9077757"><ele>765.0</ele><time>2026-04-08T07:26:44.958Z</time></trkpt><trkpt lat="44.4443452" lon="9.9076513"><ele>765.0</ele><time>2026-04-08T07:26:45.957Z</time></trkpt><trkpt lat="44.4444185" lon="9.9075204"><ele>765.0</ele><time>2026-04-08T07:26:46.957Z</time></trkpt><trkpt lat="44.4444798" lon="9.907376"><ele>762.75</ele><time>2026-04-08T07:26:47.957Z</time></trkpt><trkpt lat="44.4445209" lon="9.9072186"><ele>760.5</ele><time>2026-04-08T07:26:48.957Z</time></trkpt><trkpt lat="44.4445296" lon="9.9070548"><ele>758.25</ele><time>2026-04-08T07:26:49.957Z</time></trkpt><trkpt lat="44.4445036" lon="9.9068936"><ele>756.0</ele><time>2026-04-08T07:26:50.957Z</time></trkpt><trkpt lat="44.4444602" lon="9.9067384"><ele>755.75</ele><time>2026-04-08T07:26:51.958Z</time></trkpt><trkpt lat="44.4444228" lon="9.9065761"><ele>755.5</ele><time>2026-04-08T07:26:52.957Z</time></trkpt><trkpt lat="44.4444051" lon="9.9064068"><ele>755.25</ele><time>2026-04-08T07:26:53.957Z</time></trkpt><trkpt lat="44.4444155" lon="9.9062416"><ele>755.0</ele><time>2026-04-08T07:26:54.957Z</time></trkpt><trkpt lat="44.4444531" lon="9.9060795"><ele>755.0</ele><time>2026-04-08T07:26:55.957Z</time></trkpt><trkpt lat="44.444503" lon="9.9059264"><ele>755.0</ele><time>2026-04-08T07:26:56.958Z</time></trkpt><trkpt lat="44.4445762" lon="9.9057945"><ele>755.0</ele><time>2026-04-08T07:26:57.958Z</time></trkpt><trkpt lat="44.4446692" lon="9.9057055"><ele>755.0</ele><time>2026-04-08T07:26:58.957Z</time></trkpt><trkpt lat="44.4447728" lon="9.9056731"><ele>758.8</ele><time>2026-04-08T07:26:59.957Z</time></trkpt><trkpt lat="44.4448736" lon="9.9057111"><ele>762.6</ele><time>2026-04-08T07:27:00.957Z</time></trkpt><trkpt lat="44.4449674" lon="9.9057866"><ele>766.4000000000001</ele><time>2026-04-08T07:27:01.958Z</time></trkpt><trkpt lat="44.4450645" lon="9.9058612"><ele>770.2</ele><time>2026-04-08T07:27:02.957Z</time></trkpt><trkpt lat="44.4451697" lon="9.9059266"><ele>774.0</ele><time>2026-04-08T07:27:03.957Z</time></trkpt><trkpt lat="44.4452873" lon="9.9059791"><ele>776.5</ele><time>2026-04-08T07:27:04.957Z</time></trkpt><trkpt lat="44.4454114" lon="9.9060227"><ele>779.0</ele><time>2026-04-08T07:27:05.957Z</time></trkpt><trkpt lat="44.4455405" lon="9.9060657"><ele>781.5</ele><time>2026-04-08T07:27:06.957Z</time></trkpt><trkpt lat="44.4456679" lon="9.9061084"><ele>784.0</ele><time>2026-04-08T07:27:07.958Z</time></trkpt><trkpt lat="44.44579" lon="9.9061509"><ele>787.0</ele><time>2026-04-08T07:27:08.957Z</time></trkpt><trkpt lat="44.4459121" lon="9.9061912"><ele>790.0</ele><time>2026-04-08T07:27:09.957Z</time></trkpt><trkpt lat="44.4460244" lon="9.9062272"><ele>793.0</ele><time>2026-04-08T07:27:10.957Z</time></trkpt><trkpt lat="44.446134" lon="9.9062649"><ele>796.0</ele><time>2026-04-08T07:27:11.957Z</time></trkpt><trkpt lat="44.4462423" lon="9.9062978"><ele>796.1666666666666</ele><time>2026-04-08T07:27:12.957Z</time></trkpt><trkpt lat="44.4463491" lon="9.9063239"><ele>796.3333333333333</ele><time>2026-04-08T07:27:13.958Z</time></trkpt><trkpt lat="44.4464451" lon="9.9063416"><ele>796.5</ele><time>2026-04-08T07:27:14.957Z</time></trkpt><trkpt lat="44.4465266" lon="9.9063546"><ele>796.6666666666667</ele><time>2026-04-08T07:27:15.957Z</time></trkpt><trkpt lat="44.4466003" lon="9.9063683"><ele>796.8333333333334</ele><time>2026-04-08T07:27:16.958Z</time></trkpt><trkpt lat="44.4466647" lon="9.9064143"><ele>797.0</ele><time>2026-04-08T07:27:17.957Z</time></trkpt><trkpt lat="44.4466979" lon="9.9064967"><ele>797.0</ele><time>2026-04-08T07:27:18.957Z</time></trkpt><trkpt lat="44.4466783" lon="9.9065859"><ele>797.0</ele><time>2026-04-08T07:27:19.958Z</time></trkpt><trkpt lat="44.4466057" lon="9.9066422"><ele>797.0</ele><time>2026-04-08T07:27:20.957Z</time></trkpt><trkpt lat="44.4465099" lon="9.9066505"><ele>797.0</ele><time>2026-04-08T07:27:21.958Z</time></trkpt><trkpt lat="44.4463963" lon="9.9066432"><ele>797.0</ele><time>2026-04-08T07:27:22.957Z</time></trkpt><trkpt lat="44.4462601" lon="9.9066327"><ele>796.6666666666667</ele><time>2026-04-08T07:27:23.957Z</time></trkpt><trkpt lat="44.446102" lon="9.9066231"><ele>796.3333333333333</ele><time>2026-04-08T07:27:24.957Z</time></trkpt><trkpt lat="44.445945" lon="9.906615"><ele>796.0</ele><time>2026-04-08T07:27:25.957Z</time></trkpt><trkpt lat="44.4458068" lon="9.9066105"><ele>796.0</ele><time>2026-04-08T07:27:26.958Z</time></trkpt><trkpt lat="44.44568" lon="9.9066213"><ele>796.0</ele><time>2026-04-08T07:27:27.958Z</time></trkpt><trkpt lat="44.4455731" lon="9.9066655"><ele>796.0</ele><time>2026-04-08T07:27:28.956Z</time></trkpt><trkpt lat="44.4454989" lon="9.9067523"><ele>796.0</ele><time>2026-04-08T07:27:29.957Z</time></trkpt><trkpt lat="44.4454599" lon="9.9068833"><ele>796.0</ele><time>2026-04-08T07:27:30.958Z</time></trkpt><trkpt lat="44.4454465" lon="9.9070506"><ele>795.25</ele><time>2026-04-08T07:27:31.957Z</time></trkpt><trkpt lat="44.4454386" lon="9.9072454"><ele>794.5</ele><time>2026-04-08T07:27:32.957Z</time></trkpt><trkpt lat="44.4454301" lon="9.9074448"><ele>793.75</ele><time>2026-04-08T07:27:33.957Z</time></trkpt><trkpt lat="44.4454239" lon="9.9076258"><ele>793.0</ele><time>2026-04-08T07:27:34.957Z</time></trkpt><trkpt lat="44.4454209" lon="9.9077921"><ele>793.0</ele><time>2026-04-08T07:27:35.958Z</time></trkpt><trkpt lat="44.4454205" lon="9.9079464"><ele>793.0</ele><time>2026-04-08T07:27:36.957Z</time></trkpt><trkpt lat="44.4454185" lon="9.9080974"><ele>793.0</ele><time>2026-04-08T07:27:37.957Z</time></trkpt><trkpt lat="44.4454176" lon="9.9082375"><ele>793.0</ele><time>2026-04-08T07:27:38.957Z</time></trkpt><trkpt lat="44.445418" lon="9.9083725"><ele>793.0</ele><time>2026-04-08T07:27:39.957Z</time></trkpt><trkpt lat="44.4454225" lon="9.9085031"><ele>792.8</ele><time>2026-04-08T07:27:40.958Z</time></trkpt><trkpt lat="44.445438" lon="9.9086287"><ele>792.5999999999999</ele><time>2026-04-08T07:27:41.957Z</time></trkpt><trkpt lat="44.4454775" lon="9.9087402"><ele>792.4000000000001</ele><time>2026-04-08T07:27:42.957Z</time></trkpt><trkpt lat="44.4455447" lon="9.9088184"><ele>792.2</ele><time>2026-04-08T07:27:43.957Z</time></trkpt><trkpt lat="44.4456322" lon="9.9088597"><ele>792.0</ele><time>2026-04-08T07:27:44.957Z</time></trkpt><trkpt lat="44.445729" lon="9.9088765"><ele>794.6</ele><time>2026-04-08T07:27:45.957Z</time></trkpt><trkpt lat="44.445829" lon="9.9088877"><ele>797.2</ele><time>2026-04-08T07:27:46.957Z</time></trkpt><trkpt lat="44.4459289" lon="9.9088913"><ele>799.8</ele><time>2026-04-08T07:27:47.957Z</time></trkpt><trkpt lat="44.4460261" lon="9.9088785"><ele>802.4</ele><time>2026-04-08T07:27:48.958Z</time></trkpt><trkpt lat="44.4461167" lon="9.9088319"><ele>805.0</ele><time>2026-04-08T07:27:49.957Z</time></trkpt><trkpt lat="44.4462082" lon="9.9087646"><ele>806.6</ele><time>2026-04-08T07:27:50.958Z</time></trkpt><trkpt lat="44.4462986" lon="9.9087028"><ele>808.2</ele><time>2026-04-08T07:27:51.957Z</time></trkpt><trkpt lat="44.4463934" lon="9.9086684"><ele>809.8</ele><time>2026-04-08T07:27:52.957Z</time></trkpt><trkpt lat="44.4464958" lon="9.9086699"><ele>811.4</ele><time>2026-04-08T07:27:53.957Z</time></trkpt><trkpt lat="44.4466" lon="9.908703"><ele>813.0</ele><time>2026-04-08T07:27:54.958Z</time></trkpt><trkpt lat="44.4466988" lon="9.9087494"><ele>813.0</ele><time>2026-04-08T07:27:55.957Z</time></trkpt><trkpt lat="44.4467963" lon="9.9087884"><ele>813.0</ele><time>2026-04-08T07:27:56.958Z</time></trkpt><trkpt lat="44.4468937" lon="9.9088116"><ele>813.0</ele><time>2026-04-08T07:27:57.956Z</time></trkpt><trkpt lat="44.4469927" lon="9.9088041"><ele>813.0</ele><time>2026-04-08T07:27:58.958Z</time></trkpt><trkpt lat="44.4470885" lon="9.9087688"><ele>813.0</ele><time>2026-04-08T07:27:59.957Z</time></trkpt><trkpt lat="44.4471796" lon="9.9087197"><ele>814.5999999999999</ele><time>2026-04-08T07:28:00.958Z</time></trkpt><trkpt lat="44.4472717" lon="9.9086672"><ele>816.1999999999999</ele><time>2026-04-08T07:28:01.958Z</time></trkpt><trkpt lat="44.4473625" lon="9.9086096"><ele>817.8</ele><time>2026-04-08T07:28:02.958Z</time></trkpt><trkpt lat="44.4474533" lon="9.9085435"><ele>819.4</ele><time>2026-04-08T07:28:03.957Z</time></trkpt><trkpt lat="44.4475431" lon="9.9084714"><ele>821.0</ele><time>2026-04-08T07:28:04.957Z</time></trkpt><trkpt lat="44.4476342" lon="9.9083967"><ele>822.8</ele><time>2026-04-08T07:28:05.958Z</time></trkpt><trkpt lat="44.4477257" lon="9.9083182"><ele>824.5999999999999</ele><time>2026-04-08T07:28:06.957Z</time></trkpt><trkpt lat="44.4478177" lon="9.9082358"><ele>826.4</ele><time>2026-04-08T07:28:07.957Z</time></trkpt><trkpt lat="44.447909" lon="9.9081532"><ele>828.2</ele><time>2026-04-08T07:28:08.957Z</time></trkpt><trkpt lat="44.4479937" lon="9.9080624"><ele>830.0</ele><time>2026-04-08T07:28:09.957Z</time></trkpt><trkpt lat="44.4480678" lon="9.9079556"><ele>832.0</ele><time>2026-04-08T07:28:10.957Z</time></trkpt><trkpt lat="44.4481257" lon="9.9078334"><ele>834.0</ele><time>2026-04-08T07:28:11.957Z</time></trkpt><trkpt lat="44.4481726" lon="9.9076998"><ele>836.0</ele><time>2026-04-08T07:28:12.957Z</time></trkpt><trkpt lat="44.4482191" lon="9.9075612"><ele>838.0</ele><time>2026-04-08T07:28:13.957Z</time></trkpt><trkpt lat="44.4482672" lon="9.9074244"><ele>840.0</ele><time>2026-04-08T07:28:14.958Z</time></trkpt><trkpt lat="44.4483284" lon="9.9073005"><ele>840.0</ele><time>2026-04-08T07:28:15.957Z</time></trkpt><trkpt lat="44.4484083" lon="9.9071915"><ele>840.0</ele><time>2026-04-08T07:28:16.958Z</time></trkpt><trkpt lat="44.4485006" lon="9.9070833"><ele>840.0</ele><time>2026-04-08T07:28:17.957Z</time></trkpt><trkpt lat="44.4485931" lon="9.906964"><ele>840.0</ele><time>2026-04-08T07:28:18.958Z</time></trkpt><trkpt lat="44.4486857" lon="9.9068643"><ele>840.0</ele><time>2026-04-08T07:28:19.957Z</time></trkpt><trkpt lat="44.4487853" lon="9.9067771"><ele>840.0</ele><time>2026-04-08T07:28:20.957Z</time></trkpt><trkpt lat="44.44889" lon="9.9067088"><ele>840.0</ele><time>2026-04-08T07:28:21.957Z</time></trkpt><trkpt lat="44.4489942" lon="9.9066432"><ele>840.0</ele><time>2026-04-08T07:28:22.958Z</time></trkpt><trkpt lat="44.4490955" lon="9.9065773"><ele>841.4</ele><time>2026-04-08T07:28:23.957Z</time></trkpt><trkpt lat="44.4491951" lon="9.9065143"><ele>842.8</ele><time>2026-04-08T07:28:24.957Z</time></trkpt><trkpt lat="44.4492921" lon="9.9064541"><ele>844.2</ele><time>2026-04-08T07:28:25.957Z</time></trkpt><trkpt lat="44.4493751" lon="9.9063985"><ele>845.6</ele><time>2026-04-08T07:28:26.957Z</time></trkpt><trkpt lat="44.4494491" lon="9.906353"><ele>847.0</ele><time>2026-04-08T07:28:27.957Z</time></trkpt><trkpt lat="44.4495198" lon="9.9063356"><ele>847.0</ele><time>2026-04-08T07:28:28.958Z</time></trkpt><trkpt lat="44.4495828" lon="9.9063597"><ele>847.0</ele><time>2026-04-08T07:28:29.957Z</time></trkpt><trkpt lat="44.4495818" lon="9.9065214"><ele>847.0</ele><time>2026-04-08T07:28:31.957Z</time></trkpt><trkpt lat="44.4495102" lon="9.9065923"><ele>847.0</ele><time>2026-04-08T07:28:32.957Z</time></trkpt><trkpt lat="44.4493909" lon="9.9066588"><ele>847.0</ele><time>2026-04-08T07:28:33.958Z</time></trkpt><trkpt lat="44.4492676" lon="9.9067267"><ele>850.0</ele><time>2026-04-08T07:28:34.957Z</time></trkpt><trkpt lat="44.4491394" lon="9.9068413"><ele>853.0</ele><time>2026-04-08T07:28:35.956Z</time></trkpt><trkpt lat="44.449025" lon="9.9069903"><ele>856.0</ele><time>2026-04-08T07:28:36.957Z</time></trkpt><trkpt lat="44.4489387" lon="9.9071194"><ele>859.0</ele><time>2026-04-08T07:28:37.957Z</time></trkpt><trkpt lat="44.4488719" lon="9.9072159"><ele>858.9999999999999</ele><time>2026-04-08T07:28:38.957Z</time></trkpt><trkpt lat="44.44883" lon="9.9073057"><ele>859.0</ele><time>2026-04-08T07:28:39.958Z</time></trkpt><trkpt lat="44.4488279" lon="9.9074087"><ele>859.0</ele><time>2026-04-08T07:28:40.957Z</time></trkpt><trkpt lat="44.4488695" lon="9.907495"><ele>859.0</ele><time>2026-04-08T07:28:41.957Z</time></trkpt><trkpt lat="44.4489413" lon="9.9075199"><ele>858.9999999999999</ele><time>2026-04-08T07:28:42.957Z</time></trkpt><trkpt lat="44.4490213" lon="9.9075333"><ele>859.0</ele><time>2026-04-08T07:28:43.957Z</time></trkpt><trkpt lat="44.4491134" lon="9.9073728"><ele>859.0</ele><time>2026-04-08T07:28:44.957Z</time></trkpt><trkpt lat="44.4492094" lon="9.9072824"><ele>859.0000000000001</ele><time>2026-04-08T07:28:45.957Z</time></trkpt><trkpt lat="44.4492944" lon="9.9071994"><ele>859.0000000000001</ele><time>2026-04-08T07:28:46.958Z</time></trkpt><trkpt lat="44.4493911" lon="9.9071576"><ele>859.0</ele><time>2026-04-08T07:28:47.957Z</time></trkpt><trkpt lat="44.4494833" lon="9.907185"><ele>859.0</ele><time>2026-04-08T07:28:48.957Z</time></trkpt><trkpt lat="44.4495447" lon="9.9072771"><ele>859.0</ele><time>2026-04-08T07:28:49.958Z</time></trkpt><trkpt lat="44.4495663" lon="9.9074231"><ele>859.0</ele><time>2026-04-08T07:28:50.957Z</time></trkpt><trkpt lat="44.4495644" lon="9.9075917"><ele>859.0</ele><time>2026-04-08T07:28:51.958Z</time></trkpt><trkpt lat="44.449538" lon="9.9077746"><ele>859.0</ele><time>2026-04-08T07:28:52.957Z</time></trkpt><trkpt lat="44.4494697" lon="9.907948"><ele>859.8000000000001</ele><time>2026-04-08T07:28:53.957Z</time></trkpt><trkpt lat="44.4493813" lon="9.9080705"><ele>860.6000000000001</ele><time>2026-04-08T07:28:54.958Z</time></trkpt><trkpt lat="44.4492853" lon="9.9081437"><ele>861.4</ele><time>2026-04-08T07:28:55.957Z</time></trkpt><trkpt lat="44.4492049" lon="9.9082396"><ele>862.2</ele><time>2026-04-08T07:28:56.957Z</time></trkpt><trkpt lat="44.4491531" lon="9.9083741"><ele>863.0</ele><time>2026-04-08T07:28:57.957Z</time></trkpt><trkpt lat="44.4491311" lon="9.908521"><ele>861.4</ele><time>2026-04-08T07:28:58.957Z</time></trkpt><trkpt lat="44.4491464" lon="9.9086775"><ele>859.8</ele><time>2026-04-08T07:28:59.958Z</time></trkpt><trkpt lat="44.4491911" lon="9.9088094"><ele>858.2</ele><time>2026-04-08T07:29:00.957Z</time></trkpt><trkpt lat="44.449272" lon="9.9089023"><ele>856.6</ele><time>2026-04-08T07:29:01.957Z</time></trkpt><trkpt lat="44.44939" lon="9.9089492"><ele>855.0</ele><time>2026-04-08T07:29:02.957Z</time></trkpt><trkpt lat="44.4495263" lon="9.9089785"><ele>858.0</ele><time>2026-04-08T07:29:03.957Z</time></trkpt><trkpt lat="44.4496742" lon="9.9090157"><ele>861.0</ele><time>2026-04-08T07:29:04.957Z</time></trkpt><trkpt lat="44.4498287" lon="9.9090439"><ele>864.0</ele><time>2026-04-08T07:29:05.957Z</time></trkpt><trkpt lat="44.4499652" lon="9.9090675"><ele>867.0</ele><time>2026-04-08T07:29:06.957Z</time></trkpt><trkpt lat="44.4500888" lon="9.9090851"><ele>867.0</ele><time>2026-04-08T07:29:07.958Z</time></trkpt><trkpt lat="44.4502033" lon="9.9090606"><ele>867.0</ele><time>2026-04-08T07:29:08.958Z</time></trkpt><trkpt lat="44.4503077" lon="9.90897"><ele>867.0</ele><time>2026-04-08T07:29:09.957Z</time></trkpt><trkpt lat="44.4503985" lon="9.9088373"><ele>867.0</ele><time>2026-04-08T07:29:10.957Z</time></trkpt><trkpt lat="44.4504879" lon="9.9086862"><ele>869.0</ele><time>2026-04-08T07:29:11.958Z</time></trkpt><trkpt lat="44.4506186" lon="9.9085424"><ele>871.0</ele><time>2026-04-08T07:29:12.958Z</time></trkpt><trkpt lat="44.450783" lon="9.9084257"><ele>873.0</ele><time>2026-04-08T07:29:13.957Z</time></trkpt><trkpt lat="44.4509554" lon="9.9083062"><ele>877.3333333333333</ele><time>2026-04-08T07:29:14.957Z</time></trkpt><trkpt lat="44.4511076" lon="9.908201"><ele>881.6666666666666</ele><time>2026-04-08T07:29:15.958Z</time></trkpt><trkpt lat="44.4512504" lon="9.9081083"><ele>886.0</ele><time>2026-04-08T07:29:16.957Z</time></trkpt><trkpt lat="44.4513816" lon="9.9080287"><ele>887.25</ele><time>2026-04-08T07:29:17.957Z</time></trkpt><trkpt lat="44.4515063" lon="9.9079631"><ele>888.5</ele><time>2026-04-08T07:29:18.958Z</time></trkpt><trkpt lat="44.451642" lon="9.90793"><ele>889.75</ele><time>2026-04-08T07:29:19.957Z</time></trkpt><trkpt lat="44.4517806" lon="9.9079621"><ele>891.0</ele><time>2026-04-08T07:29:20.958Z</time></trkpt><trkpt lat="44.4519032" lon="9.9080512"><ele>891.0</ele><time>2026-04-08T07:29:21.958Z</time></trkpt><trkpt lat="44.4520219" lon="9.908181"><ele>891.0</ele><time>2026-04-08T07:29:22.957Z</time></trkpt><trkpt lat="44.4521158" lon="9.9083818"><ele>891.0</ele><time>2026-04-08T07:29:23.957Z</time></trkpt><trkpt lat="44.4522189" lon="9.9085564"><ele>895.0</ele><time>2026-04-08T07:29:24.957Z</time></trkpt><trkpt lat="44.4523143" lon="9.9087136"><ele>899.0</ele><time>2026-04-08T07:29:25.957Z</time></trkpt><trkpt lat="44.4523954" lon="9.9088782"><ele>903.0</ele><time>2026-04-08T07:29:26.957Z</time></trkpt><trkpt lat="44.4524288" lon="9.9090614"><ele>907.0</ele><time>2026-04-08T07:29:27.958Z</time></trkpt><trkpt lat="44.4524137" lon="9.9092487"><ele>908.0</ele><time>2026-04-08T07:29:28.957Z</time></trkpt><trkpt lat="44.4523584" lon="9.9094243"><ele>909.0</ele><time>2026-04-08T07:29:29.957Z</time></trkpt><trkpt lat="44.4522853" lon="9.9095885"><ele>910.0</ele><time>2026-04-08T07:29:30.957Z</time></trkpt><trkpt lat="44.4522573" lon="9.9097623"><ele>911.0</ele><time>2026-04-08T07:29:31.957Z</time></trkpt><trkpt lat="44.4522822" lon="9.9099323"><ele>909.75</ele><time>2026-04-08T07:29:32.958Z</time></trkpt><trkpt lat="44.4523529" lon="9.9100891"><ele>908.5</ele><time>2026-04-08T07:29:33.957Z</time></trkpt><trkpt lat="44.452455" lon="9.9102417"><ele>907.25</ele><time>2026-04-08T07:29:34.957Z</time></trkpt><trkpt lat="44.452566" lon="9.9104121"><ele>906.0</ele><time>2026-04-08T07:29:35.957Z</time></trkpt><trkpt lat="44.4526716" lon="9.9105954"><ele>906.0</ele><time>2026-04-08T07:29:36.957Z</time></trkpt><trkpt lat="44.4527722" lon="9.9107838"><ele>906.0</ele><time>2026-04-08T07:29:37.957Z</time></trkpt><trkpt lat="44.4528689" lon="9.9109684"><ele>906.0</ele><time>2026-04-08T07:29:38.957Z</time></trkpt><trkpt lat="44.4529632" lon="9.9111455"><ele>913.3333333333333</ele><time>2026-04-08T07:29:39.957Z</time></trkpt><trkpt lat="44.4530546" lon="9.9113215"><ele>920.6666666666666</ele><time>2026-04-08T07:29:40.957Z</time></trkpt><trkpt lat="44.4531369" lon="9.9115045"><ele>928.0</ele><time>2026-04-08T07:29:41.957Z</time></trkpt><trkpt lat="44.4532054" lon="9.9116984"><ele>926.3333333333333</ele><time>2026-04-08T07:29:42.958Z</time></trkpt><trkpt lat="44.453266" lon="9.9118951"><ele>924.6666666666667</ele><time>2026-04-08T07:29:43.957Z</time></trkpt><trkpt lat="44.4533254" lon="9.9120909"><ele>923.0</ele><time>2026-04-08T07:29:44.957Z</time></trkpt><trkpt lat="44.4533878" lon="9.9122776"><ele>923.0</ele><time>2026-04-08T07:29:45.958Z</time></trkpt><trkpt lat="44.4534479" lon="9.9124612"><ele>923.0</ele><time>2026-04-08T07:29:46.957Z</time></trkpt><trkpt lat="44.4535066" lon="9.9126387"><ele>923.0</ele><time>2026-04-08T07:29:47.958Z</time></trkpt><trkpt lat="44.453553" lon="9.9128236"><ele>923.0</ele><time>2026-04-08T07:29:48.957Z</time></trkpt><trkpt lat="44.4535657" lon="9.9130272"><ele>923.6666666666667</ele><time>2026-04-08T07:29:49.957Z</time></trkpt><trkpt lat="44.4535716" lon="9.9132346"><ele>924.3333333333333</ele><time>2026-04-08T07:29:50.957Z</time></trkpt><trkpt lat="44.4535762" lon="9.913459"><ele>925.0</ele><time>2026-04-08T07:29:51.957Z</time></trkpt><trkpt lat="44.4535729" lon="9.9136853"><ele>927.0</ele><time>2026-04-08T07:29:52.957Z</time></trkpt><trkpt lat="44.453565" lon="9.9139055"><ele>929.0</ele><time>2026-04-08T07:29:53.957Z</time></trkpt><trkpt lat="44.4535581" lon="9.9141185"><ele>931.0</ele><time>2026-04-08T07:29:54.957Z</time></trkpt><trkpt lat="44.453549" lon="9.9143258"><ele>933.5</ele><time>2026-04-08T07:29:55.958Z</time></trkpt><trkpt lat="44.4535269" lon="9.9145258"><ele>936.0</ele><time>2026-04-08T07:29:56.958Z</time></trkpt><trkpt lat="44.4534905" lon="9.9147139"><ele>938.5</ele><time>2026-04-08T07:29:57.957Z</time></trkpt><trkpt lat="44.4534392" lon="9.9148888"><ele>941.0</ele><time>2026-04-08T07:29:58.958Z</time></trkpt><trkpt lat="44.4533659" lon="9.915048"><ele>944.75</ele><time>2026-04-08T07:29:59.957Z</time></trkpt><trkpt lat="44.4532718" lon="9.9151849"><ele>948.5</ele><time>2026-04-08T07:30:00.958Z</time></trkpt><trkpt lat="44.4531779" lon="9.9153233"><ele>952.25</ele><time>2026-04-08T07:30:01.958Z</time></trkpt><trkpt lat="44.4530863" lon="9.9154703"><ele>956.0</ele><time>2026-04-08T07:30:02.957Z</time></trkpt><trkpt lat="44.452994" lon="9.9156268"><ele>954.0</ele><time>2026-04-08T07:30:03.958Z</time></trkpt><trkpt lat="44.4528928" lon="9.9157911"><ele>952.0</ele><time>2026-04-08T07:30:04.957Z</time></trkpt><trkpt lat="44.4527855" lon="9.9159616"><ele>950.0</ele><time>2026-04-08T07:30:05.957Z</time></trkpt><trkpt lat="44.4526786" lon="9.9161326"><ele>950.0</ele><time>2026-04-08T07:30:06.957Z</time></trkpt><trkpt lat="44.4525746" lon="9.9163063"><ele>950.0</ele><time>2026-04-08T07:30:07.957Z</time></trkpt><trkpt lat="44.4524715" lon="9.9164822"><ele>950.0</ele><time>2026-04-08T07:30:08.957Z</time></trkpt><trkpt lat="44.4523719" lon="9.9166513"><ele>949.0</ele><time>2026-04-08T07:30:09.958Z</time></trkpt><trkpt lat="44.4522732" lon="9.9168175"><ele>948.0</ele><time>2026-04-08T07:30:10.957Z</time></trkpt><trkpt lat="44.4521813" lon="9.9169807"><ele>947.0</ele><time>2026-04-08T07:30:11.958Z</time></trkpt><trkpt lat="44.4520978" lon="9.9171469"><ele>946.0</ele><time>2026-04-08T07:30:12.958Z</time></trkpt><trkpt lat="44.4520377" lon="9.9173297"><ele>946.0</ele><time>2026-04-08T07:30:13.958Z</time></trkpt><trkpt lat="44.452005" lon="9.9175368"><ele>946.0</ele><time>2026-04-08T07:30:14.957Z</time></trkpt><trkpt lat="44.4519786" lon="9.9177649"><ele>946.0</ele><time>2026-04-08T07:30:15.957Z</time></trkpt><trkpt lat="44.4519196" lon="9.9179931"><ele>949.0</ele><time>2026-04-08T07:30:16.957Z</time></trkpt><trkpt lat="44.4518361" lon="9.9182059"><ele>952.0</ele><time>2026-04-08T07:30:17.957Z</time></trkpt><trkpt lat="44.4517336" lon="9.9183977"><ele>955.0</ele><time>2026-04-08T07:30:18.957Z</time></trkpt><trkpt lat="44.4516158" lon="9.9185669"><ele>957.0</ele><time>2026-04-08T07:30:19.957Z</time></trkpt><trkpt lat="44.4514932" lon="9.918723"><ele>959.0</ele><time>2026-04-08T07:30:20.957Z</time></trkpt><trkpt lat="44.4513723" lon="9.9188775"><ele>961.0</ele><time>2026-04-08T07:30:21.958Z</time></trkpt><trkpt lat="44.4512498" lon="9.9190271"><ele>961.0</ele><time>2026-04-08T07:30:22.957Z</time></trkpt><trkpt lat="44.4511295" lon="9.9191522"><ele>961.0</ele><time>2026-04-08T07:30:23.958Z</time></trkpt><trkpt lat="44.4510145" lon="9.9192566"><ele>961.0</ele><time>2026-04-08T07:30:24.957Z</time></trkpt><trkpt lat="44.4509137" lon="9.9193626"><ele>961.0</ele><time>2026-04-08T07:30:25.958Z</time></trkpt><trkpt lat="44.4508313" lon="9.9194692"><ele>962.5999999999999</ele><time>2026-04-08T07:30:26.957Z</time></trkpt><trkpt lat="44.4507785" lon="9.9195767"><ele>964.1999999999999</ele><time>2026-04-08T07:30:27.957Z</time></trkpt><trkpt lat="44.4507578" lon="9.9196767"><ele>965.8000000000001</ele><time>2026-04-08T07:30:28.957Z</time></trkpt><trkpt lat="44.4507969" lon="9.9198284"><ele>967.4000000000001</ele><time>2026-04-08T07:30:30.958Z</time></trkpt><trkpt lat="44.4508967" lon="9.9199013"><ele>969.0</ele><time>2026-04-08T07:30:32.957Z</time></trkpt><trkpt lat="44.4509732" lon="9.9198662"><ele>969.0</ele><time>2026-04-08T07:30:33.957Z</time></trkpt><trkpt lat="44.4510547" lon="9.9197768"><ele>969.0</ele><time>2026-04-08T07:30:34.958Z</time></trkpt><trkpt lat="44.4511429" lon="9.9196473"><ele>969.0</ele><time>2026-04-08T07:30:35.958Z</time></trkpt><trkpt lat="44.4512427" lon="9.9195138"><ele>969.0</ele><time>2026-04-08T07:30:36.958Z</time></trkpt><trkpt lat="44.4513506" lon="9.919377"><ele>970.0</ele><time>2026-04-08T07:30:37.957Z</time></trkpt><trkpt lat="44.4514758" lon="9.9192354"><ele>971.0</ele><time>2026-04-08T07:30:38.958Z</time></trkpt><trkpt lat="44.4516335" lon="9.9191137"><ele>972.0</ele><time>2026-04-08T07:30:39.957Z</time></trkpt><trkpt lat="44.4518105" lon="9.9190105"><ele>972.0</ele><time>2026-04-08T07:30:40.958Z</time></trkpt><trkpt lat="44.4519884" lon="9.9189464"><ele>972.0</ele><time>2026-04-08T07:30:41.957Z</time></trkpt><trkpt lat="44.452163" lon="9.9189278"><ele>972.0</ele><time>2026-04-08T07:30:42.958Z</time></trkpt><trkpt lat="44.4523279" lon="9.9189134"><ele>972.3333333333333</ele><time>2026-04-08T07:30:43.957Z</time></trkpt><trkpt lat="44.4524903" lon="9.9188552"><ele>972.6666666666666</ele><time>2026-04-08T07:30:44.956Z</time></trkpt><trkpt lat="44.4526583" lon="9.9187454"><ele>973.0</ele><time>2026-04-08T07:30:45.957Z</time></trkpt><trkpt lat="44.4528326" lon="9.9185952"><ele>974.3333333333333</ele><time>2026-04-08T07:30:46.956Z</time></trkpt><trkpt lat="44.4529835" lon="9.9184139"><ele>975.6666666666667</ele><time>2026-04-08T07:30:47.957Z</time></trkpt><trkpt lat="44.4531146" lon="9.9182205"><ele>977.0</ele><time>2026-04-08T07:30:48.957Z</time></trkpt><trkpt lat="44.4532478" lon="9.9180506"><ele>977.0</ele><time>2026-04-08T07:30:49.957Z</time></trkpt><trkpt lat="44.4534078" lon="9.9179349"><ele>977.0</ele><time>2026-04-08T07:30:50.957Z</time></trkpt><trkpt lat="44.4535792" lon="9.9178591"><ele>977.0</ele><time>2026-04-08T07:30:51.957Z</time></trkpt><trkpt lat="44.4537657" lon="9.9178302"><ele>975.0</ele><time>2026-04-08T07:30:52.957Z</time></trkpt><trkpt lat="44.4539545" lon="9.9178342"><ele>973.0</ele><time>2026-04-08T07:30:53.958Z</time></trkpt><trkpt lat="44.4541361" lon="9.9178557"><ele>971.0</ele><time>2026-04-08T07:30:54.957Z</time></trkpt><trkpt lat="44.4543146" lon="9.917908"><ele>971.0</ele><time>2026-04-08T07:30:55.956Z</time></trkpt><trkpt lat="44.4544893" lon="9.9180079"><ele>971.0</ele><time>2026-04-08T07:30:56.958Z</time></trkpt><trkpt lat="44.4546647" lon="9.9181257"><ele>971.0</ele><time>2026-04-08T07:30:57.958Z</time></trkpt><trkpt lat="44.454835" lon="9.9182365"><ele>969.6666666666667</ele><time>2026-04-08T07:30:58.958Z</time></trkpt><trkpt lat="44.4549886" lon="9.9183795"><ele>968.3333333333333</ele><time>2026-04-08T07:30:59.957Z</time></trkpt><trkpt lat="44.4551205" lon="9.9185613"><ele>967.0</ele><time>2026-04-08T07:31:00.958Z</time></trkpt><trkpt lat="44.4552285" lon="9.9187452"><ele>967.0</ele><time>2026-04-08T07:31:01.957Z</time></trkpt><trkpt lat="44.4553351" lon="9.918915"><ele>967.0</ele><time>2026-04-08T07:31:02.957Z</time></trkpt><trkpt lat="44.4554375" lon="9.9190707"><ele>967.0</ele><time>2026-04-08T07:31:03.957Z</time></trkpt><trkpt lat="44.4555317" lon="9.9191878"><ele>967.0</ele><time>2026-04-08T07:31:04.957Z</time></trkpt><trkpt lat="44.4556408" lon="9.9192467"><ele>971.0</ele><time>2026-04-08T07:31:05.958Z</time></trkpt><trkpt lat="44.4557637" lon="9.9192303"><ele>975.0</ele><time>2026-04-08T07:31:06.958Z</time></trkpt><trkpt lat="44.4558861" lon="9.9191563"><ele>979.0</ele><time>2026-04-08T07:31:07.957Z</time></trkpt><trkpt lat="44.4560286" lon="9.9190795"><ele>983.0</ele><time>2026-04-08T07:31:08.958Z</time></trkpt><trkpt lat="44.4561894" lon="9.9190367"><ele>983.6666666666667</ele><time>2026-04-08T07:31:09.957Z</time></trkpt><trkpt lat="44.4563455" lon="9.9190171"><ele>984.3333333333333</ele><time>2026-04-08T07:31:10.957Z</time></trkpt><trkpt lat="44.4564997" lon="9.9190098"><ele>985.0</ele><time>2026-04-08T07:31:11.958Z</time></trkpt><trkpt lat="44.4566532" lon="9.9190212"><ele>985.0</ele><time>2026-04-08T07:31:12.958Z</time></trkpt><trkpt lat="44.4568075" lon="9.9190723"><ele>985.0</ele><time>2026-04-08T07:31:13.957Z</time></trkpt><trkpt lat="44.4569677" lon="9.9191541"><ele>985.0</ele><time>2026-04-08T07:31:14.957Z</time></trkpt><trkpt lat="44.4571239" lon="9.91919"><ele>981.3333333333333</ele><time>2026-04-08T07:31:15.958Z</time></trkpt><trkpt lat="44.457277" lon="9.9192346"><ele>977.6666666666667</ele><time>2026-04-08T07:31:16.958Z</time></trkpt><trkpt lat="44.4574202" lon="9.9193276"><ele>974.0</ele><time>2026-04-08T07:31:17.957Z</time></trkpt><trkpt lat="44.4575489" lon="9.9194628"><ele>974.0</ele><time>2026-04-08T07:31:18.958Z</time></trkpt><trkpt lat="44.4576506" lon="9.9196235"><ele>974.0</ele><time>2026-04-08T07:31:19.957Z</time></trkpt><trkpt lat="44.4577443" lon="9.9197781"><ele>974.0</ele><time>2026-04-08T07:31:20.957Z</time></trkpt><trkpt lat="44.4578694" lon="9.9198717"><ele>974.0</ele><time>2026-04-08T07:31:21.957Z</time></trkpt><trkpt lat="44.4580051" lon="9.9198783"><ele>976.5</ele><time>2026-04-08T07:31:22.957Z</time></trkpt><trkpt lat="44.4581341" lon="9.9198205"><ele>979.0</ele><time>2026-04-08T07:31:23.957Z</time></trkpt><trkpt lat="44.4582585" lon="9.9197422"><ele>981.5</ele><time>2026-04-08T07:31:24.957Z</time></trkpt><trkpt lat="44.4583812" lon="9.919702"><ele>984.0</ele><time>2026-04-08T07:31:25.957Z</time></trkpt><trkpt lat="44.4585037" lon="9.9197234"><ele>984.0</ele><time>2026-04-08T07:31:26.957Z</time></trkpt><trkpt lat="44.4586082" lon="9.9198259"><ele>984.0</ele><time>2026-04-08T07:31:27.957Z</time></trkpt><trkpt lat="44.4586994" lon="9.919965"><ele>984.0</ele><time>2026-04-08T07:31:28.957Z</time></trkpt><trkpt lat="44.4587968" lon="9.9201148"><ele>984.0</ele><time>2026-04-08T07:31:29.957Z</time></trkpt><trkpt lat="44.4588944" lon="9.9202798"><ele>985.25</ele><time>2026-04-08T07:31:30.957Z</time></trkpt><trkpt lat="44.4589836" lon="9.9204485"><ele>986.5</ele><time>2026-04-08T07:31:31.957Z</time></trkpt><trkpt lat="44.4590651" lon="9.9206121"><ele>987.75</ele><time>2026-04-08T07:31:32.957Z</time></trkpt><trkpt lat="44.4591407" lon="9.9207727"><ele>989.0</ele><time>2026-04-08T07:31:33.958Z</time></trkpt><trkpt lat="44.4592126" lon="9.9209283"><ele>985.0</ele><time>2026-04-08T07:31:34.958Z</time></trkpt><trkpt lat="44.4592992" lon="9.9210668"><ele>981.0</ele><time>2026-04-08T07:31:35.958Z</time></trkpt><trkpt lat="44.4594219" lon="9.9211486"><ele>977.0</ele><time>2026-04-08T07:31:36.957Z</time></trkpt><trkpt lat="44.4595556" lon="9.9211464"><ele>973.0</ele><time>2026-04-08T07:31:37.957Z</time></trkpt><trkpt lat="44.4596965" lon="9.921092"><ele>973.0</ele><time>2026-04-08T07:31:38.958Z</time></trkpt><trkpt lat="44.4598447" lon="9.9210192"><ele>973.0</ele><time>2026-04-08T07:31:39.958Z</time></trkpt><trkpt lat="44.4599856" lon="9.9209448"><ele>973.0</ele><time>2026-04-08T07:31:40.957Z</time></trkpt><trkpt lat="44.4601107" lon="9.9208362"><ele>978.0</ele><time>2026-04-08T07:31:41.957Z</time></trkpt><trkpt lat="44.460225" lon="9.9207209"><ele>983.0</ele><time>2026-04-08T07:31:42.957Z</time></trkpt><trkpt lat="44.4603628" lon="9.9206524"><ele>988.0</ele><time>2026-04-08T07:31:43.957Z</time></trkpt><trkpt lat="44.4605161" lon="9.92064"><ele>993.0</ele><time>2026-04-08T07:31:44.957Z</time></trkpt><trkpt lat="44.4606815" lon="9.9206604"><ele>993.0</ele><time>2026-04-08T07:31:45.957Z</time></trkpt><trkpt lat="44.4608388" lon="9.9207029"><ele>993.0</ele><time>2026-04-08T07:31:46.957Z</time></trkpt><trkpt lat="44.4609922" lon="9.9207485"><ele>993.0</ele><time>2026-04-08T07:31:47.958Z</time></trkpt><trkpt lat="44.4611417" lon="9.920811"><ele>990.0</ele><time>2026-04-08T07:31:48.957Z</time></trkpt><trkpt lat="44.4612786" lon="9.920925"><ele>987.0</ele><time>2026-04-08T07:31:49.957Z</time></trkpt><trkpt lat="44.4614049" lon="9.9210764"><ele>984.0</ele><time>2026-04-08T07:31:50.956Z</time></trkpt><trkpt lat="44.4615404" lon="9.9212259"><ele>984.0</ele><time>2026-04-08T07:31:51.957Z</time></trkpt><trkpt lat="44.4616757" lon="9.9213658"><ele>984.0</ele><time>2026-04-08T07:31:52.958Z</time></trkpt><trkpt lat="44.461808" lon="9.9214842"><ele>984.0</ele><time>2026-04-08T07:31:53.957Z</time></trkpt><trkpt lat="44.461937" lon="9.921583"><ele>984.0</ele><time>2026-04-08T07:31:54.958Z</time></trkpt><trkpt lat="44.4620578" lon="9.9216483"><ele>984.0</ele><time>2026-04-08T07:31:55.957Z</time></trkpt><trkpt lat="44.4621736" lon="9.9216503"><ele>984.0</ele><time>2026-04-08T07:31:56.957Z</time></trkpt><trkpt lat="44.4622736" lon="9.921571"><ele>984.0</ele><time>2026-04-08T07:31:57.957Z</time></trkpt><trkpt lat="44.4623438" lon="9.921429"><ele>985.5</ele><time>2026-04-08T07:31:58.957Z</time></trkpt><trkpt lat="44.4623796" lon="9.9212497"><ele>987.0</ele><time>2026-04-08T07:31:59.958Z</time></trkpt><trkpt lat="44.4623999" lon="9.9210427"><ele>988.5</ele><time>2026-04-08T07:32:00.958Z</time></trkpt><trkpt lat="44.462424" lon="9.9208323"><ele>990.0</ele><time>2026-04-08T07:32:01.957Z</time></trkpt><trkpt lat="44.4624484" lon="9.920632"><ele>993.0</ele><time>2026-04-08T07:32:02.957Z</time></trkpt><trkpt lat="44.4624783" lon="9.9204356"><ele>996.0</ele><time>2026-04-08T07:32:03.958Z</time></trkpt><trkpt lat="44.4625187" lon="9.9202481"><ele>999.0</ele><time>2026-04-08T07:32:04.957Z</time></trkpt><trkpt lat="44.462574" lon="9.920068"><ele>1002.0</ele><time>2026-04-08T07:32:05.957Z</time></trkpt><trkpt lat="44.462649" lon="9.9198984"><ele>1001.0</ele><time>2026-04-08T07:32:06.957Z</time></trkpt><trkpt lat="44.4627364" lon="9.9197447"><ele>1000.0</ele><time>2026-04-08T07:32:07.957Z</time></trkpt><trkpt lat="44.4628231" lon="9.9195937"><ele>999.0</ele><time>2026-04-08T07:32:08.957Z</time></trkpt><trkpt lat="44.4629011" lon="9.9194498"><ele>998.0</ele><time>2026-04-08T07:32:09.958Z</time></trkpt><trkpt lat="44.462977" lon="9.9193229"><ele>998.0</ele><time>2026-04-08T07:32:10.958Z</time></trkpt><trkpt lat="44.4630636" lon="9.9192241"><ele>998.0</ele><time>2026-04-08T07:32:11.958Z</time></trkpt><trkpt lat="44.4631734" lon="9.9191792"><ele>998.0</ele><time>2026-04-08T07:32:12.958Z</time></trkpt><trkpt lat="44.463288" lon="9.9192048"><ele>998.0</ele><time>2026-04-08T07:32:13.956Z</time></trkpt><trkpt lat="44.4633867" lon="9.9192918"><ele>998.0</ele><time>2026-04-08T07:32:14.957Z</time></trkpt><trkpt lat="44.463462" lon="9.9194373"><ele>998.0</ele><time>2026-04-08T07:32:15.957Z</time></trkpt><trkpt lat="44.4635457" lon="9.919583"><ele>998.0</ele><time>2026-04-08T07:32:16.957Z</time></trkpt><trkpt lat="44.4636558" lon="9.9197041"><ele>998.0</ele><time>2026-04-08T07:32:17.957Z</time></trkpt><trkpt lat="44.4637899" lon="9.9198011"><ele>995.3333333333334</ele><time>2026-04-08T07:32:18.958Z</time></trkpt><trkpt lat="44.4639423" lon="9.9198886"><ele>992.6666666666667</ele><time>2026-04-08T07:32:19.957Z</time></trkpt><trkpt lat="44.4640996" lon="9.9199799"><ele>990.0</ele><time>2026-04-08T07:32:20.957Z</time></trkpt><trkpt lat="44.464263" lon="9.9200802"><ele>990.0</ele><time>2026-04-08T07:32:21.957Z</time></trkpt><trkpt lat="44.4644291" lon="9.9202049"><ele>990.0</ele><time>2026-04-08T07:32:22.957Z</time></trkpt><trkpt lat="44.4645938" lon="9.920342"><ele>990.0</ele><time>2026-04-08T07:32:23.956Z</time></trkpt><trkpt lat="44.4647468" lon="9.9204707"><ele>993.6666666666667</ele><time>2026-04-08T07:32:24.957Z</time></trkpt><trkpt lat="44.4648906" lon="9.9205827"><ele>997.3333333333334</ele><time>2026-04-08T07:32:25.958Z</time></trkpt><trkpt lat="44.4650323" lon="9.920666"><ele>1001.0</ele><time>2026-04-08T07:32:26.955Z</time></trkpt><trkpt lat="44.4651816" lon="9.920693"><ele>1001.0</ele><time>2026-04-08T07:32:27.957Z</time></trkpt><trkpt lat="44.4653305" lon="9.9206558"><ele>1001.0</ele><time>2026-04-08T07:32:28.957Z</time></trkpt><trkpt lat="44.4654827" lon="9.9205874"><ele>1001.0</ele><time>2026-04-08T07:32:29.957Z</time></trkpt><trkpt lat="44.4656413" lon="9.92052"><ele>1002.0</ele><time>2026-04-08T07:32:30.957Z</time></trkpt><trkpt lat="44.4658048" lon="9.9204511"><ele>1003.0</ele><time>2026-04-08T07:32:31.956Z</time></trkpt><trkpt lat="44.4659689" lon="9.9203786"><ele>1004.0</ele><time>2026-04-08T07:32:32.957Z</time></trkpt><trkpt lat="44.4661354" lon="9.9203149"><ele>1003.6666666666667</ele><time>2026-04-08T07:32:33.956Z</time></trkpt><trkpt lat="44.4663092" lon="9.9202867"><ele>1003.3333333333333</ele><time>2026-04-08T07:32:34.957Z</time></trkpt><trkpt lat="44.4664805" lon="9.9202903"><ele>1003.0</ele><time>2026-04-08T07:32:35.957Z</time></trkpt><trkpt lat="44.466646" lon="9.9203019"><ele>1003.0</ele><time>2026-04-08T07:32:36.956Z</time></trkpt><trkpt lat="44.4668081" lon="9.9203195"><ele>1003.0</ele><time>2026-04-08T07:32:37.957Z</time></trkpt><trkpt lat="44.4669663" lon="9.9203402"><ele>1003.0</ele><time>2026-04-08T07:32:38.958Z</time></trkpt><trkpt lat="44.4671232" lon="9.9203609"><ele>1005.6666666666666</ele><time>2026-04-08T07:32:39.956Z</time></trkpt><trkpt lat="44.4672792" lon="9.9203851"><ele>1008.3333333333333</ele><time>2026-04-08T07:32:40.958Z</time></trkpt><trkpt lat="44.4674376" lon="9.9204141"><ele>1011.0</ele><time>2026-04-08T07:32:41.955Z</time></trkpt><trkpt lat="44.4675952" lon="9.9204689"><ele>1011.0</ele><time>2026-04-08T07:32:42.958Z</time></trkpt><trkpt lat="44.4677431" lon="9.9205707"><ele>1011.0</ele><time>2026-04-08T07:32:43.957Z</time></trkpt><trkpt lat="44.4678759" lon="9.9207178"><ele>1011.0</ele><time>2026-04-08T07:32:44.956Z</time></trkpt><trkpt lat="44.4680039" lon="9.92088"><ele>1012.3333333333333</ele><time>2026-04-08T07:32:45.957Z</time></trkpt><trkpt lat="44.4681412" lon="9.9210378"><ele>1013.6666666666666</ele><time>2026-04-08T07:32:46.957Z</time></trkpt><trkpt lat="44.4682757" lon="9.9212072"><ele>1015.0</ele><time>2026-04-08T07:32:47.956Z</time></trkpt><trkpt lat="44.4683984" lon="9.9214051"><ele>1015.0</ele><time>2026-04-08T07:32:48.957Z</time></trkpt><trkpt lat="44.4685089" lon="9.9216184"><ele>1015.0</ele><time>2026-04-08T07:32:49.957Z</time></trkpt><trkpt lat="44.4686183" lon="9.9218244"><ele>1015.0</ele><time>2026-04-08T07:32:50.956Z</time></trkpt><trkpt lat="44.4687215" lon="9.9220152"><ele>1016.0</ele><time>2026-04-08T07:32:51.957Z</time></trkpt><trkpt lat="44.4688169" lon="9.9221934"><ele>1017.0</ele><time>2026-04-08T07:32:52.958Z</time></trkpt><trkpt lat="44.468904" lon="9.9223564"><ele>1018.0</ele><time>2026-04-08T07:32:53.957Z</time></trkpt><trkpt lat="44.4689987" lon="9.9224922"><ele>1019.0</ele><time>2026-04-08T07:32:54.958Z</time></trkpt><trkpt lat="44.4691165" lon="9.9225816"><ele>1019.0</ele><time>2026-04-08T07:32:55.957Z</time></trkpt><trkpt lat="44.4692459" lon="9.9225953"><ele>1019.0</ele><time>2026-04-08T07:32:56.957Z</time></trkpt><trkpt lat="44.4693566" lon="9.9225301"><ele>1019.0</ele><time>2026-04-08T07:32:57.956Z</time></trkpt><trkpt lat="44.4694266" lon="9.922405"><ele>1019.0</ele><time>2026-04-08T07:32:58.957Z</time></trkpt><trkpt lat="44.4694698" lon="9.9222495"><ele>1019.0</ele><time>2026-04-08T07:32:59.957Z</time></trkpt><trkpt lat="44.4695122" lon="9.9220663"><ele>1019.0</ele><time>2026-04-08T07:33:00.957Z</time></trkpt><trkpt lat="44.4695844" lon="9.9218669"><ele>1019.0</ele><time>2026-04-08T07:33:01.956Z</time></trkpt><trkpt lat="44.4696602" lon="9.9216667"><ele>1018.5</ele><time>2026-04-08T07:33:02.958Z</time></trkpt><trkpt lat="44.469734" lon="9.9214731"><ele>1018.0</ele><time>2026-04-08T07:33:03.957Z</time></trkpt><trkpt lat="44.4698013" lon="9.9212931"><ele>1017.5</ele><time>2026-04-08T07:33:04.957Z</time></trkpt><trkpt lat="44.469865" lon="9.9211227"><ele>1017.0</ele><time>2026-04-08T07:33:05.958Z</time></trkpt><trkpt lat="44.4699273" lon="9.9209617"><ele>1021.0</ele><time>2026-04-08T07:33:06.957Z</time></trkpt><trkpt lat="44.4699876" lon="9.9208108"><ele>1025.0</ele><time>2026-04-08T07:33:07.957Z</time></trkpt><trkpt lat="44.4700592" lon="9.920682"><ele>1029.0</ele><time>2026-04-08T07:33:08.957Z</time></trkpt><trkpt lat="44.4701511" lon="9.9206034"><ele>1033.0</ele><time>2026-04-08T07:33:09.957Z</time></trkpt><trkpt lat="44.4702585" lon="9.9205952"><ele>1033.0</ele><time>2026-04-08T07:33:10.957Z</time></trkpt><trkpt lat="44.4703595" lon="9.9206585"><ele>1033.0</ele><time>2026-04-08T07:33:11.957Z</time></trkpt><trkpt lat="44.4704553" lon="9.9207602"><ele>1033.0</ele><time>2026-04-08T07:33:12.958Z</time></trkpt><trkpt lat="44.4705556" lon="9.9208886"><ele>1033.0</ele><time>2026-04-08T07:33:13.957Z</time></trkpt><trkpt lat="44.4706691" lon="9.9210366"><ele>1029.0</ele><time>2026-04-08T07:33:14.957Z</time></trkpt><trkpt lat="44.470789" lon="9.9211985"><ele>1025.0</ele><time>2026-04-08T07:33:15.957Z</time></trkpt><trkpt lat="44.4709028" lon="9.9213576"><ele>1021.0</ele><time>2026-04-08T07:33:16.958Z</time></trkpt><trkpt lat="44.471009" lon="9.9215084"><ele>1021.0</ele><time>2026-04-08T07:33:17.957Z</time></trkpt><trkpt lat="44.4711095" lon="9.9216465"><ele>1021.0</ele><time>2026-04-08T07:33:18.957Z</time></trkpt><trkpt lat="44.471195" lon="9.9217784"><ele>1021.0</ele><time>2026-04-08T07:33:19.956Z</time></trkpt><trkpt lat="44.471252" lon="9.9219203"><ele>1021.0</ele><time>2026-04-08T07:33:20.958Z</time></trkpt><trkpt lat="44.4712699" lon="9.9220762"><ele>1024.25</ele><time>2026-04-08T07:33:21.957Z</time></trkpt><trkpt lat="44.4712664" lon="9.9222345"><ele>1027.5</ele><time>2026-04-08T07:33:22.957Z</time></trkpt><trkpt lat="44.4712561" lon="9.9223975"><ele>1030.75</ele><time>2026-04-08T07:33:23.957Z</time></trkpt><trkpt lat="44.4712652" lon="9.9225697"><ele>1034.0</ele><time>2026-04-08T07:33:24.956Z</time></trkpt><trkpt lat="44.4712951" lon="9.9227421"><ele>1034.0</ele><time>2026-04-08T07:33:25.956Z</time></trkpt><trkpt lat="44.4713509" lon="9.9229149"><ele>1034.0</ele><time>2026-04-08T07:33:26.957Z</time></trkpt><trkpt lat="44.4714297" lon="9.9230796"><ele>1034.0</ele><time>2026-04-08T07:33:27.957Z</time></trkpt><trkpt lat="44.4715128" lon="9.9232525"><ele>1034.0</ele><time>2026-04-08T07:33:28.957Z</time></trkpt><trkpt lat="44.4715892" lon="9.9234409"><ele>1032.75</ele><time>2026-04-08T07:33:29.956Z</time></trkpt><trkpt lat="44.4716555" lon="9.9236233"><ele>1031.5</ele><time>2026-04-08T07:33:30.957Z</time></trkpt><trkpt lat="44.4717208" lon="9.9237962"><ele>1030.25</ele><time>2026-04-08T07:33:31.956Z</time></trkpt><trkpt lat="44.4717801" lon="9.9239693"><ele>1029.0</ele><time>2026-04-08T07:33:32.957Z</time></trkpt><trkpt lat="44.4718036" lon="9.9241625"><ele>1031.6666666666667</ele><time>2026-04-08T07:33:33.954Z</time></trkpt><trkpt lat="44.4717944" lon="9.9243667"><ele>1034.3333333333335</ele><time>2026-04-08T07:33:34.955Z</time></trkpt><trkpt lat="44.4717531" lon="9.9245799"><ele>1037.0</ele><time>2026-04-08T07:33:35.956Z</time></trkpt><trkpt lat="44.4716796" lon="9.9248115"><ele>1043.0</ele><time>2026-04-08T07:33:36.956Z</time></trkpt><trkpt lat="44.4715868" lon="9.9250935"><ele>1049.0</ele><time>2026-04-08T07:33:37.957Z</time></trkpt><trkpt lat="44.4714906" lon="9.9253992"><ele>1049.0</ele><time>2026-04-08T07:33:38.957Z</time></trkpt><trkpt lat="44.4714112" lon="9.9256714"><ele>1049.0</ele><time>2026-04-08T07:33:39.957Z</time></trkpt><trkpt lat="44.4713558" lon="9.9259375"><ele>1049.0</ele><time>2026-04-08T07:33:40.958Z</time></trkpt><trkpt lat="44.4713278" lon="9.9262003"><ele>1049.6666666666667</ele><time>2026-04-08T07:33:41.958Z</time></trkpt><trkpt lat="44.4713415" lon="9.9264589"><ele>1050.3333333333333</ele><time>2026-04-08T07:33:42.957Z</time></trkpt><trkpt lat="44.4713673" lon="9.9267215"><ele>1051.0</ele><time>2026-04-08T07:33:43.956Z</time></trkpt><trkpt lat="44.4713666" lon="9.9270148"><ele>1048.6666666666665</ele><time>2026-04-08T07:33:44.957Z</time></trkpt><trkpt lat="44.4713392" lon="9.9272878"><ele>1046.3333333333333</ele><time>2026-04-08T07:33:45.956Z</time></trkpt><trkpt lat="44.4713275" lon="9.9275409"><ele>1044.0</ele><time>2026-04-08T07:33:46.957Z</time></trkpt><trkpt lat="44.4713499" lon="9.927774"><ele>1043.5</ele><time>2026-04-08T07:33:47.956Z</time></trkpt><trkpt lat="44.4713925" lon="9.9279791"><ele>1043.0</ele><time>2026-04-08T07:33:48.957Z</time></trkpt><trkpt lat="44.4714462" lon="9.9281596"><ele>1042.5</ele><time>2026-04-08T07:33:49.956Z</time></trkpt><trkpt lat="44.4715008" lon="9.9283193"><ele>1042.0</ele><time>2026-04-08T07:33:50.956Z</time></trkpt><trkpt lat="44.4715566" lon="9.9284692"><ele>1042.0</ele><time>2026-04-08T07:33:51.957Z</time></trkpt><trkpt lat="44.4716166" lon="9.928611"><ele>1042.0</ele><time>2026-04-08T07:33:52.957Z</time></trkpt><trkpt lat="44.4716779" lon="9.9287467"><ele>1042.0</ele><time>2026-04-08T07:33:53.957Z</time></trkpt><trkpt lat="44.471737" lon="9.9288789"><ele>1042.0</ele><time>2026-04-08T07:33:54.958Z</time></trkpt><trkpt lat="44.4717948" lon="9.9290106"><ele>1042.0</ele><time>2026-04-08T07:33:55.957Z</time></trkpt><trkpt lat="44.4718514" lon="9.9291427"><ele>1042.0</ele><time>2026-04-08T07:33:56.957Z</time></trkpt><trkpt lat="44.4719086" lon="9.9292827"><ele>1042.0</ele><time>2026-04-08T07:33:57.957Z</time></trkpt><trkpt lat="44.471964" lon="9.9294256"><ele>1042.0</ele><time>2026-04-08T07:33:58.958Z</time></trkpt><trkpt lat="44.4720191" lon="9.9295711"><ele>1039.75</ele><time>2026-04-08T07:33:59.957Z</time></trkpt><trkpt lat="44.4720742" lon="9.929713"><ele>1037.5</ele><time>2026-04-08T07:34:00.957Z</time></trkpt><trkpt lat="44.4721278" lon="9.9298494"><ele>1035.25</ele><time>2026-04-08T07:34:01.957Z</time></trkpt><trkpt lat="44.4721829" lon="9.9299854"><ele>1033.0</ele><time>2026-04-08T07:34:02.957Z</time></trkpt><trkpt lat="44.4722367" lon="9.9301238"><ele>1033.0</ele><time>2026-04-08T07:34:03.957Z</time></trkpt><trkpt lat="44.4722932" lon="9.9302618"><ele>1033.0</ele><time>2026-04-08T07:34:04.958Z</time></trkpt><trkpt lat="44.4723496" lon="9.9304"><ele>1033.0</ele><time>2026-04-08T07:34:05.957Z</time></trkpt><trkpt lat="44.4724002" lon="9.9305442"><ele>1033.0</ele><time>2026-04-08T07:34:06.956Z</time></trkpt><trkpt lat="44.4724407" lon="9.9307067"><ele>1033.0</ele><time>2026-04-08T07:34:07.958Z</time></trkpt><trkpt lat="44.472472" lon="9.9308891"><ele>1033.0</ele><time>2026-04-08T07:34:08.957Z</time></trkpt><trkpt lat="44.4724879" lon="9.9310881"><ele>1033.0</ele><time>2026-04-08T07:34:09.956Z</time></trkpt><trkpt lat="44.472482" lon="9.9312955"><ele>1033.0</ele><time>2026-04-08T07:34:10.957Z</time></trkpt><trkpt lat="44.4724502" lon="9.9315131"><ele>1027.3333333333333</ele><time>2026-04-08T07:34:11.958Z</time></trkpt><trkpt lat="44.472399" lon="9.9317498"><ele>1021.6666666666667</ele><time>2026-04-08T07:34:12.958Z</time></trkpt><trkpt lat="44.4723456" lon="9.9319811"><ele>1016.0</ele><time>2026-04-08T07:34:13.957Z</time></trkpt><trkpt lat="44.4722966" lon="9.932201"><ele>1016.0</ele><time>2026-04-08T07:34:14.957Z</time></trkpt><trkpt lat="44.472247" lon="9.9324103"><ele>1016.0</ele><time>2026-04-08T07:34:15.958Z</time></trkpt><trkpt lat="44.472196" lon="9.932611"><ele>1016.0</ele><time>2026-04-08T07:34:16.957Z</time></trkpt><trkpt lat="44.4721414" lon="9.9328027"><ele>1018.25</ele><time>2026-04-08T07:34:17.957Z</time></trkpt><trkpt lat="44.4720791" lon="9.932986"><ele>1020.5</ele><time>2026-04-08T07:34:18.957Z</time></trkpt><trkpt lat="44.4720072" lon="9.9331646"><ele>1022.75</ele><time>2026-04-08T07:34:19.958Z</time></trkpt><trkpt lat="44.4719319" lon="9.9333414"><ele>1025.0</ele><time>2026-04-08T07:34:20.957Z</time></trkpt><trkpt lat="44.4718545" lon="9.9335157"><ele>1025.0</ele><time>2026-04-08T07:34:21.957Z</time></trkpt><trkpt lat="44.4717768" lon="9.9336913"><ele>1025.0</ele><time>2026-04-08T07:34:22.957Z</time></trkpt><trkpt lat="44.4716998" lon="9.9338649"><ele>1025.0</ele><time>2026-04-08T07:34:23.957Z</time></trkpt><trkpt lat="44.4716233" lon="9.9340401"><ele>1025.0</ele><time>2026-04-08T07:34:24.957Z</time></trkpt><trkpt lat="44.471555" lon="9.9342159"><ele>1023.5</ele><time>2026-04-08T07:34:25.957Z</time></trkpt><trkpt lat="44.4715017" lon="9.9343992"><ele>1022.0</ele><time>2026-04-08T07:34:26.957Z</time></trkpt><trkpt lat="44.4714668" lon="9.9345853"><ele>1020.5</ele><time>2026-04-08T07:34:27.957Z</time></trkpt><trkpt lat="44.4714465" lon="9.9347647"><ele>1019.0</ele><time>2026-04-08T07:34:28.957Z</time></trkpt><trkpt lat="44.4714383" lon="9.9349262"><ele>1021.2</ele><time>2026-04-08T07:34:29.958Z</time></trkpt><trkpt lat="44.4714634" lon="9.9350679"><ele>1023.4000000000001</ele><time>2026-04-08T07:34:30.958Z</time></trkpt><trkpt lat="44.4715352" lon="9.9351634"><ele>1025.6</ele><time>2026-04-08T07:34:31.956Z</time></trkpt><trkpt lat="44.4716228" lon="9.9351977"><ele>1027.8</ele><time>2026-04-08T07:34:32.957Z</time></trkpt><trkpt lat="44.4717197" lon="9.9351942"><ele>1030.0</ele><time>2026-04-08T07:34:33.957Z</time></trkpt><trkpt lat="44.4718254" lon="9.9351794"><ele>1030.0</ele><time>2026-04-08T07:34:34.956Z</time></trkpt><trkpt lat="44.4719394" lon="9.9352088"><ele>1030.0</ele><time>2026-04-08T07:34:35.957Z</time></trkpt><trkpt lat="44.4720576" lon="9.9352861"><ele>1030.0</ele><time>2026-04-08T07:34:36.957Z</time></trkpt><trkpt lat="44.4721811" lon="9.9354162"><ele>1030.0</ele><time>2026-04-08T07:34:37.957Z</time></trkpt><trkpt lat="44.4722967" lon="9.9355584"><ele>1029.75</ele><time>2026-04-08T07:34:38.957Z</time></trkpt><trkpt lat="44.472413" lon="9.9356867"><ele>1029.5</ele><time>2026-04-08T07:34:39.957Z</time></trkpt><trkpt lat="44.4725285" lon="9.9358121"><ele>1029.25</ele><time>2026-04-08T07:34:40.957Z</time></trkpt><trkpt lat="44.4726364" lon="9.9359333"><ele>1029.0</ele><time>2026-04-08T07:34:41.956Z</time></trkpt><trkpt lat="44.4727312" lon="9.9360701"><ele>1029.0</ele><time>2026-04-08T07:34:42.958Z</time></trkpt><trkpt lat="44.4728031" lon="9.9362402"><ele>1029.0</ele><time>2026-04-08T07:34:43.956Z</time></trkpt><trkpt lat="44.4728338" lon="9.9364378"><ele>1029.0</ele><time>2026-04-08T07:34:44.958Z</time></trkpt><trkpt lat="44.4728196" lon="9.9366562"><ele>1029.0</ele><time>2026-04-08T07:34:45.957Z</time></trkpt><trkpt lat="44.4727648" lon="9.9369016"><ele>1028.3333333333333</ele><time>2026-04-08T07:34:46.957Z</time></trkpt><trkpt lat="44.4727046" lon="9.9371662"><ele>1027.6666666666665</ele><time>2026-04-08T07:34:47.958Z</time></trkpt><trkpt lat="44.4726695" lon="9.9374435"><ele>1027.0</ele><time>2026-04-08T07:34:48.957Z</time></trkpt><trkpt lat="44.4726464" lon="9.937705"><ele>1025.6666666666665</ele><time>2026-04-08T07:34:49.957Z</time></trkpt><trkpt lat="44.4726202" lon="9.937951"><ele>1024.3333333333333</ele><time>2026-04-08T07:34:50.957Z</time></trkpt><trkpt lat="44.4725959" lon="9.9381838"><ele>1023.0</ele><time>2026-04-08T07:34:51.958Z</time></trkpt><trkpt lat="44.472573" lon="9.9384052"><ele>1021.75</ele><time>2026-04-08T07:34:52.958Z</time></trkpt><trkpt lat="44.4725183" lon="9.9386184"><ele>1020.5</ele><time>2026-04-08T07:34:53.957Z</time></trkpt><trkpt lat="44.4724117" lon="9.9387793"><ele>1019.25</ele><time>2026-04-08T07:34:54.957Z</time></trkpt><trkpt lat="44.4723139" lon="9.9388867"><ele>1018.0</ele><time>2026-04-08T07:34:55.956Z</time></trkpt><trkpt lat="44.4722333" lon="9.9390002"><ele>1018.0</ele><time>2026-04-08T07:34:56.957Z</time></trkpt><trkpt lat="44.4721914" lon="9.9391544"><ele>1018.0</ele><time>2026-04-08T07:34:57.956Z</time></trkpt><trkpt lat="44.472205" lon="9.9393379"><ele>1018.0</ele><time>2026-04-08T07:34:58.956Z</time></trkpt><trkpt lat="44.4722423" lon="9.9395609"><ele>1018.0</ele><time>2026-04-08T07:34:59.956Z</time></trkpt><trkpt lat="44.472276" lon="9.9397706"><ele>1019.0</ele><time>2026-04-08T07:35:00.958Z</time></trkpt><trkpt lat="44.4723297" lon="9.9399454"><ele>1020.0</ele><time>2026-04-08T07:35:01.957Z</time></trkpt><trkpt lat="44.472421" lon="9.9400622"><ele>1021.0</ele><time>2026-04-08T07:35:02.957Z</time></trkpt><trkpt lat="44.4725432" lon="9.9401242"><ele>1022.0</ele><time>2026-04-08T07:35:03.956Z</time></trkpt><trkpt lat="44.4726942" lon="9.9401746"><ele>1024.6666666666667</ele><time>2026-04-08T07:35:04.957Z</time></trkpt><trkpt lat="44.4728731" lon="9.9402206"><ele>1027.3333333333333</ele><time>2026-04-08T07:35:05.957Z</time></trkpt><trkpt lat="44.4730522" lon="9.9402414"><ele>1030.0</ele><time>2026-04-08T07:35:06.956Z</time></trkpt><trkpt lat="44.4732232" lon="9.9402596"><ele>1030.0</ele><time>2026-04-08T07:35:07.956Z</time></trkpt><trkpt lat="44.4733884" lon="9.9403344"><ele>1030.0</ele><time>2026-04-08T07:35:08.957Z</time></trkpt><trkpt lat="44.4735393" lon="9.9404779"><ele>1030.0</ele><time>2026-04-08T07:35:09.958Z</time></trkpt><trkpt lat="44.4736947" lon="9.9406268"><ele>1023.6666666666666</ele><time>2026-04-08T07:35:10.955Z</time></trkpt><trkpt lat="44.4738004" lon="9.9409277"><ele>1017.3333333333333</ele><time>2026-04-08T07:35:11.957Z</time></trkpt><trkpt lat="44.4739287" lon="9.9411026"><ele>1011.0</ele><time>2026-04-08T07:35:12.957Z</time></trkpt><trkpt lat="44.4740567" lon="9.9412354"><ele>1011.0</ele><time>2026-04-08T07:35:13.957Z</time></trkpt><trkpt lat="44.4741778" lon="9.9413303"><ele>1010.9999999999999</ele><time>2026-04-08T07:35:14.956Z</time></trkpt><trkpt lat="44.4742657" lon="9.9414175"><ele>1010.9999999999999</ele><time>2026-04-08T07:35:15.957Z</time></trkpt><trkpt lat="44.4742933" lon="9.9415294"><ele>1011.0</ele><time>2026-04-08T07:35:16.958Z</time></trkpt><trkpt lat="44.4742665" lon="9.9416527"><ele>1011.0</ele><time>2026-04-08T07:35:17.957Z</time></trkpt><trkpt lat="44.4741851" lon="9.9417722"><ele>1007.0</ele><time>2026-04-08T07:35:18.957Z</time></trkpt><trkpt lat="44.4740648" lon="9.9419145"><ele>1003.0</ele><time>2026-04-08T07:35:19.957Z</time></trkpt><trkpt lat="44.4739463" lon="9.9420443"><ele>999.0</ele><time>2026-04-08T07:35:20.957Z</time></trkpt><trkpt lat="44.4738288" lon="9.9421744"><ele>1006.0</ele><time>2026-04-08T07:35:21.957Z</time></trkpt><trkpt lat="44.4737081" lon="9.9423256"><ele>1013.0</ele><time>2026-04-08T07:35:22.958Z</time></trkpt><trkpt lat="44.473624" lon="9.9425249"><ele>1020.0</ele><time>2026-04-08T07:35:23.958Z</time></trkpt><trkpt lat="44.4735831" lon="9.9427495"><ele>1020.0</ele><time>2026-04-08T07:35:24.957Z</time></trkpt><trkpt lat="44.4735675" lon="9.9429627"><ele>1020.0</ele><time>2026-04-08T07:35:25.957Z</time></trkpt><trkpt lat="44.4735697" lon="9.9431798"><ele>1020.0</ele><time>2026-04-08T07:35:26.957Z</time></trkpt><trkpt lat="44.4736236" lon="9.943402"><ele>1019.3333333333333</ele><time>2026-04-08T07:35:27.956Z</time></trkpt><trkpt lat="44.4737124" lon="9.9436153"><ele>1018.6666666666666</ele><time>2026-04-08T07:35:28.957Z</time></trkpt><trkpt lat="44.4738027" lon="9.9438245"><ele>1018.0</ele><time>2026-04-08T07:35:29.957Z</time></trkpt><trkpt lat="44.4738814" lon="9.9440345"><ele>1014.0</ele><time>2026-04-08T07:35:30.957Z</time></trkpt><trkpt lat="44.473961" lon="9.944243"><ele>1010.0</ele><time>2026-04-08T07:35:31.957Z</time></trkpt><trkpt lat="44.4740326" lon="9.9444525"><ele>1006.0</ele><time>2026-04-08T07:35:32.955Z</time></trkpt><trkpt lat="44.4740964" lon="9.9446621"><ele>1006.0</ele><time>2026-04-08T07:35:33.957Z</time></trkpt><trkpt lat="44.4741505" lon="9.944872"><ele>1006.0</ele><time>2026-04-08T07:35:34.958Z</time></trkpt><trkpt lat="44.4741972" lon="9.9450904"><ele>1006.0</ele><time>2026-04-08T07:35:35.957Z</time></trkpt><trkpt lat="44.4742386" lon="9.945318"><ele>1007.0</ele><time>2026-04-08T07:35:36.957Z</time></trkpt><trkpt lat="44.4742768" lon="9.9455343"><ele>1008.0</ele><time>2026-04-08T07:35:37.957Z</time></trkpt><trkpt lat="44.4743109" lon="9.9457441"><ele>1009.0</ele><time>2026-04-08T07:35:38.958Z</time></trkpt><trkpt lat="44.4743474" lon="9.9459381"><ele>1007.75</ele><time>2026-04-08T07:35:39.956Z</time></trkpt><trkpt lat="44.4743988" lon="9.9461097"><ele>1006.5</ele><time>2026-04-08T07:35:40.957Z</time></trkpt><trkpt lat="44.4744946" lon="9.9462227"><ele>1005.25</ele><time>2026-04-08T07:35:41.957Z</time></trkpt><trkpt lat="44.4746136" lon="9.9462986"><ele>1004.0</ele><time>2026-04-08T07:35:42.957Z</time></trkpt><trkpt lat="44.4747455" lon="9.9463594"><ele>1004.0</ele><time>2026-04-08T07:35:43.956Z</time></trkpt><trkpt lat="44.474886" lon="9.9464201"><ele>1004.0</ele><time>2026-04-08T07:35:44.958Z</time></trkpt><trkpt lat="44.4750274" lon="9.9464729"><ele>1004.0</ele><time>2026-04-08T07:35:45.957Z</time></trkpt><trkpt lat="44.4751792" lon="9.9465102"><ele>1004.0</ele><time>2026-04-08T07:35:46.958Z</time></trkpt><trkpt lat="44.4753417" lon="9.9465333"><ele>1000.3333333333334</ele><time>2026-04-08T07:35:47.958Z</time></trkpt><trkpt lat="44.4755061" lon="9.9465659"><ele>996.6666666666667</ele><time>2026-04-08T07:35:48.957Z</time></trkpt><trkpt lat="44.4756606" lon="9.9466216"><ele>993.0</ele><time>2026-04-08T07:35:49.954Z</time></trkpt><trkpt lat="44.4758088" lon="9.9466971"><ele>993.0</ele><time>2026-04-08T07:35:50.955Z</time></trkpt><trkpt lat="44.4759508" lon="9.9467739"><ele>993.0</ele><time>2026-04-08T07:35:51.956Z</time></trkpt><trkpt lat="44.4760832" lon="9.9468475"><ele>993.0</ele><time>2026-04-08T07:35:52.957Z</time></trkpt><trkpt lat="44.4762098" lon="9.9469224"><ele>993.0</ele><time>2026-04-08T07:35:53.956Z</time></trkpt><trkpt lat="44.4763313" lon="9.9469993"><ele>993.0</ele><time>2026-04-08T07:35:54.957Z</time></trkpt><trkpt lat="44.476446" lon="9.9470901"><ele>993.0</ele><time>2026-04-08T07:35:55.957Z</time></trkpt><trkpt lat="44.4765542" lon="9.9471994"><ele>993.0</ele><time>2026-04-08T07:35:56.956Z</time></trkpt><trkpt lat="44.4766139" lon="9.9474046"><ele>993.0</ele><time>2026-04-08T07:35:57.958Z</time></trkpt><trkpt lat="44.4766948" lon="9.9475753"><ele>997.3333333333333</ele><time>2026-04-08T07:35:58.956Z</time></trkpt><trkpt lat="44.4767826" lon="9.9477493"><ele>1001.6666666666666</ele><time>2026-04-08T07:35:59.957Z</time></trkpt><trkpt lat="44.4768961" lon="9.9479046"><ele>1006.0</ele><time>2026-04-08T07:36:00.957Z</time></trkpt><trkpt lat="44.4770278" lon="9.9480312"><ele>1003.25</ele><time>2026-04-08T07:36:01.958Z</time></trkpt><trkpt lat="44.4771689" lon="9.9481247"><ele>1000.5</ele><time>2026-04-08T07:36:02.957Z</time></trkpt><trkpt lat="44.4773112" lon="9.9481895"><ele>997.75</ele><time>2026-04-08T07:36:03.958Z</time></trkpt><trkpt lat="44.4774409" lon="9.9482662"><ele>995.0</ele><time>2026-04-08T07:36:04.956Z</time></trkpt><trkpt lat="44.4775441" lon="9.9483993"><ele>995.0</ele><time>2026-04-08T07:36:05.957Z</time></trkpt><trkpt lat="44.4776222" lon="9.9485724"><ele>995.0</ele><time>2026-04-08T07:36:06.956Z</time></trkpt><trkpt lat="44.4776764" lon="9.9487658"><ele>995.0</ele><time>2026-04-08T07:36:07.957Z</time></trkpt><trkpt lat="44.4777057" lon="9.9489779"><ele>995.0</ele><time>2026-04-08T07:36:08.955Z</time></trkpt><trkpt lat="44.4777102" lon="9.9491984"><ele>996.25</ele><time>2026-04-08T07:36:09.956Z</time></trkpt><trkpt lat="44.4777096" lon="9.9494032"><ele>997.5</ele><time>2026-04-08T07:36:10.957Z</time></trkpt><trkpt lat="44.477722" lon="9.9495919"><ele>998.75</ele><time>2026-04-08T07:36:11.958Z</time></trkpt><trkpt lat="44.4777781" lon="9.9497578"><ele>1000.0</ele><time>2026-04-08T07:36:12.957Z</time></trkpt><trkpt lat="44.4778769" lon="9.9498828"><ele>1000.75</ele><time>2026-04-08T07:36:13.956Z</time></trkpt><trkpt lat="44.4779939" lon="9.9499843"><ele>1001.5</ele><time>2026-04-08T07:36:14.957Z</time></trkpt><trkpt lat="44.4781168" lon="9.9500663"><ele>1002.25</ele><time>2026-04-08T07:36:15.957Z</time></trkpt><trkpt lat="44.4782483" lon="9.9501039"><ele>1003.0</ele><time>2026-04-08T07:36:16.957Z</time></trkpt><trkpt lat="44.4783795" lon="9.9501058"><ele>1003.0</ele><time>2026-04-08T07:36:17.956Z</time></trkpt><trkpt lat="44.478504" lon="9.9500921"><ele>1003.0</ele><time>2026-04-08T07:36:18.957Z</time></trkpt><trkpt lat="44.4786251" lon="9.9500727"><ele>1003.0</ele><time>2026-04-08T07:36:19.957Z</time></trkpt><trkpt lat="44.4787428" lon="9.9500533"><ele>1003.0</ele><time>2026-04-08T07:36:20.956Z</time></trkpt><trkpt lat="44.4788581" lon="9.9500367"><ele>999.2</ele><time>2026-04-08T07:36:21.957Z</time></trkpt><trkpt lat="44.4789696" lon="9.9500211"><ele>995.4</ele><time>2026-04-08T07:36:22.958Z</time></trkpt><trkpt lat="44.4790778" lon="9.950004"><ele>991.6000000000001</ele><time>2026-04-08T07:36:23.958Z</time></trkpt><trkpt lat="44.4791843" lon="9.9499892"><ele>987.8000000000001</ele><time>2026-04-08T07:36:24.958Z</time></trkpt><trkpt lat="44.4792903" lon="9.9499732"><ele>984.0</ele><time>2026-04-08T07:36:25.957Z</time></trkpt><trkpt lat="44.47939" lon="9.9499564"><ele>984.0</ele><time>2026-04-08T07:36:26.958Z</time></trkpt><trkpt lat="44.4794853" lon="9.9499423"><ele>984.0000000000001</ele><time>2026-04-08T07:36:27.956Z</time></trkpt><trkpt lat="44.4795806" lon="9.9499286"><ele>984.0000000000001</ele><time>2026-04-08T07:36:28.957Z</time></trkpt><trkpt lat="44.4796766" lon="9.9499115"><ele>984.0</ele><time>2026-04-08T07:36:29.955Z</time></trkpt><trkpt lat="44.4797725" lon="9.9498952"><ele>984.0</ele><time>2026-04-08T07:36:30.957Z</time></trkpt><trkpt lat="44.479868" lon="9.9498799"><ele>984.0</ele><time>2026-04-08T07:36:31.958Z</time></trkpt><trkpt lat="44.4799633" lon="9.9498686"><ele>984.0000000000001</ele><time>2026-04-08T07:36:32.956Z</time></trkpt><trkpt lat="44.4800573" lon="9.9498569"><ele>984.0000000000001</ele><time>2026-04-08T07:36:33.956Z</time></trkpt><trkpt lat="44.4801521" lon="9.9498413"><ele>984.0</ele><time>2026-04-08T07:36:34.956Z</time></trkpt><trkpt lat="44.4802469" lon="9.9498256"><ele>984.0</ele><time>2026-04-08T07:36:35.958Z</time></trkpt><trkpt lat="44.4803424" lon="9.9498107"><ele>984.2</ele><time>2026-04-08T07:36:36.957Z</time></trkpt><trkpt lat="44.4804353" lon="9.9497942"><ele>984.4000000000001</ele><time>2026-04-08T07:36:37.957Z</time></trkpt><trkpt lat="44.4805251" lon="9.9497631"><ele>984.6</ele><time>2026-04-08T07:36:38.957Z</time></trkpt><trkpt lat="44.4806066" lon="9.9497095"><ele>984.8</ele><time>2026-04-08T07:36:39.957Z</time></trkpt><trkpt lat="44.4806845" lon="9.9496291"><ele>985.0</ele><time>2026-04-08T07:36:40.957Z</time></trkpt><trkpt lat="44.4807575" lon="9.9495251"><ele>985.0</ele><time>2026-04-08T07:36:41.957Z</time></trkpt><trkpt lat="44.4808348" lon="9.9494067"><ele>985.0</ele><time>2026-04-08T07:36:42.956Z</time></trkpt><trkpt lat="44.4809229" lon="9.9492871"><ele>985.0</ele><time>2026-04-08T07:36:43.958Z</time></trkpt><trkpt lat="44.4810231" lon="9.9491595"><ele>985.0</ele><time>2026-04-08T07:36:44.958Z</time></trkpt><trkpt lat="44.481132" lon="9.9490175"><ele>982.25</ele><time>2026-04-08T07:36:45.958Z</time></trkpt><trkpt lat="44.481237" lon="9.9488739"><ele>979.5</ele><time>2026-04-08T07:36:46.957Z</time></trkpt><trkpt lat="44.4813352" lon="9.948737"><ele>976.75</ele><time>2026-04-08T07:36:47.957Z</time></trkpt><trkpt lat="44.4814211" lon="9.9486169"><ele>974.0</ele><time>2026-04-08T07:36:48.957Z</time></trkpt><trkpt lat="44.4814986" lon="9.9485289"><ele>974.0</ele><time>2026-04-08T07:36:49.956Z</time></trkpt><trkpt lat="44.481586" lon="9.94848"><ele>974.0000000000001</ele><time>2026-04-08T07:36:50.957Z</time></trkpt><trkpt lat="44.4816759" lon="9.9484993"><ele>974.0000000000001</ele><time>2026-04-08T07:36:51.957Z</time></trkpt><trkpt lat="44.4817526" lon="9.9485951"><ele>974.0</ele><time>2026-04-08T07:36:52.957Z</time></trkpt><trkpt lat="44.4818032" lon="9.9487477"><ele>974.0</ele><time>2026-04-08T07:36:53.957Z</time></trkpt><trkpt lat="44.4818494" lon="9.948929"><ele>974.0</ele><time>2026-04-08T07:36:54.958Z</time></trkpt><trkpt lat="44.4819353" lon="9.9491009"><ele>974.0</ele><time>2026-04-08T07:36:55.957Z</time></trkpt><trkpt lat="44.4820666" lon="9.9492648"><ele>974.0</ele><time>2026-04-08T07:36:56.957Z</time></trkpt><trkpt lat="44.4822284" lon="9.9494236"><ele>973.3333333333334</ele><time>2026-04-08T07:36:57.956Z</time></trkpt><trkpt lat="44.4823849" lon="9.9495714"><ele>972.6666666666667</ele><time>2026-04-08T07:36:58.957Z</time></trkpt><trkpt lat="44.4825362" lon="9.9497139"><ele>972.0</ele><time>2026-04-08T07:36:59.956Z</time></trkpt><trkpt lat="44.4826717" lon="9.9498435"><ele>972.0</ele><time>2026-04-08T07:37:00.955Z</time></trkpt><trkpt lat="44.4828011" lon="9.9499444"><ele>972.0</ele><time>2026-04-08T07:37:01.956Z</time></trkpt><trkpt lat="44.4829526" lon="9.9499859"><ele>972.0</ele><time>2026-04-08T07:37:02.957Z</time></trkpt><trkpt lat="44.48312" lon="9.9499758"><ele>973.6666666666667</ele><time>2026-04-08T07:37:03.958Z</time></trkpt><trkpt lat="44.4832944" lon="9.9499638"><ele>975.3333333333334</ele><time>2026-04-08T07:37:04.955Z</time></trkpt><trkpt lat="44.4834647" lon="9.9499975"><ele>977.0</ele><time>2026-04-08T07:37:05.957Z</time></trkpt><trkpt lat="44.4836377" lon="9.9500796"><ele>968.0</ele><time>2026-04-08T07:37:06.956Z</time></trkpt><trkpt lat="44.4837899" lon="9.9502048"><ele>959.0</ele><time>2026-04-08T07:37:07.957Z</time></trkpt><trkpt lat="44.483909" lon="9.9503542"><ele>950.0</ele><time>2026-04-08T07:37:08.957Z</time></trkpt><trkpt lat="44.4840025" lon="9.9505409"><ele>950.0</ele><time>2026-04-08T07:37:09.958Z</time></trkpt><trkpt lat="44.4840744" lon="9.9507443"><ele>950.0</ele><time>2026-04-08T07:37:10.956Z</time></trkpt><trkpt lat="44.4841335" lon="9.9509696"><ele>950.0</ele><time>2026-04-08T07:37:11.957Z</time></trkpt><trkpt lat="44.4841932" lon="9.9511998"><ele>952.3333333333334</ele><time>2026-04-08T07:37:12.956Z</time></trkpt><trkpt lat="44.4842495" lon="9.9514234"><ele>954.6666666666667</ele><time>2026-04-08T07:37:13.956Z</time></trkpt><trkpt lat="44.4843023" lon="9.9516416"><ele>957.0</ele><time>2026-04-08T07:37:14.956Z</time></trkpt><trkpt lat="44.484366" lon="9.9518434"><ele>959.3333333333333</ele><time>2026-04-08T07:37:15.956Z</time></trkpt><trkpt lat="44.4844511" lon="9.9520256"><ele>961.6666666666666</ele><time>2026-04-08T07:37:16.958Z</time></trkpt><trkpt lat="44.4845495" lon="9.9521965"><ele>964.0</ele><time>2026-04-08T07:37:17.958Z</time></trkpt><trkpt lat="44.4846472" lon="9.9523703"><ele>954.6666666666666</ele><time>2026-04-08T07:37:18.957Z</time></trkpt><trkpt lat="44.4847323" lon="9.9525606"><ele>945.3333333333333</ele><time>2026-04-08T07:37:19.956Z</time></trkpt><trkpt lat="44.4848041" lon="9.9527635"><ele>936.0</ele><time>2026-04-08T07:37:20.957Z</time></trkpt><trkpt lat="44.4848755" lon="9.9529566"><ele>936.0</ele><time>2026-04-08T07:37:21.958Z</time></trkpt><trkpt lat="44.4849453" lon="9.953143"><ele>936.0</ele><time>2026-04-08T07:37:22.956Z</time></trkpt><trkpt lat="44.4849905" lon="9.9533474"><ele>936.0</ele><time>2026-04-08T07:37:23.957Z</time></trkpt><trkpt lat="44.4850131" lon="9.953572"><ele>935.6666666666667</ele><time>2026-04-08T07:37:24.956Z</time></trkpt><trkpt lat="44.4850258" lon="9.9537955"><ele>935.3333333333334</ele><time>2026-04-08T07:37:25.956Z</time></trkpt><trkpt lat="44.485033" lon="9.9540168"><ele>935.0</ele><time>2026-04-08T07:37:26.957Z</time></trkpt><trkpt lat="44.485014" lon="9.9542445"><ele>932.6666666666667</ele><time>2026-04-08T07:37:27.956Z</time></trkpt><trkpt lat="44.4849698" lon="9.9544774"><ele>930.3333333333333</ele><time>2026-04-08T07:37:28.958Z</time></trkpt><trkpt lat="44.4849151" lon="9.9547195"><ele>928.0</ele><time>2026-04-08T07:37:29.958Z</time></trkpt><trkpt lat="44.4848641" lon="9.9549589"><ele>923.3333333333333</ele><time>2026-04-08T07:37:30.957Z</time></trkpt><trkpt lat="44.4848158" lon="9.9551957"><ele>918.6666666666667</ele><time>2026-04-08T07:37:31.956Z</time></trkpt><trkpt lat="44.4847645" lon="9.9554224"><ele>914.0</ele><time>2026-04-08T07:37:32.957Z</time></trkpt><trkpt lat="44.4847092" lon="9.9556399"><ele>914.0</ele><time>2026-04-08T07:37:33.956Z</time></trkpt><trkpt lat="44.4846496" lon="9.9558485"><ele>914.0</ele><time>2026-04-08T07:37:34.956Z</time></trkpt><trkpt lat="44.4846061" lon="9.9560589"><ele>914.0</ele><time>2026-04-08T07:37:35.957Z</time></trkpt><trkpt lat="44.4845815" lon="9.9562684"><ele>916.5</ele><time>2026-04-08T07:37:36.957Z</time></trkpt><trkpt lat="44.4845608" lon="9.9564698"><ele>919.0</ele><time>2026-04-08T07:37:37.956Z</time></trkpt><trkpt lat="44.4845413" lon="9.9566629"><ele>921.5</ele><time>2026-04-08T07:37:38.956Z</time></trkpt><trkpt lat="44.4845226" lon="9.9568521"><ele>924.0</ele><time>2026-04-08T07:37:39.957Z</time></trkpt><trkpt lat="44.484503" lon="9.9570389"><ele>924.0</ele><time>2026-04-08T07:37:40.956Z</time></trkpt><trkpt lat="44.4844809" lon="9.9572216"><ele>924.0</ele><time>2026-04-08T07:37:41.957Z</time></trkpt><trkpt lat="44.4844628" lon="9.9574054"><ele>924.0</ele><time>2026-04-08T07:37:42.956Z</time></trkpt><trkpt lat="44.484449" lon="9.9575873"><ele>924.0</ele><time>2026-04-08T07:37:43.957Z</time></trkpt><trkpt lat="44.4844361" lon="9.9577664"><ele>924.25</ele><time>2026-04-08T07:37:44.957Z</time></trkpt><trkpt lat="44.4844234" lon="9.957944"><ele>924.5</ele><time>2026-04-08T07:37:45.957Z</time></trkpt><trkpt lat="44.4844066" lon="9.9581161"><ele>924.75</ele><time>2026-04-08T07:37:46.957Z</time></trkpt><trkpt lat="44.4843961" lon="9.9582855"><ele>925.0</ele><time>2026-04-08T07:37:47.957Z</time></trkpt><trkpt lat="44.4844106" lon="9.9584542"><ele>927.5</ele><time>2026-04-08T07:37:48.957Z</time></trkpt><trkpt lat="44.4844699" lon="9.9585966"><ele>930.0</ele><time>2026-04-08T07:37:49.957Z</time></trkpt><trkpt lat="44.4845727" lon="9.958684"><ele>932.5</ele><time>2026-04-08T07:37:50.958Z</time></trkpt><trkpt lat="44.4846987" lon="9.958738"><ele>935.0</ele><time>2026-04-08T07:37:51.958Z</time></trkpt><trkpt lat="44.4848345" lon="9.9587787"><ele>929.25</ele><time>2026-04-08T07:37:52.957Z</time></trkpt><trkpt lat="44.4849752" lon="9.9588059"><ele>923.5</ele><time>2026-04-08T07:37:53.957Z</time></trkpt><trkpt lat="44.4851142" lon="9.95883"><ele>917.75</ele><time>2026-04-08T07:37:54.957Z</time></trkpt><trkpt lat="44.485249" lon="9.9588524"><ele>912.0</ele><time>2026-04-08T07:37:55.956Z</time></trkpt><trkpt lat="44.4853757" lon="9.9588927"><ele>907.25</ele><time>2026-04-08T07:37:56.957Z</time></trkpt><trkpt lat="44.4854904" lon="9.9589786"><ele>902.5</ele><time>2026-04-08T07:37:57.956Z</time></trkpt><trkpt lat="44.4855923" lon="9.9590914"><ele>897.75</ele><time>2026-04-08T07:37:58.956Z</time></trkpt><trkpt lat="44.485626" lon="9.959304"><ele>893.0</ele><time>2026-04-08T07:37:59.956Z</time></trkpt><trkpt lat="44.4856445" lon="9.9595188"><ele>893.0</ele><time>2026-04-08T07:38:00.957Z</time></trkpt><trkpt lat="44.4856489" lon="9.9597497"><ele>893.0</ele><time>2026-04-08T07:38:01.956Z</time></trkpt><trkpt lat="44.4856544" lon="9.9599865"><ele>893.0</ele><time>2026-04-08T07:38:02.956Z</time></trkpt><trkpt lat="44.4856713" lon="9.960236"><ele>893.0</ele><time>2026-04-08T07:38:03.955Z</time></trkpt><trkpt lat="44.485703" lon="9.9604909"><ele>893.0</ele><time>2026-04-08T07:38:04.957Z</time></trkpt><trkpt lat="44.4857484" lon="9.9607716"><ele>893.0</ele><time>2026-04-08T07:38:05.956Z</time></trkpt><trkpt lat="44.4857988" lon="9.9610777"><ele>893.0</ele><time>2026-04-08T07:38:06.957Z</time></trkpt><trkpt lat="44.4858447" lon="9.9613747"><ele>893.0</ele><time>2026-04-08T07:38:07.956Z</time></trkpt><trkpt lat="44.4858888" lon="9.9616559"><ele>893.0</ele><time>2026-04-08T07:38:08.957Z</time></trkpt><trkpt lat="44.4859318" lon="9.9619185"><ele>893.0</ele><time>2026-04-08T07:38:09.957Z</time></trkpt><trkpt lat="44.4859718" lon="9.9621713"><ele>893.0</ele><time>2026-04-08T07:38:10.958Z</time></trkpt><trkpt lat="44.4860106" lon="9.9624066"><ele>893.0</ele><time>2026-04-08T07:38:11.956Z</time></trkpt><trkpt lat="44.486039" lon="9.96263"><ele>892.3333333333334</ele><time>2026-04-08T07:38:12.957Z</time></trkpt><trkpt lat="44.4860471" lon="9.9628582"><ele>891.6666666666667</ele><time>2026-04-08T07:38:13.956Z</time></trkpt><trkpt lat="44.4859981" lon="9.9630821"><ele>891.0</ele><time>2026-04-08T07:38:14.957Z</time></trkpt><trkpt lat="44.4859146" lon="9.9632858"><ele>890.5</ele><time>2026-04-08T07:38:15.957Z</time></trkpt><trkpt lat="44.4858227" lon="9.9634738"><ele>890.0</ele><time>2026-04-08T07:38:16.957Z</time></trkpt><trkpt lat="44.4857487" lon="9.963652"><ele>889.5</ele><time>2026-04-08T07:38:17.957Z</time></trkpt><trkpt lat="44.485685" lon="9.9638203"><ele>889.0</ele><time>2026-04-08T07:38:18.958Z</time></trkpt><trkpt lat="44.4856374" lon="9.9639976"><ele>889.0</ele><time>2026-04-08T07:38:19.958Z</time></trkpt><trkpt lat="44.4856144" lon="9.964181"><ele>889.0</ele><time>2026-04-08T07:38:20.957Z</time></trkpt><trkpt lat="44.4856138" lon="9.9643655"><ele>889.0</ele><time>2026-04-08T07:38:21.957Z</time></trkpt><trkpt lat="44.4856322" lon="9.9645436"><ele>889.0</ele><time>2026-04-08T07:38:22.957Z</time></trkpt><trkpt lat="44.4856763" lon="9.9647095"><ele>889.5</ele><time>2026-04-08T07:38:23.957Z</time></trkpt><trkpt lat="44.4857527" lon="9.9648459"><ele>890.0</ele><time>2026-04-08T07:38:24.957Z</time></trkpt><trkpt lat="44.4858632" lon="9.9649259"><ele>890.5</ele><time>2026-04-08T07:38:25.957Z</time></trkpt><trkpt lat="44.485984" lon="9.9649454"><ele>891.0</ele><time>2026-04-08T07:38:26.957Z</time></trkpt><trkpt lat="44.4861132" lon="9.9649142"><ele>891.0</ele><time>2026-04-08T07:38:27.958Z</time></trkpt><trkpt lat="44.4862399" lon="9.9648633"><ele>891.0</ele><time>2026-04-08T07:38:28.958Z</time></trkpt><trkpt lat="44.4863729" lon="9.9648026"><ele>891.0</ele><time>2026-04-08T07:38:29.958Z</time></trkpt><trkpt lat="44.4865095" lon="9.9647438"><ele>891.0</ele><time>2026-04-08T07:38:30.957Z</time></trkpt><trkpt lat="44.4866487" lon="9.96469"><ele>887.75</ele><time>2026-04-08T07:38:31.956Z</time></trkpt><trkpt lat="44.4867872" lon="9.9646702"><ele>884.5</ele><time>2026-04-08T07:38:32.955Z</time></trkpt><trkpt lat="44.4869237" lon="9.9647023"><ele>881.25</ele><time>2026-04-08T07:38:33.957Z</time></trkpt><trkpt lat="44.4870582" lon="9.9647778"><ele>878.0</ele><time>2026-04-08T07:38:34.956Z</time></trkpt><trkpt lat="44.4871874" lon="9.9648881"><ele>876.0</ele><time>2026-04-08T07:38:35.957Z</time></trkpt><trkpt lat="44.4872927" lon="9.965027"><ele>874.0</ele><time>2026-04-08T07:38:36.958Z</time></trkpt><trkpt lat="44.4873727" lon="9.9651851"><ele>872.0</ele><time>2026-04-08T07:38:37.958Z</time></trkpt><trkpt lat="44.4874398" lon="9.9653456"><ele>870.0</ele><time>2026-04-08T07:38:38.957Z</time></trkpt><trkpt lat="44.487517" lon="9.9654917"><ele>870.0</ele><time>2026-04-08T07:38:39.956Z</time></trkpt><trkpt lat="44.4875908" lon="9.9656305"><ele>870.0</ele><time>2026-04-08T07:38:40.958Z</time></trkpt><trkpt lat="44.4876572" lon="9.9657732"><ele>870.0</ele><time>2026-04-08T07:38:41.957Z</time></trkpt><trkpt lat="44.4877211" lon="9.965917"><ele>870.0</ele><time>2026-04-08T07:38:42.956Z</time></trkpt><trkpt lat="44.4877862" lon="9.9660505"><ele>871.4</ele><time>2026-04-08T07:38:43.957Z</time></trkpt><trkpt lat="44.4878614" lon="9.9661605"><ele>872.8</ele><time>2026-04-08T07:38:44.957Z</time></trkpt><trkpt lat="44.4879525" lon="9.9662332"><ele>874.2</ele><time>2026-04-08T07:38:45.954Z</time></trkpt><trkpt lat="44.4880593" lon="9.9662558"><ele>875.6</ele><time>2026-04-08T07:38:46.956Z</time></trkpt><trkpt lat="44.4881671" lon="9.9662394"><ele>877.0</ele><time>2026-04-08T07:38:47.956Z</time></trkpt><trkpt lat="44.4882745" lon="9.9661956"><ele>877.0</ele><time>2026-04-08T07:38:48.957Z</time></trkpt><trkpt lat="44.4883802" lon="9.9661408"><ele>877.0</ele><time>2026-04-08T07:38:49.957Z</time></trkpt><trkpt lat="44.4884879" lon="9.966092"><ele>877.0</ele><time>2026-04-08T07:38:50.956Z</time></trkpt><trkpt lat="44.4886073" lon="9.9660896"><ele>877.0</ele><time>2026-04-08T07:38:51.957Z</time></trkpt><trkpt lat="44.4887303" lon="9.9661464"><ele>877.0</ele><time>2026-04-08T07:38:52.958Z</time></trkpt><trkpt lat="44.4888473" lon="9.9662586"><ele>877.0</ele><time>2026-04-08T07:38:53.957Z</time></trkpt><trkpt lat="44.4889484" lon="9.9664065"><ele>877.0</ele><time>2026-04-08T07:38:54.957Z</time></trkpt><trkpt lat="44.4890353" lon="9.9665571"><ele>877.0</ele><time>2026-04-08T07:38:55.957Z</time></trkpt><trkpt lat="44.4891361" lon="9.9666814"><ele>877.0</ele><time>2026-04-08T07:38:56.957Z</time></trkpt><trkpt lat="44.4892497" lon="9.9667692"><ele>877.0</ele><time>2026-04-08T07:38:57.957Z</time></trkpt><trkpt lat="44.4893717" lon="9.9667926"><ele>877.0</ele><time>2026-04-08T07:38:58.957Z</time></trkpt><trkpt lat="44.489488" lon="9.9667328"><ele>877.0</ele><time>2026-04-08T07:38:59.957Z</time></trkpt><trkpt lat="44.4896133" lon="9.9666552"><ele>877.0</ele><time>2026-04-08T07:39:00.957Z</time></trkpt><trkpt lat="44.489728" lon="9.9664785"><ele>877.0</ele><time>2026-04-08T07:39:01.957Z</time></trkpt><trkpt lat="44.4898559" lon="9.9663418"><ele>877.0</ele><time>2026-04-08T07:39:02.955Z</time></trkpt><trkpt lat="44.4899744" lon="9.9662115"><ele>877.0</ele><time>2026-04-08T07:39:03.958Z</time></trkpt><trkpt lat="44.4900917" lon="9.9660921"><ele>877.0</ele><time>2026-04-08T07:39:04.956Z</time></trkpt><trkpt lat="44.490221" lon="9.965997"><ele>877.0</ele><time>2026-04-08T07:39:05.956Z</time></trkpt><trkpt lat="44.4903648" lon="9.9659469"><ele>877.0</ele><time>2026-04-08T07:39:06.957Z</time></trkpt><trkpt lat="44.4905047" lon="9.965929"><ele>877.75</ele><time>2026-04-08T07:39:07.957Z</time></trkpt><trkpt lat="44.4906406" lon="9.9659206"><ele>878.5</ele><time>2026-04-08T07:39:08.957Z</time></trkpt><trkpt lat="44.4907693" lon="9.9659115"><ele>879.25</ele><time>2026-04-08T07:39:09.956Z</time></trkpt><trkpt lat="44.4908924" lon="9.9659087"><ele>880.0</ele><time>2026-04-08T07:39:10.958Z</time></trkpt><trkpt lat="44.4910132" lon="9.9659293"><ele>880.0</ele><time>2026-04-08T07:39:11.958Z</time></trkpt><trkpt lat="44.4911327" lon="9.9659654"><ele>880.0</ele><time>2026-04-08T07:39:12.957Z</time></trkpt><trkpt lat="44.4912511" lon="9.9660124"><ele>880.0</ele><time>2026-04-08T07:39:13.958Z</time></trkpt><trkpt lat="44.4913692" lon="9.9660659"><ele>880.0</ele><time>2026-04-08T07:39:14.958Z</time></trkpt><trkpt lat="44.4914851" lon="9.9661249"><ele>878.0</ele><time>2026-04-08T07:39:15.958Z</time></trkpt><trkpt lat="44.4916004" lon="9.9661828"><ele>876.0</ele><time>2026-04-08T07:39:16.957Z</time></trkpt><trkpt lat="44.4917158" lon="9.9662444"><ele>874.0</ele><time>2026-04-08T07:39:17.957Z</time></trkpt><trkpt lat="44.4918305" lon="9.9663075"><ele>872.0</ele><time>2026-04-08T07:39:18.957Z</time></trkpt><trkpt lat="44.4919453" lon="9.9663711"><ele>872.0</ele><time>2026-04-08T07:39:19.958Z</time></trkpt><trkpt lat="44.4920595" lon="9.9664345"><ele>872.0</ele><time>2026-04-08T07:39:20.957Z</time></trkpt><trkpt lat="44.4921708" lon="9.9664977"><ele>872.0</ele><time>2026-04-08T07:39:21.958Z</time></trkpt><trkpt lat="44.4922773" lon="9.9665628"><ele>872.0</ele><time>2026-04-08T07:39:22.958Z</time></trkpt><trkpt lat="44.4923832" lon="9.9666376"><ele>871.0</ele><time>2026-04-08T07:39:23.958Z</time></trkpt><trkpt lat="44.4924812" lon="9.9667344"><ele>870.0</ele><time>2026-04-08T07:39:24.957Z</time></trkpt><trkpt lat="44.4925541" lon="9.9668746"><ele>869.0</ele><time>2026-04-08T07:39:25.957Z</time></trkpt><trkpt lat="44.4925925" lon="9.9670487"><ele>868.0</ele><time>2026-04-08T07:39:26.958Z</time></trkpt><trkpt lat="44.4926051" lon="9.9672391"><ele>868.0</ele><time>2026-04-08T07:39:27.958Z</time></trkpt><trkpt lat="44.4926114" lon="9.9674355"><ele>868.0</ele><time>2026-04-08T07:39:28.956Z</time></trkpt><trkpt lat="44.4926286" lon="9.9676227"><ele>868.0</ele><time>2026-04-08T07:39:29.958Z</time></trkpt><trkpt lat="44.4926575" lon="9.9678011"><ele>868.0</ele><time>2026-04-08T07:39:30.957Z</time></trkpt><trkpt lat="44.4926958" lon="9.9679662"><ele>868.5</ele><time>2026-04-08T07:39:31.958Z</time></trkpt><trkpt lat="44.4927389" lon="9.9681235"><ele>869.0</ele><time>2026-04-08T07:39:32.957Z</time></trkpt><trkpt lat="44.4927812" lon="9.9682782"><ele>869.5</ele><time>2026-04-08T07:39:33.957Z</time></trkpt><trkpt lat="44.492823" lon="9.9684331"><ele>870.0</ele><time>2026-04-08T07:39:34.957Z</time></trkpt><trkpt lat="44.4928645" lon="9.9685866"><ele>870.25</ele><time>2026-04-08T07:39:35.958Z</time></trkpt><trkpt lat="44.4929052" lon="9.9687391"><ele>870.5</ele><time>2026-04-08T07:39:36.956Z</time></trkpt><trkpt lat="44.4929476" lon="9.9688878"><ele>870.75</ele><time>2026-04-08T07:39:37.957Z</time></trkpt><trkpt lat="44.4929914" lon="9.9690345"><ele>871.0</ele><time>2026-04-08T07:39:38.956Z</time></trkpt><trkpt lat="44.4930341" lon="9.969181"><ele>870.5999999999999</ele><time>2026-04-08T07:39:39.957Z</time></trkpt><trkpt lat="44.4930761" lon="9.9693255"><ele>870.1999999999999</ele><time>2026-04-08T07:39:40.957Z</time></trkpt><trkpt lat="44.4931185" lon="9.9694675"><ele>869.8000000000001</ele><time>2026-04-08T07:39:41.957Z</time></trkpt><trkpt lat="44.4931616" lon="9.969609"><ele>869.4000000000001</ele><time>2026-04-08T07:39:42.957Z</time></trkpt><trkpt lat="44.4932056" lon="9.9697494"><ele>869.0</ele><time>2026-04-08T07:39:43.958Z</time></trkpt><trkpt lat="44.4932505" lon="9.9698905"><ele>873.6</ele><time>2026-04-08T07:39:44.957Z</time></trkpt><trkpt lat="44.4932951" lon="9.9700307"><ele>878.2</ele><time>2026-04-08T07:39:45.958Z</time></trkpt><trkpt lat="44.4933406" lon="9.9701696"><ele>882.8000000000001</ele><time>2026-04-08T07:39:46.957Z</time></trkpt><trkpt lat="44.493393" lon="9.9703066"><ele>887.4000000000001</ele><time>2026-04-08T07:39:47.957Z</time></trkpt><trkpt lat="44.4934545" lon="9.9704345"><ele>892.0</ele><time>2026-04-08T07:39:48.956Z</time></trkpt><trkpt lat="44.4935367" lon="9.9705434"><ele>892.0</ele><time>2026-04-08T07:39:49.957Z</time></trkpt><trkpt lat="44.4936373" lon="9.9706387"><ele>892.0</ele><time>2026-04-08T07:39:50.957Z</time></trkpt><trkpt lat="44.4937449" lon="9.9707288"><ele>892.0</ele><time>2026-04-08T07:39:51.956Z</time></trkpt><trkpt lat="44.4938469" lon="9.9708174"><ele>892.0</ele><time>2026-04-08T07:39:52.957Z</time></trkpt><trkpt lat="44.4939429" lon="9.9709042"><ele>887.25</ele><time>2026-04-08T07:39:53.956Z</time></trkpt><trkpt lat="44.4940384" lon="9.971001"><ele>882.5</ele><time>2026-04-08T07:39:54.955Z</time></trkpt><trkpt lat="44.494115" lon="9.9711312"><ele>877.75</ele><time>2026-04-08T07:39:55.956Z</time></trkpt><trkpt lat="44.4941434" lon="9.9712966"><ele>873.0</ele><time>2026-04-08T07:39:56.956Z</time></trkpt><trkpt lat="44.4941176" lon="9.9714698"><ele>873.0</ele><time>2026-04-08T07:39:57.957Z</time></trkpt><trkpt lat="44.4940634" lon="9.9716238"><ele>873.0</ele><time>2026-04-08T07:39:58.958Z</time></trkpt><trkpt lat="44.4940141" lon="9.9717692"><ele>873.0</ele><time>2026-04-08T07:39:59.956Z</time></trkpt><trkpt lat="44.4939925" lon="9.9719357"><ele>873.0</ele><time>2026-04-08T07:40:00.956Z</time></trkpt><trkpt lat="44.4940011" lon="9.97211"><ele>875.0</ele><time>2026-04-08T07:40:01.958Z</time></trkpt><trkpt lat="44.4940354" lon="9.9722811"><ele>877.0</ele><time>2026-04-08T07:40:02.957Z</time></trkpt><trkpt lat="44.4940872" lon="9.9724442"><ele>879.0</ele><time>2026-04-08T07:40:03.956Z</time></trkpt><trkpt lat="44.4941424" lon="9.9725973"><ele>881.0</ele><time>2026-04-08T07:40:04.956Z</time></trkpt><trkpt lat="44.4943115" lon="9.9726672"><ele>882.3333333333334</ele><time>2026-04-08T07:40:05.956Z</time></trkpt><trkpt lat="44.4944386" lon="9.9727679"><ele>883.6666666666667</ele><time>2026-04-08T07:40:06.958Z</time></trkpt><trkpt lat="44.4945739" lon="9.9728661"><ele>885.0</ele><time>2026-04-08T07:40:07.957Z</time></trkpt><trkpt lat="44.4947116" lon="9.9729684"><ele>885.0</ele><time>2026-04-08T07:40:08.958Z</time></trkpt><trkpt lat="44.4948645" lon="9.9730744"><ele>885.0</ele><time>2026-04-08T07:40:09.958Z</time></trkpt><trkpt lat="44.4950292" lon="9.9731859"><ele>885.0</ele><time>2026-04-08T07:40:10.957Z</time></trkpt><trkpt lat="44.4952068" lon="9.9733034"><ele>890.0</ele><time>2026-04-08T07:40:11.957Z</time></trkpt><trkpt lat="44.4954005" lon="9.9734199"><ele>895.0</ele><time>2026-04-08T07:40:12.957Z</time></trkpt><trkpt lat="44.495622" lon="9.973523"><ele>900.0</ele><time>2026-04-08T07:40:13.958Z</time></trkpt><trkpt lat="44.4958526" lon="9.9736002"><ele>900.0</ele><time>2026-04-08T07:40:14.958Z</time></trkpt><trkpt lat="44.4960777" lon="9.9736599"><ele>900.0</ele><time>2026-04-08T07:40:15.957Z</time></trkpt><trkpt lat="44.4962947" lon="9.9737176"><ele>895.3333333333333</ele><time>2026-04-08T07:40:16.957Z</time></trkpt><trkpt lat="44.4965017" lon="9.9737927"><ele>890.6666666666666</ele><time>2026-04-08T07:40:17.957Z</time></trkpt><trkpt lat="44.4966799" lon="9.9739108"><ele>886.0</ele><time>2026-04-08T07:40:18.957Z</time></trkpt><trkpt lat="44.4968506" lon="9.9740078"><ele>886.0</ele><time>2026-04-08T07:40:19.958Z</time></trkpt><trkpt lat="44.4970231" lon="9.9740457"><ele>886.0</ele><time>2026-04-08T07:40:20.957Z</time></trkpt><trkpt lat="44.497191" lon="9.9740796"><ele>886.0</ele><time>2026-04-08T07:40:21.957Z</time></trkpt><trkpt lat="44.4973465" lon="9.9741567"><ele>890.3333333333333</ele><time>2026-04-08T07:40:22.957Z</time></trkpt><trkpt lat="44.4974807" lon="9.974297"><ele>894.6666666666667</ele><time>2026-04-08T07:40:23.957Z</time></trkpt><trkpt lat="44.4975981" lon="9.9744677"><ele>899.0</ele><time>2026-04-08T07:40:24.957Z</time></trkpt><trkpt lat="44.4977152" lon="9.9746383"><ele>899.0</ele><time>2026-04-08T07:40:25.956Z</time></trkpt><trkpt lat="44.4978354" lon="9.9748025"><ele>899.0</ele><time>2026-04-08T07:40:26.957Z</time></trkpt><trkpt lat="44.497978" lon="9.9749316"><ele>899.0</ele><time>2026-04-08T07:40:27.957Z</time></trkpt><trkpt lat="44.4981419" lon="9.9750231"><ele>902.3333333333334</ele><time>2026-04-08T07:40:28.957Z</time></trkpt><trkpt lat="44.4983136" lon="9.9751113"><ele>905.6666666666667</ele><time>2026-04-08T07:40:29.957Z</time></trkpt><trkpt lat="44.4984815" lon="9.975191"><ele>909.0</ele><time>2026-04-08T07:40:30.956Z</time></trkpt><trkpt lat="44.4986389" lon="9.9752644"><ele>902.25</ele><time>2026-04-08T07:40:31.957Z</time></trkpt><trkpt lat="44.4987903" lon="9.9753107"><ele>895.5</ele><time>2026-04-08T07:40:32.958Z</time></trkpt><trkpt lat="44.4989375" lon="9.9753366"><ele>888.75</ele><time>2026-04-08T07:40:33.957Z</time></trkpt><trkpt lat="44.4990779" lon="9.9753476"><ele>882.0</ele><time>2026-04-08T07:40:34.957Z</time></trkpt><trkpt lat="44.4992037" lon="9.9753764"><ele>882.0</ele><time>2026-04-08T07:40:35.955Z</time></trkpt><trkpt lat="44.4992942" lon="9.9754754"><ele>882.0</ele><time>2026-04-08T07:40:36.956Z</time></trkpt><trkpt lat="44.4993376" lon="9.9756296"><ele>882.0</ele><time>2026-04-08T07:40:37.956Z</time></trkpt><trkpt lat="44.499359" lon="9.975799"><ele>882.0</ele><time>2026-04-08T07:40:38.958Z</time></trkpt><trkpt lat="44.4993827" lon="9.9759847"><ele>888.3333333333333</ele><time>2026-04-08T07:40:39.957Z</time></trkpt><trkpt lat="44.4994124" lon="9.9761837"><ele>894.6666666666666</ele><time>2026-04-08T07:40:40.957Z</time></trkpt><trkpt lat="44.4994597" lon="9.9763828"><ele>901.0</ele><time>2026-04-08T07:40:41.957Z</time></trkpt><trkpt lat="44.4995225" lon="9.9765862"><ele>887.3333333333333</ele><time>2026-04-08T07:40:42.958Z</time></trkpt><trkpt lat="44.4995865" lon="9.9767919"><ele>873.6666666666667</ele><time>2026-04-08T07:40:43.956Z</time></trkpt><trkpt lat="44.4996528" lon="9.9770041"><ele>860.0</ele><time>2026-04-08T07:40:44.956Z</time></trkpt><trkpt lat="44.4997136" lon="9.9772168"><ele>860.0</ele><time>2026-04-08T07:40:45.957Z</time></trkpt><trkpt lat="44.499764" lon="9.9774311"><ele>860.0</ele><time>2026-04-08T07:40:46.957Z</time></trkpt><trkpt lat="44.4997923" lon="9.9776536"><ele>860.0</ele><time>2026-04-08T07:40:47.957Z</time></trkpt><trkpt lat="44.4997934" lon="9.9778805"><ele>860.75</ele><time>2026-04-08T07:40:48.957Z</time></trkpt><trkpt lat="44.499783" lon="9.9780966"><ele>861.5</ele><time>2026-04-08T07:40:49.956Z</time></trkpt><trkpt lat="44.4997763" lon="9.9782976"><ele>862.25</ele><time>2026-04-08T07:40:50.958Z</time></trkpt><trkpt lat="44.4997714" lon="9.9784895"><ele>863.0</ele><time>2026-04-08T07:40:51.958Z</time></trkpt><trkpt lat="44.4997842" lon="9.9786723"><ele>863.25</ele><time>2026-04-08T07:40:52.956Z</time></trkpt><trkpt lat="44.4998144" lon="9.9788457"><ele>863.5</ele><time>2026-04-08T07:40:53.956Z</time></trkpt><trkpt lat="44.4998598" lon="9.9790117"><ele>863.75</ele><time>2026-04-08T07:40:54.958Z</time></trkpt><trkpt lat="44.4999117" lon="9.9791711"><ele>864.0</ele><time>2026-04-08T07:40:55.956Z</time></trkpt><trkpt lat="44.4999645" lon="9.9793279"><ele>864.75</ele><time>2026-04-08T07:40:56.957Z</time></trkpt><trkpt lat="44.5000151" lon="9.9794791"><ele>865.5</ele><time>2026-04-08T07:40:57.956Z</time></trkpt><trkpt lat="44.5000585" lon="9.9796316"><ele>866.25</ele><time>2026-04-08T07:40:58.957Z</time></trkpt><trkpt lat="44.5000857" lon="9.979792"><ele>867.0</ele><time>2026-04-08T07:40:59.956Z</time></trkpt><trkpt lat="44.5000876" lon="9.9799639"><ele>867.5</ele><time>2026-04-08T07:41:00.957Z</time></trkpt><trkpt lat="44.5000775" lon="9.9801441"><ele>868.0</ele><time>2026-04-08T07:41:01.957Z</time></trkpt><trkpt lat="44.5000692" lon="9.980329"><ele>868.5</ele><time>2026-04-08T07:41:02.958Z</time></trkpt><trkpt lat="44.5000666" lon="9.9805079"><ele>869.0</ele><time>2026-04-08T07:41:03.957Z</time></trkpt><trkpt lat="44.5000811" lon="9.9806798"><ele>869.0</ele><time>2026-04-08T07:41:04.958Z</time></trkpt><trkpt lat="44.5001219" lon="9.9808453"><ele>869.0</ele><time>2026-04-08T07:41:05.956Z</time></trkpt><trkpt lat="44.5001848" lon="9.9809953"><ele>869.0</ele><time>2026-04-08T07:41:06.956Z</time></trkpt><trkpt lat="44.5002558" lon="9.9811352"><ele>869.0</ele><time>2026-04-08T07:41:07.957Z</time></trkpt><trkpt lat="44.5003286" lon="9.9812742"><ele>870.75</ele><time>2026-04-08T07:41:08.956Z</time></trkpt><trkpt lat="44.5004057" lon="9.9814094"><ele>872.5</ele><time>2026-04-08T07:41:09.955Z</time></trkpt><trkpt lat="44.5004904" lon="9.9815401"><ele>874.25</ele><time>2026-04-08T07:41:10.958Z</time></trkpt><trkpt lat="44.5005826" lon="9.9816687"><ele>876.0</ele><time>2026-04-08T07:41:11.957Z</time></trkpt><trkpt lat="44.5006795" lon="9.9817893"><ele>876.0</ele><time>2026-04-08T07:41:12.957Z</time></trkpt><trkpt lat="44.5007817" lon="9.9819061"><ele>876.0</ele><time>2026-04-08T07:41:13.958Z</time></trkpt><trkpt lat="44.5008907" lon="9.9820187"><ele>876.0</ele><time>2026-04-08T07:41:14.957Z</time></trkpt><trkpt lat="44.5010083" lon="9.9821241"><ele>876.0</ele><time>2026-04-08T07:41:15.957Z</time></trkpt><trkpt lat="44.5011343" lon="9.9822138"><ele>871.25</ele><time>2026-04-08T07:41:16.957Z</time></trkpt><trkpt lat="44.5012645" lon="9.9822855"><ele>866.5</ele><time>2026-04-08T07:41:17.956Z</time></trkpt><trkpt lat="44.5013925" lon="9.9823477"><ele>861.75</ele><time>2026-04-08T07:41:18.957Z</time></trkpt><trkpt lat="44.5015131" lon="9.9824077"><ele>857.0</ele><time>2026-04-08T07:41:19.956Z</time></trkpt><trkpt lat="44.5016215" lon="9.9825124"><ele>859.0</ele><time>2026-04-08T07:41:20.956Z</time></trkpt><trkpt lat="44.5017068" lon="9.9826614"><ele>861.0</ele><time>2026-04-08T07:41:21.956Z</time></trkpt><trkpt lat="44.5017626" lon="9.9828456"><ele>863.0</ele><time>2026-04-08T07:41:22.957Z</time></trkpt><trkpt lat="44.5018019" lon="9.9830428"><ele>865.0</ele><time>2026-04-08T07:41:23.957Z</time></trkpt><trkpt lat="44.5018417" lon="9.9832322"><ele>865.0</ele><time>2026-04-08T07:41:24.958Z</time></trkpt><trkpt lat="44.5018714" lon="9.9834214"><ele>865.0</ele><time>2026-04-08T07:41:25.957Z</time></trkpt><trkpt lat="44.5018696" lon="9.9836201"><ele>865.0</ele><time>2026-04-08T07:41:26.957Z</time></trkpt><trkpt lat="44.5018379" lon="9.9838238"><ele>865.0</ele><time>2026-04-08T07:41:27.957Z</time></trkpt><trkpt lat="44.501788" lon="9.9840266"><ele>863.25</ele><time>2026-04-08T07:41:28.957Z</time></trkpt><trkpt lat="44.5017318" lon="9.9842225"><ele>861.5</ele><time>2026-04-08T07:41:29.958Z</time></trkpt><trkpt lat="44.5016562" lon="9.9844057"><ele>859.75</ele><time>2026-04-08T07:41:30.957Z</time></trkpt><trkpt lat="44.5015699" lon="9.9845633"><ele>858.0</ele><time>2026-04-08T07:41:31.956Z</time></trkpt><trkpt lat="44.5014955" lon="9.9847247"><ele>858.0</ele><time>2026-04-08T07:41:32.958Z</time></trkpt><trkpt lat="44.50145" lon="9.9848914"><ele>858.0</ele><time>2026-04-08T07:41:33.958Z</time></trkpt><trkpt lat="44.5014525" lon="9.98507"><ele>858.0</ele><time>2026-04-08T07:41:34.956Z</time></trkpt><trkpt lat="44.5014939" lon="9.9852418"><ele>858.0</ele><time>2026-04-08T07:41:35.956Z</time></trkpt><trkpt lat="44.5015798" lon="9.9853948"><ele>858.5</ele><time>2026-04-08T07:41:36.957Z</time></trkpt><trkpt lat="44.5016875" lon="9.9855214"><ele>859.0</ele><time>2026-04-08T07:41:37.957Z</time></trkpt><trkpt lat="44.501806" lon="9.9856343"><ele>859.5</ele><time>2026-04-08T07:41:38.957Z</time></trkpt><trkpt lat="44.5019203" lon="9.9857564"><ele>860.0</ele><time>2026-04-08T07:41:39.955Z</time></trkpt><trkpt lat="44.5020158" lon="9.9859161"><ele>856.75</ele><time>2026-04-08T07:41:40.956Z</time></trkpt><trkpt lat="44.502096" lon="9.9860842"><ele>853.5</ele><time>2026-04-08T07:41:41.954Z</time></trkpt><trkpt lat="44.5021691" lon="9.9862473"><ele>850.25</ele><time>2026-04-08T07:41:42.958Z</time></trkpt><trkpt lat="44.5022161" lon="9.9864223"><ele>847.0</ele><time>2026-04-08T07:41:43.957Z</time></trkpt><trkpt lat="44.5022012" lon="9.9866106"><ele>848.5</ele><time>2026-04-08T07:41:44.958Z</time></trkpt><trkpt lat="44.5021508" lon="9.9867808"><ele>850.0</ele><time>2026-04-08T07:41:45.957Z</time></trkpt><trkpt lat="44.5021033" lon="9.9869405"><ele>851.5</ele><time>2026-04-08T07:41:46.957Z</time></trkpt><trkpt lat="44.5020713" lon="9.9871011"><ele>853.0</ele><time>2026-04-08T07:41:47.958Z</time></trkpt><trkpt lat="44.5020759" lon="9.9872597"><ele>853.0</ele><time>2026-04-08T07:41:48.956Z</time></trkpt><trkpt lat="44.5021228" lon="9.9873966"><ele>853.0</ele><time>2026-04-08T07:41:49.957Z</time></trkpt><trkpt lat="44.5022091" lon="9.9874926"><ele>853.0</ele><time>2026-04-08T07:41:50.956Z</time></trkpt><trkpt lat="44.5023135" lon="9.9875409"><ele>853.0</ele><time>2026-04-08T07:41:51.956Z</time></trkpt><trkpt lat="44.5024275" lon="9.9875442"><ele>853.0</ele><time>2026-04-08T07:41:52.956Z</time></trkpt><trkpt lat="44.5025427" lon="9.9875223"><ele>853.0</ele><time>2026-04-08T07:41:53.956Z</time></trkpt><trkpt lat="44.5026592" lon="9.9874976"><ele>853.0</ele><time>2026-04-08T07:41:54.957Z</time></trkpt><trkpt lat="44.502776" lon="9.9874753"><ele>853.0</ele><time>2026-04-08T07:41:55.958Z</time></trkpt><trkpt lat="44.5028912" lon="9.9874603"><ele>853.0</ele><time>2026-04-08T07:41:56.956Z</time></trkpt><trkpt lat="44.5030011" lon="9.987475"><ele>853.25</ele><time>2026-04-08T07:41:57.958Z</time></trkpt><trkpt lat="44.5030971" lon="9.9875406"><ele>853.5</ele><time>2026-04-08T07:41:58.956Z</time></trkpt><trkpt lat="44.503178" lon="9.9876527"><ele>853.75</ele><time>2026-04-08T07:41:59.956Z</time></trkpt><trkpt lat="44.5032421" lon="9.9877886"><ele>854.0</ele><time>2026-04-08T07:42:00.957Z</time></trkpt><trkpt lat="44.5033045" lon="9.9879389"><ele>854.0</ele><time>2026-04-08T07:42:01.957Z</time></trkpt><trkpt lat="44.5033693" lon="9.9880779"><ele>854.0</ele><time>2026-04-08T07:42:02.956Z</time></trkpt><trkpt lat="44.5034395" lon="9.9882104"><ele>854.0</ele><time>2026-04-08T07:42:03.956Z</time></trkpt><trkpt lat="44.5035175" lon="9.9883375"><ele>854.0</ele><time>2026-04-08T07:42:04.957Z</time></trkpt><trkpt lat="44.5036056" lon="9.9884528"><ele>853.75</ele><time>2026-04-08T07:42:05.956Z</time></trkpt><trkpt lat="44.5037026" lon="9.9885572"><ele>853.5</ele><time>2026-04-08T07:42:06.958Z</time></trkpt><trkpt lat="44.503803" lon="9.9886516"><ele>853.25</ele><time>2026-04-08T07:42:07.957Z</time></trkpt><trkpt lat="44.503904" lon="9.9887408"><ele>853.0</ele><time>2026-04-08T07:42:08.957Z</time></trkpt><trkpt lat="44.5040069" lon="9.9888234"><ele>853.0</ele><time>2026-04-08T07:42:09.956Z</time></trkpt><trkpt lat="44.5041121" lon="9.9888984"><ele>853.0</ele><time>2026-04-08T07:42:10.957Z</time></trkpt><trkpt lat="44.5042211" lon="9.9889495"><ele>853.0</ele><time>2026-04-08T07:42:11.958Z</time></trkpt><trkpt lat="44.5043342" lon="9.9889762"><ele>853.0</ele><time>2026-04-08T07:42:12.957Z</time></trkpt><trkpt lat="44.5044475" lon="9.9889945"><ele>853.0</ele><time>2026-04-08T07:42:13.956Z</time></trkpt><trkpt lat="44.5045612" lon="9.9890066"><ele>853.0</ele><time>2026-04-08T07:42:14.957Z</time></trkpt><trkpt lat="44.5046726" lon="9.9890163"><ele>853.0</ele><time>2026-04-08T07:42:15.957Z</time></trkpt><trkpt lat="44.5047831" lon="9.9890235"><ele>853.0</ele><time>2026-04-08T07:42:16.957Z</time></trkpt><trkpt lat="44.5048908" lon="9.9890359"><ele>853.0</ele><time>2026-04-08T07:42:17.957Z</time></trkpt><trkpt lat="44.5049967" lon="9.9890518"><ele>852.0</ele><time>2026-04-08T07:42:18.957Z</time></trkpt><trkpt lat="44.5051018" lon="9.9890841"><ele>851.0</ele><time>2026-04-08T07:42:19.957Z</time></trkpt><trkpt lat="44.5052059" lon="9.9891435"><ele>850.0</ele><time>2026-04-08T07:42:20.958Z</time></trkpt><trkpt lat="44.5053067" lon="9.989224"><ele>849.0</ele><time>2026-04-08T07:42:21.957Z</time></trkpt><trkpt lat="44.505402" lon="9.9893207"><ele>848.25</ele><time>2026-04-08T07:42:22.957Z</time></trkpt><trkpt lat="44.5054961" lon="9.9894199"><ele>847.5</ele><time>2026-04-08T07:42:23.957Z</time></trkpt><trkpt lat="44.5055882" lon="9.9895169"><ele>846.75</ele><time>2026-04-08T07:42:24.957Z</time></trkpt><trkpt lat="44.5056762" lon="9.9896143"><ele>846.0</ele><time>2026-04-08T07:42:25.957Z</time></trkpt><trkpt lat="44.5057599" lon="9.9897087"><ele>846.0</ele><time>2026-04-08T07:42:26.958Z</time></trkpt><trkpt lat="44.5058409" lon="9.9898059"><ele>846.0</ele><time>2026-04-08T07:42:27.957Z</time></trkpt><trkpt lat="44.5059273" lon="9.9898993"><ele>846.0</ele><time>2026-04-08T07:42:28.958Z</time></trkpt><trkpt lat="44.5060163" lon="9.9899929"><ele>846.0</ele><time>2026-04-08T07:42:29.957Z</time></trkpt><trkpt lat="44.5061011" lon="9.9901"><ele>846.0</ele><time>2026-04-08T07:42:30.957Z</time></trkpt><trkpt lat="44.5061742" lon="9.9902249"><ele>846.0</ele><time>2026-04-08T07:42:31.957Z</time></trkpt><trkpt lat="44.5062316" lon="9.9903659"><ele>846.0</ele><time>2026-04-08T07:42:32.957Z</time></trkpt><trkpt lat="44.5062824" lon="9.9905134"><ele>846.0</ele><time>2026-04-08T07:42:33.958Z</time></trkpt><trkpt lat="44.5063338" lon="9.9906609"><ele>846.0</ele><time>2026-04-08T07:42:34.957Z</time></trkpt><trkpt lat="44.5063939" lon="9.9908001"><ele>845.4</ele><time>2026-04-08T07:42:35.956Z</time></trkpt><trkpt lat="44.5064665" lon="9.9909276"><ele>844.8</ele><time>2026-04-08T07:42:36.958Z</time></trkpt><trkpt lat="44.5065473" lon="9.9910376"><ele>844.1999999999999</ele><time>2026-04-08T07:42:37.958Z</time></trkpt><trkpt lat="44.5066242" lon="9.9911361"><ele>843.5999999999999</ele><time>2026-04-08T07:42:38.957Z</time></trkpt><trkpt lat="44.5067007" lon="9.9912252"><ele>843.0</ele><time>2026-04-08T07:42:39.958Z</time></trkpt><trkpt lat="44.5067704" lon="9.9913082"><ele>843.0</ele><time>2026-04-08T07:42:40.958Z</time></trkpt><trkpt lat="44.5068381" lon="9.9913845"><ele>843.0</ele><time>2026-04-08T07:42:41.957Z</time></trkpt><trkpt lat="44.5069058" lon="9.9914607"><ele>843.0</ele><time>2026-04-08T07:42:42.956Z</time></trkpt><trkpt lat="44.5069682" lon="9.9915328"><ele>843.0</ele><time>2026-04-08T07:42:43.957Z</time></trkpt><trkpt lat="44.5070368" lon="9.9915938"><ele>843.0</ele><time>2026-04-08T07:42:44.957Z</time></trkpt><trkpt lat="44.5071074" lon="9.9916466"><ele>843.0</ele><time>2026-04-08T07:42:45.957Z</time></trkpt><trkpt lat="44.5071764" lon="9.9916916"><ele>843.0</ele><time>2026-04-08T07:42:46.957Z</time></trkpt><trkpt lat="44.507248" lon="9.9917347"><ele>843.0</ele><time>2026-04-08T07:42:47.958Z</time></trkpt><trkpt lat="44.5073196" lon="9.9917799"><ele>843.0</ele><time>2026-04-08T07:42:48.957Z</time></trkpt><trkpt lat="44.5073923" lon="9.9918242"><ele>843.0</ele><time>2026-04-08T07:42:49.957Z</time></trkpt><trkpt lat="44.5074648" lon="9.9918719"><ele>843.0</ele><time>2026-04-08T07:42:50.957Z</time></trkpt><trkpt lat="44.5075365" lon="9.9919166"><ele>843.0</ele><time>2026-04-08T07:42:51.957Z</time></trkpt><trkpt lat="44.507609" lon="9.9919616"><ele>843.0</ele><time>2026-04-08T07:42:52.957Z</time></trkpt><trkpt lat="44.5076834" lon="9.991997"><ele>843.0</ele><time>2026-04-08T07:42:53.958Z</time></trkpt><trkpt lat="44.507757" lon="9.9920301"><ele>843.0</ele><time>2026-04-08T07:42:54.958Z</time></trkpt><trkpt lat="44.5078358" lon="9.9920563"><ele>843.0</ele><time>2026-04-08T07:42:55.958Z</time></trkpt><trkpt lat="44.5079171" lon="9.9920719"><ele>843.0</ele><time>2026-04-08T07:42:56.957Z</time></trkpt><trkpt lat="44.5079996" lon="9.9920886"><ele>843.0</ele><time>2026-04-08T07:42:57.957Z</time></trkpt><trkpt lat="44.5080823" lon="9.992103"><ele>842.5</ele><time>2026-04-08T07:42:58.957Z</time></trkpt><trkpt lat="44.5081686" lon="9.9921098"><ele>842.0</ele><time>2026-04-08T07:42:59.957Z</time></trkpt><trkpt lat="44.5082562" lon="9.9921103"><ele>841.5</ele><time>2026-04-08T07:43:00.957Z</time></trkpt><trkpt lat="44.5083437" lon="9.9921099"><ele>841.0</ele><time>2026-04-08T07:43:01.956Z</time></trkpt><trkpt lat="44.5084297" lon="9.9921063"><ele>840.5</ele><time>2026-04-08T07:43:02.957Z</time></trkpt><trkpt lat="44.5085155" lon="9.9921008"><ele>840.0</ele><time>2026-04-08T07:43:03.957Z</time></trkpt><trkpt lat="44.5086003" lon="9.9920961"><ele>840.0</ele><time>2026-04-08T07:43:04.956Z</time></trkpt><trkpt lat="44.5086858" lon="9.9920928"><ele>840.0</ele><time>2026-04-08T07:43:05.957Z</time></trkpt><trkpt lat="44.5087693" lon="9.9920864"><ele>840.0</ele><time>2026-04-08T07:43:06.956Z</time></trkpt><trkpt lat="44.5088536" lon="9.9920816"><ele>840.0</ele><time>2026-04-08T07:43:07.957Z</time></trkpt><trkpt lat="44.5089352" lon="9.9920778"><ele>840.0</ele><time>2026-04-08T07:43:08.957Z</time></trkpt><trkpt lat="44.5090153" lon="9.9920743"><ele>840.0</ele><time>2026-04-08T07:43:09.957Z</time></trkpt><trkpt lat="44.509094" lon="9.9920891"><ele>839.3333333333334</ele><time>2026-04-08T07:43:10.957Z</time></trkpt><trkpt lat="44.509169" lon="9.9921203"><ele>838.6666666666667</ele><time>2026-04-08T07:43:11.957Z</time></trkpt><trkpt lat="44.509237" lon="9.9921776"><ele>838.0</ele><time>2026-04-08T07:43:12.956Z</time></trkpt><trkpt lat="44.5092981" lon="9.9922526"><ele>837.3333333333334</ele><time>2026-04-08T07:43:13.957Z</time></trkpt><trkpt lat="44.5093642" lon="9.9923354"><ele>836.6666666666667</ele><time>2026-04-08T07:43:14.957Z</time></trkpt><trkpt lat="44.509436" lon="9.9924258"><ele>836.0</ele><time>2026-04-08T07:43:15.955Z</time></trkpt><trkpt lat="44.5095167" lon="9.9925099"><ele>836.4</ele><time>2026-04-08T07:43:16.956Z</time></trkpt><trkpt lat="44.5096129" lon="9.9925625"><ele>836.8</ele><time>2026-04-08T07:43:17.957Z</time></trkpt><trkpt lat="44.5097167" lon="9.992575"><ele>837.1999999999999</ele><time>2026-04-08T07:43:18.957Z</time></trkpt><trkpt lat="44.5098271" lon="9.9925653"><ele>837.5999999999999</ele><time>2026-04-08T07:43:19.957Z</time></trkpt><trkpt lat="44.5099411" lon="9.9925548"><ele>838.0</ele><time>2026-04-08T07:43:20.957Z</time></trkpt><trkpt lat="44.510049" lon="9.9925497"><ele>838.0</ele><time>2026-04-08T07:43:21.956Z</time></trkpt><trkpt lat="44.5101513" lon="9.992542"><ele>838.0</ele><time>2026-04-08T07:43:22.958Z</time></trkpt><trkpt lat="44.5102509" lon="9.9925368"><ele>838.0</ele><time>2026-04-08T07:43:23.957Z</time></trkpt><trkpt lat="44.5103474" lon="9.9925308"><ele>838.0</ele><time>2026-04-08T07:43:24.957Z</time></trkpt><trkpt lat="44.5104418" lon="9.9925238"><ele>838.0</ele><time>2026-04-08T07:43:25.958Z</time></trkpt><trkpt lat="44.5105355" lon="9.9925059"><ele>835.9999999999999</ele><time>2026-04-08T07:43:26.954Z</time></trkpt><trkpt lat="44.510618" lon="9.9924505"><ele>834.0</ele><time>2026-04-08T07:43:27.958Z</time></trkpt><trkpt lat="44.5106856" lon="9.9923695"><ele>832.0</ele><time>2026-04-08T07:43:28.957Z</time></trkpt><trkpt lat="44.5107296" lon="9.9922682"><ele>830.0</ele><time>2026-04-08T07:43:29.955Z</time></trkpt><trkpt lat="44.5107507" lon="9.9921549"><ele>827.9999999999999</ele><time>2026-04-08T07:43:30.955Z</time></trkpt><trkpt lat="44.5107547" lon="9.9920379"><ele>826.0</ele><time>2026-04-08T07:43:31.957Z</time></trkpt><trkpt lat="44.510752" lon="9.9919219"><ele>825.9999999999999</ele><time>2026-04-08T07:43:32.957Z</time></trkpt><trkpt lat="44.510744" lon="9.9918086"><ele>826.0</ele><time>2026-04-08T07:43:33.958Z</time></trkpt><trkpt lat="44.5107371" lon="9.9916989"><ele>826.0</ele><time>2026-04-08T07:43:34.957Z</time></trkpt><trkpt lat="44.5107278" lon="9.9916004"><ele>826.0</ele><time>2026-04-08T07:43:35.957Z</time></trkpt><trkpt lat="44.5106972" lon="9.9914605"><ele>825.9999999999999</ele><time>2026-04-08T07:43:37.957Z</time></trkpt><trkpt lat="44.5106223" lon="9.9913986"><ele>826.0</ele><time>2026-04-08T07:43:39.957Z</time></trkpt><trkpt lat="44.5105233" lon="9.9914114"><ele>825.8</ele><time>2026-04-08T07:43:41.957Z</time></trkpt><trkpt lat="44.5104438" lon="9.9915237"><ele>825.5999999999999</ele><time>2026-04-08T07:43:43.958Z</time></trkpt><trkpt lat="44.5103839" lon="9.9916763"><ele>825.4</ele><time>2026-04-08T07:43:45.957Z</time></trkpt><trkpt lat="44.5102774" lon="9.9917534"><ele>825.2</ele><time>2026-04-08T07:43:47.958Z</time></trkpt><trkpt lat="44.5102113" lon="9.9917352"><ele>825.0</ele><time>2026-04-08T07:43:48.957Z</time></trkpt><trkpt lat="44.5101411" lon="9.9916951"><ele>822.3333333333334</ele><time>2026-04-08T07:43:49.957Z</time></trkpt><trkpt lat="44.5100669" lon="9.9916446"><ele>819.6666666666667</ele><time>2026-04-08T07:43:50.957Z</time></trkpt><trkpt lat="44.5099908" lon="9.9915938"><ele>817.0</ele><time>2026-04-08T07:43:51.956Z</time></trkpt><trkpt lat="44.5099133" lon="9.9915476"><ele>814.3333333333334</ele><time>2026-04-08T07:43:52.956Z</time></trkpt><trkpt lat="44.5098356" lon="9.991497"><ele>811.6666666666667</ele><time>2026-04-08T07:43:53.957Z</time></trkpt><trkpt lat="44.5097601" lon="9.9914505"><ele>809.0</ele><time>2026-04-08T07:43:54.957Z</time></trkpt><trkpt lat="44.509686" lon="9.9914045"><ele>809.0000000000001</ele><time>2026-04-08T07:43:55.956Z</time></trkpt><trkpt lat="44.5096156" lon="9.9913619"><ele>809.0</ele><time>2026-04-08T07:43:56.957Z</time></trkpt><trkpt lat="44.5095476" lon="9.9913201"><ele>809.0</ele><time>2026-04-08T07:43:57.957Z</time></trkpt><trkpt lat="44.5094753" lon="9.9912779"><ele>809.0</ele><time>2026-04-08T07:43:58.957Z</time></trkpt><trkpt lat="44.5094044" lon="9.991232"><ele>809.0000000000001</ele><time>2026-04-08T07:43:59.957Z</time></trkpt><trkpt lat="44.5093334" lon="9.9911855"><ele>809.0</ele><time>2026-04-08T07:44:00.957Z</time></trkpt><trkpt lat="44.5092637" lon="9.9911363"><ele>810.6666666666667</ele><time>2026-04-08T07:44:01.957Z</time></trkpt><trkpt lat="44.5091934" lon="9.9910909"><ele>812.3333333333334</ele><time>2026-04-08T07:44:02.957Z</time></trkpt><trkpt lat="44.509125" lon="9.9910462"><ele>814.0</ele><time>2026-04-08T07:44:03.957Z</time></trkpt><trkpt lat="44.5090548" lon="9.9910066"><ele>815.6666666666667</ele><time>2026-04-08T07:44:04.957Z</time></trkpt><trkpt lat="44.5089863" lon="9.9909674"><ele>817.3333333333334</ele><time>2026-04-08T07:44:05.956Z</time></trkpt><trkpt lat="44.5089175" lon="9.9909204"><ele>819.0</ele><time>2026-04-08T07:44:06.957Z</time></trkpt><trkpt lat="44.5088467" lon="9.9908768"><ele>818.1666666666666</ele><time>2026-04-08T07:44:07.958Z</time></trkpt><trkpt lat="44.5087776" lon="9.9908324"><ele>817.3333333333333</ele><time>2026-04-08T07:44:08.957Z</time></trkpt><trkpt lat="44.5087098" lon="9.990789"><ele>816.5</ele><time>2026-04-08T07:44:09.958Z</time></trkpt><trkpt lat="44.5086403" lon="9.9907455"><ele>815.6666666666666</ele><time>2026-04-08T07:44:10.957Z</time></trkpt><trkpt lat="44.5085708" lon="9.9907016"><ele>814.8333333333333</ele><time>2026-04-08T07:44:11.958Z</time></trkpt><trkpt lat="44.5084993" lon="9.9906618"><ele>814.0</ele><time>2026-04-08T07:44:12.957Z</time></trkpt><trkpt lat="44.5084295" lon="9.9906197"><ele>813.9999999999999</ele><time>2026-04-08T07:44:13.957Z</time></trkpt><trkpt lat="44.5083617" lon="9.99057"><ele>814.0</ele><time>2026-04-08T07:44:14.958Z</time></trkpt><trkpt lat="44.508291" lon="9.9905263"><ele>814.0</ele><time>2026-04-08T07:44:15.956Z</time></trkpt><trkpt lat="44.5082203" lon="9.9904795"><ele>814.0</ele><time>2026-04-08T07:44:16.957Z</time></trkpt><trkpt lat="44.5081562" lon="9.9904193"><ele>813.9999999999999</ele><time>2026-04-08T07:44:17.957Z</time></trkpt><trkpt lat="44.5081024" lon="9.9903396"><ele>814.0</ele><time>2026-04-08T07:44:18.958Z</time></trkpt><trkpt lat="44.5080536" lon="9.9902525"><ele>813.9999999999999</ele><time>2026-04-08T07:44:19.957Z</time></trkpt><trkpt lat="44.5079999" lon="9.9901668"><ele>814.0</ele><time>2026-04-08T07:44:20.956Z</time></trkpt><trkpt lat="44.5079424" lon="9.9900849"><ele>814.0</ele><time>2026-04-08T07:44:21.958Z</time></trkpt><trkpt lat="44.5078802" lon="9.9900051"><ele>814.0</ele><time>2026-04-08T07:44:22.957Z</time></trkpt><trkpt lat="44.5078176" lon="9.9899242"><ele>813.9999999999999</ele><time>2026-04-08T07:44:23.956Z</time></trkpt><trkpt lat="44.507751" lon="9.989848"><ele>814.0</ele><time>2026-04-08T07:44:24.957Z</time></trkpt><trkpt lat="44.5076854" lon="9.9897705"><ele>813.9999999999999</ele><time>2026-04-08T07:44:25.957Z</time></trkpt><trkpt lat="44.5076213" lon="9.9896914"><ele>814.0</ele><time>2026-04-08T07:44:26.958Z</time></trkpt><trkpt lat="44.5075589" lon="9.9896118"><ele>814.0</ele><time>2026-04-08T07:44:27.957Z</time></trkpt><trkpt lat="44.5074984" lon="9.989533"><ele>814.0</ele><time>2026-04-08T07:44:28.957Z</time></trkpt><trkpt lat="44.5074379" lon="9.9894548"><ele>813.9999999999999</ele><time>2026-04-08T07:44:29.957Z</time></trkpt><trkpt lat="44.5073774" lon="9.989378"><ele>814.0</ele><time>2026-04-08T07:44:30.958Z</time></trkpt><trkpt lat="44.5073178" lon="9.9893025"><ele>813.9999999999999</ele><time>2026-04-08T07:44:31.958Z</time></trkpt><trkpt lat="44.5072522" lon="9.9892286"><ele>814.0</ele><time>2026-04-08T07:44:32.958Z</time></trkpt><trkpt lat="44.5071856" lon="9.989154"><ele>814.0</ele><time>2026-04-08T07:44:33.957Z</time></trkpt><trkpt lat="44.5071195" lon="9.9890837"><ele>814.0</ele><time>2026-04-08T07:44:34.957Z</time></trkpt><trkpt lat="44.5070526" lon="9.9890126"><ele>813.9999999999999</ele><time>2026-04-08T07:44:35.957Z</time></trkpt><trkpt lat="44.5069857" lon="9.9889374"><ele>814.0</ele><time>2026-04-08T07:44:36.956Z</time></trkpt><trkpt lat="44.5069162" lon="9.988858"><ele>814.4000000000001</ele><time>2026-04-08T07:44:37.957Z</time></trkpt><trkpt lat="44.5068409" lon="9.9887709"><ele>814.8</ele><time>2026-04-08T07:44:38.957Z</time></trkpt><trkpt lat="44.5067674" lon="9.9886722"><ele>815.2</ele><time>2026-04-08T07:44:39.957Z</time></trkpt><trkpt lat="44.5066967" lon="9.9885576"><ele>815.5999999999999</ele><time>2026-04-08T07:44:40.957Z</time></trkpt><trkpt lat="44.50663" lon="9.9884332"><ele>816.0</ele><time>2026-04-08T07:44:41.957Z</time></trkpt><trkpt lat="44.5065692" lon="9.9883014"><ele>816.0</ele><time>2026-04-08T07:44:42.958Z</time></trkpt><trkpt lat="44.5065175" lon="9.9881644"><ele>816.0</ele><time>2026-04-08T07:44:43.956Z</time></trkpt><trkpt lat="44.5064724" lon="9.9880205"><ele>816.0</ele><time>2026-04-08T07:44:44.958Z</time></trkpt><trkpt lat="44.5064325" lon="9.9878738"><ele>816.0</ele><time>2026-04-08T07:44:45.958Z</time></trkpt><trkpt lat="44.5063949" lon="9.9877229"><ele>816.0</ele><time>2026-04-08T07:44:46.957Z</time></trkpt><trkpt lat="44.5063595" lon="9.9875696"><ele>815.4</ele><time>2026-04-08T07:44:47.957Z</time></trkpt><trkpt lat="44.5063236" lon="9.9874217"><ele>814.8</ele><time>2026-04-08T07:44:48.957Z</time></trkpt><trkpt lat="44.506287" lon="9.9872773"><ele>814.1999999999999</ele><time>2026-04-08T07:44:49.957Z</time></trkpt><trkpt lat="44.506252" lon="9.9871318"><ele>813.5999999999999</ele><time>2026-04-08T07:44:50.958Z</time></trkpt><trkpt lat="44.5062148" lon="9.9869745"><ele>813.0</ele><time>2026-04-08T07:44:51.957Z</time></trkpt><trkpt lat="44.5061778" lon="9.9868201"><ele>811.8</ele><time>2026-04-08T07:44:52.957Z</time></trkpt><trkpt lat="44.5061422" lon="9.9866656"><ele>810.5999999999999</ele><time>2026-04-08T07:44:53.957Z</time></trkpt><trkpt lat="44.5061082" lon="9.9865186"><ele>809.4000000000001</ele><time>2026-04-08T07:44:54.958Z</time></trkpt><trkpt lat="44.5060729" lon="9.9863785"><ele>808.2</ele><time>2026-04-08T07:44:55.958Z</time></trkpt><trkpt lat="44.5060347" lon="9.9862354"><ele>807.0</ele><time>2026-04-08T07:44:56.957Z</time></trkpt><trkpt lat="44.5059985" lon="9.9860927"><ele>807.0</ele><time>2026-04-08T07:44:57.958Z</time></trkpt><trkpt lat="44.5059635" lon="9.9859506"><ele>807.0</ele><time>2026-04-08T07:44:58.957Z</time></trkpt><trkpt lat="44.5059312" lon="9.9858133"><ele>807.0</ele><time>2026-04-08T07:44:59.957Z</time></trkpt><trkpt lat="44.5058966" lon="9.9856786"><ele>807.0</ele><time>2026-04-08T07:45:00.958Z</time></trkpt><trkpt lat="44.5058653" lon="9.9855472"><ele>807.0</ele><time>2026-04-08T07:45:01.957Z</time></trkpt><trkpt lat="44.5058344" lon="9.9854163"><ele>805.25</ele><time>2026-04-08T07:45:02.957Z</time></trkpt><trkpt lat="44.5057962" lon="9.9852757"><ele>803.5</ele><time>2026-04-08T07:45:03.957Z</time></trkpt><trkpt lat="44.5057497" lon="9.9851287"><ele>801.75</ele><time>2026-04-08T07:45:04.957Z</time></trkpt><trkpt lat="44.5056933" lon="9.984978"><ele>800.0</ele><time>2026-04-08T07:45:05.958Z</time></trkpt><trkpt lat="44.50563" lon="9.9848291"><ele>799.25</ele><time>2026-04-08T07:45:06.958Z</time></trkpt><trkpt lat="44.5055571" lon="9.9846865"><ele>798.5</ele><time>2026-04-08T07:45:07.957Z</time></trkpt><trkpt lat="44.5054807" lon="9.9845562"><ele>797.75</ele><time>2026-04-08T07:45:08.957Z</time></trkpt><trkpt lat="44.5054015" lon="9.9844299"><ele>797.0</ele><time>2026-04-08T07:45:09.957Z</time></trkpt><trkpt lat="44.5053226" lon="9.9843066"><ele>797.0</ele><time>2026-04-08T07:45:10.958Z</time></trkpt><trkpt lat="44.505242" lon="9.9841858"><ele>797.0</ele><time>2026-04-08T07:45:11.958Z</time></trkpt><trkpt lat="44.5051644" lon="9.9840665"><ele>797.0</ele><time>2026-04-08T07:45:12.957Z</time></trkpt><trkpt lat="44.5050892" lon="9.9839499"><ele>797.0</ele><time>2026-04-08T07:45:13.957Z</time></trkpt><trkpt lat="44.5050134" lon="9.9838394"><ele>795.4000000000001</ele><time>2026-04-08T07:45:14.957Z</time></trkpt><trkpt lat="44.5049405" lon="9.9837306"><ele>793.8000000000001</ele><time>2026-04-08T07:45:15.958Z</time></trkpt><trkpt lat="44.5048689" lon="9.9836147"><ele>792.2</ele><time>2026-04-08T07:45:16.957Z</time></trkpt><trkpt lat="44.5047961" lon="9.9834963"><ele>790.6</ele><time>2026-04-08T07:45:17.958Z</time></trkpt><trkpt lat="44.5047201" lon="9.9833719"><ele>789.0</ele><time>2026-04-08T07:45:18.958Z</time></trkpt><trkpt lat="44.5046399" lon="9.9832396"><ele>789.0</ele><time>2026-04-08T07:45:19.957Z</time></trkpt><trkpt lat="44.5045586" lon="9.9831023"><ele>789.0</ele><time>2026-04-08T07:45:20.957Z</time></trkpt><trkpt lat="44.5044806" lon="9.9829605"><ele>789.0</ele><time>2026-04-08T07:45:21.958Z</time></trkpt><trkpt lat="44.5044015" lon="9.9828175"><ele>789.0</ele><time>2026-04-08T07:45:22.956Z</time></trkpt><trkpt lat="44.5043256" lon="9.9826725"><ele>789.0</ele><time>2026-04-08T07:45:23.958Z</time></trkpt><trkpt lat="44.5042512" lon="9.9825281"><ele>789.0</ele><time>2026-04-08T07:45:24.957Z</time></trkpt><trkpt lat="44.5041794" lon="9.9823835"><ele>789.0</ele><time>2026-04-08T07:45:25.958Z</time></trkpt><trkpt lat="44.504108" lon="9.9822377"><ele>789.0</ele><time>2026-04-08T07:45:26.958Z</time></trkpt><trkpt lat="44.5040385" lon="9.982086"><ele>787.25</ele><time>2026-04-08T07:45:27.957Z</time></trkpt><trkpt lat="44.5039719" lon="9.9819285"><ele>785.5</ele><time>2026-04-08T07:45:28.957Z</time></trkpt><trkpt lat="44.5039072" lon="9.9817678"><ele>783.75</ele><time>2026-04-08T07:45:29.957Z</time></trkpt><trkpt lat="44.5038451" lon="9.9816054"><ele>782.0</ele><time>2026-04-08T07:45:30.957Z</time></trkpt><trkpt lat="44.5037834" lon="9.981441"><ele>783.5</ele><time>2026-04-08T07:45:31.958Z</time></trkpt><trkpt lat="44.5037234" lon="9.9812775"><ele>785.0</ele><time>2026-04-08T07:45:32.958Z</time></trkpt><trkpt lat="44.5036624" lon="9.9811154"><ele>786.5</ele><time>2026-04-08T07:45:33.957Z</time></trkpt><trkpt lat="44.5036003" lon="9.9809538"><ele>788.0</ele><time>2026-04-08T07:45:34.957Z</time></trkpt><trkpt lat="44.5035418" lon="9.9807917"><ele>788.0</ele><time>2026-04-08T07:45:35.957Z</time></trkpt><trkpt lat="44.5034887" lon="9.9806222"><ele>788.0</ele><time>2026-04-08T07:45:36.957Z</time></trkpt><trkpt lat="44.5034442" lon="9.9804419"><ele>788.0</ele><time>2026-04-08T07:45:37.957Z</time></trkpt><trkpt lat="44.5034061" lon="9.9802541"><ele>788.0</ele><time>2026-04-08T07:45:38.957Z</time></trkpt><trkpt lat="44.5033721" lon="9.9800625"><ele>787.0</ele><time>2026-04-08T07:45:39.957Z</time></trkpt><trkpt lat="44.5033392" lon="9.9798683"><ele>786.0</ele><time>2026-04-08T07:45:40.956Z</time></trkpt><trkpt lat="44.5033083" lon="9.9796704"><ele>785.0</ele><time>2026-04-08T07:45:41.957Z</time></trkpt><trkpt lat="44.5032745" lon="9.9794704"><ele>784.0</ele><time>2026-04-08T07:45:42.957Z</time></trkpt><trkpt lat="44.503231" lon="9.9792613"><ele>780.6666666666666</ele><time>2026-04-08T07:45:43.957Z</time></trkpt><trkpt lat="44.5031676" lon="9.9790387"><ele>777.3333333333333</ele><time>2026-04-08T07:45:44.957Z</time></trkpt><trkpt lat="44.5030896" lon="9.9788246"><ele>774.0</ele><time>2026-04-08T07:45:45.957Z</time></trkpt><trkpt lat="44.5030008" lon="9.9786207"><ele>774.0</ele><time>2026-04-08T07:45:46.957Z</time></trkpt><trkpt lat="44.5029202" lon="9.9784067"><ele>774.0</ele><time>2026-04-08T07:45:47.957Z</time></trkpt><trkpt lat="44.5028598" lon="9.9781826"><ele>774.0</ele><time>2026-04-08T07:45:48.958Z</time></trkpt><trkpt lat="44.5028238" lon="9.9779683"><ele>772.75</ele><time>2026-04-08T07:45:49.957Z</time></trkpt><trkpt lat="44.5027891" lon="9.9777633"><ele>771.5</ele><time>2026-04-08T07:45:50.958Z</time></trkpt><trkpt lat="44.5027162" lon="9.9775885"><ele>770.25</ele><time>2026-04-08T07:45:51.956Z</time></trkpt><trkpt lat="44.5026135" lon="9.9774403"><ele>769.0</ele><time>2026-04-08T07:45:52.958Z</time></trkpt><trkpt lat="44.5025002" lon="9.9773214"><ele>769.0</ele><time>2026-04-08T07:45:53.957Z</time></trkpt><trkpt lat="44.5024078" lon="9.9771952"><ele>769.0</ele><time>2026-04-08T07:45:54.957Z</time></trkpt><trkpt lat="44.5023614" lon="9.9770381"><ele>769.0</ele><time>2026-04-08T07:45:55.957Z</time></trkpt><trkpt lat="44.5023655" lon="9.9768643"><ele>769.0</ele><time>2026-04-08T07:45:56.958Z</time></trkpt><trkpt lat="44.502418" lon="9.9766925"><ele>767.0</ele><time>2026-04-08T07:45:57.957Z</time></trkpt><trkpt lat="44.5025049" lon="9.9765148"><ele>765.0</ele><time>2026-04-08T07:45:58.958Z</time></trkpt><trkpt lat="44.5025991" lon="9.9763156"><ele>763.0</ele><time>2026-04-08T07:45:59.957Z</time></trkpt><trkpt lat="44.502691" lon="9.9761179"><ele>763.0</ele><time>2026-04-08T07:46:00.957Z</time></trkpt><trkpt lat="44.5027813" lon="9.9759242"><ele>763.0</ele><time>2026-04-08T07:46:01.957Z</time></trkpt><trkpt lat="44.5028689" lon="9.9757359"><ele>763.0</ele><time>2026-04-08T07:46:02.958Z</time></trkpt><trkpt lat="44.50296" lon="9.975558"><ele>756.6666666666667</ele><time>2026-04-08T07:46:03.957Z</time></trkpt><trkpt lat="44.503056" lon="9.9753907"><ele>750.3333333333334</ele><time>2026-04-08T07:46:04.958Z</time></trkpt><trkpt lat="44.5031598" lon="9.9752377"><ele>744.0</ele><time>2026-04-08T07:46:05.957Z</time></trkpt><trkpt lat="44.5032725" lon="9.9750984"><ele>747.0</ele><time>2026-04-08T07:46:06.957Z</time></trkpt><trkpt lat="44.5033899" lon="9.9749729"><ele>750.0</ele><time>2026-04-08T07:46:07.957Z</time></trkpt><trkpt lat="44.503507" lon="9.9748558"><ele>753.0</ele><time>2026-04-08T07:46:08.957Z</time></trkpt><trkpt lat="44.5036186" lon="9.9747382"><ele>756.0</ele><time>2026-04-08T07:46:09.957Z</time></trkpt><trkpt lat="44.5037173" lon="9.9746055"><ele>751.25</ele><time>2026-04-08T07:46:10.956Z</time></trkpt><trkpt lat="44.503794" lon="9.9744493"><ele>746.5</ele><time>2026-04-08T07:46:11.957Z</time></trkpt><trkpt lat="44.5038392" lon="9.9742679"><ele>741.75</ele><time>2026-04-08T07:46:12.957Z</time></trkpt><trkpt lat="44.5038508" lon="9.9740648"><ele>737.0</ele><time>2026-04-08T07:46:13.958Z</time></trkpt><trkpt lat="44.5038382" lon="9.9738496"><ele>737.0</ele><time>2026-04-08T07:46:14.957Z</time></trkpt><trkpt lat="44.5038166" lon="9.973632"><ele>737.0</ele><time>2026-04-08T07:46:15.957Z</time></trkpt><trkpt lat="44.5038004" lon="9.9734149"><ele>737.0</ele><time>2026-04-08T07:46:16.957Z</time></trkpt><trkpt lat="44.5037876" lon="9.9731972"><ele>736.3333333333333</ele><time>2026-04-08T07:46:17.955Z</time></trkpt><trkpt lat="44.5037803" lon="9.9729776"><ele>735.6666666666666</ele><time>2026-04-08T07:46:18.957Z</time></trkpt><trkpt lat="44.5037806" lon="9.9727591"><ele>735.0</ele><time>2026-04-08T07:46:19.957Z</time></trkpt><trkpt lat="44.5037846" lon="9.9725473"><ele>733.0</ele><time>2026-04-08T07:46:20.957Z</time></trkpt><trkpt lat="44.5037904" lon="9.9723407"><ele>731.0</ele><time>2026-04-08T07:46:21.958Z</time></trkpt><trkpt lat="44.5037979" lon="9.9721378"><ele>729.0</ele><time>2026-04-08T07:46:22.958Z</time></trkpt><trkpt lat="44.5038025" lon="9.9719402"><ele>727.0</ele><time>2026-04-08T07:46:23.958Z</time></trkpt><trkpt lat="44.5037987" lon="9.9717459"><ele>724.25</ele><time>2026-04-08T07:46:24.957Z</time></trkpt><trkpt lat="44.5037689" lon="9.9715661"><ele>721.5</ele><time>2026-04-08T07:46:25.957Z</time></trkpt><trkpt lat="44.5037005" lon="9.9714174"><ele>718.75</ele><time>2026-04-08T07:46:26.958Z</time></trkpt><trkpt lat="44.5036072" lon="9.9712908"><ele>716.0</ele><time>2026-04-08T07:46:27.956Z</time></trkpt><trkpt lat="44.5035141" lon="9.9711761"><ele>721.25</ele><time>2026-04-08T07:46:28.957Z</time></trkpt><trkpt lat="44.5034536" lon="9.9710241"><ele>726.5</ele><time>2026-04-08T07:46:29.957Z</time></trkpt><trkpt lat="44.5034402" lon="9.970837"><ele>731.75</ele><time>2026-04-08T07:46:30.958Z</time></trkpt><trkpt lat="44.5034784" lon="9.9706554"><ele>737.0</ele><time>2026-04-08T07:46:31.957Z</time></trkpt><trkpt lat="44.5035283" lon="9.9704852"><ele>737.0</ele><time>2026-04-08T07:46:32.958Z</time></trkpt><trkpt lat="44.5035591" lon="9.9703031"><ele>737.0</ele><time>2026-04-08T07:46:33.957Z</time></trkpt><trkpt lat="44.5035795" lon="9.97011"><ele>737.0</ele><time>2026-04-08T07:46:34.957Z</time></trkpt><trkpt lat="44.503589" lon="9.9699086"><ele>737.0</ele><time>2026-04-08T07:46:35.957Z</time></trkpt><trkpt lat="44.5035926" lon="9.9697078"><ele>737.0</ele><time>2026-04-08T07:46:36.957Z</time></trkpt><trkpt lat="44.5035939" lon="9.9695092"><ele>737.0</ele><time>2026-04-08T07:46:37.957Z</time></trkpt><trkpt lat="44.5035992" lon="9.9693075"><ele>737.0</ele><time>2026-04-08T07:46:38.957Z</time></trkpt><trkpt lat="44.5036079" lon="9.9691031"><ele>737.0</ele><time>2026-04-08T07:46:39.956Z</time></trkpt><trkpt lat="44.5036164" lon="9.9689018"><ele>736.75</ele><time>2026-04-08T07:46:40.957Z</time></trkpt><trkpt lat="44.5036254" lon="9.9687041"><ele>736.5</ele><time>2026-04-08T07:46:41.958Z</time></trkpt><trkpt lat="44.5036349" lon="9.9685072"><ele>736.25</ele><time>2026-04-08T07:46:42.957Z</time></trkpt><trkpt lat="44.5036478" lon="9.9683117"><ele>736.0</ele><time>2026-04-08T07:46:43.956Z</time></trkpt><trkpt lat="44.5036592" lon="9.9681122"><ele>734.75</ele><time>2026-04-08T07:46:44.957Z</time></trkpt><trkpt lat="44.5036693" lon="9.9679204"><ele>733.5</ele><time>2026-04-08T07:46:45.956Z</time></trkpt><trkpt lat="44.5036774" lon="9.9677345"><ele>732.25</ele><time>2026-04-08T07:46:46.957Z</time></trkpt><trkpt lat="44.5036833" lon="9.9675517"><ele>731.0</ele><time>2026-04-08T07:46:47.957Z</time></trkpt><trkpt lat="44.5036836" lon="9.967377"><ele>728.25</ele><time>2026-04-08T07:46:48.958Z</time></trkpt><trkpt lat="44.5036656" lon="9.9672174"><ele>725.5</ele><time>2026-04-08T07:46:49.957Z</time></trkpt><trkpt lat="44.5036119" lon="9.967075"><ele>722.75</ele><time>2026-04-08T07:46:50.957Z</time></trkpt><trkpt lat="44.5035347" lon="9.9669641"><ele>720.0</ele><time>2026-04-08T07:46:51.956Z</time></trkpt><trkpt lat="44.5034382" lon="9.9668892"><ele>720.0</ele><time>2026-04-08T07:46:52.958Z</time></trkpt><trkpt lat="44.5033238" lon="9.9668422"><ele>720.0</ele><time>2026-04-08T07:46:53.958Z</time></trkpt><trkpt lat="44.5032077" lon="9.9668043"><ele>720.0</ele><time>2026-04-08T07:46:54.957Z</time></trkpt><trkpt lat="44.503094" lon="9.9667732"><ele>720.0</ele><time>2026-04-08T07:46:55.956Z</time></trkpt><trkpt lat="44.5029798" lon="9.9667828"><ele>720.75</ele><time>2026-04-08T07:46:56.956Z</time></trkpt><trkpt lat="44.5028717" lon="9.9668287"><ele>721.5</ele><time>2026-04-08T07:46:57.957Z</time></trkpt><trkpt lat="44.5027673" lon="9.9668902"><ele>722.25</ele><time>2026-04-08T07:46:58.956Z</time></trkpt><trkpt lat="44.5026617" lon="9.9669459"><ele>723.0</ele><time>2026-04-08T07:46:59.957Z</time></trkpt><trkpt lat="44.5025467" lon="9.9669784"><ele>723.0</ele><time>2026-04-08T07:47:00.956Z</time></trkpt><trkpt lat="44.5024268" lon="9.9669672"><ele>723.0</ele><time>2026-04-08T07:47:01.956Z</time></trkpt><trkpt lat="44.5023102" lon="9.9669173"><ele>723.0</ele><time>2026-04-08T07:47:02.957Z</time></trkpt><trkpt lat="44.5022053" lon="9.9668383"><ele>723.0</ele><time>2026-04-08T07:47:03.957Z</time></trkpt><trkpt lat="44.5021091" lon="9.9667523"><ele>720.2</ele><time>2026-04-08T07:47:04.957Z</time></trkpt><trkpt lat="44.502015" lon="9.9666747"><ele>717.4</ele><time>2026-04-08T07:47:05.957Z</time></trkpt><trkpt lat="44.5019191" lon="9.9666122"><ele>714.6</ele><time>2026-04-08T07:47:06.958Z</time></trkpt><trkpt lat="44.5018194" lon="9.9665591"><ele>711.8000000000001</ele><time>2026-04-08T07:47:07.958Z</time></trkpt><trkpt lat="44.5017172" lon="9.9665239"><ele>709.0</ele><time>2026-04-08T07:47:08.957Z</time></trkpt><trkpt lat="44.5016205" lon="9.9664891"><ele>709.0</ele><time>2026-04-08T07:47:09.958Z</time></trkpt><trkpt lat="44.5015305" lon="9.9664383"><ele>709.0</ele><time>2026-04-08T07:47:10.958Z</time></trkpt><trkpt lat="44.5014577" lon="9.966356"><ele>709.0</ele><time>2026-04-08T07:47:11.957Z</time></trkpt><trkpt lat="44.5014" lon="9.9662523"><ele>709.0</ele><time>2026-04-08T07:47:12.958Z</time></trkpt><trkpt lat="44.5013518" lon="9.9661406"><ele>709.0</ele><time>2026-04-08T07:47:13.957Z</time></trkpt><trkpt lat="44.5012991" lon="9.9660407"><ele>711.6</ele><time>2026-04-08T07:47:14.958Z</time></trkpt><trkpt lat="44.5012296" lon="9.9659778"><ele>714.2</ele><time>2026-04-08T07:47:15.957Z</time></trkpt><trkpt lat="44.5011493" lon="9.9659338"><ele>716.8000000000001</ele><time>2026-04-08T07:47:16.958Z</time></trkpt><trkpt lat="44.5010615" lon="9.965912"><ele>719.4000000000001</ele><time>2026-04-08T07:47:17.957Z</time></trkpt><trkpt lat="44.5009629" lon="9.9659162"><ele>722.0</ele><time>2026-04-08T07:47:18.957Z</time></trkpt><trkpt lat="44.5008595" lon="9.9659416"><ele>722.0</ele><time>2026-04-08T07:47:19.957Z</time></trkpt><trkpt lat="44.5007579" lon="9.9659664"><ele>722.0</ele><time>2026-04-08T07:47:20.957Z</time></trkpt><trkpt lat="44.5006541" lon="9.9659926"><ele>722.0</ele><time>2026-04-08T07:47:21.957Z</time></trkpt><trkpt lat="44.5005464" lon="9.9660201"><ele>722.0</ele><time>2026-04-08T07:47:22.958Z</time></trkpt><trkpt lat="44.5004298" lon="9.9660521"><ele>722.0</ele><time>2026-04-08T07:47:23.958Z</time></trkpt><trkpt lat="44.5003162" lon="9.9660822"><ele>720.0</ele><time>2026-04-08T07:47:24.958Z</time></trkpt><trkpt lat="44.5002047" lon="9.9661091"><ele>718.0</ele><time>2026-04-08T07:47:25.957Z</time></trkpt><trkpt lat="44.5000912" lon="9.9661127"><ele>716.0</ele><time>2026-04-08T07:47:26.956Z</time></trkpt><trkpt lat="44.4999852" lon="9.9660655"><ele>714.0</ele><time>2026-04-08T07:47:27.958Z</time></trkpt><trkpt lat="44.4998995" lon="9.9659707"><ele>712.0</ele><time>2026-04-08T07:47:28.958Z</time></trkpt><trkpt lat="44.4998434" lon="9.9658324"><ele>706.0</ele><time>2026-04-08T07:47:29.957Z</time></trkpt><trkpt lat="44.4998025" lon="9.965656"><ele>700.0</ele><time>2026-04-08T07:47:30.957Z</time></trkpt><trkpt lat="44.4997602" lon="9.9654073"><ele>694.0</ele><time>2026-04-08T07:47:31.957Z</time></trkpt><trkpt lat="44.4997209" lon="9.9651181"><ele>690.6666666666667</ele><time>2026-04-08T07:47:32.958Z</time></trkpt><trkpt lat="44.4996827" lon="9.9648037"><ele>687.3333333333334</ele><time>2026-04-08T07:47:33.958Z</time></trkpt><trkpt lat="44.4996401" lon="9.9645109"><ele>684.0</ele><time>2026-04-08T07:47:34.957Z</time></trkpt><trkpt lat="44.4996031" lon="9.9642373"><ele>682.3333333333334</ele><time>2026-04-08T07:47:35.956Z</time></trkpt><trkpt lat="44.4995962" lon="9.9639712"><ele>680.6666666666667</ele><time>2026-04-08T07:47:36.958Z</time></trkpt><trkpt lat="44.4996192" lon="9.963717"><ele>679.0</ele><time>2026-04-08T07:47:37.957Z</time></trkpt><trkpt lat="44.4996616" lon="9.9634756"><ele>678.3333333333334</ele><time>2026-04-08T07:47:38.956Z</time></trkpt><trkpt lat="44.4997098" lon="9.9632264"><ele>677.6666666666666</ele><time>2026-04-08T07:47:39.957Z</time></trkpt><trkpt lat="44.4997545" lon="9.9629783"><ele>677.0</ele><time>2026-04-08T07:47:40.957Z</time></trkpt><trkpt lat="44.4997973" lon="9.9627375"><ele>677.6666666666666</ele><time>2026-04-08T07:47:41.957Z</time></trkpt><trkpt lat="44.4998428" lon="9.9625035"><ele>678.3333333333334</ele><time>2026-04-08T07:47:42.956Z</time></trkpt><trkpt lat="44.4998944" lon="9.9622777"><ele>679.0</ele><time>2026-04-08T07:47:43.956Z</time></trkpt><trkpt lat="44.499949" lon="9.962055"><ele>679.0</ele><time>2026-04-08T07:47:44.957Z</time></trkpt><trkpt lat="44.4999905" lon="9.9618279"><ele>679.0</ele><time>2026-04-08T07:47:45.956Z</time></trkpt><trkpt lat="44.5000225" lon="9.9616059"><ele>679.0</ele><time>2026-04-08T07:47:46.955Z</time></trkpt><trkpt lat="44.5000544" lon="9.9613921"><ele>680.0</ele><time>2026-04-08T07:47:47.957Z</time></trkpt><trkpt lat="44.5000847" lon="9.9611804"><ele>681.0</ele><time>2026-04-08T07:47:48.956Z</time></trkpt><trkpt lat="44.5001129" lon="9.9609709"><ele>682.0</ele><time>2026-04-08T07:47:49.956Z</time></trkpt><trkpt lat="44.5001462" lon="9.9607618"><ele>684.0</ele><time>2026-04-08T07:47:50.957Z</time></trkpt><trkpt lat="44.5001946" lon="9.9605578"><ele>686.0</ele><time>2026-04-08T07:47:51.956Z</time></trkpt><trkpt lat="44.5002613" lon="9.9603646"><ele>688.0</ele><time>2026-04-08T07:47:52.956Z</time></trkpt><trkpt lat="44.5003305" lon="9.9601718"><ele>689.0</ele><time>2026-04-08T07:47:53.956Z</time></trkpt><trkpt lat="44.5004018" lon="9.9599746"><ele>690.0</ele><time>2026-04-08T07:47:54.957Z</time></trkpt><trkpt lat="44.5004748" lon="9.9597823"><ele>691.0</ele><time>2026-04-08T07:47:55.956Z</time></trkpt><trkpt lat="44.5005635" lon="9.9596065"><ele>685.3333333333334</ele><time>2026-04-08T07:47:56.956Z</time></trkpt><trkpt lat="44.5006865" lon="9.9594517"><ele>679.6666666666666</ele><time>2026-04-08T07:47:57.957Z</time></trkpt><trkpt lat="44.5008352" lon="9.9593255"><ele>674.0</ele><time>2026-04-08T07:47:58.958Z</time></trkpt><trkpt lat="44.5009921" lon="9.9592125"><ele>675.0</ele><time>2026-04-08T07:47:59.955Z</time></trkpt><trkpt lat="44.5011498" lon="9.9590919"><ele>676.0</ele><time>2026-04-08T07:48:00.956Z</time></trkpt><trkpt lat="44.5013052" lon="9.9589553"><ele>677.0</ele><time>2026-04-08T07:48:01.956Z</time></trkpt><trkpt lat="44.5014565" lon="9.9588074"><ele>674.6666666666666</ele><time>2026-04-08T07:48:02.957Z</time></trkpt><trkpt lat="44.5016025" lon="9.9586471"><ele>672.3333333333334</ele><time>2026-04-08T07:48:03.955Z</time></trkpt><trkpt lat="44.5017453" lon="9.9584805"><ele>670.0</ele><time>2026-04-08T07:48:04.955Z</time></trkpt><trkpt lat="44.5018874" lon="9.9583128"><ele>670.0</ele><time>2026-04-08T07:48:05.956Z</time></trkpt><trkpt lat="44.5020232" lon="9.9581498"><ele>670.0</ele><time>2026-04-08T07:48:06.956Z</time></trkpt><trkpt lat="44.5021508" lon="9.9579904"><ele>670.0</ele><time>2026-04-08T07:48:07.957Z</time></trkpt><trkpt lat="44.5022715" lon="9.9578345"><ele>667.6666666666667</ele><time>2026-04-08T07:48:08.957Z</time></trkpt><trkpt lat="44.5023828" lon="9.9576804"><ele>665.3333333333334</ele><time>2026-04-08T07:48:09.957Z</time></trkpt><trkpt lat="44.5024869" lon="9.957527"><ele>663.0</ele><time>2026-04-08T07:48:10.956Z</time></trkpt><trkpt lat="44.5025846" lon="9.9573592"><ele>663.0</ele><time>2026-04-08T07:48:11.956Z</time></trkpt><trkpt lat="44.5026798" lon="9.9571688"><ele>663.0</ele><time>2026-04-08T07:48:12.957Z</time></trkpt><trkpt lat="44.5027812" lon="9.9569792"><ele>663.0</ele><time>2026-04-08T07:48:13.957Z</time></trkpt><trkpt lat="44.5028849" lon="9.956801"><ele>661.5</ele><time>2026-04-08T07:48:14.957Z</time></trkpt><trkpt lat="44.5029855" lon="9.9566353"><ele>660.0</ele><time>2026-04-08T07:48:15.957Z</time></trkpt><trkpt lat="44.5030832" lon="9.9564794"><ele>658.5</ele><time>2026-04-08T07:48:16.956Z</time></trkpt><trkpt lat="44.5031796" lon="9.9563325"><ele>657.0</ele><time>2026-04-08T07:48:17.958Z</time></trkpt><trkpt lat="44.5032745" lon="9.9561939"><ele>657.0</ele><time>2026-04-08T07:48:18.956Z</time></trkpt><trkpt lat="44.5033674" lon="9.9560583"><ele>657.0</ele><time>2026-04-08T07:48:19.957Z</time></trkpt><trkpt lat="44.5034645" lon="9.9559225"><ele>657.0</ele><time>2026-04-08T07:48:20.956Z</time></trkpt><trkpt lat="44.5035836" lon="9.9558078"><ele>657.0</ele><time>2026-04-08T07:48:21.957Z</time></trkpt><trkpt lat="44.5037224" lon="9.9557471"><ele>656.0</ele><time>2026-04-08T07:48:22.957Z</time></trkpt><trkpt lat="44.5038693" lon="9.9557558"><ele>655.0</ele><time>2026-04-08T07:48:23.956Z</time></trkpt><trkpt lat="44.5040175" lon="9.9558013"><ele>654.0</ele><time>2026-04-08T07:48:24.957Z</time></trkpt><trkpt lat="44.5041633" lon="9.9558521"><ele>653.0</ele><time>2026-04-08T07:48:25.956Z</time></trkpt><trkpt lat="44.5043072" lon="9.9559068"><ele>652.0</ele><time>2026-04-08T07:48:26.956Z</time></trkpt><trkpt lat="44.5044511" lon="9.9559596"><ele>651.0</ele><time>2026-04-08T07:48:27.956Z</time></trkpt><trkpt lat="44.5045931" lon="9.9560103"><ele>650.0</ele><time>2026-04-08T07:48:28.955Z</time></trkpt><trkpt lat="44.5047318" lon="9.9560585"><ele>649.0</ele><time>2026-04-08T07:48:29.956Z</time></trkpt><trkpt lat="44.5048692" lon="9.9561042"><ele>648.25</ele><time>2026-04-08T07:48:30.956Z</time></trkpt><trkpt lat="44.505004" lon="9.9561293"><ele>647.5</ele><time>2026-04-08T07:48:31.955Z</time></trkpt><trkpt lat="44.5051363" lon="9.9561142"><ele>646.75</ele><time>2026-04-08T07:48:32.957Z</time></trkpt><trkpt lat="44.5052595" lon="9.9560479"><ele>646.0</ele><time>2026-04-08T07:48:33.955Z</time></trkpt><trkpt lat="44.50537" lon="9.9559324"><ele>643.5</ele><time>2026-04-08T07:48:34.956Z</time></trkpt><trkpt lat="44.5054557" lon="9.9557755"><ele>641.0</ele><time>2026-04-08T07:48:35.956Z</time></trkpt><trkpt lat="44.5055117" lon="9.9555808"><ele>638.5</ele><time>2026-04-08T07:48:36.956Z</time></trkpt><trkpt lat="44.5055535" lon="9.9553731"><ele>636.0</ele><time>2026-04-08T07:48:37.957Z</time></trkpt><trkpt lat="44.5055903" lon="9.9551537"><ele>636.0</ele><time>2026-04-08T07:48:38.955Z</time></trkpt><trkpt lat="44.5056273" lon="9.9549339"><ele>636.0</ele><time>2026-04-08T07:48:39.957Z</time></trkpt><trkpt lat="44.5056621" lon="9.9547206"><ele>636.0</ele><time>2026-04-08T07:48:40.956Z</time></trkpt><trkpt lat="44.5056975" lon="9.9545167"><ele>636.0</ele><time>2026-04-08T07:48:41.955Z</time></trkpt><trkpt lat="44.5057299" lon="9.9543199"><ele>636.0</ele><time>2026-04-08T07:48:42.956Z</time></trkpt><trkpt lat="44.5057652" lon="9.9541294"><ele>636.0</ele><time>2026-04-08T07:48:43.956Z</time></trkpt><trkpt lat="44.5058093" lon="9.9539505"><ele>636.0</ele><time>2026-04-08T07:48:44.955Z</time></trkpt><trkpt lat="44.5058617" lon="9.9537816"><ele>636.75</ele><time>2026-04-08T07:48:45.955Z</time></trkpt><trkpt lat="44.505924" lon="9.9536224"><ele>637.5</ele><time>2026-04-08T07:48:46.957Z</time></trkpt><trkpt lat="44.5059904" lon="9.9534735"><ele>638.25</ele><time>2026-04-08T07:48:47.954Z</time></trkpt><trkpt lat="44.5060672" lon="9.9533418"><ele>639.0</ele><time>2026-04-08T07:48:48.956Z</time></trkpt><trkpt lat="44.506157" lon="9.9532416"><ele>636.2</ele><time>2026-04-08T07:48:49.955Z</time></trkpt><trkpt lat="44.5062608" lon="9.9531723"><ele>633.4</ele><time>2026-04-08T07:48:50.955Z</time></trkpt><trkpt lat="44.5063675" lon="9.9531229"><ele>630.6</ele><time>2026-04-08T07:48:51.956Z</time></trkpt><trkpt lat="44.5064758" lon="9.9530845"><ele>627.8</ele><time>2026-04-08T07:48:52.956Z</time></trkpt><trkpt lat="44.5065823" lon="9.9530531"><ele>625.0</ele><time>2026-04-08T07:48:53.956Z</time></trkpt><trkpt lat="44.5066853" lon="9.9530189"><ele>625.0</ele><time>2026-04-08T07:48:54.956Z</time></trkpt><trkpt lat="44.5067823" lon="9.9529805"><ele>625.0</ele><time>2026-04-08T07:48:55.956Z</time></trkpt><trkpt lat="44.5068675" lon="9.9529351"><ele>625.0</ele><time>2026-04-08T07:48:56.955Z</time></trkpt><trkpt lat="44.5069424" lon="9.9528919"><ele>625.0</ele><time>2026-04-08T07:48:57.956Z</time></trkpt><trkpt lat="44.5070063" lon="9.9528466"><ele>625.0</ele><time>2026-04-08T07:48:58.957Z</time></trkpt><trkpt lat="44.5070595" lon="9.9527959"><ele>625.0</ele><time>2026-04-08T07:48:59.955Z</time></trkpt><trkpt lat="44.5071184" lon="9.9527008"><ele>623.4</ele><time>2026-04-08T07:49:01.956Z</time></trkpt><trkpt lat="44.5071349" lon="9.9525667"><ele>621.8</ele><time>2026-04-08T07:49:46.943Z</time></trkpt><trkpt lat="44.507148" lon="9.9524218"><ele>620.2</ele><time>2026-04-08T07:49:48.943Z</time></trkpt><trkpt lat="44.5071638" lon="9.9522711"><ele>618.6</ele><time>2026-04-08T07:49:50.943Z</time></trkpt><trkpt lat="44.5071813" lon="9.9521365"><ele>617.0</ele><time>2026-04-08T07:49:52.943Z</time></trkpt><trkpt lat="44.5071915" lon="9.9520422"><ele>617.0</ele><time>2026-04-08T07:49:54.944Z</time></trkpt><trkpt lat="44.5072094" lon="9.9519293"><ele>617.0</ele><time>2026-04-08T07:51:38.943Z</time></trkpt><trkpt lat="44.5072274" lon="9.9517479"><ele>617.0</ele><time>2026-04-08T07:51:40.943Z</time></trkpt><trkpt lat="44.5072406" lon="9.951653"><ele>617.0</ele><time>2026-04-08T07:51:41.943Z</time></trkpt><trkpt lat="44.5072546" lon="9.9515472"><ele>617.0</ele><time>2026-04-08T07:51:42.943Z</time></trkpt><trkpt lat="44.5072707" lon="9.9514342"><ele>617.0</ele><time>2026-04-08T07:51:43.944Z</time></trkpt><trkpt lat="44.5072883" lon="9.9513178"><ele>617.3333333333333</ele><time>2026-04-08T07:51:44.943Z</time></trkpt><trkpt lat="44.5073059" lon="9.9512006"><ele>617.6666666666666</ele><time>2026-04-08T07:51:45.944Z</time></trkpt><trkpt lat="44.5073251" lon="9.9510772"><ele>618.0</ele><time>2026-04-08T07:51:46.944Z</time></trkpt><trkpt lat="44.5073447" lon="9.9509541"><ele>618.3333333333334</ele><time>2026-04-08T07:51:47.943Z</time></trkpt><trkpt lat="44.5073756" lon="9.9508452"><ele>618.6666666666667</ele><time>2026-04-08T07:51:48.943Z</time></trkpt><trkpt lat="44.5074211" lon="9.9507463"><ele>619.0</ele><time>2026-04-08T07:51:49.943Z</time></trkpt><trkpt lat="44.5074966" lon="9.950672"><ele>619.4</ele><time>2026-04-08T07:51:50.943Z</time></trkpt><trkpt lat="44.5075839" lon="9.9506231"><ele>619.8</ele><time>2026-04-08T07:51:51.944Z</time></trkpt><trkpt lat="44.507685" lon="9.9506199"><ele>620.2</ele><time>2026-04-08T07:51:52.944Z</time></trkpt><trkpt lat="44.5077841" lon="9.9506639"><ele>620.6</ele><time>2026-04-08T07:51:53.943Z</time></trkpt><trkpt lat="44.5078685" lon="9.9507575"><ele>621.0</ele><time>2026-04-08T07:51:54.944Z</time></trkpt><trkpt lat="44.5079263" lon="9.9508876"><ele>616.75</ele><time>2026-04-08T07:51:55.944Z</time></trkpt><trkpt lat="44.5079507" lon="9.9510415"><ele>612.5</ele><time>2026-04-08T07:51:56.943Z</time></trkpt><trkpt lat="44.5079607" lon="9.9512046"><ele>608.25</ele><time>2026-04-08T07:51:57.943Z</time></trkpt><trkpt lat="44.5079736" lon="9.9513725"><ele>604.0</ele><time>2026-04-08T07:51:58.943Z</time></trkpt><trkpt lat="44.5079866" lon="9.9515475"><ele>602.25</ele><time>2026-04-08T07:51:59.943Z</time></trkpt><trkpt lat="44.5079984" lon="9.9517422"><ele>600.5</ele><time>2026-04-08T07:52:00.943Z</time></trkpt><trkpt lat="44.5080118" lon="9.9519515"><ele>598.75</ele><time>2026-04-08T07:52:01.943Z</time></trkpt><trkpt lat="44.5080271" lon="9.9521723"><ele>597.0</ele><time>2026-04-08T07:52:02.943Z</time></trkpt><trkpt lat="44.508042" lon="9.9524003"><ele>596.3333333333334</ele><time>2026-04-08T07:52:03.943Z</time></trkpt><trkpt lat="44.5080568" lon="9.9526347"><ele>595.6666666666667</ele><time>2026-04-08T07:52:04.944Z</time></trkpt><trkpt lat="44.5080726" lon="9.9528794"><ele>595.0</ele><time>2026-04-08T07:52:05.944Z</time></trkpt><trkpt lat="44.5080898" lon="9.9531322"><ele>594.6666666666667</ele><time>2026-04-08T07:52:06.944Z</time></trkpt><trkpt lat="44.5081076" lon="9.953393"><ele>594.3333333333334</ele><time>2026-04-08T07:52:07.944Z</time></trkpt><trkpt lat="44.5081262" lon="9.9536601"><ele>594.0</ele><time>2026-04-08T07:52:08.944Z</time></trkpt><trkpt lat="44.5081476" lon="9.9539322"><ele>593.6666666666666</ele><time>2026-04-08T07:52:09.943Z</time></trkpt><trkpt lat="44.5081774" lon="9.9542081"><ele>593.3333333333333</ele><time>2026-04-08T07:52:10.943Z</time></trkpt><trkpt lat="44.5082182" lon="9.9544849"><ele>593.0</ele><time>2026-04-08T07:52:11.943Z</time></trkpt><trkpt lat="44.5082764" lon="9.9547613"><ele>592.3333333333333</ele><time>2026-04-08T07:52:12.943Z</time></trkpt><trkpt lat="44.5083463" lon="9.9550386"><ele>591.6666666666666</ele><time>2026-04-08T07:52:13.944Z</time></trkpt><trkpt lat="44.5084298" lon="9.9553154"><ele>591.0</ele><time>2026-04-08T07:52:14.943Z</time></trkpt><trkpt lat="44.5085281" lon="9.9555886"><ele>591.0</ele><time>2026-04-08T07:52:15.943Z</time></trkpt><trkpt lat="44.5086446" lon="9.9558551"><ele>591.0</ele><time>2026-04-08T07:52:16.943Z</time></trkpt><trkpt lat="44.5087785" lon="9.9561089"><ele>591.0</ele><time>2026-04-08T07:52:17.944Z</time></trkpt><trkpt lat="44.5089276" lon="9.9563493"><ele>585.5</ele><time>2026-04-08T07:52:18.943Z</time></trkpt><trkpt lat="44.5090849" lon="9.9565805"><ele>580.0</ele><time>2026-04-08T07:52:19.944Z</time></trkpt><trkpt lat="44.5092477" lon="9.9568015"><ele>571.5</ele><time>2026-04-08T07:52:20.943Z</time></trkpt><trkpt lat="44.5094196" lon="9.9570093"><ele>563.0</ele><time>2026-04-08T07:52:21.943Z</time></trkpt><trkpt lat="44.5095938" lon="9.9572139"><ele>561.0</ele><time>2026-04-08T07:52:22.943Z</time></trkpt><trkpt lat="44.509766" lon="9.9574199"><ele>559.0</ele><time>2026-04-08T07:52:23.944Z</time></trkpt><trkpt lat="44.5099374" lon="9.9576286"><ele>565.0</ele><time>2026-04-08T07:52:24.943Z</time></trkpt><trkpt lat="44.5101085" lon="9.9578372"><ele>571.0</ele><time>2026-04-08T07:52:25.944Z</time></trkpt><trkpt lat="44.5102812" lon="9.9580454"><ele>570.5</ele><time>2026-04-08T07:52:26.944Z</time></trkpt><trkpt lat="44.5104551" lon="9.958251"><ele>570.0</ele><time>2026-04-08T07:52:27.943Z</time></trkpt><trkpt lat="44.5106252" lon="9.9584533"><ele>572.3333333333334</ele><time>2026-04-08T07:52:28.944Z</time></trkpt><trkpt lat="44.5107916" lon="9.9586481"><ele>574.6666666666667</ele><time>2026-04-08T07:52:29.944Z</time></trkpt><trkpt lat="44.5109583" lon="9.9588439"><ele>577.0</ele><time>2026-04-08T07:52:30.944Z</time></trkpt><trkpt lat="44.511125" lon="9.9590433"><ele>577.5</ele><time>2026-04-08T07:52:31.944Z</time></trkpt><trkpt lat="44.5112982" lon="9.9592502"><ele>578.0</ele><time>2026-04-08T07:52:32.943Z</time></trkpt><trkpt lat="44.5114761" lon="9.959461"><ele>578.0</ele><time>2026-04-08T07:52:33.943Z</time></trkpt><trkpt lat="44.5116526" lon="9.959674"><ele>578.0</ele><time>2026-04-08T07:52:34.944Z</time></trkpt><trkpt lat="44.5118261" lon="9.9598868"><ele>575.5</ele><time>2026-04-08T07:52:35.943Z</time></trkpt><trkpt lat="44.5120007" lon="9.9600939"><ele>573.0</ele><time>2026-04-08T07:52:36.944Z</time></trkpt><trkpt lat="44.5121728" lon="9.9603002"><ele>573.0</ele><time>2026-04-08T07:52:37.944Z</time></trkpt><trkpt lat="44.5123394" lon="9.9605065"><ele>573.0</ele><time>2026-04-08T07:52:38.943Z</time></trkpt><trkpt lat="44.5125036" lon="9.960708"><ele>573.0</ele><time>2026-04-08T07:52:39.943Z</time></trkpt><trkpt lat="44.5126608" lon="9.9609024"><ele>572.6666666666666</ele><time>2026-04-08T07:52:40.943Z</time></trkpt><trkpt lat="44.5128179" lon="9.9610934"><ele>572.3333333333333</ele><time>2026-04-08T07:52:41.943Z</time></trkpt><trkpt lat="44.5129772" lon="9.961288"><ele>572.0</ele><time>2026-04-08T07:52:42.943Z</time></trkpt><trkpt lat="44.5131386" lon="9.9614862"><ele>566.3333333333333</ele><time>2026-04-08T07:52:43.944Z</time></trkpt><trkpt lat="44.5133018" lon="9.9616859"><ele>560.6666666666666</ele><time>2026-04-08T07:52:44.943Z</time></trkpt><trkpt lat="44.5134566" lon="9.9618786"><ele>555.0</ele><time>2026-04-08T07:52:45.944Z</time></trkpt><trkpt lat="44.513617" lon="9.9620746"><ele>556.6666666666666</ele><time>2026-04-08T07:52:46.944Z</time></trkpt><trkpt lat="44.5137804" lon="9.9622742"><ele>558.3333333333333</ele><time>2026-04-08T07:52:47.944Z</time></trkpt><trkpt lat="44.5139472" lon="9.9624772"><ele>560.0</ele><time>2026-04-08T07:52:48.943Z</time></trkpt><trkpt lat="44.5141197" lon="9.9626808"><ele>562.0</ele><time>2026-04-08T07:52:49.943Z</time></trkpt><trkpt lat="44.5142953" lon="9.9628782"><ele>564.0</ele><time>2026-04-08T07:52:50.943Z</time></trkpt><trkpt lat="44.5144797" lon="9.9630645"><ele>561.5</ele><time>2026-04-08T07:52:51.943Z</time></trkpt><trkpt lat="44.5146785" lon="9.9632242"><ele>559.0</ele><time>2026-04-08T07:52:52.944Z</time></trkpt><trkpt lat="44.5148938" lon="9.9633586"><ele>560.0</ele><time>2026-04-08T07:52:53.943Z</time></trkpt><trkpt lat="44.5151191" lon="9.963466"><ele>561.0</ele><time>2026-04-08T07:52:54.943Z</time></trkpt><trkpt lat="44.5153535" lon="9.9635491"><ele>555.5</ele><time>2026-04-08T07:52:55.944Z</time></trkpt><trkpt lat="44.5155948" lon="9.9636002"><ele>550.0</ele><time>2026-04-08T07:52:56.944Z</time></trkpt><trkpt lat="44.5158383" lon="9.9636159"><ele>550.0</ele><time>2026-04-08T07:52:57.943Z</time></trkpt><trkpt lat="44.516087" lon="9.9635955"><ele>550.0</ele><time>2026-04-08T07:52:58.943Z</time></trkpt><trkpt lat="44.5163353" lon="9.963542"><ele>538.5</ele><time>2026-04-08T07:52:59.943Z</time></trkpt><trkpt lat="44.5165811" lon="9.9634497"><ele>527.0</ele><time>2026-04-08T07:53:00.944Z</time></trkpt><trkpt lat="44.5168208" lon="9.963312"><ele>527.0</ele><time>2026-04-08T07:53:01.943Z</time></trkpt><trkpt lat="44.5170473" lon="9.9631378"><ele>527.0</ele><time>2026-04-08T07:53:02.944Z</time></trkpt><trkpt lat="44.5172621" lon="9.9629303"><ele>525.5</ele><time>2026-04-08T07:53:03.943Z</time></trkpt><trkpt lat="44.517462" lon="9.9626922"><ele>524.0</ele><time>2026-04-08T07:53:04.943Z</time></trkpt><trkpt lat="44.5176463" lon="9.9624268"><ele>527.0</ele><time>2026-04-08T07:53:05.943Z</time></trkpt><trkpt lat="44.5178196" lon="9.962137"><ele>530.0</ele><time>2026-04-08T07:53:06.943Z</time></trkpt><trkpt lat="44.5179941" lon="9.9618341"><ele>534.5</ele><time>2026-04-08T07:53:07.943Z</time></trkpt><trkpt lat="44.5181751" lon="9.9615245"><ele>539.0</ele><time>2026-04-08T07:53:08.944Z</time></trkpt><trkpt lat="44.5183591" lon="9.9612137"><ele>539.0</ele><time>2026-04-08T07:53:09.943Z</time></trkpt><trkpt lat="44.5185449" lon="9.9608978"><ele>539.0</ele><time>2026-04-08T07:53:10.943Z</time></trkpt><trkpt lat="44.5187332" lon="9.9605789"><ele>540.0</ele><time>2026-04-08T07:53:11.944Z</time></trkpt><trkpt lat="44.5189256" lon="9.9602596"><ele>541.0</ele><time>2026-04-08T07:53:12.943Z</time></trkpt><trkpt lat="44.5191165" lon="9.9599402"><ele>541.0</ele><time>2026-04-08T07:53:13.943Z</time></trkpt><trkpt lat="44.5193043" lon="9.959619"><ele>541.0</ele><time>2026-04-08T07:53:14.943Z</time></trkpt><trkpt lat="44.519487" lon="9.9593025"><ele>543.0</ele><time>2026-04-08T07:53:15.944Z</time></trkpt><trkpt lat="44.5196624" lon="9.9589986"><ele>545.0</ele><time>2026-04-08T07:53:16.944Z</time></trkpt><trkpt lat="44.5198254" lon="9.9586872"><ele>539.0</ele><time>2026-04-08T07:53:17.943Z</time></trkpt><trkpt lat="44.5199602" lon="9.9583586"><ele>533.0</ele><time>2026-04-08T07:53:18.943Z</time></trkpt><trkpt lat="44.5200746" lon="9.9580143"><ele>533.0</ele><time>2026-04-08T07:53:19.944Z</time></trkpt><trkpt lat="44.5201735" lon="9.9576647"><ele>533.0</ele><time>2026-04-08T07:53:20.943Z</time></trkpt><trkpt lat="44.5202805" lon="9.9573152"><ele>533.0</ele><time>2026-04-08T07:53:21.944Z</time></trkpt><trkpt lat="44.5204149" lon="9.9569832"><ele>533.0</ele><time>2026-04-08T07:53:22.943Z</time></trkpt><trkpt lat="44.5205779" lon="9.956676"><ele>533.0</ele><time>2026-04-08T07:53:23.943Z</time></trkpt><trkpt lat="44.5207719" lon="9.9564065"><ele>533.0</ele><time>2026-04-08T07:53:24.943Z</time></trkpt><trkpt lat="44.5209939" lon="9.9561836"><ele>537.5</ele><time>2026-04-08T07:53:25.943Z</time></trkpt><trkpt lat="44.5212375" lon="9.9560124"><ele>542.0</ele><time>2026-04-08T07:53:26.944Z</time></trkpt><trkpt lat="44.5214961" lon="9.9558903"><ele>532.0</ele><time>2026-04-08T07:53:27.944Z</time></trkpt><trkpt lat="44.521764" lon="9.9558136"><ele>522.0</ele><time>2026-04-08T07:53:28.943Z</time></trkpt><trkpt lat="44.5220385" lon="9.9557887"><ele>519.0</ele><time>2026-04-08T07:53:29.943Z</time></trkpt><trkpt lat="44.5223123" lon="9.9558228"><ele>516.0</ele><time>2026-04-08T07:53:30.943Z</time></trkpt><trkpt lat="44.5225777" lon="9.9559184"><ele>518.5</ele><time>2026-04-08T07:53:31.943Z</time></trkpt><trkpt lat="44.5228382" lon="9.9560503"><ele>521.0</ele><time>2026-04-08T07:53:32.944Z</time></trkpt><trkpt lat="44.5230961" lon="9.9561905"><ele>521.0</ele><time>2026-04-08T07:53:33.944Z</time></trkpt><trkpt lat="44.5233563" lon="9.9563227"><ele>521.0</ele><time>2026-04-08T07:53:34.943Z</time></trkpt><trkpt lat="44.523619" lon="9.9564416"><ele>516.5</ele><time>2026-04-08T07:53:35.943Z</time></trkpt><trkpt lat="44.5238881" lon="9.9565323"><ele>512.0</ele><time>2026-04-08T07:53:36.943Z</time></trkpt><trkpt lat="44.5241634" lon="9.9565901"><ele>512.0</ele><time>2026-04-08T07:53:37.944Z</time></trkpt><trkpt lat="44.5244447" lon="9.9566136"><ele>512.0</ele><time>2026-04-08T07:53:38.943Z</time></trkpt><trkpt lat="44.5247316" lon="9.9566185"><ele>517.0</ele><time>2026-04-08T07:53:39.943Z</time></trkpt><trkpt lat="44.5250216" lon="9.9566249"><ele>522.0</ele><time>2026-04-08T07:53:40.943Z</time></trkpt><trkpt lat="44.5253114" lon="9.9566308"><ele>523.0</ele><time>2026-04-08T07:53:41.943Z</time></trkpt><trkpt lat="44.5256013" lon="9.9566363"><ele>524.0</ele><time>2026-04-08T07:53:42.943Z</time></trkpt><trkpt lat="44.52652" lon="9.9565915"><ele>512.5</ele><time>2026-04-08T07:53:45.943Z</time></trkpt><trkpt lat="44.5268104" lon="9.9565942"><ele>501.0</ele><time>2026-04-08T07:53:46.943Z</time></trkpt><trkpt lat="44.5271013" lon="9.9566142"><ele>493.0</ele><time>2026-04-08T07:53:47.943Z</time></trkpt><trkpt lat="44.5273955" lon="9.9566535"><ele>485.0</ele><time>2026-04-08T07:53:48.943Z</time></trkpt><trkpt lat="44.5276893" lon="9.9567067"><ele>468.5</ele><time>2026-04-08T07:53:49.943Z</time></trkpt><trkpt lat="44.5279841" lon="9.9567736"><ele>452.0</ele><time>2026-04-08T07:53:50.943Z</time></trkpt><trkpt lat="44.5282778" lon="9.9568541"><ele>452.0</ele><time>2026-04-08T07:53:51.943Z</time></trkpt><trkpt lat="44.5285741" lon="9.9569424"><ele>452.0</ele><time>2026-04-08T07:53:52.944Z</time></trkpt><trkpt lat="44.5288766" lon="9.9570254"><ele>438.5</ele><time>2026-04-08T07:53:53.943Z</time></trkpt><trkpt lat="44.5291879" lon="9.9570957"><ele>425.0</ele><time>2026-04-08T07:53:54.943Z</time></trkpt><trkpt lat="44.5294995" lon="9.957145"><ele>426.5</ele><time>2026-04-08T07:53:55.943Z</time></trkpt><trkpt lat="44.52981" lon="9.9571551"><ele>428.0</ele><time>2026-04-08T07:53:56.944Z</time></trkpt><trkpt lat="44.5301236" lon="9.9571283"><ele>447.5</ele><time>2026-04-08T07:53:57.944Z</time></trkpt><trkpt lat="44.5304394" lon="9.9570614"><ele>467.0</ele><time>2026-04-08T07:53:58.943Z</time></trkpt><trkpt lat="44.5307514" lon="9.9569525"><ele>467.0</ele><time>2026-04-08T07:53:59.943Z</time></trkpt><trkpt lat="44.5310592" lon="9.9568087"><ele>467.0</ele><time>2026-04-08T07:54:00.943Z</time></trkpt><trkpt lat="44.5313588" lon="9.9566273"><ele>477.0</ele><time>2026-04-08T07:54:01.944Z</time></trkpt><trkpt lat="44.5316495" lon="9.9564039"><ele>487.0</ele><time>2026-04-08T07:54:02.944Z</time></trkpt><trkpt lat="44.5319271" lon="9.9561409"><ele>493.0</ele><time>2026-04-08T07:54:03.943Z</time></trkpt><trkpt lat="44.5321846" lon="9.9558406"><ele>499.0</ele><time>2026-04-08T07:54:04.943Z</time></trkpt><trkpt lat="44.5324192" lon="9.9555067"><ele>499.0</ele><time>2026-04-08T07:54:05.943Z</time></trkpt><trkpt lat="44.5326248" lon="9.9551537"><ele>499.0</ele><time>2026-04-08T07:54:06.943Z</time></trkpt><trkpt lat="44.5328022" lon="9.9547929"><ele>504.5</ele><time>2026-04-08T07:54:07.943Z</time></trkpt><trkpt lat="44.5329691" lon="9.9544427"><ele>510.0</ele><time>2026-04-08T07:54:08.943Z</time></trkpt><trkpt lat="44.5331437" lon="9.9541301"><ele>499.0</ele><time>2026-04-08T07:54:09.943Z</time></trkpt><trkpt lat="44.5333388" lon="9.9538632"><ele>488.0</ele><time>2026-04-08T07:54:10.944Z</time></trkpt><trkpt lat="44.5335576" lon="9.9536419"><ele>482.5</ele><time>2026-04-08T07:54:11.944Z</time></trkpt><trkpt lat="44.5337892" lon="9.9534567"><ele>477.0</ele><time>2026-04-08T07:54:12.943Z</time></trkpt><trkpt lat="44.5340288" lon="9.9532891"><ele>477.0</ele><time>2026-04-08T07:54:13.943Z</time></trkpt><trkpt lat="44.5342677" lon="9.9531145"><ele>477.0</ele><time>2026-04-08T07:54:14.943Z</time></trkpt><trkpt lat="44.534507" lon="9.9529369"><ele>481.5</ele><time>2026-04-08T07:54:15.943Z</time></trkpt><trkpt lat="44.534748" lon="9.9527616"><ele>486.0</ele><time>2026-04-08T07:54:16.943Z</time></trkpt><trkpt lat="44.5349929" lon="9.9525899"><ele>483.5</ele><time>2026-04-08T07:54:17.944Z</time></trkpt><trkpt lat="44.5352345" lon="9.952419"><ele>481.0</ele><time>2026-04-08T07:54:18.943Z</time></trkpt><trkpt lat="44.5354779" lon="9.9522459"><ele>487.5</ele><time>2026-04-08T07:54:19.943Z</time></trkpt><trkpt lat="44.5357209" lon="9.9520733"><ele>494.0</ele><time>2026-04-08T07:54:20.944Z</time></trkpt><trkpt lat="44.5382693" lon="9.950198"><ele>479.0</ele><time>2026-04-08T07:54:31.944Z</time></trkpt><trkpt lat="44.5384575" lon="9.9500118"><ele>464.0</ele><time>2026-04-08T07:54:32.944Z</time></trkpt><trkpt lat="44.5386768" lon="9.9498448"><ele>467.5</ele><time>2026-04-08T07:54:33.943Z</time></trkpt><trkpt lat="44.5388975" lon="9.9496857"><ele>471.0</ele><time>2026-04-08T07:54:34.944Z</time></trkpt><trkpt lat="44.5391104" lon="9.949529"><ele>471.0</ele><time>2026-04-08T07:54:35.943Z</time></trkpt><trkpt lat="44.5393228" lon="9.9493824"><ele>471.0</ele><time>2026-04-08T07:54:36.943Z</time></trkpt><trkpt lat="44.5395346" lon="9.9492558"><ele>466.0</ele><time>2026-04-08T07:54:37.943Z</time></trkpt><trkpt lat="44.5397494" lon="9.9491607"><ele>461.0</ele><time>2026-04-08T07:54:38.943Z</time></trkpt><trkpt lat="44.5399672" lon="9.949105"><ele>456.0</ele><time>2026-04-08T07:54:39.943Z</time></trkpt><trkpt lat="44.5401922" lon="9.9490979"><ele>458.5</ele><time>2026-04-08T07:54:40.943Z</time></trkpt><trkpt lat="44.5404128" lon="9.9491509"><ele>461.0</ele><time>2026-04-08T07:54:41.943Z</time></trkpt><trkpt lat="44.5406307" lon="9.9492608"><ele>461.0</ele><time>2026-04-08T07:54:42.943Z</time></trkpt><trkpt lat="44.5408483" lon="9.9494067"><ele>461.0</ele><time>2026-04-08T07:54:43.943Z</time></trkpt><trkpt lat="44.5410748" lon="9.9495694"><ele>454.5</ele><time>2026-04-08T07:54:44.944Z</time></trkpt><trkpt lat="44.5413081" lon="9.9497429"><ele>448.0</ele><time>2026-04-08T07:54:45.943Z</time></trkpt><trkpt lat="44.5415458" lon="9.9499171"><ele>463.0</ele><time>2026-04-08T07:54:46.944Z</time></trkpt><trkpt lat="44.5417836" lon="9.9500843"><ele>478.0</ele><time>2026-04-08T07:54:47.943Z</time></trkpt><trkpt lat="44.5420236" lon="9.9502355"><ele>470.0</ele><time>2026-04-08T07:54:48.944Z</time></trkpt><trkpt lat="44.5422703" lon="9.9503433"><ele>462.0</ele><time>2026-04-08T07:54:49.944Z</time></trkpt><trkpt lat="44.542527" lon="9.9504017"><ele>462.0</ele><time>2026-04-08T07:54:50.943Z</time></trkpt><trkpt lat="44.5427938" lon="9.9504147"><ele>462.0</ele><time>2026-04-08T07:54:51.943Z</time></trkpt><trkpt lat="44.5430593" lon="9.9504016"><ele>456.5</ele><time>2026-04-08T07:54:52.944Z</time></trkpt><trkpt lat="44.5433124" lon="9.9503828"><ele>451.0</ele><time>2026-04-08T07:54:53.943Z</time></trkpt><trkpt lat="44.5435576" lon="9.950367"><ele>450.0</ele><time>2026-04-08T07:54:54.943Z</time></trkpt><trkpt lat="44.5437984" lon="9.9503521"><ele>449.0</ele><time>2026-04-08T07:54:55.944Z</time></trkpt><trkpt lat="44.5440378" lon="9.9503409"><ele>449.0</ele><time>2026-04-08T07:54:56.943Z</time></trkpt><trkpt lat="44.5442737" lon="9.9503273"><ele>449.0</ele><time>2026-04-08T07:54:57.943Z</time></trkpt><trkpt lat="44.544507" lon="9.9503116"><ele>444.5</ele><time>2026-04-08T07:54:58.943Z</time></trkpt><trkpt lat="44.5447376" lon="9.9502933"><ele>440.0</ele><time>2026-04-08T07:54:59.944Z</time></trkpt><trkpt lat="44.5449669" lon="9.9502723"><ele>440.0</ele><time>2026-04-08T07:55:00.944Z</time></trkpt><trkpt lat="44.5451898" lon="9.9502204"><ele>440.0</ele><time>2026-04-08T07:55:01.943Z</time></trkpt><trkpt lat="44.5454069" lon="9.9501303"><ele>436.0</ele><time>2026-04-08T07:55:02.943Z</time></trkpt><trkpt lat="44.5456181" lon="9.9500058"><ele>432.0</ele><time>2026-04-08T07:55:03.943Z</time></trkpt><trkpt lat="44.545823" lon="9.9498514"><ele>432.0</ele><time>2026-04-08T07:55:04.943Z</time></trkpt><trkpt lat="44.5460229" lon="9.9496711"><ele>432.0</ele><time>2026-04-08T07:55:05.943Z</time></trkpt><trkpt lat="44.5462214" lon="9.9494599"><ele>433.0</ele><time>2026-04-08T07:55:06.944Z</time></trkpt><trkpt lat="44.5464171" lon="9.9492172"><ele>434.0</ele><time>2026-04-08T07:55:07.943Z</time></trkpt><trkpt lat="44.5466159" lon="9.9489546"><ele>434.0</ele><time>2026-04-08T07:55:08.943Z</time></trkpt><trkpt lat="44.5468209" lon="9.9486871"><ele>434.0</ele><time>2026-04-08T07:55:09.943Z</time></trkpt><trkpt lat="44.5470314" lon="9.9484162"><ele>432.5</ele><time>2026-04-08T07:55:10.943Z</time></trkpt><trkpt lat="44.5472446" lon="9.9481432"><ele>431.0</ele><time>2026-04-08T07:55:11.943Z</time></trkpt><trkpt lat="44.547459" lon="9.9478747"><ele>431.0</ele><time>2026-04-08T07:55:12.943Z</time></trkpt><trkpt lat="44.5476763" lon="9.9476132"><ele>431.0</ele><time>2026-04-08T07:55:13.943Z</time></trkpt><trkpt lat="44.5478907" lon="9.9473518"><ele>434.0</ele><time>2026-04-08T07:55:14.943Z</time></trkpt><trkpt lat="44.5480991" lon="9.9470881"><ele>437.0</ele><time>2026-04-08T07:55:15.944Z</time></trkpt><trkpt lat="44.5483011" lon="9.9468265"><ele>429.0</ele><time>2026-04-08T07:55:16.943Z</time></trkpt><trkpt lat="44.5484987" lon="9.9465672"><ele>421.0</ele><time>2026-04-08T07:55:17.943Z</time></trkpt><trkpt lat="44.5486952" lon="9.9463142"><ele>422.0</ele><time>2026-04-08T07:55:18.944Z</time></trkpt><trkpt lat="44.5488893" lon="9.9460656"><ele>423.0</ele><time>2026-04-08T07:55:19.944Z</time></trkpt><trkpt lat="44.5490795" lon="9.9458221"><ele>423.0</ele><time>2026-04-08T07:55:20.943Z</time></trkpt><trkpt lat="44.5492654" lon="9.9455805"><ele>423.0</ele><time>2026-04-08T07:55:21.943Z</time></trkpt><trkpt lat="44.5494478" lon="9.9453419"><ele>422.5</ele><time>2026-04-08T07:55:22.944Z</time></trkpt><trkpt lat="44.5496257" lon="9.9451088"><ele>422.0</ele><time>2026-04-08T07:55:23.943Z</time></trkpt><trkpt lat="44.5498031" lon="9.9448786"><ele>422.0</ele><time>2026-04-08T07:55:24.943Z</time></trkpt><trkpt lat="44.5499747" lon="9.9446549"><ele>422.0</ele><time>2026-04-08T07:55:25.944Z</time></trkpt><trkpt lat="44.5501443" lon="9.9444361"><ele>422.0</ele><time>2026-04-08T07:55:26.943Z</time></trkpt><trkpt lat="44.5503122" lon="9.9442163"><ele>422.0</ele><time>2026-04-08T07:55:27.944Z</time></trkpt><trkpt lat="44.5504776" lon="9.9439991"><ele>424.0</ele><time>2026-04-08T07:55:28.943Z</time></trkpt><trkpt lat="44.5506442" lon="9.9437821"><ele>426.0</ele><time>2026-04-08T07:55:29.943Z</time></trkpt><trkpt lat="44.5508064" lon="9.9435666"><ele>428.0</ele><time>2026-04-08T07:55:30.944Z</time></trkpt><trkpt lat="44.550969" lon="9.9433522"><ele>430.0</ele><time>2026-04-08T07:55:31.944Z</time></trkpt><trkpt lat="44.5511309" lon="9.9431383"><ele>432.0</ele><time>2026-04-08T07:55:32.943Z</time></trkpt><trkpt lat="44.5512935" lon="9.9429287"><ele>432.0</ele><time>2026-04-08T07:55:33.944Z</time></trkpt><trkpt lat="44.5514557" lon="9.9427185"><ele>432.0</ele><time>2026-04-08T07:55:34.943Z</time></trkpt><trkpt lat="44.5516192" lon="9.9425069"><ele>432.0</ele><time>2026-04-08T07:55:35.943Z</time></trkpt><trkpt lat="44.5517805" lon="9.9422975"><ele>429.0</ele><time>2026-04-08T07:55:36.944Z</time></trkpt><trkpt lat="44.5519422" lon="9.942083"><ele>426.0</ele><time>2026-04-08T07:55:37.943Z</time></trkpt><trkpt lat="44.5521036" lon="9.9418704"><ele>423.0</ele><time>2026-04-08T07:55:38.943Z</time></trkpt><trkpt lat="44.5522687" lon="9.941656"><ele>418.0</ele><time>2026-04-08T07:55:39.944Z</time></trkpt><trkpt lat="44.5524357" lon="9.9414406"><ele>413.0</ele><time>2026-04-08T07:55:40.943Z</time></trkpt><trkpt lat="44.5526038" lon="9.9412264"><ele>413.0</ele><time>2026-04-08T07:55:41.944Z</time></trkpt><trkpt lat="44.5527858" lon="9.9410304"><ele>413.0</ele><time>2026-04-08T07:55:42.944Z</time></trkpt><trkpt lat="44.5529863" lon="9.9408763"><ele>410.5</ele><time>2026-04-08T07:55:43.944Z</time></trkpt><trkpt lat="44.5531935" lon="9.9407548"><ele>408.0</ele><time>2026-04-08T07:55:44.943Z</time></trkpt><trkpt lat="44.553426" lon="9.940733"><ele>408.0</ele><time>2026-04-08T07:55:45.944Z</time></trkpt><trkpt lat="44.55365" lon="9.9407363"><ele>408.0</ele><time>2026-04-08T07:55:46.943Z</time></trkpt><trkpt lat="44.5538728" lon="9.9407814"><ele>408.0</ele><time>2026-04-08T07:55:47.943Z</time></trkpt><trkpt lat="44.554095" lon="9.9408468"><ele>409.5</ele><time>2026-04-08T07:55:48.944Z</time></trkpt><trkpt lat="44.5543195" lon="9.9409113"><ele>411.0</ele><time>2026-04-08T07:55:49.943Z</time></trkpt><trkpt lat="44.5545437" lon="9.9409729"><ele>414.0</ele><time>2026-04-08T07:55:50.944Z</time></trkpt><trkpt lat="44.5547676" lon="9.9410323"><ele>417.0</ele><time>2026-04-08T07:55:51.944Z</time></trkpt><trkpt lat="44.5549932" lon="9.9410812"><ele>417.0</ele><time>2026-04-08T07:55:52.944Z</time></trkpt><trkpt lat="44.5552217" lon="9.9411021"><ele>417.0</ele><time>2026-04-08T07:55:53.943Z</time></trkpt><trkpt lat="44.5554479" lon="9.9410775"><ele>416.5</ele><time>2026-04-08T07:55:54.944Z</time></trkpt><trkpt lat="44.5556692" lon="9.9410147"><ele>416.0</ele><time>2026-04-08T07:55:55.944Z</time></trkpt><trkpt lat="44.5558885" lon="9.9409349"><ele>407.5</ele><time>2026-04-08T07:55:56.944Z</time></trkpt><trkpt lat="44.5561074" lon="9.9408525"><ele>399.0</ele><time>2026-04-08T07:55:57.944Z</time></trkpt><trkpt lat="44.5563297" lon="9.9407868"><ele>399.0</ele><time>2026-04-08T07:55:58.944Z</time></trkpt><trkpt lat="44.5565541" lon="9.9407571"><ele>399.0</ele><time>2026-04-08T07:55:59.943Z</time></trkpt><trkpt lat="44.556781" lon="9.9407753"><ele>399.0</ele><time>2026-04-08T07:56:00.943Z</time></trkpt><trkpt lat="44.5570042" lon="9.9408427"><ele>399.0</ele><time>2026-04-08T07:56:01.943Z</time></trkpt><trkpt lat="44.5572184" lon="9.9409654"><ele>404.5</ele><time>2026-04-08T07:56:02.943Z</time></trkpt><trkpt lat="44.5574198" lon="9.9411337"><ele>410.0</ele><time>2026-04-08T07:56:03.944Z</time></trkpt><trkpt lat="44.557616" lon="9.9413261"><ele>410.0</ele><time>2026-04-08T07:56:04.943Z</time></trkpt><trkpt lat="44.5578185" lon="9.9415127"><ele>410.0</ele><time>2026-04-08T07:56:05.943Z</time></trkpt><trkpt lat="44.5580244" lon="9.9417007"><ele>408.5</ele><time>2026-04-08T07:56:06.943Z</time></trkpt><trkpt lat="44.5582334" lon="9.9418905"><ele>407.0</ele><time>2026-04-08T07:56:07.944Z</time></trkpt><trkpt lat="44.558445" lon="9.9420836"><ele>407.0</ele><time>2026-04-08T07:56:08.943Z</time></trkpt><trkpt lat="44.5586579" lon="9.9422735"><ele>407.0</ele><time>2026-04-08T07:56:09.943Z</time></trkpt><trkpt lat="44.5588728" lon="9.9424694"><ele>404.0</ele><time>2026-04-08T07:56:10.943Z</time></trkpt><trkpt lat="44.5590972" lon="9.9426855"><ele>401.0</ele><time>2026-04-08T07:56:11.943Z</time></trkpt><trkpt lat="44.5593176" lon="9.9428877"><ele>390.5</ele><time>2026-04-08T07:56:12.943Z</time></trkpt><trkpt lat="44.5595365" lon="9.9430943"><ele>380.0</ele><time>2026-04-08T07:56:13.943Z</time></trkpt><trkpt lat="44.5597602" lon="9.9433005"><ele>392.0</ele><time>2026-04-08T07:56:14.944Z</time></trkpt><trkpt lat="44.5599851" lon="9.9435084"><ele>404.0</ele><time>2026-04-08T07:56:15.943Z</time></trkpt><trkpt lat="44.5602109" lon="9.9437187"><ele>411.5</ele><time>2026-04-08T07:56:16.943Z</time></trkpt><trkpt lat="44.5604372" lon="9.9439333"><ele>419.0</ele><time>2026-04-08T07:56:17.944Z</time></trkpt><trkpt lat="44.5606627" lon="9.9441436"><ele>433.5</ele><time>2026-04-08T07:56:18.943Z</time></trkpt><trkpt lat="44.5608884" lon="9.9443551"><ele>448.0</ele><time>2026-04-08T07:56:19.944Z</time></trkpt><trkpt lat="44.5631179" lon="9.9463673"><ele>419.0</ele><time>2026-04-08T07:56:29.943Z</time></trkpt><trkpt lat="44.5633262" lon="9.9465396"><ele>390.0</ele><time>2026-04-08T07:56:30.943Z</time></trkpt><trkpt lat="44.5635328" lon="9.9467149"><ele>377.0</ele><time>2026-04-08T07:56:31.943Z</time></trkpt><trkpt lat="44.5637461" lon="9.9468908"><ele>364.0</ele><time>2026-04-08T07:56:32.943Z</time></trkpt><trkpt lat="44.5639593" lon="9.947068"><ele>364.0</ele><time>2026-04-08T07:56:33.944Z</time></trkpt><trkpt lat="44.5641691" lon="9.9472425"><ele>364.0</ele><time>2026-04-08T07:56:34.944Z</time></trkpt><trkpt lat="44.5643785" lon="9.9474149"><ele>371.0</ele><time>2026-04-08T07:56:35.944Z</time></trkpt><trkpt lat="44.5645869" lon="9.9475867"><ele>378.0</ele><time>2026-04-08T07:56:36.943Z</time></trkpt><trkpt lat="44.5647931" lon="9.9477575"><ele>378.0</ele><time>2026-04-08T07:56:37.944Z</time></trkpt><trkpt lat="44.5649926" lon="9.9479229"><ele>378.0</ele><time>2026-04-08T07:56:38.944Z</time></trkpt><trkpt lat="44.5651859" lon="9.9480806"><ele>370.0</ele><time>2026-04-08T07:56:39.944Z</time></trkpt><trkpt lat="44.5653765" lon="9.9482509"><ele>362.0</ele><time>2026-04-08T07:56:40.943Z</time></trkpt><trkpt lat="44.5655561" lon="9.9484479"><ele>362.0</ele><time>2026-04-08T07:56:41.943Z</time></trkpt><trkpt lat="44.5657151" lon="9.9486761"><ele>362.0</ele><time>2026-04-08T07:56:42.943Z</time></trkpt><trkpt lat="44.5658514" lon="9.9489337"><ele>359.5</ele><time>2026-04-08T07:56:43.943Z</time></trkpt><trkpt lat="44.5659554" lon="9.9492201"><ele>357.0</ele><time>2026-04-08T07:56:44.944Z</time></trkpt><trkpt lat="44.5660275" lon="9.9495294"><ele>357.0</ele><time>2026-04-08T07:56:45.943Z</time></trkpt><trkpt lat="44.5660704" lon="9.9498459"><ele>357.0</ele><time>2026-04-08T07:56:46.943Z</time></trkpt><trkpt lat="44.5661036" lon="9.950155"><ele>357.0</ele><time>2026-04-08T07:56:47.944Z</time></trkpt><trkpt lat="44.5661419" lon="9.95045"><ele>357.0</ele><time>2026-04-08T07:56:48.944Z</time></trkpt><trkpt lat="44.5661933" lon="9.9507398"><ele>357.0</ele><time>2026-04-08T07:56:49.943Z</time></trkpt><trkpt lat="44.5662613" lon="9.9510265"><ele>352.6666666666667</ele><time>2026-04-08T07:56:50.943Z</time></trkpt><trkpt lat="44.5663471" lon="9.9513059"><ele>348.33333333333337</ele><time>2026-04-08T07:56:51.943Z</time></trkpt><trkpt lat="44.5664552" lon="9.9515785"><ele>344.0</ele><time>2026-04-08T07:56:52.943Z</time></trkpt><trkpt lat="44.5665842" lon="9.9518406"><ele>344.0</ele><time>2026-04-08T07:56:53.943Z</time></trkpt><trkpt lat="44.5667346" lon="9.9520827"><ele>344.0</ele><time>2026-04-08T07:56:54.943Z</time></trkpt><trkpt lat="44.5669077" lon="9.9523078"><ele>338.0</ele><time>2026-04-08T07:56:55.944Z</time></trkpt><trkpt lat="44.5670979" lon="9.9525093"><ele>332.0</ele><time>2026-04-08T07:56:56.943Z</time></trkpt><trkpt lat="44.5673056" lon="9.9526801"><ele>332.0</ele><time>2026-04-08T07:56:57.944Z</time></trkpt><trkpt lat="44.5675284" lon="9.9528224"><ele>332.0</ele><time>2026-04-08T07:56:58.943Z</time></trkpt><trkpt lat="44.5677634" lon="9.9529295"><ele>336.0</ele><time>2026-04-08T07:56:59.944Z</time></trkpt><trkpt lat="44.5680097" lon="9.9529972"><ele>340.0</ele><time>2026-04-08T07:57:00.943Z</time></trkpt><trkpt lat="44.5682615" lon="9.9530237"><ele>340.0</ele><time>2026-04-08T07:57:01.943Z</time></trkpt><trkpt lat="44.568512" lon="9.953006"><ele>340.0</ele><time>2026-04-08T07:57:02.943Z</time></trkpt><trkpt lat="44.5687613" lon="9.9529495"><ele>345.0</ele><time>2026-04-08T07:57:03.943Z</time></trkpt><trkpt lat="44.5690034" lon="9.9528534"><ele>350.0</ele><time>2026-04-08T07:57:04.943Z</time></trkpt><trkpt lat="44.5692393" lon="9.9527195"><ele>350.0</ele><time>2026-04-08T07:57:05.943Z</time></trkpt><trkpt lat="44.5694721" lon="9.9525672"><ele>350.0</ele><time>2026-04-08T07:57:06.943Z</time></trkpt><trkpt lat="44.5697044" lon="9.9524132"><ele>344.5</ele><time>2026-04-08T07:57:07.944Z</time></trkpt><trkpt lat="44.5699378" lon="9.9522604"><ele>339.0</ele><time>2026-04-08T07:57:08.943Z</time></trkpt><trkpt lat="44.5701721" lon="9.9521109"><ele>345.0</ele><time>2026-04-08T07:57:09.943Z</time></trkpt><trkpt lat="44.5704079" lon="9.9519592"><ele>351.0</ele><time>2026-04-08T07:57:10.943Z</time></trkpt><trkpt lat="44.5706456" lon="9.9518139"><ele>342.5</ele><time>2026-04-08T07:57:11.944Z</time></trkpt><trkpt lat="44.5708898" lon="9.9516796"><ele>334.0</ele><time>2026-04-08T07:57:12.944Z</time></trkpt><trkpt lat="44.5711415" lon="9.9515887"><ele>331.5</ele><time>2026-04-08T07:57:13.943Z</time></trkpt><trkpt lat="44.5714031" lon="9.9515406"><ele>329.0</ele><time>2026-04-08T07:57:14.943Z</time></trkpt><trkpt lat="44.5716629" lon="9.9515221"><ele>329.0</ele><time>2026-04-08T07:57:15.943Z</time></trkpt><trkpt lat="44.5719208" lon="9.9515172"><ele>329.0</ele><time>2026-04-08T07:57:16.943Z</time></trkpt><trkpt lat="44.5721732" lon="9.9515118"><ele>329.5</ele><time>2026-04-08T07:57:17.943Z</time></trkpt><trkpt lat="44.5724231" lon="9.9514969"><ele>330.0</ele><time>2026-04-08T07:57:18.943Z</time></trkpt><trkpt lat="44.5726673" lon="9.9514591"><ele>335.0</ele><time>2026-04-08T07:57:19.944Z</time></trkpt><trkpt lat="44.5729059" lon="9.9513817"><ele>340.0</ele><time>2026-04-08T07:57:20.943Z</time></trkpt><trkpt lat="44.5731362" lon="9.9512578"><ele>340.0</ele><time>2026-04-08T07:57:21.943Z</time></trkpt><trkpt lat="44.5733561" lon="9.9511016"><ele>340.0</ele><time>2026-04-08T07:57:22.943Z</time></trkpt><trkpt lat="44.5735721" lon="9.9509304"><ele>339.0</ele><time>2026-04-08T07:57:23.943Z</time></trkpt><trkpt lat="44.5737896" lon="9.9507505"><ele>338.0</ele><time>2026-04-08T07:57:24.944Z</time></trkpt><trkpt lat="44.5740068" lon="9.9505705"><ele>338.0</ele><time>2026-04-08T07:57:25.943Z</time></trkpt><trkpt lat="44.5742247" lon="9.9503865"><ele>338.0</ele><time>2026-04-08T07:57:26.943Z</time></trkpt><trkpt lat="44.5744464" lon="9.9502015"><ele>335.5</ele><time>2026-04-08T07:57:27.944Z</time></trkpt><trkpt lat="44.5746687" lon="9.950017"><ele>333.0</ele><time>2026-04-08T07:57:28.943Z</time></trkpt><trkpt lat="44.5748929" lon="9.9498278"><ele>333.0</ele><time>2026-04-08T07:57:29.944Z</time></trkpt><trkpt lat="44.5751188" lon="9.9496365"><ele>333.0</ele><time>2026-04-08T07:57:30.943Z</time></trkpt><trkpt lat="44.575345" lon="9.9494464"><ele>330.0</ele><time>2026-04-08T07:57:31.944Z</time></trkpt><trkpt lat="44.5755731" lon="9.94926"><ele>327.0</ele><time>2026-04-08T07:57:32.943Z</time></trkpt><trkpt lat="44.5758001" lon="9.9490759"><ele>327.0</ele><time>2026-04-08T07:57:33.944Z</time></trkpt><trkpt lat="44.5760249" lon="9.9488938"><ele>327.0</ele><time>2026-04-08T07:57:34.943Z</time></trkpt><trkpt lat="44.5762478" lon="9.9487147"><ele>322.5</ele><time>2026-04-08T07:57:35.943Z</time></trkpt><trkpt lat="44.5764704" lon="9.9485367"><ele>318.0</ele><time>2026-04-08T07:57:36.944Z</time></trkpt><trkpt lat="44.576695" lon="9.9483668"><ele>318.0</ele><time>2026-04-08T07:57:37.944Z</time></trkpt><trkpt lat="44.5769258" lon="9.9482176"><ele>318.0</ele><time>2026-04-08T07:57:38.943Z</time></trkpt><trkpt lat="44.5771662" lon="9.9480981"><ele>325.0</ele><time>2026-04-08T07:57:39.943Z</time></trkpt><trkpt lat="44.5774148" lon="9.9480072"><ele>332.0</ele><time>2026-04-08T07:57:40.943Z</time></trkpt><trkpt lat="44.5776678" lon="9.9479494"><ele>330.5</ele><time>2026-04-08T07:57:41.943Z</time></trkpt><trkpt lat="44.5779241" lon="9.9479276"><ele>329.0</ele><time>2026-04-08T07:57:42.943Z</time></trkpt><trkpt lat="44.5781787" lon="9.9479488"><ele>329.0</ele><time>2026-04-08T07:57:43.943Z</time></trkpt><trkpt lat="44.5784307" lon="9.9480045"><ele>329.0</ele><time>2026-04-08T07:57:44.943Z</time></trkpt><trkpt lat="44.5786803" lon="9.9480925"><ele>323.0</ele><time>2026-04-08T07:57:45.943Z</time></trkpt><trkpt lat="44.5789199" lon="9.9482162"><ele>317.0</ele><time>2026-04-08T07:57:46.944Z</time></trkpt><trkpt lat="44.5791533" lon="9.9483644"><ele>314.0</ele><time>2026-04-08T07:57:47.943Z</time></trkpt><trkpt lat="44.5793824" lon="9.9485291"><ele>311.0</ele><time>2026-04-08T07:57:48.943Z</time></trkpt><trkpt lat="44.5796105" lon="9.9486949"><ele>311.0</ele><time>2026-04-08T07:57:49.943Z</time></trkpt><trkpt lat="44.5798438" lon="9.9488487"><ele>311.0</ele><time>2026-04-08T07:57:50.944Z</time></trkpt><trkpt lat="44.5800846" lon="9.9489785"><ele>311.0</ele><time>2026-04-08T07:57:51.943Z</time></trkpt><trkpt lat="44.5803321" lon="9.9490744"><ele>311.0</ele><time>2026-04-08T07:57:52.943Z</time></trkpt><trkpt lat="44.5805871" lon="9.9491358"><ele>309.0</ele><time>2026-04-08T07:57:53.944Z</time></trkpt><trkpt lat="44.5808427" lon="9.9491633"><ele>307.0</ele><time>2026-04-08T07:57:54.943Z</time></trkpt><trkpt lat="44.5811003" lon="9.9491839"><ele>312.0</ele><time>2026-04-08T07:57:55.943Z</time></trkpt><trkpt lat="44.5813585" lon="9.9492107"><ele>317.0</ele><time>2026-04-08T07:57:56.944Z</time></trkpt><trkpt lat="44.5816177" lon="9.9492391"><ele>317.0</ele><time>2026-04-08T07:57:57.944Z</time></trkpt><trkpt lat="44.5818776" lon="9.9492648"><ele>317.0</ele><time>2026-04-08T07:57:58.943Z</time></trkpt><trkpt lat="44.5821369" lon="9.9492908"><ele>320.5</ele><time>2026-04-08T07:57:59.943Z</time></trkpt><trkpt lat="44.5823959" lon="9.9493289"><ele>324.0</ele><time>2026-04-08T07:58:00.943Z</time></trkpt><trkpt lat="44.5826533" lon="9.9493919"><ele>316.5</ele><time>2026-04-08T07:58:01.944Z</time></trkpt><trkpt lat="44.5829022" lon="9.949496"><ele>309.0</ele><time>2026-04-08T07:58:02.944Z</time></trkpt><trkpt lat="44.583144" lon="9.9496419"><ele>309.0</ele><time>2026-04-08T07:58:03.944Z</time></trkpt><trkpt lat="44.5833712" lon="9.9498308"><ele>309.0</ele><time>2026-04-08T07:58:04.944Z</time></trkpt><trkpt lat="44.5835842" lon="9.9500557"><ele>305.5</ele><time>2026-04-08T07:58:05.944Z</time></trkpt><trkpt lat="44.5837845" lon="9.9503037"><ele>302.0</ele><time>2026-04-08T07:58:06.943Z</time></trkpt><trkpt lat="44.5839792" lon="9.9505602"><ele>302.0</ele><time>2026-04-08T07:58:07.943Z</time></trkpt><trkpt lat="44.5841792" lon="9.9508108"><ele>302.0</ele><time>2026-04-08T07:58:08.943Z</time></trkpt><trkpt lat="44.5843873" lon="9.9510492"><ele>303.0</ele><time>2026-04-08T07:58:09.943Z</time></trkpt><trkpt lat="44.5846119" lon="9.9512548"><ele>304.0</ele><time>2026-04-08T07:58:10.943Z</time></trkpt><trkpt lat="44.5848534" lon="9.9514159"><ele>304.0</ele><time>2026-04-08T07:58:11.943Z</time></trkpt><trkpt lat="44.5851041" lon="9.9515334"><ele>304.0</ele><time>2026-04-08T07:58:12.943Z</time></trkpt><trkpt lat="44.5853622" lon="9.9515971"><ele>298.5</ele><time>2026-04-08T07:58:13.943Z</time></trkpt><trkpt lat="44.5856242" lon="9.9516046"><ele>293.0</ele><time>2026-04-08T07:58:14.944Z</time></trkpt><trkpt lat="44.585885" lon="9.9515646"><ele>293.0</ele><time>2026-04-08T07:58:15.943Z</time></trkpt><trkpt lat="44.5861384" lon="9.9514833"><ele>293.0</ele><time>2026-04-08T07:58:16.943Z</time></trkpt><trkpt lat="44.5863846" lon="9.95138"><ele>297.0</ele><time>2026-04-08T07:58:17.944Z</time></trkpt><trkpt lat="44.5866331" lon="9.951284"><ele>301.0</ele><time>2026-04-08T07:58:18.944Z</time></trkpt><trkpt lat="44.5868863" lon="9.9512218"><ele>300.5</ele><time>2026-04-08T07:58:19.944Z</time></trkpt><trkpt lat="44.5871433" lon="9.9511993"><ele>300.0</ele><time>2026-04-08T07:58:20.943Z</time></trkpt><trkpt lat="44.5873989" lon="9.9512275"><ele>300.0</ele><time>2026-04-08T07:58:21.944Z</time></trkpt><trkpt lat="44.587647" lon="9.9513091"><ele>300.0</ele><time>2026-04-08T07:58:22.943Z</time></trkpt><trkpt lat="44.5878857" lon="9.9514387"><ele>299.0</ele><time>2026-04-08T07:58:23.943Z</time></trkpt><trkpt lat="44.5881098" lon="9.9516136"><ele>298.0</ele><time>2026-04-08T07:58:24.943Z</time></trkpt><trkpt lat="44.5883141" lon="9.9518298"><ele>298.0</ele><time>2026-04-08T07:58:25.943Z</time></trkpt><trkpt lat="44.5884949" lon="9.9520777"><ele>298.0</ele><time>2026-04-08T07:58:26.943Z</time></trkpt><trkpt lat="44.5886441" lon="9.9523446"><ele>293.0</ele><time>2026-04-08T07:58:27.943Z</time></trkpt><trkpt lat="44.5887673" lon="9.9526433"><ele>288.0</ele><time>2026-04-08T07:58:28.943Z</time></trkpt><trkpt lat="44.5888619" lon="9.9529675"><ele>288.0</ele><time>2026-04-08T07:58:29.943Z</time></trkpt><trkpt lat="44.5889421" lon="9.9533058"><ele>288.0</ele><time>2026-04-08T07:58:30.943Z</time></trkpt><trkpt lat="44.5890243" lon="9.9536486"><ele>290.0</ele><time>2026-04-08T07:58:31.943Z</time></trkpt><trkpt lat="44.5891094" lon="9.953993"><ele>292.0</ele><time>2026-04-08T07:58:32.943Z</time></trkpt><trkpt lat="44.5891946" lon="9.9543405"><ele>292.5</ele><time>2026-04-08T07:58:33.944Z</time></trkpt><trkpt lat="44.5892777" lon="9.9546868"><ele>293.0</ele><time>2026-04-08T07:58:34.943Z</time></trkpt><trkpt lat="44.5893603" lon="9.9550355"><ele>290.5</ele><time>2026-04-08T07:58:35.943Z</time></trkpt><trkpt lat="44.58944" lon="9.9553784"><ele>288.0</ele><time>2026-04-08T07:58:36.943Z</time></trkpt><trkpt lat="44.5895283" lon="9.9557123"><ele>288.0</ele><time>2026-04-08T07:58:37.943Z</time></trkpt><trkpt lat="44.5896323" lon="9.9560367"><ele>288.0</ele><time>2026-04-08T07:58:38.943Z</time></trkpt><trkpt lat="44.5897518" lon="9.9563538"><ele>288.0</ele><time>2026-04-08T07:58:39.943Z</time></trkpt><trkpt lat="44.5898847" lon="9.9566619"><ele>288.0</ele><time>2026-04-08T07:58:40.943Z</time></trkpt><trkpt lat="44.5900246" lon="9.9569692"><ele>290.5</ele><time>2026-04-08T07:58:41.943Z</time></trkpt><trkpt lat="44.5901669" lon="9.9572758"><ele>293.0</ele><time>2026-04-08T07:58:42.943Z</time></trkpt><trkpt lat="44.5903099" lon="9.9575829"><ele>286.5</ele><time>2026-04-08T07:58:43.943Z</time></trkpt><trkpt lat="44.5904556" lon="9.9578895"><ele>280.0</ele><time>2026-04-08T07:58:44.943Z</time></trkpt><trkpt lat="44.5905999" lon="9.9581943"><ele>281.5</ele><time>2026-04-08T07:58:45.944Z</time></trkpt><trkpt lat="44.5907509" lon="9.9584927"><ele>283.0</ele><time>2026-04-08T07:58:46.944Z</time></trkpt><trkpt lat="44.590913" lon="9.9587779"><ele>283.0</ele><time>2026-04-08T07:58:47.943Z</time></trkpt><trkpt lat="44.5910835" lon="9.9590608"><ele>283.0</ele><time>2026-04-08T07:58:48.943Z</time></trkpt><trkpt lat="44.5912591" lon="9.9593437"><ele>280.5</ele><time>2026-04-08T07:58:49.943Z</time></trkpt><trkpt lat="44.5914354" lon="9.9596307"><ele>278.0</ele><time>2026-04-08T07:58:50.943Z</time></trkpt><trkpt lat="44.5916133" lon="9.9599153"><ele>281.0</ele><time>2026-04-08T07:58:51.943Z</time></trkpt><trkpt lat="44.5917936" lon="9.9601984"><ele>284.0</ele><time>2026-04-08T07:58:52.944Z</time></trkpt><trkpt lat="44.5919729" lon="9.960483"><ele>280.5</ele><time>2026-04-08T07:58:53.944Z</time></trkpt><trkpt lat="44.5921488" lon="9.9607734"><ele>277.0</ele><time>2026-04-08T07:58:54.944Z</time></trkpt><trkpt lat="44.5923259" lon="9.9610673"><ele>277.0</ele><time>2026-04-08T07:58:55.943Z</time></trkpt><trkpt lat="44.5925054" lon="9.9613605"><ele>277.0</ele><time>2026-04-08T07:58:56.943Z</time></trkpt><trkpt lat="44.5926884" lon="9.9616508"><ele>275.0</ele><time>2026-04-08T07:58:57.943Z</time></trkpt><trkpt lat="44.5928708" lon="9.9619415"><ele>273.0</ele><time>2026-04-08T07:58:58.943Z</time></trkpt><trkpt lat="44.5930577" lon="9.9622314"><ele>273.0</ele><time>2026-04-08T07:58:59.944Z</time></trkpt><trkpt lat="44.5932437" lon="9.9625223"><ele>273.0</ele><time>2026-04-08T07:59:00.943Z</time></trkpt><trkpt lat="44.5934296" lon="9.9628129"><ele>272.0</ele><time>2026-04-08T07:59:01.944Z</time></trkpt><trkpt lat="44.5936161" lon="9.9631046"><ele>271.0</ele><time>2026-04-08T07:59:02.943Z</time></trkpt><trkpt lat="44.5938035" lon="9.9633991"><ele>271.0</ele><time>2026-04-08T07:59:03.943Z</time></trkpt><trkpt lat="44.5939909" lon="9.9636947"><ele>271.0</ele><time>2026-04-08T07:59:04.943Z</time></trkpt><trkpt lat="44.5941797" lon="9.9639887"><ele>268.0</ele><time>2026-04-08T07:59:05.943Z</time></trkpt><trkpt lat="44.5943638" lon="9.9642839"><ele>265.0</ele><time>2026-04-08T07:59:06.943Z</time></trkpt><trkpt lat="44.5945455" lon="9.9645729"><ele>265.0</ele><time>2026-04-08T07:59:07.943Z</time></trkpt><trkpt lat="44.5947305" lon="9.9648617"><ele>265.0</ele><time>2026-04-08T07:59:08.943Z</time></trkpt><trkpt lat="44.5949159" lon="9.9651472"><ele>272.5</ele><time>2026-04-08T07:59:09.943Z</time></trkpt><trkpt lat="44.5950994" lon="9.9654324"><ele>280.0</ele><time>2026-04-08T07:59:10.943Z</time></trkpt><trkpt lat="44.5952837" lon="9.9657148"><ele>272.0</ele><time>2026-04-08T07:59:11.944Z</time></trkpt><trkpt lat="44.5954659" lon="9.9659955"><ele>264.0</ele><time>2026-04-08T07:59:12.943Z</time></trkpt><trkpt lat="44.5956498" lon="9.9662763"><ele>264.0</ele><time>2026-04-08T07:59:13.943Z</time></trkpt><trkpt lat="44.5958434" lon="9.9665482"><ele>264.0</ele><time>2026-04-08T07:59:14.944Z</time></trkpt><trkpt lat="44.5960467" lon="9.9668049"><ele>261.5</ele><time>2026-04-08T07:59:15.944Z</time></trkpt><trkpt lat="44.5962608" lon="9.9670432"><ele>259.0</ele><time>2026-04-08T07:59:16.943Z</time></trkpt><trkpt lat="44.5964795" lon="9.9672752"><ele>259.0</ele><time>2026-04-08T07:59:17.944Z</time></trkpt><trkpt lat="44.5966965" lon="9.9675104"><ele>259.0</ele><time>2026-04-08T07:59:18.944Z</time></trkpt><trkpt lat="44.5969139" lon="9.9677496"><ele>256.0</ele><time>2026-04-08T07:59:19.943Z</time></trkpt><trkpt lat="44.5971227" lon="9.9680058"><ele>253.0</ele><time>2026-04-08T07:59:20.944Z</time></trkpt><trkpt lat="44.5973163" lon="9.9682903"><ele>258.5</ele><time>2026-04-08T07:59:21.944Z</time></trkpt><trkpt lat="44.5974916" lon="9.9685992"><ele>264.0</ele><time>2026-04-08T07:59:22.943Z</time></trkpt><trkpt lat="44.5976591" lon="9.9689164"><ele>266.0</ele><time>2026-04-08T07:59:23.943Z</time></trkpt><trkpt lat="44.5978257" lon="9.9692371"><ele>268.0</ele><time>2026-04-08T07:59:24.943Z</time></trkpt><trkpt lat="44.597994" lon="9.9695558"><ele>262.5</ele><time>2026-04-08T07:59:25.943Z</time></trkpt><trkpt lat="44.5981625" lon="9.9698757"><ele>257.0</ele><time>2026-04-08T07:59:26.943Z</time></trkpt><trkpt lat="44.59833" lon="9.9701972"><ele>257.0</ele><time>2026-04-08T07:59:27.943Z</time></trkpt><trkpt lat="44.5985016" lon="9.9705185"><ele>257.0</ele><time>2026-04-08T07:59:28.943Z</time></trkpt><trkpt lat="44.5986768" lon="9.9708367"><ele>253.5</ele><time>2026-04-08T07:59:29.944Z</time></trkpt><trkpt lat="44.5988557" lon="9.9711508"><ele>250.0</ele><time>2026-04-08T07:59:30.944Z</time></trkpt><trkpt lat="44.5990358" lon="9.9714585"><ele>255.5</ele><time>2026-04-08T07:59:31.944Z</time></trkpt><trkpt lat="44.5992212" lon="9.9717551"><ele>261.0</ele><time>2026-04-08T07:59:32.943Z</time></trkpt><trkpt lat="44.5994141" lon="9.9720354"><ele>258.5</ele><time>2026-04-08T07:59:33.944Z</time></trkpt><trkpt lat="44.599613" lon="9.972301"><ele>256.0</ele><time>2026-04-08T07:59:34.944Z</time></trkpt><trkpt lat="44.5998102" lon="9.9725604"><ele>256.0</ele><time>2026-04-08T07:59:35.944Z</time></trkpt><trkpt lat="44.6000063" lon="9.9728163"><ele>256.0</ele><time>2026-04-08T07:59:36.943Z</time></trkpt><trkpt lat="44.6002029" lon="9.9730748"><ele>253.5</ele><time>2026-04-08T07:59:37.943Z</time></trkpt><trkpt lat="44.6003975" lon="9.9733379"><ele>251.0</ele><time>2026-04-08T07:59:38.943Z</time></trkpt><trkpt lat="44.6005849" lon="9.9736117"><ele>251.0</ele><time>2026-04-08T07:59:39.944Z</time></trkpt><trkpt lat="44.6007771" lon="9.9738815"><ele>251.0</ele><time>2026-04-08T07:59:40.943Z</time></trkpt><trkpt lat="44.6009762" lon="9.9741434"><ele>248.0</ele><time>2026-04-08T07:59:41.944Z</time></trkpt><trkpt lat="44.6011784" lon="9.9744064"><ele>245.0</ele><time>2026-04-08T07:59:42.943Z</time></trkpt><trkpt lat="44.6013818" lon="9.9746642"><ele>245.0</ele><time>2026-04-08T07:59:43.943Z</time></trkpt><trkpt lat="44.6015874" lon="9.9749259"><ele>245.0</ele><time>2026-04-08T07:59:44.943Z</time></trkpt><trkpt lat="44.6017927" lon="9.9751857"><ele>242.0</ele><time>2026-04-08T07:59:45.943Z</time></trkpt><trkpt lat="44.6019986" lon="9.9754454"><ele>239.0</ele><time>2026-04-08T07:59:46.944Z</time></trkpt><trkpt lat="44.6022055" lon="9.97571"><ele>244.0</ele><time>2026-04-08T07:59:47.944Z</time></trkpt><trkpt lat="44.602412" lon="9.9759738"><ele>249.0</ele><time>2026-04-08T07:59:48.943Z</time></trkpt><trkpt lat="44.6026179" lon="9.9762406"><ele>249.0</ele><time>2026-04-08T07:59:49.944Z</time></trkpt><trkpt lat="44.6028221" lon="9.9765067"><ele>249.0</ele><time>2026-04-08T07:59:50.943Z</time></trkpt><trkpt lat="44.603025" lon="9.9767709"><ele>249.0</ele><time>2026-04-08T07:59:51.943Z</time></trkpt><trkpt lat="44.6032277" lon="9.9770325"><ele>249.0</ele><time>2026-04-08T07:59:52.943Z</time></trkpt><trkpt lat="44.6034301" lon="9.9772964"><ele>244.5</ele><time>2026-04-08T07:59:53.944Z</time></trkpt><trkpt lat="44.6036312" lon="9.9775603"><ele>240.0</ele><time>2026-04-08T07:59:54.943Z</time></trkpt><trkpt lat="44.603829" lon="9.9778282"><ele>240.0</ele><time>2026-04-08T07:59:55.943Z</time></trkpt><trkpt lat="44.6040238" lon="9.9780972"><ele>240.0</ele><time>2026-04-08T07:59:56.943Z</time></trkpt><trkpt lat="44.6042157" lon="9.9783687"><ele>239.5</ele><time>2026-04-08T07:59:57.943Z</time></trkpt><trkpt lat="44.6044109" lon="9.9786387"><ele>239.0</ele><time>2026-04-08T07:59:58.943Z</time></trkpt><trkpt lat="44.6046062" lon="9.9789067"><ele>237.5</ele><time>2026-04-08T07:59:59.943Z</time></trkpt><trkpt lat="44.6048014" lon="9.9791736"><ele>236.0</ele><time>2026-04-08T08:00:00.944Z</time></trkpt><trkpt lat="44.604999" lon="9.9794374"><ele>236.0</ele><time>2026-04-08T08:00:01.943Z</time></trkpt><trkpt lat="44.6051973" lon="9.9796962"><ele>236.0</ele><time>2026-04-08T08:00:02.944Z</time></trkpt><trkpt lat="44.6053947" lon="9.979957"><ele>238.0</ele><time>2026-04-08T08:00:03.944Z</time></trkpt><trkpt lat="44.6055911" lon="9.9802155"><ele>240.0</ele><time>2026-04-08T08:00:04.944Z</time></trkpt><trkpt lat="44.6057891" lon="9.980471"><ele>240.0</ele><time>2026-04-08T08:00:05.943Z</time></trkpt><trkpt lat="44.6059842" lon="9.9807224"><ele>240.0</ele><time>2026-04-08T08:00:06.944Z</time></trkpt><trkpt lat="44.6061804" lon="9.98097"><ele>241.5</ele><time>2026-04-08T08:00:07.943Z</time></trkpt><trkpt lat="44.6063817" lon="9.9812059"><ele>243.0</ele><time>2026-04-08T08:00:08.943Z</time></trkpt><trkpt lat="44.6065864" lon="9.9814294"><ele>243.0</ele><time>2026-04-08T08:00:09.943Z</time></trkpt><trkpt lat="44.6068003" lon="9.9816376"><ele>243.0</ele><time>2026-04-08T08:00:10.944Z</time></trkpt><trkpt lat="44.6070212" lon="9.9818267"><ele>246.0</ele><time>2026-04-08T08:00:11.943Z</time></trkpt><trkpt lat="44.6072489" lon="9.981993"><ele>249.0</ele><time>2026-04-08T08:00:12.943Z</time></trkpt><trkpt lat="44.6074825" lon="9.9821315"><ele>249.0</ele><time>2026-04-08T08:00:13.943Z</time></trkpt><trkpt lat="44.6077215" lon="9.982247"><ele>249.0</ele><time>2026-04-08T08:00:14.944Z</time></trkpt><trkpt lat="44.6079631" lon="9.9823427"><ele>245.5</ele><time>2026-04-08T08:00:15.943Z</time></trkpt><trkpt lat="44.6082058" lon="9.9824216"><ele>242.0</ele><time>2026-04-08T08:00:16.943Z</time></trkpt><trkpt lat="44.6084528" lon="9.9824831"><ele>248.5</ele><time>2026-04-08T08:00:17.943Z</time></trkpt><trkpt lat="44.6087008" lon="9.9825291"><ele>255.0</ele><time>2026-04-08T08:00:18.944Z</time></trkpt><trkpt lat="44.6089492" lon="9.9825652"><ele>255.0</ele><time>2026-04-08T08:00:19.944Z</time></trkpt><trkpt lat="44.6092001" lon="9.9825959"><ele>255.0</ele><time>2026-04-08T08:00:20.943Z</time></trkpt><trkpt lat="44.6094507" lon="9.982626"><ele>253.0</ele><time>2026-04-08T08:00:21.943Z</time></trkpt><trkpt lat="44.6097005" lon="9.9826581"><ele>251.0</ele><time>2026-04-08T08:00:22.943Z</time></trkpt><trkpt lat="44.6099508" lon="9.9826991"><ele>251.0</ele><time>2026-04-08T08:00:23.943Z</time></trkpt><trkpt lat="44.6101999" lon="9.9827509"><ele>251.0</ele><time>2026-04-08T08:00:24.943Z</time></trkpt><trkpt lat="44.6104468" lon="9.9828157"><ele>249.0</ele><time>2026-04-08T08:00:25.943Z</time></trkpt><trkpt lat="44.6106928" lon="9.9828955"><ele>247.0</ele><time>2026-04-08T08:00:26.943Z</time></trkpt><trkpt lat="44.610937" lon="9.9829873"><ele>241.0</ele><time>2026-04-08T08:00:27.944Z</time></trkpt><trkpt lat="44.6111762" lon="9.983095"><ele>235.0</ele><time>2026-04-08T08:00:28.944Z</time></trkpt><trkpt lat="44.6114106" lon="9.983218"><ele>242.0</ele><time>2026-04-08T08:00:29.944Z</time></trkpt><trkpt lat="44.6116382" lon="9.9833585"><ele>249.0</ele><time>2026-04-08T08:00:30.943Z</time></trkpt><trkpt lat="44.6118599" lon="9.9835176"><ele>240.5</ele><time>2026-04-08T08:00:31.943Z</time></trkpt><trkpt lat="44.6120789" lon="9.9836876"><ele>232.0</ele><time>2026-04-08T08:00:32.943Z</time></trkpt><trkpt lat="44.6122923" lon="9.983872"><ele>232.0</ele><time>2026-04-08T08:00:33.944Z</time></trkpt><trkpt lat="44.6125008" lon="9.9840725"><ele>232.0</ele><time>2026-04-08T08:00:34.943Z</time></trkpt><trkpt lat="44.6127029" lon="9.9842897"><ele>229.0</ele><time>2026-04-08T08:00:35.943Z</time></trkpt><trkpt lat="44.612896" lon="9.9845228"><ele>226.0</ele><time>2026-04-08T08:00:36.943Z</time></trkpt><trkpt lat="44.6130811" lon="9.9847703"><ele>229.0</ele><time>2026-04-08T08:00:37.943Z</time></trkpt><trkpt lat="44.6132576" lon="9.9850308"><ele>232.0</ele><time>2026-04-08T08:00:38.944Z</time></trkpt><trkpt lat="44.6134271" lon="9.9853077"><ele>232.0</ele><time>2026-04-08T08:00:39.944Z</time></trkpt><trkpt lat="44.6135851" lon="9.9855977"><ele>232.0</ele><time>2026-04-08T08:00:40.944Z</time></trkpt><trkpt lat="44.6137333" lon="9.9859008"><ele>229.0</ele><time>2026-04-08T08:00:41.944Z</time></trkpt><trkpt lat="44.6138721" lon="9.9862165"><ele>226.0</ele><time>2026-04-08T08:00:42.943Z</time></trkpt><trkpt lat="44.6139983" lon="9.9865455"><ele>226.0</ele><time>2026-04-08T08:00:43.944Z</time></trkpt><trkpt lat="44.6141117" lon="9.9868855"><ele>226.0</ele><time>2026-04-08T08:00:44.944Z</time></trkpt><trkpt lat="44.6142138" lon="9.987229"><ele>228.5</ele><time>2026-04-08T08:00:45.944Z</time></trkpt><trkpt lat="44.6143018" lon="9.9875816"><ele>231.0</ele><time>2026-04-08T08:00:46.943Z</time></trkpt><trkpt lat="44.6143768" lon="9.9879336"><ele>231.0</ele><time>2026-04-08T08:00:47.943Z</time></trkpt><trkpt lat="44.6144478" lon="9.98829"><ele>231.0</ele><time>2026-04-08T08:00:48.943Z</time></trkpt><trkpt lat="44.6145177" lon="9.9886435"><ele>226.0</ele><time>2026-04-08T08:00:49.944Z</time></trkpt><trkpt lat="44.6145814" lon="9.9889968"><ele>221.0</ele><time>2026-04-08T08:00:50.944Z</time></trkpt><trkpt lat="44.6146415" lon="9.9893468"><ele>221.0</ele><time>2026-04-08T08:00:51.943Z</time></trkpt><trkpt lat="44.6147062" lon="9.9896978"><ele>221.0</ele><time>2026-04-08T08:00:52.943Z</time></trkpt><trkpt lat="44.614779" lon="9.9900445"><ele>222.5</ele><time>2026-04-08T08:00:53.943Z</time></trkpt><trkpt lat="44.6148616" lon="9.9903868"><ele>224.0</ele><time>2026-04-08T08:00:54.944Z</time></trkpt><trkpt lat="44.6149546" lon="9.9907249"><ele>227.5</ele><time>2026-04-08T08:00:55.944Z</time></trkpt><trkpt lat="44.6150606" lon="9.9910554"><ele>231.0</ele><time>2026-04-08T08:00:56.943Z</time></trkpt><trkpt lat="44.6151806" lon="9.9913776"><ele>235.5</ele><time>2026-04-08T08:00:57.943Z</time></trkpt><trkpt lat="44.6153162" lon="9.9916905"><ele>240.0</ele><time>2026-04-08T08:00:58.943Z</time></trkpt><trkpt lat="44.6154651" lon="9.9919939"><ele>232.0</ele><time>2026-04-08T08:00:59.943Z</time></trkpt><trkpt lat="44.6156254" lon="9.9922869"><ele>224.0</ele><time>2026-04-08T08:01:00.944Z</time></trkpt><trkpt lat="44.6157959" lon="9.992569"><ele>224.0</ele><time>2026-04-08T08:01:01.943Z</time></trkpt><trkpt lat="44.6159792" lon="9.992836"><ele>224.0</ele><time>2026-04-08T08:01:02.943Z</time></trkpt><trkpt lat="44.6161693" lon="9.9930919"><ele>221.5</ele><time>2026-04-08T08:01:03.944Z</time></trkpt><trkpt lat="44.6163656" lon="9.9933406"><ele>219.0</ele><time>2026-04-08T08:01:04.943Z</time></trkpt><trkpt lat="44.6165637" lon="9.9935893"><ele>219.0</ele><time>2026-04-08T08:01:05.944Z</time></trkpt><trkpt lat="44.6167628" lon="9.9938372"><ele>219.0</ele><time>2026-04-08T08:01:06.943Z</time></trkpt><trkpt lat="44.6169621" lon="9.9940848"><ele>220.0</ele><time>2026-04-08T08:01:07.944Z</time></trkpt><trkpt lat="44.6171627" lon="9.994332"><ele>221.0</ele><time>2026-04-08T08:01:08.943Z</time></trkpt><trkpt lat="44.617361" lon="9.9945759"><ele>221.0</ele><time>2026-04-08T08:01:09.943Z</time></trkpt><trkpt lat="44.6175596" lon="9.9948228"><ele>221.0</ele><time>2026-04-08T08:01:10.943Z</time></trkpt><trkpt lat="44.6177585" lon="9.995069"><ele>224.0</ele><time>2026-04-08T08:01:11.944Z</time></trkpt><trkpt lat="44.6179562" lon="9.9953146"><ele>227.0</ele><time>2026-04-08T08:01:12.944Z</time></trkpt><trkpt lat="44.6181555" lon="9.9955585"><ele>227.0</ele><time>2026-04-08T08:01:13.943Z</time></trkpt><trkpt lat="44.6183559" lon="9.9958026"><ele>227.0</ele><time>2026-04-08T08:01:14.943Z</time></trkpt><trkpt lat="44.6185559" lon="9.9960453"><ele>228.0</ele><time>2026-04-08T08:01:15.943Z</time></trkpt><trkpt lat="44.6187541" lon="9.9962897"><ele>229.0</ele><time>2026-04-08T08:01:16.943Z</time></trkpt><trkpt lat="44.6189475" lon="9.9965436"><ele>222.5</ele><time>2026-04-08T08:01:17.944Z</time></trkpt><trkpt lat="44.6191255" lon="9.9968127"><ele>216.0</ele><time>2026-04-08T08:01:18.944Z</time></trkpt><trkpt lat="44.6192863" lon="9.9971"><ele>216.0</ele><time>2026-04-08T08:01:19.944Z</time></trkpt><trkpt lat="44.6194299" lon="9.9974029"><ele>216.0</ele><time>2026-04-08T08:01:20.943Z</time></trkpt><trkpt lat="44.6195688" lon="9.9977116"><ele>216.0</ele><time>2026-04-08T08:01:21.943Z</time></trkpt><trkpt lat="44.6197063" lon="9.9980212"><ele>216.0</ele><time>2026-04-08T08:01:22.943Z</time></trkpt><trkpt lat="44.61984" lon="9.9983349"><ele>216.0</ele><time>2026-04-08T08:01:23.943Z</time></trkpt><trkpt lat="44.6199737" lon="9.9986468"><ele>216.0</ele><time>2026-04-08T08:01:24.943Z</time></trkpt><trkpt lat="44.6201143" lon="9.9989546"><ele>216.5</ele><time>2026-04-08T08:01:25.943Z</time></trkpt><trkpt lat="44.6202575" lon="9.9992609"><ele>217.0</ele><time>2026-04-08T08:01:26.944Z</time></trkpt><trkpt lat="44.6204081" lon="9.9995573"><ele>217.0</ele><time>2026-04-08T08:01:27.943Z</time></trkpt><trkpt lat="44.6205734" lon="9.9998385"><ele>217.0</ele><time>2026-04-08T08:01:28.943Z</time></trkpt><trkpt lat="44.6207541" lon="10.0001044"><ele>217.0</ele><time>2026-04-08T08:01:29.944Z</time></trkpt><trkpt lat="44.6209464" lon="10.000352"><ele>217.0</ele><time>2026-04-08T08:01:30.943Z</time></trkpt><trkpt lat="44.6211505" lon="10.0005827"><ele>215.5</ele><time>2026-04-08T08:01:31.944Z</time></trkpt><trkpt lat="44.6213612" lon="10.0008033"><ele>214.0</ele><time>2026-04-08T08:01:32.943Z</time></trkpt><trkpt lat="44.6215733" lon="10.0010221"><ele>213.0</ele><time>2026-04-08T08:01:33.944Z</time></trkpt><trkpt lat="44.6217836" lon="10.0012413"><ele>212.0</ele><time>2026-04-08T08:01:34.944Z</time></trkpt><trkpt lat="44.6219885" lon="10.0014703"><ele>215.5</ele><time>2026-04-08T08:01:35.944Z</time></trkpt><trkpt lat="44.6221843" lon="10.0017149"><ele>219.0</ele><time>2026-04-08T08:01:36.943Z</time></trkpt><trkpt lat="44.6223686" lon="10.0019761"><ele>219.0</ele><time>2026-04-08T08:01:37.943Z</time></trkpt><trkpt lat="44.6225381" lon="10.0022585"><ele>219.0</ele><time>2026-04-08T08:01:38.943Z</time></trkpt><trkpt lat="44.6226919" lon="10.0025535"><ele>217.5</ele><time>2026-04-08T08:01:39.944Z</time></trkpt><trkpt lat="44.6228322" lon="10.002862"><ele>216.0</ele><time>2026-04-08T08:01:40.943Z</time></trkpt><trkpt lat="44.6229552" lon="10.0031852"><ele>219.5</ele><time>2026-04-08T08:01:41.944Z</time></trkpt><trkpt lat="44.6230634" lon="10.003519"><ele>223.0</ele><time>2026-04-08T08:01:42.944Z</time></trkpt><trkpt lat="44.6231575" lon="10.0038615"><ele>228.5</ele><time>2026-04-08T08:01:43.943Z</time></trkpt><trkpt lat="44.6232334" lon="10.004214"><ele>234.0</ele><time>2026-04-08T08:01:44.944Z</time></trkpt><trkpt lat="44.6232942" lon="10.0045721"><ele>234.0</ele><time>2026-04-08T08:01:45.943Z</time></trkpt><trkpt lat="44.6233475" lon="10.0049302"><ele>234.0</ele><time>2026-04-08T08:01:46.943Z</time></trkpt><trkpt lat="44.6234037" lon="10.0052907"><ele>236.5</ele><time>2026-04-08T08:01:47.943Z</time></trkpt><trkpt lat="44.6234612" lon="10.0056501"><ele>239.0</ele><time>2026-04-08T08:01:48.943Z</time></trkpt><trkpt lat="44.6235204" lon="10.0060113"><ele>239.0</ele><time>2026-04-08T08:01:49.943Z</time></trkpt><trkpt lat="44.6235859" lon="10.0063697"><ele>239.0</ele><time>2026-04-08T08:01:50.943Z</time></trkpt><trkpt lat="44.6236681" lon="10.0067222"><ele>235.5</ele><time>2026-04-08T08:01:51.943Z</time></trkpt><trkpt lat="44.623769" lon="10.0070653"><ele>232.0</ele><time>2026-04-08T08:01:52.943Z</time></trkpt><trkpt lat="44.6238984" lon="10.0073909"><ele>235.0</ele><time>2026-04-08T08:01:53.944Z</time></trkpt><trkpt lat="44.6240477" lon="10.0076954"><ele>238.0</ele><time>2026-04-08T08:01:54.943Z</time></trkpt><trkpt lat="44.6242133" lon="10.0079811"><ele>238.0</ele><time>2026-04-08T08:01:55.943Z</time></trkpt><trkpt lat="44.6243907" lon="10.0082547"><ele>238.0</ele><time>2026-04-08T08:01:56.943Z</time></trkpt><trkpt lat="44.6245695" lon="10.0085248"><ele>236.5</ele><time>2026-04-08T08:01:57.943Z</time></trkpt><trkpt lat="44.6247499" lon="10.0087957"><ele>235.0</ele><time>2026-04-08T08:01:58.943Z</time></trkpt><trkpt lat="44.6249304" lon="10.0090685"><ele>237.0</ele><time>2026-04-08T08:01:59.943Z</time></trkpt><trkpt lat="44.6251108" lon="10.0093414"><ele>239.0</ele><time>2026-04-08T08:02:00.943Z</time></trkpt><trkpt lat="44.6252933" lon="10.0096132"><ele>235.0</ele><time>2026-04-08T08:02:01.944Z</time></trkpt><trkpt lat="44.6254743" lon="10.009885"><ele>231.0</ele><time>2026-04-08T08:02:02.944Z</time></trkpt><trkpt lat="44.6256559" lon="10.0101564"><ele>231.0</ele><time>2026-04-08T08:02:03.943Z</time></trkpt><trkpt lat="44.6258379" lon="10.0104261"><ele>231.0</ele><time>2026-04-08T08:02:04.943Z</time></trkpt><trkpt lat="44.6260186" lon="10.0106972"><ele>228.0</ele><time>2026-04-08T08:02:05.943Z</time></trkpt><trkpt lat="44.6262007" lon="10.0109678"><ele>225.0</ele><time>2026-04-08T08:02:06.943Z</time></trkpt><trkpt lat="44.6263891" lon="10.011222"><ele>225.0</ele><time>2026-04-08T08:02:07.943Z</time></trkpt><trkpt lat="44.626583" lon="10.0114399"><ele>225.0</ele><time>2026-04-08T08:02:08.943Z</time></trkpt><trkpt lat="44.6267831" lon="10.0116258"><ele>224.5</ele><time>2026-04-08T08:02:09.943Z</time></trkpt><trkpt lat="44.6269836" lon="10.0118059"><ele>224.0</ele><time>2026-04-08T08:02:10.944Z</time></trkpt><trkpt lat="44.6271801" lon="10.0119875"><ele>224.0</ele><time>2026-04-08T08:02:11.943Z</time></trkpt><trkpt lat="44.6273721" lon="10.0121689"><ele>224.0</ele><time>2026-04-08T08:02:12.943Z</time></trkpt><trkpt lat="44.6275631" lon="10.0123466"><ele>222.33333333333334</ele><time>2026-04-08T08:02:13.943Z</time></trkpt><trkpt lat="44.6277504" lon="10.0125224"><ele>220.66666666666669</ele><time>2026-04-08T08:02:14.944Z</time></trkpt><trkpt lat="44.6279272" lon="10.0127153"><ele>219.0</ele><time>2026-04-08T08:02:15.943Z</time></trkpt><trkpt lat="44.6280842" lon="10.0129343"><ele>219.0</ele><time>2026-04-08T08:02:16.944Z</time></trkpt><trkpt lat="44.6282174" lon="10.0131859"><ele>219.0</ele><time>2026-04-08T08:02:17.944Z</time></trkpt><trkpt lat="44.6283221" lon="10.0134677"><ele>219.0</ele><time>2026-04-08T08:02:18.943Z</time></trkpt><trkpt lat="44.6283915" lon="10.0137689"><ele>227.0</ele><time>2026-04-08T08:02:19.944Z</time></trkpt><trkpt lat="44.6284279" lon="10.0140843"><ele>235.0</ele><time>2026-04-08T08:02:20.944Z</time></trkpt><trkpt lat="44.6284359" lon="10.0144069"><ele>238.5</ele><time>2026-04-08T08:02:21.944Z</time></trkpt><trkpt lat="44.6284274" lon="10.0147331"><ele>242.0</ele><time>2026-04-08T08:02:22.943Z</time></trkpt><trkpt lat="44.6284165" lon="10.0150636"><ele>242.0</ele><time>2026-04-08T08:02:23.944Z</time></trkpt><trkpt lat="44.6284092" lon="10.0154008"><ele>242.0</ele><time>2026-04-08T08:02:24.943Z</time></trkpt><trkpt lat="44.6284015" lon="10.0157422"><ele>240.0</ele><time>2026-04-08T08:02:25.944Z</time></trkpt><trkpt lat="44.6283912" lon="10.0160872"><ele>238.0</ele><time>2026-04-08T08:02:26.943Z</time></trkpt><trkpt lat="44.6283778" lon="10.0164356"><ele>236.5</ele><time>2026-04-08T08:02:27.943Z</time></trkpt><trkpt lat="44.6283642" lon="10.0167894"><ele>235.0</ele><time>2026-04-08T08:02:28.944Z</time></trkpt><trkpt lat="44.6283494" lon="10.0171465"><ele>234.5</ele><time>2026-04-08T08:02:29.944Z</time></trkpt><trkpt lat="44.6283373" lon="10.0175067"><ele>234.0</ele><time>2026-04-08T08:02:30.944Z</time></trkpt><trkpt lat="44.6283256" lon="10.0178695"><ele>234.0</ele><time>2026-04-08T08:02:31.943Z</time></trkpt><trkpt lat="44.6283145" lon="10.0182345"><ele>234.0</ele><time>2026-04-08T08:02:32.943Z</time></trkpt><trkpt lat="44.6283092" lon="10.0185999"><ele>233.5</ele><time>2026-04-08T08:02:33.943Z</time></trkpt><trkpt lat="44.6283107" lon="10.0189639"><ele>233.0</ele><time>2026-04-08T08:02:34.943Z</time></trkpt><trkpt lat="44.6283182" lon="10.0193209"><ele>231.0</ele><time>2026-04-08T08:02:35.943Z</time></trkpt><trkpt lat="44.6283298" lon="10.0196671"><ele>229.0</ele><time>2026-04-08T08:02:36.943Z</time></trkpt><trkpt lat="44.6283412" lon="10.0200048"><ele>222.0</ele><time>2026-04-08T08:02:37.943Z</time></trkpt><trkpt lat="44.6283505" lon="10.0203327"><ele>215.0</ele><time>2026-04-08T08:02:38.943Z</time></trkpt><trkpt lat="44.6283629" lon="10.0206555"><ele>213.33333333333334</ele><time>2026-04-08T08:02:39.943Z</time></trkpt><trkpt lat="44.6283772" lon="10.0209705"><ele>211.66666666666669</ele><time>2026-04-08T08:02:40.943Z</time></trkpt><trkpt lat="44.6283958" lon="10.021274"><ele>210.0</ele><time>2026-04-08T08:02:41.943Z</time></trkpt><trkpt lat="44.6284344" lon="10.0215711"><ele>211.66666666666669</ele><time>2026-04-08T08:02:42.943Z</time></trkpt><trkpt lat="44.6285018" lon="10.0218554"><ele>213.33333333333334</ele><time>2026-04-08T08:02:43.944Z</time></trkpt><trkpt lat="44.6285907" lon="10.0221297"><ele>215.0</ele><time>2026-04-08T08:02:44.944Z</time></trkpt><trkpt lat="44.6286845" lon="10.022393"><ele>221.0</ele><time>2026-04-08T08:02:45.943Z</time></trkpt><trkpt lat="44.6287977" lon="10.0226218"><ele>227.0</ele><time>2026-04-08T08:02:46.944Z</time></trkpt><trkpt lat="44.6300015" lon="10.0244362"><ele>227.0</ele><time>2026-04-08T08:02:54.944Z</time></trkpt><trkpt lat="44.6301633" lon="10.0246555"><ele>227.0</ele><time>2026-04-08T08:02:55.944Z</time></trkpt><trkpt lat="44.6303227" lon="10.0248703"><ele>227.0</ele><time>2026-04-08T08:02:56.943Z</time></trkpt><trkpt lat="44.6304728" lon="10.0250907"><ele>223.66666666666669</ele><time>2026-04-08T08:02:57.943Z</time></trkpt><trkpt lat="44.6306189" lon="10.0253103"><ele>220.33333333333331</ele><time>2026-04-08T08:02:58.943Z</time></trkpt><trkpt lat="44.6307697" lon="10.025538"><ele>217.0</ele><time>2026-04-08T08:02:59.943Z</time></trkpt><trkpt lat="44.6309214" lon="10.0257659"><ele>213.0</ele><time>2026-04-08T08:03:00.943Z</time></trkpt><trkpt lat="44.6310736" lon="10.0259942"><ele>209.0</ele><time>2026-04-08T08:03:01.943Z</time></trkpt><trkpt lat="44.6312314" lon="10.0262266"><ele>209.0</ele><time>2026-04-08T08:03:02.944Z</time></trkpt><trkpt lat="44.6313894" lon="10.0264587"><ele>209.0</ele><time>2026-04-08T08:03:03.943Z</time></trkpt><trkpt lat="44.6315485" lon="10.0266941"><ele>212.5</ele><time>2026-04-08T08:03:04.944Z</time></trkpt><trkpt lat="44.631708" lon="10.0269336"><ele>216.0</ele><time>2026-04-08T08:03:05.943Z</time></trkpt><trkpt lat="44.6318692" lon="10.0271734"><ele>211.0</ele><time>2026-04-08T08:03:06.943Z</time></trkpt><trkpt lat="44.6320345" lon="10.0274185"><ele>206.0</ele><time>2026-04-08T08:03:07.944Z</time></trkpt><trkpt lat="44.6321974" lon="10.0276672"><ele>206.0</ele><time>2026-04-08T08:03:08.943Z</time></trkpt><trkpt lat="44.632362" lon="10.027919"><ele>206.0</ele><time>2026-04-08T08:03:09.943Z</time></trkpt><trkpt lat="44.6325268" lon="10.0281733"><ele>202.0</ele><time>2026-04-08T08:03:10.943Z</time></trkpt><trkpt lat="44.6326841" lon="10.0284348"><ele>198.0</ele><time>2026-04-08T08:03:11.943Z</time></trkpt><trkpt lat="44.6328328" lon="10.0287066"><ele>198.0</ele><time>2026-04-08T08:03:12.943Z</time></trkpt><trkpt lat="44.6329751" lon="10.0289835"><ele>198.0</ele><time>2026-04-08T08:03:13.943Z</time></trkpt><trkpt lat="44.633113" lon="10.0292658"><ele>202.5</ele><time>2026-04-08T08:03:14.943Z</time></trkpt><trkpt lat="44.6332417" lon="10.0295566"><ele>207.0</ele><time>2026-04-08T08:03:15.944Z</time></trkpt><trkpt lat="44.6333632" lon="10.0298525"><ele>213.0</ele><time>2026-04-08T08:03:16.944Z</time></trkpt><trkpt lat="44.633478" lon="10.0301512"><ele>219.0</ele><time>2026-04-08T08:03:17.943Z</time></trkpt><trkpt lat="44.6335842" lon="10.0304545"><ele>211.0</ele><time>2026-04-08T08:03:18.944Z</time></trkpt><trkpt lat="44.6336872" lon="10.0307648"><ele>203.0</ele><time>2026-04-08T08:03:19.943Z</time></trkpt><trkpt lat="44.633782" lon="10.0310754"><ele>203.0</ele><time>2026-04-08T08:03:20.943Z</time></trkpt><trkpt lat="44.6338702" lon="10.0313909"><ele>203.0</ele><time>2026-04-08T08:03:21.943Z</time></trkpt><trkpt lat="44.6339574" lon="10.0317126"><ele>205.0</ele><time>2026-04-08T08:03:22.943Z</time></trkpt><trkpt lat="44.6340421" lon="10.0320329"><ele>207.0</ele><time>2026-04-08T08:03:23.943Z</time></trkpt><trkpt lat="44.6341266" lon="10.0323568"><ele>211.0</ele><time>2026-04-08T08:03:24.943Z</time></trkpt><trkpt lat="44.6342108" lon="10.0326822"><ele>215.0</ele><time>2026-04-08T08:03:25.943Z</time></trkpt><trkpt lat="44.6342971" lon="10.0330135"><ele>220.0</ele><time>2026-04-08T08:03:26.943Z</time></trkpt><trkpt lat="44.6343875" lon="10.0333555"><ele>225.0</ele><time>2026-04-08T08:03:27.944Z</time></trkpt><trkpt lat="44.6344802" lon="10.0337142"><ele>213.5</ele><time>2026-04-08T08:03:28.943Z</time></trkpt><trkpt lat="44.6345742" lon="10.0340864"><ele>202.0</ele><time>2026-04-08T08:03:29.943Z</time></trkpt><trkpt lat="44.6346682" lon="10.0344624"><ele>202.0</ele><time>2026-04-08T08:03:30.944Z</time></trkpt><trkpt lat="44.6347603" lon="10.034832"><ele>202.0</ele><time>2026-04-08T08:03:31.943Z</time></trkpt><trkpt lat="44.6348641" lon="10.0351842"><ele>204.0</ele><time>2026-04-08T08:03:32.944Z</time></trkpt><trkpt lat="44.6349842" lon="10.0355181"><ele>206.0</ele><time>2026-04-08T08:03:33.944Z</time></trkpt><trkpt lat="44.6351239" lon="10.0358271"><ele>204.5</ele><time>2026-04-08T08:03:34.944Z</time></trkpt><trkpt lat="44.6352817" lon="10.0361135"><ele>203.0</ele><time>2026-04-08T08:03:35.944Z</time></trkpt><trkpt lat="44.6354507" lon="10.0363802"><ele>203.0</ele><time>2026-04-08T08:03:36.943Z</time></trkpt><trkpt lat="44.6356366" lon="10.0366215"><ele>203.0</ele><time>2026-04-08T08:03:37.943Z</time></trkpt><trkpt lat="44.6358353" lon="10.0368393"><ele>203.5</ele><time>2026-04-08T08:03:38.943Z</time></trkpt><trkpt lat="44.6360441" lon="10.0370325"><ele>204.0</ele><time>2026-04-08T08:03:39.943Z</time></trkpt><trkpt lat="44.6362599" lon="10.0372105"><ele>204.0</ele><time>2026-04-08T08:03:40.944Z</time></trkpt><trkpt lat="44.6364775" lon="10.0373853"><ele>204.0</ele><time>2026-04-08T08:03:41.943Z</time></trkpt><trkpt lat="44.636691" lon="10.0375655"><ele>202.0</ele><time>2026-04-08T08:03:42.943Z</time></trkpt><trkpt lat="44.6369054" lon="10.0377452"><ele>200.0</ele><time>2026-04-08T08:03:43.943Z</time></trkpt><trkpt lat="44.6371208" lon="10.0379246"><ele>200.0</ele><time>2026-04-08T08:03:44.943Z</time></trkpt><trkpt lat="44.6373368" lon="10.038103"><ele>200.0</ele><time>2026-04-08T08:03:45.943Z</time></trkpt><trkpt lat="44.6375482" lon="10.0382857"><ele>200.5</ele><time>2026-04-08T08:03:46.944Z</time></trkpt><trkpt lat="44.6377485" lon="10.0384904"><ele>201.0</ele><time>2026-04-08T08:03:47.944Z</time></trkpt><trkpt lat="44.6379335" lon="10.0387223"><ele>201.0</ele><time>2026-04-08T08:03:48.943Z</time></trkpt><trkpt lat="44.6381054" lon="10.0389768"><ele>201.0</ele><time>2026-04-08T08:03:49.944Z</time></trkpt><trkpt lat="44.6382594" lon="10.0392529"><ele>205.5</ele><time>2026-04-08T08:03:50.943Z</time></trkpt><trkpt lat="44.6383992" lon="10.0395458"><ele>210.0</ele><time>2026-04-08T08:03:51.943Z</time></trkpt><trkpt lat="44.6385167" lon="10.0398569"><ele>212.0</ele><time>2026-04-08T08:03:52.944Z</time></trkpt><trkpt lat="44.6386153" lon="10.0401794"><ele>214.0</ele><time>2026-04-08T08:03:53.943Z</time></trkpt><trkpt lat="44.6387118" lon="10.0405007"><ele>207.5</ele><time>2026-04-08T08:03:54.944Z</time></trkpt><trkpt lat="44.6388113" lon="10.040822"><ele>201.0</ele><time>2026-04-08T08:03:55.944Z</time></trkpt><trkpt lat="44.6389127" lon="10.0411406"><ele>201.0</ele><time>2026-04-08T08:03:56.943Z</time></trkpt><trkpt lat="44.6390192" lon="10.0414581"><ele>201.0</ele><time>2026-04-08T08:03:57.944Z</time></trkpt><trkpt lat="44.6391324" lon="10.0417674"><ele>203.0</ele><time>2026-04-08T08:03:58.943Z</time></trkpt><trkpt lat="44.6392573" lon="10.0420684"><ele>205.0</ele><time>2026-04-08T08:03:59.943Z</time></trkpt><trkpt lat="44.6393939" lon="10.042359"><ele>202.5</ele><time>2026-04-08T08:04:00.943Z</time></trkpt><trkpt lat="44.6395467" lon="10.0426398"><ele>200.0</ele><time>2026-04-08T08:04:01.944Z</time></trkpt><trkpt lat="44.6397141" lon="10.0429067"><ele>200.0</ele><time>2026-04-08T08:04:02.944Z</time></trkpt><trkpt lat="44.6398933" lon="10.0431577"><ele>200.0</ele><time>2026-04-08T08:04:03.944Z</time></trkpt><trkpt lat="44.6400854" lon="10.043396"><ele>198.5</ele><time>2026-04-08T08:04:04.943Z</time></trkpt><trkpt lat="44.6402854" lon="10.0436201"><ele>197.0</ele><time>2026-04-08T08:04:05.943Z</time></trkpt><trkpt lat="44.6404915" lon="10.0438366"><ele>197.0</ele><time>2026-04-08T08:04:06.944Z</time></trkpt><trkpt lat="44.6406997" lon="10.044052"><ele>197.0</ele><time>2026-04-08T08:04:07.943Z</time></trkpt><trkpt lat="44.6409086" lon="10.0442697"><ele>198.5</ele><time>2026-04-08T08:04:08.944Z</time></trkpt><trkpt lat="44.6411174" lon="10.0444876"><ele>200.0</ele><time>2026-04-08T08:04:09.944Z</time></trkpt><trkpt lat="44.6413277" lon="10.0447039"><ele>200.0</ele><time>2026-04-08T08:04:10.943Z</time></trkpt><trkpt lat="44.641545" lon="10.0449116"><ele>200.0</ele><time>2026-04-08T08:04:11.943Z</time></trkpt><trkpt lat="44.6417624" lon="10.0451199"><ele>198.0</ele><time>2026-04-08T08:04:12.944Z</time></trkpt><trkpt lat="44.641981" lon="10.0453266"><ele>196.0</ele><time>2026-04-08T08:04:13.943Z</time></trkpt><trkpt lat="44.6422032" lon="10.0455278"><ele>196.0</ele><time>2026-04-08T08:04:14.944Z</time></trkpt><trkpt lat="44.6424301" lon="10.0457201"><ele>196.0</ele><time>2026-04-08T08:04:15.944Z</time></trkpt><trkpt lat="44.6426664" lon="10.045895"><ele>195.0</ele><time>2026-04-08T08:04:16.943Z</time></trkpt><trkpt lat="44.6429096" lon="10.0460489"><ele>194.0</ele><time>2026-04-08T08:04:17.943Z</time></trkpt><trkpt lat="44.6431611" lon="10.0461798"><ele>194.0</ele><time>2026-04-08T08:04:18.943Z</time></trkpt><trkpt lat="44.6434203" lon="10.0462931"><ele>194.0</ele><time>2026-04-08T08:04:19.943Z</time></trkpt><trkpt lat="44.643683" lon="10.0463878"><ele>192.5</ele><time>2026-04-08T08:04:20.943Z</time></trkpt><trkpt lat="44.6439511" lon="10.046458"><ele>191.0</ele><time>2026-04-08T08:04:21.944Z</time></trkpt><trkpt lat="44.6442222" lon="10.0465118"><ele>190.0</ele><time>2026-04-08T08:04:22.944Z</time></trkpt><trkpt lat="44.6444995" lon="10.0465612"><ele>189.0</ele><time>2026-04-08T08:04:23.943Z</time></trkpt><trkpt lat="44.6447777" lon="10.0466147"><ele>191.5</ele><time>2026-04-08T08:04:24.944Z</time></trkpt><trkpt lat="44.6450588" lon="10.0466751"><ele>194.0</ele><time>2026-04-08T08:04:25.943Z</time></trkpt><trkpt lat="44.6453384" lon="10.0467478"><ele>194.0</ele><time>2026-04-08T08:04:26.943Z</time></trkpt><trkpt lat="44.645617" lon="10.0468439"><ele>194.0</ele><time>2026-04-08T08:04:27.943Z</time></trkpt><trkpt lat="44.6458912" lon="10.046971"><ele>191.5</ele><time>2026-04-08T08:04:28.944Z</time></trkpt><trkpt lat="44.6461561" lon="10.0471232"><ele>189.0</ele><time>2026-04-08T08:04:29.943Z</time></trkpt><trkpt lat="44.6464177" lon="10.047282"><ele>189.0</ele><time>2026-04-08T08:04:30.943Z</time></trkpt><trkpt lat="44.6466787" lon="10.0474425"><ele>189.0</ele><time>2026-04-08T08:04:31.943Z</time></trkpt><trkpt lat="44.6469389" lon="10.0475998"><ele>189.5</ele><time>2026-04-08T08:04:32.944Z</time></trkpt><trkpt lat="44.6471971" lon="10.047757"><ele>190.0</ele><time>2026-04-08T08:04:33.944Z</time></trkpt><trkpt lat="44.6474541" lon="10.0479076"><ele>190.0</ele><time>2026-04-08T08:04:34.943Z</time></trkpt><trkpt lat="44.6477124" lon="10.0480512"><ele>190.0</ele><time>2026-04-08T08:04:35.944Z</time></trkpt><trkpt lat="44.6479698" lon="10.0481903"><ele>192.0</ele><time>2026-04-08T08:04:36.943Z</time></trkpt><trkpt lat="44.6482289" lon="10.0483188"><ele>194.0</ele><time>2026-04-08T08:04:37.944Z</time></trkpt><trkpt lat="44.6484895" lon="10.0484422"><ele>192.5</ele><time>2026-04-08T08:04:38.944Z</time></trkpt><trkpt lat="44.6487547" lon="10.04854"><ele>191.0</ele><time>2026-04-08T08:04:39.944Z</time></trkpt><trkpt lat="44.6490246" lon="10.0486157"><ele>191.0</ele><time>2026-04-08T08:04:40.943Z</time></trkpt><trkpt lat="44.6492935" lon="10.0486909"><ele>191.0</ele><time>2026-04-08T08:04:41.944Z</time></trkpt><trkpt lat="44.6495617" lon="10.0487706"><ele>190.0</ele><time>2026-04-08T08:04:42.943Z</time></trkpt><trkpt lat="44.6498288" lon="10.048852"><ele>189.0</ele><time>2026-04-08T08:04:43.943Z</time></trkpt><trkpt lat="44.6500959" lon="10.0489349"><ele>186.5</ele><time>2026-04-08T08:04:44.943Z</time></trkpt><trkpt lat="44.6503632" lon="10.0490244"><ele>184.0</ele><time>2026-04-08T08:04:45.943Z</time></trkpt><trkpt lat="44.6506296" lon="10.0491185"><ele>186.5</ele><time>2026-04-08T08:04:46.943Z</time></trkpt><trkpt lat="44.6508983" lon="10.0492074"><ele>189.0</ele><time>2026-04-08T08:04:47.943Z</time></trkpt><trkpt lat="44.6511657" lon="10.0492919"><ele>189.0</ele><time>2026-04-08T08:04:48.943Z</time></trkpt><trkpt lat="44.6514339" lon="10.0493729"><ele>189.0</ele><time>2026-04-08T08:04:49.943Z</time></trkpt><trkpt lat="44.6517033" lon="10.049452"><ele>186.0</ele><time>2026-04-08T08:04:50.944Z</time></trkpt><trkpt lat="44.6519718" lon="10.0495367"><ele>183.0</ele><time>2026-04-08T08:04:51.943Z</time></trkpt><trkpt lat="44.6522454" lon="10.0496292"><ele>183.0</ele><time>2026-04-08T08:04:52.944Z</time></trkpt><trkpt lat="44.6525225" lon="10.0497371"><ele>183.0</ele><time>2026-04-08T08:04:53.943Z</time></trkpt><trkpt lat="44.6528054" lon="10.0498643"><ele>182.5</ele><time>2026-04-08T08:04:54.943Z</time></trkpt><trkpt lat="44.6530935" lon="10.050008"><ele>182.0</ele><time>2026-04-08T08:04:55.943Z</time></trkpt><trkpt lat="44.6533844" lon="10.0501628"><ele>178.0</ele><time>2026-04-08T08:04:56.944Z</time></trkpt><trkpt lat="44.6536787" lon="10.0503343"><ele>174.0</ele><time>2026-04-08T08:04:57.944Z</time></trkpt><trkpt lat="44.6539737" lon="10.050526"><ele>174.0</ele><time>2026-04-08T08:04:58.943Z</time></trkpt><trkpt lat="44.6542658" lon="10.0507318"><ele>174.0</ele><time>2026-04-08T08:04:59.943Z</time></trkpt><trkpt lat="44.6545508" lon="10.0509495"><ele>174.0</ele><time>2026-04-08T08:05:00.943Z</time></trkpt><trkpt lat="44.6548339" lon="10.051171"><ele>174.0</ele><time>2026-04-08T08:05:01.943Z</time></trkpt><trkpt lat="44.6551126" lon="10.0513954"><ele>172.5</ele><time>2026-04-08T08:05:02.944Z</time></trkpt><trkpt lat="44.6553914" lon="10.0516186"><ele>171.0</ele><time>2026-04-08T08:05:03.943Z</time></trkpt><trkpt lat="44.6556687" lon="10.0518427"><ele>171.0</ele><time>2026-04-08T08:05:04.943Z</time></trkpt><trkpt lat="44.6559431" lon="10.0520646"><ele>171.0</ele><time>2026-04-08T08:05:05.944Z</time></trkpt><trkpt lat="44.6562167" lon="10.052281"><ele>170.0</ele><time>2026-04-08T08:05:06.943Z</time></trkpt><trkpt lat="44.656489" lon="10.0524949"><ele>169.0</ele><time>2026-04-08T08:05:07.943Z</time></trkpt><trkpt lat="44.6567612" lon="10.0527078"><ele>170.0</ele><time>2026-04-08T08:05:08.943Z</time></trkpt><trkpt lat="44.657033" lon="10.0529154"><ele>171.0</ele><time>2026-04-08T08:05:09.944Z</time></trkpt><trkpt lat="44.6573057" lon="10.0531159"><ele>171.5</ele><time>2026-04-08T08:05:10.944Z</time></trkpt><trkpt lat="44.6575782" lon="10.0533158"><ele>172.0</ele><time>2026-04-08T08:05:11.943Z</time></trkpt><trkpt lat="44.6578516" lon="10.0535103"><ele>175.0</ele><time>2026-04-08T08:05:12.944Z</time></trkpt><trkpt lat="44.6581274" lon="10.053697"><ele>178.0</ele><time>2026-04-08T08:05:13.944Z</time></trkpt><trkpt lat="44.6584042" lon="10.0538768"><ele>179.5</ele><time>2026-04-08T08:05:14.943Z</time></trkpt><trkpt lat="44.6586847" lon="10.0540475"><ele>181.0</ele><time>2026-04-08T08:05:15.944Z</time></trkpt><trkpt lat="44.6589646" lon="10.0542141"><ele>181.0</ele><time>2026-04-08T08:05:16.943Z</time></trkpt><trkpt lat="44.6592417" lon="10.0543842"><ele>181.0</ele><time>2026-04-08T08:05:17.943Z</time></trkpt><trkpt lat="44.6595176" lon="10.0545607"><ele>185.5</ele><time>2026-04-08T08:05:18.944Z</time></trkpt><trkpt lat="44.6597941" lon="10.0547355"><ele>190.0</ele><time>2026-04-08T08:05:19.944Z</time></trkpt><trkpt lat="44.660073" lon="10.0549029"><ele>188.5</ele><time>2026-04-08T08:05:20.943Z</time></trkpt><trkpt lat="44.6603539" lon="10.0550674"><ele>187.0</ele><time>2026-04-08T08:05:21.943Z</time></trkpt><trkpt lat="44.6606339" lon="10.055231"><ele>187.0</ele><time>2026-04-08T08:05:22.943Z</time></trkpt><trkpt lat="44.6609142" lon="10.0553994"><ele>187.0</ele><time>2026-04-08T08:05:23.944Z</time></trkpt><trkpt lat="44.6611941" lon="10.055568"><ele>186.5</ele><time>2026-04-08T08:05:24.943Z</time></trkpt><trkpt lat="44.6614731" lon="10.0557395"><ele>186.0</ele><time>2026-04-08T08:05:25.943Z</time></trkpt><trkpt lat="44.6617516" lon="10.0559102"><ele>179.0</ele><time>2026-04-08T08:05:26.944Z</time></trkpt><trkpt lat="44.6620299" lon="10.0560816"><ele>172.0</ele><time>2026-04-08T08:05:27.943Z</time></trkpt><trkpt lat="44.6623071" lon="10.0562503"><ele>172.0</ele><time>2026-04-08T08:05:28.943Z</time></trkpt><trkpt lat="44.6625857" lon="10.0564171"><ele>172.0</ele><time>2026-04-08T08:05:29.943Z</time></trkpt><trkpt lat="44.6628657" lon="10.0565849"><ele>170.0</ele><time>2026-04-08T08:05:30.943Z</time></trkpt><trkpt lat="44.6631461" lon="10.0567539"><ele>168.0</ele><time>2026-04-08T08:05:31.943Z</time></trkpt><trkpt lat="44.6634278" lon="10.0569272"><ele>168.0</ele><time>2026-04-08T08:05:32.944Z</time></trkpt><trkpt lat="44.6637064" lon="10.0571014"><ele>168.0</ele><time>2026-04-08T08:05:33.943Z</time></trkpt><trkpt lat="44.6639875" lon="10.0572702"><ele>168.0</ele><time>2026-04-08T08:05:34.943Z</time></trkpt><trkpt lat="44.6642677" lon="10.0574365"><ele>168.0</ele><time>2026-04-08T08:05:35.943Z</time></trkpt><trkpt lat="44.664547" lon="10.0576035"><ele>166.0</ele><time>2026-04-08T08:05:36.944Z</time></trkpt><trkpt lat="44.6648214" lon="10.0577771"><ele>164.0</ele><time>2026-04-08T08:05:37.943Z</time></trkpt><trkpt lat="44.6650928" lon="10.0579593"><ele>163.5</ele><time>2026-04-08T08:05:38.944Z</time></trkpt><trkpt lat="44.6653631" lon="10.0581362"><ele>163.0</ele><time>2026-04-08T08:05:39.943Z</time></trkpt><trkpt lat="44.6656352" lon="10.0583065"><ele>163.0</ele><time>2026-04-08T08:05:40.943Z</time></trkpt><trkpt lat="44.6659062" lon="10.0584737"><ele>163.0</ele><time>2026-04-08T08:05:41.944Z</time></trkpt><trkpt lat="44.666175" lon="10.0586375"><ele>162.0</ele><time>2026-04-08T08:05:42.943Z</time></trkpt><trkpt lat="44.666443" lon="10.0588008"><ele>161.0</ele><time>2026-04-08T08:05:43.944Z</time></trkpt><trkpt lat="44.666709" lon="10.0589628"><ele>162.0</ele><time>2026-04-08T08:05:44.943Z</time></trkpt><trkpt lat="44.6669732" lon="10.0591242"><ele>163.0</ele><time>2026-04-08T08:05:45.943Z</time></trkpt><trkpt lat="44.6672362" lon="10.0592844"><ele>163.0</ele><time>2026-04-08T08:05:46.943Z</time></trkpt><trkpt lat="44.6674969" lon="10.0594404"><ele>163.0</ele><time>2026-04-08T08:05:47.943Z</time></trkpt><trkpt lat="44.6677558" lon="10.0595966"><ele>162.0</ele><time>2026-04-08T08:05:48.943Z</time></trkpt><trkpt lat="44.6680123" lon="10.0597549"><ele>161.0</ele><time>2026-04-08T08:05:49.944Z</time></trkpt><trkpt lat="44.668268" lon="10.0599136"><ele>161.5</ele><time>2026-04-08T08:05:50.943Z</time></trkpt><trkpt lat="44.6685232" lon="10.0600658"><ele>162.0</ele><time>2026-04-08T08:05:51.944Z</time></trkpt><trkpt lat="44.668777" lon="10.0602222"><ele>161.0</ele><time>2026-04-08T08:05:52.943Z</time></trkpt><trkpt lat="44.6690304" lon="10.0603817"><ele>160.0</ele><time>2026-04-08T08:05:53.944Z</time></trkpt><trkpt lat="44.6692726" lon="10.0605739"><ele>160.0</ele><time>2026-04-08T08:05:54.943Z</time></trkpt><trkpt lat="44.6695074" lon="10.060784"><ele>160.0</ele><time>2026-04-08T08:05:55.943Z</time></trkpt><trkpt lat="44.6697455" lon="10.0609899"><ele>160.0</ele><time>2026-04-08T08:05:56.944Z</time></trkpt><trkpt lat="44.6699857" lon="10.0611918"><ele>160.0</ele><time>2026-04-08T08:05:57.944Z</time></trkpt><trkpt lat="44.6702241" lon="10.0613969"><ele>159.0</ele><time>2026-04-08T08:05:58.944Z</time></trkpt><trkpt lat="44.6704659" lon="10.061601"><ele>158.0</ele><time>2026-04-08T08:05:59.943Z</time></trkpt><trkpt lat="44.6707076" lon="10.0618037"><ele>158.0</ele><time>2026-04-08T08:06:00.943Z</time></trkpt><trkpt lat="44.6709506" lon="10.0620099"><ele>158.0</ele><time>2026-04-08T08:06:01.943Z</time></trkpt><trkpt lat="44.6711938" lon="10.0622181"><ele>157.0</ele><time>2026-04-08T08:06:02.943Z</time></trkpt><trkpt lat="44.6714385" lon="10.0624291"><ele>156.0</ele><time>2026-04-08T08:06:03.943Z</time></trkpt><trkpt lat="44.6716824" lon="10.0626362"><ele>156.0</ele><time>2026-04-08T08:06:04.943Z</time></trkpt><trkpt lat="44.6719275" lon="10.0628425"><ele>156.0</ele><time>2026-04-08T08:06:05.943Z</time></trkpt><trkpt lat="44.672175" lon="10.0630504"><ele>157.0</ele><time>2026-04-08T08:06:06.943Z</time></trkpt><trkpt lat="44.672423" lon="10.0632586"><ele>158.0</ele><time>2026-04-08T08:06:07.943Z</time></trkpt><trkpt lat="44.6726723" lon="10.0634665"><ele>157.5</ele><time>2026-04-08T08:06:08.943Z</time></trkpt><trkpt lat="44.6729219" lon="10.0636749"><ele>157.0</ele><time>2026-04-08T08:06:09.943Z</time></trkpt><trkpt lat="44.673171" lon="10.0638866"><ele>157.0</ele><time>2026-04-08T08:06:10.943Z</time></trkpt><trkpt lat="44.673423" lon="10.0640975"><ele>157.0</ele><time>2026-04-08T08:06:11.944Z</time></trkpt><trkpt lat="44.673672" lon="10.0643079"><ele>155.5</ele><time>2026-04-08T08:06:12.943Z</time></trkpt><trkpt lat="44.6739217" lon="10.0645158"><ele>154.0</ele><time>2026-04-08T08:06:13.943Z</time></trkpt><trkpt lat="44.6741682" lon="10.064724"><ele>154.0</ele><time>2026-04-08T08:06:14.943Z</time></trkpt><trkpt lat="44.6744172" lon="10.0649261"><ele>154.0</ele><time>2026-04-08T08:06:15.944Z</time></trkpt><trkpt lat="44.6746673" lon="10.0651247"><ele>153.5</ele><time>2026-04-08T08:06:16.944Z</time></trkpt><trkpt lat="44.6749152" lon="10.065325"><ele>153.0</ele><time>2026-04-08T08:06:17.943Z</time></trkpt><trkpt lat="44.6751625" lon="10.0655293"><ele>153.5</ele><time>2026-04-08T08:06:18.944Z</time></trkpt><trkpt lat="44.6754051" lon="10.0657371"><ele>154.0</ele><time>2026-04-08T08:06:19.943Z</time></trkpt><trkpt lat="44.6756395" lon="10.0659669"><ele>154.0</ele><time>2026-04-08T08:06:20.943Z</time></trkpt><trkpt lat="44.6758639" lon="10.0662129"><ele>154.0</ele><time>2026-04-08T08:06:21.944Z</time></trkpt><trkpt lat="44.676082" lon="10.0664729"><ele>155.0</ele><time>2026-04-08T08:06:22.944Z</time></trkpt><trkpt lat="44.676291" lon="10.0667431"><ele>156.0</ele><time>2026-04-08T08:06:23.943Z</time></trkpt><trkpt lat="44.6764919" lon="10.0670232"><ele>156.0</ele><time>2026-04-08T08:06:24.943Z</time></trkpt><trkpt lat="44.6766836" lon="10.0673171"><ele>156.0</ele><time>2026-04-08T08:06:25.943Z</time></trkpt><trkpt lat="44.6768702" lon="10.0676233"><ele>153.5</ele><time>2026-04-08T08:06:26.943Z</time></trkpt><trkpt lat="44.6770456" lon="10.0679364"><ele>151.0</ele><time>2026-04-08T08:06:27.943Z</time></trkpt><trkpt lat="44.6772121" lon="10.0682601"><ele>151.0</ele><time>2026-04-08T08:06:28.944Z</time></trkpt><trkpt lat="44.6773692" lon="10.0685927"><ele>151.0</ele><time>2026-04-08T08:06:29.943Z</time></trkpt><trkpt lat="44.6775168" lon="10.0689337"><ele>151.5</ele><time>2026-04-08T08:06:30.943Z</time></trkpt><trkpt lat="44.6776565" lon="10.0692775"><ele>152.0</ele><time>2026-04-08T08:06:31.943Z</time></trkpt><trkpt lat="44.6777918" lon="10.0696239"><ele>153.0</ele><time>2026-04-08T08:06:32.944Z</time></trkpt><trkpt lat="44.6779288" lon="10.0699733"><ele>154.0</ele><time>2026-04-08T08:06:33.944Z</time></trkpt><trkpt lat="44.6780664" lon="10.0703235"><ele>154.0</ele><time>2026-04-08T08:06:34.943Z</time></trkpt><trkpt lat="44.6782042" lon="10.0706764"><ele>154.0</ele><time>2026-04-08T08:06:35.943Z</time></trkpt><trkpt lat="44.6783459" lon="10.0710281"><ele>154.5</ele><time>2026-04-08T08:06:36.943Z</time></trkpt><trkpt lat="44.6784847" lon="10.0713825"><ele>155.0</ele><time>2026-04-08T08:06:37.943Z</time></trkpt><trkpt lat="44.6786248" lon="10.0717374"><ele>155.5</ele><time>2026-04-08T08:06:38.944Z</time></trkpt><trkpt lat="44.6787646" lon="10.0720961"><ele>156.0</ele><time>2026-04-08T08:06:39.943Z</time></trkpt><trkpt lat="44.6789039" lon="10.0724569"><ele>155.0</ele><time>2026-04-08T08:06:40.943Z</time></trkpt><trkpt lat="44.6790462" lon="10.0728224"><ele>154.0</ele><time>2026-04-08T08:06:41.944Z</time></trkpt><trkpt lat="44.6791865" lon="10.0731891"><ele>154.0</ele><time>2026-04-08T08:06:42.944Z</time></trkpt><trkpt lat="44.6793235" lon="10.0735577"><ele>154.0</ele><time>2026-04-08T08:06:43.944Z</time></trkpt><trkpt lat="44.6794613" lon="10.0739276"><ele>155.0</ele><time>2026-04-08T08:06:44.943Z</time></trkpt><trkpt lat="44.6796009" lon="10.0742982"><ele>156.0</ele><time>2026-04-08T08:06:45.943Z</time></trkpt><trkpt lat="44.6797448" lon="10.0746667"><ele>156.0</ele><time>2026-04-08T08:06:46.944Z</time></trkpt><trkpt lat="44.6798985" lon="10.0750301"><ele>156.0</ele><time>2026-04-08T08:06:47.943Z</time></trkpt><trkpt lat="44.6800663" lon="10.075379"><ele>156.0</ele><time>2026-04-08T08:06:48.944Z</time></trkpt><trkpt lat="44.6802378" lon="10.0757242"><ele>156.0</ele><time>2026-04-08T08:06:49.944Z</time></trkpt><trkpt lat="44.6804249" lon="10.0760489"><ele>157.0</ele><time>2026-04-08T08:06:50.944Z</time></trkpt><trkpt lat="44.6806178" lon="10.0763641"><ele>158.0</ele><time>2026-04-08T08:06:51.943Z</time></trkpt><trkpt lat="44.6808145" lon="10.0766706"><ele>158.0</ele><time>2026-04-08T08:06:52.944Z</time></trkpt><trkpt lat="44.6810144" lon="10.0769698"><ele>158.0</ele><time>2026-04-08T08:06:53.944Z</time></trkpt><trkpt lat="44.6812224" lon="10.0772608"><ele>157.5</ele><time>2026-04-08T08:06:54.943Z</time></trkpt><trkpt lat="44.6814359" lon="10.0775427"><ele>157.0</ele><time>2026-04-08T08:06:55.943Z</time></trkpt><trkpt lat="44.6816542" lon="10.077812"><ele>157.0</ele><time>2026-04-08T08:06:56.943Z</time></trkpt><trkpt lat="44.6818782" lon="10.0780739"><ele>157.0</ele><time>2026-04-08T08:06:57.944Z</time></trkpt><trkpt lat="44.6821027" lon="10.0783352"><ele>156.5</ele><time>2026-04-08T08:06:58.943Z</time></trkpt><trkpt lat="44.6823258" lon="10.0785967"><ele>156.0</ele><time>2026-04-08T08:06:59.944Z</time></trkpt><trkpt lat="44.6825501" lon="10.0788579"><ele>154.0</ele><time>2026-04-08T08:07:00.943Z</time></trkpt><trkpt lat="44.682775" lon="10.0791193"><ele>152.0</ele><time>2026-04-08T08:07:01.943Z</time></trkpt><trkpt lat="44.683" lon="10.0793795"><ele>152.0</ele><time>2026-04-08T08:07:02.944Z</time></trkpt><trkpt lat="44.6832269" lon="10.0796357"><ele>152.0</ele><time>2026-04-08T08:07:03.944Z</time></trkpt><trkpt lat="44.6834523" lon="10.0798945"><ele>151.5</ele><time>2026-04-08T08:07:04.943Z</time></trkpt><trkpt lat="44.6836757" lon="10.080159"><ele>151.0</ele><time>2026-04-08T08:07:05.943Z</time></trkpt><trkpt lat="44.6838993" lon="10.080422"><ele>151.0</ele><time>2026-04-08T08:07:06.944Z</time></trkpt><trkpt lat="44.684127" lon="10.080682"><ele>151.0</ele><time>2026-04-08T08:07:07.944Z</time></trkpt><trkpt lat="44.6843543" lon="10.080941"><ele>152.0</ele><time>2026-04-08T08:07:08.943Z</time></trkpt><trkpt lat="44.6845803" lon="10.0812002"><ele>153.0</ele><time>2026-04-08T08:07:09.943Z</time></trkpt><trkpt lat="44.6848062" lon="10.0814562"><ele>152.5</ele><time>2026-04-08T08:07:10.944Z</time></trkpt><trkpt lat="44.6850327" lon="10.0817136"><ele>152.0</ele><time>2026-04-08T08:07:11.944Z</time></trkpt><trkpt lat="44.6852628" lon="10.0819577"><ele>152.0</ele><time>2026-04-08T08:07:12.943Z</time></trkpt><trkpt lat="44.6854983" lon="10.0821864"><ele>152.0</ele><time>2026-04-08T08:07:13.944Z</time></trkpt><trkpt lat="44.6857424" lon="10.0824004"><ele>151.5</ele><time>2026-04-08T08:07:14.944Z</time></trkpt><trkpt lat="44.6859912" lon="10.0826038"><ele>151.0</ele><time>2026-04-08T08:07:15.944Z</time></trkpt><trkpt lat="44.686244" lon="10.0827969"><ele>151.0</ele><time>2026-04-08T08:07:16.943Z</time></trkpt><trkpt lat="44.6865025" lon="10.0829784"><ele>151.0</ele><time>2026-04-08T08:07:17.944Z</time></trkpt><trkpt lat="44.6867641" lon="10.0831504"><ele>150.0</ele><time>2026-04-08T08:07:18.943Z</time></trkpt><trkpt lat="44.687033" lon="10.0833072"><ele>149.0</ele><time>2026-04-08T08:07:19.944Z</time></trkpt><trkpt lat="44.6873059" lon="10.0834477"><ele>149.0</ele><time>2026-04-08T08:07:20.943Z</time></trkpt><trkpt lat="44.6875821" lon="10.083574"><ele>149.0</ele><time>2026-04-08T08:07:21.943Z</time></trkpt><trkpt lat="44.687862" lon="10.0836883"><ele>148.5</ele><time>2026-04-08T08:07:22.943Z</time></trkpt><trkpt lat="44.6881457" lon="10.0837877"><ele>148.0</ele><time>2026-04-08T08:07:23.943Z</time></trkpt><trkpt lat="44.6884322" lon="10.0838713"><ele>147.0</ele><time>2026-04-08T08:07:24.943Z</time></trkpt><trkpt lat="44.6887189" lon="10.0839447"><ele>146.0</ele><time>2026-04-08T08:07:25.943Z</time></trkpt><trkpt lat="44.6890062" lon="10.084018"><ele>146.0</ele><time>2026-04-08T08:07:26.943Z</time></trkpt><trkpt lat="44.6892911" lon="10.0840936"><ele>146.0</ele><time>2026-04-08T08:07:27.943Z</time></trkpt><trkpt lat="44.6895743" lon="10.0841698"><ele>144.0</ele><time>2026-04-08T08:07:28.943Z</time></trkpt><trkpt lat="44.6898568" lon="10.084244"><ele>142.0</ele><time>2026-04-08T08:07:29.943Z</time></trkpt><trkpt lat="44.6901389" lon="10.0843134"><ele>142.0</ele><time>2026-04-08T08:07:30.944Z</time></trkpt><trkpt lat="44.6904177" lon="10.0843776"><ele>142.0</ele><time>2026-04-08T08:07:31.944Z</time></trkpt><trkpt lat="44.6906948" lon="10.0844444"><ele>142.0</ele><time>2026-04-08T08:07:32.943Z</time></trkpt><trkpt lat="44.690971" lon="10.0845106"><ele>142.0</ele><time>2026-04-08T08:07:33.943Z</time></trkpt><trkpt lat="44.6912473" lon="10.0845782"><ele>145.5</ele><time>2026-04-08T08:07:34.943Z</time></trkpt><trkpt lat="44.6915212" lon="10.0846481"><ele>149.0</ele><time>2026-04-08T08:07:35.943Z</time></trkpt><trkpt lat="44.6917937" lon="10.084719"><ele>151.0</ele><time>2026-04-08T08:07:36.943Z</time></trkpt><trkpt lat="44.6920646" lon="10.0847954"><ele>153.0</ele><time>2026-04-08T08:07:37.943Z</time></trkpt><trkpt lat="44.6923334" lon="10.0848894"><ele>151.5</ele><time>2026-04-08T08:07:38.943Z</time></trkpt><trkpt lat="44.6925974" lon="10.0850004"><ele>150.0</ele><time>2026-04-08T08:07:39.943Z</time></trkpt><trkpt lat="44.6928574" lon="10.0851302"><ele>150.0</ele><time>2026-04-08T08:07:40.943Z</time></trkpt><trkpt lat="44.6931124" lon="10.0852834"><ele>150.0</ele><time>2026-04-08T08:07:41.943Z</time></trkpt><trkpt lat="44.6933613" lon="10.0854603"><ele>151.5</ele><time>2026-04-08T08:07:42.943Z</time></trkpt><trkpt lat="44.6936005" lon="10.085656"><ele>153.0</ele><time>2026-04-08T08:07:43.943Z</time></trkpt><trkpt lat="44.6938359" lon="10.0858645"><ele>150.0</ele><time>2026-04-08T08:07:44.943Z</time></trkpt><trkpt lat="44.694066" lon="10.0860839"><ele>147.0</ele><time>2026-04-08T08:07:45.943Z</time></trkpt><trkpt lat="44.6942885" lon="10.0863197"><ele>148.0</ele><time>2026-04-08T08:07:46.943Z</time></trkpt><trkpt lat="44.6944991" lon="10.0865734"><ele>149.0</ele><time>2026-04-08T08:07:47.943Z</time></trkpt><trkpt lat="44.6947021" lon="10.0868387"><ele>149.0</ele><time>2026-04-08T08:07:48.944Z</time></trkpt><trkpt lat="44.6949009" lon="10.0871089"><ele>149.0</ele><time>2026-04-08T08:07:49.943Z</time></trkpt><trkpt lat="44.6951005" lon="10.087381"><ele>149.0</ele><time>2026-04-08T08:07:50.944Z</time></trkpt><trkpt lat="44.6952978" lon="10.087656"><ele>149.0</ele><time>2026-04-08T08:07:51.943Z</time></trkpt><trkpt lat="44.6954953" lon="10.0879292"><ele>149.0</ele><time>2026-04-08T08:07:52.943Z</time></trkpt><trkpt lat="44.6957043" lon="10.0881913"><ele>149.0</ele><time>2026-04-08T08:07:53.944Z</time></trkpt><trkpt lat="44.695926" lon="10.0884318"><ele>149.0</ele><time>2026-04-08T08:07:54.943Z</time></trkpt><trkpt lat="44.6961602" lon="10.0886489"><ele>149.0</ele><time>2026-04-08T08:07:55.944Z</time></trkpt><trkpt lat="44.6964044" lon="10.0888402"><ele>149.0</ele><time>2026-04-08T08:07:56.944Z</time></trkpt><trkpt lat="44.6966594" lon="10.0890128"><ele>149.0</ele><time>2026-04-08T08:07:57.943Z</time></trkpt><trkpt lat="44.6969145" lon="10.0891836"><ele>147.5</ele><time>2026-04-08T08:07:58.943Z</time></trkpt><trkpt lat="44.6971671" lon="10.0893575"><ele>146.0</ele><time>2026-04-08T08:07:59.943Z</time></trkpt><trkpt lat="44.6974163" lon="10.0895373"><ele>146.0</ele><time>2026-04-08T08:08:00.943Z</time></trkpt><trkpt lat="44.6976607" lon="10.0897249"><ele>146.0</ele><time>2026-04-08T08:08:01.943Z</time></trkpt><trkpt lat="44.6979061" lon="10.0899152"><ele>145.0</ele><time>2026-04-08T08:08:02.943Z</time></trkpt><trkpt lat="44.6981322" lon="10.0901466"><ele>144.0</ele><time>2026-04-08T08:08:03.943Z</time></trkpt><trkpt lat="44.6983566" lon="10.0903857"><ele>144.0</ele><time>2026-04-08T08:08:04.944Z</time></trkpt><trkpt lat="44.6985779" lon="10.0906314"><ele>144.0</ele><time>2026-04-08T08:08:05.944Z</time></trkpt><trkpt lat="44.6987986" lon="10.0908761"><ele>142.5</ele><time>2026-04-08T08:08:06.943Z</time></trkpt><trkpt lat="44.6990235" lon="10.0911184"><ele>141.0</ele><time>2026-04-08T08:08:07.943Z</time></trkpt><trkpt lat="44.6992508" lon="10.091361"><ele>141.0</ele><time>2026-04-08T08:08:08.944Z</time></trkpt><trkpt lat="44.6994782" lon="10.0916025"><ele>141.0</ele><time>2026-04-08T08:08:09.944Z</time></trkpt><trkpt lat="44.6997042" lon="10.0918489"><ele>141.0</ele><time>2026-04-08T08:08:10.944Z</time></trkpt><trkpt lat="44.6999256" lon="10.0921035"><ele>141.0</ele><time>2026-04-08T08:08:11.944Z</time></trkpt><trkpt lat="44.7001464" lon="10.0923676"><ele>140.0</ele><time>2026-04-08T08:08:12.943Z</time></trkpt><trkpt lat="44.7003595" lon="10.0926462"><ele>139.0</ele><time>2026-04-08T08:08:13.943Z</time></trkpt><trkpt lat="44.7005701" lon="10.0929259"><ele>139.0</ele><time>2026-04-08T08:08:14.943Z</time></trkpt><trkpt lat="44.7007756" lon="10.0932106"><ele>139.0</ele><time>2026-04-08T08:08:15.943Z</time></trkpt><trkpt lat="44.7009822" lon="10.0934939"><ele>140.0</ele><time>2026-04-08T08:08:16.943Z</time></trkpt><trkpt lat="44.7011883" lon="10.0937732"><ele>141.0</ele><time>2026-04-08T08:08:17.943Z</time></trkpt><trkpt lat="44.701392" lon="10.0940528"><ele>138.5</ele><time>2026-04-08T08:08:18.943Z</time></trkpt><trkpt lat="44.7015911" lon="10.0943362"><ele>136.0</ele><time>2026-04-08T08:08:19.944Z</time></trkpt><trkpt lat="44.7017845" lon="10.0946249"><ele>136.0</ele><time>2026-04-08T08:08:20.944Z</time></trkpt><trkpt lat="44.7019799" lon="10.0949121"><ele>136.0</ele><time>2026-04-08T08:08:21.943Z</time></trkpt><trkpt lat="44.7021772" lon="10.0951949"><ele>136.0</ele><time>2026-04-08T08:08:22.943Z</time></trkpt><trkpt lat="44.7023772" lon="10.0954786"><ele>136.0</ele><time>2026-04-08T08:08:23.943Z</time></trkpt><trkpt lat="44.7025776" lon="10.0957575"><ele>136.0</ele><time>2026-04-08T08:08:24.944Z</time></trkpt><trkpt lat="44.7027788" lon="10.0960328"><ele>136.0</ele><time>2026-04-08T08:08:25.943Z</time></trkpt><trkpt lat="44.7029799" lon="10.0963081"><ele>136.0</ele><time>2026-04-08T08:08:26.943Z</time></trkpt><trkpt lat="44.7031791" lon="10.0965818"><ele>136.0</ele><time>2026-04-08T08:08:27.943Z</time></trkpt><trkpt lat="44.7033787" lon="10.0968576"><ele>136.0</ele><time>2026-04-08T08:08:28.943Z</time></trkpt><trkpt lat="44.7035759" lon="10.0971352"><ele>136.0</ele><time>2026-04-08T08:08:29.944Z</time></trkpt><trkpt lat="44.7037723" lon="10.0974136"><ele>135.0</ele><time>2026-04-08T08:08:30.943Z</time></trkpt><trkpt lat="44.7039702" lon="10.0976915"><ele>134.0</ele><time>2026-04-08T08:08:31.943Z</time></trkpt><trkpt lat="44.7041679" lon="10.0979672"><ele>134.0</ele><time>2026-04-08T08:08:32.943Z</time></trkpt><trkpt lat="44.7043677" lon="10.0982475"><ele>134.0</ele><time>2026-04-08T08:08:33.943Z</time></trkpt><trkpt lat="44.7045652" lon="10.0985264"><ele>134.5</ele><time>2026-04-08T08:08:34.943Z</time></trkpt><trkpt lat="44.7047663" lon="10.0988018"><ele>135.0</ele><time>2026-04-08T08:08:35.943Z</time></trkpt><trkpt lat="44.7049684" lon="10.0990778"><ele>134.5</ele><time>2026-04-08T08:08:36.943Z</time></trkpt><trkpt lat="44.7051698" lon="10.0993533"><ele>134.0</ele><time>2026-04-08T08:08:37.943Z</time></trkpt><trkpt lat="44.7053707" lon="10.0996272"><ele>134.0</ele><time>2026-04-08T08:08:38.944Z</time></trkpt><trkpt lat="44.7055744" lon="10.0999027"><ele>134.0</ele><time>2026-04-08T08:08:39.943Z</time></trkpt><trkpt lat="44.7057776" lon="10.100176"><ele>134.0</ele><time>2026-04-08T08:08:40.944Z</time></trkpt><trkpt lat="44.7059879" lon="10.1004405"><ele>134.0</ele><time>2026-04-08T08:08:41.943Z</time></trkpt><trkpt lat="44.7062014" lon="10.1007011"><ele>134.5</ele><time>2026-04-08T08:08:42.944Z</time></trkpt><trkpt lat="44.7064186" lon="10.1009557"><ele>135.0</ele><time>2026-04-08T08:08:43.944Z</time></trkpt><trkpt lat="44.7066401" lon="10.1012092"><ele>135.0</ele><time>2026-04-08T08:08:44.944Z</time></trkpt><trkpt lat="44.7068628" lon="10.1014624"><ele>135.0</ele><time>2026-04-08T08:08:45.943Z</time></trkpt><trkpt lat="44.7070862" lon="10.1017125"><ele>134.5</ele><time>2026-04-08T08:08:46.943Z</time></trkpt><trkpt lat="44.7073124" lon="10.1019632"><ele>134.0</ele><time>2026-04-08T08:08:47.943Z</time></trkpt><trkpt lat="44.7075417" lon="10.102207"><ele>132.5</ele><time>2026-04-08T08:08:48.943Z</time></trkpt><trkpt lat="44.7077756" lon="10.1024421"><ele>131.0</ele><time>2026-04-08T08:08:49.944Z</time></trkpt><trkpt lat="44.7080148" lon="10.1026743"><ele>131.0</ele><time>2026-04-08T08:08:50.943Z</time></trkpt><trkpt lat="44.7082525" lon="10.1029036"><ele>131.0</ele><time>2026-04-08T08:08:51.943Z</time></trkpt><trkpt lat="44.7084947" lon="10.1031276"><ele>130.0</ele><time>2026-04-08T08:08:52.944Z</time></trkpt><trkpt lat="44.7087385" lon="10.1033485"><ele>129.0</ele><time>2026-04-08T08:08:53.943Z</time></trkpt><trkpt lat="44.7089855" lon="10.1035615"><ele>129.0</ele><time>2026-04-08T08:08:54.943Z</time></trkpt><trkpt lat="44.7092347" lon="10.1037674"><ele>129.0</ele><time>2026-04-08T08:08:55.943Z</time></trkpt><trkpt lat="44.7094855" lon="10.1039722"><ele>129.0</ele><time>2026-04-08T08:08:56.943Z</time></trkpt><trkpt lat="44.7097373" lon="10.1041764"><ele>129.0</ele><time>2026-04-08T08:08:57.944Z</time></trkpt><trkpt lat="44.7099861" lon="10.1043847"><ele>129.0</ele><time>2026-04-08T08:08:58.943Z</time></trkpt><trkpt lat="44.7102369" lon="10.104589"><ele>129.0</ele><time>2026-04-08T08:08:59.943Z</time></trkpt><trkpt lat="44.7104892" lon="10.1047911"><ele>130.0</ele><time>2026-04-08T08:09:00.944Z</time></trkpt><trkpt lat="44.7107437" lon="10.1049884"><ele>131.0</ele><time>2026-04-08T08:09:01.943Z</time></trkpt><trkpt lat="44.7110001" lon="10.1051796"><ele>129.5</ele><time>2026-04-08T08:09:02.943Z</time></trkpt><trkpt lat="44.7112584" lon="10.1053686"><ele>128.0</ele><time>2026-04-08T08:09:03.943Z</time></trkpt><trkpt lat="44.7115173" lon="10.1055606"><ele>128.0</ele><time>2026-04-08T08:09:04.943Z</time></trkpt><trkpt lat="44.7117744" lon="10.1057572"><ele>128.0</ele><time>2026-04-08T08:09:05.943Z</time></trkpt><trkpt lat="44.7120271" lon="10.1059556"><ele>126.0</ele><time>2026-04-08T08:09:06.943Z</time></trkpt><trkpt lat="44.7122768" lon="10.1061553"><ele>124.0</ele><time>2026-04-08T08:09:07.943Z</time></trkpt><trkpt lat="44.7125235" lon="10.1063546"><ele>123.5</ele><time>2026-04-08T08:09:08.943Z</time></trkpt><trkpt lat="44.7127694" lon="10.1065535"><ele>123.0</ele><time>2026-04-08T08:09:09.943Z</time></trkpt><trkpt lat="44.7130126" lon="10.1067609"><ele>124.0</ele><time>2026-04-08T08:09:10.943Z</time></trkpt><trkpt lat="44.7132541" lon="10.1069693"><ele>125.0</ele><time>2026-04-08T08:09:11.943Z</time></trkpt><trkpt lat="44.7134933" lon="10.1071778"><ele>124.0</ele><time>2026-04-08T08:09:12.943Z</time></trkpt><trkpt lat="44.7137322" lon="10.1073809"><ele>123.0</ele><time>2026-04-08T08:09:13.944Z</time></trkpt><trkpt lat="44.7139688" lon="10.1075828"><ele>123.0</ele><time>2026-04-08T08:09:14.943Z</time></trkpt><trkpt lat="44.7142058" lon="10.1077809"><ele>123.0</ele><time>2026-04-08T08:09:15.943Z</time></trkpt><trkpt lat="44.7144431" lon="10.1079795"><ele>122.5</ele><time>2026-04-08T08:09:16.944Z</time></trkpt><trkpt lat="44.7146781" lon="10.1081815"><ele>122.0</ele><time>2026-04-08T08:09:17.943Z</time></trkpt><trkpt lat="44.7149095" lon="10.108392"><ele>122.0</ele><time>2026-04-08T08:09:18.943Z</time></trkpt><trkpt lat="44.7151359" lon="10.1086154"><ele>122.0</ele><time>2026-04-08T08:09:19.943Z</time></trkpt><trkpt lat="44.7153621" lon="10.1088444"><ele>123.5</ele><time>2026-04-08T08:09:20.944Z</time></trkpt><trkpt lat="44.715587" lon="10.1090846"><ele>125.0</ele><time>2026-04-08T08:09:21.943Z</time></trkpt><trkpt lat="44.7158111" lon="10.1093275"><ele>125.0</ele><time>2026-04-08T08:09:22.944Z</time></trkpt><trkpt lat="44.7160331" lon="10.1095779"><ele>125.0</ele><time>2026-04-08T08:09:23.943Z</time></trkpt><trkpt lat="44.7162522" lon="10.1098398"><ele>124.5</ele><time>2026-04-08T08:09:24.944Z</time></trkpt><trkpt lat="44.7164657" lon="10.1101082"><ele>124.0</ele><time>2026-04-08T08:09:25.943Z</time></trkpt><trkpt lat="44.7166762" lon="10.1103849"><ele>124.0</ele><time>2026-04-08T08:09:26.944Z</time></trkpt><trkpt lat="44.7168808" lon="10.1106706"><ele>124.0</ele><time>2026-04-08T08:09:27.944Z</time></trkpt><trkpt lat="44.7170823" lon="10.1109581"><ele>123.0</ele><time>2026-04-08T08:09:28.943Z</time></trkpt><trkpt lat="44.7172804" lon="10.111252"><ele>122.0</ele><time>2026-04-08T08:09:29.943Z</time></trkpt><trkpt lat="44.717474" lon="10.111554"><ele>122.0</ele><time>2026-04-08T08:09:30.944Z</time></trkpt><trkpt lat="44.7176624" lon="10.1118618"><ele>122.0</ele><time>2026-04-08T08:09:31.943Z</time></trkpt><trkpt lat="44.7178445" lon="10.1121759"><ele>122.0</ele><time>2026-04-08T08:09:32.944Z</time></trkpt><trkpt lat="44.7180224" lon="10.1124956"><ele>122.0</ele><time>2026-04-08T08:09:33.944Z</time></trkpt><trkpt lat="44.7181958" lon="10.1128184"><ele>122.0</ele><time>2026-04-08T08:09:34.943Z</time></trkpt><trkpt lat="44.7183641" lon="10.1131442"><ele>122.0</ele><time>2026-04-08T08:09:35.943Z</time></trkpt><trkpt lat="44.7185279" lon="10.1134746"><ele>122.0</ele><time>2026-04-08T08:09:36.943Z</time></trkpt><trkpt lat="44.7186871" lon="10.1138074"><ele>122.0</ele><time>2026-04-08T08:09:37.943Z</time></trkpt><trkpt lat="44.7188416" lon="10.1141448"><ele>123.0</ele><time>2026-04-08T08:09:38.943Z</time></trkpt><trkpt lat="44.7189913" lon="10.1144835"><ele>124.0</ele><time>2026-04-08T08:09:39.943Z</time></trkpt><trkpt lat="44.7191406" lon="10.1148259"><ele>123.5</ele><time>2026-04-08T08:09:40.943Z</time></trkpt><trkpt lat="44.719291" lon="10.1151686"><ele>123.0</ele><time>2026-04-08T08:09:41.943Z</time></trkpt><trkpt lat="44.7194384" lon="10.1155099"><ele>122.0</ele><time>2026-04-08T08:09:42.944Z</time></trkpt><trkpt lat="44.719585" lon="10.1158502"><ele>121.0</ele><time>2026-04-08T08:09:43.943Z</time></trkpt><trkpt lat="44.7197332" lon="10.1161928"><ele>121.0</ele><time>2026-04-08T08:09:44.943Z</time></trkpt><trkpt lat="44.7198802" lon="10.1165382"><ele>121.0</ele><time>2026-04-08T08:09:45.944Z</time></trkpt><trkpt lat="44.7200275" lon="10.1168828"><ele>121.0</ele><time>2026-04-08T08:09:46.943Z</time></trkpt><trkpt lat="44.7201792" lon="10.1172284"><ele>121.0</ele><time>2026-04-08T08:09:47.943Z</time></trkpt><trkpt lat="44.7203284" lon="10.1175733"><ele>122.0</ele><time>2026-04-08T08:09:48.943Z</time></trkpt><trkpt lat="44.7204768" lon="10.1179178"><ele>123.0</ele><time>2026-04-08T08:09:49.943Z</time></trkpt><trkpt lat="44.7206265" lon="10.1182616"><ele>123.0</ele><time>2026-04-08T08:09:50.943Z</time></trkpt><trkpt lat="44.7207764" lon="10.1186066"><ele>123.0</ele><time>2026-04-08T08:09:51.943Z</time></trkpt><trkpt lat="44.7209277" lon="10.1189536"><ele>123.0</ele><time>2026-04-08T08:09:52.944Z</time></trkpt><trkpt lat="44.7210789" lon="10.1193026"><ele>123.0</ele><time>2026-04-08T08:09:53.943Z</time></trkpt><trkpt lat="44.7212321" lon="10.1196506"><ele>121.5</ele><time>2026-04-08T08:09:54.943Z</time></trkpt><trkpt lat="44.7213842" lon="10.1199967"><ele>120.0</ele><time>2026-04-08T08:09:55.943Z</time></trkpt><trkpt lat="44.7215364" lon="10.1203422"><ele>120.0</ele><time>2026-04-08T08:09:56.943Z</time></trkpt><trkpt lat="44.7216833" lon="10.1206815"><ele>120.0</ele><time>2026-04-08T08:09:57.943Z</time></trkpt><trkpt lat="44.7218299" lon="10.1210143"><ele>120.5</ele><time>2026-04-08T08:09:58.943Z</time></trkpt><trkpt lat="44.7219818" lon="10.1213417"><ele>121.0</ele><time>2026-04-08T08:09:59.943Z</time></trkpt><trkpt lat="44.7221369" lon="10.1216707"><ele>121.0</ele><time>2026-04-08T08:10:00.943Z</time></trkpt><trkpt lat="44.7222896" lon="10.1219993"><ele>121.0</ele><time>2026-04-08T08:10:01.944Z</time></trkpt><trkpt lat="44.7224396" lon="10.1223314"><ele>119.5</ele><time>2026-04-08T08:10:02.943Z</time></trkpt><trkpt lat="44.722585" lon="10.1226671"><ele>118.0</ele><time>2026-04-08T08:10:03.943Z</time></trkpt><trkpt lat="44.7227296" lon="10.1229985"><ele>117.0</ele><time>2026-04-08T08:10:04.944Z</time></trkpt><trkpt lat="44.7228735" lon="10.1233296"><ele>116.0</ele><time>2026-04-08T08:10:05.944Z</time></trkpt><trkpt lat="44.7230164" lon="10.1236602"><ele>116.0</ele><time>2026-04-08T08:10:06.943Z</time></trkpt><trkpt lat="44.7231625" lon="10.1239852"><ele>116.0</ele><time>2026-04-08T08:10:07.944Z</time></trkpt><trkpt lat="44.7233103" lon="10.1243078"><ele>116.0</ele><time>2026-04-08T08:10:08.944Z</time></trkpt><trkpt lat="44.7234617" lon="10.124632"><ele>116.0</ele><time>2026-04-08T08:10:09.944Z</time></trkpt><trkpt lat="44.7236184" lon="10.1249541"><ele>116.0</ele><time>2026-04-08T08:10:10.943Z</time></trkpt><trkpt lat="44.72378" lon="10.1252712"><ele>116.0</ele><time>2026-04-08T08:10:11.944Z</time></trkpt><trkpt lat="44.723946" lon="10.1255936"><ele>117.0</ele><time>2026-04-08T08:10:12.944Z</time></trkpt><trkpt lat="44.7241107" lon="10.1259153"><ele>118.0</ele><time>2026-04-08T08:10:13.944Z</time></trkpt><trkpt lat="44.7242751" lon="10.1262443"><ele>116.5</ele><time>2026-04-08T08:10:14.943Z</time></trkpt><trkpt lat="44.7244386" lon="10.1265691"><ele>115.0</ele><time>2026-04-08T08:10:15.944Z</time></trkpt><trkpt lat="44.7246092" lon="10.1268953"><ele>115.0</ele><time>2026-04-08T08:10:16.944Z</time></trkpt><trkpt lat="44.7247811" lon="10.1272259"><ele>115.0</ele><time>2026-04-08T08:10:17.943Z</time></trkpt><trkpt lat="44.7249543" lon="10.1275591"><ele>115.5</ele><time>2026-04-08T08:10:18.943Z</time></trkpt><trkpt lat="44.7251232" lon="10.1278947"><ele>116.0</ele><time>2026-04-08T08:10:19.944Z</time></trkpt><trkpt lat="44.7252886" lon="10.1282366"><ele>116.0</ele><time>2026-04-08T08:10:20.943Z</time></trkpt><trkpt lat="44.7254554" lon="10.1285796"><ele>116.0</ele><time>2026-04-08T08:10:21.943Z</time></trkpt><trkpt lat="44.7256235" lon="10.1289196"><ele>116.0</ele><time>2026-04-08T08:10:22.944Z</time></trkpt><trkpt lat="44.7257965" lon="10.1292566"><ele>116.0</ele><time>2026-04-08T08:10:23.943Z</time></trkpt><trkpt lat="44.725969" lon="10.1295908"><ele>114.5</ele><time>2026-04-08T08:10:24.944Z</time></trkpt><trkpt lat="44.7261412" lon="10.1299211"><ele>113.0</ele><time>2026-04-08T08:10:25.943Z</time></trkpt><trkpt lat="44.7263114" lon="10.1302497"><ele>113.0</ele><time>2026-04-08T08:10:26.943Z</time></trkpt><trkpt lat="44.7264805" lon="10.1305778"><ele>113.0</ele><time>2026-04-08T08:10:27.943Z</time></trkpt><trkpt lat="44.7266491" lon="10.1309027"><ele>112.5</ele><time>2026-04-08T08:10:28.944Z</time></trkpt><trkpt lat="44.7268158" lon="10.1312286"><ele>112.0</ele><time>2026-04-08T08:10:29.943Z</time></trkpt><trkpt lat="44.7269825" lon="10.1315543"><ele>112.5</ele><time>2026-04-08T08:10:30.944Z</time></trkpt><trkpt lat="44.7271466" lon="10.1318766"><ele>113.0</ele><time>2026-04-08T08:10:31.944Z</time></trkpt><trkpt lat="44.7273102" lon="10.1321975"><ele>114.5</ele><time>2026-04-08T08:10:32.944Z</time></trkpt><trkpt lat="44.7274766" lon="10.1325153"><ele>116.0</ele><time>2026-04-08T08:10:33.944Z</time></trkpt><trkpt lat="44.7276426" lon="10.1328297"><ele>114.0</ele><time>2026-04-08T08:10:34.943Z</time></trkpt><trkpt lat="44.7278059" lon="10.1331452"><ele>112.0</ele><time>2026-04-08T08:10:35.943Z</time></trkpt><trkpt lat="44.7279688" lon="10.1334601"><ele>112.0</ele><time>2026-04-08T08:10:36.943Z</time></trkpt><trkpt lat="44.7281316" lon="10.133774"><ele>112.0</ele><time>2026-04-08T08:10:37.943Z</time></trkpt><trkpt lat="44.7282955" lon="10.1340908"><ele>111.5</ele><time>2026-04-08T08:10:38.943Z</time></trkpt><trkpt lat="44.7284583" lon="10.1344081"><ele>111.0</ele><time>2026-04-08T08:10:39.944Z</time></trkpt><trkpt lat="44.7286196" lon="10.1347238"><ele>111.5</ele><time>2026-04-08T08:10:40.943Z</time></trkpt><trkpt lat="44.7287798" lon="10.1350413"><ele>112.0</ele><time>2026-04-08T08:10:41.943Z</time></trkpt><trkpt lat="44.7289411" lon="10.1353586"><ele>112.0</ele><time>2026-04-08T08:10:42.943Z</time></trkpt><trkpt lat="44.7291041" lon="10.1356713"><ele>112.0</ele><time>2026-04-08T08:10:43.944Z</time></trkpt><trkpt lat="44.7292666" lon="10.1359797"><ele>111.0</ele><time>2026-04-08T08:10:44.944Z</time></trkpt><trkpt lat="44.7294305" lon="10.1362902"><ele>110.0</ele><time>2026-04-08T08:10:45.943Z</time></trkpt><trkpt lat="44.7295908" lon="10.1366014"><ele>110.0</ele><time>2026-04-08T08:10:46.943Z</time></trkpt><trkpt lat="44.7297505" lon="10.1369121"><ele>110.0</ele><time>2026-04-08T08:10:47.943Z</time></trkpt><trkpt lat="44.72991" lon="10.1372224"><ele>109.0</ele><time>2026-04-08T08:10:48.943Z</time></trkpt><trkpt lat="44.7300726" lon="10.1375339"><ele>108.0</ele><time>2026-04-08T08:10:49.943Z</time></trkpt><trkpt lat="44.7302374" lon="10.1378428"><ele>108.0</ele><time>2026-04-08T08:10:50.943Z</time></trkpt><trkpt lat="44.7303996" lon="10.1381498"><ele>108.0</ele><time>2026-04-08T08:10:51.943Z</time></trkpt><trkpt lat="44.7305628" lon="10.1384536"><ele>108.0</ele><time>2026-04-08T08:10:52.943Z</time></trkpt><trkpt lat="44.7307287" lon="10.1387534"><ele>108.0</ele><time>2026-04-08T08:10:53.943Z</time></trkpt><trkpt lat="44.7308947" lon="10.1390512"><ele>108.5</ele><time>2026-04-08T08:10:54.943Z</time></trkpt><trkpt lat="44.7310592" lon="10.1393479"><ele>109.0</ele><time>2026-04-08T08:10:55.943Z</time></trkpt><trkpt lat="44.7312205" lon="10.1396477"><ele>109.5</ele><time>2026-04-08T08:10:56.944Z</time></trkpt><trkpt lat="44.7313797" lon="10.1399525"><ele>110.0</ele><time>2026-04-08T08:10:57.944Z</time></trkpt><trkpt lat="44.7315404" lon="10.1402597"><ele>110.0</ele><time>2026-04-08T08:10:58.943Z</time></trkpt><trkpt lat="44.7317014" lon="10.140574"><ele>110.0</ele><time>2026-04-08T08:10:59.944Z</time></trkpt><trkpt lat="44.7318645" lon="10.1408894"><ele>108.5</ele><time>2026-04-08T08:11:00.943Z</time></trkpt><trkpt lat="44.7320276" lon="10.1412046"><ele>107.0</ele><time>2026-04-08T08:11:01.943Z</time></trkpt><trkpt lat="44.7321895" lon="10.1415196"><ele>107.5</ele><time>2026-04-08T08:11:02.943Z</time></trkpt><trkpt lat="44.7323552" lon="10.1418372"><ele>108.0</ele><time>2026-04-08T08:11:03.944Z</time></trkpt><trkpt lat="44.7325206" lon="10.1421538"><ele>107.0</ele><time>2026-04-08T08:11:04.944Z</time></trkpt><trkpt lat="44.7326855" lon="10.142472"><ele>106.0</ele><time>2026-04-08T08:11:05.943Z</time></trkpt><trkpt lat="44.7328502" lon="10.1427939"><ele>106.0</ele><time>2026-04-08T08:11:06.944Z</time></trkpt><trkpt lat="44.7330106" lon="10.1431111"><ele>106.0</ele><time>2026-04-08T08:11:07.943Z</time></trkpt><trkpt lat="44.7331685" lon="10.1434175"><ele>106.5</ele><time>2026-04-08T08:11:08.943Z</time></trkpt><trkpt lat="44.7333221" lon="10.1437171"><ele>107.0</ele><time>2026-04-08T08:11:09.943Z</time></trkpt><trkpt lat="44.733475" lon="10.144012"><ele>107.5</ele><time>2026-04-08T08:11:10.944Z</time></trkpt><trkpt lat="44.7336255" lon="10.1443015"><ele>108.0</ele><time>2026-04-08T08:11:11.943Z</time></trkpt><trkpt lat="44.7337735" lon="10.1445894"><ele>108.0</ele><time>2026-04-08T08:11:12.943Z</time></trkpt><trkpt lat="44.7339203" lon="10.1448741"><ele>108.0</ele><time>2026-04-08T08:11:13.943Z</time></trkpt><trkpt lat="44.7340674" lon="10.1451554"><ele>107.0</ele><time>2026-04-08T08:11:14.943Z</time></trkpt><trkpt lat="44.7342125" lon="10.1454367"><ele>106.0</ele><time>2026-04-08T08:11:15.943Z</time></trkpt><trkpt lat="44.7343539" lon="10.1457154"><ele>105.0</ele><time>2026-04-08T08:11:16.944Z</time></trkpt><trkpt lat="44.7344956" lon="10.1459875"><ele>104.0</ele><time>2026-04-08T08:11:17.943Z</time></trkpt><trkpt lat="44.7346349" lon="10.146252"><ele>104.0</ele><time>2026-04-08T08:11:18.943Z</time></trkpt><trkpt lat="44.7347713" lon="10.1465123"><ele>104.0</ele><time>2026-04-08T08:11:19.943Z</time></trkpt><trkpt lat="44.7349056" lon="10.1467707"><ele>104.5</ele><time>2026-04-08T08:11:20.943Z</time></trkpt><trkpt lat="44.7350393" lon="10.1470286"><ele>105.0</ele><time>2026-04-08T08:11:21.943Z</time></trkpt><trkpt lat="44.7351751" lon="10.1472847"><ele>104.5</ele><time>2026-04-08T08:11:22.943Z</time></trkpt><trkpt lat="44.735311" lon="10.1475419"><ele>104.0</ele><time>2026-04-08T08:11:23.944Z</time></trkpt><trkpt lat="44.7354448" lon="10.1477997"><ele>104.0</ele><time>2026-04-08T08:11:24.944Z</time></trkpt><trkpt lat="44.7355756" lon="10.1480567"><ele>104.0</ele><time>2026-04-08T08:11:25.943Z</time></trkpt><trkpt lat="44.7357061" lon="10.1483135"><ele>104.0</ele><time>2026-04-08T08:11:26.943Z</time></trkpt><trkpt lat="44.7358372" lon="10.1485695"><ele>104.33333333333333</ele><time>2026-04-08T08:11:27.944Z</time></trkpt><trkpt lat="44.7359674" lon="10.1488272"><ele>104.66666666666666</ele><time>2026-04-08T08:11:28.944Z</time></trkpt><trkpt lat="44.7360972" lon="10.1490838"><ele>105.0</ele><time>2026-04-08T08:11:29.943Z</time></trkpt><trkpt lat="44.736232" lon="10.1493433"><ele>105.33333333333334</ele><time>2026-04-08T08:11:30.943Z</time></trkpt><trkpt lat="44.7363649" lon="10.1495967"><ele>105.66666666666667</ele><time>2026-04-08T08:11:31.943Z</time></trkpt><trkpt lat="44.7364957" lon="10.1498513"><ele>106.0</ele><time>2026-04-08T08:11:32.943Z</time></trkpt><trkpt lat="44.7366284" lon="10.1501038"><ele>106.5</ele><time>2026-04-08T08:11:33.944Z</time></trkpt><trkpt lat="44.7367626" lon="10.1503576"><ele>107.0</ele><time>2026-04-08T08:11:34.943Z</time></trkpt><trkpt lat="44.7368968" lon="10.1506129"><ele>106.0</ele><time>2026-04-08T08:11:35.943Z</time></trkpt><trkpt lat="44.7370305" lon="10.1508701"><ele>105.0</ele><time>2026-04-08T08:11:36.943Z</time></trkpt><trkpt lat="44.7371662" lon="10.1511377"><ele>105.0</ele><time>2026-04-08T08:11:37.943Z</time></trkpt><trkpt lat="44.7373076" lon="10.1514129"><ele>105.0</ele><time>2026-04-08T08:11:38.944Z</time></trkpt><trkpt lat="44.7374555" lon="10.1516958"><ele>104.0</ele><time>2026-04-08T08:11:39.943Z</time></trkpt><trkpt lat="44.7376082" lon="10.1519891"><ele>103.0</ele><time>2026-04-08T08:11:40.943Z</time></trkpt><trkpt lat="44.7377643" lon="10.1522985"><ele>101.5</ele><time>2026-04-08T08:11:41.943Z</time></trkpt><trkpt lat="44.737929" lon="10.1526299"><ele>100.0</ele><time>2026-04-08T08:11:42.944Z</time></trkpt><trkpt lat="44.7381055" lon="10.1529793"><ele>100.0</ele><time>2026-04-08T08:11:43.943Z</time></trkpt><trkpt lat="44.7382921" lon="10.1533466"><ele>100.0</ele><time>2026-04-08T08:11:44.943Z</time></trkpt><trkpt lat="44.7384831" lon="10.1537311"><ele>101.5</ele><time>2026-04-08T08:11:45.944Z</time></trkpt><trkpt lat="44.7386745" lon="10.154124"><ele>103.0</ele><time>2026-04-08T08:11:46.943Z</time></trkpt><trkpt lat="44.738865" lon="10.1545091"><ele>102.5</ele><time>2026-04-08T08:11:47.944Z</time></trkpt><trkpt lat="44.7390532" lon="10.1548838"><ele>102.0</ele><time>2026-04-08T08:11:48.943Z</time></trkpt><trkpt lat="44.7392373" lon="10.1552477"><ele>101.5</ele><time>2026-04-08T08:11:49.943Z</time></trkpt><trkpt lat="44.7394192" lon="10.1556003"><ele>101.0</ele><time>2026-04-08T08:11:50.943Z</time></trkpt><trkpt lat="44.7395976" lon="10.1559451"><ele>100.5</ele><time>2026-04-08T08:11:51.943Z</time></trkpt><trkpt lat="44.7397782" lon="10.1562916"><ele>100.0</ele><time>2026-04-08T08:11:52.943Z</time></trkpt><trkpt lat="44.7399579" lon="10.1566404"><ele>100.5</ele><time>2026-04-08T08:11:53.943Z</time></trkpt><trkpt lat="44.740139" lon="10.1569891"><ele>101.0</ele><time>2026-04-08T08:11:54.944Z</time></trkpt><trkpt lat="44.7403207" lon="10.1573369"><ele>102.0</ele><time>2026-04-08T08:11:55.943Z</time></trkpt><trkpt lat="44.7405028" lon="10.1576839"><ele>103.0</ele><time>2026-04-08T08:11:56.943Z</time></trkpt><trkpt lat="44.7406849" lon="10.1580275"><ele>102.5</ele><time>2026-04-08T08:11:57.944Z</time></trkpt><trkpt lat="44.7408712" lon="10.1583673"><ele>102.0</ele><time>2026-04-08T08:11:58.943Z</time></trkpt><trkpt lat="44.7410586" lon="10.1587044"><ele>102.0</ele><time>2026-04-08T08:11:59.943Z</time></trkpt><trkpt lat="44.7412519" lon="10.159032"><ele>102.0</ele><time>2026-04-08T08:12:00.943Z</time></trkpt><trkpt lat="44.7414512" lon="10.1593535"><ele>102.0</ele><time>2026-04-08T08:12:01.943Z</time></trkpt><trkpt lat="44.7416507" lon="10.159677"><ele>102.0</ele><time>2026-04-08T08:12:02.943Z</time></trkpt><trkpt lat="44.7418605" lon="10.1599948"><ele>101.0</ele><time>2026-04-08T08:12:03.944Z</time></trkpt><trkpt lat="44.7420741" lon="10.1603133"><ele>100.0</ele><time>2026-04-08T08:12:04.943Z</time></trkpt><trkpt lat="44.742293" lon="10.1606264"><ele>100.5</ele><time>2026-04-08T08:12:05.944Z</time></trkpt><trkpt lat="44.7425145" lon="10.1609346"><ele>101.0</ele><time>2026-04-08T08:12:06.943Z</time></trkpt><trkpt lat="44.7427415" lon="10.1612381"><ele>101.0</ele><time>2026-04-08T08:12:07.943Z</time></trkpt><trkpt lat="44.7429716" lon="10.1615364"><ele>101.0</ele><time>2026-04-08T08:12:08.944Z</time></trkpt><trkpt lat="44.7432056" lon="10.161828"><ele>101.0</ele><time>2026-04-08T08:12:09.943Z</time></trkpt><trkpt lat="44.7434437" lon="10.1621144"><ele>101.0</ele><time>2026-04-08T08:12:10.943Z</time></trkpt><trkpt lat="44.7436841" lon="10.1623929"><ele>101.5</ele><time>2026-04-08T08:12:11.943Z</time></trkpt><trkpt lat="44.7439263" lon="10.1626673"><ele>102.0</ele><time>2026-04-08T08:12:12.943Z</time></trkpt><trkpt lat="44.7441716" lon="10.1629374"><ele>102.0</ele><time>2026-04-08T08:12:13.943Z</time></trkpt><trkpt lat="44.7444203" lon="10.1631986"><ele>102.0</ele><time>2026-04-08T08:12:14.944Z</time></trkpt><trkpt lat="44.7446735" lon="10.1634517"><ele>102.0</ele><time>2026-04-08T08:12:15.943Z</time></trkpt><trkpt lat="44.7449298" lon="10.1636981"><ele>102.0</ele><time>2026-04-08T08:12:16.944Z</time></trkpt><trkpt lat="44.7451855" lon="10.1639415"><ele>101.0</ele><time>2026-04-08T08:12:17.943Z</time></trkpt><trkpt lat="44.7454457" lon="10.1641765"><ele>100.0</ele><time>2026-04-08T08:12:18.944Z</time></trkpt><trkpt lat="44.7457084" lon="10.1644061"><ele>100.0</ele><time>2026-04-08T08:12:19.943Z</time></trkpt><trkpt lat="44.7459721" lon="10.1646343"><ele>100.0</ele><time>2026-04-08T08:12:20.943Z</time></trkpt><trkpt lat="44.746239" lon="10.1648578"><ele>99.0</ele><time>2026-04-08T08:12:21.943Z</time></trkpt><trkpt lat="44.7465082" lon="10.1650723"><ele>98.0</ele><time>2026-04-08T08:12:22.943Z</time></trkpt><trkpt lat="44.7467827" lon="10.1652748"><ele>97.5</ele><time>2026-04-08T08:12:23.943Z</time></trkpt><trkpt lat="44.7470597" lon="10.1654718"><ele>97.0</ele><time>2026-04-08T08:12:24.944Z</time></trkpt><trkpt lat="44.7473425" lon="10.1656602"><ele>97.0</ele><time>2026-04-08T08:12:25.944Z</time></trkpt><trkpt lat="44.7476268" lon="10.1658404"><ele>97.0</ele><time>2026-04-08T08:12:26.943Z</time></trkpt><trkpt lat="44.7479096" lon="10.1660192"><ele>97.0</ele><time>2026-04-08T08:12:27.943Z</time></trkpt><trkpt lat="44.748196" lon="10.1661914"><ele>97.0</ele><time>2026-04-08T08:12:28.943Z</time></trkpt><trkpt lat="44.7484847" lon="10.1663566"><ele>96.5</ele><time>2026-04-08T08:12:29.943Z</time></trkpt><trkpt lat="44.7487748" lon="10.1665141"><ele>96.0</ele><time>2026-04-08T08:12:30.944Z</time></trkpt><trkpt lat="44.7490676" lon="10.1666634"><ele>96.0</ele><time>2026-04-08T08:12:31.944Z</time></trkpt><trkpt lat="44.7493623" lon="10.1668054"><ele>96.0</ele><time>2026-04-08T08:12:32.943Z</time></trkpt><trkpt lat="44.749657" lon="10.166948"><ele>96.0</ele><time>2026-04-08T08:12:33.944Z</time></trkpt><trkpt lat="44.7499524" lon="10.1670883"><ele>96.0</ele><time>2026-04-08T08:12:34.944Z</time></trkpt><trkpt lat="44.7502483" lon="10.1672253"><ele>96.0</ele><time>2026-04-08T08:12:35.943Z</time></trkpt><trkpt lat="44.7505434" lon="10.167357"><ele>96.0</ele><time>2026-04-08T08:12:36.943Z</time></trkpt><trkpt lat="44.7508407" lon="10.1674863"><ele>94.0</ele><time>2026-04-08T08:12:37.943Z</time></trkpt><trkpt lat="44.7511386" lon="10.1676113"><ele>92.0</ele><time>2026-04-08T08:12:38.943Z</time></trkpt><trkpt lat="44.7514304" lon="10.1677477"><ele>92.0</ele><time>2026-04-08T08:12:39.944Z</time></trkpt><trkpt lat="44.751722" lon="10.1678842"><ele>92.0</ele><time>2026-04-08T08:12:40.943Z</time></trkpt><trkpt lat="44.7520134" lon="10.1680253"><ele>91.5</ele><time>2026-04-08T08:12:41.943Z</time></trkpt><trkpt lat="44.7523035" lon="10.168167"><ele>91.0</ele><time>2026-04-08T08:12:42.943Z</time></trkpt><trkpt lat="44.7525952" lon="10.1683063"><ele>92.5</ele><time>2026-04-08T08:12:43.943Z</time></trkpt><trkpt lat="44.7528867" lon="10.1684454"><ele>94.0</ele><time>2026-04-08T08:12:44.943Z</time></trkpt><trkpt lat="44.7531796" lon="10.168587"><ele>94.0</ele><time>2026-04-08T08:12:45.943Z</time></trkpt><trkpt lat="44.7534733" lon="10.1687265"><ele>94.0</ele><time>2026-04-08T08:12:46.944Z</time></trkpt><trkpt lat="44.7537683" lon="10.1688684"><ele>93.5</ele><time>2026-04-08T08:12:47.944Z</time></trkpt><trkpt lat="44.7540605" lon="10.1690092"><ele>93.0</ele><time>2026-04-08T08:12:48.943Z</time></trkpt><trkpt lat="44.7543532" lon="10.1691501"><ele>92.5</ele><time>2026-04-08T08:12:49.944Z</time></trkpt><trkpt lat="44.7546458" lon="10.16929"><ele>92.0</ele><time>2026-04-08T08:12:50.943Z</time></trkpt><trkpt lat="44.7549399" lon="10.169427"><ele>92.5</ele><time>2026-04-08T08:12:51.943Z</time></trkpt><trkpt lat="44.7552344" lon="10.1695651"><ele>93.0</ele><time>2026-04-08T08:12:52.943Z</time></trkpt><trkpt lat="44.7555304" lon="10.1697037"><ele>93.0</ele><time>2026-04-08T08:12:53.943Z</time></trkpt><trkpt lat="44.7558252" lon="10.1698438"><ele>93.0</ele><time>2026-04-08T08:12:54.943Z</time></trkpt><trkpt lat="44.756119" lon="10.1699865"><ele>92.5</ele><time>2026-04-08T08:12:55.943Z</time></trkpt><trkpt lat="44.7564155" lon="10.1701289"><ele>92.0</ele><time>2026-04-08T08:12:56.943Z</time></trkpt><trkpt lat="44.7567097" lon="10.1702731"><ele>91.0</ele><time>2026-04-08T08:12:57.943Z</time></trkpt><trkpt lat="44.7570055" lon="10.1704149"><ele>90.0</ele><time>2026-04-08T08:12:58.944Z</time></trkpt><trkpt lat="44.7572997" lon="10.170557"><ele>90.5</ele><time>2026-04-08T08:12:59.943Z</time></trkpt><trkpt lat="44.757594" lon="10.1706977"><ele>91.0</ele><time>2026-04-08T08:13:00.943Z</time></trkpt><trkpt lat="44.7578898" lon="10.1708404"><ele>90.0</ele><time>2026-04-08T08:13:01.943Z</time></trkpt><trkpt lat="44.758184" lon="10.1709816"><ele>89.0</ele><time>2026-04-08T08:13:02.943Z</time></trkpt><trkpt lat="44.7584776" lon="10.171122"><ele>89.5</ele><time>2026-04-08T08:13:03.943Z</time></trkpt><trkpt lat="44.7587709" lon="10.1712627"><ele>90.0</ele><time>2026-04-08T08:13:04.943Z</time></trkpt><trkpt lat="44.7590628" lon="10.171404"><ele>90.0</ele><time>2026-04-08T08:13:05.943Z</time></trkpt><trkpt lat="44.7593555" lon="10.1715464"><ele>90.0</ele><time>2026-04-08T08:13:06.943Z</time></trkpt><trkpt lat="44.7596487" lon="10.1716863"><ele>89.0</ele><time>2026-04-08T08:13:07.943Z</time></trkpt><trkpt lat="44.7599438" lon="10.1718292"><ele>88.0</ele><time>2026-04-08T08:13:08.943Z</time></trkpt><trkpt lat="44.760237" lon="10.1719699"><ele>87.0</ele><time>2026-04-08T08:13:09.943Z</time></trkpt><trkpt lat="44.7605268" lon="10.1721135"><ele>86.0</ele><time>2026-04-08T08:13:10.944Z</time></trkpt><trkpt lat="44.7608185" lon="10.1722646"><ele>88.0</ele><time>2026-04-08T08:13:11.943Z</time></trkpt><trkpt lat="44.7611092" lon="10.1724186"><ele>90.0</ele><time>2026-04-08T08:13:12.943Z</time></trkpt><trkpt lat="44.7613998" lon="10.1725704"><ele>90.0</ele><time>2026-04-08T08:13:13.943Z</time></trkpt><trkpt lat="44.7616927" lon="10.172719"><ele>90.0</ele><time>2026-04-08T08:13:14.943Z</time></trkpt><trkpt lat="44.7619855" lon="10.1728659"><ele>89.0</ele><time>2026-04-08T08:13:15.944Z</time></trkpt><trkpt lat="44.7622806" lon="10.1730089"><ele>88.0</ele><time>2026-04-08T08:13:16.943Z</time></trkpt><trkpt lat="44.7625749" lon="10.1731508"><ele>87.5</ele><time>2026-04-08T08:13:17.944Z</time></trkpt><trkpt lat="44.7628707" lon="10.1732901"><ele>87.0</ele><time>2026-04-08T08:13:18.944Z</time></trkpt><trkpt lat="44.7631658" lon="10.1734295"><ele>87.0</ele><time>2026-04-08T08:13:19.944Z</time></trkpt><trkpt lat="44.7634602" lon="10.1735709"><ele>87.0</ele><time>2026-04-08T08:13:20.944Z</time></trkpt><trkpt lat="44.763755" lon="10.1737124"><ele>86.5</ele><time>2026-04-08T08:13:21.943Z</time></trkpt><trkpt lat="44.7640489" lon="10.1738559"><ele>86.0</ele><time>2026-04-08T08:13:22.944Z</time></trkpt><trkpt lat="44.7643416" lon="10.1739981"><ele>85.5</ele><time>2026-04-08T08:13:23.943Z</time></trkpt><trkpt lat="44.764634" lon="10.1741391"><ele>85.0</ele><time>2026-04-08T08:13:24.944Z</time></trkpt><trkpt lat="44.764927" lon="10.1742823"><ele>85.5</ele><time>2026-04-08T08:13:25.943Z</time></trkpt><trkpt lat="44.7652213" lon="10.1744246"><ele>86.0</ele><time>2026-04-08T08:13:26.944Z</time></trkpt><trkpt lat="44.7655156" lon="10.1745583"><ele>86.0</ele><time>2026-04-08T08:13:27.943Z</time></trkpt><trkpt lat="44.7658122" lon="10.1746867"><ele>86.0</ele><time>2026-04-08T08:13:28.943Z</time></trkpt><trkpt lat="44.7661066" lon="10.174815"><ele>86.0</ele><time>2026-04-08T08:13:29.943Z</time></trkpt><trkpt lat="44.766401" lon="10.1749465"><ele>86.0</ele><time>2026-04-08T08:13:30.943Z</time></trkpt><trkpt lat="44.7666951" lon="10.1750789"><ele>86.0</ele><time>2026-04-08T08:13:31.943Z</time></trkpt><trkpt lat="44.7669898" lon="10.1752118"><ele>86.0</ele><time>2026-04-08T08:13:32.943Z</time></trkpt><trkpt lat="44.7672821" lon="10.1753523"><ele>86.0</ele><time>2026-04-08T08:13:33.943Z</time></trkpt><trkpt lat="44.7675754" lon="10.1754928"><ele>86.0</ele><time>2026-04-08T08:13:34.943Z</time></trkpt><trkpt lat="44.7678686" lon="10.175632"><ele>85.0</ele><time>2026-04-08T08:13:35.943Z</time></trkpt><trkpt lat="44.7681638" lon="10.1757727"><ele>84.0</ele><time>2026-04-08T08:13:36.943Z</time></trkpt><trkpt lat="44.7684574" lon="10.175913"><ele>84.5</ele><time>2026-04-08T08:13:37.944Z</time></trkpt><trkpt lat="44.7687521" lon="10.1760538"><ele>85.0</ele><time>2026-04-08T08:13:38.943Z</time></trkpt><trkpt lat="44.7690431" lon="10.1761997"><ele>85.0</ele><time>2026-04-08T08:13:39.943Z</time></trkpt><trkpt lat="44.7693317" lon="10.1763535"><ele>85.0</ele><time>2026-04-08T08:13:40.943Z</time></trkpt><trkpt lat="44.7696222" lon="10.1765049"><ele>85.0</ele><time>2026-04-08T08:13:41.943Z</time></trkpt><trkpt lat="44.7699136" lon="10.1766588"><ele>85.0</ele><time>2026-04-08T08:13:42.944Z</time></trkpt><trkpt lat="44.7702056" lon="10.1768041"><ele>84.0</ele><time>2026-04-08T08:13:43.944Z</time></trkpt><trkpt lat="44.7704997" lon="10.1769447"><ele>83.0</ele><time>2026-04-08T08:13:44.943Z</time></trkpt><trkpt lat="44.7707931" lon="10.177088"><ele>83.0</ele><time>2026-04-08T08:13:45.943Z</time></trkpt><trkpt lat="44.7710854" lon="10.1772292"><ele>83.0</ele><time>2026-04-08T08:13:46.943Z</time></trkpt><trkpt lat="44.7713792" lon="10.1773725"><ele>83.0</ele><time>2026-04-08T08:13:47.943Z</time></trkpt><trkpt lat="44.7716732" lon="10.1775173"><ele>83.0</ele><time>2026-04-08T08:13:48.944Z</time></trkpt><trkpt lat="44.7719685" lon="10.1776591"><ele>82.5</ele><time>2026-04-08T08:13:49.944Z</time></trkpt><trkpt lat="44.7722622" lon="10.1777973"><ele>82.0</ele><time>2026-04-08T08:13:50.943Z</time></trkpt><trkpt lat="44.7725573" lon="10.1779362"><ele>81.5</ele><time>2026-04-08T08:13:51.943Z</time></trkpt><trkpt lat="44.7728514" lon="10.178077"><ele>81.0</ele><time>2026-04-08T08:13:52.944Z</time></trkpt><trkpt lat="44.7731457" lon="10.1782198"><ele>82.0</ele><time>2026-04-08T08:13:53.943Z</time></trkpt><trkpt lat="44.7734393" lon="10.1783649"><ele>83.0</ele><time>2026-04-08T08:13:54.943Z</time></trkpt><trkpt lat="44.7737338" lon="10.1785089"><ele>83.0</ele><time>2026-04-08T08:13:55.943Z</time></trkpt><trkpt lat="44.7740267" lon="10.1786519"><ele>83.0</ele><time>2026-04-08T08:13:56.944Z</time></trkpt><trkpt lat="44.7743197" lon="10.1787937"><ele>82.5</ele><time>2026-04-08T08:13:57.943Z</time></trkpt><trkpt lat="44.7746134" lon="10.1789352"><ele>82.0</ele><time>2026-04-08T08:13:58.943Z</time></trkpt><trkpt lat="44.7749085" lon="10.1790716"><ele>82.0</ele><time>2026-04-08T08:13:59.944Z</time></trkpt><trkpt lat="44.7752068" lon="10.1792002"><ele>82.0</ele><time>2026-04-08T08:14:00.943Z</time></trkpt><trkpt lat="44.7755049" lon="10.1793254"><ele>82.0</ele><time>2026-04-08T08:14:01.944Z</time></trkpt><trkpt lat="44.7758013" lon="10.1794591"><ele>82.0</ele><time>2026-04-08T08:14:02.943Z</time></trkpt><trkpt lat="44.7760974" lon="10.1795955"><ele>82.0</ele><time>2026-04-08T08:14:03.944Z</time></trkpt><trkpt lat="44.776394" lon="10.1797326"><ele>82.0</ele><time>2026-04-08T08:14:04.943Z</time></trkpt><trkpt lat="44.7766898" lon="10.1798729"><ele>82.0</ele><time>2026-04-08T08:14:05.943Z</time></trkpt><trkpt lat="44.7769814" lon="10.180017"><ele>82.0</ele><time>2026-04-08T08:14:06.943Z</time></trkpt><trkpt lat="44.7772729" lon="10.1801653"><ele>82.0</ele><time>2026-04-08T08:14:07.944Z</time></trkpt><trkpt lat="44.7775621" lon="10.180322"><ele>82.0</ele><time>2026-04-08T08:14:08.943Z</time></trkpt><trkpt lat="44.7778486" lon="10.1804866"><ele>81.5</ele><time>2026-04-08T08:14:09.944Z</time></trkpt><trkpt lat="44.7781334" lon="10.1806551"><ele>81.0</ele><time>2026-04-08T08:14:10.944Z</time></trkpt><trkpt lat="44.7784163" lon="10.1808287"><ele>81.0</ele><time>2026-04-08T08:14:11.944Z</time></trkpt><trkpt lat="44.7786989" lon="10.1810084"><ele>81.0</ele><time>2026-04-08T08:14:12.943Z</time></trkpt><trkpt lat="44.7789784" lon="10.1811968"><ele>81.0</ele><time>2026-04-08T08:14:13.943Z</time></trkpt><trkpt lat="44.7792543" lon="10.1813945"><ele>81.0</ele><time>2026-04-08T08:14:14.943Z</time></trkpt><trkpt lat="44.7795296" lon="10.1815963"><ele>81.5</ele><time>2026-04-08T08:14:15.944Z</time></trkpt><trkpt lat="44.7798058" lon="10.181799"><ele>82.0</ele><time>2026-04-08T08:14:16.944Z</time></trkpt><trkpt lat="44.7800837" lon="10.1820006"><ele>81.5</ele><time>2026-04-08T08:14:17.944Z</time></trkpt><trkpt lat="44.7803583" lon="10.1822035"><ele>81.0</ele><time>2026-04-08T08:14:18.943Z</time></trkpt><trkpt lat="44.7806338" lon="10.1824082"><ele>80.0</ele><time>2026-04-08T08:14:19.943Z</time></trkpt><trkpt lat="44.7809083" lon="10.1826138"><ele>79.0</ele><time>2026-04-08T08:14:20.943Z</time></trkpt><trkpt lat="44.7811815" lon="10.1828225"><ele>78.5</ele><time>2026-04-08T08:14:21.944Z</time></trkpt><trkpt lat="44.781456" lon="10.1830291"><ele>78.0</ele><time>2026-04-08T08:14:22.943Z</time></trkpt><trkpt lat="44.7817299" lon="10.183237"><ele>77.5</ele><time>2026-04-08T08:14:23.944Z</time></trkpt><trkpt lat="44.7820014" lon="10.1834443"><ele>77.0</ele><time>2026-04-08T08:14:24.943Z</time></trkpt><trkpt lat="44.7822727" lon="10.1836525"><ele>77.0</ele><time>2026-04-08T08:14:25.943Z</time></trkpt><trkpt lat="44.7825419" lon="10.1838648"><ele>77.0</ele><time>2026-04-08T08:14:26.943Z</time></trkpt><trkpt lat="44.7828099" lon="10.1840774"><ele>77.0</ele><time>2026-04-08T08:14:27.944Z</time></trkpt><trkpt lat="44.7830748" lon="10.184295"><ele>77.0</ele><time>2026-04-08T08:14:28.943Z</time></trkpt><trkpt lat="44.7833402" lon="10.1845196"><ele>77.5</ele><time>2026-04-08T08:14:29.943Z</time></trkpt><trkpt lat="44.7836059" lon="10.1847482"><ele>78.0</ele><time>2026-04-08T08:14:30.943Z</time></trkpt><trkpt lat="44.7838729" lon="10.1849749"><ele>78.0</ele><time>2026-04-08T08:14:31.943Z</time></trkpt><trkpt lat="44.7841392" lon="10.1851951"><ele>78.0</ele><time>2026-04-08T08:14:32.943Z</time></trkpt><trkpt lat="44.7844065" lon="10.1854116"><ele>78.0</ele><time>2026-04-08T08:14:33.943Z</time></trkpt><trkpt lat="44.7846716" lon="10.185623"><ele>78.0</ele><time>2026-04-08T08:14:34.943Z</time></trkpt><trkpt lat="44.7849322" lon="10.1858332"><ele>77.0</ele><time>2026-04-08T08:14:35.944Z</time></trkpt><trkpt lat="44.7851927" lon="10.1860397"><ele>76.0</ele><time>2026-04-08T08:14:36.943Z</time></trkpt><trkpt lat="44.7854507" lon="10.1862472"><ele>76.0</ele><time>2026-04-08T08:14:37.943Z</time></trkpt><trkpt lat="44.7857065" lon="10.1864528"><ele>76.0</ele><time>2026-04-08T08:14:38.943Z</time></trkpt><trkpt lat="44.7859626" lon="10.1866578"><ele>75.5</ele><time>2026-04-08T08:14:39.943Z</time></trkpt><trkpt lat="44.7862188" lon="10.1868614"><ele>75.0</ele><time>2026-04-08T08:14:40.943Z</time></trkpt><trkpt lat="44.7864747" lon="10.1870678"><ele>75.0</ele><time>2026-04-08T08:14:41.944Z</time></trkpt><trkpt lat="44.7867321" lon="10.1872676"><ele>75.0</ele><time>2026-04-08T08:14:42.943Z</time></trkpt><trkpt lat="44.786988" lon="10.1874721"><ele>77.0</ele><time>2026-04-08T08:14:43.943Z</time></trkpt><trkpt lat="44.7872461" lon="10.1876744"><ele>79.0</ele><time>2026-04-08T08:14:44.943Z</time></trkpt><trkpt lat="44.7875035" lon="10.1878837"><ele>79.0</ele><time>2026-04-08T08:14:45.944Z</time></trkpt><trkpt lat="44.7877625" lon="10.1880901"><ele>79.0</ele><time>2026-04-08T08:14:46.943Z</time></trkpt><trkpt lat="44.7880232" lon="10.1882927"><ele>78.5</ele><time>2026-04-08T08:14:47.943Z</time></trkpt><trkpt lat="44.7882839" lon="10.1884993"><ele>78.0</ele><time>2026-04-08T08:14:48.944Z</time></trkpt><trkpt lat="44.7885451" lon="10.1887062"><ele>77.0</ele><time>2026-04-08T08:14:49.943Z</time></trkpt><trkpt lat="44.7888059" lon="10.1889124"><ele>76.0</ele><time>2026-04-08T08:14:50.943Z</time></trkpt><trkpt lat="44.7890652" lon="10.1891198"><ele>76.0</ele><time>2026-04-08T08:14:51.943Z</time></trkpt><trkpt lat="44.7893253" lon="10.1893273"><ele>76.0</ele><time>2026-04-08T08:14:52.943Z</time></trkpt><trkpt lat="44.7895855" lon="10.1895357"><ele>76.5</ele><time>2026-04-08T08:14:53.943Z</time></trkpt><trkpt lat="44.7898475" lon="10.1897426"><ele>77.0</ele><time>2026-04-08T08:14:54.944Z</time></trkpt><trkpt lat="44.7901084" lon="10.1899519"><ele>76.0</ele><time>2026-04-08T08:14:55.944Z</time></trkpt><trkpt lat="44.7903695" lon="10.1901591"><ele>75.0</ele><time>2026-04-08T08:14:56.943Z</time></trkpt><trkpt lat="44.7906277" lon="10.1903643"><ele>75.0</ele><time>2026-04-08T08:14:57.944Z</time></trkpt><trkpt lat="44.7908836" lon="10.1905634"><ele>75.0</ele><time>2026-04-08T08:14:58.944Z</time></trkpt><trkpt lat="44.7911348" lon="10.1907636"><ele>75.0</ele><time>2026-04-08T08:14:59.943Z</time></trkpt><trkpt lat="44.7913798" lon="10.1909577"><ele>75.0</ele><time>2026-04-08T08:15:00.944Z</time></trkpt><trkpt lat="44.7916232" lon="10.1911485"><ele>75.5</ele><time>2026-04-08T08:15:01.943Z</time></trkpt><trkpt lat="44.791867" lon="10.1913381"><ele>76.0</ele><time>2026-04-08T08:15:02.943Z</time></trkpt><trkpt lat="44.7921112" lon="10.1915269"><ele>76.0</ele><time>2026-04-08T08:15:03.943Z</time></trkpt><trkpt lat="44.7923585" lon="10.1917208"><ele>76.0</ele><time>2026-04-08T08:15:04.943Z</time></trkpt><trkpt lat="44.7926081" lon="10.1919168"><ele>75.5</ele><time>2026-04-08T08:15:05.943Z</time></trkpt><trkpt lat="44.7928603" lon="10.192112"><ele>75.0</ele><time>2026-04-08T08:15:06.943Z</time></trkpt><trkpt lat="44.7931161" lon="10.1923068"><ele>75.5</ele><time>2026-04-08T08:15:07.943Z</time></trkpt><trkpt lat="44.7933739" lon="10.1925008"><ele>76.0</ele><time>2026-04-08T08:15:08.944Z</time></trkpt><trkpt lat="44.7936321" lon="10.1926943"><ele>76.0</ele><time>2026-04-08T08:15:09.943Z</time></trkpt><trkpt lat="44.793887" lon="10.1928918"><ele>76.0</ele><time>2026-04-08T08:15:10.943Z</time></trkpt><trkpt lat="44.7941375" lon="10.1930914"><ele>74.5</ele><time>2026-04-08T08:15:11.943Z</time></trkpt><trkpt lat="44.7943841" lon="10.193296"><ele>73.0</ele><time>2026-04-08T08:15:12.943Z</time></trkpt><trkpt lat="44.7946269" lon="10.1935084"><ele>73.0</ele><time>2026-04-08T08:15:13.943Z</time></trkpt><trkpt lat="44.7948711" lon="10.1937191"><ele>73.0</ele><time>2026-04-08T08:15:14.943Z</time></trkpt><trkpt lat="44.7951163" lon="10.1939226"><ele>74.0</ele><time>2026-04-08T08:15:15.943Z</time></trkpt><trkpt lat="44.7953644" lon="10.1941181"><ele>75.0</ele><time>2026-04-08T08:15:16.943Z</time></trkpt><trkpt lat="44.7956166" lon="10.1943064"><ele>75.0</ele><time>2026-04-08T08:15:17.943Z</time></trkpt><trkpt lat="44.7958734" lon="10.1944864"><ele>75.0</ele><time>2026-04-08T08:15:18.943Z</time></trkpt><trkpt lat="44.7961329" lon="10.194657"><ele>74.0</ele><time>2026-04-08T08:15:19.943Z</time></trkpt><trkpt lat="44.7963934" lon="10.1948216"><ele>73.0</ele><time>2026-04-08T08:15:20.943Z</time></trkpt><trkpt lat="44.7966563" lon="10.1949806"><ele>72.0</ele><time>2026-04-08T08:15:21.944Z</time></trkpt><trkpt lat="44.7969204" lon="10.1951398"><ele>71.0</ele><time>2026-04-08T08:15:22.944Z</time></trkpt><trkpt lat="44.7971839" lon="10.1952949"><ele>71.0</ele><time>2026-04-08T08:15:23.943Z</time></trkpt><trkpt lat="44.7974505" lon="10.1954447"><ele>71.0</ele><time>2026-04-08T08:15:24.943Z</time></trkpt><trkpt lat="44.7977193" lon="10.1955867"><ele>71.0</ele><time>2026-04-08T08:15:25.944Z</time></trkpt><trkpt lat="44.7979909" lon="10.1957199"><ele>71.0</ele><time>2026-04-08T08:15:26.943Z</time></trkpt><trkpt lat="44.7982648" lon="10.1958457"><ele>71.5</ele><time>2026-04-08T08:15:27.943Z</time></trkpt><trkpt lat="44.7985383" lon="10.1959671"><ele>72.0</ele><time>2026-04-08T08:15:28.943Z</time></trkpt><trkpt lat="44.7988126" lon="10.1960889"><ele>72.0</ele><time>2026-04-08T08:15:29.944Z</time></trkpt><trkpt lat="44.7990869" lon="10.1962111"><ele>72.0</ele><time>2026-04-08T08:15:30.943Z</time></trkpt><trkpt lat="44.7993616" lon="10.196334"><ele>72.0</ele><time>2026-04-08T08:15:31.944Z</time></trkpt><trkpt lat="44.7996342" lon="10.196456"><ele>72.0</ele><time>2026-04-08T08:15:32.944Z</time></trkpt><trkpt lat="44.7999074" lon="10.1965792"><ele>73.0</ele><time>2026-04-08T08:15:33.944Z</time></trkpt><trkpt lat="44.8001821" lon="10.1967036"><ele>74.0</ele><time>2026-04-08T08:15:34.943Z</time></trkpt><trkpt lat="44.8004543" lon="10.1968279"><ele>74.0</ele><time>2026-04-08T08:15:35.944Z</time></trkpt><trkpt lat="44.8007275" lon="10.1969501"><ele>74.0</ele><time>2026-04-08T08:15:36.943Z</time></trkpt><trkpt lat="44.8010002" lon="10.1970713"><ele>72.0</ele><time>2026-04-08T08:15:37.944Z</time></trkpt><trkpt lat="44.801272" lon="10.1971931"><ele>70.0</ele><time>2026-04-08T08:15:38.943Z</time></trkpt><trkpt lat="44.8015449" lon="10.1973199"><ele>70.5</ele><time>2026-04-08T08:15:39.943Z</time></trkpt><trkpt lat="44.8018176" lon="10.1974466"><ele>71.0</ele><time>2026-04-08T08:15:40.944Z</time></trkpt><trkpt lat="44.8020891" lon="10.1975747"><ele>69.5</ele><time>2026-04-08T08:15:41.943Z</time></trkpt><trkpt lat="44.802362" lon="10.1977015"><ele>68.0</ele><time>2026-04-08T08:15:42.943Z</time></trkpt><trkpt lat="44.8026359" lon="10.1978228"><ele>68.5</ele><time>2026-04-08T08:15:43.943Z</time></trkpt><trkpt lat="44.8029104" lon="10.1979411"><ele>69.0</ele><time>2026-04-08T08:15:44.944Z</time></trkpt><trkpt lat="44.8031863" lon="10.1980559"><ele>69.0</ele><time>2026-04-08T08:15:45.943Z</time></trkpt><trkpt lat="44.8034612" lon="10.1981722"><ele>69.0</ele><time>2026-04-08T08:15:46.943Z</time></trkpt><trkpt lat="44.8037345" lon="10.1982921"><ele>69.0</ele><time>2026-04-08T08:15:47.943Z</time></trkpt><trkpt lat="44.8040092" lon="10.1984125"><ele>69.0</ele><time>2026-04-08T08:15:48.943Z</time></trkpt><trkpt lat="44.8042825" lon="10.1985347"><ele>68.0</ele><time>2026-04-08T08:15:49.943Z</time></trkpt><trkpt lat="44.8045559" lon="10.198656"><ele>67.0</ele><time>2026-04-08T08:15:50.943Z</time></trkpt><trkpt lat="44.804831" lon="10.1987782"><ele>67.0</ele><time>2026-04-08T08:15:51.943Z</time></trkpt><trkpt lat="44.8051037" lon="10.1988991"><ele>67.0</ele><time>2026-04-08T08:15:52.943Z</time></trkpt><trkpt lat="44.8053773" lon="10.1990224"><ele>68.5</ele><time>2026-04-08T08:15:53.943Z</time></trkpt><trkpt lat="44.8056506" lon="10.199146"><ele>70.0</ele><time>2026-04-08T08:15:54.943Z</time></trkpt><trkpt lat="44.8059249" lon="10.1992695"><ele>69.5</ele><time>2026-04-08T08:15:55.944Z</time></trkpt><trkpt lat="44.8061975" lon="10.199394"><ele>69.0</ele><time>2026-04-08T08:15:56.943Z</time></trkpt><trkpt lat="44.8064722" lon="10.1995174"><ele>69.0</ele><time>2026-04-08T08:15:57.944Z</time></trkpt><trkpt lat="44.8067461" lon="10.1996412"><ele>69.0</ele><time>2026-04-08T08:15:58.943Z</time></trkpt><trkpt lat="44.8070172" lon="10.1997657"><ele>68.5</ele><time>2026-04-08T08:15:59.944Z</time></trkpt><trkpt lat="44.8072901" lon="10.1998904"><ele>68.0</ele><time>2026-04-08T08:16:00.943Z</time></trkpt><trkpt lat="44.8075618" lon="10.2000133"><ele>68.0</ele><time>2026-04-08T08:16:01.944Z</time></trkpt><trkpt lat="44.8078376" lon="10.2001372"><ele>68.0</ele><time>2026-04-08T08:16:02.943Z</time></trkpt><trkpt lat="44.8081129" lon="10.2002577"><ele>68.0</ele><time>2026-04-08T08:16:03.944Z</time></trkpt><trkpt lat="44.8083874" lon="10.2003795"><ele>68.0</ele><time>2026-04-08T08:16:04.943Z</time></trkpt><trkpt lat="44.8086624" lon="10.2004987"><ele>68.5</ele><time>2026-04-08T08:16:05.943Z</time></trkpt><trkpt lat="44.8089354" lon="10.2006242"><ele>69.0</ele><time>2026-04-08T08:16:06.943Z</time></trkpt><trkpt lat="44.8092095" lon="10.2007458"><ele>68.0</ele><time>2026-04-08T08:16:07.944Z</time></trkpt><trkpt lat="44.809485" lon="10.2008667"><ele>67.0</ele><time>2026-04-08T08:16:08.944Z</time></trkpt><trkpt lat="44.8097595" lon="10.2009884"><ele>67.0</ele><time>2026-04-08T08:16:09.943Z</time></trkpt><trkpt lat="44.8100347" lon="10.2011137"><ele>67.0</ele><time>2026-04-08T08:16:10.943Z</time></trkpt><trkpt lat="44.8103099" lon="10.2012338"><ele>67.5</ele><time>2026-04-08T08:16:11.943Z</time></trkpt><trkpt lat="44.8105829" lon="10.2013553"><ele>68.0</ele><time>2026-04-08T08:16:12.943Z</time></trkpt><trkpt lat="44.8108555" lon="10.2014812"><ele>67.5</ele><time>2026-04-08T08:16:13.944Z</time></trkpt><trkpt lat="44.8111283" lon="10.2016055"><ele>67.0</ele><time>2026-04-08T08:16:14.943Z</time></trkpt><trkpt lat="44.8114004" lon="10.2017277"><ele>67.0</ele><time>2026-04-08T08:16:15.943Z</time></trkpt><trkpt lat="44.8116738" lon="10.20185"><ele>67.0</ele><time>2026-04-08T08:16:16.943Z</time></trkpt><trkpt lat="44.8119421" lon="10.2019693"><ele>67.0</ele><time>2026-04-08T08:16:17.943Z</time></trkpt><trkpt lat="44.8122149" lon="10.2020909"><ele>67.0</ele><time>2026-04-08T08:16:18.943Z</time></trkpt><trkpt lat="44.8124867" lon="10.2022113"><ele>66.0</ele><time>2026-04-08T08:16:19.944Z</time></trkpt><trkpt lat="44.8127577" lon="10.2023385"><ele>65.0</ele><time>2026-04-08T08:16:20.943Z</time></trkpt><trkpt lat="44.8130303" lon="10.202462"><ele>65.0</ele><time>2026-04-08T08:16:21.944Z</time></trkpt><trkpt lat="44.8133041" lon="10.2025796"><ele>65.0</ele><time>2026-04-08T08:16:22.943Z</time></trkpt><trkpt lat="44.81358" lon="10.2026994"><ele>66.0</ele><time>2026-04-08T08:16:23.943Z</time></trkpt><trkpt lat="44.8138544" lon="10.2028234"><ele>67.0</ele><time>2026-04-08T08:16:24.943Z</time></trkpt><trkpt lat="44.8141295" lon="10.202944"><ele>66.5</ele><time>2026-04-08T08:16:25.943Z</time></trkpt><trkpt lat="44.8144041" lon="10.2030612"><ele>66.0</ele><time>2026-04-08T08:16:26.944Z</time></trkpt><trkpt lat="44.8146774" lon="10.2031859"><ele>66.0</ele><time>2026-04-08T08:16:27.944Z</time></trkpt><trkpt lat="44.8149501" lon="10.2033109"><ele>66.0</ele><time>2026-04-08T08:16:28.943Z</time></trkpt><trkpt lat="44.8152231" lon="10.2034315"><ele>65.5</ele><time>2026-04-08T08:16:29.943Z</time></trkpt><trkpt lat="44.8154958" lon="10.2035555"><ele>65.0</ele><time>2026-04-08T08:16:30.943Z</time></trkpt><trkpt lat="44.8157695" lon="10.2036772"><ele>65.0</ele><time>2026-04-08T08:16:31.943Z</time></trkpt><trkpt lat="44.816044" lon="10.2038005"><ele>65.0</ele><time>2026-04-08T08:16:32.944Z</time></trkpt><trkpt lat="44.8163176" lon="10.2039175"><ele>65.5</ele><time>2026-04-08T08:16:33.943Z</time></trkpt><trkpt lat="44.8165912" lon="10.2040374"><ele>66.0</ele><time>2026-04-08T08:16:34.943Z</time></trkpt><trkpt lat="44.8168654" lon="10.2041571"><ele>66.0</ele><time>2026-04-08T08:16:35.944Z</time></trkpt><trkpt lat="44.8171388" lon="10.2042789"><ele>66.0</ele><time>2026-04-08T08:16:36.943Z</time></trkpt><trkpt lat="44.8174131" lon="10.2044025"><ele>65.5</ele><time>2026-04-08T08:16:37.943Z</time></trkpt><trkpt lat="44.817686" lon="10.2045255"><ele>65.0</ele><time>2026-04-08T08:16:38.943Z</time></trkpt><trkpt lat="44.8179588" lon="10.2046496"><ele>65.0</ele><time>2026-04-08T08:16:39.943Z</time></trkpt><trkpt lat="44.8182308" lon="10.2047713"><ele>65.0</ele><time>2026-04-08T08:16:40.943Z</time></trkpt><trkpt lat="44.8185031" lon="10.2048935"><ele>63.5</ele><time>2026-04-08T08:16:41.943Z</time></trkpt><trkpt lat="44.8187747" lon="10.2050163"><ele>62.0</ele><time>2026-04-08T08:16:42.943Z</time></trkpt><trkpt lat="44.8190463" lon="10.2051384"><ele>62.5</ele><time>2026-04-08T08:16:43.943Z</time></trkpt><trkpt lat="44.8193191" lon="10.2052587"><ele>63.0</ele><time>2026-04-08T08:16:44.943Z</time></trkpt><trkpt lat="44.8195926" lon="10.2053803"><ele>63.0</ele><time>2026-04-08T08:16:45.943Z</time></trkpt><trkpt lat="44.8198669" lon="10.2055002"><ele>63.0</ele><time>2026-04-08T08:16:46.943Z</time></trkpt><trkpt lat="44.8201408" lon="10.2056193"><ele>64.0</ele><time>2026-04-08T08:16:47.943Z</time></trkpt><trkpt lat="44.8204153" lon="10.2057399"><ele>65.0</ele><time>2026-04-08T08:16:48.943Z</time></trkpt><trkpt lat="44.8206892" lon="10.2058604"><ele>65.0</ele><time>2026-04-08T08:16:49.943Z</time></trkpt><trkpt lat="44.8209638" lon="10.2059832"><ele>65.0</ele><time>2026-04-08T08:16:50.944Z</time></trkpt><trkpt lat="44.8212387" lon="10.2061066"><ele>64.5</ele><time>2026-04-08T08:16:51.943Z</time></trkpt><trkpt lat="44.8215118" lon="10.206238"><ele>64.0</ele><time>2026-04-08T08:16:52.943Z</time></trkpt><trkpt lat="44.8217836" lon="10.2063695"><ele>63.5</ele><time>2026-04-08T08:16:53.943Z</time></trkpt><trkpt lat="44.8220593" lon="10.2064898"><ele>63.0</ele><time>2026-04-08T08:16:54.943Z</time></trkpt><trkpt lat="44.8223358" lon="10.2066085"><ele>63.0</ele><time>2026-04-08T08:16:55.944Z</time></trkpt><trkpt lat="44.8226117" lon="10.2067264"><ele>63.0</ele><time>2026-04-08T08:16:56.943Z</time></trkpt><trkpt lat="44.8228878" lon="10.2068436"><ele>62.0</ele><time>2026-04-08T08:16:57.943Z</time></trkpt><trkpt lat="44.8231636" lon="10.2069599"><ele>61.0</ele><time>2026-04-08T08:16:58.943Z</time></trkpt><trkpt lat="44.8234385" lon="10.2070758"><ele>62.5</ele><time>2026-04-08T08:16:59.943Z</time></trkpt><trkpt lat="44.8237003" lon="10.2071876"><ele>64.0</ele><time>2026-04-08T08:17:00.943Z</time></trkpt><trkpt lat="44.8239483" lon="10.2072926"><ele>64.5</ele><time>2026-04-08T08:17:01.943Z</time></trkpt><trkpt lat="44.8241912" lon="10.2073905"><ele>65.0</ele><time>2026-04-08T08:17:02.943Z</time></trkpt><trkpt lat="44.8244306" lon="10.2074865"><ele>65.0</ele><time>2026-04-08T08:17:03.943Z</time></trkpt><trkpt lat="44.8246713" lon="10.2075786"><ele>65.0</ele><time>2026-04-08T08:17:04.944Z</time></trkpt><trkpt lat="44.8249124" lon="10.2076834"><ele>65.0</ele><time>2026-04-08T08:17:05.943Z</time></trkpt><trkpt lat="44.8251445" lon="10.2078021"><ele>65.0</ele><time>2026-04-08T08:17:06.943Z</time></trkpt><trkpt lat="44.8253776" lon="10.207914"><ele>63.5</ele><time>2026-04-08T08:17:07.943Z</time></trkpt><trkpt lat="44.8256225" lon="10.2079936"><ele>62.0</ele><time>2026-04-08T08:17:08.943Z</time></trkpt><trkpt lat="44.8258717" lon="10.2080711"><ele>62.5</ele><time>2026-04-08T08:17:09.943Z</time></trkpt><trkpt lat="44.826121" lon="10.2081783"><ele>63.0</ele><time>2026-04-08T08:17:10.943Z</time></trkpt><trkpt lat="44.8263697" lon="10.2082956"><ele>63.0</ele><time>2026-04-08T08:17:11.943Z</time></trkpt><trkpt lat="44.8266143" lon="10.2084115"><ele>63.0</ele><time>2026-04-08T08:17:12.944Z</time></trkpt><trkpt lat="44.8268591" lon="10.2085221"><ele>63.5</ele><time>2026-04-08T08:17:13.944Z</time></trkpt><trkpt lat="44.8271063" lon="10.208636"><ele>64.0</ele><time>2026-04-08T08:17:14.943Z</time></trkpt><trkpt lat="44.8273569" lon="10.2087476"><ele>64.0</ele><time>2026-04-08T08:17:15.943Z</time></trkpt><trkpt lat="44.8276094" lon="10.2088605"><ele>64.0</ele><time>2026-04-08T08:17:16.943Z</time></trkpt><trkpt lat="44.827863" lon="10.2089734"><ele>63.5</ele><time>2026-04-08T08:17:17.943Z</time></trkpt><trkpt lat="44.8281179" lon="10.2090891"><ele>63.0</ele><time>2026-04-08T08:17:18.944Z</time></trkpt><trkpt lat="44.8283755" lon="10.2092052"><ele>63.0</ele><time>2026-04-08T08:17:19.944Z</time></trkpt><trkpt lat="44.8286375" lon="10.2093215"><ele>63.0</ele><time>2026-04-08T08:17:20.944Z</time></trkpt><trkpt lat="44.8289047" lon="10.2094385"><ele>63.0</ele><time>2026-04-08T08:17:21.943Z</time></trkpt><trkpt lat="44.8291762" lon="10.2095569"><ele>63.0</ele><time>2026-04-08T08:17:22.943Z</time></trkpt><trkpt lat="44.829448" lon="10.2096798"><ele>61.0</ele><time>2026-04-08T08:17:23.944Z</time></trkpt><trkpt lat="44.8297231" lon="10.2098028"><ele>59.0</ele><time>2026-04-08T08:17:24.944Z</time></trkpt><trkpt lat="44.8300016" lon="10.2099262"><ele>59.0</ele><time>2026-04-08T08:17:25.943Z</time></trkpt><trkpt lat="44.8302833" lon="10.2100541"><ele>59.0</ele><time>2026-04-08T08:17:26.944Z</time></trkpt><trkpt lat="44.8305691" lon="10.2101832"><ele>59.0</ele><time>2026-04-08T08:17:27.943Z</time></trkpt><trkpt lat="44.8308571" lon="10.2103139"><ele>59.0</ele><time>2026-04-08T08:17:28.943Z</time></trkpt><trkpt lat="44.8311493" lon="10.2104428"><ele>59.0</ele><time>2026-04-08T08:17:29.943Z</time></trkpt><trkpt lat="44.8314468" lon="10.2105756"><ele>59.0</ele><time>2026-04-08T08:17:30.943Z</time></trkpt><trkpt lat="44.8317475" lon="10.2107159"><ele>58.0</ele><time>2026-04-08T08:17:31.943Z</time></trkpt><trkpt lat="44.8320482" lon="10.210867"><ele>57.0</ele><time>2026-04-08T08:17:32.944Z</time></trkpt><trkpt lat="44.8323503" lon="10.2110292"><ele>58.0</ele><time>2026-04-08T08:17:33.943Z</time></trkpt><trkpt lat="44.8326537" lon="10.2111949"><ele>59.0</ele><time>2026-04-08T08:17:34.944Z</time></trkpt><trkpt lat="44.8329586" lon="10.2113685"><ele>58.0</ele><time>2026-04-08T08:17:35.943Z</time></trkpt><trkpt lat="44.8332612" lon="10.2115465"><ele>57.0</ele><time>2026-04-08T08:17:36.943Z</time></trkpt><trkpt lat="44.8335648" lon="10.2117279"><ele>56.5</ele><time>2026-04-08T08:17:37.943Z</time></trkpt><trkpt lat="44.8338671" lon="10.2119176"><ele>56.0</ele><time>2026-04-08T08:17:38.943Z</time></trkpt><trkpt lat="44.8341676" lon="10.2121109"><ele>56.0</ele><time>2026-04-08T08:17:39.943Z</time></trkpt><trkpt lat="44.8344686" lon="10.2123083"><ele>56.0</ele><time>2026-04-08T08:17:40.944Z</time></trkpt><trkpt lat="44.8347718" lon="10.212511"><ele>56.0</ele><time>2026-04-08T08:17:41.943Z</time></trkpt><trkpt lat="44.8350737" lon="10.21272"><ele>56.0</ele><time>2026-04-08T08:17:42.944Z</time></trkpt><trkpt lat="44.8353751" lon="10.2129361"><ele>55.0</ele><time>2026-04-08T08:17:43.943Z</time></trkpt><trkpt lat="44.8356731" lon="10.2131621"><ele>54.0</ele><time>2026-04-08T08:17:44.943Z</time></trkpt><trkpt lat="44.835969" lon="10.213401"><ele>54.5</ele><time>2026-04-08T08:17:45.944Z</time></trkpt><trkpt lat="44.8362766" lon="10.2136569"><ele>55.0</ele><time>2026-04-08T08:17:46.943Z</time></trkpt><trkpt lat="44.8365889" lon="10.2139214"><ele>55.0</ele><time>2026-04-08T08:17:47.943Z</time></trkpt><trkpt lat="44.8368856" lon="10.2141962"><ele>55.0</ele><time>2026-04-08T08:17:48.943Z</time></trkpt><trkpt lat="44.837179" lon="10.2145046"><ele>54.0</ele><time>2026-04-08T08:17:49.944Z</time></trkpt><trkpt lat="44.8374834" lon="10.214827"><ele>53.0</ele><time>2026-04-08T08:17:50.944Z</time></trkpt><trkpt lat="44.837804" lon="10.2151451"><ele>53.0</ele><time>2026-04-08T08:17:51.943Z</time></trkpt><trkpt lat="44.8381179" lon="10.2154595"><ele>53.0</ele><time>2026-04-08T08:17:52.943Z</time></trkpt><trkpt lat="44.8384125" lon="10.2157556"><ele>54.0</ele><time>2026-04-08T08:17:53.943Z</time></trkpt><trkpt lat="44.8386873" lon="10.2160391"><ele>55.0</ele><time>2026-04-08T08:17:54.943Z</time></trkpt><trkpt lat="44.8389492" lon="10.2163087"><ele>55.5</ele><time>2026-04-08T08:17:55.943Z</time></trkpt><trkpt lat="44.8392034" lon="10.2165656"><ele>56.0</ele><time>2026-04-08T08:17:56.943Z</time></trkpt><trkpt lat="44.8394544" lon="10.2168136"><ele>56.0</ele><time>2026-04-08T08:17:57.944Z</time></trkpt><trkpt lat="44.8396955" lon="10.2170637"><ele>56.0</ele><time>2026-04-08T08:17:58.943Z</time></trkpt><trkpt lat="44.8399327" lon="10.2173129"><ele>55.0</ele><time>2026-04-08T08:17:59.943Z</time></trkpt><trkpt lat="44.8401677" lon="10.2175555"><ele>54.0</ele><time>2026-04-08T08:18:00.944Z</time></trkpt><trkpt lat="44.8404006" lon="10.2177957"><ele>54.0</ele><time>2026-04-08T08:18:01.944Z</time></trkpt><trkpt lat="44.8406309" lon="10.2180368"><ele>54.0</ele><time>2026-04-08T08:18:02.943Z</time></trkpt><trkpt lat="44.8408605" lon="10.2182746"><ele>53.0</ele><time>2026-04-08T08:18:03.943Z</time></trkpt><trkpt lat="44.8410887" lon="10.2185076"><ele>52.0</ele><time>2026-04-08T08:18:04.943Z</time></trkpt><trkpt lat="44.8413149" lon="10.2187385"><ele>52.0</ele><time>2026-04-08T08:18:05.944Z</time></trkpt><trkpt lat="44.8415419" lon="10.2189715"><ele>52.0</ele><time>2026-04-08T08:18:06.943Z</time></trkpt><trkpt lat="44.8417665" lon="10.2192079"><ele>53.0</ele><time>2026-04-08T08:18:07.943Z</time></trkpt><trkpt lat="44.8419957" lon="10.2194382"><ele>54.0</ele><time>2026-04-08T08:18:08.943Z</time></trkpt><trkpt lat="44.8422308" lon="10.2196631"><ele>54.0</ele><time>2026-04-08T08:18:09.944Z</time></trkpt><trkpt lat="44.8424654" lon="10.2198899"><ele>54.0</ele><time>2026-04-08T08:18:10.943Z</time></trkpt><trkpt lat="44.8427006" lon="10.2201208"><ele>54.0</ele><time>2026-04-08T08:18:11.943Z</time></trkpt><trkpt lat="44.8429365" lon="10.2203553"><ele>54.0</ele><time>2026-04-08T08:18:12.943Z</time></trkpt><trkpt lat="44.8431709" lon="10.2205938"><ele>54.0</ele><time>2026-04-08T08:18:13.943Z</time></trkpt><trkpt lat="44.8434029" lon="10.2208344"><ele>54.0</ele><time>2026-04-08T08:18:14.943Z</time></trkpt><trkpt lat="44.8436355" lon="10.2210737"><ele>54.0</ele><time>2026-04-08T08:18:15.943Z</time></trkpt><trkpt lat="44.8438678" lon="10.2213107"><ele>54.0</ele><time>2026-04-08T08:18:16.943Z</time></trkpt><trkpt lat="44.8440988" lon="10.2215493"><ele>53.0</ele><time>2026-04-08T08:18:17.943Z</time></trkpt><trkpt lat="44.8443302" lon="10.2217878"><ele>52.0</ele><time>2026-04-08T08:18:18.944Z</time></trkpt><trkpt lat="44.8445602" lon="10.2220274"><ele>52.0</ele><time>2026-04-08T08:18:19.943Z</time></trkpt><trkpt lat="44.8447895" lon="10.2222687"><ele>52.0</ele><time>2026-04-08T08:18:20.944Z</time></trkpt><trkpt lat="44.8450182" lon="10.2225106"><ele>53.5</ele><time>2026-04-08T08:18:21.943Z</time></trkpt><trkpt lat="44.8452433" lon="10.2227552"><ele>55.0</ele><time>2026-04-08T08:18:22.944Z</time></trkpt><trkpt lat="44.8454674" lon="10.2230045"><ele>54.0</ele><time>2026-04-08T08:18:23.943Z</time></trkpt><trkpt lat="44.8456904" lon="10.2232517"><ele>53.0</ele><time>2026-04-08T08:18:24.943Z</time></trkpt><trkpt lat="44.8459222" lon="10.2234903"><ele>52.0</ele><time>2026-04-08T08:18:25.943Z</time></trkpt><trkpt lat="44.8461523" lon="10.2237318"><ele>51.0</ele><time>2026-04-08T08:18:26.944Z</time></trkpt><trkpt lat="44.8463827" lon="10.2239696"><ele>50.5</ele><time>2026-04-08T08:18:27.943Z</time></trkpt><trkpt lat="44.846614" lon="10.2242052"><ele>50.0</ele><time>2026-04-08T08:18:28.943Z</time></trkpt><trkpt lat="44.8468451" lon="10.224443"><ele>49.5</ele><time>2026-04-08T08:18:29.943Z</time></trkpt><trkpt lat="44.8470751" lon="10.2246818"><ele>49.0</ele><time>2026-04-08T08:18:30.943Z</time></trkpt><trkpt lat="44.8473061" lon="10.2249195"><ele>49.0</ele><time>2026-04-08T08:18:31.944Z</time></trkpt><trkpt lat="44.8475381" lon="10.2251566"><ele>49.0</ele><time>2026-04-08T08:18:32.943Z</time></trkpt><trkpt lat="44.8477687" lon="10.2253962"><ele>48.0</ele><time>2026-04-08T08:18:33.943Z</time></trkpt><trkpt lat="44.8479999" lon="10.2256354"><ele>47.0</ele><time>2026-04-08T08:18:34.943Z</time></trkpt><trkpt lat="44.8482325" lon="10.2258717"><ele>48.0</ele><time>2026-04-08T08:18:35.943Z</time></trkpt><trkpt lat="44.8484639" lon="10.226111"><ele>49.0</ele><time>2026-04-08T08:18:36.943Z</time></trkpt><trkpt lat="44.8486948" lon="10.2263498"><ele>49.0</ele><time>2026-04-08T08:18:37.943Z</time></trkpt><trkpt lat="44.8489262" lon="10.2265867"><ele>49.0</ele><time>2026-04-08T08:18:38.943Z</time></trkpt><trkpt lat="44.849157" lon="10.2268233"><ele>49.0</ele><time>2026-04-08T08:18:39.944Z</time></trkpt><trkpt lat="44.8493882" lon="10.2270587"><ele>49.0</ele><time>2026-04-08T08:18:40.943Z</time></trkpt><trkpt lat="44.8496239" lon="10.2272876"><ele>49.5</ele><time>2026-04-08T08:18:41.944Z</time></trkpt><trkpt lat="44.8498603" lon="10.227515"><ele>50.0</ele><time>2026-04-08T08:18:42.943Z</time></trkpt><trkpt lat="44.8500972" lon="10.2277396"><ele>48.5</ele><time>2026-04-08T08:18:43.943Z</time></trkpt><trkpt lat="44.8503367" lon="10.2279607"><ele>47.0</ele><time>2026-04-08T08:18:44.944Z</time></trkpt><trkpt lat="44.8505778" lon="10.2281781"><ele>47.0</ele><time>2026-04-08T08:18:45.944Z</time></trkpt><trkpt lat="44.8508233" lon="10.2283915"><ele>47.0</ele><time>2026-04-08T08:18:46.944Z</time></trkpt><trkpt lat="44.8510704" lon="10.2285979"><ele>47.0</ele><time>2026-04-08T08:18:47.943Z</time></trkpt><trkpt lat="44.8513209" lon="10.2287985"><ele>47.0</ele><time>2026-04-08T08:18:48.943Z</time></trkpt><trkpt lat="44.8515737" lon="10.228991"><ele>47.0</ele><time>2026-04-08T08:18:49.944Z</time></trkpt><trkpt lat="44.8518302" lon="10.2291736"><ele>47.0</ele><time>2026-04-08T08:18:50.943Z</time></trkpt><trkpt lat="44.8520891" lon="10.2293494"><ele>47.0</ele><time>2026-04-08T08:18:51.944Z</time></trkpt><trkpt lat="44.8523513" lon="10.2295168"><ele>47.0</ele><time>2026-04-08T08:18:52.943Z</time></trkpt><trkpt lat="44.8526143" lon="10.2296781"><ele>47.0</ele><time>2026-04-08T08:18:53.944Z</time></trkpt><trkpt lat="44.8528791" lon="10.2298314"><ele>47.0</ele><time>2026-04-08T08:18:54.943Z</time></trkpt><trkpt lat="44.8531453" lon="10.2299775"><ele>47.0</ele><time>2026-04-08T08:18:55.944Z</time></trkpt><trkpt lat="44.8534131" lon="10.2301202"><ele>47.0</ele><time>2026-04-08T08:18:56.943Z</time></trkpt><trkpt lat="44.8536826" lon="10.2302555"><ele>46.0</ele><time>2026-04-08T08:18:57.943Z</time></trkpt><trkpt lat="44.8539529" lon="10.2303855"><ele>45.0</ele><time>2026-04-08T08:18:58.944Z</time></trkpt><trkpt lat="44.8542233" lon="10.2305094"><ele>45.0</ele><time>2026-04-08T08:18:59.943Z</time></trkpt><trkpt lat="44.8544913" lon="10.230636"><ele>45.0</ele><time>2026-04-08T08:19:00.943Z</time></trkpt><trkpt lat="44.8547576" lon="10.2307708"><ele>44.5</ele><time>2026-04-08T08:19:01.943Z</time></trkpt><trkpt lat="44.8550243" lon="10.2309005"><ele>44.0</ele><time>2026-04-08T08:19:02.943Z</time></trkpt><trkpt lat="44.8552957" lon="10.2310277"><ele>43.5</ele><time>2026-04-08T08:19:03.943Z</time></trkpt><trkpt lat="44.8555688" lon="10.2311525"><ele>43.0</ele><time>2026-04-08T08:19:04.943Z</time></trkpt><trkpt lat="44.8558457" lon="10.2312727"><ele>43.5</ele><time>2026-04-08T08:19:05.943Z</time></trkpt><trkpt lat="44.8561232" lon="10.2313908"><ele>44.0</ele><time>2026-04-08T08:19:06.943Z</time></trkpt><trkpt lat="44.8564007" lon="10.2315093"><ele>44.5</ele><time>2026-04-08T08:19:07.943Z</time></trkpt><trkpt lat="44.8566781" lon="10.2316322"><ele>45.0</ele><time>2026-04-08T08:19:08.943Z</time></trkpt><trkpt lat="44.856952" lon="10.2317581"><ele>45.0</ele><time>2026-04-08T08:19:09.943Z</time></trkpt><trkpt lat="44.8572257" lon="10.2318834"><ele>45.0</ele><time>2026-04-08T08:19:10.944Z</time></trkpt><trkpt lat="44.8574982" lon="10.2320123"><ele>45.5</ele><time>2026-04-08T08:19:11.943Z</time></trkpt><trkpt lat="44.8577705" lon="10.2321419"><ele>46.0</ele><time>2026-04-08T08:19:12.944Z</time></trkpt><trkpt lat="44.8580398" lon="10.2322725"><ele>45.5</ele><time>2026-04-08T08:19:13.943Z</time></trkpt><trkpt lat="44.8582974" lon="10.2323974"><ele>45.0</ele><time>2026-04-08T08:19:14.943Z</time></trkpt><trkpt lat="44.8585429" lon="10.2325122"><ele>46.0</ele><time>2026-04-08T08:19:15.943Z</time></trkpt><trkpt lat="44.8587805" lon="10.2326198"><ele>47.0</ele><time>2026-04-08T08:19:16.943Z</time></trkpt><trkpt lat="44.8590102" lon="10.2327265"><ele>47.0</ele><time>2026-04-08T08:19:17.944Z</time></trkpt><trkpt lat="44.8592366" lon="10.2328331"><ele>47.0</ele><time>2026-04-08T08:19:18.943Z</time></trkpt><trkpt lat="44.8594623" lon="10.2329394"><ele>47.0</ele><time>2026-04-08T08:19:19.944Z</time></trkpt><trkpt lat="44.8596882" lon="10.2330459"><ele>47.0</ele><time>2026-04-08T08:19:20.943Z</time></trkpt><trkpt lat="44.8599162" lon="10.2331461"><ele>46.5</ele><time>2026-04-08T08:19:21.943Z</time></trkpt><trkpt lat="44.8601457" lon="10.2332315"><ele>46.0</ele><time>2026-04-08T08:19:22.944Z</time></trkpt><trkpt lat="44.8603788" lon="10.2332942"><ele>46.0</ele><time>2026-04-08T08:19:23.943Z</time></trkpt><trkpt lat="44.8606099" lon="10.2333499"><ele>46.0</ele><time>2026-04-08T08:19:24.943Z</time></trkpt><trkpt lat="44.860841" lon="10.233395"><ele>46.0</ele><time>2026-04-08T08:19:25.944Z</time></trkpt><trkpt lat="44.8610709" lon="10.233434"><ele>46.0</ele><time>2026-04-08T08:19:26.943Z</time></trkpt><trkpt lat="44.8613002" lon="10.2334744"><ele>46.0</ele><time>2026-04-08T08:19:27.944Z</time></trkpt><trkpt lat="44.8615263" lon="10.2335228"><ele>46.0</ele><time>2026-04-08T08:19:28.943Z</time></trkpt><trkpt lat="44.8617511" lon="10.233592"><ele>45.5</ele><time>2026-04-08T08:19:29.943Z</time></trkpt><trkpt lat="44.8619716" lon="10.2336804"><ele>45.0</ele><time>2026-04-08T08:19:30.944Z</time></trkpt><trkpt lat="44.8621863" lon="10.2337964"><ele>45.0</ele><time>2026-04-08T08:19:31.943Z</time></trkpt><trkpt lat="44.8623941" lon="10.2339428"><ele>45.0</ele><time>2026-04-08T08:19:32.943Z</time></trkpt><trkpt lat="44.8625929" lon="10.2341163"><ele>45.0</ele><time>2026-04-08T08:19:33.943Z</time></trkpt><trkpt lat="44.8627838" lon="10.2343052"><ele>45.0</ele><time>2026-04-08T08:19:34.943Z</time></trkpt><trkpt lat="44.8629712" lon="10.2345064"><ele>45.0</ele><time>2026-04-08T08:19:35.943Z</time></trkpt><trkpt lat="44.8631563" lon="10.2347106"><ele>45.0</ele><time>2026-04-08T08:19:36.943Z</time></trkpt><trkpt lat="44.8633413" lon="10.2349147"><ele>45.5</ele><time>2026-04-08T08:19:37.943Z</time></trkpt><trkpt lat="44.8635268" lon="10.2351184"><ele>46.0</ele><time>2026-04-08T08:19:38.943Z</time></trkpt><trkpt lat="44.8637137" lon="10.2353228"><ele>46.0</ele><time>2026-04-08T08:19:39.943Z</time></trkpt><trkpt lat="44.8639004" lon="10.2355231"><ele>46.0</ele><time>2026-04-08T08:19:40.943Z</time></trkpt><trkpt lat="44.8640943" lon="10.2357073"><ele>46.5</ele><time>2026-04-08T08:19:41.944Z</time></trkpt><trkpt lat="44.8643" lon="10.2358649"><ele>47.0</ele><time>2026-04-08T08:19:42.943Z</time></trkpt><trkpt lat="44.8645166" lon="10.2359894"><ele>47.0</ele><time>2026-04-08T08:19:43.943Z</time></trkpt><trkpt lat="44.8647417" lon="10.2360803"><ele>47.0</ele><time>2026-04-08T08:19:44.943Z</time></trkpt><trkpt lat="44.8649706" lon="10.2361415"><ele>46.5</ele><time>2026-04-08T08:19:45.943Z</time></trkpt><trkpt lat="44.8652039" lon="10.2361728"><ele>46.0</ele><time>2026-04-08T08:19:46.943Z</time></trkpt><trkpt lat="44.8654393" lon="10.2361731"><ele>46.0</ele><time>2026-04-08T08:19:47.943Z</time></trkpt><trkpt lat="44.8656716" lon="10.236139"><ele>46.0</ele><time>2026-04-08T08:19:48.943Z</time></trkpt><trkpt lat="44.8658951" lon="10.2360688"><ele>45.333333333333336</ele><time>2026-04-08T08:19:49.943Z</time></trkpt><trkpt lat="44.8661011" lon="10.2359504"><ele>44.666666666666664</ele><time>2026-04-08T08:19:50.944Z</time></trkpt><trkpt lat="44.8662877" lon="10.2357886"><ele>44.0</ele><time>2026-04-08T08:19:51.943Z</time></trkpt><trkpt lat="44.8664498" lon="10.2355926"><ele>44.0</ele><time>2026-04-08T08:19:52.944Z</time></trkpt><trkpt lat="44.866588" lon="10.2353728"><ele>44.0</ele><time>2026-04-08T08:19:53.943Z</time></trkpt><trkpt lat="44.866692" lon="10.2351237"><ele>44.0</ele><time>2026-04-08T08:19:54.943Z</time></trkpt><trkpt lat="44.8667542" lon="10.2348549"><ele>43.33333333333333</ele><time>2026-04-08T08:19:55.943Z</time></trkpt><trkpt lat="44.8667822" lon="10.2345761"><ele>42.666666666666664</ele><time>2026-04-08T08:19:56.944Z</time></trkpt><trkpt lat="44.8667917" lon="10.2342972"><ele>42.0</ele><time>2026-04-08T08:19:57.944Z</time></trkpt><trkpt lat="44.8667873" lon="10.2340175"><ele>42.0</ele><time>2026-04-08T08:19:58.943Z</time></trkpt><trkpt lat="44.8667692" lon="10.2337366"><ele>42.0</ele><time>2026-04-08T08:19:59.943Z</time></trkpt><trkpt lat="44.8667326" lon="10.2334613"><ele>42.0</ele><time>2026-04-08T08:20:00.943Z</time></trkpt><trkpt lat="44.866683" lon="10.2331861"><ele>42.0</ele><time>2026-04-08T08:20:01.944Z</time></trkpt><trkpt lat="44.8666241" lon="10.232905"><ele>42.0</ele><time>2026-04-08T08:20:02.943Z</time></trkpt><trkpt lat="44.8665644" lon="10.232613"><ele>42.0</ele><time>2026-04-08T08:20:03.944Z</time></trkpt><trkpt lat="44.8665069" lon="10.2323092"><ele>41.5</ele><time>2026-04-08T08:20:04.944Z</time></trkpt><trkpt lat="44.8664462" lon="10.231997"><ele>41.0</ele><time>2026-04-08T08:20:05.943Z</time></trkpt><trkpt lat="44.8663869" lon="10.2316773"><ele>42.0</ele><time>2026-04-08T08:20:06.943Z</time></trkpt><trkpt lat="44.8663258" lon="10.2313492"><ele>43.0</ele><time>2026-04-08T08:20:07.943Z</time></trkpt><trkpt lat="44.8662749" lon="10.2310115"><ele>43.0</ele><time>2026-04-08T08:20:08.943Z</time></trkpt><trkpt lat="44.8662494" lon="10.2306599"><ele>43.0</ele><time>2026-04-08T08:20:09.944Z</time></trkpt><trkpt lat="44.8662563" lon="10.2303034"><ele>43.0</ele><time>2026-04-08T08:20:10.944Z</time></trkpt><trkpt lat="44.8662967" lon="10.22995"><ele>43.0</ele><time>2026-04-08T08:20:11.943Z</time></trkpt><trkpt lat="44.8663609" lon="10.2295981"><ele>43.0</ele><time>2026-04-08T08:20:12.943Z</time></trkpt><trkpt lat="44.8664423" lon="10.2292429"><ele>43.0</ele><time>2026-04-08T08:20:13.944Z</time></trkpt><trkpt lat="44.866532" lon="10.2288799"><ele>44.0</ele><time>2026-04-08T08:20:14.943Z</time></trkpt><trkpt lat="44.8666241" lon="10.2285055"><ele>45.0</ele><time>2026-04-08T08:20:15.943Z</time></trkpt><trkpt lat="44.8667137" lon="10.2281223"><ele>44.0</ele><time>2026-04-08T08:20:16.943Z</time></trkpt><trkpt lat="44.866807" lon="10.2277346"><ele>43.0</ele><time>2026-04-08T08:20:17.943Z</time></trkpt><trkpt lat="44.8668979" lon="10.2273495"><ele>44.0</ele><time>2026-04-08T08:20:18.944Z</time></trkpt><trkpt lat="44.8669862" lon="10.2269735"><ele>45.0</ele><time>2026-04-08T08:20:19.943Z</time></trkpt><trkpt lat="44.867072" lon="10.2266163"><ele>45.0</ele><time>2026-04-08T08:20:20.943Z</time></trkpt><trkpt lat="44.8671555" lon="10.2262742"><ele>45.0</ele><time>2026-04-08T08:20:21.943Z</time></trkpt><trkpt lat="44.8672381" lon="10.2259408"><ele>44.0</ele><time>2026-04-08T08:20:22.944Z</time></trkpt><trkpt lat="44.8673206" lon="10.2256138"><ele>43.0</ele><time>2026-04-08T08:20:23.943Z</time></trkpt><trkpt lat="44.8674009" lon="10.225293"><ele>43.0</ele><time>2026-04-08T08:20:24.943Z</time></trkpt><trkpt lat="44.8674764" lon="10.2249732"><ele>43.0</ele><time>2026-04-08T08:20:25.944Z</time></trkpt><trkpt lat="44.8675467" lon="10.2246641"><ele>43.0</ele><time>2026-04-08T08:20:26.943Z</time></trkpt><trkpt lat="44.8676143" lon="10.2243725"><ele>43.0</ele><time>2026-04-08T08:20:27.943Z</time></trkpt><trkpt lat="44.8676786" lon="10.2240926"><ele>43.0</ele><time>2026-04-08T08:20:28.943Z</time></trkpt><trkpt lat="44.8677316" lon="10.2238213"><ele>43.0</ele><time>2026-04-08T08:20:29.944Z</time></trkpt><trkpt lat="44.867767" lon="10.2235502"><ele>43.0</ele><time>2026-04-08T08:20:30.943Z</time></trkpt><trkpt lat="44.86779" lon="10.2232783"><ele>43.0</ele><time>2026-04-08T08:20:31.943Z</time></trkpt><trkpt lat="44.8678072" lon="10.2230075"><ele>43.0</ele><time>2026-04-08T08:20:32.943Z</time></trkpt><trkpt lat="44.86783" lon="10.2227362"><ele>43.0</ele><time>2026-04-08T08:20:33.944Z</time></trkpt><trkpt lat="44.8678627" lon="10.2224643"><ele>43.0</ele><time>2026-04-08T08:20:34.944Z</time></trkpt><trkpt lat="44.8678997" lon="10.222185"><ele>43.0</ele><time>2026-04-08T08:20:35.944Z</time></trkpt><trkpt lat="44.8679403" lon="10.2218996"><ele>43.0</ele><time>2026-04-08T08:20:36.943Z</time></trkpt><trkpt lat="44.8679862" lon="10.2216125"><ele>43.0</ele><time>2026-04-08T08:20:37.943Z</time></trkpt><trkpt lat="44.8680386" lon="10.2213193"><ele>43.333333333333336</ele><time>2026-04-08T08:20:38.943Z</time></trkpt><trkpt lat="44.868093" lon="10.2210199"><ele>43.666666666666664</ele><time>2026-04-08T08:20:39.943Z</time></trkpt><trkpt lat="44.8681447" lon="10.2207134"><ele>44.0</ele><time>2026-04-08T08:20:40.943Z</time></trkpt><trkpt lat="44.8681964" lon="10.220392"><ele>44.0</ele><time>2026-04-08T08:20:41.943Z</time></trkpt><trkpt lat="44.8682536" lon="10.2200588"><ele>44.0</ele><time>2026-04-08T08:20:42.943Z</time></trkpt><trkpt lat="44.8683126" lon="10.2197148"><ele>43.5</ele><time>2026-04-08T08:20:43.943Z</time></trkpt><trkpt lat="44.8683723" lon="10.219366"><ele>43.0</ele><time>2026-04-08T08:20:44.943Z</time></trkpt><trkpt lat="44.8684263" lon="10.2190061"><ele>43.0</ele><time>2026-04-08T08:20:45.944Z</time></trkpt><trkpt lat="44.8684785" lon="10.2186352"><ele>43.0</ele><time>2026-04-08T08:20:46.943Z</time></trkpt><trkpt lat="44.8685267" lon="10.2182532"><ele>43.5</ele><time>2026-04-08T08:20:47.943Z</time></trkpt><trkpt lat="44.8685786" lon="10.2178638"><ele>44.0</ele><time>2026-04-08T08:20:48.943Z</time></trkpt><trkpt lat="44.8686389" lon="10.2174645"><ele>43.5</ele><time>2026-04-08T08:20:49.944Z</time></trkpt><trkpt lat="44.8687045" lon="10.2170608"><ele>43.0</ele><time>2026-04-08T08:20:50.943Z</time></trkpt><trkpt lat="44.8687707" lon="10.2166495"><ele>43.0</ele><time>2026-04-08T08:20:51.943Z</time></trkpt><trkpt lat="44.8688409" lon="10.2162265"><ele>43.0</ele><time>2026-04-08T08:20:52.943Z</time></trkpt><trkpt lat="44.868912" lon="10.2157894"><ele>43.5</ele><time>2026-04-08T08:20:53.943Z</time></trkpt><trkpt lat="44.8689849" lon="10.2153448"><ele>44.0</ele><time>2026-04-08T08:20:54.944Z</time></trkpt><trkpt lat="44.8690537" lon="10.2148933"><ele>45.0</ele><time>2026-04-08T08:20:55.943Z</time></trkpt><trkpt lat="44.8691197" lon="10.2144398"><ele>46.0</ele><time>2026-04-08T08:20:56.943Z</time></trkpt><trkpt lat="44.8691855" lon="10.2139911"><ele>45.5</ele><time>2026-04-08T08:20:57.943Z</time></trkpt><trkpt lat="44.8692565" lon="10.2135441"><ele>45.0</ele><time>2026-04-08T08:20:58.943Z</time></trkpt><trkpt lat="44.8693296" lon="10.2131023"><ele>45.0</ele><time>2026-04-08T08:20:59.944Z</time></trkpt><trkpt lat="44.8694126" lon="10.212669"><ele>45.0</ele><time>2026-04-08T08:21:00.943Z</time></trkpt><trkpt lat="44.8695016" lon="10.2122374"><ele>45.0</ele><time>2026-04-08T08:21:01.943Z</time></trkpt><trkpt lat="44.8695891" lon="10.2118065"><ele>45.0</ele><time>2026-04-08T08:21:02.944Z</time></trkpt><trkpt lat="44.8696657" lon="10.2113715"><ele>45.0</ele><time>2026-04-08T08:21:03.944Z</time></trkpt><trkpt lat="44.8697393" lon="10.2109359"><ele>45.0</ele><time>2026-04-08T08:21:04.943Z</time></trkpt><trkpt lat="44.8698112" lon="10.2105042"><ele>45.0</ele><time>2026-04-08T08:21:05.943Z</time></trkpt><trkpt lat="44.8698836" lon="10.2100744"><ele>45.0</ele><time>2026-04-08T08:21:06.943Z</time></trkpt><trkpt lat="44.8699575" lon="10.2096454"><ele>45.0</ele><time>2026-04-08T08:21:07.943Z</time></trkpt><trkpt lat="44.8700306" lon="10.2092165"><ele>45.0</ele><time>2026-04-08T08:21:08.943Z</time></trkpt><trkpt lat="44.8701038" lon="10.2087895"><ele>45.0</ele><time>2026-04-08T08:21:09.944Z</time></trkpt><trkpt lat="44.8701765" lon="10.2083652"><ele>45.0</ele><time>2026-04-08T08:21:10.943Z</time></trkpt><trkpt lat="44.8702476" lon="10.2079416"><ele>45.0</ele><time>2026-04-08T08:21:11.943Z</time></trkpt><trkpt lat="44.8703174" lon="10.2075162"><ele>45.0</ele><time>2026-04-08T08:21:12.943Z</time></trkpt><trkpt lat="44.8703881" lon="10.2070891"><ele>45.5</ele><time>2026-04-08T08:21:13.944Z</time></trkpt><trkpt lat="44.8704592" lon="10.2066627"><ele>46.0</ele><time>2026-04-08T08:21:14.943Z</time></trkpt><trkpt lat="44.8705301" lon="10.2062394"><ele>44.5</ele><time>2026-04-08T08:21:15.943Z</time></trkpt><trkpt lat="44.8706011" lon="10.2058105"><ele>43.0</ele><time>2026-04-08T08:21:16.944Z</time></trkpt><trkpt lat="44.8706743" lon="10.2053771"><ele>43.0</ele><time>2026-04-08T08:21:17.944Z</time></trkpt><trkpt lat="44.870745" lon="10.2049397"><ele>43.0</ele><time>2026-04-08T08:21:18.943Z</time></trkpt><trkpt lat="44.870807" lon="10.2044971"><ele>43.5</ele><time>2026-04-08T08:21:19.944Z</time></trkpt><trkpt lat="44.8708712" lon="10.2040555"><ele>44.0</ele><time>2026-04-08T08:21:20.944Z</time></trkpt><trkpt lat="44.8709442" lon="10.2036122"><ele>44.0</ele><time>2026-04-08T08:21:21.943Z</time></trkpt><trkpt lat="44.8710187" lon="10.2031714"><ele>44.0</ele><time>2026-04-08T08:21:22.943Z</time></trkpt><trkpt lat="44.8710956" lon="10.2027312"><ele>44.0</ele><time>2026-04-08T08:21:23.944Z</time></trkpt><trkpt lat="44.8711722" lon="10.2022898"><ele>44.0</ele><time>2026-04-08T08:21:24.943Z</time></trkpt><trkpt lat="44.8712462" lon="10.2018506"><ele>44.5</ele><time>2026-04-08T08:21:25.944Z</time></trkpt><trkpt lat="44.8713176" lon="10.201427"><ele>45.0</ele><time>2026-04-08T08:21:26.944Z</time></trkpt><trkpt lat="44.8713893" lon="10.2010148"><ele>45.5</ele><time>2026-04-08T08:21:27.943Z</time></trkpt><trkpt lat="44.8714589" lon="10.2006062"><ele>46.0</ele><time>2026-04-08T08:21:28.943Z</time></trkpt><trkpt lat="44.8715261" lon="10.2001994"><ele>45.5</ele><time>2026-04-08T08:21:29.943Z</time></trkpt><trkpt lat="44.8716022" lon="10.199794"><ele>45.0</ele><time>2026-04-08T08:21:30.943Z</time></trkpt><trkpt lat="44.8716817" lon="10.1993892"><ele>44.5</ele><time>2026-04-08T08:21:31.943Z</time></trkpt><trkpt lat="44.8717575" lon="10.1989812"><ele>44.0</ele><time>2026-04-08T08:21:32.944Z</time></trkpt><trkpt lat="44.8718316" lon="10.1985708"><ele>44.0</ele><time>2026-04-08T08:21:33.943Z</time></trkpt><trkpt lat="44.8719017" lon="10.1981549"><ele>44.0</ele><time>2026-04-08T08:21:34.943Z</time></trkpt><trkpt lat="44.8719718" lon="10.1977374"><ele>44.0</ele><time>2026-04-08T08:21:35.943Z</time></trkpt><trkpt lat="44.8720449" lon="10.1973186"><ele>44.0</ele><time>2026-04-08T08:21:36.943Z</time></trkpt><trkpt lat="44.8721167" lon="10.1968997"><ele>43.5</ele><time>2026-04-08T08:21:37.943Z</time></trkpt><trkpt lat="44.8721873" lon="10.1964784"><ele>43.0</ele><time>2026-04-08T08:21:38.943Z</time></trkpt><trkpt lat="44.8722603" lon="10.1960584"><ele>43.5</ele><time>2026-04-08T08:21:39.944Z</time></trkpt><trkpt lat="44.8723316" lon="10.195633"><ele>44.0</ele><time>2026-04-08T08:21:40.943Z</time></trkpt><trkpt lat="44.8724036" lon="10.1952055"><ele>44.5</ele><time>2026-04-08T08:21:41.943Z</time></trkpt><trkpt lat="44.8724751" lon="10.1947774"><ele>45.0</ele><time>2026-04-08T08:21:42.943Z</time></trkpt><trkpt lat="44.8725496" lon="10.1943499"><ele>43.5</ele><time>2026-04-08T08:21:43.943Z</time></trkpt><trkpt lat="44.8726222" lon="10.193919"><ele>42.0</ele><time>2026-04-08T08:21:44.943Z</time></trkpt><trkpt lat="44.872696" lon="10.1934862"><ele>42.0</ele><time>2026-04-08T08:21:45.943Z</time></trkpt><trkpt lat="44.8727699" lon="10.1930518"><ele>42.0</ele><time>2026-04-08T08:21:46.944Z</time></trkpt><trkpt lat="44.8728431" lon="10.1926125"><ele>42.5</ele><time>2026-04-08T08:21:47.944Z</time></trkpt><trkpt lat="44.8729177" lon="10.1921708"><ele>43.0</ele><time>2026-04-08T08:21:48.943Z</time></trkpt><trkpt lat="44.8729941" lon="10.1917298"><ele>43.5</ele><time>2026-04-08T08:21:49.943Z</time></trkpt><trkpt lat="44.8730713" lon="10.1912863"><ele>44.0</ele><time>2026-04-08T08:21:50.943Z</time></trkpt><trkpt lat="44.8731503" lon="10.1908417"><ele>44.5</ele><time>2026-04-08T08:21:51.944Z</time></trkpt><trkpt lat="44.8732305" lon="10.1903939"><ele>45.0</ele><time>2026-04-08T08:21:52.944Z</time></trkpt><trkpt lat="44.8733076" lon="10.1899405"><ele>45.5</ele><time>2026-04-08T08:21:53.943Z</time></trkpt><trkpt lat="44.873382" lon="10.1894818"><ele>46.0</ele><time>2026-04-08T08:21:54.943Z</time></trkpt><trkpt lat="44.8734563" lon="10.1890223"><ele>45.0</ele><time>2026-04-08T08:21:55.944Z</time></trkpt><trkpt lat="44.873532" lon="10.1885604"><ele>44.0</ele><time>2026-04-08T08:21:56.943Z</time></trkpt><trkpt lat="44.8736092" lon="10.188101"><ele>44.0</ele><time>2026-04-08T08:21:57.943Z</time></trkpt><trkpt lat="44.8736865" lon="10.1876403"><ele>44.0</ele><time>2026-04-08T08:21:58.943Z</time></trkpt><trkpt lat="44.8737624" lon="10.1871796"><ele>44.0</ele><time>2026-04-08T08:21:59.943Z</time></trkpt><trkpt lat="44.8738397" lon="10.1867168"><ele>44.0</ele><time>2026-04-08T08:22:00.944Z</time></trkpt><trkpt lat="44.8739149" lon="10.1862599"><ele>43.5</ele><time>2026-04-08T08:22:01.944Z</time></trkpt><trkpt lat="44.8739909" lon="10.1858037"><ele>43.0</ele><time>2026-04-08T08:22:02.943Z</time></trkpt><trkpt lat="44.8740683" lon="10.1853496"><ele>42.5</ele><time>2026-04-08T08:22:03.943Z</time></trkpt><trkpt lat="44.8741456" lon="10.1848942"><ele>42.0</ele><time>2026-04-08T08:22:04.943Z</time></trkpt><trkpt lat="44.8742241" lon="10.1844377"><ele>42.5</ele><time>2026-04-08T08:22:05.943Z</time></trkpt><trkpt lat="44.8743029" lon="10.1839804"><ele>43.0</ele><time>2026-04-08T08:22:06.943Z</time></trkpt><trkpt lat="44.8743812" lon="10.183523"><ele>43.0</ele><time>2026-04-08T08:22:07.943Z</time></trkpt><trkpt lat="44.8744589" lon="10.1830651"><ele>43.0</ele><time>2026-04-08T08:22:08.943Z</time></trkpt><trkpt lat="44.8745387" lon="10.1826081"><ele>44.0</ele><time>2026-04-08T08:22:09.943Z</time></trkpt><trkpt lat="44.8746178" lon="10.1821519"><ele>45.0</ele><time>2026-04-08T08:22:10.943Z</time></trkpt><trkpt lat="44.8746961" lon="10.1816956"><ele>44.0</ele><time>2026-04-08T08:22:11.943Z</time></trkpt><trkpt lat="44.8747718" lon="10.1812359"><ele>43.0</ele><time>2026-04-08T08:22:12.944Z</time></trkpt><trkpt lat="44.8748482" lon="10.1807805"><ele>43.5</ele><time>2026-04-08T08:22:13.944Z</time></trkpt><trkpt lat="44.8749233" lon="10.1803258"><ele>44.0</ele><time>2026-04-08T08:22:14.944Z</time></trkpt><trkpt lat="44.875" lon="10.1798727"><ele>44.0</ele><time>2026-04-08T08:22:15.943Z</time></trkpt><trkpt lat="44.8750762" lon="10.1794235"><ele>44.0</ele><time>2026-04-08T08:22:16.943Z</time></trkpt><trkpt lat="44.8751526" lon="10.1789748"><ele>44.0</ele><time>2026-04-08T08:22:17.944Z</time></trkpt><trkpt lat="44.8752301" lon="10.178526"><ele>44.0</ele><time>2026-04-08T08:22:18.944Z</time></trkpt><trkpt lat="44.8753068" lon="10.178079"><ele>44.0</ele><time>2026-04-08T08:22:19.943Z</time></trkpt><trkpt lat="44.8753816" lon="10.1776375"><ele>44.0</ele><time>2026-04-08T08:22:20.943Z</time></trkpt><trkpt lat="44.8754534" lon="10.17722"><ele>44.0</ele><time>2026-04-08T08:22:21.943Z</time></trkpt><trkpt lat="44.8755229" lon="10.1768125"><ele>44.0</ele><time>2026-04-08T08:22:22.943Z</time></trkpt><trkpt lat="44.8755916" lon="10.1764086"><ele>44.5</ele><time>2026-04-08T08:22:23.944Z</time></trkpt><trkpt lat="44.8756587" lon="10.1760045"><ele>45.0</ele><time>2026-04-08T08:22:24.944Z</time></trkpt><trkpt lat="44.8757197" lon="10.1755961"><ele>45.0</ele><time>2026-04-08T08:22:25.944Z</time></trkpt><trkpt lat="44.8757768" lon="10.1751849"><ele>45.0</ele><time>2026-04-08T08:22:26.943Z</time></trkpt><trkpt lat="44.8758383" lon="10.1747739"><ele>45.0</ele><time>2026-04-08T08:22:27.943Z</time></trkpt><trkpt lat="44.8759055" lon="10.1743619"><ele>45.0</ele><time>2026-04-08T08:22:28.943Z</time></trkpt><trkpt lat="44.8759755" lon="10.1739445"><ele>46.5</ele><time>2026-04-08T08:22:29.943Z</time></trkpt><trkpt lat="44.8760444" lon="10.1735248"><ele>48.0</ele><time>2026-04-08T08:22:30.943Z</time></trkpt><trkpt lat="44.8761171" lon="10.1730986"><ele>48.0</ele><time>2026-04-08T08:22:31.943Z</time></trkpt><trkpt lat="44.8761913" lon="10.1726609"><ele>48.0</ele><time>2026-04-08T08:22:32.944Z</time></trkpt><trkpt lat="44.8762659" lon="10.1722132"><ele>47.5</ele><time>2026-04-08T08:22:33.943Z</time></trkpt><trkpt lat="44.8763435" lon="10.1717525"><ele>47.0</ele><time>2026-04-08T08:22:34.943Z</time></trkpt><trkpt lat="44.8764285" lon="10.17129"><ele>46.5</ele><time>2026-04-08T08:22:35.943Z</time></trkpt><trkpt lat="44.8765188" lon="10.1708232"><ele>46.0</ele><time>2026-04-08T08:22:36.943Z</time></trkpt><trkpt lat="44.8766092" lon="10.1703515"><ele>47.5</ele><time>2026-04-08T08:22:37.943Z</time></trkpt><trkpt lat="44.8766957" lon="10.1698759"><ele>49.0</ele><time>2026-04-08T08:22:38.943Z</time></trkpt><trkpt lat="44.876777" lon="10.1694"><ele>50.0</ele><time>2026-04-08T08:22:39.943Z</time></trkpt><trkpt lat="44.876856" lon="10.168928"><ele>51.0</ele><time>2026-04-08T08:22:40.943Z</time></trkpt><trkpt lat="44.8769353" lon="10.1684619"><ele>49.0</ele><time>2026-04-08T08:22:41.943Z</time></trkpt><trkpt lat="44.8770124" lon="10.1680055"><ele>47.0</ele><time>2026-04-08T08:22:42.943Z</time></trkpt><trkpt lat="44.8770885" lon="10.1675517"><ele>46.5</ele><time>2026-04-08T08:22:43.943Z</time></trkpt><trkpt lat="44.8771643" lon="10.1671016"><ele>46.0</ele><time>2026-04-08T08:22:44.943Z</time></trkpt><trkpt lat="44.8772405" lon="10.1666541"><ele>46.0</ele><time>2026-04-08T08:22:45.943Z</time></trkpt><trkpt lat="44.877315" lon="10.1662064"><ele>46.0</ele><time>2026-04-08T08:22:46.943Z</time></trkpt><trkpt lat="44.8773886" lon="10.1657637"><ele>46.0</ele><time>2026-04-08T08:22:47.943Z</time></trkpt><trkpt lat="44.877461" lon="10.1653226"><ele>46.0</ele><time>2026-04-08T08:22:48.943Z</time></trkpt><trkpt lat="44.8775355" lon="10.1648864"><ele>45.5</ele><time>2026-04-08T08:22:49.944Z</time></trkpt><trkpt lat="44.877609" lon="10.1644495"><ele>45.0</ele><time>2026-04-08T08:22:50.944Z</time></trkpt><trkpt lat="44.8776814" lon="10.1640119"><ele>46.0</ele><time>2026-04-08T08:22:51.943Z</time></trkpt><trkpt lat="44.8777539" lon="10.1635784"><ele>47.0</ele><time>2026-04-08T08:22:52.944Z</time></trkpt><trkpt lat="44.877827" lon="10.1631423"><ele>47.5</ele><time>2026-04-08T08:22:53.943Z</time></trkpt><trkpt lat="44.8779014" lon="10.1627084"><ele>48.0</ele><time>2026-04-08T08:22:54.943Z</time></trkpt><trkpt lat="44.8779752" lon="10.1622751"><ele>47.5</ele><time>2026-04-08T08:22:55.943Z</time></trkpt><trkpt lat="44.878052" lon="10.1618408"><ele>47.0</ele><time>2026-04-08T08:22:56.944Z</time></trkpt><trkpt lat="44.8781233" lon="10.1614071"><ele>47.0</ele><time>2026-04-08T08:22:57.943Z</time></trkpt><trkpt lat="44.8781957" lon="10.1609761"><ele>47.0</ele><time>2026-04-08T08:22:58.943Z</time></trkpt><trkpt lat="44.8782704" lon="10.1605433"><ele>47.0</ele><time>2026-04-08T08:22:59.944Z</time></trkpt><trkpt lat="44.8783408" lon="10.1601042"><ele>47.0</ele><time>2026-04-08T08:23:00.943Z</time></trkpt><trkpt lat="44.8784066" lon="10.1596627"><ele>47.0</ele><time>2026-04-08T08:23:01.943Z</time></trkpt><trkpt lat="44.8784701" lon="10.1592248"><ele>47.0</ele><time>2026-04-08T08:23:02.943Z</time></trkpt><trkpt lat="44.878538" lon="10.158787"><ele>47.0</ele><time>2026-04-08T08:23:03.943Z</time></trkpt><trkpt lat="44.878609" lon="10.1583491"><ele>47.0</ele><time>2026-04-08T08:23:04.944Z</time></trkpt><trkpt lat="44.8786815" lon="10.157908"><ele>46.5</ele><time>2026-04-08T08:23:05.943Z</time></trkpt><trkpt lat="44.8787537" lon="10.1574678"><ele>46.0</ele><time>2026-04-08T08:23:06.944Z</time></trkpt><trkpt lat="44.8788294" lon="10.1570285"><ele>46.0</ele><time>2026-04-08T08:23:07.943Z</time></trkpt><trkpt lat="44.8789031" lon="10.1565906"><ele>46.0</ele><time>2026-04-08T08:23:08.944Z</time></trkpt><trkpt lat="44.8789777" lon="10.1561483"><ele>46.0</ele><time>2026-04-08T08:23:09.944Z</time></trkpt><trkpt lat="44.8790523" lon="10.1557071"><ele>46.0</ele><time>2026-04-08T08:23:10.943Z</time></trkpt><trkpt lat="44.8791262" lon="10.1552639"><ele>46.0</ele><time>2026-04-08T08:23:11.943Z</time></trkpt><trkpt lat="44.8792045" lon="10.1548188"><ele>46.0</ele><time>2026-04-08T08:23:12.943Z</time></trkpt><trkpt lat="44.8792819" lon="10.1543725"><ele>46.0</ele><time>2026-04-08T08:23:13.943Z</time></trkpt><trkpt lat="44.8793572" lon="10.1539228"><ele>46.0</ele><time>2026-04-08T08:23:14.943Z</time></trkpt><trkpt lat="44.8794356" lon="10.1534709"><ele>46.0</ele><time>2026-04-08T08:23:15.944Z</time></trkpt><trkpt lat="44.8795119" lon="10.1530203"><ele>46.0</ele><time>2026-04-08T08:23:16.943Z</time></trkpt><trkpt lat="44.8795894" lon="10.1525689"><ele>46.5</ele><time>2026-04-08T08:23:17.944Z</time></trkpt><trkpt lat="44.8796646" lon="10.1521198"><ele>47.0</ele><time>2026-04-08T08:23:18.943Z</time></trkpt><trkpt lat="44.8797417" lon="10.151667"><ele>47.0</ele><time>2026-04-08T08:23:19.943Z</time></trkpt><trkpt lat="44.8798192" lon="10.1512148"><ele>47.0</ele><time>2026-04-08T08:23:20.944Z</time></trkpt><trkpt lat="44.8798947" lon="10.1507595"><ele>46.5</ele><time>2026-04-08T08:23:21.943Z</time></trkpt><trkpt lat="44.8799705" lon="10.1503061"><ele>46.0</ele><time>2026-04-08T08:23:22.943Z</time></trkpt><trkpt lat="44.8800466" lon="10.1498537"><ele>47.0</ele><time>2026-04-08T08:23:23.944Z</time></trkpt><trkpt lat="44.8801209" lon="10.1493969"><ele>48.0</ele><time>2026-04-08T08:23:24.943Z</time></trkpt><trkpt lat="44.8801984" lon="10.1489465"><ele>48.0</ele><time>2026-04-08T08:23:25.943Z</time></trkpt><trkpt lat="44.8802738" lon="10.1484963"><ele>48.0</ele><time>2026-04-08T08:23:26.944Z</time></trkpt><trkpt lat="44.8803479" lon="10.1480498"><ele>48.0</ele><time>2026-04-08T08:23:27.944Z</time></trkpt><trkpt lat="44.8804224" lon="10.1475986"><ele>48.0</ele><time>2026-04-08T08:23:28.944Z</time></trkpt><trkpt lat="44.8804972" lon="10.147149"><ele>48.0</ele><time>2026-04-08T08:23:29.943Z</time></trkpt><trkpt lat="44.8805693" lon="10.1467004"><ele>48.0</ele><time>2026-04-08T08:23:30.943Z</time></trkpt><trkpt lat="44.8806419" lon="10.1462551"><ele>48.0</ele><time>2026-04-08T08:23:31.943Z</time></trkpt><trkpt lat="44.8807167" lon="10.1458064"><ele>48.0</ele><time>2026-04-08T08:23:32.943Z</time></trkpt><trkpt lat="44.880792" lon="10.1453587"><ele>48.0</ele><time>2026-04-08T08:23:33.943Z</time></trkpt><trkpt lat="44.8808678" lon="10.1449059"><ele>48.0</ele><time>2026-04-08T08:23:34.943Z</time></trkpt><trkpt lat="44.8809415" lon="10.1444493"><ele>47.5</ele><time>2026-04-08T08:23:35.943Z</time></trkpt><trkpt lat="44.8810128" lon="10.1439923"><ele>47.0</ele><time>2026-04-08T08:23:36.943Z</time></trkpt><trkpt lat="44.8810831" lon="10.1435288"><ele>48.0</ele><time>2026-04-08T08:23:37.943Z</time></trkpt><trkpt lat="44.8811592" lon="10.1430643"><ele>49.0</ele><time>2026-04-08T08:23:38.943Z</time></trkpt><trkpt lat="44.8812351" lon="10.1425975"><ele>49.5</ele><time>2026-04-08T08:23:39.944Z</time></trkpt><trkpt lat="44.8813103" lon="10.1421296"><ele>50.0</ele><time>2026-04-08T08:23:40.943Z</time></trkpt><trkpt lat="44.8813828" lon="10.1416643"><ele>50.0</ele><time>2026-04-08T08:23:41.943Z</time></trkpt><trkpt lat="44.8814518" lon="10.1412"><ele>50.0</ele><time>2026-04-08T08:23:42.943Z</time></trkpt><trkpt lat="44.8815194" lon="10.1407389"><ele>50.5</ele><time>2026-04-08T08:23:43.943Z</time></trkpt><trkpt lat="44.8815873" lon="10.1402817"><ele>51.0</ele><time>2026-04-08T08:23:44.943Z</time></trkpt><trkpt lat="44.8816555" lon="10.1398278"><ele>50.5</ele><time>2026-04-08T08:23:45.944Z</time></trkpt><trkpt lat="44.8817261" lon="10.1393782"><ele>50.0</ele><time>2026-04-08T08:23:46.943Z</time></trkpt><trkpt lat="44.881797" lon="10.1389317"><ele>50.0</ele><time>2026-04-08T08:23:47.944Z</time></trkpt><trkpt lat="44.8818654" lon="10.1384888"><ele>50.0</ele><time>2026-04-08T08:23:48.943Z</time></trkpt><trkpt lat="44.8819315" lon="10.1380491"><ele>50.0</ele><time>2026-04-08T08:23:49.943Z</time></trkpt><trkpt lat="44.8819976" lon="10.1376124"><ele>50.0</ele><time>2026-04-08T08:23:50.943Z</time></trkpt><trkpt lat="44.8820621" lon="10.1371798"><ele>50.0</ele><time>2026-04-08T08:23:51.943Z</time></trkpt><trkpt lat="44.8821266" lon="10.1367501"><ele>50.0</ele><time>2026-04-08T08:23:52.944Z</time></trkpt><trkpt lat="44.8821922" lon="10.1363239"><ele>50.0</ele><time>2026-04-08T08:23:53.943Z</time></trkpt><trkpt lat="44.8822568" lon="10.1358965"><ele>50.0</ele><time>2026-04-08T08:23:54.944Z</time></trkpt><trkpt lat="44.8823225" lon="10.1354719"><ele>50.0</ele><time>2026-04-08T08:23:55.944Z</time></trkpt><trkpt lat="44.8823869" lon="10.135045"><ele>50.0</ele><time>2026-04-08T08:23:56.943Z</time></trkpt><trkpt lat="44.882454" lon="10.134622"><ele>50.0</ele><time>2026-04-08T08:23:57.943Z</time></trkpt><trkpt lat="44.8825194" lon="10.1341965"><ele>50.0</ele><time>2026-04-08T08:23:58.944Z</time></trkpt><trkpt lat="44.8825821" lon="10.1337713"><ele>50.5</ele><time>2026-04-08T08:23:59.943Z</time></trkpt><trkpt lat="44.8826452" lon="10.1333472"><ele>51.0</ele><time>2026-04-08T08:24:00.944Z</time></trkpt><trkpt lat="44.8827065" lon="10.1329241"><ele>51.5</ele><time>2026-04-08T08:24:01.944Z</time></trkpt><trkpt lat="44.8827681" lon="10.1325011"><ele>52.0</ele><time>2026-04-08T08:24:02.943Z</time></trkpt><trkpt lat="44.8828291" lon="10.1320786"><ele>51.0</ele><time>2026-04-08T08:24:03.943Z</time></trkpt><trkpt lat="44.8828916" lon="10.1316585"><ele>50.0</ele><time>2026-04-08T08:24:04.943Z</time></trkpt><trkpt lat="44.8829586" lon="10.1312385"><ele>49.5</ele><time>2026-04-08T08:24:05.943Z</time></trkpt><trkpt lat="44.8830262" lon="10.1308135"><ele>49.0</ele><time>2026-04-08T08:24:06.944Z</time></trkpt><trkpt lat="44.8830897" lon="10.1303939"><ele>48.5</ele><time>2026-04-08T08:24:07.943Z</time></trkpt><trkpt lat="44.8831551" lon="10.1299746"><ele>48.0</ele><time>2026-04-08T08:24:08.943Z</time></trkpt><trkpt lat="44.8832204" lon="10.1295544"><ele>49.0</ele><time>2026-04-08T08:24:09.943Z</time></trkpt><trkpt lat="44.8832845" lon="10.1291346"><ele>50.0</ele><time>2026-04-08T08:24:10.943Z</time></trkpt><trkpt lat="44.8833472" lon="10.1287187"><ele>50.5</ele><time>2026-04-08T08:24:11.943Z</time></trkpt><trkpt lat="44.8834081" lon="10.1283019"><ele>51.0</ele><time>2026-04-08T08:24:12.943Z</time></trkpt><trkpt lat="44.8834708" lon="10.127887"><ele>51.5</ele><time>2026-04-08T08:24:13.943Z</time></trkpt><trkpt lat="44.8835356" lon="10.1274745"><ele>52.0</ele><time>2026-04-08T08:24:14.944Z</time></trkpt><trkpt lat="44.8836009" lon="10.1270626"><ele>52.0</ele><time>2026-04-08T08:24:15.943Z</time></trkpt><trkpt lat="44.8836637" lon="10.1266525"><ele>52.0</ele><time>2026-04-08T08:24:16.943Z</time></trkpt><trkpt lat="44.8837265" lon="10.1262428"><ele>52.0</ele><time>2026-04-08T08:24:17.944Z</time></trkpt><trkpt lat="44.883791" lon="10.1258331"><ele>52.0</ele><time>2026-04-08T08:24:18.944Z</time></trkpt><trkpt lat="44.8838542" lon="10.1254255"><ele>52.5</ele><time>2026-04-08T08:24:19.943Z</time></trkpt><trkpt lat="44.8839151" lon="10.1250186"><ele>53.0</ele><time>2026-04-08T08:24:20.944Z</time></trkpt><trkpt lat="44.8839761" lon="10.1246112"><ele>53.0</ele><time>2026-04-08T08:24:21.944Z</time></trkpt><trkpt lat="44.8840379" lon="10.1242061"><ele>53.0</ele><time>2026-04-08T08:24:22.944Z</time></trkpt><trkpt lat="44.8841001" lon="10.1238015"><ele>52.5</ele><time>2026-04-08T08:24:23.943Z</time></trkpt><trkpt lat="44.8841611" lon="10.1233985"><ele>52.0</ele><time>2026-04-08T08:24:24.944Z</time></trkpt><trkpt lat="44.8842222" lon="10.1229953"><ele>53.0</ele><time>2026-04-08T08:24:25.944Z</time></trkpt><trkpt lat="44.8842834" lon="10.1225909"><ele>54.0</ele><time>2026-04-08T08:24:26.943Z</time></trkpt><trkpt lat="44.8843445" lon="10.1221905"><ele>54.5</ele><time>2026-04-08T08:24:27.944Z</time></trkpt><trkpt lat="44.8844036" lon="10.1217923"><ele>55.0</ele><time>2026-04-08T08:24:28.944Z</time></trkpt><trkpt lat="44.8844654" lon="10.1214023"><ele>54.5</ele><time>2026-04-08T08:24:29.943Z</time></trkpt><trkpt lat="44.8845329" lon="10.1210253"><ele>54.0</ele><time>2026-04-08T08:24:30.944Z</time></trkpt><trkpt lat="44.8845978" lon="10.1206578"><ele>54.0</ele><time>2026-04-08T08:24:31.943Z</time></trkpt><trkpt lat="44.8846601" lon="10.1202879"><ele>54.0</ele><time>2026-04-08T08:24:32.943Z</time></trkpt><trkpt lat="44.8847204" lon="10.1199157"><ele>54.0</ele><time>2026-04-08T08:24:33.944Z</time></trkpt><trkpt lat="44.8847764" lon="10.119544"><ele>54.0</ele><time>2026-04-08T08:24:34.943Z</time></trkpt><trkpt lat="44.8848329" lon="10.1191831"><ele>54.0</ele><time>2026-04-08T08:24:35.943Z</time></trkpt><trkpt lat="44.8848885" lon="10.118827"><ele>54.0</ele><time>2026-04-08T08:24:36.944Z</time></trkpt><trkpt lat="44.8849424" lon="10.1184754"><ele>53.5</ele><time>2026-04-08T08:24:37.943Z</time></trkpt><trkpt lat="44.8849945" lon="10.1181171"><ele>53.0</ele><time>2026-04-08T08:24:38.943Z</time></trkpt><trkpt lat="44.8850466" lon="10.1177612"><ele>53.0</ele><time>2026-04-08T08:24:39.943Z</time></trkpt><trkpt lat="44.8850992" lon="10.1174025"><ele>53.0</ele><time>2026-04-08T08:24:40.943Z</time></trkpt><trkpt lat="44.8851514" lon="10.117042"><ele>53.0</ele><time>2026-04-08T08:24:41.944Z</time></trkpt><trkpt lat="44.8852031" lon="10.1166773"><ele>53.0</ele><time>2026-04-08T08:24:42.943Z</time></trkpt><trkpt lat="44.8852571" lon="10.1163122"><ele>53.5</ele><time>2026-04-08T08:24:43.943Z</time></trkpt><trkpt lat="44.885313" lon="10.1159463"><ele>54.0</ele><time>2026-04-08T08:24:44.943Z</time></trkpt><trkpt lat="44.8853716" lon="10.1155775"><ele>54.0</ele><time>2026-04-08T08:24:45.943Z</time></trkpt><trkpt lat="44.8854287" lon="10.1152057"><ele>54.0</ele><time>2026-04-08T08:24:46.943Z</time></trkpt><trkpt lat="44.8854865" lon="10.1148363"><ele>54.0</ele><time>2026-04-08T08:24:47.943Z</time></trkpt><trkpt lat="44.8855437" lon="10.1144588"><ele>54.0</ele><time>2026-04-08T08:24:48.944Z</time></trkpt><trkpt lat="44.8856033" lon="10.1140798"><ele>54.5</ele><time>2026-04-08T08:24:49.943Z</time></trkpt><trkpt lat="44.8856641" lon="10.1137022"><ele>55.0</ele><time>2026-04-08T08:24:50.943Z</time></trkpt><trkpt lat="44.8857252" lon="10.1133225"><ele>54.5</ele><time>2026-04-08T08:24:51.944Z</time></trkpt><trkpt lat="44.8857851" lon="10.11294"><ele>54.0</ele><time>2026-04-08T08:24:52.943Z</time></trkpt><trkpt lat="44.8858433" lon="10.1125553"><ele>54.0</ele><time>2026-04-08T08:24:53.944Z</time></trkpt><trkpt lat="44.8859021" lon="10.112168"><ele>54.0</ele><time>2026-04-08T08:24:54.943Z</time></trkpt><trkpt lat="44.8859594" lon="10.1117818"><ele>54.0</ele><time>2026-04-08T08:24:55.943Z</time></trkpt><trkpt lat="44.8860138" lon="10.1113982"><ele>54.0</ele><time>2026-04-08T08:24:56.943Z</time></trkpt><trkpt lat="44.8860695" lon="10.1110218"><ele>54.0</ele><time>2026-04-08T08:24:57.943Z</time></trkpt><trkpt lat="44.8861265" lon="10.1106489"><ele>54.0</ele><time>2026-04-08T08:24:58.944Z</time></trkpt><trkpt lat="44.8861837" lon="10.1102808"><ele>54.0</ele><time>2026-04-08T08:24:59.944Z</time></trkpt><trkpt lat="44.8862396" lon="10.1099135"><ele>54.0</ele><time>2026-04-08T08:25:00.943Z</time></trkpt><trkpt lat="44.8862959" lon="10.10955"><ele>54.0</ele><time>2026-04-08T08:25:01.944Z</time></trkpt><trkpt lat="44.8863528" lon="10.1091863"><ele>54.0</ele><time>2026-04-08T08:25:02.944Z</time></trkpt><trkpt lat="44.88641" lon="10.1088165"><ele>54.0</ele><time>2026-04-08T08:25:03.944Z</time></trkpt><trkpt lat="44.8864673" lon="10.1084448"><ele>54.0</ele><time>2026-04-08T08:25:04.944Z</time></trkpt><trkpt lat="44.8865215" lon="10.108062"><ele>54.0</ele><time>2026-04-08T08:25:05.943Z</time></trkpt><trkpt lat="44.8865726" lon="10.1076653"><ele>54.0</ele><time>2026-04-08T08:25:06.943Z</time></trkpt><trkpt lat="44.8866228" lon="10.1072567"><ele>53.5</ele><time>2026-04-08T08:25:07.944Z</time></trkpt><trkpt lat="44.886676" lon="10.1068449"><ele>53.0</ele><time>2026-04-08T08:25:08.943Z</time></trkpt><trkpt lat="44.8867358" lon="10.1064299"><ele>54.0</ele><time>2026-04-08T08:25:09.944Z</time></trkpt><trkpt lat="44.886801" lon="10.1060106"><ele>55.0</ele><time>2026-04-08T08:25:10.944Z</time></trkpt><trkpt lat="44.8868666" lon="10.1055834"><ele>55.0</ele><time>2026-04-08T08:25:11.944Z</time></trkpt><trkpt lat="44.8869335" lon="10.1051485"><ele>55.0</ele><time>2026-04-08T08:25:12.943Z</time></trkpt><trkpt lat="44.886998" lon="10.1047028"><ele>55.5</ele><time>2026-04-08T08:25:13.944Z</time></trkpt><trkpt lat="44.8870659" lon="10.1042508"><ele>56.0</ele><time>2026-04-08T08:25:14.944Z</time></trkpt><trkpt lat="44.8871366" lon="10.1037971"><ele>56.5</ele><time>2026-04-08T08:25:15.944Z</time></trkpt><trkpt lat="44.8872069" lon="10.1033439"><ele>57.0</ele><time>2026-04-08T08:25:16.943Z</time></trkpt><trkpt lat="44.8872777" lon="10.1028924"><ele>57.5</ele><time>2026-04-08T08:25:17.943Z</time></trkpt><trkpt lat="44.8873468" lon="10.1024417"><ele>58.0</ele><time>2026-04-08T08:25:18.944Z</time></trkpt><trkpt lat="44.8874144" lon="10.1019971"><ele>57.5</ele><time>2026-04-08T08:25:19.944Z</time></trkpt><trkpt lat="44.8874837" lon="10.1015533"><ele>57.0</ele><time>2026-04-08T08:25:20.943Z</time></trkpt><trkpt lat="44.8875511" lon="10.101115"><ele>55.5</ele><time>2026-04-08T08:25:21.944Z</time></trkpt><trkpt lat="44.887615" lon="10.1006759"><ele>54.0</ele><time>2026-04-08T08:25:22.943Z</time></trkpt><trkpt lat="44.8876785" lon="10.100239"><ele>55.0</ele><time>2026-04-08T08:25:23.944Z</time></trkpt><trkpt lat="44.8877438" lon="10.0998031"><ele>56.0</ele><time>2026-04-08T08:25:24.943Z</time></trkpt><trkpt lat="44.8878102" lon="10.0993672"><ele>55.5</ele><time>2026-04-08T08:25:25.944Z</time></trkpt><trkpt lat="44.887874" lon="10.0989309"><ele>55.0</ele><time>2026-04-08T08:25:26.943Z</time></trkpt><trkpt lat="44.8879405" lon="10.0984945"><ele>55.0</ele><time>2026-04-08T08:25:27.943Z</time></trkpt><trkpt lat="44.8880081" lon="10.0980578"><ele>55.0</ele><time>2026-04-08T08:25:28.943Z</time></trkpt><trkpt lat="44.8880775" lon="10.0976203"><ele>55.0</ele><time>2026-04-08T08:25:29.943Z</time></trkpt><trkpt lat="44.888145" lon="10.097179"><ele>55.0</ele><time>2026-04-08T08:25:30.943Z</time></trkpt><trkpt lat="44.8882107" lon="10.0967362"><ele>54.5</ele><time>2026-04-08T08:25:31.943Z</time></trkpt><trkpt lat="44.888278" lon="10.096291"><ele>54.0</ele><time>2026-04-08T08:25:32.944Z</time></trkpt><trkpt lat="44.888346" lon="10.0958436"><ele>54.0</ele><time>2026-04-08T08:25:33.943Z</time></trkpt><trkpt lat="44.8884135" lon="10.0953914"><ele>54.0</ele><time>2026-04-08T08:25:34.943Z</time></trkpt><trkpt lat="44.8884842" lon="10.0949208"><ele>54.0</ele><time>2026-04-08T08:25:35.944Z</time></trkpt><trkpt lat="44.8885585" lon="10.0944316"><ele>54.0</ele><time>2026-04-08T08:25:36.943Z</time></trkpt><trkpt lat="44.8886394" lon="10.093943"><ele>55.0</ele><time>2026-04-08T08:25:37.944Z</time></trkpt><trkpt lat="44.8887229" lon="10.0934579"><ele>56.0</ele><time>2026-04-08T08:25:38.944Z</time></trkpt><trkpt lat="44.8888047" lon="10.0929694"><ele>56.0</ele><time>2026-04-08T08:25:39.943Z</time></trkpt><trkpt lat="44.8888915" lon="10.0924828"><ele>56.0</ele><time>2026-04-08T08:25:40.944Z</time></trkpt><trkpt lat="44.8889631" lon="10.09199"><ele>56.5</ele><time>2026-04-08T08:25:41.943Z</time></trkpt><trkpt lat="44.8890336" lon="10.0914997"><ele>57.0</ele><time>2026-04-08T08:25:42.943Z</time></trkpt><trkpt lat="44.8891074" lon="10.0910092"><ele>56.5</ele><time>2026-04-08T08:25:43.943Z</time></trkpt><trkpt lat="44.8891797" lon="10.0905226"><ele>56.0</ele><time>2026-04-08T08:25:44.943Z</time></trkpt><trkpt lat="44.8892486" lon="10.0900323"><ele>56.0</ele><time>2026-04-08T08:25:45.943Z</time></trkpt><trkpt lat="44.889315" lon="10.0895435"><ele>56.0</ele><time>2026-04-08T08:25:46.942Z</time></trkpt><trkpt lat="44.8893796" lon="10.0890553"><ele>57.0</ele><time>2026-04-08T08:25:47.943Z</time></trkpt><trkpt lat="44.8894461" lon="10.0885727"><ele>58.0</ele><time>2026-04-08T08:25:48.943Z</time></trkpt><trkpt lat="44.8895206" lon="10.0880979"><ele>58.0</ele><time>2026-04-08T08:25:49.943Z</time></trkpt><trkpt lat="44.8896048" lon="10.0876366"><ele>58.0</ele><time>2026-04-08T08:25:50.944Z</time></trkpt><trkpt lat="44.8896834" lon="10.0871737"><ele>58.0</ele><time>2026-04-08T08:25:51.943Z</time></trkpt><trkpt lat="44.8897587" lon="10.0867192"><ele>58.0</ele><time>2026-04-08T08:25:52.943Z</time></trkpt><trkpt lat="44.8898309" lon="10.0862636"><ele>58.0</ele><time>2026-04-08T08:25:53.943Z</time></trkpt><trkpt lat="44.8899" lon="10.0858065"><ele>58.0</ele><time>2026-04-08T08:25:54.944Z</time></trkpt><trkpt lat="44.8899699" lon="10.0853517"><ele>58.0</ele><time>2026-04-08T08:25:55.943Z</time></trkpt><trkpt lat="44.890039" lon="10.0848948"><ele>58.0</ele><time>2026-04-08T08:25:56.943Z</time></trkpt><trkpt lat="44.8901075" lon="10.0844379"><ele>58.0</ele><time>2026-04-08T08:25:57.943Z</time></trkpt><trkpt lat="44.8901749" lon="10.0839776"><ele>58.0</ele><time>2026-04-08T08:25:58.943Z</time></trkpt><trkpt lat="44.8902441" lon="10.0835167"><ele>57.0</ele><time>2026-04-08T08:25:59.943Z</time></trkpt><trkpt lat="44.890312" lon="10.0830568"><ele>56.0</ele><time>2026-04-08T08:26:00.943Z</time></trkpt><trkpt lat="44.8903779" lon="10.0825926"><ele>56.0</ele><time>2026-04-08T08:26:01.943Z</time></trkpt><trkpt lat="44.8904412" lon="10.0821263"><ele>56.0</ele><time>2026-04-08T08:26:02.943Z</time></trkpt><trkpt lat="44.8905049" lon="10.081655"><ele>56.0</ele><time>2026-04-08T08:26:03.943Z</time></trkpt><trkpt lat="44.8905716" lon="10.0811853"><ele>56.0</ele><time>2026-04-08T08:26:04.944Z</time></trkpt><trkpt lat="44.8906412" lon="10.0807168"><ele>56.0</ele><time>2026-04-08T08:26:05.943Z</time></trkpt><trkpt lat="44.8907155" lon="10.0802454"><ele>56.0</ele><time>2026-04-08T08:26:06.943Z</time></trkpt><trkpt lat="44.8907922" lon="10.0797777"><ele>56.0</ele><time>2026-04-08T08:26:07.944Z</time></trkpt><trkpt lat="44.8908732" lon="10.0793159"><ele>56.0</ele><time>2026-04-08T08:26:08.943Z</time></trkpt><trkpt lat="44.8909548" lon="10.0788506"><ele>56.0</ele><time>2026-04-08T08:26:09.943Z</time></trkpt><trkpt lat="44.8910318" lon="10.0783863"><ele>56.0</ele><time>2026-04-08T08:26:10.944Z</time></trkpt><trkpt lat="44.8911071" lon="10.0779225"><ele>57.0</ele><time>2026-04-08T08:26:11.943Z</time></trkpt><trkpt lat="44.8911766" lon="10.077462"><ele>58.0</ele><time>2026-04-08T08:26:12.943Z</time></trkpt><trkpt lat="44.8912453" lon="10.077002"><ele>57.5</ele><time>2026-04-08T08:26:13.943Z</time></trkpt><trkpt lat="44.891315" lon="10.0765376"><ele>57.0</ele><time>2026-04-08T08:26:14.943Z</time></trkpt><trkpt lat="44.8913839" lon="10.076073"><ele>57.0</ele><time>2026-04-08T08:26:15.943Z</time></trkpt><trkpt lat="44.891452" lon="10.0756092"><ele>57.0</ele><time>2026-04-08T08:26:16.944Z</time></trkpt><trkpt lat="44.8915208" lon="10.0751497"><ele>57.0</ele><time>2026-04-08T08:26:17.943Z</time></trkpt><trkpt lat="44.8915884" lon="10.0746875"><ele>57.0</ele><time>2026-04-08T08:26:18.943Z</time></trkpt><trkpt lat="44.8916566" lon="10.0742276"><ele>57.0</ele><time>2026-04-08T08:26:19.944Z</time></trkpt><trkpt lat="44.8917266" lon="10.0737696"><ele>57.0</ele><time>2026-04-08T08:26:20.944Z</time></trkpt><trkpt lat="44.8917967" lon="10.0733166"><ele>57.0</ele><time>2026-04-08T08:26:21.944Z</time></trkpt><trkpt lat="44.8918651" lon="10.0728616"><ele>57.0</ele><time>2026-04-08T08:26:22.944Z</time></trkpt><trkpt lat="44.8919329" lon="10.0724122"><ele>57.0</ele><time>2026-04-08T08:26:23.943Z</time></trkpt><trkpt lat="44.8920018" lon="10.0719628"><ele>57.0</ele><time>2026-04-08T08:26:24.943Z</time></trkpt><trkpt lat="44.8920713" lon="10.0715119"><ele>57.5</ele><time>2026-04-08T08:26:25.943Z</time></trkpt><trkpt lat="44.8921431" lon="10.0710657"><ele>58.0</ele><time>2026-04-08T08:26:26.943Z</time></trkpt><trkpt lat="44.8922131" lon="10.0706182"><ele>58.5</ele><time>2026-04-08T08:26:27.943Z</time></trkpt><trkpt lat="44.8922819" lon="10.0701693"><ele>59.0</ele><time>2026-04-08T08:26:28.943Z</time></trkpt><trkpt lat="44.8923496" lon="10.0697257"><ele>59.0</ele><time>2026-04-08T08:26:29.944Z</time></trkpt><trkpt lat="44.8924173" lon="10.0692877"><ele>59.0</ele><time>2026-04-08T08:26:30.943Z</time></trkpt><trkpt lat="44.8924848" lon="10.0688527"><ele>59.0</ele><time>2026-04-08T08:26:31.944Z</time></trkpt><trkpt lat="44.8925495" lon="10.0684229"><ele>59.0</ele><time>2026-04-08T08:26:32.944Z</time></trkpt><trkpt lat="44.8926133" lon="10.0679955"><ele>59.5</ele><time>2026-04-08T08:26:33.943Z</time></trkpt><trkpt lat="44.892676" lon="10.0675738"><ele>60.0</ele><time>2026-04-08T08:26:34.944Z</time></trkpt><trkpt lat="44.8927395" lon="10.0671546"><ele>60.0</ele><time>2026-04-08T08:26:35.943Z</time></trkpt><trkpt lat="44.8928046" lon="10.0667344"><ele>60.0</ele><time>2026-04-08T08:26:36.944Z</time></trkpt><trkpt lat="44.8928693" lon="10.0663163"><ele>60.0</ele><time>2026-04-08T08:26:37.943Z</time></trkpt><trkpt lat="44.8929325" lon="10.0658968"><ele>60.0</ele><time>2026-04-08T08:26:38.943Z</time></trkpt><trkpt lat="44.8929941" lon="10.0654789"><ele>59.5</ele><time>2026-04-08T08:26:39.944Z</time></trkpt><trkpt lat="44.893056" lon="10.0650586"><ele>59.0</ele><time>2026-04-08T08:26:40.943Z</time></trkpt><trkpt lat="44.8931109" lon="10.0646361"><ele>59.0</ele><time>2026-04-08T08:26:41.943Z</time></trkpt><trkpt lat="44.893166" lon="10.0642126"><ele>59.0</ele><time>2026-04-08T08:26:42.943Z</time></trkpt><trkpt lat="44.8932236" lon="10.0637868"><ele>59.0</ele><time>2026-04-08T08:26:43.943Z</time></trkpt><trkpt lat="44.8932839" lon="10.0633585"><ele>59.0</ele><time>2026-04-08T08:26:44.943Z</time></trkpt><trkpt lat="44.8933456" lon="10.0629304"><ele>59.0</ele><time>2026-04-08T08:26:45.943Z</time></trkpt><trkpt lat="44.8934101" lon="10.0625052"><ele>59.0</ele><time>2026-04-08T08:26:46.943Z</time></trkpt><trkpt lat="44.8934825" lon="10.0620812"><ele>59.0</ele><time>2026-04-08T08:26:47.943Z</time></trkpt><trkpt lat="44.8935595" lon="10.0616619"><ele>59.0</ele><time>2026-04-08T08:26:48.944Z</time></trkpt><trkpt lat="44.8936342" lon="10.061243"><ele>59.0</ele><time>2026-04-08T08:26:49.944Z</time></trkpt><trkpt lat="44.8937025" lon="10.0608199"><ele>59.0</ele><time>2026-04-08T08:26:50.944Z</time></trkpt><trkpt lat="44.8937696" lon="10.0603989"><ele>58.0</ele><time>2026-04-08T08:26:51.944Z</time></trkpt><trkpt lat="44.8938332" lon="10.0599795"><ele>57.0</ele><time>2026-04-08T08:26:52.944Z</time></trkpt><trkpt lat="44.8938954" lon="10.0595582"><ele>57.0</ele><time>2026-04-08T08:26:53.943Z</time></trkpt><trkpt lat="44.8939577" lon="10.0591403"><ele>57.0</ele><time>2026-04-08T08:26:54.943Z</time></trkpt><trkpt lat="44.8940214" lon="10.0587199"><ele>57.5</ele><time>2026-04-08T08:26:55.943Z</time></trkpt><trkpt lat="44.8940857" lon="10.0582992"><ele>58.0</ele><time>2026-04-08T08:26:56.944Z</time></trkpt><trkpt lat="44.8941498" lon="10.0578757"><ele>59.0</ele><time>2026-04-08T08:26:57.944Z</time></trkpt><trkpt lat="44.8942147" lon="10.0574567"><ele>60.0</ele><time>2026-04-08T08:26:58.944Z</time></trkpt><trkpt lat="44.8942789" lon="10.0570346"><ele>59.0</ele><time>2026-04-08T08:26:59.943Z</time></trkpt><trkpt lat="44.8943432" lon="10.0566101"><ele>58.0</ele><time>2026-04-08T08:27:00.943Z</time></trkpt><trkpt lat="44.8944069" lon="10.0561855"><ele>59.0</ele><time>2026-04-08T08:27:01.943Z</time></trkpt><trkpt lat="44.8944733" lon="10.0557553"><ele>60.0</ele><time>2026-04-08T08:27:02.944Z</time></trkpt><trkpt lat="44.8945395" lon="10.0553215"><ele>60.0</ele><time>2026-04-08T08:27:03.944Z</time></trkpt><trkpt lat="44.8946081" lon="10.0548842"><ele>60.0</ele><time>2026-04-08T08:27:04.944Z</time></trkpt><trkpt lat="44.8946905" lon="10.0544488"><ele>59.5</ele><time>2026-04-08T08:27:05.944Z</time></trkpt><trkpt lat="44.894781" lon="10.0540156"><ele>59.0</ele><time>2026-04-08T08:27:06.944Z</time></trkpt><trkpt lat="44.8948809" lon="10.0535843"><ele>59.0</ele><time>2026-04-08T08:27:07.944Z</time></trkpt><trkpt lat="44.8949878" lon="10.0531519"><ele>59.0</ele><time>2026-04-08T08:27:08.943Z</time></trkpt><trkpt lat="44.8950926" lon="10.0527189"><ele>58.5</ele><time>2026-04-08T08:27:09.943Z</time></trkpt><trkpt lat="44.8952008" lon="10.0522888"><ele>58.0</ele><time>2026-04-08T08:27:10.943Z</time></trkpt><trkpt lat="44.8953129" lon="10.0518621"><ele>59.5</ele><time>2026-04-08T08:27:11.944Z</time></trkpt><trkpt lat="44.8954269" lon="10.0514414"><ele>61.0</ele><time>2026-04-08T08:27:12.943Z</time></trkpt><trkpt lat="44.8955465" lon="10.0510233"><ele>61.5</ele><time>2026-04-08T08:27:13.943Z</time></trkpt><trkpt lat="44.8956719" lon="10.0506133"><ele>62.0</ele><time>2026-04-08T08:27:14.943Z</time></trkpt><trkpt lat="44.8958015" lon="10.0502066"><ele>61.0</ele><time>2026-04-08T08:27:15.943Z</time></trkpt><trkpt lat="44.8959358" lon="10.049804"><ele>60.0</ele><time>2026-04-08T08:27:16.943Z</time></trkpt><trkpt lat="44.8960753" lon="10.0494075"><ele>61.0</ele><time>2026-04-08T08:27:17.943Z</time></trkpt><trkpt lat="44.8962199" lon="10.0490143"><ele>62.0</ele><time>2026-04-08T08:27:18.944Z</time></trkpt><trkpt lat="44.8963702" lon="10.0486268"><ele>60.5</ele><time>2026-04-08T08:27:19.943Z</time></trkpt><trkpt lat="44.8965263" lon="10.0482431"><ele>59.0</ele><time>2026-04-08T08:27:20.943Z</time></trkpt><trkpt lat="44.8966891" lon="10.0478672"><ele>58.5</ele><time>2026-04-08T08:27:21.943Z</time></trkpt><trkpt lat="44.8968543" lon="10.047498"><ele>58.0</ele><time>2026-04-08T08:27:22.943Z</time></trkpt><trkpt lat="44.89702" lon="10.0471313"><ele>59.0</ele><time>2026-04-08T08:27:23.944Z</time></trkpt><trkpt lat="44.8971889" lon="10.0467687"><ele>60.0</ele><time>2026-04-08T08:27:24.943Z</time></trkpt><trkpt lat="44.8973634" lon="10.046414"><ele>60.0</ele><time>2026-04-08T08:27:25.943Z</time></trkpt><trkpt lat="44.8975365" lon="10.0460603"><ele>60.0</ele><time>2026-04-08T08:27:26.944Z</time></trkpt><trkpt lat="44.8977065" lon="10.0457023"><ele>60.0</ele><time>2026-04-08T08:27:27.943Z</time></trkpt><trkpt lat="44.8978781" lon="10.045349"><ele>60.0</ele><time>2026-04-08T08:27:28.944Z</time></trkpt><trkpt lat="44.8980491" lon="10.0449968"><ele>60.5</ele><time>2026-04-08T08:27:29.943Z</time></trkpt><trkpt lat="44.8982206" lon="10.0446408"><ele>61.0</ele><time>2026-04-08T08:27:30.943Z</time></trkpt><trkpt lat="44.8983936" lon="10.0442867"><ele>61.0</ele><time>2026-04-08T08:27:31.943Z</time></trkpt><trkpt lat="44.8985691" lon="10.043929"><ele>61.0</ele><time>2026-04-08T08:27:32.944Z</time></trkpt><trkpt lat="44.8987428" lon="10.043571"><ele>62.0</ele><time>2026-04-08T08:27:33.943Z</time></trkpt><trkpt lat="44.8989168" lon="10.0432088"><ele>63.0</ele><time>2026-04-08T08:27:34.943Z</time></trkpt><trkpt lat="44.8990864" lon="10.042843"><ele>61.5</ele><time>2026-04-08T08:27:35.944Z</time></trkpt><trkpt lat="44.8992571" lon="10.0424723"><ele>60.0</ele><time>2026-04-08T08:27:36.943Z</time></trkpt><trkpt lat="44.8994264" lon="10.0420997"><ele>60.0</ele><time>2026-04-08T08:27:37.943Z</time></trkpt><trkpt lat="44.8995984" lon="10.041725"><ele>60.0</ele><time>2026-04-08T08:27:38.943Z</time></trkpt><trkpt lat="44.899776" lon="10.0413524"><ele>60.0</ele><time>2026-04-08T08:27:39.944Z</time></trkpt><trkpt lat="44.899956" lon="10.0409802"><ele>60.0</ele><time>2026-04-08T08:27:40.943Z</time></trkpt><trkpt lat="44.9001382" lon="10.0406109"><ele>60.0</ele><time>2026-04-08T08:27:41.943Z</time></trkpt><trkpt lat="44.9003201" lon="10.0402415"><ele>60.0</ele><time>2026-04-08T08:27:42.944Z</time></trkpt><trkpt lat="44.9004996" lon="10.0398765"><ele>60.0</ele><time>2026-04-08T08:27:43.944Z</time></trkpt><trkpt lat="44.9006797" lon="10.0395149"><ele>60.0</ele><time>2026-04-08T08:27:44.943Z</time></trkpt><trkpt lat="44.9008562" lon="10.0391501"><ele>59.0</ele><time>2026-04-08T08:27:45.944Z</time></trkpt><trkpt lat="44.9010325" lon="10.0387898"><ele>58.0</ele><time>2026-04-08T08:27:46.944Z</time></trkpt><trkpt lat="44.9012119" lon="10.0384314"><ele>58.0</ele><time>2026-04-08T08:27:47.943Z</time></trkpt><trkpt lat="44.90139" lon="10.0380762"><ele>58.0</ele><time>2026-04-08T08:27:48.944Z</time></trkpt><trkpt lat="44.9015649" lon="10.0377196"><ele>57.5</ele><time>2026-04-08T08:27:49.943Z</time></trkpt><trkpt lat="44.9017368" lon="10.0373653"><ele>57.0</ele><time>2026-04-08T08:27:50.944Z</time></trkpt><trkpt lat="44.9019102" lon="10.0370089"><ele>56.5</ele><time>2026-04-08T08:27:51.944Z</time></trkpt><trkpt lat="44.9020865" lon="10.0366349"><ele>56.0</ele><time>2026-04-08T08:27:52.943Z</time></trkpt><trkpt lat="44.9022693" lon="10.0362564"><ele>56.0</ele><time>2026-04-08T08:27:53.943Z</time></trkpt><trkpt lat="44.9024554" lon="10.0358699"><ele>56.0</ele><time>2026-04-08T08:27:54.943Z</time></trkpt><trkpt lat="44.9026468" lon="10.0354772"><ele>55.5</ele><time>2026-04-08T08:27:55.943Z</time></trkpt><trkpt lat="44.9028412" lon="10.0350828"><ele>55.0</ele><time>2026-04-08T08:27:56.943Z</time></trkpt><trkpt lat="44.9030351" lon="10.0346879"><ele>54.5</ele><time>2026-04-08T08:27:57.943Z</time></trkpt><trkpt lat="44.9032285" lon="10.0342943"><ele>54.0</ele><time>2026-04-08T08:27:58.943Z</time></trkpt><trkpt lat="44.9034233" lon="10.0338981"><ele>54.0</ele><time>2026-04-08T08:27:59.943Z</time></trkpt><trkpt lat="44.9036202" lon="10.0335033"><ele>54.0</ele><time>2026-04-08T08:28:00.943Z</time></trkpt><trkpt lat="44.9038166" lon="10.0331072"><ele>55.0</ele><time>2026-04-08T08:28:01.944Z</time></trkpt><trkpt lat="44.9040123" lon="10.0327097"><ele>56.0</ele><time>2026-04-08T08:28:02.944Z</time></trkpt><trkpt lat="44.9042068" lon="10.0323106"><ele>56.0</ele><time>2026-04-08T08:28:03.943Z</time></trkpt><trkpt lat="44.9043997" lon="10.0319121"><ele>56.0</ele><time>2026-04-08T08:28:04.944Z</time></trkpt><trkpt lat="44.9045937" lon="10.0315138"><ele>56.0</ele><time>2026-04-08T08:28:05.943Z</time></trkpt><trkpt lat="44.9047877" lon="10.0311164"><ele>56.0</ele><time>2026-04-08T08:28:06.943Z</time></trkpt><trkpt lat="44.9049824" lon="10.030721"><ele>55.0</ele><time>2026-04-08T08:28:07.943Z</time></trkpt><trkpt lat="44.9051734" lon="10.0303209"><ele>54.0</ele><time>2026-04-08T08:28:08.944Z</time></trkpt><trkpt lat="44.9053645" lon="10.0299294"><ele>54.0</ele><time>2026-04-08T08:28:09.943Z</time></trkpt><trkpt lat="44.905554" lon="10.0295392"><ele>54.0</ele><time>2026-04-08T08:28:10.943Z</time></trkpt><trkpt lat="44.9057455" lon="10.0291514"><ele>54.5</ele><time>2026-04-08T08:28:11.943Z</time></trkpt><trkpt lat="44.9059354" lon="10.0287639"><ele>55.0</ele><time>2026-04-08T08:28:12.944Z</time></trkpt><trkpt lat="44.9061231" lon="10.0283744"><ele>56.0</ele><time>2026-04-08T08:28:13.943Z</time></trkpt><trkpt lat="44.9063112" lon="10.0279884"><ele>57.0</ele><time>2026-04-08T08:28:14.943Z</time></trkpt><trkpt lat="44.9064989" lon="10.0275985"><ele>56.5</ele><time>2026-04-08T08:28:15.943Z</time></trkpt><trkpt lat="44.9066853" lon="10.0272102"><ele>56.0</ele><time>2026-04-08T08:28:16.944Z</time></trkpt><trkpt lat="44.9068719" lon="10.0268196"><ele>56.5</ele><time>2026-04-08T08:28:17.943Z</time></trkpt><trkpt lat="44.9070615" lon="10.0264292"><ele>57.0</ele><time>2026-04-08T08:28:18.943Z</time></trkpt><trkpt lat="44.9072551" lon="10.0260415"><ele>56.0</ele><time>2026-04-08T08:28:19.943Z</time></trkpt><trkpt lat="44.9074496" lon="10.0256514"><ele>55.0</ele><time>2026-04-08T08:28:20.944Z</time></trkpt><trkpt lat="44.9076415" lon="10.0252601"><ele>55.0</ele><time>2026-04-08T08:28:21.943Z</time></trkpt><trkpt lat="44.9078317" lon="10.0248703"><ele>55.0</ele><time>2026-04-08T08:28:22.943Z</time></trkpt><trkpt lat="44.908023" lon="10.024482"><ele>55.5</ele><time>2026-04-08T08:28:23.943Z</time></trkpt><trkpt lat="44.9082123" lon="10.0240946"><ele>56.0</ele><time>2026-04-08T08:28:24.944Z</time></trkpt><trkpt lat="44.9084029" lon="10.0237083"><ele>56.0</ele><time>2026-04-08T08:28:25.944Z</time></trkpt><trkpt lat="44.9085921" lon="10.023324"><ele>56.0</ele><time>2026-04-08T08:28:26.943Z</time></trkpt><trkpt lat="44.9087799" lon="10.0229435"><ele>56.5</ele><time>2026-04-08T08:28:27.944Z</time></trkpt><trkpt lat="44.9089644" lon="10.0225626"><ele>57.0</ele><time>2026-04-08T08:28:28.944Z</time></trkpt><trkpt lat="44.9091455" lon="10.0221834"><ele>56.5</ele><time>2026-04-08T08:28:29.943Z</time></trkpt><trkpt lat="44.9093284" lon="10.0218078"><ele>56.0</ele><time>2026-04-08T08:28:30.943Z</time></trkpt><trkpt lat="44.9095109" lon="10.0214349"><ele>56.0</ele><time>2026-04-08T08:28:31.943Z</time></trkpt><trkpt lat="44.9096919" lon="10.0210648"><ele>56.0</ele><time>2026-04-08T08:28:32.944Z</time></trkpt><trkpt lat="44.9098705" lon="10.0206939"><ele>56.5</ele><time>2026-04-08T08:28:33.943Z</time></trkpt><trkpt lat="44.9100506" lon="10.0203221"><ele>57.0</ele><time>2026-04-08T08:28:34.943Z</time></trkpt><trkpt lat="44.9102313" lon="10.0199495"><ele>56.0</ele><time>2026-04-08T08:28:35.943Z</time></trkpt><trkpt lat="44.9104105" lon="10.0195784"><ele>55.0</ele><time>2026-04-08T08:28:36.943Z</time></trkpt><trkpt lat="44.9105906" lon="10.0192064"><ele>55.5</ele><time>2026-04-08T08:28:37.943Z</time></trkpt><trkpt lat="44.9107712" lon="10.0188331"><ele>56.0</ele><time>2026-04-08T08:28:38.943Z</time></trkpt><trkpt lat="44.9109508" lon="10.0184615"><ele>55.0</ele><time>2026-04-08T08:28:39.943Z</time></trkpt><trkpt lat="44.9111322" lon="10.018088"><ele>54.0</ele><time>2026-04-08T08:28:40.943Z</time></trkpt><trkpt lat="44.9113151" lon="10.0177167"><ele>55.0</ele><time>2026-04-08T08:28:41.943Z</time></trkpt><trkpt lat="44.9114972" lon="10.0173455"><ele>56.0</ele><time>2026-04-08T08:28:42.944Z</time></trkpt><trkpt lat="44.9116819" lon="10.0169714"><ele>55.5</ele><time>2026-04-08T08:28:43.943Z</time></trkpt><trkpt lat="44.911866" lon="10.0165973"><ele>55.0</ele><time>2026-04-08T08:28:44.943Z</time></trkpt><trkpt lat="44.9120475" lon="10.0162247"><ele>55.0</ele><time>2026-04-08T08:28:45.943Z</time></trkpt><trkpt lat="44.9122233" lon="10.0158599"><ele>55.0</ele><time>2026-04-08T08:28:46.943Z</time></trkpt><trkpt lat="44.9123957" lon="10.0155074"><ele>55.5</ele><time>2026-04-08T08:28:47.943Z</time></trkpt><trkpt lat="44.9125641" lon="10.01516"><ele>56.0</ele><time>2026-04-08T08:28:48.943Z</time></trkpt><trkpt lat="44.9127323" lon="10.0148183"><ele>56.0</ele><time>2026-04-08T08:28:49.943Z</time></trkpt><trkpt lat="44.912896" lon="10.0144799"><ele>56.0</ele><time>2026-04-08T08:28:50.943Z</time></trkpt><trkpt lat="44.9130592" lon="10.0141434"><ele>56.0</ele><time>2026-04-08T08:28:51.943Z</time></trkpt><trkpt lat="44.9132204" lon="10.0138109"><ele>56.0</ele><time>2026-04-08T08:28:52.943Z</time></trkpt><trkpt lat="44.9133768" lon="10.0134746"><ele>56.0</ele><time>2026-04-08T08:28:53.943Z</time></trkpt><trkpt lat="44.9135305" lon="10.013134"><ele>56.0</ele><time>2026-04-08T08:28:54.943Z</time></trkpt><trkpt lat="44.9136838" lon="10.0127903"><ele>56.5</ele><time>2026-04-08T08:28:55.943Z</time></trkpt><trkpt lat="44.9138415" lon="10.0124489"><ele>57.0</ele><time>2026-04-08T08:28:56.943Z</time></trkpt><trkpt lat="44.9140031" lon="10.0121074"><ele>57.0</ele><time>2026-04-08T08:28:57.943Z</time></trkpt><trkpt lat="44.9141667" lon="10.0117703"><ele>57.0</ele><time>2026-04-08T08:28:58.943Z</time></trkpt><trkpt lat="44.9143312" lon="10.0114296"><ele>56.0</ele><time>2026-04-08T08:28:59.943Z</time></trkpt><trkpt lat="44.9144969" lon="10.0110878"><ele>55.0</ele><time>2026-04-08T08:29:00.943Z</time></trkpt><trkpt lat="44.9146657" lon="10.0107459"><ele>54.5</ele><time>2026-04-08T08:29:01.943Z</time></trkpt><trkpt lat="44.9148329" lon="10.0104028"><ele>54.0</ele><time>2026-04-08T08:29:02.943Z</time></trkpt><trkpt lat="44.9150001" lon="10.0100606"><ele>54.0</ele><time>2026-04-08T08:29:03.943Z</time></trkpt><trkpt lat="44.9151677" lon="10.0097183"><ele>54.0</ele><time>2026-04-08T08:29:04.943Z</time></trkpt><trkpt lat="44.9153362" lon="10.009374"><ele>54.5</ele><time>2026-04-08T08:29:05.944Z</time></trkpt><trkpt lat="44.9155029" lon="10.0090321"><ele>55.0</ele><time>2026-04-08T08:29:06.944Z</time></trkpt><trkpt lat="44.9156747" lon="10.0086889"><ele>55.0</ele><time>2026-04-08T08:29:07.943Z</time></trkpt><trkpt lat="44.9158447" lon="10.0083457"><ele>55.0</ele><time>2026-04-08T08:29:08.944Z</time></trkpt><trkpt lat="44.9160135" lon="10.008003"><ele>55.0</ele><time>2026-04-08T08:29:09.943Z</time></trkpt><trkpt lat="44.9161831" lon="10.0076571"><ele>55.0</ele><time>2026-04-08T08:29:10.943Z</time></trkpt><trkpt lat="44.9163516" lon="10.0073102"><ele>55.5</ele><time>2026-04-08T08:29:11.943Z</time></trkpt><trkpt lat="44.9165225" lon="10.0069602"><ele>56.0</ele><time>2026-04-08T08:29:12.943Z</time></trkpt><trkpt lat="44.9166921" lon="10.0066093"><ele>56.0</ele><time>2026-04-08T08:29:13.943Z</time></trkpt><trkpt lat="44.9168617" lon="10.0062625"><ele>56.0</ele><time>2026-04-08T08:29:14.943Z</time></trkpt><trkpt lat="44.9170385" lon="10.0059211"><ele>55.5</ele><time>2026-04-08T08:29:15.944Z</time></trkpt><trkpt lat="44.9172173" lon="10.0055806"><ele>55.0</ele><time>2026-04-08T08:29:16.944Z</time></trkpt><trkpt lat="44.917393" lon="10.0052359"><ele>55.0</ele><time>2026-04-08T08:29:17.944Z</time></trkpt><trkpt lat="44.9175658" lon="10.0048905"><ele>55.0</ele><time>2026-04-08T08:29:18.944Z</time></trkpt><trkpt lat="44.9177376" lon="10.0045413"><ele>55.0</ele><time>2026-04-08T08:29:19.944Z</time></trkpt><trkpt lat="44.9179068" lon="10.00419"><ele>55.0</ele><time>2026-04-08T08:29:20.943Z</time></trkpt><trkpt lat="44.9180777" lon="10.0038391"><ele>54.0</ele><time>2026-04-08T08:29:21.943Z</time></trkpt><trkpt lat="44.9182492" lon="10.0034877"><ele>53.0</ele><time>2026-04-08T08:29:22.943Z</time></trkpt><trkpt lat="44.9184207" lon="10.0031365"><ele>52.5</ele><time>2026-04-08T08:29:23.944Z</time></trkpt><trkpt lat="44.9185955" lon="10.002783"><ele>52.0</ele><time>2026-04-08T08:29:24.943Z</time></trkpt><trkpt lat="44.9187684" lon="10.0024317"><ele>52.0</ele><time>2026-04-08T08:29:25.943Z</time></trkpt><trkpt lat="44.9189403" lon="10.0020771"><ele>52.0</ele><time>2026-04-08T08:29:26.943Z</time></trkpt><trkpt lat="44.9191153" lon="10.0017182"><ele>52.0</ele><time>2026-04-08T08:29:27.943Z</time></trkpt><trkpt lat="44.9192893" lon="10.0013599"><ele>52.0</ele><time>2026-04-08T08:29:28.944Z</time></trkpt><trkpt lat="44.9194632" lon="10.000999"><ele>54.0</ele><time>2026-04-08T08:29:29.943Z</time></trkpt><trkpt lat="44.9196382" lon="10.0006376"><ele>56.0</ele><time>2026-04-08T08:29:30.943Z</time></trkpt><trkpt lat="44.9198155" lon="10.0002775"><ele>56.0</ele><time>2026-04-08T08:29:31.944Z</time></trkpt><trkpt lat="44.9199956" lon="9.999916"><ele>56.0</ele><time>2026-04-08T08:29:32.943Z</time></trkpt><trkpt lat="44.9201725" lon="9.9995505"><ele>54.5</ele><time>2026-04-08T08:29:33.943Z</time></trkpt><trkpt lat="44.9203492" lon="9.9991841"><ele>53.0</ele><time>2026-04-08T08:29:34.943Z</time></trkpt><trkpt lat="44.9205285" lon="9.9988185"><ele>53.0</ele><time>2026-04-08T08:29:35.943Z</time></trkpt><trkpt lat="44.9207065" lon="9.9984494"><ele>53.0</ele><time>2026-04-08T08:29:36.943Z</time></trkpt><trkpt lat="44.920885" lon="9.9980821"><ele>52.5</ele><time>2026-04-08T08:29:37.944Z</time></trkpt><trkpt lat="44.9210628" lon="9.9977175"><ele>52.0</ele><time>2026-04-08T08:29:38.943Z</time></trkpt><trkpt lat="44.9212387" lon="9.9973529"><ele>52.0</ele><time>2026-04-08T08:29:39.944Z</time></trkpt><trkpt lat="44.9214152" lon="9.9969899"><ele>52.0</ele><time>2026-04-08T08:29:40.943Z</time></trkpt><trkpt lat="44.9215919" lon="9.9966284"><ele>54.0</ele><time>2026-04-08T08:29:41.944Z</time></trkpt><trkpt lat="44.9217667" lon="9.996271"><ele>56.0</ele><time>2026-04-08T08:29:42.944Z</time></trkpt><trkpt lat="44.9219393" lon="9.9959149"><ele>55.0</ele><time>2026-04-08T08:29:43.943Z</time></trkpt><trkpt lat="44.9221127" lon="9.9955605"><ele>54.0</ele><time>2026-04-08T08:29:44.944Z</time></trkpt><trkpt lat="44.9222859" lon="9.9952024"><ele>54.0</ele><time>2026-04-08T08:29:45.943Z</time></trkpt><trkpt lat="44.9224596" lon="9.9948517"><ele>54.0</ele><time>2026-04-08T08:29:46.943Z</time></trkpt><trkpt lat="44.9226305" lon="9.9945001"><ele>53.0</ele><time>2026-04-08T08:29:47.943Z</time></trkpt><trkpt lat="44.9228004" lon="9.9941452"><ele>52.0</ele><time>2026-04-08T08:29:48.943Z</time></trkpt><trkpt lat="44.9229737" lon="9.9937939"><ele>52.0</ele><time>2026-04-08T08:29:49.943Z</time></trkpt><trkpt lat="44.9231464" lon="9.9934436"><ele>52.0</ele><time>2026-04-08T08:29:50.943Z</time></trkpt><trkpt lat="44.9233158" lon="9.9930934"><ele>51.5</ele><time>2026-04-08T08:29:51.944Z</time></trkpt><trkpt lat="44.9234847" lon="9.9927433"><ele>51.0</ele><time>2026-04-08T08:29:52.943Z</time></trkpt><trkpt lat="44.9236542" lon="9.9923974"><ele>51.0</ele><time>2026-04-08T08:29:53.943Z</time></trkpt><trkpt lat="44.9238245" lon="9.9920517"><ele>51.0</ele><time>2026-04-08T08:29:54.943Z</time></trkpt><trkpt lat="44.9239925" lon="9.9917061"><ele>51.0</ele><time>2026-04-08T08:29:55.943Z</time></trkpt><trkpt lat="44.9241582" lon="9.9913617"><ele>51.0</ele><time>2026-04-08T08:29:56.944Z</time></trkpt><trkpt lat="44.9243231" lon="9.9910204"><ele>51.0</ele><time>2026-04-08T08:29:57.943Z</time></trkpt><trkpt lat="44.9244877" lon="9.9906822"><ele>51.0</ele><time>2026-04-08T08:29:58.943Z</time></trkpt><trkpt lat="44.9246536" lon="9.9903461"><ele>51.0</ele><time>2026-04-08T08:29:59.944Z</time></trkpt><trkpt lat="44.9248185" lon="9.9900101"><ele>51.0</ele><time>2026-04-08T08:30:00.944Z</time></trkpt><trkpt lat="44.9249854" lon="9.9896735"><ele>51.5</ele><time>2026-04-08T08:30:01.944Z</time></trkpt><trkpt lat="44.9251498" lon="9.9893351"><ele>52.0</ele><time>2026-04-08T08:30:02.943Z</time></trkpt><trkpt lat="44.9253143" lon="9.9889951"><ele>52.5</ele><time>2026-04-08T08:30:03.943Z</time></trkpt><trkpt lat="44.9254793" lon="9.9886545"><ele>53.0</ele><time>2026-04-08T08:30:04.944Z</time></trkpt><trkpt lat="44.9256445" lon="9.9883207"><ele>52.0</ele><time>2026-04-08T08:30:05.943Z</time></trkpt><trkpt lat="44.9258099" lon="9.9879869"><ele>51.0</ele><time>2026-04-08T08:30:06.943Z</time></trkpt><trkpt lat="44.9259715" lon="9.9876487"><ele>50.0</ele><time>2026-04-08T08:30:07.943Z</time></trkpt><trkpt lat="44.9261359" lon="9.9873143"><ele>49.0</ele><time>2026-04-08T08:30:08.943Z</time></trkpt><trkpt lat="44.9263001" lon="9.9869788"><ele>48.5</ele><time>2026-04-08T08:30:09.943Z</time></trkpt><trkpt lat="44.9264659" lon="9.9866438"><ele>48.0</ele><time>2026-04-08T08:30:10.943Z</time></trkpt><trkpt lat="44.9266304" lon="9.9863059"><ele>48.5</ele><time>2026-04-08T08:30:11.943Z</time></trkpt><trkpt lat="44.9267965" lon="9.9859682"><ele>49.0</ele><time>2026-04-08T08:30:12.943Z</time></trkpt><trkpt lat="44.9269614" lon="9.9856281"><ele>49.0</ele><time>2026-04-08T08:30:13.943Z</time></trkpt><trkpt lat="44.9271243" lon="9.985289"><ele>49.0</ele><time>2026-04-08T08:30:14.944Z</time></trkpt><trkpt lat="44.9272879" lon="9.9849504"><ele>49.0</ele><time>2026-04-08T08:30:15.943Z</time></trkpt><trkpt lat="44.9274515" lon="9.984613"><ele>49.0</ele><time>2026-04-08T08:30:16.943Z</time></trkpt><trkpt lat="44.9276157" lon="9.9842766"><ele>49.0</ele><time>2026-04-08T08:30:17.944Z</time></trkpt><trkpt lat="44.9277792" lon="9.9839415"><ele>49.0</ele><time>2026-04-08T08:30:18.943Z</time></trkpt><trkpt lat="44.9279415" lon="9.9836088"><ele>48.5</ele><time>2026-04-08T08:30:19.944Z</time></trkpt><trkpt lat="44.9281068" lon="9.9832749"><ele>48.0</ele><time>2026-04-08T08:30:20.944Z</time></trkpt><trkpt lat="44.9282699" lon="9.9829386"><ele>48.5</ele><time>2026-04-08T08:30:21.943Z</time></trkpt><trkpt lat="44.9284345" lon="9.9826022"><ele>49.0</ele><time>2026-04-08T08:30:22.943Z</time></trkpt><trkpt lat="44.9285968" lon="9.9822686"><ele>49.0</ele><time>2026-04-08T08:30:23.943Z</time></trkpt><trkpt lat="44.9287599" lon="9.9819342"><ele>49.0</ele><time>2026-04-08T08:30:24.943Z</time></trkpt><trkpt lat="44.9289192" lon="9.9816027"><ele>49.0</ele><time>2026-04-08T08:30:25.943Z</time></trkpt><trkpt lat="44.9290788" lon="9.9812712"><ele>49.0</ele><time>2026-04-08T08:30:26.943Z</time></trkpt><trkpt lat="44.9292357" lon="9.9809405"><ele>49.5</ele><time>2026-04-08T08:30:27.943Z</time></trkpt><trkpt lat="44.9293943" lon="9.9806112"><ele>50.0</ele><time>2026-04-08T08:30:28.944Z</time></trkpt><trkpt lat="44.929557" lon="9.9802842"><ele>50.5</ele><time>2026-04-08T08:30:29.944Z</time></trkpt><trkpt lat="44.9297196" lon="9.9799527"><ele>51.0</ele><time>2026-04-08T08:30:30.943Z</time></trkpt><trkpt lat="44.9298856" lon="9.9796189"><ele>51.0</ele><time>2026-04-08T08:30:31.944Z</time></trkpt><trkpt lat="44.9300512" lon="9.9792847"><ele>51.0</ele><time>2026-04-08T08:30:32.943Z</time></trkpt><trkpt lat="44.9302185" lon="9.9789524"><ele>50.5</ele><time>2026-04-08T08:30:33.944Z</time></trkpt><trkpt lat="44.9303856" lon="9.9786161"><ele>50.0</ele><time>2026-04-08T08:30:34.944Z</time></trkpt><trkpt lat="44.9305506" lon="9.978279"><ele>50.0</ele><time>2026-04-08T08:30:35.944Z</time></trkpt><trkpt lat="44.9307135" lon="9.9779421"><ele>50.0</ele><time>2026-04-08T08:30:36.943Z</time></trkpt><trkpt lat="44.9308788" lon="9.9776037"><ele>49.5</ele><time>2026-04-08T08:30:37.943Z</time></trkpt><trkpt lat="44.9310418" lon="9.9772687"><ele>49.0</ele><time>2026-04-08T08:30:38.944Z</time></trkpt><trkpt lat="44.931206" lon="9.9769328"><ele>49.0</ele><time>2026-04-08T08:30:39.943Z</time></trkpt><trkpt lat="44.9313669" lon="9.9765977"><ele>49.0</ele><time>2026-04-08T08:30:40.944Z</time></trkpt><trkpt lat="44.9315251" lon="9.9762623"><ele>49.0</ele><time>2026-04-08T08:30:41.943Z</time></trkpt><trkpt lat="44.9316853" lon="9.9759301"><ele>49.0</ele><time>2026-04-08T08:30:42.943Z</time></trkpt><trkpt lat="44.9318472" lon="9.9755984"><ele>49.0</ele><time>2026-04-08T08:30:43.943Z</time></trkpt><trkpt lat="44.9320087" lon="9.9752695"><ele>49.0</ele><time>2026-04-08T08:30:44.943Z</time></trkpt><trkpt lat="44.9321711" lon="9.9749448"><ele>49.0</ele><time>2026-04-08T08:30:45.944Z</time></trkpt><trkpt lat="44.9323336" lon="9.9746164"><ele>49.0</ele><time>2026-04-08T08:30:46.943Z</time></trkpt><trkpt lat="44.9324959" lon="9.9742889"><ele>50.0</ele><time>2026-04-08T08:30:47.944Z</time></trkpt><trkpt lat="44.9326547" lon="9.9739578"><ele>51.0</ele><time>2026-04-08T08:30:48.943Z</time></trkpt><trkpt lat="44.9328157" lon="9.9736292"><ele>49.5</ele><time>2026-04-08T08:30:49.943Z</time></trkpt><trkpt lat="44.9329783" lon="9.973297"><ele>48.0</ele><time>2026-04-08T08:30:50.943Z</time></trkpt><trkpt lat="44.9331391" lon="9.972964"><ele>48.0</ele><time>2026-04-08T08:30:51.943Z</time></trkpt><trkpt lat="44.9333011" lon="9.9726311"><ele>48.0</ele><time>2026-04-08T08:30:52.943Z</time></trkpt><trkpt lat="44.9334621" lon="9.9722972"><ele>48.0</ele><time>2026-04-08T08:30:53.943Z</time></trkpt><trkpt lat="44.9336225" lon="9.9719609"><ele>48.0</ele><time>2026-04-08T08:30:54.943Z</time></trkpt><trkpt lat="44.9337845" lon="9.9716275"><ele>47.0</ele><time>2026-04-08T08:30:55.943Z</time></trkpt><trkpt lat="44.9339455" lon="9.9712941"><ele>46.0</ele><time>2026-04-08T08:30:56.944Z</time></trkpt><trkpt lat="44.9341077" lon="9.9709615"><ele>45.5</ele><time>2026-04-08T08:30:57.943Z</time></trkpt><trkpt lat="44.9342698" lon="9.9706287"><ele>45.0</ele><time>2026-04-08T08:30:58.943Z</time></trkpt><trkpt lat="44.9344339" lon="9.9702962"><ele>45.5</ele><time>2026-04-08T08:30:59.943Z</time></trkpt><trkpt lat="44.9345969" lon="9.9699619"><ele>46.0</ele><time>2026-04-08T08:31:00.943Z</time></trkpt><trkpt lat="44.9347598" lon="9.96963"><ele>46.0</ele><time>2026-04-08T08:31:01.943Z</time></trkpt><trkpt lat="44.9349199" lon="9.9692956"><ele>46.0</ele><time>2026-04-08T08:31:02.943Z</time></trkpt><trkpt lat="44.9350827" lon="9.9689626"><ele>46.5</ele><time>2026-04-08T08:31:03.943Z</time></trkpt><trkpt lat="44.9352451" lon="9.9686282"><ele>47.0</ele><time>2026-04-08T08:31:04.943Z</time></trkpt><trkpt lat="44.9354067" lon="9.9682979"><ele>47.0</ele><time>2026-04-08T08:31:05.944Z</time></trkpt><trkpt lat="44.9355658" lon="9.967964"><ele>47.0</ele><time>2026-04-08T08:31:06.943Z</time></trkpt><trkpt lat="44.9357269" lon="9.9676314"><ele>47.0</ele><time>2026-04-08T08:31:07.943Z</time></trkpt><trkpt lat="44.9358874" lon="9.9672978"><ele>47.0</ele><time>2026-04-08T08:31:08.943Z</time></trkpt><trkpt lat="44.9360487" lon="9.9669627"><ele>47.0</ele><time>2026-04-08T08:31:09.944Z</time></trkpt><trkpt lat="44.9362101" lon="9.966629"><ele>47.0</ele><time>2026-04-08T08:31:10.944Z</time></trkpt><trkpt lat="44.9363707" lon="9.9662925"><ele>47.0</ele><time>2026-04-08T08:31:11.943Z</time></trkpt><trkpt lat="44.9365269" lon="9.965954"><ele>47.0</ele><time>2026-04-08T08:31:12.943Z</time></trkpt><trkpt lat="44.9366848" lon="9.9656165"><ele>48.5</ele><time>2026-04-08T08:31:13.944Z</time></trkpt><trkpt lat="44.9368434" lon="9.9652793"><ele>50.0</ele><time>2026-04-08T08:31:14.943Z</time></trkpt><trkpt lat="44.9370033" lon="9.9649417"><ele>50.5</ele><time>2026-04-08T08:31:15.943Z</time></trkpt><trkpt lat="44.9371647" lon="9.9646064"><ele>51.0</ele><time>2026-04-08T08:31:16.943Z</time></trkpt><trkpt lat="44.9373267" lon="9.9642747"><ele>50.5</ele><time>2026-04-08T08:31:17.943Z</time></trkpt><trkpt lat="44.9374897" lon="9.9639418"><ele>50.0</ele><time>2026-04-08T08:31:18.943Z</time></trkpt><trkpt lat="44.9376539" lon="9.9636097"><ele>49.5</ele><time>2026-04-08T08:31:19.944Z</time></trkpt><trkpt lat="44.9378226" lon="9.9632803"><ele>49.0</ele><time>2026-04-08T08:31:20.944Z</time></trkpt><trkpt lat="44.9379918" lon="9.9629521"><ele>49.0</ele><time>2026-04-08T08:31:21.944Z</time></trkpt><trkpt lat="44.9381625" lon="9.9626251"><ele>49.0</ele><time>2026-04-08T08:31:22.943Z</time></trkpt><trkpt lat="44.9383303" lon="9.9622953"><ele>49.0</ele><time>2026-04-08T08:31:23.944Z</time></trkpt><trkpt lat="44.9384931" lon="9.9619605"><ele>49.0</ele><time>2026-04-08T08:31:24.943Z</time></trkpt><trkpt lat="44.9386548" lon="9.9616304"><ele>48.5</ele><time>2026-04-08T08:31:25.943Z</time></trkpt><trkpt lat="44.9388164" lon="9.9613002"><ele>48.0</ele><time>2026-04-08T08:31:26.943Z</time></trkpt><trkpt lat="44.9389785" lon="9.9609669"><ele>48.5</ele><time>2026-04-08T08:31:27.943Z</time></trkpt><trkpt lat="44.9391386" lon="9.9606325"><ele>49.0</ele><time>2026-04-08T08:31:28.944Z</time></trkpt><trkpt lat="44.9392936" lon="9.960296"><ele>50.0</ele><time>2026-04-08T08:31:29.944Z</time></trkpt><trkpt lat="44.9394476" lon="9.9599583"><ele>51.0</ele><time>2026-04-08T08:31:30.943Z</time></trkpt><trkpt lat="44.9396" lon="9.9596147"><ele>51.0</ele><time>2026-04-08T08:31:31.943Z</time></trkpt><trkpt lat="44.9397515" lon="9.9592714"><ele>51.0</ele><time>2026-04-08T08:31:32.943Z</time></trkpt><trkpt lat="44.9399047" lon="9.9589274"><ele>51.0</ele><time>2026-04-08T08:31:33.943Z</time></trkpt><trkpt lat="44.940055" lon="9.9585836"><ele>51.0</ele><time>2026-04-08T08:31:34.944Z</time></trkpt><trkpt lat="44.9402033" lon="9.9582426"><ele>51.0</ele><time>2026-04-08T08:31:35.943Z</time></trkpt><trkpt lat="44.9403484" lon="9.9578937"><ele>51.0</ele><time>2026-04-08T08:31:36.943Z</time></trkpt><trkpt lat="44.9404964" lon="9.9575488"><ele>51.0</ele><time>2026-04-08T08:31:37.944Z</time></trkpt><trkpt lat="44.9406433" lon="9.9572049"><ele>51.0</ele><time>2026-04-08T08:31:38.943Z</time></trkpt><trkpt lat="44.9407911" lon="9.9568617"><ele>51.0</ele><time>2026-04-08T08:31:39.943Z</time></trkpt><trkpt lat="44.9409392" lon="9.9565201"><ele>51.0</ele><time>2026-04-08T08:31:40.943Z</time></trkpt><trkpt lat="44.9410888" lon="9.9561783"><ele>51.5</ele><time>2026-04-08T08:31:41.944Z</time></trkpt><trkpt lat="44.9412384" lon="9.9558334"><ele>52.0</ele><time>2026-04-08T08:31:42.944Z</time></trkpt><trkpt lat="44.94139" lon="9.9554907"><ele>52.0</ele><time>2026-04-08T08:31:43.944Z</time></trkpt><trkpt lat="44.9415389" lon="9.9551445"><ele>52.0</ele><time>2026-04-08T08:31:44.944Z</time></trkpt><trkpt lat="44.9416876" lon="9.9547963"><ele>52.0</ele><time>2026-04-08T08:31:45.943Z</time></trkpt><trkpt lat="44.9418361" lon="9.9544491"><ele>52.0</ele><time>2026-04-08T08:31:46.943Z</time></trkpt><trkpt lat="44.941985" lon="9.9540997"><ele>52.0</ele><time>2026-04-08T08:31:47.943Z</time></trkpt><trkpt lat="44.9421336" lon="9.9537475"><ele>52.0</ele><time>2026-04-08T08:31:48.943Z</time></trkpt><trkpt lat="44.9422808" lon="9.9533959"><ele>53.0</ele><time>2026-04-08T08:31:49.944Z</time></trkpt><trkpt lat="44.9424327" lon="9.9530499"><ele>54.0</ele><time>2026-04-08T08:31:50.943Z</time></trkpt><trkpt lat="44.9425807" lon="9.9527014"><ele>53.0</ele><time>2026-04-08T08:31:51.944Z</time></trkpt><trkpt lat="44.9427284" lon="9.9523582"><ele>52.0</ele><time>2026-04-08T08:31:52.944Z</time></trkpt><trkpt lat="44.9428742" lon="9.9520109"><ele>52.0</ele><time>2026-04-08T08:31:53.944Z</time></trkpt><trkpt lat="44.9430221" lon="9.9516693"><ele>52.0</ele><time>2026-04-08T08:31:54.943Z</time></trkpt><trkpt lat="44.9431683" lon="9.9513213"><ele>52.0</ele><time>2026-04-08T08:31:55.944Z</time></trkpt><trkpt lat="44.9433133" lon="9.9509756"><ele>52.0</ele><time>2026-04-08T08:31:56.944Z</time></trkpt><trkpt lat="44.9434594" lon="9.9506295"><ele>52.0</ele><time>2026-04-08T08:31:57.944Z</time></trkpt><trkpt lat="44.9436072" lon="9.9502857"><ele>52.0</ele><time>2026-04-08T08:31:58.944Z</time></trkpt><trkpt lat="44.9437538" lon="9.9499372"><ele>52.0</ele><time>2026-04-08T08:31:59.944Z</time></trkpt><trkpt lat="44.9439007" lon="9.9495904"><ele>52.0</ele><time>2026-04-08T08:32:00.943Z</time></trkpt><trkpt lat="44.9440497" lon="9.9492426"><ele>52.5</ele><time>2026-04-08T08:32:01.943Z</time></trkpt><trkpt lat="44.9441993" lon="9.9488924"><ele>53.0</ele><time>2026-04-08T08:32:02.943Z</time></trkpt><trkpt lat="44.9443481" lon="9.948544"><ele>54.0</ele><time>2026-04-08T08:32:03.943Z</time></trkpt><trkpt lat="44.9444963" lon="9.9481986"><ele>55.0</ele><time>2026-04-08T08:32:04.943Z</time></trkpt><trkpt lat="44.9446449" lon="9.9478501"><ele>55.0</ele><time>2026-04-08T08:32:05.944Z</time></trkpt><trkpt lat="44.9447935" lon="9.9475007"><ele>55.0</ele><time>2026-04-08T08:32:06.943Z</time></trkpt><trkpt lat="44.9449416" lon="9.9471543"><ele>54.5</ele><time>2026-04-08T08:32:07.943Z</time></trkpt><trkpt lat="44.9450894" lon="9.9468093"><ele>54.0</ele><time>2026-04-08T08:32:08.943Z</time></trkpt><trkpt lat="44.9452352" lon="9.9464592"><ele>54.0</ele><time>2026-04-08T08:32:09.943Z</time></trkpt><trkpt lat="44.9453838" lon="9.9461154"><ele>54.0</ele><time>2026-04-08T08:32:10.943Z</time></trkpt><trkpt lat="44.9455341" lon="9.9457717"><ele>53.5</ele><time>2026-04-08T08:32:11.943Z</time></trkpt><trkpt lat="44.9456854" lon="9.9454307"><ele>53.0</ele><time>2026-04-08T08:32:12.943Z</time></trkpt><trkpt lat="44.9458345" lon="9.9450888"><ele>53.5</ele><time>2026-04-08T08:32:13.943Z</time></trkpt><trkpt lat="44.9459862" lon="9.9447517"><ele>54.0</ele><time>2026-04-08T08:32:14.944Z</time></trkpt><trkpt lat="44.9461383" lon="9.9444158"><ele>53.5</ele><time>2026-04-08T08:32:15.944Z</time></trkpt><trkpt lat="44.9462809" lon="9.9440941"><ele>53.0</ele><time>2026-04-08T08:32:16.943Z</time></trkpt><trkpt lat="44.9464187" lon="9.9437864"><ele>53.0</ele><time>2026-04-08T08:32:17.944Z</time></trkpt><trkpt lat="44.9465549" lon="9.9434834"><ele>53.0</ele><time>2026-04-08T08:32:18.943Z</time></trkpt><trkpt lat="44.9466834" lon="9.9431797"><ele>53.5</ele><time>2026-04-08T08:32:19.944Z</time></trkpt><trkpt lat="44.9468082" lon="9.9428787"><ele>54.0</ele><time>2026-04-08T08:32:20.944Z</time></trkpt><trkpt lat="44.9469341" lon="9.9425848"><ele>53.5</ele><time>2026-04-08T08:32:21.943Z</time></trkpt><trkpt lat="44.9470551" lon="9.9422991"><ele>53.0</ele><time>2026-04-08T08:32:22.943Z</time></trkpt><trkpt lat="44.9471754" lon="9.9420201"><ele>53.0</ele><time>2026-04-08T08:32:23.943Z</time></trkpt><trkpt lat="44.9472921" lon="9.9417483"><ele>53.0</ele><time>2026-04-08T08:32:24.944Z</time></trkpt><trkpt lat="44.9474086" lon="9.9414799"><ele>53.0</ele><time>2026-04-08T08:32:25.943Z</time></trkpt><trkpt lat="44.9475219" lon="9.9412104"><ele>53.333333333333336</ele><time>2026-04-08T08:32:26.944Z</time></trkpt><trkpt lat="44.947635" lon="9.9409404"><ele>53.66666666666667</ele><time>2026-04-08T08:32:27.943Z</time></trkpt><trkpt lat="44.9477481" lon="9.9406697"><ele>54.0</ele><time>2026-04-08T08:32:28.944Z</time></trkpt><trkpt lat="44.9478606" lon="9.9403959"><ele>55.0</ele><time>2026-04-08T08:32:29.943Z</time></trkpt><trkpt lat="44.947974" lon="9.9401208"><ele>56.0</ele><time>2026-04-08T08:32:30.943Z</time></trkpt><trkpt lat="44.9480889" lon="9.939843"><ele>57.0</ele><time>2026-04-08T08:32:31.943Z</time></trkpt><trkpt lat="44.9482112" lon="9.9395547"><ele>58.0</ele><time>2026-04-08T08:32:32.943Z</time></trkpt><trkpt lat="44.9483393" lon="9.939262"><ele>58.5</ele><time>2026-04-08T08:32:33.943Z</time></trkpt><trkpt lat="44.9484696" lon="9.9389632"><ele>59.0</ele><time>2026-04-08T08:32:34.943Z</time></trkpt><trkpt lat="44.9486041" lon="9.9386613"><ele>58.5</ele><time>2026-04-08T08:32:35.943Z</time></trkpt><trkpt lat="44.9487384" lon="9.9383581"><ele>58.0</ele><time>2026-04-08T08:32:36.943Z</time></trkpt><trkpt lat="44.94887" lon="9.9380431"><ele>58.0</ele><time>2026-04-08T08:32:37.944Z</time></trkpt><trkpt lat="44.9490017" lon="9.9377241"><ele>58.0</ele><time>2026-04-08T08:32:38.943Z</time></trkpt><trkpt lat="44.9491329" lon="9.9374042"><ele>57.5</ele><time>2026-04-08T08:32:39.943Z</time></trkpt><trkpt lat="44.949268" lon="9.9370841"><ele>57.0</ele><time>2026-04-08T08:32:40.943Z</time></trkpt><trkpt lat="44.9494053" lon="9.9367524"><ele>56.5</ele><time>2026-04-08T08:32:41.943Z</time></trkpt><trkpt lat="44.9495427" lon="9.9364082"><ele>56.0</ele><time>2026-04-08T08:32:42.943Z</time></trkpt><trkpt lat="44.9496821" lon="9.9360573"><ele>56.0</ele><time>2026-04-08T08:32:43.943Z</time></trkpt><trkpt lat="44.9498253" lon="9.935702"><ele>56.0</ele><time>2026-04-08T08:32:44.943Z</time></trkpt><trkpt lat="44.9499742" lon="9.9353495"><ele>57.0</ele><time>2026-04-08T08:32:45.944Z</time></trkpt><trkpt lat="44.9501249" lon="9.9349923"><ele>58.0</ele><time>2026-04-08T08:32:46.943Z</time></trkpt><trkpt lat="44.9502755" lon="9.9346415"><ele>58.0</ele><time>2026-04-08T08:32:47.944Z</time></trkpt><trkpt lat="44.9504242" lon="9.9342957"><ele>58.0</ele><time>2026-04-08T08:32:48.944Z</time></trkpt><trkpt lat="44.9505709" lon="9.9339507"><ele>58.0</ele><time>2026-04-08T08:32:49.943Z</time></trkpt><trkpt lat="44.9507211" lon="9.9336064"><ele>58.0</ele><time>2026-04-08T08:32:50.943Z</time></trkpt><trkpt lat="44.9508686" lon="9.9332621"><ele>57.0</ele><time>2026-04-08T08:32:51.943Z</time></trkpt><trkpt lat="44.9510142" lon="9.9329199"><ele>56.0</ele><time>2026-04-08T08:32:52.944Z</time></trkpt><trkpt lat="44.9511614" lon="9.9325791"><ele>55.5</ele><time>2026-04-08T08:32:53.944Z</time></trkpt><trkpt lat="44.9513061" lon="9.9322371"><ele>55.0</ele><time>2026-04-08T08:32:54.944Z</time></trkpt><trkpt lat="44.9514523" lon="9.9318956"><ele>55.0</ele><time>2026-04-08T08:32:55.943Z</time></trkpt><trkpt lat="44.9515996" lon="9.9315545"><ele>55.0</ele><time>2026-04-08T08:32:56.944Z</time></trkpt><trkpt lat="44.951747" lon="9.931213"><ele>57.0</ele><time>2026-04-08T08:32:57.943Z</time></trkpt><trkpt lat="44.951892" lon="9.9308685"><ele>59.0</ele><time>2026-04-08T08:32:58.943Z</time></trkpt><trkpt lat="44.9520378" lon="9.9305227"><ele>59.0</ele><time>2026-04-08T08:32:59.943Z</time></trkpt><trkpt lat="44.9521851" lon="9.9301756"><ele>59.0</ele><time>2026-04-08T08:33:00.944Z</time></trkpt><trkpt lat="44.9523291" lon="9.9298291"><ele>59.5</ele><time>2026-04-08T08:33:01.944Z</time></trkpt><trkpt lat="44.9524768" lon="9.9294833"><ele>60.0</ele><time>2026-04-08T08:33:02.944Z</time></trkpt><trkpt lat="44.9526252" lon="9.929134"><ele>60.0</ele><time>2026-04-08T08:33:03.943Z</time></trkpt><trkpt lat="44.9527743" lon="9.9287891"><ele>60.0</ele><time>2026-04-08T08:33:04.943Z</time></trkpt><trkpt lat="44.952925" lon="9.9284437"><ele>59.5</ele><time>2026-04-08T08:33:05.943Z</time></trkpt><trkpt lat="44.9530772" lon="9.928095"><ele>59.0</ele><time>2026-04-08T08:33:06.943Z</time></trkpt><trkpt lat="44.9532253" lon="9.927745"><ele>58.5</ele><time>2026-04-08T08:33:07.943Z</time></trkpt><trkpt lat="44.9533749" lon="9.9273924"><ele>58.0</ele><time>2026-04-08T08:33:08.943Z</time></trkpt><trkpt lat="44.953522" lon="9.9270444"><ele>59.0</ele><time>2026-04-08T08:33:09.943Z</time></trkpt><trkpt lat="44.95367" lon="9.9266962"><ele>60.0</ele><time>2026-04-08T08:33:10.943Z</time></trkpt><trkpt lat="44.953817" lon="9.9263479"><ele>60.0</ele><time>2026-04-08T08:33:11.944Z</time></trkpt><trkpt lat="44.9539661" lon="9.9260033"><ele>60.0</ele><time>2026-04-08T08:33:12.943Z</time></trkpt><trkpt lat="44.9541148" lon="9.9256585"><ele>60.5</ele><time>2026-04-08T08:33:13.943Z</time></trkpt><trkpt lat="44.9542623" lon="9.9253156"><ele>61.0</ele><time>2026-04-08T08:33:14.943Z</time></trkpt><trkpt lat="44.954409" lon="9.92497"><ele>61.0</ele><time>2026-04-08T08:33:15.944Z</time></trkpt><trkpt lat="44.954558" lon="9.9246256"><ele>61.0</ele><time>2026-04-08T08:33:16.943Z</time></trkpt><trkpt lat="44.9547046" lon="9.9242813"><ele>62.0</ele><time>2026-04-08T08:33:17.944Z</time></trkpt><trkpt lat="44.954851" lon="9.9239368"><ele>63.0</ele><time>2026-04-08T08:33:18.943Z</time></trkpt><trkpt lat="44.9549956" lon="9.9235916"><ele>63.5</ele><time>2026-04-08T08:33:19.943Z</time></trkpt><trkpt lat="44.9551403" lon="9.9232476"><ele>64.0</ele><time>2026-04-08T08:33:20.944Z</time></trkpt><trkpt lat="44.9552834" lon="9.9229047"><ele>64.5</ele><time>2026-04-08T08:33:21.943Z</time></trkpt><trkpt lat="44.9554301" lon="9.9225586"><ele>65.0</ele><time>2026-04-08T08:33:22.943Z</time></trkpt><trkpt lat="44.9555753" lon="9.9222109"><ele>65.0</ele><time>2026-04-08T08:33:23.943Z</time></trkpt><trkpt lat="44.9557216" lon="9.921862"><ele>65.0</ele><time>2026-04-08T08:33:24.944Z</time></trkpt><trkpt lat="44.9558676" lon="9.921513"><ele>64.5</ele><time>2026-04-08T08:33:25.943Z</time></trkpt><trkpt lat="44.9560136" lon="9.9211628"><ele>64.0</ele><time>2026-04-08T08:33:26.943Z</time></trkpt><trkpt lat="44.9561602" lon="9.9208084"><ele>63.0</ele><time>2026-04-08T08:33:27.944Z</time></trkpt><trkpt lat="44.9563076" lon="9.9204556"><ele>62.0</ele><time>2026-04-08T08:33:28.943Z</time></trkpt><trkpt lat="44.956456" lon="9.9201016"><ele>62.5</ele><time>2026-04-08T08:33:29.943Z</time></trkpt><trkpt lat="44.956608" lon="9.919755"><ele>63.0</ele><time>2026-04-08T08:33:30.943Z</time></trkpt><trkpt lat="44.9567588" lon="9.9194083"><ele>62.0</ele><time>2026-04-08T08:33:31.943Z</time></trkpt><trkpt lat="44.9569093" lon="9.9190629"><ele>61.0</ele><time>2026-04-08T08:33:32.944Z</time></trkpt><trkpt lat="44.9570617" lon="9.9187213"><ele>62.5</ele><time>2026-04-08T08:33:33.943Z</time></trkpt><trkpt lat="44.9572146" lon="9.9183788"><ele>64.0</ele><time>2026-04-08T08:33:34.943Z</time></trkpt><trkpt lat="44.9573638" lon="9.9180343"><ele>64.0</ele><time>2026-04-08T08:33:35.944Z</time></trkpt><trkpt lat="44.9575099" lon="9.9176887"><ele>64.0</ele><time>2026-04-08T08:33:36.944Z</time></trkpt><trkpt lat="44.9576571" lon="9.9173422"><ele>61.5</ele><time>2026-04-08T08:33:37.943Z</time></trkpt><trkpt lat="44.9578051" lon="9.916995"><ele>59.0</ele><time>2026-04-08T08:33:38.944Z</time></trkpt><trkpt lat="44.9579538" lon="9.9166527"><ele>58.5</ele><time>2026-04-08T08:33:39.943Z</time></trkpt><trkpt lat="44.9580973" lon="9.9163085"><ele>58.0</ele><time>2026-04-08T08:33:40.943Z</time></trkpt><trkpt lat="44.9582396" lon="9.9159636"><ele>59.0</ele><time>2026-04-08T08:33:41.943Z</time></trkpt><trkpt lat="44.9583862" lon="9.9156171"><ele>60.0</ele><time>2026-04-08T08:33:42.944Z</time></trkpt><trkpt lat="44.958532" lon="9.9152701"><ele>60.5</ele><time>2026-04-08T08:33:43.943Z</time></trkpt><trkpt lat="44.9586785" lon="9.9149231"><ele>61.0</ele><time>2026-04-08T08:33:44.943Z</time></trkpt><trkpt lat="44.9588258" lon="9.9145761"><ele>61.5</ele><time>2026-04-08T08:33:45.943Z</time></trkpt><trkpt lat="44.9589731" lon="9.9142286"><ele>62.0</ele><time>2026-04-08T08:33:46.943Z</time></trkpt><trkpt lat="44.9591228" lon="9.9138824"><ele>61.0</ele><time>2026-04-08T08:33:47.943Z</time></trkpt><trkpt lat="44.9592729" lon="9.9135366"><ele>60.0</ele><time>2026-04-08T08:33:48.943Z</time></trkpt><trkpt lat="44.9594224" lon="9.913193"><ele>58.0</ele><time>2026-04-08T08:33:49.943Z</time></trkpt><trkpt lat="44.9595688" lon="9.9128491"><ele>56.0</ele><time>2026-04-08T08:33:50.944Z</time></trkpt><trkpt lat="44.9597185" lon="9.9125053"><ele>56.0</ele><time>2026-04-08T08:33:51.943Z</time></trkpt><trkpt lat="44.9598662" lon="9.912161"><ele>56.0</ele><time>2026-04-08T08:33:52.944Z</time></trkpt><trkpt lat="44.9600132" lon="9.9118145"><ele>57.0</ele><time>2026-04-08T08:33:53.943Z</time></trkpt><trkpt lat="44.9601586" lon="9.9114686"><ele>58.0</ele><time>2026-04-08T08:33:54.943Z</time></trkpt><trkpt lat="44.9603046" lon="9.9111202"><ele>59.5</ele><time>2026-04-08T08:33:55.943Z</time></trkpt><trkpt lat="44.9604511" lon="9.9107728"><ele>61.0</ele><time>2026-04-08T08:33:56.943Z</time></trkpt><trkpt lat="44.9605982" lon="9.9104245"><ele>61.0</ele><time>2026-04-08T08:33:57.943Z</time></trkpt><trkpt lat="44.9607474" lon="9.9100774"><ele>61.0</ele><time>2026-04-08T08:33:58.943Z</time></trkpt><trkpt lat="44.9608935" lon="9.9097302"><ele>61.5</ele><time>2026-04-08T08:33:59.943Z</time></trkpt><trkpt lat="44.961042" lon="9.909382"><ele>62.0</ele><time>2026-04-08T08:34:00.943Z</time></trkpt><trkpt lat="44.9611928" lon="9.9090367"><ele>62.5</ele><time>2026-04-08T08:34:01.944Z</time></trkpt><trkpt lat="44.9613406" lon="9.9086913"><ele>63.0</ele><time>2026-04-08T08:34:02.944Z</time></trkpt><trkpt lat="44.9614928" lon="9.9083474"><ele>63.0</ele><time>2026-04-08T08:34:03.943Z</time></trkpt><trkpt lat="44.9616408" lon="9.907997"><ele>63.0</ele><time>2026-04-08T08:34:04.943Z</time></trkpt><trkpt lat="44.9617854" lon="9.9076492"><ele>62.0</ele><time>2026-04-08T08:34:05.943Z</time></trkpt><trkpt lat="44.9619294" lon="9.9073017"><ele>61.0</ele><time>2026-04-08T08:34:06.943Z</time></trkpt><trkpt lat="44.9620745" lon="9.9069522"><ele>61.0</ele><time>2026-04-08T08:34:07.944Z</time></trkpt><trkpt lat="44.9622245" lon="9.9066118"><ele>61.0</ele><time>2026-04-08T08:34:08.943Z</time></trkpt><trkpt lat="44.9623721" lon="9.9062673"><ele>61.0</ele><time>2026-04-08T08:34:09.943Z</time></trkpt><trkpt lat="44.9625209" lon="9.9059241"><ele>61.0</ele><time>2026-04-08T08:34:10.943Z</time></trkpt><trkpt lat="44.9626697" lon="9.905578"><ele>61.0</ele><time>2026-04-08T08:34:11.943Z</time></trkpt><trkpt lat="44.9628169" lon="9.9052312"><ele>61.0</ele><time>2026-04-08T08:34:12.943Z</time></trkpt><trkpt lat="44.9629614" lon="9.904879"><ele>61.0</ele><time>2026-04-08T08:34:13.943Z</time></trkpt><trkpt lat="44.9631079" lon="9.9045298"><ele>61.0</ele><time>2026-04-08T08:34:14.944Z</time></trkpt><trkpt lat="44.9632557" lon="9.9041807"><ele>60.0</ele><time>2026-04-08T08:34:15.943Z</time></trkpt><trkpt lat="44.9634037" lon="9.9038293"><ele>59.0</ele><time>2026-04-08T08:34:16.943Z</time></trkpt><trkpt lat="44.9635512" lon="9.9034792"><ele>59.5</ele><time>2026-04-08T08:34:17.943Z</time></trkpt><trkpt lat="44.9636986" lon="9.9031282"><ele>60.0</ele><time>2026-04-08T08:34:18.943Z</time></trkpt><trkpt lat="44.9638467" lon="9.9027784"><ele>60.0</ele><time>2026-04-08T08:34:19.943Z</time></trkpt><trkpt lat="44.963996" lon="9.9024319"><ele>60.0</ele><time>2026-04-08T08:34:20.944Z</time></trkpt><trkpt lat="44.9641436" lon="9.9020841"><ele>60.5</ele><time>2026-04-08T08:34:21.943Z</time></trkpt><trkpt lat="44.9642924" lon="9.9017378"><ele>61.0</ele><time>2026-04-08T08:34:22.943Z</time></trkpt><trkpt lat="44.9644399" lon="9.9013937"><ele>61.0</ele><time>2026-04-08T08:34:23.943Z</time></trkpt><trkpt lat="44.964584" lon="9.9010464"><ele>61.0</ele><time>2026-04-08T08:34:24.944Z</time></trkpt><trkpt lat="44.9647242" lon="9.9006954"><ele>61.0</ele><time>2026-04-08T08:34:25.943Z</time></trkpt><trkpt lat="44.9648658" lon="9.9003437"><ele>61.0</ele><time>2026-04-08T08:34:26.943Z</time></trkpt><trkpt lat="44.9650161" lon="9.8999804"><ele>60.5</ele><time>2026-04-08T08:34:27.943Z</time></trkpt><trkpt lat="44.9651728" lon="9.8996038"><ele>60.0</ele><time>2026-04-08T08:34:28.943Z</time></trkpt><trkpt lat="44.9653351" lon="9.8992155"><ele>59.5</ele><time>2026-04-08T08:34:29.944Z</time></trkpt><trkpt lat="44.9655034" lon="9.8988194"><ele>59.0</ele><time>2026-04-08T08:34:30.943Z</time></trkpt><trkpt lat="44.9656767" lon="9.8984118"><ele>58.5</ele><time>2026-04-08T08:34:31.943Z</time></trkpt><trkpt lat="44.9658663" lon="9.8979855"><ele>58.0</ele><time>2026-04-08T08:34:32.944Z</time></trkpt><trkpt lat="44.96607" lon="9.8975438"><ele>57.5</ele><time>2026-04-08T08:34:33.943Z</time></trkpt><trkpt lat="44.9662649" lon="9.8970824"><ele>57.0</ele><time>2026-04-08T08:34:34.944Z</time></trkpt><trkpt lat="44.9664535" lon="9.8965946"><ele>56.5</ele><time>2026-04-08T08:34:35.944Z</time></trkpt><trkpt lat="44.9666607" lon="9.8961041"><ele>56.0</ele><time>2026-04-08T08:34:36.944Z</time></trkpt><trkpt lat="44.9668846" lon="9.8956191"><ele>57.5</ele><time>2026-04-08T08:34:37.943Z</time></trkpt><trkpt lat="44.9670935" lon="9.8951468"><ele>59.0</ele><time>2026-04-08T08:34:38.943Z</time></trkpt><trkpt lat="44.9672912" lon="9.8946902"><ele>59.0</ele><time>2026-04-08T08:34:39.944Z</time></trkpt><trkpt lat="44.9674797" lon="9.8942565"><ele>59.0</ele><time>2026-04-08T08:34:40.944Z</time></trkpt><trkpt lat="44.9676561" lon="9.8938423"><ele>57.5</ele><time>2026-04-08T08:34:41.944Z</time></trkpt><trkpt lat="44.9678227" lon="9.8934508"><ele>56.0</ele><time>2026-04-08T08:34:42.943Z</time></trkpt><trkpt lat="44.9679825" lon="9.8930753"><ele>56.0</ele><time>2026-04-08T08:34:43.944Z</time></trkpt><trkpt lat="44.9681357" lon="9.8927187"><ele>56.0</ele><time>2026-04-08T08:34:44.943Z</time></trkpt><trkpt lat="44.9682826" lon="9.8923761"><ele>56.0</ele><time>2026-04-08T08:34:45.943Z</time></trkpt><trkpt lat="44.9684277" lon="9.8920337"><ele>56.0</ele><time>2026-04-08T08:34:46.943Z</time></trkpt><trkpt lat="44.9685735" lon="9.8916901"><ele>57.5</ele><time>2026-04-08T08:34:47.943Z</time></trkpt><trkpt lat="44.9687218" lon="9.8913451"><ele>59.0</ele><time>2026-04-08T08:34:48.943Z</time></trkpt><trkpt lat="44.9688711" lon="9.8909985"><ele>60.0</ele><time>2026-04-08T08:34:49.944Z</time></trkpt><trkpt lat="44.9690194" lon="9.8906488"><ele>61.0</ele><time>2026-04-08T08:34:50.944Z</time></trkpt><trkpt lat="44.9691683" lon="9.8902992"><ele>58.5</ele><time>2026-04-08T08:34:51.943Z</time></trkpt><trkpt lat="44.9693173" lon="9.8899501"><ele>56.0</ele><time>2026-04-08T08:34:52.943Z</time></trkpt><trkpt lat="44.9694672" lon="9.8895998"><ele>56.0</ele><time>2026-04-08T08:34:53.943Z</time></trkpt><trkpt lat="44.9696164" lon="9.8892495"><ele>56.0</ele><time>2026-04-08T08:34:54.943Z</time></trkpt><trkpt lat="44.9697651" lon="9.8888991"><ele>56.0</ele><time>2026-04-08T08:34:55.943Z</time></trkpt><trkpt lat="44.9699143" lon="9.8885502"><ele>56.0</ele><time>2026-04-08T08:34:56.943Z</time></trkpt><trkpt lat="44.9700636" lon="9.8882018"><ele>56.0</ele><time>2026-04-08T08:34:57.943Z</time></trkpt><trkpt lat="44.9702116" lon="9.8878557"><ele>56.0</ele><time>2026-04-08T08:34:58.943Z</time></trkpt><trkpt lat="44.9703597" lon="9.8875098"><ele>57.0</ele><time>2026-04-08T08:34:59.943Z</time></trkpt><trkpt lat="44.9705079" lon="9.887163"><ele>58.0</ele><time>2026-04-08T08:35:00.943Z</time></trkpt><trkpt lat="44.9706543" lon="9.8868197"><ele>58.0</ele><time>2026-04-08T08:35:01.943Z</time></trkpt><trkpt lat="44.9707996" lon="9.8864767"><ele>58.0</ele><time>2026-04-08T08:35:02.944Z</time></trkpt><trkpt lat="44.9709455" lon="9.8861323"><ele>58.0</ele><time>2026-04-08T08:35:03.943Z</time></trkpt><trkpt lat="44.9710892" lon="9.8857863"><ele>58.0</ele><time>2026-04-08T08:35:04.943Z</time></trkpt><trkpt lat="44.9712346" lon="9.8854449"><ele>58.0</ele><time>2026-04-08T08:35:05.943Z</time></trkpt><trkpt lat="44.9713798" lon="9.8851013"><ele>58.0</ele><time>2026-04-08T08:35:06.944Z</time></trkpt><trkpt lat="44.9715278" lon="9.8847557"><ele>57.0</ele><time>2026-04-08T08:35:07.944Z</time></trkpt><trkpt lat="44.9716763" lon="9.8844088"><ele>56.0</ele><time>2026-04-08T08:35:08.943Z</time></trkpt><trkpt lat="44.9718235" lon="9.8840595"><ele>56.0</ele><time>2026-04-08T08:35:09.943Z</time></trkpt><trkpt lat="44.9719705" lon="9.8837138"><ele>56.0</ele><time>2026-04-08T08:35:10.943Z</time></trkpt><trkpt lat="44.9721183" lon="9.8833698"><ele>56.5</ele><time>2026-04-08T08:35:11.943Z</time></trkpt><trkpt lat="44.9722651" lon="9.8830248"><ele>57.0</ele><time>2026-04-08T08:35:12.943Z</time></trkpt><trkpt lat="44.9724137" lon="9.8826788"><ele>57.5</ele><time>2026-04-08T08:35:13.944Z</time></trkpt><trkpt lat="44.9725628" lon="9.8823307"><ele>58.0</ele><time>2026-04-08T08:35:14.944Z</time></trkpt><trkpt lat="44.9727104" lon="9.8819855"><ele>57.0</ele><time>2026-04-08T08:35:15.944Z</time></trkpt><trkpt lat="44.972856" lon="9.8816381"><ele>56.0</ele><time>2026-04-08T08:35:16.943Z</time></trkpt><trkpt lat="44.9730036" lon="9.8812906"><ele>56.0</ele><time>2026-04-08T08:35:17.943Z</time></trkpt><trkpt lat="44.9731529" lon="9.8809435"><ele>56.0</ele><time>2026-04-08T08:35:18.944Z</time></trkpt><trkpt lat="44.9733018" lon="9.8805926"><ele>56.0</ele><time>2026-04-08T08:35:19.943Z</time></trkpt><trkpt lat="44.9734507" lon="9.8802408"><ele>56.0</ele><time>2026-04-08T08:35:20.943Z</time></trkpt><trkpt lat="44.973599" lon="9.8798898"><ele>56.0</ele><time>2026-04-08T08:35:21.943Z</time></trkpt><trkpt lat="44.9737463" lon="9.8795398"><ele>56.0</ele><time>2026-04-08T08:35:22.943Z</time></trkpt><trkpt lat="44.9738946" lon="9.8791942"><ele>56.5</ele><time>2026-04-08T08:35:23.944Z</time></trkpt><trkpt lat="44.9740407" lon="9.878845"><ele>57.0</ele><time>2026-04-08T08:35:24.943Z</time></trkpt><trkpt lat="44.9741889" lon="9.8784952"><ele>57.0</ele><time>2026-04-08T08:35:25.943Z</time></trkpt><trkpt lat="44.9743376" lon="9.8781467"><ele>57.0</ele><time>2026-04-08T08:35:26.943Z</time></trkpt><trkpt lat="44.9744835" lon="9.8778009"><ele>57.0</ele><time>2026-04-08T08:35:27.944Z</time></trkpt><trkpt lat="44.9746299" lon="9.8774574"><ele>57.0</ele><time>2026-04-08T08:35:28.943Z</time></trkpt><trkpt lat="44.9747777" lon="9.8771158"><ele>57.0</ele><time>2026-04-08T08:35:29.943Z</time></trkpt><trkpt lat="44.9749248" lon="9.8767781"><ele>57.0</ele><time>2026-04-08T08:35:30.943Z</time></trkpt><trkpt lat="44.9750736" lon="9.8764361"><ele>57.5</ele><time>2026-04-08T08:35:31.944Z</time></trkpt><trkpt lat="44.9752243" lon="9.8760961"><ele>58.0</ele><time>2026-04-08T08:35:32.943Z</time></trkpt><trkpt lat="44.9753743" lon="9.8757551"><ele>58.0</ele><time>2026-04-08T08:35:33.944Z</time></trkpt><trkpt lat="44.9755191" lon="9.875408"><ele>58.0</ele><time>2026-04-08T08:35:34.943Z</time></trkpt><trkpt lat="44.9756626" lon="9.8750601"><ele>58.5</ele><time>2026-04-08T08:35:35.944Z</time></trkpt><trkpt lat="44.9758078" lon="9.8747129"><ele>59.0</ele><time>2026-04-08T08:35:36.943Z</time></trkpt><trkpt lat="44.9759558" lon="9.8743639"><ele>57.5</ele><time>2026-04-08T08:35:37.943Z</time></trkpt><trkpt lat="44.9761029" lon="9.8740164"><ele>56.0</ele><time>2026-04-08T08:35:38.943Z</time></trkpt><trkpt lat="44.9762488" lon="9.8736686"><ele>57.5</ele><time>2026-04-08T08:35:39.943Z</time></trkpt><trkpt lat="44.9763968" lon="9.8733201"><ele>59.0</ele><time>2026-04-08T08:35:40.943Z</time></trkpt><trkpt lat="44.9765445" lon="9.8729704"><ele>58.5</ele><time>2026-04-08T08:35:41.943Z</time></trkpt><trkpt lat="44.9766913" lon="9.8726223"><ele>58.0</ele><time>2026-04-08T08:35:42.943Z</time></trkpt><trkpt lat="44.9768362" lon="9.8722731"><ele>58.0</ele><time>2026-04-08T08:35:43.943Z</time></trkpt><trkpt lat="44.9769826" lon="9.8719253"><ele>58.0</ele><time>2026-04-08T08:35:44.943Z</time></trkpt><trkpt lat="44.9771297" lon="9.8715796"><ele>58.0</ele><time>2026-04-08T08:35:45.943Z</time></trkpt><trkpt lat="44.9772796" lon="9.8712342"><ele>58.0</ele><time>2026-04-08T08:35:46.944Z</time></trkpt><trkpt lat="44.9774286" lon="9.8708896"><ele>55.0</ele><time>2026-04-08T08:35:47.944Z</time></trkpt><trkpt lat="44.9775777" lon="9.8705422"><ele>52.0</ele><time>2026-04-08T08:35:48.944Z</time></trkpt><trkpt lat="44.9777282" lon="9.8701988"><ele>53.0</ele><time>2026-04-08T08:35:49.943Z</time></trkpt><trkpt lat="44.9778763" lon="9.8698553"><ele>54.0</ele><time>2026-04-08T08:35:50.943Z</time></trkpt><trkpt lat="44.9780249" lon="9.8695088"><ele>54.5</ele><time>2026-04-08T08:35:51.943Z</time></trkpt><trkpt lat="44.9781729" lon="9.8691633"><ele>55.0</ele><time>2026-04-08T08:35:52.944Z</time></trkpt><trkpt lat="44.9783194" lon="9.8688179"><ele>54.0</ele><time>2026-04-08T08:35:53.944Z</time></trkpt><trkpt lat="44.9784668" lon="9.868472"><ele>53.0</ele><time>2026-04-08T08:35:54.943Z</time></trkpt><trkpt lat="44.9786158" lon="9.8681267"><ele>53.0</ele><time>2026-04-08T08:35:55.943Z</time></trkpt><trkpt lat="44.9787622" lon="9.8677827"><ele>53.0</ele><time>2026-04-08T08:35:56.943Z</time></trkpt><trkpt lat="44.9789097" lon="9.8674388"><ele>54.5</ele><time>2026-04-08T08:35:57.944Z</time></trkpt><trkpt lat="44.9790575" lon="9.8670903"><ele>56.0</ele><time>2026-04-08T08:35:58.943Z</time></trkpt><trkpt lat="44.979203" lon="9.8667428"><ele>56.0</ele><time>2026-04-08T08:35:59.944Z</time></trkpt><trkpt lat="44.9793507" lon="9.8663973"><ele>56.0</ele><time>2026-04-08T08:36:00.943Z</time></trkpt><trkpt lat="44.9794999" lon="9.8660502"><ele>56.5</ele><time>2026-04-08T08:36:01.943Z</time></trkpt><trkpt lat="44.9796499" lon="9.8657015"><ele>57.0</ele><time>2026-04-08T08:36:02.943Z</time></trkpt><trkpt lat="44.9797964" lon="9.8653531"><ele>57.0</ele><time>2026-04-08T08:36:03.944Z</time></trkpt><trkpt lat="44.9799424" lon="9.8650047"><ele>57.0</ele><time>2026-04-08T08:36:04.943Z</time></trkpt><trkpt lat="44.9800912" lon="9.8646552"><ele>56.5</ele><time>2026-04-08T08:36:05.944Z</time></trkpt><trkpt lat="44.9802404" lon="9.8643084"><ele>56.0</ele><time>2026-04-08T08:36:06.943Z</time></trkpt><trkpt lat="44.9803858" lon="9.8639607"><ele>57.0</ele><time>2026-04-08T08:36:07.943Z</time></trkpt><trkpt lat="44.9805325" lon="9.8636135"><ele>58.0</ele><time>2026-04-08T08:36:08.944Z</time></trkpt><trkpt lat="44.9806827" lon="9.8632704"><ele>57.0</ele><time>2026-04-08T08:36:09.943Z</time></trkpt><trkpt lat="44.9808287" lon="9.8629252"><ele>56.0</ele><time>2026-04-08T08:36:10.943Z</time></trkpt><trkpt lat="44.9809762" lon="9.8625772"><ele>56.0</ele><time>2026-04-08T08:36:11.943Z</time></trkpt><trkpt lat="44.9811226" lon="9.8622274"><ele>56.0</ele><time>2026-04-08T08:36:12.944Z</time></trkpt><trkpt lat="44.9812684" lon="9.8618808"><ele>56.0</ele><time>2026-04-08T08:36:13.943Z</time></trkpt><trkpt lat="44.9814155" lon="9.8615338"><ele>56.0</ele><time>2026-04-08T08:36:14.944Z</time></trkpt><trkpt lat="44.9815607" lon="9.8611889"><ele>55.5</ele><time>2026-04-08T08:36:15.943Z</time></trkpt><trkpt lat="44.9817091" lon="9.8608437"><ele>55.0</ele><time>2026-04-08T08:36:16.944Z</time></trkpt><trkpt lat="44.981858" lon="9.8604987"><ele>55.0</ele><time>2026-04-08T08:36:17.944Z</time></trkpt><trkpt lat="44.9820054" lon="9.8601512"><ele>55.0</ele><time>2026-04-08T08:36:18.943Z</time></trkpt><trkpt lat="44.9821508" lon="9.859804"><ele>55.5</ele><time>2026-04-08T08:36:19.943Z</time></trkpt><trkpt lat="44.9822976" lon="9.8594588"><ele>56.0</ele><time>2026-04-08T08:36:20.943Z</time></trkpt><trkpt lat="44.9824449" lon="9.8591144"><ele>55.5</ele><time>2026-04-08T08:36:21.943Z</time></trkpt><trkpt lat="44.9825925" lon="9.8587708"><ele>55.0</ele><time>2026-04-08T08:36:22.944Z</time></trkpt><trkpt lat="44.9827394" lon="9.8584259"><ele>56.0</ele><time>2026-04-08T08:36:23.943Z</time></trkpt><trkpt lat="44.9828856" lon="9.8580812"><ele>57.0</ele><time>2026-04-08T08:36:24.943Z</time></trkpt><trkpt lat="44.9830328" lon="9.8577392"><ele>57.0</ele><time>2026-04-08T08:36:25.943Z</time></trkpt><trkpt lat="44.9831802" lon="9.8573946"><ele>57.0</ele><time>2026-04-08T08:36:26.944Z</time></trkpt><trkpt lat="44.9833294" lon="9.8570522"><ele>55.5</ele><time>2026-04-08T08:36:27.943Z</time></trkpt><trkpt lat="44.983478" lon="9.856709"><ele>54.0</ele><time>2026-04-08T08:36:28.943Z</time></trkpt><trkpt lat="44.9836242" lon="9.85636"><ele>54.0</ele><time>2026-04-08T08:36:29.944Z</time></trkpt><trkpt lat="44.98377" lon="9.8560095"><ele>54.0</ele><time>2026-04-08T08:36:30.943Z</time></trkpt><trkpt lat="44.9839166" lon="9.855661"><ele>55.0</ele><time>2026-04-08T08:36:31.943Z</time></trkpt><trkpt lat="44.9840633" lon="9.8553126"><ele>56.0</ele><time>2026-04-08T08:36:32.943Z</time></trkpt><trkpt lat="44.9842121" lon="9.8549656"><ele>56.0</ele><time>2026-04-08T08:36:33.944Z</time></trkpt><trkpt lat="44.9843595" lon="9.8546172"><ele>56.0</ele><time>2026-04-08T08:36:34.943Z</time></trkpt><trkpt lat="44.9845079" lon="9.8542698"><ele>56.0</ele><time>2026-04-08T08:36:35.943Z</time></trkpt><trkpt lat="44.9846558" lon="9.8539193"><ele>56.0</ele><time>2026-04-08T08:36:36.943Z</time></trkpt><trkpt lat="44.9848028" lon="9.8535701"><ele>56.5</ele><time>2026-04-08T08:36:37.944Z</time></trkpt><trkpt lat="44.9849509" lon="9.8532217"><ele>57.0</ele><time>2026-04-08T08:36:38.943Z</time></trkpt><trkpt lat="44.9850972" lon="9.852874"><ele>56.5</ele><time>2026-04-08T08:36:39.943Z</time></trkpt><trkpt lat="44.9852443" lon="9.8525234"><ele>56.0</ele><time>2026-04-08T08:36:40.943Z</time></trkpt><trkpt lat="44.9853923" lon="9.8521774"><ele>56.0</ele><time>2026-04-08T08:36:41.943Z</time></trkpt><trkpt lat="44.9855395" lon="9.8518282"><ele>56.0</ele><time>2026-04-08T08:36:42.943Z</time></trkpt><trkpt lat="44.9856863" lon="9.8514815"><ele>56.0</ele><time>2026-04-08T08:36:43.944Z</time></trkpt><trkpt lat="44.9858318" lon="9.8511343"><ele>56.0</ele><time>2026-04-08T08:36:44.943Z</time></trkpt><trkpt lat="44.9859785" lon="9.8507909"><ele>55.5</ele><time>2026-04-08T08:36:45.943Z</time></trkpt><trkpt lat="44.986125" lon="9.8504435"><ele>55.0</ele><time>2026-04-08T08:36:46.943Z</time></trkpt><trkpt lat="44.9862737" lon="9.8500959"><ele>58.0</ele><time>2026-04-08T08:36:47.943Z</time></trkpt><trkpt lat="44.9864199" lon="9.8497495"><ele>61.0</ele><time>2026-04-08T08:36:48.943Z</time></trkpt><trkpt lat="44.9865678" lon="9.849403"><ele>58.5</ele><time>2026-04-08T08:36:49.943Z</time></trkpt><trkpt lat="44.9867136" lon="9.8490559"><ele>56.0</ele><time>2026-04-08T08:36:50.943Z</time></trkpt><trkpt lat="44.9868604" lon="9.8487066"><ele>56.0</ele><time>2026-04-08T08:36:51.944Z</time></trkpt><trkpt lat="44.9870083" lon="9.848362"><ele>56.0</ele><time>2026-04-08T08:36:52.944Z</time></trkpt><trkpt lat="44.9871557" lon="9.8480176"><ele>56.0</ele><time>2026-04-08T08:36:53.944Z</time></trkpt><trkpt lat="44.9873002" lon="9.8476712"><ele>56.0</ele><time>2026-04-08T08:36:54.943Z</time></trkpt><trkpt lat="44.987443" lon="9.8473271"><ele>55.5</ele><time>2026-04-08T08:36:55.943Z</time></trkpt><trkpt lat="44.9875888" lon="9.8469848"><ele>55.0</ele><time>2026-04-08T08:36:56.943Z</time></trkpt><trkpt lat="44.9877311" lon="9.8466376"><ele>56.0</ele><time>2026-04-08T08:36:57.943Z</time></trkpt><trkpt lat="44.9878723" lon="9.8462901"><ele>57.0</ele><time>2026-04-08T08:36:58.943Z</time></trkpt><trkpt lat="44.9880132" lon="9.8459395"><ele>57.5</ele><time>2026-04-08T08:36:59.943Z</time></trkpt><trkpt lat="44.9881525" lon="9.8455867"><ele>58.0</ele><time>2026-04-08T08:37:00.944Z</time></trkpt><trkpt lat="44.9882918" lon="9.8452331"><ele>56.0</ele><time>2026-04-08T08:37:01.943Z</time></trkpt><trkpt lat="44.9884317" lon="9.8448814"><ele>54.0</ele><time>2026-04-08T08:37:02.943Z</time></trkpt><trkpt lat="44.9885698" lon="9.8445288"><ele>55.5</ele><time>2026-04-08T08:37:03.944Z</time></trkpt><trkpt lat="44.9887079" lon="9.8441735"><ele>57.0</ele><time>2026-04-08T08:37:04.943Z</time></trkpt><trkpt lat="44.9888469" lon="9.8438167"><ele>57.5</ele><time>2026-04-08T08:37:05.943Z</time></trkpt><trkpt lat="44.9889834" lon="9.8434582"><ele>58.0</ele><time>2026-04-08T08:37:06.944Z</time></trkpt><trkpt lat="44.9891223" lon="9.8431016"><ele>59.0</ele><time>2026-04-08T08:37:07.943Z</time></trkpt><trkpt lat="44.989262" lon="9.8427448"><ele>60.0</ele><time>2026-04-08T08:37:08.943Z</time></trkpt><trkpt lat="44.9894001" lon="9.8423859"><ele>58.5</ele><time>2026-04-08T08:37:09.943Z</time></trkpt><trkpt lat="44.9895396" lon="9.8420295"><ele>57.0</ele><time>2026-04-08T08:37:10.943Z</time></trkpt><trkpt lat="44.9896764" lon="9.8416692"><ele>57.0</ele><time>2026-04-08T08:37:11.944Z</time></trkpt><trkpt lat="44.9898147" lon="9.8413114"><ele>57.0</ele><time>2026-04-08T08:37:12.943Z</time></trkpt><trkpt lat="44.9899511" lon="9.8409551"><ele>56.5</ele><time>2026-04-08T08:37:13.943Z</time></trkpt><trkpt lat="44.9900863" lon="9.8406008"><ele>56.0</ele><time>2026-04-08T08:37:14.943Z</time></trkpt><trkpt lat="44.9902262" lon="9.8402474"><ele>56.5</ele><time>2026-04-08T08:37:15.943Z</time></trkpt><trkpt lat="44.9903665" lon="9.8398955"><ele>57.0</ele><time>2026-04-08T08:37:16.943Z</time></trkpt><trkpt lat="44.9905036" lon="9.8395424"><ele>56.5</ele><time>2026-04-08T08:37:17.944Z</time></trkpt><trkpt lat="44.9906408" lon="9.839189"><ele>56.0</ele><time>2026-04-08T08:37:18.943Z</time></trkpt><trkpt lat="44.9907769" lon="9.8388413"><ele>56.0</ele><time>2026-04-08T08:37:19.944Z</time></trkpt><trkpt lat="44.9909141" lon="9.8384893"><ele>56.0</ele><time>2026-04-08T08:37:20.943Z</time></trkpt><trkpt lat="44.9910504" lon="9.8381345"><ele>56.0</ele><time>2026-04-08T08:37:21.943Z</time></trkpt><trkpt lat="44.9911892" lon="9.8377819"><ele>56.0</ele><time>2026-04-08T08:37:22.944Z</time></trkpt><trkpt lat="44.9913261" lon="9.8374267"><ele>56.5</ele><time>2026-04-08T08:37:23.943Z</time></trkpt><trkpt lat="44.9914627" lon="9.8370726"><ele>57.0</ele><time>2026-04-08T08:37:24.943Z</time></trkpt><trkpt lat="44.9915995" lon="9.8367175"><ele>56.5</ele><time>2026-04-08T08:37:25.944Z</time></trkpt><trkpt lat="44.9917369" lon="9.8363639"><ele>56.0</ele><time>2026-04-08T08:37:26.943Z</time></trkpt><trkpt lat="44.9918772" lon="9.8360102"><ele>56.0</ele><time>2026-04-08T08:37:27.944Z</time></trkpt><trkpt lat="44.9920161" lon="9.8356575"><ele>56.0</ele><time>2026-04-08T08:37:28.944Z</time></trkpt><trkpt lat="44.992154" lon="9.8353031"><ele>56.0</ele><time>2026-04-08T08:37:29.943Z</time></trkpt><trkpt lat="44.9922927" lon="9.8349469"><ele>56.0</ele><time>2026-04-08T08:37:30.944Z</time></trkpt><trkpt lat="44.9924321" lon="9.8345899"><ele>56.5</ele><time>2026-04-08T08:37:31.944Z</time></trkpt><trkpt lat="44.9925684" lon="9.8342324"><ele>57.0</ele><time>2026-04-08T08:37:32.943Z</time></trkpt><trkpt lat="44.9927075" lon="9.8338776"><ele>57.0</ele><time>2026-04-08T08:37:33.944Z</time></trkpt><trkpt lat="44.9928466" lon="9.8335204"><ele>57.0</ele><time>2026-04-08T08:37:34.943Z</time></trkpt><trkpt lat="44.9929859" lon="9.8331615"><ele>57.0</ele><time>2026-04-08T08:37:35.944Z</time></trkpt><trkpt lat="44.993123" lon="9.8328039"><ele>57.0</ele><time>2026-04-08T08:37:36.943Z</time></trkpt><trkpt lat="44.9932647" lon="9.832445"><ele>57.0</ele><time>2026-04-08T08:37:37.943Z</time></trkpt><trkpt lat="44.9934063" lon="9.8320898"><ele>57.0</ele><time>2026-04-08T08:37:38.943Z</time></trkpt><trkpt lat="44.993545" lon="9.8317354"><ele>57.0</ele><time>2026-04-08T08:37:39.944Z</time></trkpt><trkpt lat="44.9936801" lon="9.8313856"><ele>57.0</ele><time>2026-04-08T08:37:40.944Z</time></trkpt><trkpt lat="44.9938152" lon="9.8310316"><ele>56.0</ele><time>2026-04-08T08:37:41.943Z</time></trkpt><trkpt lat="44.9939483" lon="9.8306783"><ele>55.0</ele><time>2026-04-08T08:37:42.943Z</time></trkpt><trkpt lat="44.9940834" lon="9.8303232"><ele>55.5</ele><time>2026-04-08T08:37:43.944Z</time></trkpt><trkpt lat="44.994221" lon="9.8299736"><ele>56.0</ele><time>2026-04-08T08:37:44.943Z</time></trkpt><trkpt lat="44.9943579" lon="9.8296204"><ele>57.5</ele><time>2026-04-08T08:37:45.944Z</time></trkpt><trkpt lat="44.9944949" lon="9.8292684"><ele>59.0</ele><time>2026-04-08T08:37:46.943Z</time></trkpt><trkpt lat="44.9946329" lon="9.8289154"><ele>59.0</ele><time>2026-04-08T08:37:47.943Z</time></trkpt><trkpt lat="44.99477" lon="9.8285619"><ele>59.0</ele><time>2026-04-08T08:37:48.944Z</time></trkpt><trkpt lat="44.9949089" lon="9.8282103"><ele>58.0</ele><time>2026-04-08T08:37:49.943Z</time></trkpt><trkpt lat="44.9950474" lon="9.8278561"><ele>57.0</ele><time>2026-04-08T08:37:50.943Z</time></trkpt><trkpt lat="44.9951848" lon="9.8275006"><ele>57.0</ele><time>2026-04-08T08:37:51.943Z</time></trkpt><trkpt lat="44.9953209" lon="9.8271436"><ele>57.0</ele><time>2026-04-08T08:37:52.944Z</time></trkpt><trkpt lat="44.9954602" lon="9.8267868"><ele>56.0</ele><time>2026-04-08T08:37:53.943Z</time></trkpt><trkpt lat="44.9955989" lon="9.8264355"><ele>55.0</ele><time>2026-04-08T08:37:54.943Z</time></trkpt><trkpt lat="44.9957392" lon="9.8260804"><ele>54.5</ele><time>2026-04-08T08:37:55.943Z</time></trkpt><trkpt lat="44.9958805" lon="9.8257279"><ele>54.0</ele><time>2026-04-08T08:37:56.943Z</time></trkpt><trkpt lat="44.996019" lon="9.8253719"><ele>55.5</ele><time>2026-04-08T08:37:57.943Z</time></trkpt><trkpt lat="44.9961556" lon="9.8250154"><ele>57.0</ele><time>2026-04-08T08:37:58.943Z</time></trkpt><trkpt lat="44.9962913" lon="9.8246606"><ele>58.5</ele><time>2026-04-08T08:37:59.943Z</time></trkpt><trkpt lat="44.9964273" lon="9.8243093"><ele>60.0</ele><time>2026-04-08T08:38:00.944Z</time></trkpt><trkpt lat="44.9965643" lon="9.8239522"><ele>59.5</ele><time>2026-04-08T08:38:01.943Z</time></trkpt><trkpt lat="44.9967" lon="9.8235968"><ele>59.0</ele><time>2026-04-08T08:38:02.943Z</time></trkpt><trkpt lat="44.9968344" lon="9.8232398"><ele>58.5</ele><time>2026-04-08T08:38:03.943Z</time></trkpt><trkpt lat="44.996971" lon="9.8228839"><ele>58.0</ele><time>2026-04-08T08:38:04.943Z</time></trkpt><trkpt lat="44.9971087" lon="9.8225246"><ele>58.0</ele><time>2026-04-08T08:38:05.943Z</time></trkpt><trkpt lat="44.997248" lon="9.8221683"><ele>58.0</ele><time>2026-04-08T08:38:06.944Z</time></trkpt><trkpt lat="44.9973869" lon="9.8218138"><ele>58.0</ele><time>2026-04-08T08:38:07.943Z</time></trkpt><trkpt lat="44.9975262" lon="9.8214584"><ele>58.0</ele><time>2026-04-08T08:38:08.944Z</time></trkpt><trkpt lat="44.9976666" lon="9.821103"><ele>58.0</ele><time>2026-04-08T08:38:09.944Z</time></trkpt><trkpt lat="44.9978038" lon="9.8207492"><ele>58.0</ele><time>2026-04-08T08:38:10.943Z</time></trkpt><trkpt lat="44.9979439" lon="9.8203952"><ele>58.5</ele><time>2026-04-08T08:38:11.944Z</time></trkpt><trkpt lat="44.9980833" lon="9.8200388"><ele>59.0</ele><time>2026-04-08T08:38:12.943Z</time></trkpt><trkpt lat="44.9982221" lon="9.8196822"><ele>58.5</ele><time>2026-04-08T08:38:13.943Z</time></trkpt><trkpt lat="44.9983605" lon="9.8193279"><ele>58.0</ele><time>2026-04-08T08:38:14.943Z</time></trkpt><trkpt lat="44.9984986" lon="9.8189732"><ele>58.0</ele><time>2026-04-08T08:38:15.944Z</time></trkpt><trkpt lat="44.9986359" lon="9.8186196"><ele>58.0</ele><time>2026-04-08T08:38:16.944Z</time></trkpt><trkpt lat="44.9987731" lon="9.8182652"><ele>58.0</ele><time>2026-04-08T08:38:17.943Z</time></trkpt><trkpt lat="44.9989099" lon="9.8179087"><ele>58.0</ele><time>2026-04-08T08:38:18.944Z</time></trkpt><trkpt lat="44.9990466" lon="9.8175525"><ele>58.0</ele><time>2026-04-08T08:38:19.944Z</time></trkpt><trkpt lat="44.9991823" lon="9.8171952"><ele>58.0</ele><time>2026-04-08T08:38:20.943Z</time></trkpt><trkpt lat="44.9993171" lon="9.8168379"><ele>57.0</ele><time>2026-04-08T08:38:21.943Z</time></trkpt><trkpt lat="44.999455" lon="9.8164839"><ele>56.0</ele><time>2026-04-08T08:38:22.944Z</time></trkpt><trkpt lat="44.9995937" lon="9.8161296"><ele>56.5</ele><time>2026-04-08T08:38:23.943Z</time></trkpt><trkpt lat="44.999733" lon="9.8157787"><ele>57.0</ele><time>2026-04-08T08:38:24.943Z</time></trkpt><trkpt lat="44.9998726" lon="9.8154278"><ele>57.5</ele><time>2026-04-08T08:38:25.943Z</time></trkpt><trkpt lat="45.0000105" lon="9.8150762"><ele>58.0</ele><time>2026-04-08T08:38:26.944Z</time></trkpt><trkpt lat="45.0001497" lon="9.8147246"><ele>58.0</ele><time>2026-04-08T08:38:27.943Z</time></trkpt><trkpt lat="45.0002875" lon="9.814372"><ele>58.0</ele><time>2026-04-08T08:38:28.944Z</time></trkpt><trkpt lat="45.0004245" lon="9.8140191"><ele>58.0</ele><time>2026-04-08T08:38:29.944Z</time></trkpt><trkpt lat="45.0005607" lon="9.8136657"><ele>58.0</ele><time>2026-04-08T08:38:30.943Z</time></trkpt><trkpt lat="45.0006967" lon="9.8133117"><ele>57.5</ele><time>2026-04-08T08:38:31.943Z</time></trkpt><trkpt lat="45.0008311" lon="9.8129568"><ele>57.0</ele><time>2026-04-08T08:38:32.943Z</time></trkpt><trkpt lat="45.0009655" lon="9.8126"><ele>56.0</ele><time>2026-04-08T08:38:33.943Z</time></trkpt><trkpt lat="45.0011026" lon="9.8122446"><ele>55.0</ele><time>2026-04-08T08:38:34.943Z</time></trkpt><trkpt lat="45.0012409" lon="9.8118908"><ele>55.5</ele><time>2026-04-08T08:38:35.944Z</time></trkpt><trkpt lat="45.0013792" lon="9.8115354"><ele>56.0</ele><time>2026-04-08T08:38:36.943Z</time></trkpt><trkpt lat="45.001518" lon="9.8111832"><ele>56.0</ele><time>2026-04-08T08:38:37.944Z</time></trkpt><trkpt lat="45.0016578" lon="9.8108296"><ele>56.0</ele><time>2026-04-08T08:38:38.943Z</time></trkpt><trkpt lat="45.0017938" lon="9.8104731"><ele>55.5</ele><time>2026-04-08T08:38:39.944Z</time></trkpt><trkpt lat="45.0019312" lon="9.8101189"><ele>55.0</ele><time>2026-04-08T08:38:40.943Z</time></trkpt><trkpt lat="45.0020688" lon="9.8097664"><ele>55.0</ele><time>2026-04-08T08:38:41.944Z</time></trkpt><trkpt lat="45.0022057" lon="9.8094141"><ele>55.0</ele><time>2026-04-08T08:38:42.944Z</time></trkpt><trkpt lat="45.0023428" lon="9.8090599"><ele>55.5</ele><time>2026-04-08T08:38:43.943Z</time></trkpt><trkpt lat="45.0024801" lon="9.8087056"><ele>56.0</ele><time>2026-04-08T08:38:44.943Z</time></trkpt><trkpt lat="45.0026169" lon="9.8083503"><ele>56.0</ele><time>2026-04-08T08:38:45.943Z</time></trkpt><trkpt lat="45.0027552" lon="9.8079961"><ele>56.0</ele><time>2026-04-08T08:38:46.943Z</time></trkpt><trkpt lat="45.0028953" lon="9.8076409"><ele>56.0</ele><time>2026-04-08T08:38:47.943Z</time></trkpt><trkpt lat="45.0030334" lon="9.8072857"><ele>56.0</ele><time>2026-04-08T08:38:48.944Z</time></trkpt><trkpt lat="45.0031699" lon="9.8069304"><ele>55.5</ele><time>2026-04-08T08:38:49.943Z</time></trkpt><trkpt lat="45.0033059" lon="9.8065733"><ele>55.0</ele><time>2026-04-08T08:38:50.944Z</time></trkpt><trkpt lat="45.0034422" lon="9.8062167"><ele>55.0</ele><time>2026-04-08T08:38:51.944Z</time></trkpt><trkpt lat="45.0035759" lon="9.8058608"><ele>55.0</ele><time>2026-04-08T08:38:52.943Z</time></trkpt><trkpt lat="45.0037104" lon="9.8055052"><ele>55.5</ele><time>2026-04-08T08:38:53.944Z</time></trkpt><trkpt lat="45.0038443" lon="9.8051498"><ele>56.0</ele><time>2026-04-08T08:38:54.943Z</time></trkpt><trkpt lat="45.0039829" lon="9.8047967"><ele>56.0</ele><time>2026-04-08T08:38:55.943Z</time></trkpt><trkpt lat="45.0041214" lon="9.8044415"><ele>56.0</ele><time>2026-04-08T08:38:56.943Z</time></trkpt><trkpt lat="45.0042606" lon="9.8040881"><ele>56.0</ele><time>2026-04-08T08:38:57.943Z</time></trkpt><trkpt lat="45.0044006" lon="9.8037353"><ele>56.0</ele><time>2026-04-08T08:38:58.943Z</time></trkpt><trkpt lat="45.0045413" lon="9.8033801"><ele>56.5</ele><time>2026-04-08T08:38:59.944Z</time></trkpt><trkpt lat="45.0046808" lon="9.8030219"><ele>57.0</ele><time>2026-04-08T08:39:00.943Z</time></trkpt><trkpt lat="45.0048219" lon="9.8026663"><ele>58.0</ele><time>2026-04-08T08:39:01.944Z</time></trkpt><trkpt lat="45.0049618" lon="9.8023111"><ele>59.0</ele><time>2026-04-08T08:39:02.943Z</time></trkpt><trkpt lat="45.0051032" lon="9.8019557"><ele>58.5</ele><time>2026-04-08T08:39:03.943Z</time></trkpt><trkpt lat="45.0052414" lon="9.8015999"><ele>58.0</ele><time>2026-04-08T08:39:04.943Z</time></trkpt><trkpt lat="45.0053822" lon="9.8012468"><ele>60.0</ele><time>2026-04-08T08:39:05.943Z</time></trkpt><trkpt lat="45.0055232" lon="9.8008955"><ele>62.0</ele><time>2026-04-08T08:39:06.943Z</time></trkpt><trkpt lat="45.0056653" lon="9.8005425"><ele>62.0</ele><time>2026-04-08T08:39:07.943Z</time></trkpt><trkpt lat="45.0058092" lon="9.8001929"><ele>62.0</ele><time>2026-04-08T08:39:08.944Z</time></trkpt><trkpt lat="45.0059573" lon="9.7998448"><ele>61.0</ele><time>2026-04-08T08:39:09.943Z</time></trkpt><trkpt lat="45.0061072" lon="9.7994985"><ele>60.0</ele><time>2026-04-08T08:39:10.943Z</time></trkpt><trkpt lat="45.0062601" lon="9.7991578"><ele>60.0</ele><time>2026-04-08T08:39:11.943Z</time></trkpt><trkpt lat="45.0064147" lon="9.7988232"><ele>60.0</ele><time>2026-04-08T08:39:12.943Z</time></trkpt><trkpt lat="45.0065707" lon="9.7984857"><ele>58.5</ele><time>2026-04-08T08:39:13.943Z</time></trkpt><trkpt lat="45.0067253" lon="9.7981471"><ele>57.0</ele><time>2026-04-08T08:39:14.944Z</time></trkpt><trkpt lat="45.0068828" lon="9.7978094"><ele>59.0</ele><time>2026-04-08T08:39:15.944Z</time></trkpt><trkpt lat="45.0070429" lon="9.797473"><ele>61.0</ele><time>2026-04-08T08:39:16.943Z</time></trkpt><trkpt lat="45.0072049" lon="9.79714"><ele>61.0</ele><time>2026-04-08T08:39:17.943Z</time></trkpt><trkpt lat="45.0073675" lon="9.7968059"><ele>61.0</ele><time>2026-04-08T08:39:18.943Z</time></trkpt><trkpt lat="45.0075344" lon="9.7964771"><ele>60.0</ele><time>2026-04-08T08:39:19.943Z</time></trkpt><trkpt lat="45.0076982" lon="9.7961476"><ele>59.0</ele><time>2026-04-08T08:39:20.943Z</time></trkpt><trkpt lat="45.0078619" lon="9.7958141"><ele>59.0</ele><time>2026-04-08T08:39:21.943Z</time></trkpt><trkpt lat="45.008031" lon="9.7954853"><ele>59.0</ele><time>2026-04-08T08:39:22.943Z</time></trkpt><trkpt lat="45.0081998" lon="9.795158"><ele>58.0</ele><time>2026-04-08T08:39:23.944Z</time></trkpt><trkpt lat="45.0083719" lon="9.7948347"><ele>57.0</ele><time>2026-04-08T08:39:24.943Z</time></trkpt><trkpt lat="45.0085482" lon="9.794515"><ele>58.5</ele><time>2026-04-08T08:39:25.944Z</time></trkpt><trkpt lat="45.0087254" lon="9.7941963"><ele>60.0</ele><time>2026-04-08T08:39:26.943Z</time></trkpt><trkpt lat="45.0089003" lon="9.7938765"><ele>60.0</ele><time>2026-04-08T08:39:27.943Z</time></trkpt><trkpt lat="45.0090772" lon="9.7935568"><ele>60.0</ele><time>2026-04-08T08:39:28.944Z</time></trkpt><trkpt lat="45.0092521" lon="9.7932405"><ele>59.5</ele><time>2026-04-08T08:39:29.943Z</time></trkpt><trkpt lat="45.0094313" lon="9.7929273"><ele>59.0</ele><time>2026-04-08T08:39:30.944Z</time></trkpt><trkpt lat="45.0096127" lon="9.7926144"><ele>60.5</ele><time>2026-04-08T08:39:31.944Z</time></trkpt><trkpt lat="45.0097939" lon="9.7923029"><ele>62.0</ele><time>2026-04-08T08:39:32.943Z</time></trkpt><trkpt lat="45.0099769" lon="9.7919927"><ele>61.0</ele><time>2026-04-08T08:39:33.943Z</time></trkpt><trkpt lat="45.0101609" lon="9.7916835"><ele>60.0</ele><time>2026-04-08T08:39:34.944Z</time></trkpt><trkpt lat="45.010347" lon="9.7913764"><ele>60.0</ele><time>2026-04-08T08:39:35.943Z</time></trkpt><trkpt lat="45.0105337" lon="9.7910696"><ele>60.0</ele><time>2026-04-08T08:39:36.943Z</time></trkpt><trkpt lat="45.0107227" lon="9.790769"><ele>59.0</ele><time>2026-04-08T08:39:37.943Z</time></trkpt><trkpt lat="45.0109115" lon="9.7904657"><ele>58.0</ele><time>2026-04-08T08:39:38.944Z</time></trkpt><trkpt lat="45.011102" lon="9.7901631"><ele>58.0</ele><time>2026-04-08T08:39:39.944Z</time></trkpt><trkpt lat="45.0112964" lon="9.789861"><ele>58.0</ele><time>2026-04-08T08:39:40.944Z</time></trkpt><trkpt lat="45.0114915" lon="9.789564"><ele>58.0</ele><time>2026-04-08T08:39:41.943Z</time></trkpt><trkpt lat="45.0116893" lon="9.7892671"><ele>58.0</ele><time>2026-04-08T08:39:42.943Z</time></trkpt><trkpt lat="45.011889" lon="9.7889742"><ele>58.0</ele><time>2026-04-08T08:39:43.943Z</time></trkpt><trkpt lat="45.0120886" lon="9.7886814"><ele>58.0</ele><time>2026-04-08T08:39:44.943Z</time></trkpt><trkpt lat="45.0122892" lon="9.78839"><ele>57.5</ele><time>2026-04-08T08:39:45.943Z</time></trkpt><trkpt lat="45.0124916" lon="9.7881015"><ele>57.0</ele><time>2026-04-08T08:39:46.943Z</time></trkpt><trkpt lat="45.0126955" lon="9.7878172"><ele>57.5</ele><time>2026-04-08T08:39:47.944Z</time></trkpt><trkpt lat="45.012901" lon="9.7875326"><ele>58.0</ele><time>2026-04-08T08:39:48.943Z</time></trkpt><trkpt lat="45.0131077" lon="9.7872499"><ele>58.0</ele><time>2026-04-08T08:39:49.943Z</time></trkpt><trkpt lat="45.0133138" lon="9.7869629"><ele>58.0</ele><time>2026-04-08T08:39:50.944Z</time></trkpt><trkpt lat="45.0135225" lon="9.7866811"><ele>57.5</ele><time>2026-04-08T08:39:51.944Z</time></trkpt><trkpt lat="45.0137281" lon="9.7863981"><ele>57.0</ele><time>2026-04-08T08:39:52.943Z</time></trkpt><trkpt lat="45.0139356" lon="9.786116"><ele>57.5</ele><time>2026-04-08T08:39:53.944Z</time></trkpt><trkpt lat="45.0141441" lon="9.7858327"><ele>58.0</ele><time>2026-04-08T08:39:54.944Z</time></trkpt><trkpt lat="45.0143521" lon="9.7855534"><ele>58.0</ele><time>2026-04-08T08:39:55.944Z</time></trkpt><trkpt lat="45.0145621" lon="9.7852815"><ele>58.0</ele><time>2026-04-08T08:39:56.943Z</time></trkpt><trkpt lat="45.0147744" lon="9.7850111"><ele>59.0</ele><time>2026-04-08T08:39:57.944Z</time></trkpt><trkpt lat="45.0149902" lon="9.7847453"><ele>60.0</ele><time>2026-04-08T08:39:58.943Z</time></trkpt><trkpt lat="45.0152084" lon="9.7844825"><ele>59.5</ele><time>2026-04-08T08:39:59.943Z</time></trkpt><trkpt lat="45.0154274" lon="9.7842189"><ele>59.0</ele><time>2026-04-08T08:40:00.943Z</time></trkpt><trkpt lat="45.0156456" lon="9.7839602"><ele>58.0</ele><time>2026-04-08T08:40:01.943Z</time></trkpt><trkpt lat="45.0158629" lon="9.7837063"><ele>57.0</ele><time>2026-04-08T08:40:02.943Z</time></trkpt><trkpt lat="45.016082" lon="9.7834574"><ele>56.0</ele><time>2026-04-08T08:40:03.943Z</time></trkpt><trkpt lat="45.0163056" lon="9.7832151"><ele>55.0</ele><time>2026-04-08T08:40:04.944Z</time></trkpt><trkpt lat="45.0165331" lon="9.7829763"><ele>56.0</ele><time>2026-04-08T08:40:05.943Z</time></trkpt><trkpt lat="45.0167618" lon="9.7827352"><ele>57.0</ele><time>2026-04-08T08:40:06.943Z</time></trkpt><trkpt lat="45.0169887" lon="9.7824934"><ele>57.0</ele><time>2026-04-08T08:40:07.943Z</time></trkpt><trkpt lat="45.0172183" lon="9.7822463"><ele>57.0</ele><time>2026-04-08T08:40:08.943Z</time></trkpt><trkpt lat="45.0174463" lon="9.7820071"><ele>57.0</ele><time>2026-04-08T08:40:09.943Z</time></trkpt><trkpt lat="45.0176758" lon="9.7817625"><ele>57.0</ele><time>2026-04-08T08:40:10.943Z</time></trkpt><trkpt lat="45.0179053" lon="9.7815202"><ele>57.0</ele><time>2026-04-08T08:40:11.943Z</time></trkpt><trkpt lat="45.0181361" lon="9.7812791"><ele>57.0</ele><time>2026-04-08T08:40:12.943Z</time></trkpt><trkpt lat="45.0183716" lon="9.781045"><ele>57.0</ele><time>2026-04-08T08:40:13.943Z</time></trkpt><trkpt lat="45.0186068" lon="9.7808135"><ele>57.0</ele><time>2026-04-08T08:40:14.943Z</time></trkpt><trkpt lat="45.0188431" lon="9.7805816"><ele>57.0</ele><time>2026-04-08T08:40:15.944Z</time></trkpt><trkpt lat="45.0190811" lon="9.7803494"><ele>57.0</ele><time>2026-04-08T08:40:16.943Z</time></trkpt><trkpt lat="45.0193203" lon="9.7801224"><ele>57.0</ele><time>2026-04-08T08:40:17.943Z</time></trkpt><trkpt lat="45.0195573" lon="9.7798938"><ele>57.0</ele><time>2026-04-08T08:40:18.943Z</time></trkpt><trkpt lat="45.0197916" lon="9.7796627"><ele>57.0</ele><time>2026-04-08T08:40:19.943Z</time></trkpt><trkpt lat="45.0200255" lon="9.7794308"><ele>57.0</ele><time>2026-04-08T08:40:20.943Z</time></trkpt><trkpt lat="45.0202589" lon="9.7792011"><ele>58.0</ele><time>2026-04-08T08:40:21.943Z</time></trkpt><trkpt lat="45.0204922" lon="9.7789689"><ele>59.0</ele><time>2026-04-08T08:40:22.944Z</time></trkpt><trkpt lat="45.0207283" lon="9.7787347"><ele>58.5</ele><time>2026-04-08T08:40:23.943Z</time></trkpt><trkpt lat="45.0209638" lon="9.7784995"><ele>58.0</ele><time>2026-04-08T08:40:24.943Z</time></trkpt><trkpt lat="45.0211998" lon="9.7782692"><ele>58.0</ele><time>2026-04-08T08:40:25.943Z</time></trkpt><trkpt lat="45.0214378" lon="9.7780407"><ele>58.0</ele><time>2026-04-08T08:40:26.943Z</time></trkpt><trkpt lat="45.0216761" lon="9.7778112"><ele>57.5</ele><time>2026-04-08T08:40:27.943Z</time></trkpt><trkpt lat="45.021913" lon="9.777582"><ele>57.0</ele><time>2026-04-08T08:40:28.943Z</time></trkpt><trkpt lat="45.0221506" lon="9.7773552"><ele>57.0</ele><time>2026-04-08T08:40:29.943Z</time></trkpt><trkpt lat="45.0223786" lon="9.7771409"><ele>57.0</ele><time>2026-04-08T08:40:30.943Z</time></trkpt><trkpt lat="45.0226031" lon="9.7769403"><ele>57.0</ele><time>2026-04-08T08:40:31.944Z</time></trkpt><trkpt lat="45.0228211" lon="9.7767402"><ele>57.0</ele><time>2026-04-08T08:40:32.943Z</time></trkpt><trkpt lat="45.0230345" lon="9.7765367"><ele>57.0</ele><time>2026-04-08T08:40:33.943Z</time></trkpt><trkpt lat="45.0232443" lon="9.7763358"><ele>57.0</ele><time>2026-04-08T08:40:34.943Z</time></trkpt><trkpt lat="45.0234479" lon="9.7761366"><ele>55.5</ele><time>2026-04-08T08:40:35.943Z</time></trkpt><trkpt lat="45.0236441" lon="9.775937"><ele>54.0</ele><time>2026-04-08T08:40:36.943Z</time></trkpt><trkpt lat="45.0238384" lon="9.7757403"><ele>54.0</ele><time>2026-04-08T08:40:37.944Z</time></trkpt><trkpt lat="45.0240301" lon="9.7755474"><ele>54.0</ele><time>2026-04-08T08:40:38.943Z</time></trkpt><trkpt lat="45.0242124" lon="9.7753653"><ele>54.0</ele><time>2026-04-08T08:40:39.943Z</time></trkpt><trkpt lat="45.0243899" lon="9.7751911"><ele>54.0</ele><time>2026-04-08T08:40:40.943Z</time></trkpt><trkpt lat="45.0245636" lon="9.7750152"><ele>54.0</ele><time>2026-04-08T08:40:41.944Z</time></trkpt><trkpt lat="45.0247392" lon="9.7748421"><ele>54.33333333333333</ele><time>2026-04-08T08:40:42.944Z</time></trkpt><trkpt lat="45.0249176" lon="9.7746665"><ele>54.666666666666664</ele><time>2026-04-08T08:40:43.943Z</time></trkpt><trkpt lat="45.0250978" lon="9.7744914"><ele>55.0</ele><time>2026-04-08T08:40:44.943Z</time></trkpt><trkpt lat="45.0252806" lon="9.7743147"><ele>55.0</ele><time>2026-04-08T08:40:45.944Z</time></trkpt><trkpt lat="45.0254627" lon="9.7741316"><ele>55.0</ele><time>2026-04-08T08:40:46.943Z</time></trkpt><trkpt lat="45.0256484" lon="9.7739461"><ele>55.5</ele><time>2026-04-08T08:40:47.943Z</time></trkpt><trkpt lat="45.0258346" lon="9.7737625"><ele>56.0</ele><time>2026-04-08T08:40:48.943Z</time></trkpt><trkpt lat="45.026024" lon="9.7735791"><ele>54.0</ele><time>2026-04-08T08:40:49.943Z</time></trkpt><trkpt lat="45.0262181" lon="9.7733931"><ele>52.0</ele><time>2026-04-08T08:40:50.943Z</time></trkpt><trkpt lat="45.0264183" lon="9.7732012"><ele>52.0</ele><time>2026-04-08T08:40:51.943Z</time></trkpt><trkpt lat="45.0266203" lon="9.7730041"><ele>52.0</ele><time>2026-04-08T08:40:52.944Z</time></trkpt><trkpt lat="45.0268258" lon="9.7728029"><ele>53.0</ele><time>2026-04-08T08:40:53.943Z</time></trkpt><trkpt lat="45.0270322" lon="9.7725974"><ele>54.0</ele><time>2026-04-08T08:40:54.943Z</time></trkpt><trkpt lat="45.0272446" lon="9.7723819"><ele>54.0</ele><time>2026-04-08T08:40:55.943Z</time></trkpt><trkpt lat="45.0274678" lon="9.7721557"><ele>54.0</ele><time>2026-04-08T08:40:56.943Z</time></trkpt><trkpt lat="45.0276999" lon="9.7719245"><ele>53.5</ele><time>2026-04-08T08:40:57.944Z</time></trkpt><trkpt lat="45.0279376" lon="9.7716872"><ele>53.0</ele><time>2026-04-08T08:40:58.943Z</time></trkpt><trkpt lat="45.0281746" lon="9.7714446"><ele>54.0</ele><time>2026-04-08T08:40:59.944Z</time></trkpt><trkpt lat="45.0284136" lon="9.7712026"><ele>55.0</ele><time>2026-04-08T08:41:00.944Z</time></trkpt><trkpt lat="45.0286528" lon="9.7709691"><ele>55.0</ele><time>2026-04-08T08:41:01.944Z</time></trkpt><trkpt lat="45.028891" lon="9.7707352"><ele>55.0</ele><time>2026-04-08T08:41:02.943Z</time></trkpt><trkpt lat="45.0291277" lon="9.7705032"><ele>54.5</ele><time>2026-04-08T08:41:03.943Z</time></trkpt><trkpt lat="45.02936" lon="9.7702695"><ele>54.0</ele><time>2026-04-08T08:41:04.944Z</time></trkpt><trkpt lat="45.0295925" lon="9.7700347"><ele>54.0</ele><time>2026-04-08T08:41:05.944Z</time></trkpt><trkpt lat="45.0298234" lon="9.7698031"><ele>54.0</ele><time>2026-04-08T08:41:06.943Z</time></trkpt><trkpt lat="45.0300537" lon="9.7695761"><ele>54.0</ele><time>2026-04-08T08:41:07.943Z</time></trkpt><trkpt lat="45.030282" lon="9.7693443"><ele>54.0</ele><time>2026-04-08T08:41:08.943Z</time></trkpt><trkpt lat="45.0305097" lon="9.7691148"><ele>54.0</ele><time>2026-04-08T08:41:09.943Z</time></trkpt><trkpt lat="45.0307369" lon="9.7688802"><ele>54.0</ele><time>2026-04-08T08:41:10.944Z</time></trkpt><trkpt lat="45.0309648" lon="9.768648"><ele>54.0</ele><time>2026-04-08T08:41:11.943Z</time></trkpt><trkpt lat="45.0311978" lon="9.7684174"><ele>54.0</ele><time>2026-04-08T08:41:12.943Z</time></trkpt><trkpt lat="45.0314311" lon="9.768184"><ele>53.5</ele><time>2026-04-08T08:41:13.943Z</time></trkpt><trkpt lat="45.0316648" lon="9.7679496"><ele>53.0</ele><time>2026-04-08T08:41:14.944Z</time></trkpt><trkpt lat="45.0319038" lon="9.7677204"><ele>53.0</ele><time>2026-04-08T08:41:15.943Z</time></trkpt><trkpt lat="45.0321414" lon="9.7674885"><ele>53.0</ele><time>2026-04-08T08:41:16.943Z</time></trkpt><trkpt lat="45.0323781" lon="9.7672522"><ele>53.0</ele><time>2026-04-08T08:41:17.943Z</time></trkpt><trkpt lat="45.0326156" lon="9.7670161"><ele>53.0</ele><time>2026-04-08T08:41:18.944Z</time></trkpt><trkpt lat="45.0328518" lon="9.7667793"><ele>53.0</ele><time>2026-04-08T08:41:19.944Z</time></trkpt><trkpt lat="45.0330886" lon="9.766547"><ele>53.0</ele><time>2026-04-08T08:41:20.943Z</time></trkpt><trkpt lat="45.0333252" lon="9.7663149"><ele>54.0</ele><time>2026-04-08T08:41:21.944Z</time></trkpt><trkpt lat="45.0335623" lon="9.766084"><ele>55.0</ele><time>2026-04-08T08:41:22.943Z</time></trkpt><trkpt lat="45.0337999" lon="9.7658546"><ele>55.0</ele><time>2026-04-08T08:41:23.944Z</time></trkpt><trkpt lat="45.0340373" lon="9.7656234"><ele>55.0</ele><time>2026-04-08T08:41:24.943Z</time></trkpt><trkpt lat="45.0342746" lon="9.7653912"><ele>54.5</ele><time>2026-04-08T08:41:25.943Z</time></trkpt><trkpt lat="45.0345083" lon="9.7651594"><ele>54.0</ele><time>2026-04-08T08:41:26.944Z</time></trkpt><trkpt lat="45.0347426" lon="9.7649261"><ele>54.0</ele><time>2026-04-08T08:41:27.943Z</time></trkpt><trkpt lat="45.0349768" lon="9.7646944"><ele>54.0</ele><time>2026-04-08T08:41:28.944Z</time></trkpt><trkpt lat="45.0352109" lon="9.7644645"><ele>53.5</ele><time>2026-04-08T08:41:29.943Z</time></trkpt><trkpt lat="45.0354484" lon="9.7642404"><ele>53.0</ele><time>2026-04-08T08:41:30.944Z</time></trkpt><trkpt lat="45.0356827" lon="9.764009"><ele>53.0</ele><time>2026-04-08T08:41:31.943Z</time></trkpt><trkpt lat="45.0359196" lon="9.7637783"><ele>53.0</ele><time>2026-04-08T08:41:32.944Z</time></trkpt><trkpt lat="45.0361556" lon="9.7635441"><ele>52.0</ele><time>2026-04-08T08:41:33.943Z</time></trkpt><trkpt lat="45.0363901" lon="9.7633106"><ele>51.0</ele><time>2026-04-08T08:41:34.943Z</time></trkpt><trkpt lat="45.0366276" lon="9.7630765"><ele>51.0</ele><time>2026-04-08T08:41:35.944Z</time></trkpt><trkpt lat="45.0368626" lon="9.7628444"><ele>51.0</ele><time>2026-04-08T08:41:36.944Z</time></trkpt><trkpt lat="45.0370979" lon="9.7626125"><ele>50.5</ele><time>2026-04-08T08:41:37.943Z</time></trkpt><trkpt lat="45.0373325" lon="9.7623781"><ele>50.0</ele><time>2026-04-08T08:41:38.944Z</time></trkpt><trkpt lat="45.0375696" lon="9.7621464"><ele>50.0</ele><time>2026-04-08T08:41:39.943Z</time></trkpt><trkpt lat="45.0378043" lon="9.7619171"><ele>50.0</ele><time>2026-04-08T08:41:40.944Z</time></trkpt><trkpt lat="45.0380382" lon="9.7616871"><ele>50.0</ele><time>2026-04-08T08:41:41.943Z</time></trkpt><trkpt lat="45.038272" lon="9.7614586"><ele>50.0</ele><time>2026-04-08T08:41:42.943Z</time></trkpt><trkpt lat="45.0385059" lon="9.7612285"><ele>49.5</ele><time>2026-04-08T08:41:43.943Z</time></trkpt><trkpt lat="45.0387397" lon="9.7609944"><ele>49.0</ele><time>2026-04-08T08:41:44.944Z</time></trkpt><trkpt lat="45.038972" lon="9.7607583"><ele>49.0</ele><time>2026-04-08T08:41:45.943Z</time></trkpt><trkpt lat="45.0392049" lon="9.7605265"><ele>49.0</ele><time>2026-04-08T08:41:46.943Z</time></trkpt><trkpt lat="45.0394379" lon="9.7602939"><ele>49.0</ele><time>2026-04-08T08:41:47.943Z</time></trkpt><trkpt lat="45.0396716" lon="9.7600664"><ele>49.0</ele><time>2026-04-08T08:41:48.944Z</time></trkpt><trkpt lat="45.0399042" lon="9.7598362"><ele>47.0</ele><time>2026-04-08T08:41:49.943Z</time></trkpt><trkpt lat="45.0401382" lon="9.759601"><ele>45.0</ele><time>2026-04-08T08:41:50.944Z</time></trkpt><trkpt lat="45.0403724" lon="9.7593686"><ele>45.5</ele><time>2026-04-08T08:41:51.943Z</time></trkpt><trkpt lat="45.0406067" lon="9.7591316"><ele>46.0</ele><time>2026-04-08T08:41:52.943Z</time></trkpt><trkpt lat="45.0408429" lon="9.7588992"><ele>45.5</ele><time>2026-04-08T08:41:53.944Z</time></trkpt><trkpt lat="45.0410786" lon="9.7586684"><ele>45.0</ele><time>2026-04-08T08:41:54.944Z</time></trkpt><trkpt lat="45.0413139" lon="9.7584385"><ele>45.0</ele><time>2026-04-08T08:41:55.943Z</time></trkpt><trkpt lat="45.0415519" lon="9.7582074"><ele>45.0</ele><time>2026-04-08T08:41:56.943Z</time></trkpt><trkpt lat="45.0417866" lon="9.7579761"><ele>45.5</ele><time>2026-04-08T08:41:57.943Z</time></trkpt><trkpt lat="45.0420236" lon="9.7577459"><ele>46.0</ele><time>2026-04-08T08:41:58.943Z</time></trkpt><trkpt lat="45.0422575" lon="9.757514"><ele>46.0</ele><time>2026-04-08T08:41:59.943Z</time></trkpt><trkpt lat="45.0424925" lon="9.7572819"><ele>46.0</ele><time>2026-04-08T08:42:00.943Z</time></trkpt><trkpt lat="45.0427284" lon="9.7570531"><ele>44.5</ele><time>2026-04-08T08:42:01.943Z</time></trkpt><trkpt lat="45.0429639" lon="9.7568258"><ele>43.0</ele><time>2026-04-08T08:42:02.944Z</time></trkpt><trkpt lat="45.0431993" lon="9.7565985"><ele>44.0</ele><time>2026-04-08T08:42:03.943Z</time></trkpt><trkpt lat="45.0434303" lon="9.7563661"><ele>45.0</ele><time>2026-04-08T08:42:04.943Z</time></trkpt><trkpt lat="45.0436634" lon="9.756134"><ele>45.0</ele><time>2026-04-08T08:42:05.944Z</time></trkpt><trkpt lat="45.0438958" lon="9.7559025"><ele>45.0</ele><time>2026-04-08T08:42:06.943Z</time></trkpt><trkpt lat="45.0441316" lon="9.7556705"><ele>45.0</ele><time>2026-04-08T08:42:07.943Z</time></trkpt><trkpt lat="45.044368" lon="9.7554388"><ele>45.0</ele><time>2026-04-08T08:42:08.943Z</time></trkpt><trkpt lat="45.0446044" lon="9.7552081"><ele>45.5</ele><time>2026-04-08T08:42:09.944Z</time></trkpt><trkpt lat="45.0448381" lon="9.7549776"><ele>46.0</ele><time>2026-04-08T08:42:10.943Z</time></trkpt><trkpt lat="45.04507" lon="9.7547463"><ele>46.0</ele><time>2026-04-08T08:42:11.943Z</time></trkpt><trkpt lat="45.0453035" lon="9.7545146"><ele>46.0</ele><time>2026-04-08T08:42:12.944Z</time></trkpt><trkpt lat="45.0455387" lon="9.7542832"><ele>45.5</ele><time>2026-04-08T08:42:13.943Z</time></trkpt><trkpt lat="45.0457726" lon="9.754053"><ele>45.0</ele><time>2026-04-08T08:42:14.944Z</time></trkpt><trkpt lat="45.0460079" lon="9.7538206"><ele>45.0</ele><time>2026-04-08T08:42:15.943Z</time></trkpt><trkpt lat="45.0462431" lon="9.7535899"><ele>45.0</ele><time>2026-04-08T08:42:16.943Z</time></trkpt><trkpt lat="45.0464766" lon="9.7533549"><ele>45.0</ele><time>2026-04-08T08:42:17.944Z</time></trkpt><trkpt lat="45.0467109" lon="9.753119"><ele>45.0</ele><time>2026-04-08T08:42:18.943Z</time></trkpt><trkpt lat="45.0469451" lon="9.7528858"><ele>45.0</ele><time>2026-04-08T08:42:19.943Z</time></trkpt><trkpt lat="45.0471793" lon="9.7526504"><ele>45.0</ele><time>2026-04-08T08:42:20.943Z</time></trkpt><trkpt lat="45.0474176" lon="9.7524218"><ele>45.5</ele><time>2026-04-08T08:42:21.943Z</time></trkpt><trkpt lat="45.0476539" lon="9.7521919"><ele>46.0</ele><time>2026-04-08T08:42:22.944Z</time></trkpt><trkpt lat="45.0478909" lon="9.7519658"><ele>46.0</ele><time>2026-04-08T08:42:23.943Z</time></trkpt><trkpt lat="45.0481299" lon="9.7517439"><ele>46.0</ele><time>2026-04-08T08:42:24.944Z</time></trkpt><trkpt lat="45.0483721" lon="9.7515263"><ele>47.0</ele><time>2026-04-08T08:42:25.944Z</time></trkpt><trkpt lat="45.048613" lon="9.7513037"><ele>48.0</ele><time>2026-04-08T08:42:26.944Z</time></trkpt><trkpt lat="45.0488516" lon="9.7510742"><ele>46.5</ele><time>2026-04-08T08:42:27.943Z</time></trkpt><trkpt lat="45.0490876" lon="9.7508431"><ele>45.0</ele><time>2026-04-08T08:42:28.943Z</time></trkpt><trkpt lat="45.0493257" lon="9.7506146"><ele>45.0</ele><time>2026-04-08T08:42:29.944Z</time></trkpt><trkpt lat="45.049564" lon="9.750384"><ele>45.0</ele><time>2026-04-08T08:42:30.943Z</time></trkpt><trkpt lat="45.0498003" lon="9.7501497"><ele>45.5</ele><time>2026-04-08T08:42:31.943Z</time></trkpt><trkpt lat="45.0500341" lon="9.7499153"><ele>46.0</ele><time>2026-04-08T08:42:32.944Z</time></trkpt><trkpt lat="45.0502671" lon="9.7496814"><ele>46.0</ele><time>2026-04-08T08:42:33.943Z</time></trkpt><trkpt lat="45.0505032" lon="9.749446"><ele>46.0</ele><time>2026-04-08T08:42:34.944Z</time></trkpt><trkpt lat="45.0507384" lon="9.7492171"><ele>46.5</ele><time>2026-04-08T08:42:35.943Z</time></trkpt><trkpt lat="45.0509731" lon="9.748983"><ele>47.0</ele><time>2026-04-08T08:42:36.944Z</time></trkpt><trkpt lat="45.0512056" lon="9.7487482"><ele>47.0</ele><time>2026-04-08T08:42:37.944Z</time></trkpt><trkpt lat="45.0514396" lon="9.748515"><ele>47.0</ele><time>2026-04-08T08:42:38.943Z</time></trkpt><trkpt lat="45.0516755" lon="9.7482848"><ele>47.0</ele><time>2026-04-08T08:42:39.944Z</time></trkpt><trkpt lat="45.0519099" lon="9.748056"><ele>47.0</ele><time>2026-04-08T08:42:40.943Z</time></trkpt><trkpt lat="45.0521504" lon="9.7478296"><ele>46.5</ele><time>2026-04-08T08:42:41.943Z</time></trkpt><trkpt lat="45.0523884" lon="9.7475953"><ele>46.0</ele><time>2026-04-08T08:42:42.944Z</time></trkpt><trkpt lat="45.0526224" lon="9.747361"><ele>47.0</ele><time>2026-04-08T08:42:43.943Z</time></trkpt><trkpt lat="45.0528552" lon="9.7471304"><ele>48.0</ele><time>2026-04-08T08:42:44.944Z</time></trkpt><trkpt lat="45.0530894" lon="9.7469002"><ele>47.5</ele><time>2026-04-08T08:42:45.943Z</time></trkpt><trkpt lat="45.0533257" lon="9.7466682"><ele>47.0</ele><time>2026-04-08T08:42:46.944Z</time></trkpt><trkpt lat="45.0535597" lon="9.746433"><ele>47.0</ele><time>2026-04-08T08:42:47.943Z</time></trkpt><trkpt lat="45.0537928" lon="9.7461925"><ele>47.0</ele><time>2026-04-08T08:42:48.943Z</time></trkpt><trkpt lat="45.0540223" lon="9.7459455"><ele>46.5</ele><time>2026-04-08T08:42:49.943Z</time></trkpt><trkpt lat="45.0542511" lon="9.7457002"><ele>46.0</ele><time>2026-04-08T08:42:50.943Z</time></trkpt><trkpt lat="45.0544827" lon="9.7454572"><ele>46.0</ele><time>2026-04-08T08:42:51.943Z</time></trkpt><trkpt lat="45.0547183" lon="9.7452213"><ele>46.0</ele><time>2026-04-08T08:42:52.943Z</time></trkpt><trkpt lat="45.0549544" lon="9.7449857"><ele>46.0</ele><time>2026-04-08T08:42:53.943Z</time></trkpt><trkpt lat="45.0551952" lon="9.744752"><ele>46.0</ele><time>2026-04-08T08:42:54.943Z</time></trkpt><trkpt lat="45.0554281" lon="9.7445157"><ele>46.0</ele><time>2026-04-08T08:42:55.944Z</time></trkpt><trkpt lat="45.0556624" lon="9.7442798"><ele>46.0</ele><time>2026-04-08T08:42:56.943Z</time></trkpt><trkpt lat="45.0558959" lon="9.7440467"><ele>46.0</ele><time>2026-04-08T08:42:57.943Z</time></trkpt><trkpt lat="45.0561321" lon="9.7438141"><ele>46.0</ele><time>2026-04-08T08:42:58.943Z</time></trkpt><trkpt lat="45.0563682" lon="9.743586"><ele>45.5</ele><time>2026-04-08T08:42:59.943Z</time></trkpt><trkpt lat="45.0566068" lon="9.743359"><ele>45.0</ele><time>2026-04-08T08:43:00.943Z</time></trkpt><trkpt lat="45.0568439" lon="9.743132"><ele>45.0</ele><time>2026-04-08T08:43:01.944Z</time></trkpt><trkpt lat="45.0570785" lon="9.7429016"><ele>45.0</ele><time>2026-04-08T08:43:02.943Z</time></trkpt><trkpt lat="45.0573114" lon="9.7426728"><ele>46.5</ele><time>2026-04-08T08:43:03.944Z</time></trkpt><trkpt lat="45.057543" lon="9.7424434"><ele>48.0</ele><time>2026-04-08T08:43:04.943Z</time></trkpt><trkpt lat="45.0577769" lon="9.7422153"><ele>48.0</ele><time>2026-04-08T08:43:05.944Z</time></trkpt><trkpt lat="45.0580084" lon="9.7419838"><ele>48.0</ele><time>2026-04-08T08:43:06.943Z</time></trkpt><trkpt lat="45.0582383" lon="9.7417496"><ele>47.0</ele><time>2026-04-08T08:43:07.943Z</time></trkpt><trkpt lat="45.0584662" lon="9.7415139"><ele>46.0</ele><time>2026-04-08T08:43:08.944Z</time></trkpt><trkpt lat="45.0586988" lon="9.741283"><ele>46.0</ele><time>2026-04-08T08:43:09.943Z</time></trkpt><trkpt lat="45.0589307" lon="9.7410509"><ele>46.0</ele><time>2026-04-08T08:43:10.943Z</time></trkpt><trkpt lat="45.0591665" lon="9.7408219"><ele>46.0</ele><time>2026-04-08T08:43:11.944Z</time></trkpt><trkpt lat="45.0594035" lon="9.7405981"><ele>46.0</ele><time>2026-04-08T08:43:12.943Z</time></trkpt><trkpt lat="45.0596424" lon="9.7403768"><ele>46.5</ele><time>2026-04-08T08:43:13.943Z</time></trkpt><trkpt lat="45.0598809" lon="9.740159"><ele>47.0</ele><time>2026-04-08T08:43:14.943Z</time></trkpt><trkpt lat="45.0601203" lon="9.7399411"><ele>47.0</ele><time>2026-04-08T08:43:15.944Z</time></trkpt><trkpt lat="45.0603622" lon="9.7397183"><ele>47.0</ele><time>2026-04-08T08:43:16.943Z</time></trkpt><trkpt lat="45.0606037" lon="9.7394937"><ele>49.5</ele><time>2026-04-08T08:43:17.943Z</time></trkpt><trkpt lat="45.0608419" lon="9.7392664"><ele>52.0</ele><time>2026-04-08T08:43:18.943Z</time></trkpt><trkpt lat="45.0610789" lon="9.7390345"><ele>52.0</ele><time>2026-04-08T08:43:19.943Z</time></trkpt><trkpt lat="45.0613159" lon="9.7388022"><ele>52.0</ele><time>2026-04-08T08:43:20.944Z</time></trkpt><trkpt lat="45.061555" lon="9.738573"><ele>53.5</ele><time>2026-04-08T08:43:21.943Z</time></trkpt><trkpt lat="45.061799" lon="9.7383482"><ele>55.0</ele><time>2026-04-08T08:43:22.943Z</time></trkpt><trkpt lat="45.0620403" lon="9.738122"><ele>55.0</ele><time>2026-04-08T08:43:23.943Z</time></trkpt><trkpt lat="45.0622819" lon="9.7378924"><ele>55.0</ele><time>2026-04-08T08:43:24.943Z</time></trkpt><trkpt lat="45.0625218" lon="9.7376648"><ele>53.5</ele><time>2026-04-08T08:43:25.943Z</time></trkpt><trkpt lat="45.0627586" lon="9.7374336"><ele>52.0</ele><time>2026-04-08T08:43:26.943Z</time></trkpt><trkpt lat="45.0629948" lon="9.7371998"><ele>52.0</ele><time>2026-04-08T08:43:27.943Z</time></trkpt><trkpt lat="45.0632289" lon="9.7369637"><ele>52.0</ele><time>2026-04-08T08:43:28.944Z</time></trkpt><trkpt lat="45.0634614" lon="9.7367284"><ele>50.5</ele><time>2026-04-08T08:43:29.943Z</time></trkpt><trkpt lat="45.0636944" lon="9.7364951"><ele>49.0</ele><time>2026-04-08T08:43:30.943Z</time></trkpt><trkpt lat="45.0639258" lon="9.7362633"><ele>48.5</ele><time>2026-04-08T08:43:31.944Z</time></trkpt><trkpt lat="45.0641597" lon="9.7360317"><ele>48.0</ele><time>2026-04-08T08:43:32.943Z</time></trkpt><trkpt lat="45.0643929" lon="9.7358006"><ele>48.0</ele><time>2026-04-08T08:43:33.943Z</time></trkpt><trkpt lat="45.0646263" lon="9.7355695"><ele>48.0</ele><time>2026-04-08T08:43:34.943Z</time></trkpt><trkpt lat="45.0648614" lon="9.7353378"><ele>44.5</ele><time>2026-04-08T08:43:35.943Z</time></trkpt><trkpt lat="45.0650957" lon="9.7351089"><ele>41.0</ele><time>2026-04-08T08:43:36.943Z</time></trkpt><trkpt lat="45.0653288" lon="9.7348824"><ele>41.0</ele><time>2026-04-08T08:43:37.943Z</time></trkpt><trkpt lat="45.065566" lon="9.7346504"><ele>41.0</ele><time>2026-04-08T08:43:38.943Z</time></trkpt><trkpt lat="45.0657999" lon="9.7344184"><ele>41.0</ele><time>2026-04-08T08:43:39.943Z</time></trkpt><trkpt lat="45.0660339" lon="9.734183"><ele>41.0</ele><time>2026-04-08T08:43:40.943Z</time></trkpt><trkpt lat="45.0662667" lon="9.7339495"><ele>41.0</ele><time>2026-04-08T08:43:41.944Z</time></trkpt><trkpt lat="45.0665009" lon="9.733715"><ele>41.0</ele><time>2026-04-08T08:43:42.943Z</time></trkpt><trkpt lat="45.0667375" lon="9.7334835"><ele>42.0</ele><time>2026-04-08T08:43:43.943Z</time></trkpt><trkpt lat="45.0669742" lon="9.7332527"><ele>43.0</ele><time>2026-04-08T08:43:44.943Z</time></trkpt><trkpt lat="45.0672089" lon="9.7330197"><ele>43.0</ele><time>2026-04-08T08:43:45.943Z</time></trkpt><trkpt lat="45.0674414" lon="9.7327849"><ele>43.0</ele><time>2026-04-08T08:43:46.943Z</time></trkpt><trkpt lat="45.0676736" lon="9.7325538"><ele>47.0</ele><time>2026-04-08T08:43:47.944Z</time></trkpt><trkpt lat="45.0679094" lon="9.7323203"><ele>51.0</ele><time>2026-04-08T08:43:48.944Z</time></trkpt><trkpt lat="45.0681453" lon="9.7320872"><ele>49.5</ele><time>2026-04-08T08:43:49.944Z</time></trkpt><trkpt lat="45.0683812" lon="9.731857"><ele>48.0</ele><time>2026-04-08T08:43:50.943Z</time></trkpt><trkpt lat="45.0686163" lon="9.7316254"><ele>48.0</ele><time>2026-04-08T08:43:51.943Z</time></trkpt><trkpt lat="45.068852" lon="9.7313925"><ele>48.0</ele><time>2026-04-08T08:43:52.943Z</time></trkpt><trkpt lat="45.0690897" lon="9.7311602"><ele>48.0</ele><time>2026-04-08T08:43:53.944Z</time></trkpt><trkpt lat="45.0693245" lon="9.7309253"><ele>48.0</ele><time>2026-04-08T08:43:54.943Z</time></trkpt><trkpt lat="45.0695632" lon="9.73069"><ele>48.0</ele><time>2026-04-08T08:43:55.943Z</time></trkpt><trkpt lat="45.069799" lon="9.7304585"><ele>48.0</ele><time>2026-04-08T08:43:56.943Z</time></trkpt><trkpt lat="45.0700361" lon="9.7302283"><ele>47.5</ele><time>2026-04-08T08:43:57.943Z</time></trkpt><trkpt lat="45.070275" lon="9.7299975"><ele>47.0</ele><time>2026-04-08T08:43:58.943Z</time></trkpt><trkpt lat="45.0705129" lon="9.7297675"><ele>47.0</ele><time>2026-04-08T08:43:59.943Z</time></trkpt><trkpt lat="45.0707484" lon="9.7295369"><ele>47.0</ele><time>2026-04-08T08:44:00.943Z</time></trkpt><trkpt lat="45.0709842" lon="9.7293041"><ele>48.0</ele><time>2026-04-08T08:44:01.943Z</time></trkpt><trkpt lat="45.0712203" lon="9.7290688"><ele>49.0</ele><time>2026-04-08T08:44:02.943Z</time></trkpt><trkpt lat="45.0714508" lon="9.7288357"><ele>49.0</ele><time>2026-04-08T08:44:03.944Z</time></trkpt><trkpt lat="45.0716826" lon="9.7285999"><ele>49.0</ele><time>2026-04-08T08:44:04.943Z</time></trkpt><trkpt lat="45.0719157" lon="9.7283643"><ele>49.5</ele><time>2026-04-08T08:44:05.943Z</time></trkpt><trkpt lat="45.072146" lon="9.7281261"><ele>50.0</ele><time>2026-04-08T08:44:06.943Z</time></trkpt><trkpt lat="45.0723762" lon="9.7278826"><ele>49.5</ele><time>2026-04-08T08:44:07.943Z</time></trkpt><trkpt lat="45.0726053" lon="9.7276387"><ele>49.0</ele><time>2026-04-08T08:44:08.943Z</time></trkpt><trkpt lat="45.0728343" lon="9.7273912"><ele>49.0</ele><time>2026-04-08T08:44:09.943Z</time></trkpt><trkpt lat="45.0730654" lon="9.7271479"><ele>49.0</ele><time>2026-04-08T08:44:10.943Z</time></trkpt><trkpt lat="45.0732985" lon="9.7269097"><ele>48.0</ele><time>2026-04-08T08:44:11.943Z</time></trkpt><trkpt lat="45.0735352" lon="9.7266743"><ele>47.0</ele><time>2026-04-08T08:44:12.943Z</time></trkpt><trkpt lat="45.0737728" lon="9.7264421"><ele>47.0</ele><time>2026-04-08T08:44:13.943Z</time></trkpt><trkpt lat="45.0740073" lon="9.7262135"><ele>47.0</ele><time>2026-04-08T08:44:14.943Z</time></trkpt><trkpt lat="45.0742443" lon="9.7259848"><ele>48.0</ele><time>2026-04-08T08:44:15.944Z</time></trkpt><trkpt lat="45.074477" lon="9.7257557"><ele>49.0</ele><time>2026-04-08T08:44:16.943Z</time></trkpt><trkpt lat="45.0747091" lon="9.7255272"><ele>48.5</ele><time>2026-04-08T08:44:17.943Z</time></trkpt><trkpt lat="45.0749402" lon="9.725295"><ele>48.0</ele><time>2026-04-08T08:44:18.943Z</time></trkpt><trkpt lat="45.0751735" lon="9.7250649"><ele>48.0</ele><time>2026-04-08T08:44:19.943Z</time></trkpt><trkpt lat="45.0754067" lon="9.7248326"><ele>48.0</ele><time>2026-04-08T08:44:20.943Z</time></trkpt><trkpt lat="45.0756402" lon="9.7245993"><ele>47.5</ele><time>2026-04-08T08:44:21.943Z</time></trkpt><trkpt lat="45.0758721" lon="9.7243679"><ele>47.0</ele><time>2026-04-08T08:44:22.943Z</time></trkpt><trkpt lat="45.0761066" lon="9.724134"><ele>47.0</ele><time>2026-04-08T08:44:23.943Z</time></trkpt><trkpt lat="45.0763395" lon="9.7238991"><ele>47.0</ele><time>2026-04-08T08:44:24.943Z</time></trkpt><trkpt lat="45.0765758" lon="9.7236654"><ele>46.5</ele><time>2026-04-08T08:44:25.943Z</time></trkpt><trkpt lat="45.0768141" lon="9.7234319"><ele>46.0</ele><time>2026-04-08T08:44:26.943Z</time></trkpt><trkpt lat="45.0770504" lon="9.7232008"><ele>46.0</ele><time>2026-04-08T08:44:27.943Z</time></trkpt><trkpt lat="45.0772862" lon="9.722963"><ele>46.0</ele><time>2026-04-08T08:44:28.944Z</time></trkpt><trkpt lat="45.0775206" lon="9.7227198"><ele>46.5</ele><time>2026-04-08T08:44:29.943Z</time></trkpt><trkpt lat="45.0777514" lon="9.7224727"><ele>47.0</ele><time>2026-04-08T08:44:30.943Z</time></trkpt><trkpt lat="45.0779812" lon="9.7222299"><ele>47.0</ele><time>2026-04-08T08:44:31.944Z</time></trkpt><trkpt lat="45.0782122" lon="9.7219927"><ele>47.0</ele><time>2026-04-08T08:44:32.943Z</time></trkpt><trkpt lat="45.0784432" lon="9.7217525"><ele>47.0</ele><time>2026-04-08T08:44:33.943Z</time></trkpt><trkpt lat="45.0786703" lon="9.7215095"><ele>47.0</ele><time>2026-04-08T08:44:34.943Z</time></trkpt><trkpt lat="45.0788985" lon="9.7212689"><ele>47.5</ele><time>2026-04-08T08:44:35.943Z</time></trkpt><trkpt lat="45.0791266" lon="9.7210341"><ele>48.0</ele><time>2026-04-08T08:44:36.943Z</time></trkpt><trkpt lat="45.0793561" lon="9.7207976"><ele>48.0</ele><time>2026-04-08T08:44:37.943Z</time></trkpt><trkpt lat="45.0795823" lon="9.7205588"><ele>48.0</ele><time>2026-04-08T08:44:38.943Z</time></trkpt><trkpt lat="45.0798054" lon="9.7203197"><ele>47.5</ele><time>2026-04-08T08:44:39.943Z</time></trkpt><trkpt lat="45.0800323" lon="9.7200828"><ele>47.0</ele><time>2026-04-08T08:44:40.944Z</time></trkpt><trkpt lat="45.0802639" lon="9.7198484"><ele>47.0</ele><time>2026-04-08T08:44:41.943Z</time></trkpt><trkpt lat="45.0804949" lon="9.7196158"><ele>47.0</ele><time>2026-04-08T08:44:42.944Z</time></trkpt><trkpt lat="45.0807276" lon="9.7193779"><ele>47.0</ele><time>2026-04-08T08:44:43.943Z</time></trkpt><trkpt lat="45.0809576" lon="9.7191369"><ele>47.0</ele><time>2026-04-08T08:44:44.944Z</time></trkpt><trkpt lat="45.0811871" lon="9.7188909"><ele>47.0</ele><time>2026-04-08T08:44:45.943Z</time></trkpt><trkpt lat="45.0814181" lon="9.7186436"><ele>47.0</ele><time>2026-04-08T08:44:46.943Z</time></trkpt><trkpt lat="45.0816463" lon="9.7183972"><ele>48.0</ele><time>2026-04-08T08:44:47.943Z</time></trkpt><trkpt lat="45.0818759" lon="9.7181501"><ele>49.0</ele><time>2026-04-08T08:44:48.943Z</time></trkpt><trkpt lat="45.0821047" lon="9.7179012"><ele>49.0</ele><time>2026-04-08T08:44:49.943Z</time></trkpt><trkpt lat="45.0823314" lon="9.7176508"><ele>49.0</ele><time>2026-04-08T08:44:50.944Z</time></trkpt><trkpt lat="45.0825624" lon="9.717406"><ele>49.0</ele><time>2026-04-08T08:44:51.943Z</time></trkpt><trkpt lat="45.0827945" lon="9.7171602"><ele>49.0</ele><time>2026-04-08T08:44:52.943Z</time></trkpt><trkpt lat="45.083025" lon="9.7169126"><ele>49.0</ele><time>2026-04-08T08:44:53.943Z</time></trkpt><trkpt lat="45.0832568" lon="9.7166657"><ele>49.0</ele><time>2026-04-08T08:44:54.943Z</time></trkpt><trkpt lat="45.0834876" lon="9.7164188"><ele>48.5</ele><time>2026-04-08T08:44:55.944Z</time></trkpt><trkpt lat="45.0837198" lon="9.7161728"><ele>48.0</ele><time>2026-04-08T08:44:56.944Z</time></trkpt><trkpt lat="45.0839524" lon="9.7159252"><ele>48.0</ele><time>2026-04-08T08:44:57.944Z</time></trkpt><trkpt lat="45.0841837" lon="9.7156779"><ele>48.0</ele><time>2026-04-08T08:44:58.944Z</time></trkpt><trkpt lat="45.0844159" lon="9.7154297"><ele>47.5</ele><time>2026-04-08T08:44:59.944Z</time></trkpt><trkpt lat="45.0846456" lon="9.7151775"><ele>47.0</ele><time>2026-04-08T08:45:00.943Z</time></trkpt><trkpt lat="45.0848747" lon="9.7149263"><ele>48.0</ele><time>2026-04-08T08:45:01.944Z</time></trkpt><trkpt lat="45.0851036" lon="9.7146771"><ele>49.0</ele><time>2026-04-08T08:45:02.943Z</time></trkpt><trkpt lat="45.0853321" lon="9.7144311"><ele>48.5</ele><time>2026-04-08T08:45:03.943Z</time></trkpt><trkpt lat="45.08556" lon="9.7141844"><ele>48.0</ele><time>2026-04-08T08:45:04.944Z</time></trkpt><trkpt lat="45.0857892" lon="9.7139384"><ele>48.0</ele><time>2026-04-08T08:45:05.944Z</time></trkpt><trkpt lat="45.0860195" lon="9.7136926"><ele>48.0</ele><time>2026-04-08T08:45:06.943Z</time></trkpt><trkpt lat="45.0862488" lon="9.7134498"><ele>47.5</ele><time>2026-04-08T08:45:07.943Z</time></trkpt><trkpt lat="45.0864779" lon="9.7132059"><ele>47.0</ele><time>2026-04-08T08:45:08.944Z</time></trkpt><trkpt lat="45.0867044" lon="9.7129615"><ele>46.5</ele><time>2026-04-08T08:45:09.943Z</time></trkpt><trkpt lat="45.0869313" lon="9.7127167"><ele>46.0</ele><time>2026-04-08T08:45:10.943Z</time></trkpt><trkpt lat="45.0871586" lon="9.7124712"><ele>46.0</ele><time>2026-04-08T08:45:11.944Z</time></trkpt><trkpt lat="45.0873853" lon="9.7122264"><ele>46.0</ele><time>2026-04-08T08:45:12.943Z</time></trkpt><trkpt lat="45.0876111" lon="9.7119821"><ele>46.0</ele><time>2026-04-08T08:45:13.944Z</time></trkpt><trkpt lat="45.0878355" lon="9.7117357"><ele>46.0</ele><time>2026-04-08T08:45:14.943Z</time></trkpt><trkpt lat="45.0880549" lon="9.7114793"><ele>46.0</ele><time>2026-04-08T08:45:15.944Z</time></trkpt><trkpt lat="45.0882749" lon="9.7112283"><ele>46.0</ele><time>2026-04-08T08:45:16.943Z</time></trkpt><trkpt lat="45.0884944" lon="9.7109856"><ele>46.0</ele><time>2026-04-08T08:45:17.943Z</time></trkpt><trkpt lat="45.0887184" lon="9.7107458"><ele>46.0</ele><time>2026-04-08T08:45:18.943Z</time></trkpt><trkpt lat="45.088943" lon="9.7105075"><ele>45.5</ele><time>2026-04-08T08:45:19.943Z</time></trkpt><trkpt lat="45.0891696" lon="9.7102712"><ele>45.0</ele><time>2026-04-08T08:45:20.943Z</time></trkpt><trkpt lat="45.0893957" lon="9.7100289"><ele>45.0</ele><time>2026-04-08T08:45:21.943Z</time></trkpt><trkpt lat="45.0896222" lon="9.7097842"><ele>45.0</ele><time>2026-04-08T08:45:22.943Z</time></trkpt><trkpt lat="45.0898489" lon="9.7095405"><ele>43.5</ele><time>2026-04-08T08:45:23.943Z</time></trkpt><trkpt lat="45.0900768" lon="9.7092951"><ele>42.0</ele><time>2026-04-08T08:45:24.944Z</time></trkpt><trkpt lat="45.0903032" lon="9.7090507"><ele>42.0</ele><time>2026-04-08T08:45:25.943Z</time></trkpt><trkpt lat="45.0905283" lon="9.708803"><ele>42.0</ele><time>2026-04-08T08:45:26.943Z</time></trkpt><trkpt lat="45.0907533" lon="9.7085503"><ele>42.5</ele><time>2026-04-08T08:45:27.943Z</time></trkpt><trkpt lat="45.0909786" lon="9.7082953"><ele>43.0</ele><time>2026-04-08T08:45:28.943Z</time></trkpt><trkpt lat="45.091206" lon="9.7080442"><ele>43.0</ele><time>2026-04-08T08:45:29.944Z</time></trkpt><trkpt lat="45.0914319" lon="9.7077916"><ele>43.0</ele><time>2026-04-08T08:45:30.944Z</time></trkpt><trkpt lat="45.0916594" lon="9.7075427"><ele>45.0</ele><time>2026-04-08T08:45:31.943Z</time></trkpt><trkpt lat="45.0918879" lon="9.7072951"><ele>47.0</ele><time>2026-04-08T08:45:32.943Z</time></trkpt><trkpt lat="45.0921172" lon="9.7070472"><ele>46.5</ele><time>2026-04-08T08:45:33.943Z</time></trkpt><trkpt lat="45.0923457" lon="9.7068005"><ele>46.0</ele><time>2026-04-08T08:45:34.943Z</time></trkpt><trkpt lat="45.0925753" lon="9.7065564"><ele>45.0</ele><time>2026-04-08T08:45:35.944Z</time></trkpt><trkpt lat="45.0928051" lon="9.7063203"><ele>44.0</ele><time>2026-04-08T08:45:36.943Z</time></trkpt><trkpt lat="45.0930395" lon="9.7060896"><ele>44.0</ele><time>2026-04-08T08:45:37.944Z</time></trkpt><trkpt lat="45.0932715" lon="9.7058565"><ele>44.0</ele><time>2026-04-08T08:45:38.943Z</time></trkpt><trkpt lat="45.0935033" lon="9.7056179"><ele>44.0</ele><time>2026-04-08T08:45:39.944Z</time></trkpt><trkpt lat="45.0937322" lon="9.7053723"><ele>44.0</ele><time>2026-04-08T08:45:40.944Z</time></trkpt><trkpt lat="45.0939605" lon="9.7051264"><ele>44.0</ele><time>2026-04-08T08:45:41.943Z</time></trkpt><trkpt lat="45.0941911" lon="9.704879"><ele>44.0</ele><time>2026-04-08T08:45:42.943Z</time></trkpt><trkpt lat="45.0944214" lon="9.7046323"><ele>45.0</ele><time>2026-04-08T08:45:43.943Z</time></trkpt><trkpt lat="45.0946532" lon="9.7043854"><ele>46.0</ele><time>2026-04-08T08:45:44.944Z</time></trkpt><trkpt lat="45.094885" lon="9.7041378"><ele>45.5</ele><time>2026-04-08T08:45:45.943Z</time></trkpt><trkpt lat="45.0951148" lon="9.7038902"><ele>45.0</ele><time>2026-04-08T08:45:46.944Z</time></trkpt><trkpt lat="45.095341" lon="9.7036407"><ele>44.5</ele><time>2026-04-08T08:45:47.943Z</time></trkpt><trkpt lat="45.09557" lon="9.7033929"><ele>44.0</ele><time>2026-04-08T08:45:48.943Z</time></trkpt><trkpt lat="45.0958006" lon="9.7031474"><ele>44.0</ele><time>2026-04-08T08:45:49.943Z</time></trkpt><trkpt lat="45.0960305" lon="9.7029011"><ele>44.0</ele><time>2026-04-08T08:45:50.943Z</time></trkpt><trkpt lat="45.0962624" lon="9.7026614"><ele>44.0</ele><time>2026-04-08T08:45:51.943Z</time></trkpt><trkpt lat="45.0964919" lon="9.7024171"><ele>44.0</ele><time>2026-04-08T08:45:52.943Z</time></trkpt><trkpt lat="45.0967183" lon="9.7021713"><ele>44.5</ele><time>2026-04-08T08:45:53.943Z</time></trkpt><trkpt lat="45.0969461" lon="9.7019272"><ele>45.0</ele><time>2026-04-08T08:45:54.943Z</time></trkpt><trkpt lat="45.0971695" lon="9.7016842"><ele>45.0</ele><time>2026-04-08T08:45:55.943Z</time></trkpt><trkpt lat="45.0973943" lon="9.7014416"><ele>45.0</ele><time>2026-04-08T08:45:56.943Z</time></trkpt><trkpt lat="45.0976207" lon="9.7011983"><ele>44.0</ele><time>2026-04-08T08:45:57.943Z</time></trkpt><trkpt lat="45.0978448" lon="9.7009527"><ele>43.0</ele><time>2026-04-08T08:45:58.943Z</time></trkpt><trkpt lat="45.0980713" lon="9.7007065"><ele>43.0</ele><time>2026-04-08T08:45:59.943Z</time></trkpt><trkpt lat="45.0983005" lon="9.7004637"><ele>43.0</ele><time>2026-04-08T08:46:00.943Z</time></trkpt><trkpt lat="45.0985281" lon="9.700221"><ele>43.0</ele><time>2026-04-08T08:46:01.943Z</time></trkpt><trkpt lat="45.0987564" lon="9.6999786"><ele>43.0</ele><time>2026-04-08T08:46:02.943Z</time></trkpt><trkpt lat="45.0989836" lon="9.6997354"><ele>43.0</ele><time>2026-04-08T08:46:03.944Z</time></trkpt><trkpt lat="45.0992099" lon="9.6994924"><ele>43.0</ele><time>2026-04-08T08:46:04.943Z</time></trkpt><trkpt lat="45.0994348" lon="9.6992451"><ele>44.0</ele><time>2026-04-08T08:46:05.943Z</time></trkpt><trkpt lat="45.0996614" lon="9.698997"><ele>45.0</ele><time>2026-04-08T08:46:06.943Z</time></trkpt><trkpt lat="45.0998906" lon="9.6987502"><ele>46.5</ele><time>2026-04-08T08:46:07.943Z</time></trkpt><trkpt lat="45.1001185" lon="9.6985048"><ele>48.0</ele><time>2026-04-08T08:46:08.943Z</time></trkpt><trkpt lat="45.1003475" lon="9.6982601"><ele>48.0</ele><time>2026-04-08T08:46:09.943Z</time></trkpt><trkpt lat="45.1005734" lon="9.6980157"><ele>48.0</ele><time>2026-04-08T08:46:10.943Z</time></trkpt><trkpt lat="45.1008048" lon="9.6977713"><ele>47.0</ele><time>2026-04-08T08:46:11.943Z</time></trkpt><trkpt lat="45.1010356" lon="9.6975246"><ele>46.0</ele><time>2026-04-08T08:46:12.943Z</time></trkpt><trkpt lat="45.1012645" lon="9.6972787"><ele>46.0</ele><time>2026-04-08T08:46:13.943Z</time></trkpt><trkpt lat="45.1014939" lon="9.6970274"><ele>46.0</ele><time>2026-04-08T08:46:14.943Z</time></trkpt><trkpt lat="45.1017188" lon="9.6967689"><ele>45.0</ele><time>2026-04-08T08:46:15.943Z</time></trkpt><trkpt lat="45.1019376" lon="9.6965055"><ele>44.0</ele><time>2026-04-08T08:46:16.943Z</time></trkpt><trkpt lat="45.1021612" lon="9.6962507"><ele>44.5</ele><time>2026-04-08T08:46:17.943Z</time></trkpt><trkpt lat="45.1023871" lon="9.6960023"><ele>45.0</ele><time>2026-04-08T08:46:18.943Z</time></trkpt><trkpt lat="45.1026138" lon="9.6957527"><ele>45.0</ele><time>2026-04-08T08:46:19.944Z</time></trkpt><trkpt lat="45.1028415" lon="9.695504"><ele>45.0</ele><time>2026-04-08T08:46:20.944Z</time></trkpt><trkpt lat="45.1030707" lon="9.6952602"><ele>45.0</ele><time>2026-04-08T08:46:21.944Z</time></trkpt><trkpt lat="45.1033001" lon="9.6950176"><ele>45.0</ele><time>2026-04-08T08:46:22.943Z</time></trkpt><trkpt lat="45.1035293" lon="9.6947756"><ele>45.0</ele><time>2026-04-08T08:46:23.944Z</time></trkpt><trkpt lat="45.1037589" lon="9.6945325"><ele>45.0</ele><time>2026-04-08T08:46:24.943Z</time></trkpt><trkpt lat="45.1039848" lon="9.6942898"><ele>45.5</ele><time>2026-04-08T08:46:25.944Z</time></trkpt><trkpt lat="45.1042109" lon="9.6940461"><ele>46.0</ele><time>2026-04-08T08:46:26.943Z</time></trkpt><trkpt lat="45.1044392" lon="9.6938019"><ele>45.5</ele><time>2026-04-08T08:46:27.943Z</time></trkpt><trkpt lat="45.1046651" lon="9.6935569"><ele>45.0</ele><time>2026-04-08T08:46:28.943Z</time></trkpt><trkpt lat="45.1048921" lon="9.6933127"><ele>45.0</ele><time>2026-04-08T08:46:29.943Z</time></trkpt><trkpt lat="45.1051184" lon="9.6930659"><ele>45.0</ele><time>2026-04-08T08:46:30.943Z</time></trkpt><trkpt lat="45.1053458" lon="9.6928194"><ele>45.0</ele><time>2026-04-08T08:46:31.944Z</time></trkpt><trkpt lat="45.1055726" lon="9.6925736"><ele>45.0</ele><time>2026-04-08T08:46:32.943Z</time></trkpt><trkpt lat="45.1058023" lon="9.6923288"><ele>46.5</ele><time>2026-04-08T08:46:33.944Z</time></trkpt><trkpt lat="45.1060298" lon="9.6920862"><ele>48.0</ele><time>2026-04-08T08:46:34.944Z</time></trkpt><trkpt lat="45.1062582" lon="9.6918436"><ele>48.0</ele><time>2026-04-08T08:46:35.943Z</time></trkpt><trkpt lat="45.1064902" lon="9.6916038"><ele>48.0</ele><time>2026-04-08T08:46:36.943Z</time></trkpt><trkpt lat="45.106724" lon="9.6913654"><ele>48.0</ele><time>2026-04-08T08:46:37.943Z</time></trkpt><trkpt lat="45.106956" lon="9.6911239"><ele>48.0</ele><time>2026-04-08T08:46:38.943Z</time></trkpt><trkpt lat="45.107189" lon="9.6908842"><ele>47.0</ele><time>2026-04-08T08:46:39.943Z</time></trkpt><trkpt lat="45.1074189" lon="9.6906443"><ele>46.0</ele><time>2026-04-08T08:46:40.943Z</time></trkpt><trkpt lat="45.1076435" lon="9.6904012"><ele>46.5</ele><time>2026-04-08T08:46:41.944Z</time></trkpt><trkpt lat="45.1078697" lon="9.6901526"><ele>47.0</ele><time>2026-04-08T08:46:42.944Z</time></trkpt><trkpt lat="45.1081007" lon="9.6899019"><ele>47.5</ele><time>2026-04-08T08:46:43.943Z</time></trkpt><trkpt lat="45.1083332" lon="9.6896488"><ele>48.0</ele><time>2026-04-08T08:46:44.943Z</time></trkpt><trkpt lat="45.1085702" lon="9.6893923"><ele>48.0</ele><time>2026-04-08T08:46:45.943Z</time></trkpt><trkpt lat="45.1088056" lon="9.6891301"><ele>48.0</ele><time>2026-04-08T08:46:46.944Z</time></trkpt><trkpt lat="45.1090369" lon="9.6888621"><ele>48.0</ele><time>2026-04-08T08:46:47.943Z</time></trkpt><trkpt lat="45.1092656" lon="9.688593"><ele>48.0</ele><time>2026-04-08T08:46:48.943Z</time></trkpt><trkpt lat="45.1094954" lon="9.6883231"><ele>47.0</ele><time>2026-04-08T08:46:49.943Z</time></trkpt><trkpt lat="45.1097225" lon="9.6880547"><ele>46.0</ele><time>2026-04-08T08:46:50.943Z</time></trkpt><trkpt lat="45.1099454" lon="9.6877864"><ele>46.5</ele><time>2026-04-08T08:46:51.944Z</time></trkpt><trkpt lat="45.110165" lon="9.6875167"><ele>47.0</ele><time>2026-04-08T08:46:52.943Z</time></trkpt><trkpt lat="45.1103841" lon="9.6872484"><ele>47.0</ele><time>2026-04-08T08:46:53.944Z</time></trkpt><trkpt lat="45.1106019" lon="9.6869792"><ele>47.0</ele><time>2026-04-08T08:46:54.943Z</time></trkpt><trkpt lat="45.1108171" lon="9.6867092"><ele>47.0</ele><time>2026-04-08T08:46:55.944Z</time></trkpt><trkpt lat="45.1110345" lon="9.6864418"><ele>47.0</ele><time>2026-04-08T08:46:56.943Z</time></trkpt><trkpt lat="45.1112377" lon="9.6861515"><ele>47.5</ele><time>2026-04-08T08:46:57.943Z</time></trkpt><trkpt lat="45.1114378" lon="9.6858657"><ele>48.0</ele><time>2026-04-08T08:46:58.943Z</time></trkpt><trkpt lat="45.1116373" lon="9.6855839"><ele>47.0</ele><time>2026-04-08T08:46:59.944Z</time></trkpt><trkpt lat="45.1118398" lon="9.6853032"><ele>46.0</ele><time>2026-04-08T08:47:00.943Z</time></trkpt><trkpt lat="45.1120411" lon="9.6850217"><ele>46.0</ele><time>2026-04-08T08:47:01.943Z</time></trkpt><trkpt lat="45.1122417" lon="9.6847375"><ele>46.0</ele><time>2026-04-08T08:47:02.943Z</time></trkpt><trkpt lat="45.1124444" lon="9.6844547"><ele>45.5</ele><time>2026-04-08T08:47:03.944Z</time></trkpt><trkpt lat="45.1126457" lon="9.6841688"><ele>45.0</ele><time>2026-04-08T08:47:04.944Z</time></trkpt><trkpt lat="45.1128459" lon="9.6838799"><ele>44.0</ele><time>2026-04-08T08:47:05.943Z</time></trkpt><trkpt lat="45.1130474" lon="9.6835937"><ele>43.0</ele><time>2026-04-08T08:47:06.944Z</time></trkpt><trkpt lat="45.1132466" lon="9.6833073"><ele>43.0</ele><time>2026-04-08T08:47:07.943Z</time></trkpt><trkpt lat="45.1134461" lon="9.6830224"><ele>43.0</ele><time>2026-04-08T08:47:08.944Z</time></trkpt><trkpt lat="45.1136463" lon="9.6827376"><ele>43.5</ele><time>2026-04-08T08:47:09.943Z</time></trkpt><trkpt lat="45.1138469" lon="9.6824491"><ele>44.0</ele><time>2026-04-08T08:47:10.943Z</time></trkpt><trkpt lat="45.1140474" lon="9.6821617"><ele>43.5</ele><time>2026-04-08T08:47:11.943Z</time></trkpt><trkpt lat="45.11425" lon="9.6818735"><ele>43.0</ele><time>2026-04-08T08:47:12.943Z</time></trkpt><trkpt lat="45.1144507" lon="9.6815848"><ele>43.0</ele><time>2026-04-08T08:47:13.943Z</time></trkpt><trkpt lat="45.1146525" lon="9.6812953"><ele>43.0</ele><time>2026-04-08T08:47:14.943Z</time></trkpt><trkpt lat="45.1148513" lon="9.6810081"><ele>44.0</ele><time>2026-04-08T08:47:15.944Z</time></trkpt><trkpt lat="45.1150515" lon="9.680722"><ele>45.0</ele><time>2026-04-08T08:47:16.943Z</time></trkpt><trkpt lat="45.1152532" lon="9.6804376"><ele>45.0</ele><time>2026-04-08T08:47:17.943Z</time></trkpt><trkpt lat="45.1154558" lon="9.6801496"><ele>45.0</ele><time>2026-04-08T08:47:18.944Z</time></trkpt><trkpt lat="45.1156558" lon="9.6798627"><ele>45.0</ele><time>2026-04-08T08:47:19.943Z</time></trkpt><trkpt lat="45.1158562" lon="9.6795767"><ele>45.0</ele><time>2026-04-08T08:47:20.943Z</time></trkpt><trkpt lat="45.1160568" lon="9.6792869"><ele>45.0</ele><time>2026-04-08T08:47:21.944Z</time></trkpt><trkpt lat="45.1162578" lon="9.6789978"><ele>45.0</ele><time>2026-04-08T08:47:22.943Z</time></trkpt><trkpt lat="45.1164594" lon="9.6787047"><ele>44.5</ele><time>2026-04-08T08:47:23.943Z</time></trkpt><trkpt lat="45.1166598" lon="9.6784138"><ele>44.0</ele><time>2026-04-08T08:47:24.944Z</time></trkpt><trkpt lat="45.1168607" lon="9.6781188"><ele>44.0</ele><time>2026-04-08T08:47:25.944Z</time></trkpt><trkpt lat="45.1170638" lon="9.6778291"><ele>44.0</ele><time>2026-04-08T08:47:26.943Z</time></trkpt><trkpt lat="45.1172677" lon="9.6775406"><ele>44.0</ele><time>2026-04-08T08:47:27.944Z</time></trkpt><trkpt lat="45.1174696" lon="9.6772508"><ele>44.0</ele><time>2026-04-08T08:47:28.943Z</time></trkpt><trkpt lat="45.1176733" lon="9.6769658"><ele>45.5</ele><time>2026-04-08T08:47:29.943Z</time></trkpt><trkpt lat="45.1178772" lon="9.6766854"><ele>47.0</ele><time>2026-04-08T08:47:30.943Z</time></trkpt><trkpt lat="45.1180823" lon="9.6764002"><ele>46.5</ele><time>2026-04-08T08:47:31.943Z</time></trkpt><trkpt lat="45.1182836" lon="9.676114"><ele>46.0</ele><time>2026-04-08T08:47:32.944Z</time></trkpt><trkpt lat="45.1184826" lon="9.6758275"><ele>45.5</ele><time>2026-04-08T08:47:33.943Z</time></trkpt><trkpt lat="45.1186833" lon="9.675542"><ele>45.0</ele><time>2026-04-08T08:47:34.943Z</time></trkpt><trkpt lat="45.1188836" lon="9.6752546"><ele>44.0</ele><time>2026-04-08T08:47:35.944Z</time></trkpt><trkpt lat="45.1190866" lon="9.6749666"><ele>43.0</ele><time>2026-04-08T08:47:36.943Z</time></trkpt><trkpt lat="45.1192884" lon="9.6746782"><ele>43.5</ele><time>2026-04-08T08:47:37.943Z</time></trkpt><trkpt lat="45.119479" lon="9.6744041"><ele>44.0</ele><time>2026-04-08T08:47:38.943Z</time></trkpt><trkpt lat="45.1196658" lon="9.6741379"><ele>44.0</ele><time>2026-04-08T08:47:39.943Z</time></trkpt><trkpt lat="45.1198512" lon="9.6738774"><ele>44.0</ele><time>2026-04-08T08:47:40.944Z</time></trkpt><trkpt lat="45.1200351" lon="9.6736104"><ele>45.5</ele><time>2026-04-08T08:47:41.943Z</time></trkpt><trkpt lat="45.1202185" lon="9.6733403"><ele>47.0</ele><time>2026-04-08T08:47:42.943Z</time></trkpt><trkpt lat="45.1204029" lon="9.6730644"><ele>47.0</ele><time>2026-04-08T08:47:43.943Z</time></trkpt><trkpt lat="45.120591" lon="9.672787"><ele>47.0</ele><time>2026-04-08T08:47:44.943Z</time></trkpt><trkpt lat="45.1207876" lon="9.6725138"><ele>46.5</ele><time>2026-04-08T08:47:45.943Z</time></trkpt><trkpt lat="45.1209841" lon="9.6722365"><ele>46.0</ele><time>2026-04-08T08:47:46.944Z</time></trkpt><trkpt lat="45.1211803" lon="9.6719548"><ele>46.0</ele><time>2026-04-08T08:47:47.944Z</time></trkpt><trkpt lat="45.1213808" lon="9.6716692"><ele>46.0</ele><time>2026-04-08T08:47:48.944Z</time></trkpt><trkpt lat="45.121581" lon="9.6713822"><ele>45.5</ele><time>2026-04-08T08:47:49.943Z</time></trkpt><trkpt lat="45.1217819" lon="9.6710941"><ele>45.0</ele><time>2026-04-08T08:47:50.944Z</time></trkpt><trkpt lat="45.1219833" lon="9.6708035"><ele>45.0</ele><time>2026-04-08T08:47:51.943Z</time></trkpt><trkpt lat="45.122186" lon="9.6705105"><ele>45.0</ele><time>2026-04-08T08:47:52.943Z</time></trkpt><trkpt lat="45.1223865" lon="9.6702177"><ele>44.5</ele><time>2026-04-08T08:47:53.943Z</time></trkpt><trkpt lat="45.1225874" lon="9.6699252"><ele>44.0</ele><time>2026-04-08T08:47:54.943Z</time></trkpt><trkpt lat="45.1227892" lon="9.6696345"><ele>44.0</ele><time>2026-04-08T08:47:55.944Z</time></trkpt><trkpt lat="45.1229911" lon="9.6693438"><ele>44.0</ele><time>2026-04-08T08:47:56.944Z</time></trkpt><trkpt lat="45.1231949" lon="9.669056"><ele>44.5</ele><time>2026-04-08T08:47:57.943Z</time></trkpt><trkpt lat="45.1233977" lon="9.6687676"><ele>45.0</ele><time>2026-04-08T08:47:58.944Z</time></trkpt><trkpt lat="45.1236017" lon="9.6684783"><ele>45.0</ele><time>2026-04-08T08:47:59.944Z</time></trkpt><trkpt lat="45.1238047" lon="9.6681876"><ele>45.0</ele><time>2026-04-08T08:48:00.943Z</time></trkpt><trkpt lat="45.1240061" lon="9.6678966"><ele>44.5</ele><time>2026-04-08T08:48:01.943Z</time></trkpt><trkpt lat="45.1242071" lon="9.6676048"><ele>44.0</ele><time>2026-04-08T08:48:02.943Z</time></trkpt><trkpt lat="45.1244064" lon="9.6673174"><ele>44.0</ele><time>2026-04-08T08:48:03.943Z</time></trkpt><trkpt lat="45.124606" lon="9.6670315"><ele>44.0</ele><time>2026-04-08T08:48:04.944Z</time></trkpt><trkpt lat="45.124807" lon="9.6667416"><ele>45.0</ele><time>2026-04-08T08:48:05.943Z</time></trkpt><trkpt lat="45.1250071" lon="9.6664544"><ele>46.0</ele><time>2026-04-08T08:48:06.943Z</time></trkpt><trkpt lat="45.1252047" lon="9.6661617"><ele>46.5</ele><time>2026-04-08T08:48:07.943Z</time></trkpt><trkpt lat="45.1253982" lon="9.6658682"><ele>47.0</ele><time>2026-04-08T08:48:08.943Z</time></trkpt><trkpt lat="45.1255953" lon="9.6655759"><ele>47.0</ele><time>2026-04-08T08:48:09.943Z</time></trkpt><trkpt lat="45.1257912" lon="9.6652839"><ele>47.0</ele><time>2026-04-08T08:48:10.943Z</time></trkpt><trkpt lat="45.1259851" lon="9.6649941"><ele>47.0</ele><time>2026-04-08T08:48:11.944Z</time></trkpt><trkpt lat="45.1261812" lon="9.664699"><ele>47.0</ele><time>2026-04-08T08:48:12.944Z</time></trkpt><trkpt lat="45.1263733" lon="9.6643998"><ele>46.5</ele><time>2026-04-08T08:48:13.944Z</time></trkpt><trkpt lat="45.1265637" lon="9.664099"><ele>46.0</ele><time>2026-04-08T08:48:14.943Z</time></trkpt><trkpt lat="45.1267553" lon="9.663799"><ele>46.5</ele><time>2026-04-08T08:48:15.943Z</time></trkpt><trkpt lat="45.1269448" lon="9.6634966"><ele>47.0</ele><time>2026-04-08T08:48:16.943Z</time></trkpt><trkpt lat="45.1271302" lon="9.6631896"><ele>47.0</ele><time>2026-04-08T08:48:17.943Z</time></trkpt><trkpt lat="45.1273159" lon="9.6628829"><ele>47.0</ele><time>2026-04-08T08:48:18.943Z</time></trkpt><trkpt lat="45.1275007" lon="9.6625736"><ele>47.0</ele><time>2026-04-08T08:48:19.944Z</time></trkpt><trkpt lat="45.1276827" lon="9.662262"><ele>47.0</ele><time>2026-04-08T08:48:20.943Z</time></trkpt><trkpt lat="45.127863" lon="9.661946"><ele>47.0</ele><time>2026-04-08T08:48:21.944Z</time></trkpt><trkpt lat="45.1280409" lon="9.6616282"><ele>47.0</ele><time>2026-04-08T08:48:22.943Z</time></trkpt><trkpt lat="45.1282194" lon="9.6613063"><ele>47.5</ele><time>2026-04-08T08:48:23.943Z</time></trkpt><trkpt lat="45.1283984" lon="9.66099"><ele>48.0</ele><time>2026-04-08T08:48:24.943Z</time></trkpt><trkpt lat="45.1285749" lon="9.6606707"><ele>48.0</ele><time>2026-04-08T08:48:25.943Z</time></trkpt><trkpt lat="45.1287497" lon="9.6603514"><ele>48.0</ele><time>2026-04-08T08:48:26.943Z</time></trkpt><trkpt lat="45.1289248" lon="9.6600316"><ele>47.5</ele><time>2026-04-08T08:48:27.943Z</time></trkpt><trkpt lat="45.1290966" lon="9.6597081"><ele>47.0</ele><time>2026-04-08T08:48:28.943Z</time></trkpt><trkpt lat="45.1292679" lon="9.6593868"><ele>47.0</ele><time>2026-04-08T08:48:29.943Z</time></trkpt><trkpt lat="45.1294359" lon="9.6590579"><ele>47.0</ele><time>2026-04-08T08:48:30.944Z</time></trkpt><trkpt lat="45.1296044" lon="9.6587314"><ele>47.0</ele><time>2026-04-08T08:48:31.943Z</time></trkpt><trkpt lat="45.1297732" lon="9.6584043"><ele>47.0</ele><time>2026-04-08T08:48:32.944Z</time></trkpt><trkpt lat="45.129941" lon="9.6580787"><ele>48.5</ele><time>2026-04-08T08:48:33.944Z</time></trkpt><trkpt lat="45.1301073" lon="9.6577538"><ele>50.0</ele><time>2026-04-08T08:48:34.943Z</time></trkpt><trkpt lat="45.1302741" lon="9.6574292"><ele>50.0</ele><time>2026-04-08T08:48:35.943Z</time></trkpt><trkpt lat="45.1304415" lon="9.6571022"><ele>50.0</ele><time>2026-04-08T08:48:36.944Z</time></trkpt><trkpt lat="45.1306088" lon="9.6567746"><ele>48.5</ele><time>2026-04-08T08:48:37.943Z</time></trkpt><trkpt lat="45.1307779" lon="9.6564458"><ele>47.0</ele><time>2026-04-08T08:48:38.943Z</time></trkpt><trkpt lat="45.1309454" lon="9.6561173"><ele>47.0</ele><time>2026-04-08T08:48:39.943Z</time></trkpt><trkpt lat="45.1311141" lon="9.6557873"><ele>47.0</ele><time>2026-04-08T08:48:40.943Z</time></trkpt><trkpt lat="45.1312848" lon="9.6554578"><ele>47.0</ele><time>2026-04-08T08:48:41.943Z</time></trkpt><trkpt lat="45.1314565" lon="9.6551303"><ele>47.0</ele><time>2026-04-08T08:48:42.943Z</time></trkpt><trkpt lat="45.1316258" lon="9.6548037"><ele>47.0</ele><time>2026-04-08T08:48:43.943Z</time></trkpt><trkpt lat="45.1317954" lon="9.6544747"><ele>47.0</ele><time>2026-04-08T08:48:44.943Z</time></trkpt><trkpt lat="45.1319656" lon="9.6541436"><ele>47.5</ele><time>2026-04-08T08:48:45.943Z</time></trkpt><trkpt lat="45.1321357" lon="9.6538117"><ele>48.0</ele><time>2026-04-08T08:48:46.943Z</time></trkpt><trkpt lat="45.1323026" lon="9.6534817"><ele>49.0</ele><time>2026-04-08T08:48:47.944Z</time></trkpt><trkpt lat="45.1324712" lon="9.6531517"><ele>50.0</ele><time>2026-04-08T08:48:48.943Z</time></trkpt><trkpt lat="45.1326388" lon="9.6528244"><ele>49.0</ele><time>2026-04-08T08:48:49.942Z</time></trkpt><trkpt lat="45.1328075" lon="9.6524957"><ele>48.0</ele><time>2026-04-08T08:48:50.943Z</time></trkpt><trkpt lat="45.1329768" lon="9.6521679"><ele>47.5</ele><time>2026-04-08T08:48:51.944Z</time></trkpt><trkpt lat="45.1331477" lon="9.6518441"><ele>47.0</ele><time>2026-04-08T08:48:52.944Z</time></trkpt><trkpt lat="45.1333171" lon="9.6515166"><ele>47.0</ele><time>2026-04-08T08:48:53.943Z</time></trkpt><trkpt lat="45.1334849" lon="9.6511923"><ele>47.0</ele><time>2026-04-08T08:48:54.944Z</time></trkpt><trkpt lat="45.133654" lon="9.6508641"><ele>47.0</ele><time>2026-04-08T08:48:55.944Z</time></trkpt><trkpt lat="45.1338246" lon="9.6505358"><ele>47.0</ele><time>2026-04-08T08:48:56.943Z</time></trkpt><trkpt lat="45.1339955" lon="9.6502063"><ele>47.0</ele><time>2026-04-08T08:48:57.943Z</time></trkpt><trkpt lat="45.1341649" lon="9.6498758"><ele>47.0</ele><time>2026-04-08T08:48:58.943Z</time></trkpt><trkpt lat="45.1343334" lon="9.6495448"><ele>46.5</ele><time>2026-04-08T08:48:59.943Z</time></trkpt><trkpt lat="45.1344995" lon="9.6492118"><ele>46.0</ele><time>2026-04-08T08:49:00.943Z</time></trkpt><trkpt lat="45.1346663" lon="9.6488789"><ele>46.5</ele><time>2026-04-08T08:49:01.943Z</time></trkpt><trkpt lat="45.1348344" lon="9.6485506"><ele>47.0</ele><time>2026-04-08T08:49:02.943Z</time></trkpt><trkpt lat="45.1350019" lon="9.648222"><ele>47.0</ele><time>2026-04-08T08:49:03.943Z</time></trkpt><trkpt lat="45.1351682" lon="9.6478953"><ele>47.0</ele><time>2026-04-08T08:49:04.943Z</time></trkpt><trkpt lat="45.1353374" lon="9.6475683"><ele>47.5</ele><time>2026-04-08T08:49:05.944Z</time></trkpt><trkpt lat="45.1355062" lon="9.6472413"><ele>48.0</ele><time>2026-04-08T08:49:06.944Z</time></trkpt><trkpt lat="45.1356745" lon="9.6469139"><ele>47.0</ele><time>2026-04-08T08:49:07.943Z</time></trkpt><trkpt lat="45.1358448" lon="9.6465886"><ele>46.0</ele><time>2026-04-08T08:49:08.943Z</time></trkpt><trkpt lat="45.1360125" lon="9.646264"><ele>46.0</ele><time>2026-04-08T08:49:09.944Z</time></trkpt><trkpt lat="45.1361785" lon="9.6459376"><ele>46.0</ele><time>2026-04-08T08:49:10.943Z</time></trkpt><trkpt lat="45.1363442" lon="9.645607"><ele>46.5</ele><time>2026-04-08T08:49:11.944Z</time></trkpt><trkpt lat="45.1365111" lon="9.6452757"><ele>47.0</ele><time>2026-04-08T08:49:12.944Z</time></trkpt><trkpt lat="45.1366787" lon="9.6449465"><ele>47.5</ele><time>2026-04-08T08:49:13.944Z</time></trkpt><trkpt lat="45.1368472" lon="9.6446205"><ele>48.0</ele><time>2026-04-08T08:49:14.944Z</time></trkpt><trkpt lat="45.1370159" lon="9.6442924"><ele>48.0</ele><time>2026-04-08T08:49:15.943Z</time></trkpt><trkpt lat="45.1371846" lon="9.6439654"><ele>48.0</ele><time>2026-04-08T08:49:16.943Z</time></trkpt><trkpt lat="45.1373536" lon="9.6436331"><ele>48.0</ele><time>2026-04-08T08:49:17.943Z</time></trkpt><trkpt lat="45.1375191" lon="9.6433028"><ele>48.0</ele><time>2026-04-08T08:49:18.943Z</time></trkpt><trkpt lat="45.1376876" lon="9.6429739"><ele>49.5</ele><time>2026-04-08T08:49:19.944Z</time></trkpt><trkpt lat="45.1378558" lon="9.6426483"><ele>51.0</ele><time>2026-04-08T08:49:20.943Z</time></trkpt><trkpt lat="45.1380258" lon="9.6423189"><ele>51.0</ele><time>2026-04-08T08:49:21.943Z</time></trkpt><trkpt lat="45.1381953" lon="9.6419891"><ele>51.0</ele><time>2026-04-08T08:49:22.944Z</time></trkpt><trkpt lat="45.138362" lon="9.6416602"><ele>50.5</ele><time>2026-04-08T08:49:23.943Z</time></trkpt><trkpt lat="45.1385287" lon="9.6413318"><ele>50.0</ele><time>2026-04-08T08:49:24.943Z</time></trkpt><trkpt lat="45.1386976" lon="9.6410012"><ele>49.5</ele><time>2026-04-08T08:49:25.944Z</time></trkpt><trkpt lat="45.138864" lon="9.6406701"><ele>49.0</ele><time>2026-04-08T08:49:26.944Z</time></trkpt><trkpt lat="45.1390313" lon="9.6403416"><ele>49.0</ele><time>2026-04-08T08:49:27.943Z</time></trkpt><trkpt lat="45.1391989" lon="9.6400158"><ele>49.0</ele><time>2026-04-08T08:49:28.943Z</time></trkpt><trkpt lat="45.1393672" lon="9.6396885"><ele>48.5</ele><time>2026-04-08T08:49:29.943Z</time></trkpt><trkpt lat="45.1395356" lon="9.6393611"><ele>48.0</ele><time>2026-04-08T08:49:30.943Z</time></trkpt><trkpt lat="45.1397048" lon="9.6390344"><ele>48.0</ele><time>2026-04-08T08:49:31.943Z</time></trkpt><trkpt lat="45.1398732" lon="9.638705"><ele>48.0</ele><time>2026-04-08T08:49:32.944Z</time></trkpt><trkpt lat="45.1400409" lon="9.6383762"><ele>48.0</ele><time>2026-04-08T08:49:33.944Z</time></trkpt><trkpt lat="45.1402096" lon="9.6380474"><ele>48.0</ele><time>2026-04-08T08:49:34.943Z</time></trkpt><trkpt lat="45.1403811" lon="9.6377215"><ele>48.0</ele><time>2026-04-08T08:49:35.944Z</time></trkpt><trkpt lat="45.1405555" lon="9.6373953"><ele>48.0</ele><time>2026-04-08T08:49:36.944Z</time></trkpt><trkpt lat="45.140732" lon="9.6370753"><ele>48.0</ele><time>2026-04-08T08:49:37.943Z</time></trkpt><trkpt lat="45.140911" lon="9.6367578"><ele>48.0</ele><time>2026-04-08T08:49:38.943Z</time></trkpt><trkpt lat="45.1410939" lon="9.6364481"><ele>48.0</ele><time>2026-04-08T08:49:39.944Z</time></trkpt><trkpt lat="45.1412792" lon="9.636142"><ele>48.0</ele><time>2026-04-08T08:49:40.944Z</time></trkpt><trkpt lat="45.1414656" lon="9.6358406"><ele>48.0</ele><time>2026-04-08T08:49:41.943Z</time></trkpt><trkpt lat="45.1416559" lon="9.6355422"><ele>48.0</ele><time>2026-04-08T08:49:42.943Z</time></trkpt><trkpt lat="45.1418502" lon="9.63525"><ele>49.5</ele><time>2026-04-08T08:49:43.943Z</time></trkpt><trkpt lat="45.1420444" lon="9.6349604"><ele>51.0</ele><time>2026-04-08T08:49:44.943Z</time></trkpt><trkpt lat="45.1422441" lon="9.6346743"><ele>53.0</ele><time>2026-04-08T08:49:45.944Z</time></trkpt><trkpt lat="45.1424458" lon="9.634392"><ele>55.0</ele><time>2026-04-08T08:49:46.943Z</time></trkpt><trkpt lat="45.1426516" lon="9.6341134"><ele>55.0</ele><time>2026-04-08T08:49:47.944Z</time></trkpt><trkpt lat="45.1428535" lon="9.6338308"><ele>55.0</ele><time>2026-04-08T08:49:48.943Z</time></trkpt><trkpt lat="45.1430581" lon="9.6335485"><ele>55.0</ele><time>2026-04-08T08:49:49.944Z</time></trkpt><trkpt lat="45.1432627" lon="9.6332623"><ele>55.0</ele><time>2026-04-08T08:49:50.943Z</time></trkpt><trkpt lat="45.1434664" lon="9.6329764"><ele>56.0</ele><time>2026-04-08T08:49:51.943Z</time></trkpt><trkpt lat="45.1436736" lon="9.6326919"><ele>57.0</ele><time>2026-04-08T08:49:52.943Z</time></trkpt><trkpt lat="45.1438763" lon="9.6324075"><ele>57.5</ele><time>2026-04-08T08:49:53.943Z</time></trkpt><trkpt lat="45.1440808" lon="9.6321231"><ele>58.0</ele><time>2026-04-08T08:49:54.944Z</time></trkpt><trkpt lat="45.1442857" lon="9.6318323"><ele>57.0</ele><time>2026-04-08T08:49:55.944Z</time></trkpt><trkpt lat="45.144488" lon="9.6315378"><ele>56.0</ele><time>2026-04-08T08:49:56.943Z</time></trkpt><trkpt lat="45.1446949" lon="9.6312301"><ele>56.5</ele><time>2026-04-08T08:49:57.944Z</time></trkpt><trkpt lat="45.1449065" lon="9.6309147"><ele>57.0</ele><time>2026-04-08T08:49:58.943Z</time></trkpt><trkpt lat="45.1451279" lon="9.6305972"><ele>56.5</ele><time>2026-04-08T08:49:59.944Z</time></trkpt><trkpt lat="45.1453506" lon="9.6302772"><ele>56.0</ele><time>2026-04-08T08:50:00.943Z</time></trkpt><trkpt lat="45.1455704" lon="9.6299685"><ele>56.5</ele><time>2026-04-08T08:50:01.943Z</time></trkpt><trkpt lat="45.1457847" lon="9.6296695"><ele>57.0</ele><time>2026-04-08T08:50:02.943Z</time></trkpt><trkpt lat="45.1459945" lon="9.629377"><ele>57.0</ele><time>2026-04-08T08:50:03.943Z</time></trkpt><trkpt lat="45.1462034" lon="9.6290864"><ele>57.0</ele><time>2026-04-08T08:50:04.944Z</time></trkpt><trkpt lat="45.146409" lon="9.6287997"><ele>56.5</ele><time>2026-04-08T08:50:05.944Z</time></trkpt><trkpt lat="45.1466187" lon="9.6285161"><ele>56.0</ele><time>2026-04-08T08:50:06.943Z</time></trkpt><trkpt lat="45.146827" lon="9.6282352"><ele>56.0</ele><time>2026-04-08T08:50:07.943Z</time></trkpt><trkpt lat="45.1470357" lon="9.627954"><ele>56.0</ele><time>2026-04-08T08:50:08.943Z</time></trkpt><trkpt lat="45.1472456" lon="9.627674"><ele>56.5</ele><time>2026-04-08T08:50:09.944Z</time></trkpt><trkpt lat="45.1474551" lon="9.6273935"><ele>57.0</ele><time>2026-04-08T08:50:10.944Z</time></trkpt><trkpt lat="45.1476632" lon="9.6271119"><ele>57.5</ele><time>2026-04-08T08:50:11.943Z</time></trkpt><trkpt lat="45.1478686" lon="9.6268319"><ele>58.0</ele><time>2026-04-08T08:50:12.943Z</time></trkpt><trkpt lat="45.1480711" lon="9.6265532"><ele>58.5</ele><time>2026-04-08T08:50:13.944Z</time></trkpt><trkpt lat="45.1482726" lon="9.6262749"><ele>59.0</ele><time>2026-04-08T08:50:14.943Z</time></trkpt><trkpt lat="45.1484748" lon="9.625992"><ele>60.0</ele><time>2026-04-08T08:50:15.943Z</time></trkpt><trkpt lat="45.1486759" lon="9.6257124"><ele>61.0</ele><time>2026-04-08T08:50:16.944Z</time></trkpt><trkpt lat="45.148879" lon="9.6254325"><ele>60.0</ele><time>2026-04-08T08:50:17.944Z</time></trkpt><trkpt lat="45.1490798" lon="9.6251505"><ele>59.0</ele><time>2026-04-08T08:50:18.943Z</time></trkpt><trkpt lat="45.1492818" lon="9.6248645"><ele>59.0</ele><time>2026-04-08T08:50:19.944Z</time></trkpt><trkpt lat="45.1494821" lon="9.6245799"><ele>59.0</ele><time>2026-04-08T08:50:20.943Z</time></trkpt><trkpt lat="45.1496844" lon="9.6242958"><ele>59.0</ele><time>2026-04-08T08:50:21.943Z</time></trkpt><trkpt lat="45.1498893" lon="9.6240154"><ele>59.0</ele><time>2026-04-08T08:50:22.944Z</time></trkpt><trkpt lat="45.1500949" lon="9.6237282"><ele>59.0</ele><time>2026-04-08T08:50:23.943Z</time></trkpt><trkpt lat="45.1503005" lon="9.6234441"><ele>59.0</ele><time>2026-04-08T08:50:24.943Z</time></trkpt><trkpt lat="45.1505083" lon="9.6231583"><ele>59.0</ele><time>2026-04-08T08:50:25.943Z</time></trkpt><trkpt lat="45.1507125" lon="9.6228737"><ele>59.0</ele><time>2026-04-08T08:50:26.944Z</time></trkpt><trkpt lat="45.1509168" lon="9.6225857"><ele>59.0</ele><time>2026-04-08T08:50:27.943Z</time></trkpt><trkpt lat="45.1511201" lon="9.6222977"><ele>59.0</ele><time>2026-04-08T08:50:28.943Z</time></trkpt><trkpt lat="45.1513242" lon="9.6220114"><ele>59.0</ele><time>2026-04-08T08:50:29.944Z</time></trkpt><trkpt lat="45.1515306" lon="9.6217241"><ele>59.0</ele><time>2026-04-08T08:50:30.943Z</time></trkpt><trkpt lat="45.1517319" lon="9.6214367"><ele>59.0</ele><time>2026-04-08T08:50:31.944Z</time></trkpt><trkpt lat="45.1519346" lon="9.6211497"><ele>59.0</ele><time>2026-04-08T08:50:32.943Z</time></trkpt><trkpt lat="45.1521378" lon="9.6208662"><ele>59.5</ele><time>2026-04-08T08:50:33.944Z</time></trkpt><trkpt lat="45.1523418" lon="9.6205838"><ele>60.0</ele><time>2026-04-08T08:50:34.943Z</time></trkpt><trkpt lat="45.1525457" lon="9.620301"><ele>60.0</ele><time>2026-04-08T08:50:35.943Z</time></trkpt><trkpt lat="45.1527494" lon="9.6200187"><ele>60.0</ele><time>2026-04-08T08:50:36.943Z</time></trkpt><trkpt lat="45.152954" lon="9.6197349"><ele>60.0</ele><time>2026-04-08T08:50:37.943Z</time></trkpt><trkpt lat="45.1531567" lon="9.6194545"><ele>60.0</ele><time>2026-04-08T08:50:38.943Z</time></trkpt><trkpt lat="45.1533612" lon="9.6191706"><ele>60.0</ele><time>2026-04-08T08:50:39.944Z</time></trkpt><trkpt lat="45.1535656" lon="9.6188841"><ele>60.0</ele><time>2026-04-08T08:50:40.943Z</time></trkpt><trkpt lat="45.1537702" lon="9.6185965"><ele>60.0</ele><time>2026-04-08T08:50:41.943Z</time></trkpt><trkpt lat="45.1539739" lon="9.6183078"><ele>60.0</ele><time>2026-04-08T08:50:42.944Z</time></trkpt><trkpt lat="45.1541777" lon="9.6180226"><ele>59.5</ele><time>2026-04-08T08:50:43.943Z</time></trkpt><trkpt lat="45.1543801" lon="9.6177357"><ele>59.0</ele><time>2026-04-08T08:50:44.943Z</time></trkpt><trkpt lat="45.1545841" lon="9.6174505"><ele>59.0</ele><time>2026-04-08T08:50:45.944Z</time></trkpt><trkpt lat="45.1547888" lon="9.6171667"><ele>59.0</ele><time>2026-04-08T08:50:46.943Z</time></trkpt><trkpt lat="45.1549937" lon="9.6168816"><ele>59.0</ele><time>2026-04-08T08:50:47.943Z</time></trkpt><trkpt lat="45.1551978" lon="9.6165975"><ele>59.0</ele><time>2026-04-08T08:50:48.943Z</time></trkpt><trkpt lat="45.155402" lon="9.616314"><ele>59.0</ele><time>2026-04-08T08:50:49.943Z</time></trkpt><trkpt lat="45.1556073" lon="9.6160312"><ele>59.0</ele><time>2026-04-08T08:50:50.944Z</time></trkpt><trkpt lat="45.155811" lon="9.6157444"><ele>59.5</ele><time>2026-04-08T08:50:51.944Z</time></trkpt><trkpt lat="45.1560128" lon="9.6154603"><ele>60.0</ele><time>2026-04-08T08:50:52.943Z</time></trkpt><trkpt lat="45.1562155" lon="9.615172"><ele>60.5</ele><time>2026-04-08T08:50:53.943Z</time></trkpt><trkpt lat="45.1564178" lon="9.6148894"><ele>61.0</ele><time>2026-04-08T08:50:54.944Z</time></trkpt><trkpt lat="45.1566219" lon="9.6146058"><ele>60.0</ele><time>2026-04-08T08:50:55.943Z</time></trkpt><trkpt lat="45.1568247" lon="9.6143232"><ele>59.0</ele><time>2026-04-08T08:50:56.944Z</time></trkpt><trkpt lat="45.1570304" lon="9.6140376"><ele>59.0</ele><time>2026-04-08T08:50:57.943Z</time></trkpt><trkpt lat="45.1572353" lon="9.6137527"><ele>59.0</ele><time>2026-04-08T08:50:58.943Z</time></trkpt><trkpt lat="45.1574399" lon="9.6134683"><ele>59.5</ele><time>2026-04-08T08:50:59.943Z</time></trkpt><trkpt lat="45.1576457" lon="9.6131822"><ele>60.0</ele><time>2026-04-08T08:51:00.944Z</time></trkpt><trkpt lat="45.1578523" lon="9.6128957"><ele>60.0</ele><time>2026-04-08T08:51:01.944Z</time></trkpt><trkpt lat="45.1580557" lon="9.6126121"><ele>60.0</ele><time>2026-04-08T08:51:02.943Z</time></trkpt><trkpt lat="45.1582595" lon="9.6123253"><ele>60.0</ele><time>2026-04-08T08:51:03.943Z</time></trkpt><trkpt lat="45.1584626" lon="9.6120382"><ele>60.0</ele><time>2026-04-08T08:51:04.943Z</time></trkpt><trkpt lat="45.1586663" lon="9.611753"><ele>60.0</ele><time>2026-04-08T08:51:05.944Z</time></trkpt><trkpt lat="45.1588706" lon="9.6114691"><ele>60.0</ele><time>2026-04-08T08:51:06.943Z</time></trkpt><trkpt lat="45.1590728" lon="9.6111843"><ele>60.5</ele><time>2026-04-08T08:51:07.943Z</time></trkpt><trkpt lat="45.1592735" lon="9.6109008"><ele>61.0</ele><time>2026-04-08T08:51:08.943Z</time></trkpt><trkpt lat="45.1594779" lon="9.610616"><ele>61.0</ele><time>2026-04-08T08:51:09.944Z</time></trkpt><trkpt lat="45.1596807" lon="9.610331"><ele>61.0</ele><time>2026-04-08T08:51:10.943Z</time></trkpt><trkpt lat="45.1598836" lon="9.6100493"><ele>60.5</ele><time>2026-04-08T08:51:11.944Z</time></trkpt><trkpt lat="45.1600875" lon="9.6097639"><ele>60.0</ele><time>2026-04-08T08:51:12.943Z</time></trkpt><trkpt lat="45.1602903" lon="9.6094805"><ele>61.0</ele><time>2026-04-08T08:51:13.944Z</time></trkpt><trkpt lat="45.160494" lon="9.609197"><ele>62.0</ele><time>2026-04-08T08:51:14.943Z</time></trkpt><trkpt lat="45.1606986" lon="9.6089111"><ele>62.0</ele><time>2026-04-08T08:51:15.943Z</time></trkpt><trkpt lat="45.1609024" lon="9.6086237"><ele>62.0</ele><time>2026-04-08T08:51:16.943Z</time></trkpt><trkpt lat="45.1611058" lon="9.6083358"><ele>62.0</ele><time>2026-04-08T08:51:17.944Z</time></trkpt><trkpt lat="45.1613086" lon="9.608047"><ele>62.0</ele><time>2026-04-08T08:51:18.944Z</time></trkpt><trkpt lat="45.1615137" lon="9.6077585"><ele>62.0</ele><time>2026-04-08T08:51:19.943Z</time></trkpt><trkpt lat="45.1617203" lon="9.6074706"><ele>62.0</ele><time>2026-04-08T08:51:20.943Z</time></trkpt><trkpt lat="45.161928" lon="9.6071861"><ele>62.5</ele><time>2026-04-08T08:51:21.943Z</time></trkpt><trkpt lat="45.1621382" lon="9.6069084"><ele>63.0</ele><time>2026-04-08T08:51:22.943Z</time></trkpt><trkpt lat="45.1623497" lon="9.6066319"><ele>62.5</ele><time>2026-04-08T08:51:23.944Z</time></trkpt><trkpt lat="45.1625615" lon="9.6063533"><ele>62.0</ele><time>2026-04-08T08:51:24.944Z</time></trkpt><trkpt lat="45.1627713" lon="9.6060746"><ele>61.5</ele><time>2026-04-08T08:51:25.944Z</time></trkpt><trkpt lat="45.1629765" lon="9.605799"><ele>61.0</ele><time>2026-04-08T08:51:26.943Z</time></trkpt><trkpt lat="45.1631802" lon="9.6055217"><ele>63.0</ele><time>2026-04-08T08:51:27.943Z</time></trkpt><trkpt lat="45.163383" lon="9.6052389"><ele>65.0</ele><time>2026-04-08T08:51:28.943Z</time></trkpt><trkpt lat="45.1635835" lon="9.604957"><ele>65.0</ele><time>2026-04-08T08:51:29.944Z</time></trkpt><trkpt lat="45.1637828" lon="9.6046733"><ele>65.0</ele><time>2026-04-08T08:51:30.944Z</time></trkpt><trkpt lat="45.1639852" lon="9.6043901"><ele>63.0</ele><time>2026-04-08T08:51:31.943Z</time></trkpt><trkpt lat="45.1641861" lon="9.6041076"><ele>61.0</ele><time>2026-04-08T08:51:32.943Z</time></trkpt><trkpt lat="45.1643902" lon="9.603826"><ele>61.0</ele><time>2026-04-08T08:51:33.943Z</time></trkpt><trkpt lat="45.1645938" lon="9.6035434"><ele>61.0</ele><time>2026-04-08T08:51:34.943Z</time></trkpt><trkpt lat="45.1648004" lon="9.6032636"><ele>60.5</ele><time>2026-04-08T08:51:35.943Z</time></trkpt><trkpt lat="45.1650046" lon="9.6029752"><ele>60.0</ele><time>2026-04-08T08:51:36.943Z</time></trkpt><trkpt lat="45.1652061" lon="9.6026844"><ele>60.0</ele><time>2026-04-08T08:51:37.943Z</time></trkpt><trkpt lat="45.1654075" lon="9.6023952"><ele>60.0</ele><time>2026-04-08T08:51:38.944Z</time></trkpt><trkpt lat="45.1656099" lon="9.6021052"><ele>60.0</ele><time>2026-04-08T08:51:39.943Z</time></trkpt><trkpt lat="45.1658104" lon="9.6018163"><ele>60.0</ele><time>2026-04-08T08:51:40.944Z</time></trkpt><trkpt lat="45.1660097" lon="9.6015248"><ele>60.0</ele><time>2026-04-08T08:51:41.943Z</time></trkpt><trkpt lat="45.1662075" lon="9.6012313"><ele>60.0</ele><time>2026-04-08T08:51:42.943Z</time></trkpt><trkpt lat="45.1664063" lon="9.600936"><ele>60.5</ele><time>2026-04-08T08:51:43.944Z</time></trkpt><trkpt lat="45.1666045" lon="9.6006415"><ele>61.0</ele><time>2026-04-08T08:51:44.943Z</time></trkpt><trkpt lat="45.1668017" lon="9.6003483"><ele>61.5</ele><time>2026-04-08T08:51:45.943Z</time></trkpt><trkpt lat="45.1669977" lon="9.6000538"><ele>62.0</ele><time>2026-04-08T08:51:46.943Z</time></trkpt><trkpt lat="45.167191" lon="9.5997557"><ele>61.0</ele><time>2026-04-08T08:51:47.943Z</time></trkpt><trkpt lat="45.167381" lon="9.5994515"><ele>60.0</ele><time>2026-04-08T08:51:48.943Z</time></trkpt><trkpt lat="45.1675672" lon="9.5991469"><ele>60.0</ele><time>2026-04-08T08:51:49.944Z</time></trkpt><trkpt lat="45.167757" lon="9.59884"><ele>60.0</ele><time>2026-04-08T08:51:50.944Z</time></trkpt><trkpt lat="45.1679467" lon="9.5985352"><ele>60.0</ele><time>2026-04-08T08:51:51.944Z</time></trkpt><trkpt lat="45.1681365" lon="9.5982329"><ele>60.0</ele><time>2026-04-08T08:51:52.943Z</time></trkpt><trkpt lat="45.1683267" lon="9.5979301"><ele>60.5</ele><time>2026-04-08T08:51:53.943Z</time></trkpt><trkpt lat="45.1685177" lon="9.5976252"><ele>61.0</ele><time>2026-04-08T08:51:54.943Z</time></trkpt><trkpt lat="45.1687094" lon="9.5973229"><ele>61.0</ele><time>2026-04-08T08:51:55.944Z</time></trkpt><trkpt lat="45.1688986" lon="9.5970218"><ele>61.0</ele><time>2026-04-08T08:51:56.943Z</time></trkpt><trkpt lat="45.1690891" lon="9.5967178"><ele>62.0</ele><time>2026-04-08T08:51:57.943Z</time></trkpt><trkpt lat="45.1692801" lon="9.5964154"><ele>63.0</ele><time>2026-04-08T08:51:58.943Z</time></trkpt><trkpt lat="45.1694723" lon="9.5961134"><ele>63.0</ele><time>2026-04-08T08:51:59.944Z</time></trkpt><trkpt lat="45.1696645" lon="9.5958125"><ele>63.0</ele><time>2026-04-08T08:52:00.944Z</time></trkpt><trkpt lat="45.1698558" lon="9.5955111"><ele>65.0</ele><time>2026-04-08T08:52:01.944Z</time></trkpt><trkpt lat="45.1700478" lon="9.5952101"><ele>67.0</ele><time>2026-04-08T08:52:02.944Z</time></trkpt><trkpt lat="45.1702403" lon="9.5949104"><ele>67.0</ele><time>2026-04-08T08:52:03.943Z</time></trkpt><trkpt lat="45.1704326" lon="9.5946078"><ele>67.0</ele><time>2026-04-08T08:52:04.943Z</time></trkpt><trkpt lat="45.1706295" lon="9.5943066"><ele>66.5</ele><time>2026-04-08T08:52:05.944Z</time></trkpt><trkpt lat="45.1708222" lon="9.5940042"><ele>66.0</ele><time>2026-04-08T08:52:06.943Z</time></trkpt><trkpt lat="45.171016" lon="9.5937033"><ele>66.0</ele><time>2026-04-08T08:52:07.944Z</time></trkpt><trkpt lat="45.1712098" lon="9.5934015"><ele>66.0</ele><time>2026-04-08T08:52:08.943Z</time></trkpt><trkpt lat="45.1714021" lon="9.5930986"><ele>66.0</ele><time>2026-04-08T08:52:09.943Z</time></trkpt><trkpt lat="45.1715936" lon="9.5927958"><ele>66.0</ele><time>2026-04-08T08:52:10.944Z</time></trkpt><trkpt lat="45.1717875" lon="9.5924962"><ele>66.0</ele><time>2026-04-08T08:52:11.944Z</time></trkpt><trkpt lat="45.1719792" lon="9.5921981"><ele>66.0</ele><time>2026-04-08T08:52:12.943Z</time></trkpt><trkpt lat="45.1721706" lon="9.5918988"><ele>64.5</ele><time>2026-04-08T08:52:13.944Z</time></trkpt><trkpt lat="45.1723613" lon="9.5915998"><ele>63.0</ele><time>2026-04-08T08:52:14.944Z</time></trkpt><trkpt lat="45.1725541" lon="9.5912993"><ele>64.0</ele><time>2026-04-08T08:52:15.943Z</time></trkpt><trkpt lat="45.1727468" lon="9.5909989"><ele>65.0</ele><time>2026-04-08T08:52:16.943Z</time></trkpt><trkpt lat="45.1729369" lon="9.5906947"><ele>65.0</ele><time>2026-04-08T08:52:17.943Z</time></trkpt><trkpt lat="45.1731284" lon="9.5903909"><ele>65.0</ele><time>2026-04-08T08:52:18.944Z</time></trkpt><trkpt lat="45.1733227" lon="9.5900885"><ele>65.0</ele><time>2026-04-08T08:52:19.943Z</time></trkpt><trkpt lat="45.1735175" lon="9.5897861"><ele>65.0</ele><time>2026-04-08T08:52:20.943Z</time></trkpt><trkpt lat="45.1737129" lon="9.589483"><ele>64.5</ele><time>2026-04-08T08:52:21.943Z</time></trkpt><trkpt lat="45.1739068" lon="9.589179"><ele>64.0</ele><time>2026-04-08T08:52:22.943Z</time></trkpt><trkpt lat="45.1741015" lon="9.588876"><ele>63.0</ele><time>2026-04-08T08:52:23.943Z</time></trkpt><trkpt lat="45.1742951" lon="9.588573"><ele>62.0</ele><time>2026-04-08T08:52:24.943Z</time></trkpt><trkpt lat="45.1744874" lon="9.588269"><ele>62.0</ele><time>2026-04-08T08:52:25.944Z</time></trkpt><trkpt lat="45.1746801" lon="9.5879691"><ele>62.0</ele><time>2026-04-08T08:52:26.943Z</time></trkpt><trkpt lat="45.1748723" lon="9.5876704"><ele>62.5</ele><time>2026-04-08T08:52:27.943Z</time></trkpt><trkpt lat="45.1750622" lon="9.5873723"><ele>63.0</ele><time>2026-04-08T08:52:28.943Z</time></trkpt><trkpt lat="45.1752504" lon="9.5870745"><ele>63.5</ele><time>2026-04-08T08:52:29.943Z</time></trkpt><trkpt lat="45.1754383" lon="9.5867769"><ele>64.0</ele><time>2026-04-08T08:52:30.943Z</time></trkpt><trkpt lat="45.1756279" lon="9.5864774"><ele>64.0</ele><time>2026-04-08T08:52:31.943Z</time></trkpt><trkpt lat="45.1758192" lon="9.5861801"><ele>64.0</ele><time>2026-04-08T08:52:32.943Z</time></trkpt><trkpt lat="45.1760103" lon="9.5858825"><ele>64.0</ele><time>2026-04-08T08:52:33.943Z</time></trkpt><trkpt lat="45.1762012" lon="9.5855813"><ele>64.0</ele><time>2026-04-08T08:52:34.943Z</time></trkpt><trkpt lat="45.1763934" lon="9.5852801"><ele>63.0</ele><time>2026-04-08T08:52:35.943Z</time></trkpt><trkpt lat="45.1765867" lon="9.5849812"><ele>62.0</ele><time>2026-04-08T08:52:36.944Z</time></trkpt><trkpt lat="45.1767776" lon="9.5846819"><ele>62.5</ele><time>2026-04-08T08:52:37.943Z</time></trkpt><trkpt lat="45.1769701" lon="9.5843823"><ele>63.0</ele><time>2026-04-08T08:52:38.943Z</time></trkpt><trkpt lat="45.1771624" lon="9.5840791"><ele>63.0</ele><time>2026-04-08T08:52:39.943Z</time></trkpt><trkpt lat="45.1773535" lon="9.5837756"><ele>63.0</ele><time>2026-04-08T08:52:40.943Z</time></trkpt><trkpt lat="45.1775451" lon="9.5834721"><ele>64.5</ele><time>2026-04-08T08:52:41.943Z</time></trkpt><trkpt lat="45.1777399" lon="9.5831713"><ele>66.0</ele><time>2026-04-08T08:52:42.943Z</time></trkpt><trkpt lat="45.1779353" lon="9.5828723"><ele>66.0</ele><time>2026-04-08T08:52:43.943Z</time></trkpt><trkpt lat="45.1781295" lon="9.5825739"><ele>66.0</ele><time>2026-04-08T08:52:44.944Z</time></trkpt><trkpt lat="45.1783237" lon="9.5822724"><ele>64.5</ele><time>2026-04-08T08:52:45.943Z</time></trkpt><trkpt lat="45.1785171" lon="9.5819704"><ele>63.0</ele><time>2026-04-08T08:52:46.943Z</time></trkpt><trkpt lat="45.1787117" lon="9.5816693"><ele>63.0</ele><time>2026-04-08T08:52:47.943Z</time></trkpt><trkpt lat="45.1789045" lon="9.5813641"><ele>63.0</ele><time>2026-04-08T08:52:48.944Z</time></trkpt><trkpt lat="45.1790971" lon="9.581058"><ele>62.5</ele><time>2026-04-08T08:52:49.944Z</time></trkpt><trkpt lat="45.1792885" lon="9.5807538"><ele>62.0</ele><time>2026-04-08T08:52:50.943Z</time></trkpt><trkpt lat="45.1794802" lon="9.5804505"><ele>62.5</ele><time>2026-04-08T08:52:51.943Z</time></trkpt><trkpt lat="45.1796717" lon="9.5801478"><ele>63.0</ele><time>2026-04-08T08:52:52.943Z</time></trkpt><trkpt lat="45.1798644" lon="9.5798495"><ele>63.0</ele><time>2026-04-08T08:52:53.944Z</time></trkpt><trkpt lat="45.1800564" lon="9.5795484"><ele>63.0</ele><time>2026-04-08T08:52:54.943Z</time></trkpt><trkpt lat="45.1802482" lon="9.5792476"><ele>64.0</ele><time>2026-04-08T08:52:55.943Z</time></trkpt><trkpt lat="45.1804387" lon="9.5789452"><ele>65.0</ele><time>2026-04-08T08:52:56.943Z</time></trkpt><trkpt lat="45.1806312" lon="9.57864"><ele>63.5</ele><time>2026-04-08T08:52:57.943Z</time></trkpt><trkpt lat="45.1808223" lon="9.5783394"><ele>62.0</ele><time>2026-04-08T08:52:58.944Z</time></trkpt><trkpt lat="45.1810171" lon="9.5780404"><ele>62.5</ele><time>2026-04-08T08:52:59.943Z</time></trkpt><trkpt lat="45.1812117" lon="9.5777434"><ele>63.0</ele><time>2026-04-08T08:53:00.943Z</time></trkpt><trkpt lat="45.1814043" lon="9.5774463"><ele>63.0</ele><time>2026-04-08T08:53:01.943Z</time></trkpt><trkpt lat="45.1815945" lon="9.5771476"><ele>63.0</ele><time>2026-04-08T08:53:02.944Z</time></trkpt><trkpt lat="45.1817821" lon="9.5768485"><ele>63.0</ele><time>2026-04-08T08:53:03.943Z</time></trkpt><trkpt lat="45.1819697" lon="9.5765477"><ele>63.0</ele><time>2026-04-08T08:53:04.943Z</time></trkpt><trkpt lat="45.1821589" lon="9.576248"><ele>62.5</ele><time>2026-04-08T08:53:05.943Z</time></trkpt><trkpt lat="45.1823478" lon="9.5759465"><ele>62.0</ele><time>2026-04-08T08:53:06.944Z</time></trkpt><trkpt lat="45.182539" lon="9.5756478"><ele>62.0</ele><time>2026-04-08T08:53:07.943Z</time></trkpt><trkpt lat="45.1827319" lon="9.5753487"><ele>62.0</ele><time>2026-04-08T08:53:08.943Z</time></trkpt><trkpt lat="45.182925" lon="9.5750489"><ele>62.0</ele><time>2026-04-08T08:53:09.943Z</time></trkpt><trkpt lat="45.1831203" lon="9.5747466"><ele>62.0</ele><time>2026-04-08T08:53:10.943Z</time></trkpt><trkpt lat="45.1833121" lon="9.5744438"><ele>62.0</ele><time>2026-04-08T08:53:11.943Z</time></trkpt><trkpt lat="45.1835049" lon="9.5741399"><ele>62.0</ele><time>2026-04-08T08:53:12.943Z</time></trkpt><trkpt lat="45.183699" lon="9.5738347"><ele>62.0</ele><time>2026-04-08T08:53:13.943Z</time></trkpt><trkpt lat="45.1838939" lon="9.5735354"><ele>62.0</ele><time>2026-04-08T08:53:14.943Z</time></trkpt><trkpt lat="45.1840904" lon="9.5732348"><ele>62.0</ele><time>2026-04-08T08:53:15.944Z</time></trkpt><trkpt lat="45.1842851" lon="9.5729347"><ele>62.0</ele><time>2026-04-08T08:53:16.943Z</time></trkpt><trkpt lat="45.184476" lon="9.5726341"><ele>62.0</ele><time>2026-04-08T08:53:17.944Z</time></trkpt><trkpt lat="45.1846642" lon="9.5723314"><ele>62.0</ele><time>2026-04-08T08:53:18.943Z</time></trkpt><trkpt lat="45.1848567" lon="9.5720334"><ele>61.0</ele><time>2026-04-08T08:53:19.944Z</time></trkpt><trkpt lat="45.1850475" lon="9.5717328"><ele>60.0</ele><time>2026-04-08T08:53:20.943Z</time></trkpt><trkpt lat="45.1852381" lon="9.5714323"><ele>61.0</ele><time>2026-04-08T08:53:21.943Z</time></trkpt><trkpt lat="45.1854276" lon="9.5711305"><ele>62.0</ele><time>2026-04-08T08:53:22.944Z</time></trkpt><trkpt lat="45.1856194" lon="9.5708305"><ele>62.5</ele><time>2026-04-08T08:53:23.943Z</time></trkpt><trkpt lat="45.1858134" lon="9.5705296"><ele>63.0</ele><time>2026-04-08T08:53:24.943Z</time></trkpt><trkpt lat="45.1860063" lon="9.5702315"><ele>63.0</ele><time>2026-04-08T08:53:25.943Z</time></trkpt><trkpt lat="45.1861978" lon="9.5699333"><ele>63.0</ele><time>2026-04-08T08:53:26.944Z</time></trkpt><trkpt lat="45.1863896" lon="9.5696332"><ele>62.5</ele><time>2026-04-08T08:53:27.943Z</time></trkpt><trkpt lat="45.1865828" lon="9.5693343"><ele>62.0</ele><time>2026-04-08T08:53:28.944Z</time></trkpt><trkpt lat="45.1867743" lon="9.5690329"><ele>62.0</ele><time>2026-04-08T08:53:29.944Z</time></trkpt><trkpt lat="45.1869652" lon="9.5687309"><ele>62.0</ele><time>2026-04-08T08:53:30.943Z</time></trkpt><trkpt lat="45.1871561" lon="9.5684288"><ele>62.0</ele><time>2026-04-08T08:53:31.944Z</time></trkpt><trkpt lat="45.1873474" lon="9.5681241"><ele>62.0</ele><time>2026-04-08T08:53:32.943Z</time></trkpt><trkpt lat="45.1875376" lon="9.5678218"><ele>62.0</ele><time>2026-04-08T08:53:33.944Z</time></trkpt><trkpt lat="45.18773" lon="9.5675228"><ele>62.0</ele><time>2026-04-08T08:53:34.944Z</time></trkpt><trkpt lat="45.1879224" lon="9.567223"><ele>61.5</ele><time>2026-04-08T08:53:35.943Z</time></trkpt><trkpt lat="45.188117" lon="9.5669213"><ele>61.0</ele><time>2026-04-08T08:53:36.943Z</time></trkpt><trkpt lat="45.1883111" lon="9.5666227"><ele>62.0</ele><time>2026-04-08T08:53:37.943Z</time></trkpt><trkpt lat="45.1885055" lon="9.5663207"><ele>63.0</ele><time>2026-04-08T08:53:38.944Z</time></trkpt><trkpt lat="45.1886968" lon="9.5660198"><ele>63.5</ele><time>2026-04-08T08:53:39.943Z</time></trkpt><trkpt lat="45.1888891" lon="9.5657156"><ele>64.0</ele><time>2026-04-08T08:53:40.943Z</time></trkpt><trkpt lat="45.1890804" lon="9.5654138"><ele>63.0</ele><time>2026-04-08T08:53:41.943Z</time></trkpt><trkpt lat="45.189272" lon="9.5651109"><ele>62.0</ele><time>2026-04-08T08:53:42.943Z</time></trkpt><trkpt lat="45.189464" lon="9.5648108"><ele>62.0</ele><time>2026-04-08T08:53:43.943Z</time></trkpt><trkpt lat="45.1896529" lon="9.5645108"><ele>62.0</ele><time>2026-04-08T08:53:44.943Z</time></trkpt><trkpt lat="45.1898445" lon="9.5642102"><ele>62.0</ele><time>2026-04-08T08:53:45.943Z</time></trkpt><trkpt lat="45.1900397" lon="9.5639068"><ele>62.0</ele><time>2026-04-08T08:53:46.943Z</time></trkpt><trkpt lat="45.190234" lon="9.5636024"><ele>62.0</ele><time>2026-04-08T08:53:47.943Z</time></trkpt><trkpt lat="45.1904248" lon="9.5632993"><ele>62.0</ele><time>2026-04-08T08:53:48.944Z</time></trkpt><trkpt lat="45.190618" lon="9.5630003"><ele>62.0</ele><time>2026-04-08T08:53:49.943Z</time></trkpt><trkpt lat="45.1908137" lon="9.5627042"><ele>62.0</ele><time>2026-04-08T08:53:50.944Z</time></trkpt><trkpt lat="45.1910144" lon="9.5624113"><ele>62.0</ele><time>2026-04-08T08:53:51.944Z</time></trkpt><trkpt lat="45.1912138" lon="9.5621215"><ele>62.0</ele><time>2026-04-08T08:53:52.943Z</time></trkpt><trkpt lat="45.1914097" lon="9.5618276"><ele>62.0</ele><time>2026-04-08T08:53:53.943Z</time></trkpt><trkpt lat="45.1916065" lon="9.5615328"><ele>62.0</ele><time>2026-04-08T08:53:54.943Z</time></trkpt><trkpt lat="45.1918055" lon="9.5612402"><ele>61.5</ele><time>2026-04-08T08:53:55.943Z</time></trkpt><trkpt lat="45.1920059" lon="9.5609506"><ele>61.0</ele><time>2026-04-08T08:53:56.943Z</time></trkpt><trkpt lat="45.1922051" lon="9.5606625"><ele>61.5</ele><time>2026-04-08T08:53:57.943Z</time></trkpt><trkpt lat="45.1924063" lon="9.560372"><ele>62.0</ele><time>2026-04-08T08:53:58.944Z</time></trkpt><trkpt lat="45.1926051" lon="9.560082"><ele>62.0</ele><time>2026-04-08T08:53:59.943Z</time></trkpt><trkpt lat="45.1928083" lon="9.5597958"><ele>62.0</ele><time>2026-04-08T08:54:00.944Z</time></trkpt><trkpt lat="45.1930137" lon="9.5595099"><ele>62.0</ele><time>2026-04-08T08:54:01.944Z</time></trkpt><trkpt lat="45.1932151" lon="9.5592243"><ele>62.0</ele><time>2026-04-08T08:54:02.943Z</time></trkpt><trkpt lat="45.1934179" lon="9.558936"><ele>62.5</ele><time>2026-04-08T08:54:03.943Z</time></trkpt><trkpt lat="45.1936244" lon="9.5586507"><ele>63.0</ele><time>2026-04-08T08:54:04.943Z</time></trkpt><trkpt lat="45.1938262" lon="9.5583653"><ele>63.0</ele><time>2026-04-08T08:54:05.944Z</time></trkpt><trkpt lat="45.1940309" lon="9.5580804"><ele>63.0</ele><time>2026-04-08T08:54:06.943Z</time></trkpt><trkpt lat="45.1942384" lon="9.5577977"><ele>63.0</ele><time>2026-04-08T08:54:07.944Z</time></trkpt><trkpt lat="45.1944458" lon="9.5575177"><ele>63.0</ele><time>2026-04-08T08:54:08.943Z</time></trkpt><trkpt lat="45.1946523" lon="9.5572392"><ele>62.5</ele><time>2026-04-08T08:54:09.943Z</time></trkpt><trkpt lat="45.1948604" lon="9.5569609"><ele>62.0</ele><time>2026-04-08T08:54:10.943Z</time></trkpt><trkpt lat="45.1950703" lon="9.5566862"><ele>62.0</ele><time>2026-04-08T08:54:11.943Z</time></trkpt><trkpt lat="45.1952827" lon="9.5564124"><ele>62.0</ele><time>2026-04-08T08:54:12.944Z</time></trkpt><trkpt lat="45.1954943" lon="9.5561366"><ele>61.5</ele><time>2026-04-08T08:54:13.944Z</time></trkpt><trkpt lat="45.1957034" lon="9.5558611"><ele>61.0</ele><time>2026-04-08T08:54:14.943Z</time></trkpt><trkpt lat="45.1959144" lon="9.5555855"><ele>62.0</ele><time>2026-04-08T08:54:15.943Z</time></trkpt><trkpt lat="45.1961235" lon="9.5553089"><ele>63.0</ele><time>2026-04-08T08:54:16.943Z</time></trkpt><trkpt lat="45.1963329" lon="9.5550354"><ele>63.0</ele><time>2026-04-08T08:54:17.943Z</time></trkpt><trkpt lat="45.1965428" lon="9.5547584"><ele>63.0</ele><time>2026-04-08T08:54:18.944Z</time></trkpt><trkpt lat="45.1967525" lon="9.5544827"><ele>63.0</ele><time>2026-04-08T08:54:19.943Z</time></trkpt><trkpt lat="45.1969641" lon="9.554207"><ele>63.0</ele><time>2026-04-08T08:54:20.944Z</time></trkpt><trkpt lat="45.1971749" lon="9.5539317"><ele>62.5</ele><time>2026-04-08T08:54:21.943Z</time></trkpt><trkpt lat="45.1973844" lon="9.5536537"><ele>62.0</ele><time>2026-04-08T08:54:22.944Z</time></trkpt><trkpt lat="45.1975928" lon="9.5533739"><ele>62.0</ele><time>2026-04-08T08:54:23.943Z</time></trkpt><trkpt lat="45.1978013" lon="9.5530965"><ele>62.0</ele><time>2026-04-08T08:54:24.943Z</time></trkpt><trkpt lat="45.1980109" lon="9.5528203"><ele>63.5</ele><time>2026-04-08T08:54:25.943Z</time></trkpt><trkpt lat="45.1982212" lon="9.5525449"><ele>65.0</ele><time>2026-04-08T08:54:26.943Z</time></trkpt><trkpt lat="45.198433" lon="9.5522668"><ele>65.0</ele><time>2026-04-08T08:54:27.944Z</time></trkpt><trkpt lat="45.1986431" lon="9.5519905"><ele>65.0</ele><time>2026-04-08T08:54:28.943Z</time></trkpt><trkpt lat="45.1988502" lon="9.551714"><ele>63.5</ele><time>2026-04-08T08:54:29.944Z</time></trkpt><trkpt lat="45.1990603" lon="9.5514348"><ele>62.0</ele><time>2026-04-08T08:54:30.943Z</time></trkpt><trkpt lat="45.1992711" lon="9.5511572"><ele>62.0</ele><time>2026-04-08T08:54:31.943Z</time></trkpt><trkpt lat="45.1994826" lon="9.5508806"><ele>62.0</ele><time>2026-04-08T08:54:32.944Z</time></trkpt><trkpt lat="45.1996943" lon="9.5506053"><ele>62.0</ele><time>2026-04-08T08:54:33.943Z</time></trkpt><trkpt lat="45.1999043" lon="9.5503303"><ele>62.0</ele><time>2026-04-08T08:54:34.944Z</time></trkpt><trkpt lat="45.2001158" lon="9.5500589"><ele>62.0</ele><time>2026-04-08T08:54:35.943Z</time></trkpt><trkpt lat="45.2003244" lon="9.5497834"><ele>62.0</ele><time>2026-04-08T08:54:36.943Z</time></trkpt><trkpt lat="45.2005338" lon="9.5495086"><ele>62.5</ele><time>2026-04-08T08:54:37.944Z</time></trkpt><trkpt lat="45.2007433" lon="9.5492354"><ele>63.0</ele><time>2026-04-08T08:54:38.943Z</time></trkpt><trkpt lat="45.2009519" lon="9.5489583"><ele>63.0</ele><time>2026-04-08T08:54:39.943Z</time></trkpt><trkpt lat="45.2011599" lon="9.5486831"><ele>63.0</ele><time>2026-04-08T08:54:40.943Z</time></trkpt><trkpt lat="45.2013679" lon="9.5484045"><ele>62.5</ele><time>2026-04-08T08:54:41.943Z</time></trkpt><trkpt lat="45.2015769" lon="9.5481282"><ele>62.0</ele><time>2026-04-08T08:54:42.944Z</time></trkpt><trkpt lat="45.2017856" lon="9.5478526"><ele>62.0</ele><time>2026-04-08T08:54:43.943Z</time></trkpt><trkpt lat="45.2019954" lon="9.5475763"><ele>62.0</ele><time>2026-04-08T08:54:44.943Z</time></trkpt><trkpt lat="45.2022079" lon="9.5472984"><ele>63.0</ele><time>2026-04-08T08:54:45.943Z</time></trkpt><trkpt lat="45.2024206" lon="9.5470246"><ele>64.0</ele><time>2026-04-08T08:54:46.943Z</time></trkpt><trkpt lat="45.2026283" lon="9.5467581"><ele>64.0</ele><time>2026-04-08T08:54:47.943Z</time></trkpt><trkpt lat="45.2028309" lon="9.5464965"><ele>64.0</ele><time>2026-04-08T08:54:48.944Z</time></trkpt><trkpt lat="45.2030278" lon="9.5462338"><ele>64.0</ele><time>2026-04-08T08:54:49.943Z</time></trkpt><trkpt lat="45.2032249" lon="9.5459658"><ele>64.0</ele><time>2026-04-08T08:54:50.944Z</time></trkpt><trkpt lat="45.2034188" lon="9.5456895"><ele>64.0</ele><time>2026-04-08T08:54:51.943Z</time></trkpt><trkpt lat="45.2036111" lon="9.5454114"><ele>64.0</ele><time>2026-04-08T08:54:52.943Z</time></trkpt><trkpt lat="45.2038079" lon="9.5451393"><ele>63.0</ele><time>2026-04-08T08:54:53.943Z</time></trkpt><trkpt lat="45.2040063" lon="9.5448734"><ele>62.0</ele><time>2026-04-08T08:54:54.943Z</time></trkpt><trkpt lat="45.2042072" lon="9.5446125"><ele>62.0</ele><time>2026-04-08T08:54:55.944Z</time></trkpt><trkpt lat="45.2044086" lon="9.5443482"><ele>62.0</ele><time>2026-04-08T08:54:56.944Z</time></trkpt><trkpt lat="45.2046077" lon="9.5440853"><ele>62.0</ele><time>2026-04-08T08:54:57.944Z</time></trkpt><trkpt lat="45.2048083" lon="9.5438259"><ele>62.0</ele><time>2026-04-08T08:54:58.943Z</time></trkpt><trkpt lat="45.205008" lon="9.5435671"><ele>62.5</ele><time>2026-04-08T08:54:59.943Z</time></trkpt><trkpt lat="45.2052094" lon="9.5433107"><ele>63.0</ele><time>2026-04-08T08:55:00.943Z</time></trkpt><trkpt lat="45.2054149" lon="9.5430569"><ele>64.0</ele><time>2026-04-08T08:55:01.943Z</time></trkpt><trkpt lat="45.2056204" lon="9.5428011"><ele>65.0</ele><time>2026-04-08T08:55:02.943Z</time></trkpt><trkpt lat="45.2058263" lon="9.5425414"><ele>65.0</ele><time>2026-04-08T08:55:03.944Z</time></trkpt><trkpt lat="45.2060346" lon="9.5422706"><ele>65.0</ele><time>2026-04-08T08:55:04.943Z</time></trkpt><trkpt lat="45.2062417" lon="9.5420012"><ele>65.0</ele><time>2026-04-08T08:55:05.943Z</time></trkpt><trkpt lat="45.2064501" lon="9.5417303"><ele>65.0</ele><time>2026-04-08T08:55:06.943Z</time></trkpt><trkpt lat="45.2066607" lon="9.5414571"><ele>64.0</ele><time>2026-04-08T08:55:07.943Z</time></trkpt><trkpt lat="45.2068694" lon="9.5411838"><ele>63.0</ele><time>2026-04-08T08:55:08.943Z</time></trkpt><trkpt lat="45.2070797" lon="9.5409096"><ele>63.0</ele><time>2026-04-08T08:55:09.943Z</time></trkpt><trkpt lat="45.2072905" lon="9.5406356"><ele>63.0</ele><time>2026-04-08T08:55:10.944Z</time></trkpt><trkpt lat="45.2075003" lon="9.5403605"><ele>64.0</ele><time>2026-04-08T08:55:11.943Z</time></trkpt><trkpt lat="45.2077123" lon="9.5400865"><ele>65.0</ele><time>2026-04-08T08:55:12.943Z</time></trkpt><trkpt lat="45.2079206" lon="9.5398077"><ele>64.5</ele><time>2026-04-08T08:55:13.943Z</time></trkpt><trkpt lat="45.2081314" lon="9.5395289"><ele>64.0</ele><time>2026-04-08T08:55:14.944Z</time></trkpt><trkpt lat="45.2083399" lon="9.539251"><ele>64.0</ele><time>2026-04-08T08:55:15.943Z</time></trkpt><trkpt lat="45.2085497" lon="9.5389752"><ele>64.0</ele><time>2026-04-08T08:55:16.943Z</time></trkpt><trkpt lat="45.208762" lon="9.5386962"><ele>64.0</ele><time>2026-04-08T08:55:17.944Z</time></trkpt><trkpt lat="45.208972" lon="9.5384198"><ele>64.0</ele><time>2026-04-08T08:55:18.943Z</time></trkpt><trkpt lat="45.2091815" lon="9.5381427"><ele>64.5</ele><time>2026-04-08T08:55:19.944Z</time></trkpt><trkpt lat="45.2093929" lon="9.5378663"><ele>65.0</ele><time>2026-04-08T08:55:20.944Z</time></trkpt><trkpt lat="45.2096038" lon="9.5375898"><ele>65.0</ele><time>2026-04-08T08:55:21.943Z</time></trkpt><trkpt lat="45.2098159" lon="9.5373137"><ele>65.0</ele><time>2026-04-08T08:55:22.943Z</time></trkpt><trkpt lat="45.2100265" lon="9.5370369"><ele>64.5</ele><time>2026-04-08T08:55:23.943Z</time></trkpt><trkpt lat="45.210239" lon="9.5367643"><ele>64.0</ele><time>2026-04-08T08:55:24.944Z</time></trkpt><trkpt lat="45.2104483" lon="9.5364895"><ele>64.0</ele><time>2026-04-08T08:55:25.943Z</time></trkpt><trkpt lat="45.2106591" lon="9.5362134"><ele>64.0</ele><time>2026-04-08T08:55:26.943Z</time></trkpt><trkpt lat="45.2108688" lon="9.5359382"><ele>64.0</ele><time>2026-04-08T08:55:27.943Z</time></trkpt><trkpt lat="45.2110815" lon="9.5356623"><ele>64.0</ele><time>2026-04-08T08:55:28.943Z</time></trkpt><trkpt lat="45.2112925" lon="9.5353864"><ele>64.5</ele><time>2026-04-08T08:55:29.943Z</time></trkpt><trkpt lat="45.211503" lon="9.5351081"><ele>65.0</ele><time>2026-04-08T08:55:30.943Z</time></trkpt><trkpt lat="45.2117106" lon="9.5348333"><ele>65.0</ele><time>2026-04-08T08:55:31.944Z</time></trkpt><trkpt lat="45.2119212" lon="9.5345563"><ele>65.0</ele><time>2026-04-08T08:55:32.943Z</time></trkpt><trkpt lat="45.2121316" lon="9.5342808"><ele>64.5</ele><time>2026-04-08T08:55:33.943Z</time></trkpt><trkpt lat="45.2123397" lon="9.5340066"><ele>64.0</ele><time>2026-04-08T08:55:34.943Z</time></trkpt><trkpt lat="45.2125512" lon="9.5337334"><ele>64.5</ele><time>2026-04-08T08:55:35.944Z</time></trkpt><trkpt lat="45.2127595" lon="9.5334568"><ele>65.0</ele><time>2026-04-08T08:55:36.943Z</time></trkpt><trkpt lat="45.212969" lon="9.5331774"><ele>64.5</ele><time>2026-04-08T08:55:37.944Z</time></trkpt><trkpt lat="45.2131807" lon="9.532902"><ele>64.0</ele><time>2026-04-08T08:55:38.944Z</time></trkpt><trkpt lat="45.2133941" lon="9.5326278"><ele>64.0</ele><time>2026-04-08T08:55:39.944Z</time></trkpt><trkpt lat="45.2136056" lon="9.5323552"><ele>64.0</ele><time>2026-04-08T08:55:40.943Z</time></trkpt><trkpt lat="45.213815" lon="9.5320792"><ele>63.5</ele><time>2026-04-08T08:55:41.943Z</time></trkpt><trkpt lat="45.2140245" lon="9.5318019"><ele>63.0</ele><time>2026-04-08T08:55:42.943Z</time></trkpt><trkpt lat="45.214232" lon="9.5315284"><ele>63.0</ele><time>2026-04-08T08:55:43.943Z</time></trkpt><trkpt lat="45.2144424" lon="9.5312517"><ele>63.0</ele><time>2026-04-08T08:55:44.943Z</time></trkpt><trkpt lat="45.2146519" lon="9.5309794"><ele>63.0</ele><time>2026-04-08T08:55:45.943Z</time></trkpt><trkpt lat="45.214866" lon="9.5307131"><ele>63.0</ele><time>2026-04-08T08:55:46.943Z</time></trkpt><trkpt lat="45.2150813" lon="9.5304446"><ele>63.5</ele><time>2026-04-08T08:55:47.944Z</time></trkpt><trkpt lat="45.2152945" lon="9.5301744"><ele>64.0</ele><time>2026-04-08T08:55:48.944Z</time></trkpt><trkpt lat="45.2155057" lon="9.5299016"><ele>64.5</ele><time>2026-04-08T08:55:49.943Z</time></trkpt><trkpt lat="45.2157139" lon="9.5296269"><ele>65.0</ele><time>2026-04-08T08:55:50.943Z</time></trkpt><trkpt lat="45.2159249" lon="9.5293504"><ele>66.5</ele><time>2026-04-08T08:55:51.943Z</time></trkpt><trkpt lat="45.2161367" lon="9.5290755"><ele>68.0</ele><time>2026-04-08T08:55:52.944Z</time></trkpt><trkpt lat="45.2163477" lon="9.5287989"><ele>66.5</ele><time>2026-04-08T08:55:53.943Z</time></trkpt><trkpt lat="45.2165605" lon="9.5285191"><ele>65.0</ele><time>2026-04-08T08:55:54.943Z</time></trkpt><trkpt lat="45.2167719" lon="9.5282386"><ele>65.0</ele><time>2026-04-08T08:55:55.944Z</time></trkpt><trkpt lat="45.2169832" lon="9.5279597"><ele>65.0</ele><time>2026-04-08T08:55:56.944Z</time></trkpt><trkpt lat="45.2171928" lon="9.5276835"><ele>65.0</ele><time>2026-04-08T08:55:57.944Z</time></trkpt><trkpt lat="45.2174001" lon="9.5274045"><ele>65.0</ele><time>2026-04-08T08:55:58.943Z</time></trkpt><trkpt lat="45.21761" lon="9.5271265"><ele>65.0</ele><time>2026-04-08T08:55:59.944Z</time></trkpt><trkpt lat="45.2178144" lon="9.526841"><ele>65.0</ele><time>2026-04-08T08:56:00.943Z</time></trkpt><trkpt lat="45.2180189" lon="9.5265579"><ele>65.5</ele><time>2026-04-08T08:56:01.943Z</time></trkpt><trkpt lat="45.2182251" lon="9.5262783"><ele>66.0</ele><time>2026-04-08T08:56:02.943Z</time></trkpt><trkpt lat="45.2184322" lon="9.5260005"><ele>66.0</ele><time>2026-04-08T08:56:03.943Z</time></trkpt><trkpt lat="45.21864" lon="9.5257192"><ele>66.0</ele><time>2026-04-08T08:56:04.944Z</time></trkpt><trkpt lat="45.2188515" lon="9.5254398"><ele>65.5</ele><time>2026-04-08T08:56:05.943Z</time></trkpt><trkpt lat="45.2190604" lon="9.5251634"><ele>65.0</ele><time>2026-04-08T08:56:06.943Z</time></trkpt><trkpt lat="45.2192713" lon="9.5248863"><ele>65.0</ele><time>2026-04-08T08:56:07.943Z</time></trkpt><trkpt lat="45.2194822" lon="9.5246071"><ele>65.0</ele><time>2026-04-08T08:56:08.943Z</time></trkpt><trkpt lat="45.2196916" lon="9.524331"><ele>65.0</ele><time>2026-04-08T08:56:09.944Z</time></trkpt><trkpt lat="45.2199006" lon="9.5240537"><ele>65.0</ele><time>2026-04-08T08:56:10.943Z</time></trkpt><trkpt lat="45.2201106" lon="9.5237814"><ele>65.5</ele><time>2026-04-08T08:56:11.943Z</time></trkpt><trkpt lat="45.220321" lon="9.5235074"><ele>66.0</ele><time>2026-04-08T08:56:12.944Z</time></trkpt><trkpt lat="45.2205314" lon="9.5232326"><ele>66.0</ele><time>2026-04-08T08:56:13.944Z</time></trkpt><trkpt lat="45.2207416" lon="9.5229575"><ele>66.0</ele><time>2026-04-08T08:56:14.943Z</time></trkpt><trkpt lat="45.2209517" lon="9.5226807"><ele>66.0</ele><time>2026-04-08T08:56:15.943Z</time></trkpt><trkpt lat="45.2211605" lon="9.5224041"><ele>66.0</ele><time>2026-04-08T08:56:16.943Z</time></trkpt><trkpt lat="45.2213697" lon="9.5221247"><ele>66.5</ele><time>2026-04-08T08:56:17.943Z</time></trkpt><trkpt lat="45.2215791" lon="9.5218484"><ele>67.0</ele><time>2026-04-08T08:56:18.943Z</time></trkpt><trkpt lat="45.2217878" lon="9.5215714"><ele>67.0</ele><time>2026-04-08T08:56:19.944Z</time></trkpt><trkpt lat="45.2219949" lon="9.5212941"><ele>67.0</ele><time>2026-04-08T08:56:20.943Z</time></trkpt><trkpt lat="45.2222041" lon="9.5210168"><ele>66.5</ele><time>2026-04-08T08:56:21.944Z</time></trkpt><trkpt lat="45.2224153" lon="9.5207419"><ele>66.0</ele><time>2026-04-08T08:56:22.944Z</time></trkpt><trkpt lat="45.2226271" lon="9.5204676"><ele>65.5</ele><time>2026-04-08T08:56:23.943Z</time></trkpt><trkpt lat="45.2228366" lon="9.5201899"><ele>65.0</ele><time>2026-04-08T08:56:24.943Z</time></trkpt><trkpt lat="45.2230458" lon="9.5199136"><ele>65.0</ele><time>2026-04-08T08:56:25.944Z</time></trkpt><trkpt lat="45.2232558" lon="9.5196406"><ele>65.0</ele><time>2026-04-08T08:56:26.943Z</time></trkpt><trkpt lat="45.2234635" lon="9.5193643"><ele>66.0</ele><time>2026-04-08T08:56:27.943Z</time></trkpt><trkpt lat="45.2236737" lon="9.5190889"><ele>67.0</ele><time>2026-04-08T08:56:28.943Z</time></trkpt><trkpt lat="45.2238828" lon="9.5188129"><ele>67.5</ele><time>2026-04-08T08:56:29.943Z</time></trkpt><trkpt lat="45.224093" lon="9.5185369"><ele>68.0</ele><time>2026-04-08T08:56:30.943Z</time></trkpt><trkpt lat="45.2243044" lon="9.5182651"><ele>68.0</ele><time>2026-04-08T08:56:31.944Z</time></trkpt><trkpt lat="45.2245166" lon="9.5179913"><ele>68.0</ele><time>2026-04-08T08:56:32.943Z</time></trkpt><trkpt lat="45.2247282" lon="9.5177173"><ele>66.5</ele><time>2026-04-08T08:56:33.943Z</time></trkpt><trkpt lat="45.2249401" lon="9.5174445"><ele>65.0</ele><time>2026-04-08T08:56:34.943Z</time></trkpt><trkpt lat="45.2251519" lon="9.5171675"><ele>65.5</ele><time>2026-04-08T08:56:35.944Z</time></trkpt><trkpt lat="45.2253616" lon="9.5168876"><ele>66.0</ele><time>2026-04-08T08:56:36.943Z</time></trkpt><trkpt lat="45.2255707" lon="9.516609"><ele>65.5</ele><time>2026-04-08T08:56:37.943Z</time></trkpt><trkpt lat="45.2257807" lon="9.5163278"><ele>65.0</ele><time>2026-04-08T08:56:38.944Z</time></trkpt><trkpt lat="45.2259914" lon="9.51605"><ele>66.0</ele><time>2026-04-08T08:56:39.943Z</time></trkpt><trkpt lat="45.2261992" lon="9.5157732"><ele>67.0</ele><time>2026-04-08T08:56:40.944Z</time></trkpt><trkpt lat="45.2264118" lon="9.5154985"><ele>66.5</ele><time>2026-04-08T08:56:41.943Z</time></trkpt><trkpt lat="45.2266205" lon="9.5152201"><ele>66.0</ele><time>2026-04-08T08:56:42.944Z</time></trkpt><trkpt lat="45.2268313" lon="9.5149446"><ele>66.0</ele><time>2026-04-08T08:56:43.943Z</time></trkpt><trkpt lat="45.2270426" lon="9.5146661"><ele>66.0</ele><time>2026-04-08T08:56:44.943Z</time></trkpt><trkpt lat="45.2272549" lon="9.5143886"><ele>66.0</ele><time>2026-04-08T08:56:45.943Z</time></trkpt><trkpt lat="45.227466" lon="9.5141131"><ele>66.0</ele><time>2026-04-08T08:56:46.943Z</time></trkpt><trkpt lat="45.2276759" lon="9.513835"><ele>66.0</ele><time>2026-04-08T08:56:47.943Z</time></trkpt><trkpt lat="45.2278854" lon="9.5135597"><ele>66.0</ele><time>2026-04-08T08:56:48.943Z</time></trkpt><trkpt lat="45.2280957" lon="9.513284"><ele>67.0</ele><time>2026-04-08T08:56:49.943Z</time></trkpt><trkpt lat="45.2283069" lon="9.5130152"><ele>68.0</ele><time>2026-04-08T08:56:50.943Z</time></trkpt><trkpt lat="45.2285157" lon="9.5127419"><ele>68.5</ele><time>2026-04-08T08:56:51.943Z</time></trkpt><trkpt lat="45.2287228" lon="9.5124666"><ele>69.0</ele><time>2026-04-08T08:56:52.943Z</time></trkpt><trkpt lat="45.22893" lon="9.5121899"><ele>68.5</ele><time>2026-04-08T08:56:53.943Z</time></trkpt><trkpt lat="45.2291385" lon="9.5119121"><ele>68.0</ele><time>2026-04-08T08:56:54.943Z</time></trkpt><trkpt lat="45.2293492" lon="9.5116364"><ele>68.0</ele><time>2026-04-08T08:56:55.944Z</time></trkpt><trkpt lat="45.2295609" lon="9.5113586"><ele>68.0</ele><time>2026-04-08T08:56:56.944Z</time></trkpt><trkpt lat="45.2297735" lon="9.5110816"><ele>68.0</ele><time>2026-04-08T08:56:57.943Z</time></trkpt><trkpt lat="45.2299824" lon="9.5108012"><ele>68.0</ele><time>2026-04-08T08:56:58.943Z</time></trkpt><trkpt lat="45.2301922" lon="9.5105215"><ele>68.0</ele><time>2026-04-08T08:56:59.943Z</time></trkpt><trkpt lat="45.2304023" lon="9.5102444"><ele>68.0</ele><time>2026-04-08T08:57:00.944Z</time></trkpt><trkpt lat="45.230614" lon="9.5099691"><ele>67.5</ele><time>2026-04-08T08:57:01.943Z</time></trkpt><trkpt lat="45.2308262" lon="9.5096954"><ele>67.0</ele><time>2026-04-08T08:57:02.943Z</time></trkpt><trkpt lat="45.2310366" lon="9.5094197"><ele>67.0</ele><time>2026-04-08T08:57:03.943Z</time></trkpt><trkpt lat="45.2312468" lon="9.5091421"><ele>67.0</ele><time>2026-04-08T08:57:04.943Z</time></trkpt><trkpt lat="45.2314573" lon="9.508865"><ele>67.0</ele><time>2026-04-08T08:57:05.944Z</time></trkpt><trkpt lat="45.2316663" lon="9.5085888"><ele>67.0</ele><time>2026-04-08T08:57:06.943Z</time></trkpt><trkpt lat="45.2318757" lon="9.5083113"><ele>67.0</ele><time>2026-04-08T08:57:07.943Z</time></trkpt><trkpt lat="45.232084" lon="9.508033"><ele>67.0</ele><time>2026-04-08T08:57:08.943Z</time></trkpt><trkpt lat="45.2322959" lon="9.5077582"><ele>68.5</ele><time>2026-04-08T08:57:09.944Z</time></trkpt><trkpt lat="45.2325056" lon="9.507482"><ele>70.0</ele><time>2026-04-08T08:57:10.944Z</time></trkpt><trkpt lat="45.2327162" lon="9.507208"><ele>69.0</ele><time>2026-04-08T08:57:11.944Z</time></trkpt><trkpt lat="45.2329248" lon="9.5069309"><ele>68.0</ele><time>2026-04-08T08:57:12.943Z</time></trkpt><trkpt lat="45.2331346" lon="9.5066595"><ele>68.0</ele><time>2026-04-08T08:57:13.943Z</time></trkpt><trkpt lat="45.2333451" lon="9.5063888"><ele>68.0</ele><time>2026-04-08T08:57:14.943Z</time></trkpt><trkpt lat="45.2335533" lon="9.506113"><ele>68.0</ele><time>2026-04-08T08:57:15.943Z</time></trkpt><trkpt lat="45.2337641" lon="9.5058367"><ele>68.0</ele><time>2026-04-08T08:57:16.943Z</time></trkpt><trkpt lat="45.2339742" lon="9.5055593"><ele>68.0</ele><time>2026-04-08T08:57:17.943Z</time></trkpt><trkpt lat="45.2341828" lon="9.5052823"><ele>68.0</ele><time>2026-04-08T08:57:18.944Z</time></trkpt><trkpt lat="45.2343921" lon="9.5050042"><ele>68.0</ele><time>2026-04-08T08:57:19.943Z</time></trkpt><trkpt lat="45.234599" lon="9.5047275"><ele>68.0</ele><time>2026-04-08T08:57:20.944Z</time></trkpt><trkpt lat="45.2348093" lon="9.5044474"><ele>68.0</ele><time>2026-04-08T08:57:21.943Z</time></trkpt><trkpt lat="45.2350203" lon="9.5041722"><ele>68.0</ele><time>2026-04-08T08:57:22.943Z</time></trkpt><trkpt lat="45.2352292" lon="9.5038951"><ele>68.5</ele><time>2026-04-08T08:57:23.943Z</time></trkpt><trkpt lat="45.2354379" lon="9.5036218"><ele>69.0</ele><time>2026-04-08T08:57:24.944Z</time></trkpt><trkpt lat="45.2356476" lon="9.5033466"><ele>70.0</ele><time>2026-04-08T08:57:25.943Z</time></trkpt><trkpt lat="45.2358571" lon="9.5030716"><ele>71.0</ele><time>2026-04-08T08:57:26.943Z</time></trkpt><trkpt lat="45.2360654" lon="9.5027964"><ele>71.0</ele><time>2026-04-08T08:57:27.943Z</time></trkpt><trkpt lat="45.2362727" lon="9.5025201"><ele>71.0</ele><time>2026-04-08T08:57:28.944Z</time></trkpt><trkpt lat="45.2364817" lon="9.5022442"><ele>71.0</ele><time>2026-04-08T08:57:29.944Z</time></trkpt><trkpt lat="45.236694" lon="9.5019699"><ele>71.0</ele><time>2026-04-08T08:57:30.943Z</time></trkpt><trkpt lat="45.2369061" lon="9.5016905"><ele>71.0</ele><time>2026-04-08T08:57:31.943Z</time></trkpt><trkpt lat="45.2371205" lon="9.5014173"><ele>71.0</ele><time>2026-04-08T08:57:32.944Z</time></trkpt><trkpt lat="45.2373323" lon="9.5011405"><ele>70.5</ele><time>2026-04-08T08:57:33.944Z</time></trkpt><trkpt lat="45.2375448" lon="9.5008647"><ele>70.0</ele><time>2026-04-08T08:57:34.943Z</time></trkpt><trkpt lat="45.237756" lon="9.5005876"><ele>69.5</ele><time>2026-04-08T08:57:35.944Z</time></trkpt><trkpt lat="45.2379675" lon="9.5003083"><ele>69.0</ele><time>2026-04-08T08:57:36.943Z</time></trkpt><trkpt lat="45.2381791" lon="9.5000261"><ele>69.5</ele><time>2026-04-08T08:57:37.944Z</time></trkpt><trkpt lat="45.2383925" lon="9.4997474"><ele>70.0</ele><time>2026-04-08T08:57:38.944Z</time></trkpt><trkpt lat="45.2386031" lon="9.4994692"><ele>70.0</ele><time>2026-04-08T08:57:39.943Z</time></trkpt><trkpt lat="45.2388137" lon="9.4991896"><ele>70.0</ele><time>2026-04-08T08:57:40.943Z</time></trkpt><trkpt lat="45.2390235" lon="9.4989106"><ele>70.0</ele><time>2026-04-08T08:57:41.943Z</time></trkpt><trkpt lat="45.2392328" lon="9.4986347"><ele>70.0</ele><time>2026-04-08T08:57:42.944Z</time></trkpt><trkpt lat="45.2394433" lon="9.4983576"><ele>70.0</ele><time>2026-04-08T08:57:43.943Z</time></trkpt><trkpt lat="45.2396556" lon="9.498078"><ele>70.0</ele><time>2026-04-08T08:57:44.944Z</time></trkpt><trkpt lat="45.2398668" lon="9.4977972"><ele>70.0</ele><time>2026-04-08T08:57:45.943Z</time></trkpt><trkpt lat="45.2400806" lon="9.4975203"><ele>70.0</ele><time>2026-04-08T08:57:46.943Z</time></trkpt><trkpt lat="45.240294" lon="9.4972451"><ele>69.5</ele><time>2026-04-08T08:57:47.943Z</time></trkpt><trkpt lat="45.2405068" lon="9.4969712"><ele>69.0</ele><time>2026-04-08T08:57:48.943Z</time></trkpt><trkpt lat="45.2407195" lon="9.4966949"><ele>69.0</ele><time>2026-04-08T08:57:49.943Z</time></trkpt><trkpt lat="45.24093" lon="9.4964184"><ele>69.0</ele><time>2026-04-08T08:57:50.943Z</time></trkpt><trkpt lat="45.2411374" lon="9.4961423"><ele>69.0</ele><time>2026-04-08T08:57:51.943Z</time></trkpt><trkpt lat="45.2413474" lon="9.4958684"><ele>69.0</ele><time>2026-04-08T08:57:52.944Z</time></trkpt><trkpt lat="45.2415558" lon="9.4955918"><ele>69.0</ele><time>2026-04-08T08:57:53.943Z</time></trkpt><trkpt lat="45.2417626" lon="9.495319"><ele>69.0</ele><time>2026-04-08T08:57:54.943Z</time></trkpt><trkpt lat="45.2419686" lon="9.4950459"><ele>69.0</ele><time>2026-04-08T08:57:55.943Z</time></trkpt><trkpt lat="45.2421742" lon="9.4947763"><ele>69.0</ele><time>2026-04-08T08:57:56.943Z</time></trkpt><trkpt lat="45.2423925" lon="9.4945208"><ele>69.0</ele><time>2026-04-08T08:57:57.944Z</time></trkpt><trkpt lat="45.2426083" lon="9.4942615"><ele>69.0</ele><time>2026-04-08T08:57:58.944Z</time></trkpt><trkpt lat="45.2428143" lon="9.4939907"><ele>69.5</ele><time>2026-04-08T08:57:59.943Z</time></trkpt><trkpt lat="45.2430218" lon="9.4937217"><ele>70.0</ele><time>2026-04-08T08:58:00.943Z</time></trkpt><trkpt lat="45.243231" lon="9.4934488"><ele>70.0</ele><time>2026-04-08T08:58:01.943Z</time></trkpt><trkpt lat="45.2434391" lon="9.4931775"><ele>70.0</ele><time>2026-04-08T08:58:02.943Z</time></trkpt><trkpt lat="45.2436489" lon="9.4929008"><ele>70.5</ele><time>2026-04-08T08:58:03.943Z</time></trkpt><trkpt lat="45.2438593" lon="9.4926228"><ele>71.0</ele><time>2026-04-08T08:58:04.943Z</time></trkpt><trkpt lat="45.2440713" lon="9.492346"><ele>70.5</ele><time>2026-04-08T08:58:05.944Z</time></trkpt><trkpt lat="45.2442833" lon="9.4920661"><ele>70.0</ele><time>2026-04-08T08:58:06.943Z</time></trkpt><trkpt lat="45.2444963" lon="9.4917847"><ele>70.0</ele><time>2026-04-08T08:58:07.944Z</time></trkpt><trkpt lat="45.2447067" lon="9.4915028"><ele>70.0</ele><time>2026-04-08T08:58:08.943Z</time></trkpt><trkpt lat="45.244918" lon="9.491218"><ele>69.5</ele><time>2026-04-08T08:58:09.943Z</time></trkpt><trkpt lat="45.245125" lon="9.4909301"><ele>69.0</ele><time>2026-04-08T08:58:10.944Z</time></trkpt><trkpt lat="45.2453275" lon="9.490639"><ele>69.5</ele><time>2026-04-08T08:58:11.943Z</time></trkpt><trkpt lat="45.2455363" lon="9.4903526"><ele>70.0</ele><time>2026-04-08T08:58:12.943Z</time></trkpt><trkpt lat="45.2457437" lon="9.4900679"><ele>70.0</ele><time>2026-04-08T08:58:13.943Z</time></trkpt><trkpt lat="45.2459485" lon="9.4897801"><ele>70.0</ele><time>2026-04-08T08:58:14.943Z</time></trkpt><trkpt lat="45.246155" lon="9.489492"><ele>70.5</ele><time>2026-04-08T08:58:15.944Z</time></trkpt><trkpt lat="45.2463611" lon="9.4892063"><ele>71.0</ele><time>2026-04-08T08:58:16.943Z</time></trkpt><trkpt lat="45.246569" lon="9.4889259"><ele>71.5</ele><time>2026-04-08T08:58:17.944Z</time></trkpt><trkpt lat="45.2467771" lon="9.4886501"><ele>72.0</ele><time>2026-04-08T08:58:18.943Z</time></trkpt><trkpt lat="45.2469857" lon="9.4883749"><ele>72.0</ele><time>2026-04-08T08:58:19.944Z</time></trkpt><trkpt lat="45.2471962" lon="9.4880966"><ele>72.0</ele><time>2026-04-08T08:58:20.943Z</time></trkpt><trkpt lat="45.2474086" lon="9.4878178"><ele>71.0</ele><time>2026-04-08T08:58:21.944Z</time></trkpt><trkpt lat="45.2476238" lon="9.4875349"><ele>70.0</ele><time>2026-04-08T08:58:22.943Z</time></trkpt><trkpt lat="45.2478419" lon="9.4872474"><ele>69.5</ele><time>2026-04-08T08:58:23.943Z</time></trkpt><trkpt lat="45.2480644" lon="9.4869586"><ele>69.0</ele><time>2026-04-08T08:58:24.943Z</time></trkpt><trkpt lat="45.2482906" lon="9.4866718"><ele>69.0</ele><time>2026-04-08T08:58:25.944Z</time></trkpt><trkpt lat="45.2485147" lon="9.4863797"><ele>69.0</ele><time>2026-04-08T08:58:26.943Z</time></trkpt><trkpt lat="45.2487376" lon="9.4860873"><ele>69.0</ele><time>2026-04-08T08:58:27.943Z</time></trkpt><trkpt lat="45.2489605" lon="9.4857955"><ele>69.0</ele><time>2026-04-08T08:58:28.943Z</time></trkpt><trkpt lat="45.2491843" lon="9.4855028"><ele>69.0</ele><time>2026-04-08T08:58:29.943Z</time></trkpt><trkpt lat="45.249406" lon="9.4852138"><ele>69.0</ele><time>2026-04-08T08:58:30.943Z</time></trkpt><trkpt lat="45.2496292" lon="9.484929"><ele>69.5</ele><time>2026-04-08T08:58:31.944Z</time></trkpt><trkpt lat="45.24985" lon="9.4846466"><ele>70.0</ele><time>2026-04-08T08:58:32.943Z</time></trkpt><trkpt lat="45.2500663" lon="9.4843551"><ele>70.0</ele><time>2026-04-08T08:58:33.943Z</time></trkpt><trkpt lat="45.2502823" lon="9.484067"><ele>70.0</ele><time>2026-04-08T08:58:34.943Z</time></trkpt><trkpt lat="45.2505034" lon="9.4837891"><ele>70.5</ele><time>2026-04-08T08:58:35.943Z</time></trkpt><trkpt lat="45.250726" lon="9.4835133"><ele>71.0</ele><time>2026-04-08T08:58:36.943Z</time></trkpt><trkpt lat="45.2509463" lon="9.4832322"><ele>71.0</ele><time>2026-04-08T08:58:37.943Z</time></trkpt><trkpt lat="45.2511636" lon="9.4829479"><ele>71.0</ele><time>2026-04-08T08:58:38.943Z</time></trkpt><trkpt lat="45.2513802" lon="9.4826639"><ele>71.0</ele><time>2026-04-08T08:58:39.943Z</time></trkpt><trkpt lat="45.2515969" lon="9.4823794"><ele>71.0</ele><time>2026-04-08T08:58:40.944Z</time></trkpt><trkpt lat="45.2518145" lon="9.4820954"><ele>71.0</ele><time>2026-04-08T08:58:41.943Z</time></trkpt><trkpt lat="45.2520311" lon="9.4818118"><ele>71.0</ele><time>2026-04-08T08:58:42.943Z</time></trkpt><trkpt lat="45.252246" lon="9.481525"><ele>71.0</ele><time>2026-04-08T08:58:43.943Z</time></trkpt><trkpt lat="45.2524614" lon="9.4812412"><ele>71.0</ele><time>2026-04-08T08:58:44.943Z</time></trkpt><trkpt lat="45.2526788" lon="9.4809572"><ele>71.0</ele><time>2026-04-08T08:58:45.943Z</time></trkpt><trkpt lat="45.252893" lon="9.4806721"><ele>71.0</ele><time>2026-04-08T08:58:46.943Z</time></trkpt><trkpt lat="45.2531088" lon="9.4803891"><ele>71.0</ele><time>2026-04-08T08:58:47.943Z</time></trkpt><trkpt lat="45.2533261" lon="9.4801068"><ele>71.0</ele><time>2026-04-08T08:58:48.943Z</time></trkpt><trkpt lat="45.2535424" lon="9.4798279"><ele>71.0</ele><time>2026-04-08T08:58:49.944Z</time></trkpt><trkpt lat="45.2537591" lon="9.4795466"><ele>71.0</ele><time>2026-04-08T08:58:50.944Z</time></trkpt><trkpt lat="45.253975" lon="9.4792675"><ele>71.5</ele><time>2026-04-08T08:58:51.943Z</time></trkpt><trkpt lat="45.2541912" lon="9.4789843"><ele>72.0</ele><time>2026-04-08T08:58:52.944Z</time></trkpt><trkpt lat="45.2544054" lon="9.4787016"><ele>72.0</ele><time>2026-04-08T08:58:53.944Z</time></trkpt><trkpt lat="45.2546201" lon="9.4784169"><ele>72.0</ele><time>2026-04-08T08:58:54.944Z</time></trkpt><trkpt lat="45.2548332" lon="9.4781353"><ele>72.0</ele><time>2026-04-08T08:58:55.943Z</time></trkpt><trkpt lat="45.2550472" lon="9.4778538"><ele>72.0</ele><time>2026-04-08T08:58:56.943Z</time></trkpt><trkpt lat="45.2552632" lon="9.4775734"><ele>72.0</ele><time>2026-04-08T08:58:57.943Z</time></trkpt><trkpt lat="45.2554784" lon="9.4772941"><ele>72.0</ele><time>2026-04-08T08:58:58.943Z</time></trkpt><trkpt lat="45.2556935" lon="9.47701"><ele>71.0</ele><time>2026-04-08T08:58:59.943Z</time></trkpt><trkpt lat="45.2559084" lon="9.4767273"><ele>70.0</ele><time>2026-04-08T08:59:00.944Z</time></trkpt><trkpt lat="45.2561232" lon="9.4764413"><ele>70.0</ele><time>2026-04-08T08:59:01.943Z</time></trkpt><trkpt lat="45.2563394" lon="9.4761577"><ele>70.0</ele><time>2026-04-08T08:59:02.943Z</time></trkpt><trkpt lat="45.2565547" lon="9.4758737"><ele>70.0</ele><time>2026-04-08T08:59:03.944Z</time></trkpt><trkpt lat="45.256769" lon="9.4755914"><ele>70.0</ele><time>2026-04-08T08:59:04.943Z</time></trkpt><trkpt lat="45.256986" lon="9.4753087"><ele>70.0</ele><time>2026-04-08T08:59:05.944Z</time></trkpt><trkpt lat="45.2572022" lon="9.4750231"><ele>70.0</ele><time>2026-04-08T08:59:06.943Z</time></trkpt><trkpt lat="45.2574167" lon="9.4747367"><ele>70.0</ele><time>2026-04-08T08:59:07.943Z</time></trkpt><trkpt lat="45.2576318" lon="9.4744527"><ele>70.0</ele><time>2026-04-08T08:59:08.943Z</time></trkpt><trkpt lat="45.2578472" lon="9.4741686"><ele>70.0</ele><time>2026-04-08T08:59:09.944Z</time></trkpt><trkpt lat="45.2580648" lon="9.4738886"><ele>70.0</ele><time>2026-04-08T08:59:10.944Z</time></trkpt><trkpt lat="45.2582807" lon="9.4736072"><ele>70.5</ele><time>2026-04-08T08:59:11.943Z</time></trkpt><trkpt lat="45.2584985" lon="9.4733278"><ele>71.0</ele><time>2026-04-08T08:59:12.944Z</time></trkpt><trkpt lat="45.258713" lon="9.4730478"><ele>70.5</ele><time>2026-04-08T08:59:13.943Z</time></trkpt><trkpt lat="45.2589215" lon="9.4727664"><ele>70.0</ele><time>2026-04-08T08:59:14.943Z</time></trkpt><trkpt lat="45.2591279" lon="9.4724794"><ele>69.5</ele><time>2026-04-08T08:59:15.943Z</time></trkpt><trkpt lat="45.2593326" lon="9.4721917"><ele>69.0</ele><time>2026-04-08T08:59:16.943Z</time></trkpt><trkpt lat="45.2595382" lon="9.4719077"><ele>69.0</ele><time>2026-04-08T08:59:17.943Z</time></trkpt><trkpt lat="45.259746" lon="9.4716249"><ele>69.0</ele><time>2026-04-08T08:59:18.944Z</time></trkpt><trkpt lat="45.2599548" lon="9.4713473"><ele>70.0</ele><time>2026-04-08T08:59:19.944Z</time></trkpt><trkpt lat="45.260167" lon="9.471064"><ele>71.0</ele><time>2026-04-08T08:59:20.943Z</time></trkpt><trkpt lat="45.2603814" lon="9.4707801"><ele>71.0</ele><time>2026-04-08T08:59:21.944Z</time></trkpt><trkpt lat="45.2605965" lon="9.4704949"><ele>71.0</ele><time>2026-04-08T08:59:22.943Z</time></trkpt><trkpt lat="45.260812" lon="9.4702057"><ele>71.0</ele><time>2026-04-08T08:59:23.943Z</time></trkpt><trkpt lat="45.2610309" lon="9.4699175"><ele>71.0</ele><time>2026-04-08T08:59:24.944Z</time></trkpt><trkpt lat="45.2612512" lon="9.4696273"><ele>71.5</ele><time>2026-04-08T08:59:25.943Z</time></trkpt><trkpt lat="45.2614716" lon="9.4693367"><ele>72.0</ele><time>2026-04-08T08:59:26.943Z</time></trkpt><trkpt lat="45.26169" lon="9.4690451"><ele>72.5</ele><time>2026-04-08T08:59:27.943Z</time></trkpt><trkpt lat="45.2619091" lon="9.468752"><ele>73.0</ele><time>2026-04-08T08:59:28.943Z</time></trkpt><trkpt lat="45.2621294" lon="9.4684616"><ele>73.0</ele><time>2026-04-08T08:59:29.943Z</time></trkpt><trkpt lat="45.2623493" lon="9.468175"><ele>73.0</ele><time>2026-04-08T08:59:30.944Z</time></trkpt><trkpt lat="45.2625695" lon="9.4678927"><ele>73.0</ele><time>2026-04-08T08:59:31.943Z</time></trkpt><trkpt lat="45.2627919" lon="9.4676116"><ele>73.0</ele><time>2026-04-08T08:59:32.943Z</time></trkpt><trkpt lat="45.2630098" lon="9.4673226"><ele>74.0</ele><time>2026-04-08T08:59:33.944Z</time></trkpt><trkpt lat="45.2632237" lon="9.4670365"><ele>75.0</ele><time>2026-04-08T08:59:34.944Z</time></trkpt><trkpt lat="45.2634406" lon="9.4667539"><ele>75.0</ele><time>2026-04-08T08:59:35.943Z</time></trkpt><trkpt lat="45.2636638" lon="9.4664583"><ele>75.0</ele><time>2026-04-08T08:59:36.943Z</time></trkpt><trkpt lat="45.2639035" lon="9.4661476"><ele>73.5</ele><time>2026-04-08T08:59:37.943Z</time></trkpt><trkpt lat="45.264144" lon="9.4658503"><ele>72.0</ele><time>2026-04-08T08:59:38.944Z</time></trkpt><trkpt lat="45.2643812" lon="9.4655584"><ele>72.0</ele><time>2026-04-08T08:59:39.943Z</time></trkpt><trkpt lat="45.2646094" lon="9.4652661"><ele>72.0</ele><time>2026-04-08T08:59:40.944Z</time></trkpt><trkpt lat="45.2648338" lon="9.4649738"><ele>71.5</ele><time>2026-04-08T08:59:41.943Z</time></trkpt><trkpt lat="45.2650489" lon="9.4646914"><ele>71.0</ele><time>2026-04-08T08:59:42.944Z</time></trkpt><trkpt lat="45.2652636" lon="9.4644078"><ele>71.5</ele><time>2026-04-08T08:59:43.943Z</time></trkpt><trkpt lat="45.2654739" lon="9.4641341"><ele>72.0</ele><time>2026-04-08T08:59:44.943Z</time></trkpt><trkpt lat="45.2656723" lon="9.4638741"><ele>72.0</ele><time>2026-04-08T08:59:45.944Z</time></trkpt><trkpt lat="45.2658655" lon="9.4636229"><ele>72.0</ele><time>2026-04-08T08:59:46.943Z</time></trkpt><trkpt lat="45.2660521" lon="9.4633779"><ele>72.0</ele><time>2026-04-08T08:59:47.943Z</time></trkpt><trkpt lat="45.2662357" lon="9.4631353"><ele>72.0</ele><time>2026-04-08T08:59:48.943Z</time></trkpt><trkpt lat="45.2664171" lon="9.4628946"><ele>72.5</ele><time>2026-04-08T08:59:49.943Z</time></trkpt><trkpt lat="45.2665953" lon="9.4626596"><ele>73.0</ele><time>2026-04-08T08:59:50.943Z</time></trkpt><trkpt lat="45.2667667" lon="9.4624284"><ele>73.0</ele><time>2026-04-08T08:59:51.944Z</time></trkpt><trkpt lat="45.2669352" lon="9.4622054"><ele>73.0</ele><time>2026-04-08T08:59:52.944Z</time></trkpt><trkpt lat="45.2671032" lon="9.4619884"><ele>73.0</ele><time>2026-04-08T08:59:53.944Z</time></trkpt><trkpt lat="45.2672699" lon="9.4617717"><ele>73.0</ele><time>2026-04-08T08:59:54.944Z</time></trkpt><trkpt lat="45.2674353" lon="9.4615563"><ele>73.0</ele><time>2026-04-08T08:59:55.943Z</time></trkpt><trkpt lat="45.2676004" lon="9.4613457"><ele>73.0</ele><time>2026-04-08T08:59:56.944Z</time></trkpt><trkpt lat="45.2677655" lon="9.461126"><ele>73.0</ele><time>2026-04-08T08:59:57.943Z</time></trkpt><trkpt lat="45.2679322" lon="9.4609049"><ele>73.0</ele><time>2026-04-08T08:59:58.943Z</time></trkpt><trkpt lat="45.2680973" lon="9.4606792"><ele>73.0</ele><time>2026-04-08T08:59:59.944Z</time></trkpt><trkpt lat="45.2682644" lon="9.4604532"><ele>73.5</ele><time>2026-04-08T09:00:00.943Z</time></trkpt><trkpt lat="45.2684315" lon="9.4602247"><ele>74.0</ele><time>2026-04-08T09:00:01.943Z</time></trkpt><trkpt lat="45.2685973" lon="9.4600005"><ele>74.0</ele><time>2026-04-08T09:00:02.943Z</time></trkpt><trkpt lat="45.2687604" lon="9.4597738"><ele>74.0</ele><time>2026-04-08T09:00:03.943Z</time></trkpt><trkpt lat="45.26892" lon="9.4595413"><ele>73.0</ele><time>2026-04-08T09:00:04.944Z</time></trkpt><trkpt lat="45.2690772" lon="9.4593005"><ele>72.0</ele><time>2026-04-08T09:00:05.943Z</time></trkpt><trkpt lat="45.269236" lon="9.4590525"><ele>72.0</ele><time>2026-04-08T09:00:06.944Z</time></trkpt><trkpt lat="45.2694009" lon="9.4588067"><ele>72.0</ele><time>2026-04-08T09:00:07.943Z</time></trkpt><trkpt lat="45.2695758" lon="9.4585562"><ele>72.0</ele><time>2026-04-08T09:00:08.943Z</time></trkpt><trkpt lat="45.269758" lon="9.4583006"><ele>72.0</ele><time>2026-04-08T09:00:09.944Z</time></trkpt><trkpt lat="45.2699478" lon="9.4580311"><ele>73.5</ele><time>2026-04-08T09:00:10.943Z</time></trkpt><trkpt lat="45.2701456" lon="9.4577448"><ele>75.0</ele><time>2026-04-08T09:00:11.943Z</time></trkpt><trkpt lat="45.2703511" lon="9.4574427"><ele>75.0</ele><time>2026-04-08T09:00:12.944Z</time></trkpt><trkpt lat="45.2705634" lon="9.4571401"><ele>75.0</ele><time>2026-04-08T09:00:13.943Z</time></trkpt><trkpt lat="45.270781" lon="9.4568463"><ele>75.0</ele><time>2026-04-08T09:00:14.943Z</time></trkpt><trkpt lat="45.2709972" lon="9.4565485"><ele>75.0</ele><time>2026-04-08T09:00:15.943Z</time></trkpt><trkpt lat="45.2712091" lon="9.4562414"><ele>75.0</ele><time>2026-04-08T09:00:16.944Z</time></trkpt><trkpt lat="45.2714187" lon="9.455935"><ele>75.0</ele><time>2026-04-08T09:00:17.944Z</time></trkpt><trkpt lat="45.271627" lon="9.4556254"><ele>74.5</ele><time>2026-04-08T09:00:18.944Z</time></trkpt><trkpt lat="45.2718272" lon="9.455318"><ele>74.0</ele><time>2026-04-08T09:00:19.944Z</time></trkpt><trkpt lat="45.272015" lon="9.455023"><ele>74.0</ele><time>2026-04-08T09:00:20.944Z</time></trkpt><trkpt lat="45.2722001" lon="9.4547341"><ele>74.0</ele><time>2026-04-08T09:00:21.943Z</time></trkpt><trkpt lat="45.272383" lon="9.4544463"><ele>73.5</ele><time>2026-04-08T09:00:22.943Z</time></trkpt><trkpt lat="45.2725631" lon="9.4541616"><ele>73.0</ele><time>2026-04-08T09:00:23.943Z</time></trkpt><trkpt lat="45.272746" lon="9.4538724"><ele>74.0</ele><time>2026-04-08T09:00:24.943Z</time></trkpt><trkpt lat="45.2729295" lon="9.4535758"><ele>75.0</ele><time>2026-04-08T09:00:25.943Z</time></trkpt><trkpt lat="45.2731177" lon="9.4532707"><ele>75.0</ele><time>2026-04-08T09:00:26.943Z</time></trkpt><trkpt lat="45.2733059" lon="9.4529644"><ele>75.0</ele><time>2026-04-08T09:00:27.944Z</time></trkpt><trkpt lat="45.2734868" lon="9.4526455"><ele>74.5</ele><time>2026-04-08T09:00:28.944Z</time></trkpt><trkpt lat="45.2736692" lon="9.4523329"><ele>74.0</ele><time>2026-04-08T09:00:29.944Z</time></trkpt><trkpt lat="45.2738548" lon="9.4520219"><ele>74.5</ele><time>2026-04-08T09:00:30.943Z</time></trkpt><trkpt lat="45.2740407" lon="9.451708"><ele>75.0</ele><time>2026-04-08T09:00:31.943Z</time></trkpt><trkpt lat="45.2742261" lon="9.4513969"><ele>75.0</ele><time>2026-04-08T09:00:32.943Z</time></trkpt><trkpt lat="45.2744113" lon="9.4510821"><ele>75.0</ele><time>2026-04-08T09:00:33.944Z</time></trkpt><trkpt lat="45.2745983" lon="9.4507698"><ele>76.0</ele><time>2026-04-08T09:00:34.943Z</time></trkpt><trkpt lat="45.2747867" lon="9.4504574"><ele>77.0</ele><time>2026-04-08T09:00:35.944Z</time></trkpt><trkpt lat="45.2749787" lon="9.4501414"><ele>77.0</ele><time>2026-04-08T09:00:36.943Z</time></trkpt><trkpt lat="45.2751702" lon="9.4498322"><ele>77.0</ele><time>2026-04-08T09:00:37.944Z</time></trkpt><trkpt lat="45.2753601" lon="9.4495155"><ele>76.5</ele><time>2026-04-08T09:00:38.944Z</time></trkpt><trkpt lat="45.2755535" lon="9.4491993"><ele>76.0</ele><time>2026-04-08T09:00:39.944Z</time></trkpt><trkpt lat="45.2757464" lon="9.44888"><ele>77.0</ele><time>2026-04-08T09:00:40.943Z</time></trkpt><trkpt lat="45.2759441" lon="9.4485628"><ele>78.0</ele><time>2026-04-08T09:00:41.943Z</time></trkpt><trkpt lat="45.2761412" lon="9.4482465"><ele>77.0</ele><time>2026-04-08T09:00:42.943Z</time></trkpt><trkpt lat="45.2763375" lon="9.4479339"><ele>76.0</ele><time>2026-04-08T09:00:43.943Z</time></trkpt><trkpt lat="45.2765355" lon="9.4476188"><ele>75.0</ele><time>2026-04-08T09:00:44.944Z</time></trkpt><trkpt lat="45.2767304" lon="9.4473002"><ele>74.0</ele><time>2026-04-08T09:00:45.943Z</time></trkpt><trkpt lat="45.2769232" lon="9.4469832"><ele>74.0</ele><time>2026-04-08T09:00:46.943Z</time></trkpt><trkpt lat="45.2771148" lon="9.446666"><ele>74.0</ele><time>2026-04-08T09:00:47.943Z</time></trkpt><trkpt lat="45.2773055" lon="9.4463468"><ele>73.5</ele><time>2026-04-08T09:00:48.943Z</time></trkpt><trkpt lat="45.2774969" lon="9.44603"><ele>73.0</ele><time>2026-04-08T09:00:49.943Z</time></trkpt><trkpt lat="45.2776882" lon="9.4457182"><ele>73.5</ele><time>2026-04-08T09:00:50.944Z</time></trkpt><trkpt lat="45.2778796" lon="9.4454051"><ele>74.0</ele><time>2026-04-08T09:00:51.944Z</time></trkpt><trkpt lat="45.2780692" lon="9.4450898"><ele>74.0</ele><time>2026-04-08T09:00:52.943Z</time></trkpt><trkpt lat="45.2782587" lon="9.4447745"><ele>74.0</ele><time>2026-04-08T09:00:53.943Z</time></trkpt><trkpt lat="45.27845" lon="9.4444598"><ele>74.0</ele><time>2026-04-08T09:00:54.943Z</time></trkpt><trkpt lat="45.2786411" lon="9.4441459"><ele>74.0</ele><time>2026-04-08T09:00:55.944Z</time></trkpt><trkpt lat="45.2788309" lon="9.44383"><ele>73.5</ele><time>2026-04-08T09:00:56.943Z</time></trkpt><trkpt lat="45.2790202" lon="9.4435165"><ele>73.0</ele><time>2026-04-08T09:00:57.943Z</time></trkpt><trkpt lat="45.2792101" lon="9.4431999"><ele>73.0</ele><time>2026-04-08T09:00:58.943Z</time></trkpt><trkpt lat="45.2794013" lon="9.4428839"><ele>73.0</ele><time>2026-04-08T09:00:59.943Z</time></trkpt><trkpt lat="45.2795931" lon="9.4425681"><ele>73.0</ele><time>2026-04-08T09:01:00.943Z</time></trkpt><trkpt lat="45.2797831" lon="9.4422526"><ele>73.0</ele><time>2026-04-08T09:01:01.943Z</time></trkpt><trkpt lat="45.2799747" lon="9.4419348"><ele>73.0</ele><time>2026-04-08T09:01:02.943Z</time></trkpt><trkpt lat="45.2801678" lon="9.4416153"><ele>73.0</ele><time>2026-04-08T09:01:03.944Z</time></trkpt><trkpt lat="45.2803582" lon="9.4412952"><ele>73.0</ele><time>2026-04-08T09:01:04.943Z</time></trkpt><trkpt lat="45.2805475" lon="9.4409734"><ele>73.0</ele><time>2026-04-08T09:01:05.944Z</time></trkpt><trkpt lat="45.2807386" lon="9.4406561"><ele>73.0</ele><time>2026-04-08T09:01:06.944Z</time></trkpt><trkpt lat="45.2809307" lon="9.4403357"><ele>73.0</ele><time>2026-04-08T09:01:07.944Z</time></trkpt><trkpt lat="45.2811196" lon="9.4400158"><ele>73.0</ele><time>2026-04-08T09:01:08.943Z</time></trkpt><trkpt lat="45.2813098" lon="9.4396978"><ele>73.0</ele><time>2026-04-08T09:01:09.943Z</time></trkpt><trkpt lat="45.2814892" lon="9.4393678"><ele>73.0</ele><time>2026-04-08T09:01:10.943Z</time></trkpt><trkpt lat="45.2816701" lon="9.4390394"><ele>73.0</ele><time>2026-04-08T09:01:11.943Z</time></trkpt><trkpt lat="45.2818582" lon="9.4387217"><ele>73.0</ele><time>2026-04-08T09:01:12.943Z</time></trkpt><trkpt lat="45.282052" lon="9.4384132"><ele>73.0</ele><time>2026-04-08T09:01:13.944Z</time></trkpt><trkpt lat="45.2822509" lon="9.4381098"><ele>73.5</ele><time>2026-04-08T09:01:14.944Z</time></trkpt><trkpt lat="45.2824485" lon="9.4378048"><ele>74.0</ele><time>2026-04-08T09:01:15.944Z</time></trkpt><trkpt lat="45.2826428" lon="9.4374969"><ele>74.0</ele><time>2026-04-08T09:01:16.944Z</time></trkpt><trkpt lat="45.2828377" lon="9.4371856"><ele>74.0</ele><time>2026-04-08T09:01:17.943Z</time></trkpt><trkpt lat="45.2830307" lon="9.4368683"><ele>74.5</ele><time>2026-04-08T09:01:18.943Z</time></trkpt><trkpt lat="45.2832196" lon="9.4365507"><ele>75.0</ele><time>2026-04-08T09:01:19.944Z</time></trkpt><trkpt lat="45.2834078" lon="9.4362306"><ele>75.0</ele><time>2026-04-08T09:01:20.943Z</time></trkpt><trkpt lat="45.2835946" lon="9.4359135"><ele>75.0</ele><time>2026-04-08T09:01:21.943Z</time></trkpt><trkpt lat="45.283784" lon="9.4356001"><ele>74.5</ele><time>2026-04-08T09:01:22.943Z</time></trkpt><trkpt lat="45.2839752" lon="9.435285"><ele>74.0</ele><time>2026-04-08T09:01:23.943Z</time></trkpt><trkpt lat="45.2841651" lon="9.434969"><ele>74.0</ele><time>2026-04-08T09:01:24.943Z</time></trkpt><trkpt lat="45.2843556" lon="9.4346502"><ele>74.0</ele><time>2026-04-08T09:01:25.943Z</time></trkpt><trkpt lat="45.2845477" lon="9.4343342"><ele>73.5</ele><time>2026-04-08T09:01:26.943Z</time></trkpt><trkpt lat="45.2847399" lon="9.4340181"><ele>73.0</ele><time>2026-04-08T09:01:27.944Z</time></trkpt><trkpt lat="45.2849348" lon="9.4337069"><ele>74.5</ele><time>2026-04-08T09:01:28.943Z</time></trkpt><trkpt lat="45.2851342" lon="9.4333983"><ele>76.0</ele><time>2026-04-08T09:01:29.943Z</time></trkpt><trkpt lat="45.2853306" lon="9.4330895"><ele>76.0</ele><time>2026-04-08T09:01:30.944Z</time></trkpt><trkpt lat="45.285521" lon="9.4327742"><ele>76.0</ele><time>2026-04-08T09:01:31.943Z</time></trkpt><trkpt lat="45.2857097" lon="9.4324544"><ele>75.5</ele><time>2026-04-08T09:01:32.944Z</time></trkpt><trkpt lat="45.285902" lon="9.4321371"><ele>75.0</ele><time>2026-04-08T09:01:33.943Z</time></trkpt><trkpt lat="45.2860925" lon="9.4318213"><ele>75.0</ele><time>2026-04-08T09:01:34.943Z</time></trkpt><trkpt lat="45.2862825" lon="9.4315026"><ele>75.0</ele><time>2026-04-08T09:01:35.943Z</time></trkpt><trkpt lat="45.2864697" lon="9.4311797"><ele>74.5</ele><time>2026-04-08T09:01:36.943Z</time></trkpt><trkpt lat="45.2866543" lon="9.430856"><ele>74.0</ele><time>2026-04-08T09:01:37.943Z</time></trkpt><trkpt lat="45.2868386" lon="9.4305316"><ele>75.5</ele><time>2026-04-08T09:01:38.943Z</time></trkpt><trkpt lat="45.28702" lon="9.4302059"><ele>77.0</ele><time>2026-04-08T09:01:39.943Z</time></trkpt><trkpt lat="45.2872032" lon="9.4298797"><ele>78.5</ele><time>2026-04-08T09:01:40.943Z</time></trkpt><trkpt lat="45.287384" lon="9.4295537"><ele>80.0</ele><time>2026-04-08T09:01:41.944Z</time></trkpt><trkpt lat="45.2875662" lon="9.4292282"><ele>80.0</ele><time>2026-04-08T09:01:42.943Z</time></trkpt><trkpt lat="45.2877479" lon="9.4288992"><ele>80.0</ele><time>2026-04-08T09:01:43.943Z</time></trkpt><trkpt lat="45.2879304" lon="9.4285725"><ele>78.5</ele><time>2026-04-08T09:01:44.943Z</time></trkpt><trkpt lat="45.2881135" lon="9.4282478"><ele>77.0</ele><time>2026-04-08T09:01:45.943Z</time></trkpt><trkpt lat="45.2882948" lon="9.4279209"><ele>77.0</ele><time>2026-04-08T09:01:46.943Z</time></trkpt><trkpt lat="45.2884729" lon="9.4275902"><ele>77.0</ele><time>2026-04-08T09:01:47.943Z</time></trkpt><trkpt lat="45.2886483" lon="9.4272571"><ele>77.0</ele><time>2026-04-08T09:01:48.943Z</time></trkpt><trkpt lat="45.2888258" lon="9.4269272"><ele>77.0</ele><time>2026-04-08T09:01:49.943Z</time></trkpt><trkpt lat="45.2890041" lon="9.4265974"><ele>77.0</ele><time>2026-04-08T09:01:50.943Z</time></trkpt><trkpt lat="45.2891852" lon="9.426267"><ele>77.0</ele><time>2026-04-08T09:01:51.943Z</time></trkpt><trkpt lat="45.2893669" lon="9.4259365"><ele>77.0</ele><time>2026-04-08T09:01:52.943Z</time></trkpt><trkpt lat="45.2895469" lon="9.4256066"><ele>77.0</ele><time>2026-04-08T09:01:53.943Z</time></trkpt><trkpt lat="45.2897267" lon="9.4252766"><ele>76.5</ele><time>2026-04-08T09:01:54.943Z</time></trkpt><trkpt lat="45.2899042" lon="9.4249441"><ele>76.0</ele><time>2026-04-08T09:01:55.943Z</time></trkpt><trkpt lat="45.2900843" lon="9.4246119"><ele>76.0</ele><time>2026-04-08T09:01:56.943Z</time></trkpt><trkpt lat="45.2902678" lon="9.4242856"><ele>76.0</ele><time>2026-04-08T09:01:57.944Z</time></trkpt><trkpt lat="45.290455" lon="9.4239628"><ele>76.0</ele><time>2026-04-08T09:01:58.943Z</time></trkpt><trkpt lat="45.2906432" lon="9.42364"><ele>76.0</ele><time>2026-04-08T09:01:59.944Z</time></trkpt><trkpt lat="45.2908286" lon="9.4233149"><ele>76.0</ele><time>2026-04-08T09:02:00.943Z</time></trkpt><trkpt lat="45.2910115" lon="9.4229892"><ele>76.0</ele><time>2026-04-08T09:02:01.943Z</time></trkpt><trkpt lat="45.2911961" lon="9.4226627"><ele>76.0</ele><time>2026-04-08T09:02:02.944Z</time></trkpt><trkpt lat="45.2913808" lon="9.4223385"><ele>76.0</ele><time>2026-04-08T09:02:03.944Z</time></trkpt><trkpt lat="45.2915641" lon="9.4220139"><ele>76.0</ele><time>2026-04-08T09:02:04.943Z</time></trkpt><trkpt lat="45.2917461" lon="9.4216897"><ele>76.0</ele><time>2026-04-08T09:02:05.944Z</time></trkpt><trkpt lat="45.2919265" lon="9.4213639"><ele>76.0</ele><time>2026-04-08T09:02:06.943Z</time></trkpt><trkpt lat="45.2921086" lon="9.4210404"><ele>76.0</ele><time>2026-04-08T09:02:07.943Z</time></trkpt><trkpt lat="45.2922923" lon="9.4207169"><ele>75.5</ele><time>2026-04-08T09:02:08.943Z</time></trkpt><trkpt lat="45.2924767" lon="9.4203898"><ele>75.0</ele><time>2026-04-08T09:02:09.943Z</time></trkpt><trkpt lat="45.2926591" lon="9.420066"><ele>75.0</ele><time>2026-04-08T09:02:10.943Z</time></trkpt><trkpt lat="45.2928423" lon="9.419745"><ele>75.0</ele><time>2026-04-08T09:02:11.943Z</time></trkpt><trkpt lat="45.2930238" lon="9.419424"><ele>75.0</ele><time>2026-04-08T09:02:12.943Z</time></trkpt><trkpt lat="45.2932079" lon="9.4191004"><ele>75.0</ele><time>2026-04-08T09:02:13.944Z</time></trkpt><trkpt lat="45.2933926" lon="9.4187794"><ele>75.0</ele><time>2026-04-08T09:02:14.943Z</time></trkpt><trkpt lat="45.2935765" lon="9.4184581"><ele>75.0</ele><time>2026-04-08T09:02:15.943Z</time></trkpt><trkpt lat="45.2937605" lon="9.4181394"><ele>76.0</ele><time>2026-04-08T09:02:16.943Z</time></trkpt><trkpt lat="45.2939453" lon="9.4178182"><ele>77.0</ele><time>2026-04-08T09:02:17.944Z</time></trkpt><trkpt lat="45.2941327" lon="9.4174978"><ele>77.0</ele><time>2026-04-08T09:02:18.944Z</time></trkpt><trkpt lat="45.2943222" lon="9.4171764"><ele>77.0</ele><time>2026-04-08T09:02:19.943Z</time></trkpt><trkpt lat="45.294511" lon="9.4168558"><ele>77.0</ele><time>2026-04-08T09:02:20.944Z</time></trkpt><trkpt lat="45.2947017" lon="9.4165368"><ele>77.0</ele><time>2026-04-08T09:02:21.943Z</time></trkpt><trkpt lat="45.2948915" lon="9.416219"><ele>77.0</ele><time>2026-04-08T09:02:22.943Z</time></trkpt><trkpt lat="45.295083" lon="9.415902"><ele>77.0</ele><time>2026-04-08T09:02:23.943Z</time></trkpt><trkpt lat="45.2952743" lon="9.4155858"><ele>76.5</ele><time>2026-04-08T09:02:24.944Z</time></trkpt><trkpt lat="45.2954658" lon="9.4152728"><ele>76.0</ele><time>2026-04-08T09:02:25.943Z</time></trkpt><trkpt lat="45.29566" lon="9.4149597"><ele>76.0</ele><time>2026-04-08T09:02:26.943Z</time></trkpt><trkpt lat="45.2958541" lon="9.4146481"><ele>76.0</ele><time>2026-04-08T09:02:27.943Z</time></trkpt><trkpt lat="45.2960482" lon="9.4143391"><ele>76.0</ele><time>2026-04-08T09:02:28.943Z</time></trkpt><trkpt lat="45.2962447" lon="9.4140258"><ele>76.0</ele><time>2026-04-08T09:02:29.944Z</time></trkpt><trkpt lat="45.29644" lon="9.4137143"><ele>77.0</ele><time>2026-04-08T09:02:30.943Z</time></trkpt><trkpt lat="45.2966364" lon="9.4134029"><ele>78.0</ele><time>2026-04-08T09:02:31.943Z</time></trkpt><trkpt lat="45.2968334" lon="9.4130928"><ele>78.5</ele><time>2026-04-08T09:02:32.943Z</time></trkpt><trkpt lat="45.2970318" lon="9.4127839"><ele>79.0</ele><time>2026-04-08T09:02:33.943Z</time></trkpt><trkpt lat="45.2972328" lon="9.4124749"><ele>79.0</ele><time>2026-04-08T09:02:34.943Z</time></trkpt><trkpt lat="45.2974326" lon="9.4121695"><ele>79.0</ele><time>2026-04-08T09:02:35.943Z</time></trkpt><trkpt lat="45.2976322" lon="9.4118646"><ele>78.0</ele><time>2026-04-08T09:02:36.944Z</time></trkpt><trkpt lat="45.2978332" lon="9.4115633"><ele>77.0</ele><time>2026-04-08T09:02:37.943Z</time></trkpt><trkpt lat="45.2980374" lon="9.4112637"><ele>78.0</ele><time>2026-04-08T09:02:38.943Z</time></trkpt><trkpt lat="45.2982412" lon="9.4109638"><ele>79.0</ele><time>2026-04-08T09:02:39.944Z</time></trkpt><trkpt lat="45.2984432" lon="9.4106644"><ele>78.0</ele><time>2026-04-08T09:02:40.944Z</time></trkpt><trkpt lat="45.2986461" lon="9.4103649"><ele>77.0</ele><time>2026-04-08T09:02:41.943Z</time></trkpt><trkpt lat="45.2988483" lon="9.4100637"><ele>77.0</ele><time>2026-04-08T09:02:42.944Z</time></trkpt><trkpt lat="45.2990529" lon="9.4097669"><ele>77.0</ele><time>2026-04-08T09:02:43.944Z</time></trkpt><trkpt lat="45.2992591" lon="9.4094702"><ele>77.5</ele><time>2026-04-08T09:02:44.943Z</time></trkpt><trkpt lat="45.2994657" lon="9.4091756"><ele>78.0</ele><time>2026-04-08T09:02:45.943Z</time></trkpt><trkpt lat="45.2996731" lon="9.4088803"><ele>79.0</ele><time>2026-04-08T09:02:46.943Z</time></trkpt><trkpt lat="45.2998788" lon="9.4085857"><ele>80.0</ele><time>2026-04-08T09:02:47.943Z</time></trkpt><trkpt lat="45.3000851" lon="9.4082906"><ele>80.0</ele><time>2026-04-08T09:02:48.943Z</time></trkpt><trkpt lat="45.300294" lon="9.4079999"><ele>80.0</ele><time>2026-04-08T09:02:49.943Z</time></trkpt><trkpt lat="45.3005061" lon="9.4077097"><ele>80.0</ele><time>2026-04-08T09:02:50.944Z</time></trkpt><trkpt lat="45.300718" lon="9.4074177"><ele>80.0</ele><time>2026-04-08T09:02:51.943Z</time></trkpt><trkpt lat="45.3009301" lon="9.4071264"><ele>80.0</ele><time>2026-04-08T09:02:52.943Z</time></trkpt><trkpt lat="45.3011436" lon="9.4068375"><ele>80.0</ele><time>2026-04-08T09:02:53.943Z</time></trkpt><trkpt lat="45.301355" lon="9.4065463"><ele>79.5</ele><time>2026-04-08T09:02:54.943Z</time></trkpt><trkpt lat="45.3015658" lon="9.4062504"><ele>79.0</ele><time>2026-04-08T09:02:55.943Z</time></trkpt><trkpt lat="45.3017749" lon="9.405957"><ele>79.0</ele><time>2026-04-08T09:02:56.943Z</time></trkpt><trkpt lat="45.301984" lon="9.4056645"><ele>79.0</ele><time>2026-04-08T09:02:57.943Z</time></trkpt><trkpt lat="45.3021927" lon="9.4053712"><ele>79.5</ele><time>2026-04-08T09:02:58.943Z</time></trkpt><trkpt lat="45.3023982" lon="9.4050743"><ele>80.0</ele><time>2026-04-08T09:02:59.943Z</time></trkpt><trkpt lat="45.3026033" lon="9.40478"><ele>79.5</ele><time>2026-04-08T09:03:00.943Z</time></trkpt><trkpt lat="45.3028102" lon="9.4044824"><ele>79.0</ele><time>2026-04-08T09:03:01.943Z</time></trkpt><trkpt lat="45.3030166" lon="9.4041893"><ele>79.0</ele><time>2026-04-08T09:03:02.943Z</time></trkpt><trkpt lat="45.3032233" lon="9.4038963"><ele>79.0</ele><time>2026-04-08T09:03:03.943Z</time></trkpt><trkpt lat="45.3034312" lon="9.4036049"><ele>79.0</ele><time>2026-04-08T09:03:04.943Z</time></trkpt><trkpt lat="45.3036349" lon="9.4033106"><ele>79.0</ele><time>2026-04-08T09:03:05.943Z</time></trkpt><trkpt lat="45.303841" lon="9.4030164"><ele>79.0</ele><time>2026-04-08T09:03:06.943Z</time></trkpt><trkpt lat="45.3040479" lon="9.4027235"><ele>79.0</ele><time>2026-04-08T09:03:07.943Z</time></trkpt><trkpt lat="45.3042563" lon="9.4024338"><ele>80.0</ele><time>2026-04-08T09:03:08.943Z</time></trkpt><trkpt lat="45.3044666" lon="9.4021422"><ele>81.0</ele><time>2026-04-08T09:03:09.943Z</time></trkpt><trkpt lat="45.3046742" lon="9.401849"><ele>81.0</ele><time>2026-04-08T09:03:10.944Z</time></trkpt><trkpt lat="45.3048753" lon="9.4015501"><ele>81.0</ele><time>2026-04-08T09:03:11.943Z</time></trkpt><trkpt lat="45.3050749" lon="9.4012474"><ele>81.0</ele><time>2026-04-08T09:03:12.943Z</time></trkpt><trkpt lat="45.3052754" lon="9.4009432"><ele>81.0</ele><time>2026-04-08T09:03:13.943Z</time></trkpt><trkpt lat="45.3054754" lon="9.400639"><ele>81.0</ele><time>2026-04-08T09:03:14.943Z</time></trkpt><trkpt lat="45.3056767" lon="9.4003379"><ele>81.0</ele><time>2026-04-08T09:03:15.943Z</time></trkpt><trkpt lat="45.3058773" lon="9.4000331"><ele>81.0</ele><time>2026-04-08T09:03:16.943Z</time></trkpt><trkpt lat="45.3060781" lon="9.3997294"><ele>81.0</ele><time>2026-04-08T09:03:17.943Z</time></trkpt><trkpt lat="45.306279" lon="9.3994231"><ele>81.5</ele><time>2026-04-08T09:03:18.943Z</time></trkpt><trkpt lat="45.3064805" lon="9.3991182"><ele>82.0</ele><time>2026-04-08T09:03:19.943Z</time></trkpt><trkpt lat="45.3066794" lon="9.3988163"><ele>82.0</ele><time>2026-04-08T09:03:20.943Z</time></trkpt><trkpt lat="45.3068785" lon="9.3985095"><ele>82.0</ele><time>2026-04-08T09:03:21.943Z</time></trkpt><trkpt lat="45.3070766" lon="9.3982038"><ele>81.0</ele><time>2026-04-08T09:03:22.943Z</time></trkpt><trkpt lat="45.3072758" lon="9.3978942"><ele>80.0</ele><time>2026-04-08T09:03:23.944Z</time></trkpt><trkpt lat="45.3074773" lon="9.3975889"><ele>80.0</ele><time>2026-04-08T09:03:24.943Z</time></trkpt><trkpt lat="45.3076768" lon="9.3972829"><ele>80.0</ele><time>2026-04-08T09:03:25.943Z</time></trkpt><trkpt lat="45.3078765" lon="9.396976"><ele>80.5</ele><time>2026-04-08T09:03:26.943Z</time></trkpt><trkpt lat="45.3080771" lon="9.3966687"><ele>81.0</ele><time>2026-04-08T09:03:27.944Z</time></trkpt><trkpt lat="45.3082752" lon="9.3963635"><ele>81.0</ele><time>2026-04-08T09:03:28.943Z</time></trkpt><trkpt lat="45.3084709" lon="9.3960565"><ele>81.0</ele><time>2026-04-08T09:03:29.944Z</time></trkpt><trkpt lat="45.3086709" lon="9.3957557"><ele>81.0</ele><time>2026-04-08T09:03:30.943Z</time></trkpt><trkpt lat="45.3088693" lon="9.3954531"><ele>81.0</ele><time>2026-04-08T09:03:31.943Z</time></trkpt><trkpt lat="45.3090692" lon="9.3951491"><ele>81.0</ele><time>2026-04-08T09:03:32.943Z</time></trkpt><trkpt lat="45.3092693" lon="9.3948446"><ele>81.0</ele><time>2026-04-08T09:03:33.943Z</time></trkpt><trkpt lat="45.3094682" lon="9.3945411"><ele>81.0</ele><time>2026-04-08T09:03:34.943Z</time></trkpt><trkpt lat="45.3096668" lon="9.3942352"><ele>81.0</ele><time>2026-04-08T09:03:35.944Z</time></trkpt><trkpt lat="45.3098652" lon="9.3939272"><ele>81.0</ele><time>2026-04-08T09:03:36.944Z</time></trkpt><trkpt lat="45.3100647" lon="9.3936221"><ele>81.0</ele><time>2026-04-08T09:03:37.943Z</time></trkpt><trkpt lat="45.3102624" lon="9.3933142"><ele>81.0</ele><time>2026-04-08T09:03:38.943Z</time></trkpt><trkpt lat="45.3104636" lon="9.3930066"><ele>81.0</ele><time>2026-04-08T09:03:39.943Z</time></trkpt><trkpt lat="45.3106628" lon="9.3927018"><ele>81.0</ele><time>2026-04-08T09:03:40.943Z</time></trkpt><trkpt lat="45.3108624" lon="9.3923964"><ele>81.0</ele><time>2026-04-08T09:03:41.943Z</time></trkpt><trkpt lat="45.3110616" lon="9.3920921"><ele>80.5</ele><time>2026-04-08T09:03:42.944Z</time></trkpt><trkpt lat="45.3112617" lon="9.3917889"><ele>80.0</ele><time>2026-04-08T09:03:43.944Z</time></trkpt><trkpt lat="45.3114613" lon="9.391484"><ele>80.0</ele><time>2026-04-08T09:03:44.943Z</time></trkpt><trkpt lat="45.3116603" lon="9.3911771"><ele>80.0</ele><time>2026-04-08T09:03:45.944Z</time></trkpt><trkpt lat="45.3118581" lon="9.390868"><ele>80.0</ele><time>2026-04-08T09:03:46.944Z</time></trkpt><trkpt lat="45.3120568" lon="9.3905622"><ele>80.0</ele><time>2026-04-08T09:03:47.944Z</time></trkpt><trkpt lat="45.3122564" lon="9.3902571"><ele>80.0</ele><time>2026-04-08T09:03:48.943Z</time></trkpt><trkpt lat="45.312457" lon="9.3899538"><ele>80.0</ele><time>2026-04-08T09:03:49.944Z</time></trkpt><trkpt lat="45.3126575" lon="9.3896485"><ele>80.5</ele><time>2026-04-08T09:03:50.943Z</time></trkpt><trkpt lat="45.3128575" lon="9.3893421"><ele>81.0</ele><time>2026-04-08T09:03:51.943Z</time></trkpt><trkpt lat="45.3130566" lon="9.3890377"><ele>81.5</ele><time>2026-04-08T09:03:52.944Z</time></trkpt><trkpt lat="45.3132569" lon="9.3887308"><ele>82.0</ele><time>2026-04-08T09:03:53.944Z</time></trkpt><trkpt lat="45.3134559" lon="9.3884232"><ele>82.0</ele><time>2026-04-08T09:03:54.944Z</time></trkpt><trkpt lat="45.313654" lon="9.388116"><ele>82.0</ele><time>2026-04-08T09:03:55.943Z</time></trkpt><trkpt lat="45.3138525" lon="9.3878093"><ele>81.5</ele><time>2026-04-08T09:03:56.943Z</time></trkpt><trkpt lat="45.3140527" lon="9.3875041"><ele>81.0</ele><time>2026-04-08T09:03:57.943Z</time></trkpt><trkpt lat="45.3142523" lon="9.3871966"><ele>82.0</ele><time>2026-04-08T09:03:58.943Z</time></trkpt><trkpt lat="45.3144519" lon="9.3868923"><ele>83.0</ele><time>2026-04-08T09:03:59.943Z</time></trkpt><trkpt lat="45.3146502" lon="9.3865872"><ele>81.5</ele><time>2026-04-08T09:04:00.944Z</time></trkpt><trkpt lat="45.314848" lon="9.3862817"><ele>80.0</ele><time>2026-04-08T09:04:01.943Z</time></trkpt><trkpt lat="45.3150489" lon="9.385976"><ele>80.0</ele><time>2026-04-08T09:04:02.944Z</time></trkpt><trkpt lat="45.3152475" lon="9.3856713"><ele>80.0</ele><time>2026-04-08T09:04:03.944Z</time></trkpt><trkpt lat="45.3154459" lon="9.3853656"><ele>80.5</ele><time>2026-04-08T09:04:04.943Z</time></trkpt><trkpt lat="45.3156444" lon="9.3850607"><ele>81.0</ele><time>2026-04-08T09:04:05.943Z</time></trkpt><trkpt lat="45.3158416" lon="9.3847583"><ele>81.0</ele><time>2026-04-08T09:04:06.944Z</time></trkpt><trkpt lat="45.3160407" lon="9.3844575"><ele>81.0</ele><time>2026-04-08T09:04:07.943Z</time></trkpt><trkpt lat="45.3162394" lon="9.3841521"><ele>81.5</ele><time>2026-04-08T09:04:08.943Z</time></trkpt><trkpt lat="45.3164374" lon="9.3838468"><ele>82.0</ele><time>2026-04-08T09:04:09.944Z</time></trkpt><trkpt lat="45.3166372" lon="9.3835423"><ele>82.0</ele><time>2026-04-08T09:04:10.943Z</time></trkpt><trkpt lat="45.3168388" lon="9.3832343"><ele>82.0</ele><time>2026-04-08T09:04:11.944Z</time></trkpt><trkpt lat="45.3170375" lon="9.3829252"><ele>82.0</ele><time>2026-04-08T09:04:12.944Z</time></trkpt><trkpt lat="45.3172396" lon="9.38262"><ele>82.0</ele><time>2026-04-08T09:04:13.943Z</time></trkpt><trkpt lat="45.3174434" lon="9.3823147"><ele>82.0</ele><time>2026-04-08T09:04:14.943Z</time></trkpt><trkpt lat="45.3176463" lon="9.3820083"><ele>82.0</ele><time>2026-04-08T09:04:15.944Z</time></trkpt><trkpt lat="45.3178493" lon="9.3817031"><ele>82.0</ele><time>2026-04-08T09:04:16.943Z</time></trkpt><trkpt lat="45.3180507" lon="9.3813994"><ele>82.0</ele><time>2026-04-08T09:04:17.944Z</time></trkpt><trkpt lat="45.3182495" lon="9.3810897"><ele>82.0</ele><time>2026-04-08T09:04:18.944Z</time></trkpt><trkpt lat="45.3184475" lon="9.3807836"><ele>82.0</ele><time>2026-04-08T09:04:19.944Z</time></trkpt><trkpt lat="45.3186483" lon="9.3804752"><ele>82.0</ele><time>2026-04-08T09:04:20.943Z</time></trkpt><trkpt lat="45.3188483" lon="9.3801666"><ele>82.0</ele><time>2026-04-08T09:04:21.943Z</time></trkpt><trkpt lat="45.3190473" lon="9.3798604"><ele>83.0</ele><time>2026-04-08T09:04:22.944Z</time></trkpt><trkpt lat="45.3192489" lon="9.3795535"><ele>84.0</ele><time>2026-04-08T09:04:23.943Z</time></trkpt><trkpt lat="45.3194505" lon="9.379247"><ele>84.0</ele><time>2026-04-08T09:04:24.944Z</time></trkpt><trkpt lat="45.3196485" lon="9.3789383"><ele>84.0</ele><time>2026-04-08T09:04:25.943Z</time></trkpt><trkpt lat="45.3198473" lon="9.3786308"><ele>84.0</ele><time>2026-04-08T09:04:26.943Z</time></trkpt><trkpt lat="45.3200441" lon="9.3783217"><ele>84.0</ele><time>2026-04-08T09:04:27.944Z</time></trkpt><trkpt lat="45.3202417" lon="9.3780133"><ele>84.0</ele><time>2026-04-08T09:04:28.943Z</time></trkpt><trkpt lat="45.3204407" lon="9.3777074"><ele>84.0</ele><time>2026-04-08T09:04:29.943Z</time></trkpt><trkpt lat="45.3206389" lon="9.3773986"><ele>84.5</ele><time>2026-04-08T09:04:30.944Z</time></trkpt><trkpt lat="45.3208397" lon="9.377096"><ele>85.0</ele><time>2026-04-08T09:04:31.943Z</time></trkpt><trkpt lat="45.32104" lon="9.3767937"><ele>85.0</ele><time>2026-04-08T09:04:32.943Z</time></trkpt><trkpt lat="45.3212408" lon="9.3764928"><ele>85.0</ele><time>2026-04-08T09:04:33.943Z</time></trkpt><trkpt lat="45.3214427" lon="9.3761897"><ele>84.5</ele><time>2026-04-08T09:04:34.943Z</time></trkpt><trkpt lat="45.3216394" lon="9.3758811"><ele>84.0</ele><time>2026-04-08T09:04:35.944Z</time></trkpt><trkpt lat="45.3218315" lon="9.3755655"><ele>84.0</ele><time>2026-04-08T09:04:36.943Z</time></trkpt><trkpt lat="45.3220227" lon="9.3752474"><ele>84.0</ele><time>2026-04-08T09:04:37.944Z</time></trkpt><trkpt lat="45.3222152" lon="9.3749322"><ele>84.0</ele><time>2026-04-08T09:04:38.944Z</time></trkpt><trkpt lat="45.322414" lon="9.3746222"><ele>84.0</ele><time>2026-04-08T09:04:39.943Z</time></trkpt><trkpt lat="45.3226117" lon="9.3743149"><ele>84.0</ele><time>2026-04-08T09:04:40.943Z</time></trkpt><trkpt lat="45.3228101" lon="9.3740094"><ele>84.0</ele><time>2026-04-08T09:04:41.943Z</time></trkpt><trkpt lat="45.3230097" lon="9.3737112"><ele>83.5</ele><time>2026-04-08T09:04:42.944Z</time></trkpt><trkpt lat="45.3232141" lon="9.3734191"><ele>83.0</ele><time>2026-04-08T09:04:43.944Z</time></trkpt><trkpt lat="45.3234183" lon="9.3731252"><ele>82.5</ele><time>2026-04-08T09:04:44.943Z</time></trkpt><trkpt lat="45.3236206" lon="9.3728299"><ele>82.0</ele><time>2026-04-08T09:04:45.944Z</time></trkpt><trkpt lat="45.3238229" lon="9.3725307"><ele>83.5</ele><time>2026-04-08T09:04:46.943Z</time></trkpt><trkpt lat="45.3240246" lon="9.3722274"><ele>85.0</ele><time>2026-04-08T09:04:47.943Z</time></trkpt><trkpt lat="45.324228" lon="9.3719216"><ele>85.0</ele><time>2026-04-08T09:04:48.943Z</time></trkpt><trkpt lat="45.3244297" lon="9.3716154"><ele>85.0</ele><time>2026-04-08T09:04:49.943Z</time></trkpt><trkpt lat="45.3246275" lon="9.3713058"><ele>83.5</ele><time>2026-04-08T09:04:50.943Z</time></trkpt><trkpt lat="45.324827" lon="9.3709971"><ele>82.0</ele><time>2026-04-08T09:04:51.943Z</time></trkpt><trkpt lat="45.3250259" lon="9.3706885"><ele>82.0</ele><time>2026-04-08T09:04:52.943Z</time></trkpt><trkpt lat="45.3252242" lon="9.3703809"><ele>82.0</ele><time>2026-04-08T09:04:53.944Z</time></trkpt><trkpt lat="45.3254229" lon="9.3700747"><ele>82.0</ele><time>2026-04-08T09:04:54.943Z</time></trkpt><trkpt lat="45.3256224" lon="9.3697651"><ele>82.0</ele><time>2026-04-08T09:04:55.943Z</time></trkpt><trkpt lat="45.3258197" lon="9.3694552"><ele>82.5</ele><time>2026-04-08T09:04:56.943Z</time></trkpt><trkpt lat="45.3260178" lon="9.3691461"><ele>83.0</ele><time>2026-04-08T09:04:57.943Z</time></trkpt><trkpt lat="45.3262173" lon="9.3688383"><ele>82.0</ele><time>2026-04-08T09:04:58.943Z</time></trkpt><trkpt lat="45.3264159" lon="9.3685311"><ele>81.0</ele><time>2026-04-08T09:04:59.943Z</time></trkpt><trkpt lat="45.3266142" lon="9.3682256"><ele>82.0</ele><time>2026-04-08T09:05:00.943Z</time></trkpt><trkpt lat="45.3268128" lon="9.3679183"><ele>83.0</ele><time>2026-04-08T09:05:01.943Z</time></trkpt><trkpt lat="45.327012" lon="9.3676156"><ele>83.0</ele><time>2026-04-08T09:05:02.943Z</time></trkpt><trkpt lat="45.3272103" lon="9.367312"><ele>83.0</ele><time>2026-04-08T09:05:03.943Z</time></trkpt><trkpt lat="45.3274095" lon="9.3670102"><ele>83.0</ele><time>2026-04-08T09:05:04.943Z</time></trkpt><trkpt lat="45.3276077" lon="9.3667079"><ele>83.0</ele><time>2026-04-08T09:05:05.943Z</time></trkpt><trkpt lat="45.3278074" lon="9.3664044"><ele>83.0</ele><time>2026-04-08T09:05:06.943Z</time></trkpt><trkpt lat="45.3280064" lon="9.3661061"><ele>83.0</ele><time>2026-04-08T09:05:07.943Z</time></trkpt><trkpt lat="45.3282066" lon="9.3658036"><ele>83.0</ele><time>2026-04-08T09:05:08.943Z</time></trkpt><trkpt lat="45.3284054" lon="9.3655008"><ele>83.0</ele><time>2026-04-08T09:05:09.943Z</time></trkpt><trkpt lat="45.3286123" lon="9.3652071"><ele>83.0</ele><time>2026-04-08T09:05:10.944Z</time></trkpt><trkpt lat="45.3288182" lon="9.3649133"><ele>83.0</ele><time>2026-04-08T09:05:11.943Z</time></trkpt><trkpt lat="45.3290181" lon="9.3646093"><ele>84.0</ele><time>2026-04-08T09:05:12.943Z</time></trkpt><trkpt lat="45.3292169" lon="9.3643026"><ele>85.0</ele><time>2026-04-08T09:05:13.943Z</time></trkpt><trkpt lat="45.3294176" lon="9.363995"><ele>85.0</ele><time>2026-04-08T09:05:14.944Z</time></trkpt><trkpt lat="45.3296175" lon="9.3636876"><ele>85.0</ele><time>2026-04-08T09:05:15.943Z</time></trkpt><trkpt lat="45.3298165" lon="9.3633785"><ele>85.0</ele><time>2026-04-08T09:05:16.943Z</time></trkpt><trkpt lat="45.3300165" lon="9.3630699"><ele>85.0</ele><time>2026-04-08T09:05:17.943Z</time></trkpt><trkpt lat="45.3302071" lon="9.3627499"><ele>85.5</ele><time>2026-04-08T09:05:18.944Z</time></trkpt><trkpt lat="45.3303959" lon="9.3624327"><ele>86.0</ele><time>2026-04-08T09:05:19.943Z</time></trkpt><trkpt lat="45.3305913" lon="9.3621169"><ele>86.0</ele><time>2026-04-08T09:05:20.943Z</time></trkpt><trkpt lat="45.330786" lon="9.3617993"><ele>86.0</ele><time>2026-04-08T09:05:21.944Z</time></trkpt><trkpt lat="45.3309771" lon="9.3614786"><ele>86.0</ele><time>2026-04-08T09:05:22.944Z</time></trkpt><trkpt lat="45.3311635" lon="9.3611518"><ele>86.0</ele><time>2026-04-08T09:05:23.943Z</time></trkpt><trkpt lat="45.3313473" lon="9.3608189"><ele>84.5</ele><time>2026-04-08T09:05:24.943Z</time></trkpt><trkpt lat="45.3315284" lon="9.3604856"><ele>83.0</ele><time>2026-04-08T09:05:25.943Z</time></trkpt><trkpt lat="45.3317067" lon="9.3601526"><ele>83.0</ele><time>2026-04-08T09:05:26.944Z</time></trkpt><trkpt lat="45.3318832" lon="9.3598151"><ele>83.0</ele><time>2026-04-08T09:05:27.943Z</time></trkpt><trkpt lat="45.3320579" lon="9.3594801"><ele>83.5</ele><time>2026-04-08T09:05:28.944Z</time></trkpt><trkpt lat="45.3322263" lon="9.3591405"><ele>84.0</ele><time>2026-04-08T09:05:29.943Z</time></trkpt><trkpt lat="45.332392" lon="9.3587981"><ele>84.5</ele><time>2026-04-08T09:05:30.943Z</time></trkpt><trkpt lat="45.3325543" lon="9.3584532"><ele>85.0</ele><time>2026-04-08T09:05:31.944Z</time></trkpt><trkpt lat="45.3327136" lon="9.3581103"><ele>83.5</ele><time>2026-04-08T09:05:32.943Z</time></trkpt><trkpt lat="45.3328673" lon="9.357755"><ele>82.0</ele><time>2026-04-08T09:05:33.943Z</time></trkpt><trkpt lat="45.3330159" lon="9.3573975"><ele>81.0</ele><time>2026-04-08T09:05:34.943Z</time></trkpt><trkpt lat="45.3331609" lon="9.3570367"><ele>80.0</ele><time>2026-04-08T09:05:35.943Z</time></trkpt><trkpt lat="45.3333049" lon="9.3566737"><ele>79.5</ele><time>2026-04-08T09:05:36.944Z</time></trkpt><trkpt lat="45.3334467" lon="9.356314"><ele>79.0</ele><time>2026-04-08T09:05:37.943Z</time></trkpt><trkpt lat="45.3335864" lon="9.3559479"><ele>79.0</ele><time>2026-04-08T09:05:38.943Z</time></trkpt><trkpt lat="45.3337241" lon="9.3555812"><ele>79.0</ele><time>2026-04-08T09:05:39.943Z</time></trkpt><trkpt lat="45.3338617" lon="9.3552114"><ele>80.0</ele><time>2026-04-08T09:05:40.944Z</time></trkpt><trkpt lat="45.3339928" lon="9.3548384"><ele>81.0</ele><time>2026-04-08T09:05:41.943Z</time></trkpt><trkpt lat="45.3341167" lon="9.3544584"><ele>81.0</ele><time>2026-04-08T09:05:42.943Z</time></trkpt><trkpt lat="45.3342376" lon="9.354077"><ele>81.0</ele><time>2026-04-08T09:05:43.943Z</time></trkpt><trkpt lat="45.3343553" lon="9.3536939"><ele>80.5</ele><time>2026-04-08T09:05:44.944Z</time></trkpt><trkpt lat="45.334469" lon="9.3533069"><ele>80.0</ele><time>2026-04-08T09:05:45.943Z</time></trkpt><trkpt lat="45.3345793" lon="9.3529192"><ele>79.5</ele><time>2026-04-08T09:05:46.943Z</time></trkpt><trkpt lat="45.3346869" lon="9.3525308"><ele>79.0</ele><time>2026-04-08T09:05:47.943Z</time></trkpt><trkpt lat="45.3347912" lon="9.3521419"><ele>79.0</ele><time>2026-04-08T09:05:48.943Z</time></trkpt><trkpt lat="45.3348907" lon="9.351749"><ele>79.0</ele><time>2026-04-08T09:05:49.943Z</time></trkpt><trkpt lat="45.3349879" lon="9.3513572"><ele>80.0</ele><time>2026-04-08T09:05:50.943Z</time></trkpt><trkpt lat="45.3350815" lon="9.3509613"><ele>81.0</ele><time>2026-04-08T09:05:51.943Z</time></trkpt><trkpt lat="45.3351712" lon="9.3505633"><ele>80.5</ele><time>2026-04-08T09:05:52.943Z</time></trkpt><trkpt lat="45.335255" lon="9.3501654"><ele>80.0</ele><time>2026-04-08T09:05:53.943Z</time></trkpt><trkpt lat="45.335337" lon="9.3497715"><ele>79.5</ele><time>2026-04-08T09:05:54.944Z</time></trkpt><trkpt lat="45.3354151" lon="9.3493775"><ele>79.0</ele><time>2026-04-08T09:05:55.943Z</time></trkpt><trkpt lat="45.3354915" lon="9.3489796"><ele>79.5</ele><time>2026-04-08T09:05:56.943Z</time></trkpt><trkpt lat="45.3355667" lon="9.3485835"><ele>80.0</ele><time>2026-04-08T09:05:57.943Z</time></trkpt><trkpt lat="45.3356345" lon="9.3481814"><ele>80.0</ele><time>2026-04-08T09:05:58.944Z</time></trkpt><trkpt lat="45.3356967" lon="9.3477738"><ele>80.0</ele><time>2026-04-08T09:05:59.943Z</time></trkpt><trkpt lat="45.3357573" lon="9.3473634"><ele>79.5</ele><time>2026-04-08T09:06:00.943Z</time></trkpt><trkpt lat="45.3358165" lon="9.3469521"><ele>79.0</ele><time>2026-04-08T09:06:01.944Z</time></trkpt><trkpt lat="45.3358785" lon="9.3465425"><ele>79.0</ele><time>2026-04-08T09:06:02.943Z</time></trkpt><trkpt lat="45.3359426" lon="9.3461324"><ele>79.0</ele><time>2026-04-08T09:06:03.943Z</time></trkpt><trkpt lat="45.3360058" lon="9.3457252"><ele>79.0</ele><time>2026-04-08T09:06:04.944Z</time></trkpt><trkpt lat="45.3360697" lon="9.3453164"><ele>79.0</ele><time>2026-04-08T09:06:05.943Z</time></trkpt><trkpt lat="45.336134" lon="9.3449067"><ele>78.5</ele><time>2026-04-08T09:06:06.944Z</time></trkpt><trkpt lat="45.3361997" lon="9.3444987"><ele>78.0</ele><time>2026-04-08T09:06:07.943Z</time></trkpt><trkpt lat="45.3362635" lon="9.3440901"><ele>76.5</ele><time>2026-04-08T09:06:08.943Z</time></trkpt><trkpt lat="45.3363236" lon="9.3436835"><ele>75.0</ele><time>2026-04-08T09:06:09.943Z</time></trkpt><trkpt lat="45.336386" lon="9.3432764"><ele>76.0</ele><time>2026-04-08T09:06:10.944Z</time></trkpt><trkpt lat="45.3364471" lon="9.3428677"><ele>77.0</ele><time>2026-04-08T09:06:11.943Z</time></trkpt><trkpt lat="45.3365073" lon="9.3424656"><ele>76.5</ele><time>2026-04-08T09:06:12.944Z</time></trkpt><trkpt lat="45.3365701" lon="9.3420585"><ele>76.0</ele><time>2026-04-08T09:06:13.943Z</time></trkpt><trkpt lat="45.3366326" lon="9.3416523"><ele>74.5</ele><time>2026-04-08T09:06:14.943Z</time></trkpt><trkpt lat="45.3366946" lon="9.3412456"><ele>73.0</ele><time>2026-04-08T09:06:15.943Z</time></trkpt><trkpt lat="45.3367552" lon="9.3408412"><ele>74.0</ele><time>2026-04-08T09:06:16.944Z</time></trkpt><trkpt lat="45.3368168" lon="9.3404333"><ele>75.0</ele><time>2026-04-08T09:06:17.943Z</time></trkpt><trkpt lat="45.3368776" lon="9.340026"><ele>77.0</ele><time>2026-04-08T09:06:18.943Z</time></trkpt><trkpt lat="45.3369396" lon="9.3396189"><ele>79.0</ele><time>2026-04-08T09:06:19.943Z</time></trkpt><trkpt lat="45.3370017" lon="9.3392133"><ele>80.5</ele><time>2026-04-08T09:06:20.944Z</time></trkpt><trkpt lat="45.3370634" lon="9.338806"><ele>82.0</ele><time>2026-04-08T09:06:21.943Z</time></trkpt><trkpt lat="45.3371225" lon="9.3383978"><ele>83.0</ele><time>2026-04-08T09:06:22.943Z</time></trkpt><trkpt lat="45.3371845" lon="9.3379908"><ele>84.0</ele><time>2026-04-08T09:06:23.944Z</time></trkpt><trkpt lat="45.3372481" lon="9.3375831"><ele>84.0</ele><time>2026-04-08T09:06:24.944Z</time></trkpt><trkpt lat="45.337311" lon="9.3371759"><ele>84.0</ele><time>2026-04-08T09:06:25.944Z</time></trkpt><trkpt lat="45.3373741" lon="9.3367682"><ele>84.0</ele><time>2026-04-08T09:06:26.944Z</time></trkpt><trkpt lat="45.3374339" lon="9.3363618"><ele>84.0</ele><time>2026-04-08T09:06:27.944Z</time></trkpt><trkpt lat="45.3374973" lon="9.3359527"><ele>83.5</ele><time>2026-04-08T09:06:28.944Z</time></trkpt><trkpt lat="45.3375606" lon="9.3355446"><ele>83.0</ele><time>2026-04-08T09:06:29.943Z</time></trkpt><trkpt lat="45.3376228" lon="9.3351394"><ele>83.0</ele><time>2026-04-08T09:06:30.943Z</time></trkpt><trkpt lat="45.3376861" lon="9.3347305"><ele>83.0</ele><time>2026-04-08T09:06:31.943Z</time></trkpt><trkpt lat="45.3377488" lon="9.334326"><ele>83.5</ele><time>2026-04-08T09:06:32.944Z</time></trkpt><trkpt lat="45.3378113" lon="9.3339171"><ele>84.0</ele><time>2026-04-08T09:06:33.943Z</time></trkpt><trkpt lat="45.3378766" lon="9.333508"><ele>84.0</ele><time>2026-04-08T09:06:34.944Z</time></trkpt><trkpt lat="45.3379408" lon="9.3330987"><ele>84.0</ele><time>2026-04-08T09:06:35.943Z</time></trkpt><trkpt lat="45.338005" lon="9.3326889"><ele>84.0</ele><time>2026-04-08T09:06:36.943Z</time></trkpt><trkpt lat="45.3380695" lon="9.3322799"><ele>84.0</ele><time>2026-04-08T09:06:37.944Z</time></trkpt><trkpt lat="45.3381322" lon="9.3318733"><ele>85.0</ele><time>2026-04-08T09:06:38.943Z</time></trkpt><trkpt lat="45.3381932" lon="9.3314634"><ele>86.0</ele><time>2026-04-08T09:06:39.943Z</time></trkpt><trkpt lat="45.3382551" lon="9.3310556"><ele>86.5</ele><time>2026-04-08T09:06:40.944Z</time></trkpt><trkpt lat="45.3383176" lon="9.3306514"><ele>87.0</ele><time>2026-04-08T09:06:41.943Z</time></trkpt><trkpt lat="45.3383853" lon="9.3302463"><ele>87.0</ele><time>2026-04-08T09:06:42.943Z</time></trkpt><trkpt lat="45.3384588" lon="9.329846"><ele>87.0</ele><time>2026-04-08T09:06:43.943Z</time></trkpt><trkpt lat="45.3385345" lon="9.3294464"><ele>87.5</ele><time>2026-04-08T09:06:44.943Z</time></trkpt><trkpt lat="45.3386224" lon="9.3290458"><ele>88.0</ele><time>2026-04-08T09:06:45.943Z</time></trkpt><trkpt lat="45.3387157" lon="9.3286523"><ele>87.0</ele><time>2026-04-08T09:06:46.943Z</time></trkpt><trkpt lat="45.3388118" lon="9.3282584"><ele>86.0</ele><time>2026-04-08T09:06:47.943Z</time></trkpt><trkpt lat="45.3389127" lon="9.327866"><ele>86.0</ele><time>2026-04-08T09:06:48.944Z</time></trkpt><trkpt lat="45.3390185" lon="9.3274799"><ele>86.0</ele><time>2026-04-08T09:06:49.943Z</time></trkpt><trkpt lat="45.3391313" lon="9.3270952"><ele>86.0</ele><time>2026-04-08T09:06:50.943Z</time></trkpt><trkpt lat="45.3392489" lon="9.3267106"><ele>86.0</ele><time>2026-04-08T09:06:51.943Z</time></trkpt><trkpt lat="45.3393657" lon="9.326328"><ele>87.0</ele><time>2026-04-08T09:06:52.943Z</time></trkpt><trkpt lat="45.3394846" lon="9.3259465"><ele>88.0</ele><time>2026-04-08T09:06:53.943Z</time></trkpt><trkpt lat="45.3396022" lon="9.3255671"><ele>88.5</ele><time>2026-04-08T09:06:54.944Z</time></trkpt><trkpt lat="45.3397239" lon="9.3251931"><ele>89.0</ele><time>2026-04-08T09:06:55.943Z</time></trkpt><trkpt lat="45.3398455" lon="9.3248202"><ele>89.0</ele><time>2026-04-08T09:06:56.943Z</time></trkpt><trkpt lat="45.3399752" lon="9.3244486"><ele>89.0</ele><time>2026-04-08T09:06:57.944Z</time></trkpt><trkpt lat="45.3401071" lon="9.3240767"><ele>88.5</ele><time>2026-04-08T09:06:58.944Z</time></trkpt><trkpt lat="45.3402426" lon="9.3237058"><ele>88.0</ele><time>2026-04-08T09:06:59.943Z</time></trkpt><trkpt lat="45.3403811" lon="9.3233422"><ele>88.0</ele><time>2026-04-08T09:07:00.943Z</time></trkpt><trkpt lat="45.3405249" lon="9.3229765"><ele>88.0</ele><time>2026-04-08T09:07:01.944Z</time></trkpt><trkpt lat="45.3406725" lon="9.3226102"><ele>88.5</ele><time>2026-04-08T09:07:02.943Z</time></trkpt><trkpt lat="45.3408237" lon="9.32225"><ele>89.0</ele><time>2026-04-08T09:07:03.944Z</time></trkpt><trkpt lat="45.3409779" lon="9.3218923"><ele>89.5</ele><time>2026-04-08T09:07:04.944Z</time></trkpt><trkpt lat="45.3411363" lon="9.3215387"><ele>90.0</ele><time>2026-04-08T09:07:05.944Z</time></trkpt><trkpt lat="45.3412965" lon="9.3211882"><ele>89.5</ele><time>2026-04-08T09:07:06.943Z</time></trkpt><trkpt lat="45.3414603" lon="9.3208373"><ele>89.0</ele><time>2026-04-08T09:07:07.944Z</time></trkpt><trkpt lat="45.3416253" lon="9.320495"><ele>89.0</ele><time>2026-04-08T09:07:08.943Z</time></trkpt><trkpt lat="45.3417945" lon="9.3201576"><ele>89.0</ele><time>2026-04-08T09:07:09.944Z</time></trkpt><trkpt lat="45.3419658" lon="9.3198222"><ele>89.0</ele><time>2026-04-08T09:07:10.943Z</time></trkpt><trkpt lat="45.342139" lon="9.3194877"><ele>89.0</ele><time>2026-04-08T09:07:11.943Z</time></trkpt><trkpt lat="45.3423174" lon="9.3191573"><ele>90.0</ele><time>2026-04-08T09:07:12.943Z</time></trkpt><trkpt lat="45.3425014" lon="9.3188351"><ele>91.0</ele><time>2026-04-08T09:07:13.943Z</time></trkpt><trkpt lat="45.3426902" lon="9.3185138"><ele>91.0</ele><time>2026-04-08T09:07:14.943Z</time></trkpt><trkpt lat="45.3428821" lon="9.3181966"><ele>91.0</ele><time>2026-04-08T09:07:15.943Z</time></trkpt><trkpt lat="45.3430802" lon="9.3178851"><ele>90.0</ele><time>2026-04-08T09:07:16.943Z</time></trkpt><trkpt lat="45.3432827" lon="9.3175824"><ele>89.0</ele><time>2026-04-08T09:07:17.943Z</time></trkpt><trkpt lat="45.3434828" lon="9.3172769"><ele>89.0</ele><time>2026-04-08T09:07:18.944Z</time></trkpt><trkpt lat="45.3436874" lon="9.316978"><ele>89.0</ele><time>2026-04-08T09:07:19.943Z</time></trkpt><trkpt lat="45.3438954" lon="9.3166832"><ele>89.0</ele><time>2026-04-08T09:07:20.943Z</time></trkpt><trkpt lat="45.3441074" lon="9.3163967"><ele>89.0</ele><time>2026-04-08T09:07:21.943Z</time></trkpt><trkpt lat="45.3443259" lon="9.3161158"><ele>89.0</ele><time>2026-04-08T09:07:22.943Z</time></trkpt><trkpt lat="45.3445454" lon="9.3158399"><ele>89.0</ele><time>2026-04-08T09:07:23.943Z</time></trkpt><trkpt lat="45.344767" lon="9.3155683"><ele>89.5</ele><time>2026-04-08T09:07:24.943Z</time></trkpt><trkpt lat="45.3449913" lon="9.315303"><ele>90.0</ele><time>2026-04-08T09:07:25.943Z</time></trkpt><trkpt lat="45.3452155" lon="9.3150377"><ele>90.0</ele><time>2026-04-08T09:07:26.943Z</time></trkpt><trkpt lat="45.3454419" lon="9.3147756"><ele>90.0</ele><time>2026-04-08T09:07:27.943Z</time></trkpt><trkpt lat="45.3456688" lon="9.3145203"><ele>90.0</ele><time>2026-04-08T09:07:28.943Z</time></trkpt><trkpt lat="45.3458873" lon="9.314279"><ele>90.0</ele><time>2026-04-08T09:07:29.943Z</time></trkpt><trkpt lat="45.346093" lon="9.3140513"><ele>89.5</ele><time>2026-04-08T09:07:30.943Z</time></trkpt><trkpt lat="45.3462881" lon="9.3138363"><ele>89.0</ele><time>2026-04-08T09:07:31.944Z</time></trkpt><trkpt lat="45.3464742" lon="9.3136281"><ele>89.0</ele><time>2026-04-08T09:07:32.944Z</time></trkpt><trkpt lat="45.3466579" lon="9.3134254"><ele>89.0</ele><time>2026-04-08T09:07:33.943Z</time></trkpt><trkpt lat="45.346843" lon="9.3132229"><ele>89.0</ele><time>2026-04-08T09:07:34.943Z</time></trkpt><trkpt lat="45.3470277" lon="9.3130172"><ele>89.0</ele><time>2026-04-08T09:07:35.944Z</time></trkpt><trkpt lat="45.3472142" lon="9.312815"><ele>89.0</ele><time>2026-04-08T09:07:36.944Z</time></trkpt><trkpt lat="45.3473961" lon="9.3126098"><ele>89.0</ele><time>2026-04-08T09:07:37.943Z</time></trkpt><trkpt lat="45.3475745" lon="9.3124091"><ele>89.0</ele><time>2026-04-08T09:07:38.944Z</time></trkpt><trkpt lat="45.3477485" lon="9.3122186"><ele>89.0</ele><time>2026-04-08T09:07:39.944Z</time></trkpt><trkpt lat="45.347918" lon="9.312036"><ele>89.0</ele><time>2026-04-08T09:07:40.944Z</time></trkpt><trkpt lat="45.3480881" lon="9.3118641"><ele>89.0</ele><time>2026-04-08T09:07:41.943Z</time></trkpt><trkpt lat="45.3482506" lon="9.311698"><ele>89.0</ele><time>2026-04-08T09:07:42.943Z</time></trkpt><trkpt lat="45.3484087" lon="9.3115355"><ele>89.0</ele><time>2026-04-08T09:07:43.943Z</time></trkpt><trkpt lat="45.3485566" lon="9.311378"><ele>89.0</ele><time>2026-04-08T09:07:44.943Z</time></trkpt><trkpt lat="45.3486927" lon="9.3112287"><ele>89.0</ele><time>2026-04-08T09:07:45.943Z</time></trkpt><trkpt lat="45.3488206" lon="9.3110853"><ele>89.0</ele><time>2026-04-08T09:07:46.944Z</time></trkpt><trkpt lat="45.3489396" lon="9.3109486"><ele>90.0</ele><time>2026-04-08T09:07:47.943Z</time></trkpt><trkpt lat="45.3490466" lon="9.3108214"><ele>91.0</ele><time>2026-04-08T09:07:48.943Z</time></trkpt><trkpt lat="45.3491481" lon="9.3107067"><ele>92.0</ele><time>2026-04-08T09:07:49.943Z</time></trkpt><trkpt lat="45.3492345" lon="9.3106061"><ele>93.0</ele><time>2026-04-08T09:07:50.943Z</time></trkpt><trkpt lat="45.3493105" lon="9.3105145"><ele>93.0</ele><time>2026-04-08T09:07:51.943Z</time></trkpt><trkpt lat="45.3493715" lon="9.3104368"><ele>93.0</ele><time>2026-04-08T09:07:52.943Z</time></trkpt><trkpt lat="45.34942" lon="9.3103759"><ele>93.0</ele><time>2026-04-08T09:07:53.943Z</time></trkpt><trkpt lat="45.3494896" lon="9.3102961"><ele>93.0</ele><time>2026-04-08T09:07:55.943Z</time></trkpt><trkpt lat="45.3495421" lon="9.3102361"><ele>93.0</ele><time>2026-04-08T09:07:58.944Z</time></trkpt><trkpt lat="45.3496044" lon="9.3101783"><ele>93.0</ele><time>2026-04-08T09:12:12.943Z</time></trkpt><trkpt lat="45.3496881" lon="9.3100728"><ele>92.60000000000001</ele><time>2026-04-08T09:12:14.943Z</time></trkpt><trkpt lat="45.3497422" lon="9.3099931"><ele>92.2</ele><time>2026-04-08T09:12:15.943Z</time></trkpt><trkpt lat="45.3498083" lon="9.3099025"><ele>91.8</ele><time>2026-04-08T09:12:16.944Z</time></trkpt><trkpt lat="45.3498849" lon="9.3097965"><ele>91.4</ele><time>2026-04-08T09:12:17.944Z</time></trkpt><trkpt lat="45.349971" lon="9.3096798"><ele>91.0</ele><time>2026-04-08T09:12:18.943Z</time></trkpt><trkpt lat="45.3500589" lon="9.309553"><ele>90.66666666666666</ele><time>2026-04-08T09:12:19.943Z</time></trkpt><trkpt lat="45.3501424" lon="9.3093968"><ele>90.33333333333333</ele><time>2026-04-08T09:12:20.943Z</time></trkpt><trkpt lat="45.3502119" lon="9.3092178"><ele>90.0</ele><time>2026-04-08T09:12:21.944Z</time></trkpt><trkpt lat="45.350294" lon="9.309005"><ele>89.66666666666667</ele><time>2026-04-08T09:12:22.944Z</time></trkpt><trkpt lat="45.3504155" lon="9.3087672"><ele>89.33333333333334</ele><time>2026-04-08T09:12:23.943Z</time></trkpt><trkpt lat="45.3505547" lon="9.308553"><ele>89.0</ele><time>2026-04-08T09:12:24.944Z</time></trkpt><trkpt lat="45.3507223" lon="9.3083432"><ele>89.5</ele><time>2026-04-08T09:12:25.943Z</time></trkpt><trkpt lat="45.350893" lon="9.3081339"><ele>90.0</ele><time>2026-04-08T09:12:26.943Z</time></trkpt><trkpt lat="45.3510637" lon="9.307897"><ele>90.0</ele><time>2026-04-08T09:12:27.943Z</time></trkpt><trkpt lat="45.3512569" lon="9.3076581"><ele>90.0</ele><time>2026-04-08T09:12:28.943Z</time></trkpt><trkpt lat="45.3514644" lon="9.3074332"><ele>90.0</ele><time>2026-04-08T09:12:29.943Z</time></trkpt><trkpt lat="45.3516752" lon="9.3072032"><ele>90.0</ele><time>2026-04-08T09:12:30.944Z</time></trkpt><trkpt lat="45.3518798" lon="9.3069662"><ele>90.0</ele><time>2026-04-08T09:12:31.943Z</time></trkpt><trkpt lat="45.352082" lon="9.306728"><ele>90.0</ele><time>2026-04-08T09:12:32.943Z</time></trkpt><trkpt lat="45.3522809" lon="9.306486"><ele>90.5</ele><time>2026-04-08T09:12:33.943Z</time></trkpt><trkpt lat="45.3524785" lon="9.3062413"><ele>91.0</ele><time>2026-04-08T09:12:34.944Z</time></trkpt><trkpt lat="45.3526767" lon="9.3059991"><ele>91.0</ele><time>2026-04-08T09:12:35.943Z</time></trkpt><trkpt lat="45.352876" lon="9.3057617"><ele>91.0</ele><time>2026-04-08T09:12:36.943Z</time></trkpt><trkpt lat="45.3530744" lon="9.3055297"><ele>91.0</ele><time>2026-04-08T09:12:37.943Z</time></trkpt><trkpt lat="45.3532717" lon="9.3052999"><ele>91.0</ele><time>2026-04-08T09:12:38.943Z</time></trkpt><trkpt lat="45.3534685" lon="9.3050692"><ele>91.0</ele><time>2026-04-08T09:12:39.944Z</time></trkpt><trkpt lat="45.3536635" lon="9.3048364"><ele>91.0</ele><time>2026-04-08T09:12:40.943Z</time></trkpt><trkpt lat="45.3538585" lon="9.3046058"><ele>89.5</ele><time>2026-04-08T09:12:41.944Z</time></trkpt><trkpt lat="45.3540524" lon="9.3043752"><ele>88.0</ele><time>2026-04-08T09:12:42.943Z</time></trkpt><trkpt lat="45.3542484" lon="9.3041449"><ele>88.0</ele><time>2026-04-08T09:12:43.943Z</time></trkpt><trkpt lat="45.3544431" lon="9.3039182"><ele>88.0</ele><time>2026-04-08T09:12:44.943Z</time></trkpt><trkpt lat="45.3546392" lon="9.3036871"><ele>89.5</ele><time>2026-04-08T09:12:45.944Z</time></trkpt><trkpt lat="45.3548373" lon="9.3034532"><ele>91.0</ele><time>2026-04-08T09:12:46.943Z</time></trkpt><trkpt lat="45.3550341" lon="9.3032226"><ele>91.5</ele><time>2026-04-08T09:12:47.943Z</time></trkpt><trkpt lat="45.3552303" lon="9.3029905"><ele>92.0</ele><time>2026-04-08T09:12:48.943Z</time></trkpt><trkpt lat="45.3554318" lon="9.3027571"><ele>91.5</ele><time>2026-04-08T09:12:49.943Z</time></trkpt><trkpt lat="45.3556358" lon="9.3025203"><ele>91.0</ele><time>2026-04-08T09:12:50.943Z</time></trkpt><trkpt lat="45.355841" lon="9.3022858"><ele>91.5</ele><time>2026-04-08T09:12:51.943Z</time></trkpt><trkpt lat="45.3560437" lon="9.3020476"><ele>92.0</ele><time>2026-04-08T09:12:52.943Z</time></trkpt><trkpt lat="45.3562472" lon="9.3018086"><ele>91.5</ele><time>2026-04-08T09:12:53.944Z</time></trkpt><trkpt lat="45.3564507" lon="9.3015701"><ele>91.0</ele><time>2026-04-08T09:12:54.943Z</time></trkpt><trkpt lat="45.3566549" lon="9.3013346"><ele>91.0</ele><time>2026-04-08T09:12:55.944Z</time></trkpt><trkpt lat="45.3568581" lon="9.3010932"><ele>91.0</ele><time>2026-04-08T09:12:56.943Z</time></trkpt><trkpt lat="45.3570612" lon="9.3008544"><ele>91.0</ele><time>2026-04-08T09:12:57.944Z</time></trkpt><trkpt lat="45.3572624" lon="9.3006157"><ele>91.0</ele><time>2026-04-08T09:12:58.944Z</time></trkpt><trkpt lat="45.3574639" lon="9.3003803"><ele>92.5</ele><time>2026-04-08T09:12:59.943Z</time></trkpt><trkpt lat="45.3576663" lon="9.300143"><ele>94.0</ele><time>2026-04-08T09:13:00.943Z</time></trkpt><trkpt lat="45.3578699" lon="9.2999094"><ele>94.0</ele><time>2026-04-08T09:13:01.943Z</time></trkpt><trkpt lat="45.3580712" lon="9.2996703"><ele>94.0</ele><time>2026-04-08T09:13:02.943Z</time></trkpt><trkpt lat="45.3582747" lon="9.2994319"><ele>94.0</ele><time>2026-04-08T09:13:03.944Z</time></trkpt><trkpt lat="45.3584749" lon="9.2991943"><ele>94.0</ele><time>2026-04-08T09:13:04.943Z</time></trkpt><trkpt lat="45.3586773" lon="9.2989561"><ele>92.5</ele><time>2026-04-08T09:13:05.943Z</time></trkpt><trkpt lat="45.3588813" lon="9.2987189"><ele>91.0</ele><time>2026-04-08T09:13:06.943Z</time></trkpt><trkpt lat="45.3590828" lon="9.2984805"><ele>91.0</ele><time>2026-04-08T09:13:07.943Z</time></trkpt><trkpt lat="45.3592861" lon="9.2982437"><ele>91.0</ele><time>2026-04-08T09:13:08.943Z</time></trkpt><trkpt lat="45.3594896" lon="9.2980016"><ele>91.0</ele><time>2026-04-08T09:13:09.943Z</time></trkpt><trkpt lat="45.3596917" lon="9.2977636"><ele>91.0</ele><time>2026-04-08T09:13:10.943Z</time></trkpt><trkpt lat="45.3598955" lon="9.2975266"><ele>91.0</ele><time>2026-04-08T09:13:11.944Z</time></trkpt><trkpt lat="45.3600994" lon="9.297289"><ele>91.0</ele><time>2026-04-08T09:13:12.943Z</time></trkpt><trkpt lat="45.3603016" lon="9.2970525"><ele>91.0</ele><time>2026-04-08T09:13:13.943Z</time></trkpt><trkpt lat="45.3605029" lon="9.2968163"><ele>91.0</ele><time>2026-04-08T09:13:14.943Z</time></trkpt><trkpt lat="45.360704" lon="9.2965787"><ele>91.0</ele><time>2026-04-08T09:13:15.944Z</time></trkpt><trkpt lat="45.3609053" lon="9.2963413"><ele>91.0</ele><time>2026-04-08T09:13:16.944Z</time></trkpt><trkpt lat="45.3611087" lon="9.2961097"><ele>91.0</ele><time>2026-04-08T09:13:17.944Z</time></trkpt><trkpt lat="45.3613142" lon="9.2958816"><ele>91.0</ele><time>2026-04-08T09:13:18.944Z</time></trkpt><trkpt lat="45.3615203" lon="9.2956555"><ele>91.0</ele><time>2026-04-08T09:13:19.944Z</time></trkpt><trkpt lat="45.3617274" lon="9.2954231"><ele>91.0</ele><time>2026-04-08T09:13:20.944Z</time></trkpt><trkpt lat="45.3619341" lon="9.2951887"><ele>91.0</ele><time>2026-04-08T09:13:21.943Z</time></trkpt><trkpt lat="45.3621413" lon="9.2949514"><ele>91.0</ele><time>2026-04-08T09:13:22.943Z</time></trkpt><trkpt lat="45.3623463" lon="9.2947116"><ele>91.0</ele><time>2026-04-08T09:13:23.943Z</time></trkpt><trkpt lat="45.3625511" lon="9.2944747"><ele>91.0</ele><time>2026-04-08T09:13:24.943Z</time></trkpt><trkpt lat="45.3627538" lon="9.2942347"><ele>91.0</ele><time>2026-04-08T09:13:25.943Z</time></trkpt><trkpt lat="45.3629585" lon="9.2939944"><ele>91.0</ele><time>2026-04-08T09:13:26.943Z</time></trkpt><trkpt lat="45.3631631" lon="9.2937545"><ele>91.5</ele><time>2026-04-08T09:13:27.943Z</time></trkpt><trkpt lat="45.3633675" lon="9.2935167"><ele>92.0</ele><time>2026-04-08T09:13:28.943Z</time></trkpt><trkpt lat="45.3635717" lon="9.2932804"><ele>92.0</ele><time>2026-04-08T09:13:29.943Z</time></trkpt><trkpt lat="45.3637736" lon="9.2930429"><ele>92.0</ele><time>2026-04-08T09:13:30.943Z</time></trkpt><trkpt lat="45.3639782" lon="9.2928034"><ele>91.5</ele><time>2026-04-08T09:13:31.943Z</time></trkpt><trkpt lat="45.3641825" lon="9.2925637"><ele>91.0</ele><time>2026-04-08T09:13:32.943Z</time></trkpt><trkpt lat="45.3643854" lon="9.2923295"><ele>91.0</ele><time>2026-04-08T09:13:33.943Z</time></trkpt><trkpt lat="45.3645849" lon="9.2920903"><ele>91.0</ele><time>2026-04-08T09:13:34.944Z</time></trkpt><trkpt lat="45.3647864" lon="9.2918546"><ele>91.0</ele><time>2026-04-08T09:13:35.943Z</time></trkpt><trkpt lat="45.3649886" lon="9.2916174"><ele>91.0</ele><time>2026-04-08T09:13:36.944Z</time></trkpt><trkpt lat="45.3651921" lon="9.2913779"><ele>91.5</ele><time>2026-04-08T09:13:37.944Z</time></trkpt><trkpt lat="45.365394" lon="9.2911369"><ele>92.0</ele><time>2026-04-08T09:13:38.943Z</time></trkpt><trkpt lat="45.3655959" lon="9.2908963"><ele>92.0</ele><time>2026-04-08T09:13:39.943Z</time></trkpt><trkpt lat="45.3657993" lon="9.2906579"><ele>92.0</ele><time>2026-04-08T09:13:40.943Z</time></trkpt><trkpt lat="45.3660038" lon="9.29042"><ele>92.0</ele><time>2026-04-08T09:13:41.944Z</time></trkpt><trkpt lat="45.3662079" lon="9.2901833"><ele>92.0</ele><time>2026-04-08T09:13:42.943Z</time></trkpt><trkpt lat="45.3664119" lon="9.2899462"><ele>92.0</ele><time>2026-04-08T09:13:43.944Z</time></trkpt><trkpt lat="45.3666168" lon="9.2897085"><ele>92.0</ele><time>2026-04-08T09:13:44.943Z</time></trkpt><trkpt lat="45.3668228" lon="9.289471"><ele>92.0</ele><time>2026-04-08T09:13:45.943Z</time></trkpt><trkpt lat="45.3670251" lon="9.2892332"><ele>92.0</ele><time>2026-04-08T09:13:46.943Z</time></trkpt><trkpt lat="45.3672288" lon="9.2889979"><ele>92.0</ele><time>2026-04-08T09:13:47.943Z</time></trkpt><trkpt lat="45.3674316" lon="9.288761"><ele>92.0</ele><time>2026-04-08T09:13:48.944Z</time></trkpt><trkpt lat="45.3676314" lon="9.288523"><ele>92.0</ele><time>2026-04-08T09:13:49.944Z</time></trkpt><trkpt lat="45.3678317" lon="9.2882871"><ele>92.0</ele><time>2026-04-08T09:13:50.943Z</time></trkpt><trkpt lat="45.3680316" lon="9.2880516"><ele>92.5</ele><time>2026-04-08T09:13:51.943Z</time></trkpt><trkpt lat="45.3682327" lon="9.2878173"><ele>93.0</ele><time>2026-04-08T09:13:52.944Z</time></trkpt><trkpt lat="45.3684327" lon="9.2875797"><ele>93.0</ele><time>2026-04-08T09:13:53.943Z</time></trkpt><trkpt lat="45.3686348" lon="9.2873405"><ele>93.0</ele><time>2026-04-08T09:13:54.943Z</time></trkpt><trkpt lat="45.3688381" lon="9.2871016"><ele>93.0</ele><time>2026-04-08T09:13:55.943Z</time></trkpt><trkpt lat="45.3690414" lon="9.2868621"><ele>93.0</ele><time>2026-04-08T09:13:56.943Z</time></trkpt><trkpt lat="45.3692462" lon="9.2866214"><ele>93.5</ele><time>2026-04-08T09:13:57.943Z</time></trkpt><trkpt lat="45.3694516" lon="9.2863817"><ele>94.0</ele><time>2026-04-08T09:13:58.942Z</time></trkpt><trkpt lat="45.369653" lon="9.2861443"><ele>93.5</ele><time>2026-04-08T09:13:59.944Z</time></trkpt><trkpt lat="45.3698545" lon="9.2859028"><ele>93.0</ele><time>2026-04-08T09:14:00.943Z</time></trkpt><trkpt lat="45.3700575" lon="9.2856625"><ele>93.0</ele><time>2026-04-08T09:14:01.943Z</time></trkpt><trkpt lat="45.3702616" lon="9.2854223"><ele>93.0</ele><time>2026-04-08T09:14:02.943Z</time></trkpt><trkpt lat="45.3704666" lon="9.2851793"><ele>93.0</ele><time>2026-04-08T09:14:03.944Z</time></trkpt><trkpt lat="45.3706721" lon="9.2849391"><ele>93.0</ele><time>2026-04-08T09:14:04.943Z</time></trkpt><trkpt lat="45.3708751" lon="9.2847009"><ele>93.0</ele><time>2026-04-08T09:14:05.943Z</time></trkpt><trkpt lat="45.3710811" lon="9.2844667"><ele>93.0</ele><time>2026-04-08T09:14:06.943Z</time></trkpt><trkpt lat="45.371285" lon="9.2842305"><ele>93.5</ele><time>2026-04-08T09:14:07.943Z</time></trkpt><trkpt lat="45.3714874" lon="9.2839928"><ele>94.0</ele><time>2026-04-08T09:14:08.944Z</time></trkpt><trkpt lat="45.3716893" lon="9.2837557"><ele>94.0</ele><time>2026-04-08T09:14:09.943Z</time></trkpt><trkpt lat="45.3718921" lon="9.2835192"><ele>94.0</ele><time>2026-04-08T09:14:10.943Z</time></trkpt><trkpt lat="45.3720954" lon="9.2832838"><ele>93.5</ele><time>2026-04-08T09:14:11.943Z</time></trkpt><trkpt lat="45.3722986" lon="9.2830504"><ele>93.0</ele><time>2026-04-08T09:14:12.943Z</time></trkpt><trkpt lat="45.3725021" lon="9.2828189"><ele>93.0</ele><time>2026-04-08T09:14:13.943Z</time></trkpt><trkpt lat="45.3727039" lon="9.2825822"><ele>93.0</ele><time>2026-04-08T09:14:14.944Z</time></trkpt><trkpt lat="45.3729039" lon="9.2823444"><ele>93.0</ele><time>2026-04-08T09:14:15.944Z</time></trkpt><trkpt lat="45.3731046" lon="9.2821051"><ele>93.0</ele><time>2026-04-08T09:14:16.944Z</time></trkpt><trkpt lat="45.3733046" lon="9.2818656"><ele>93.0</ele><time>2026-04-08T09:14:17.942Z</time></trkpt><trkpt lat="45.3735069" lon="9.2816288"><ele>93.0</ele><time>2026-04-08T09:14:18.943Z</time></trkpt><trkpt lat="45.3737079" lon="9.2813886"><ele>93.0</ele><time>2026-04-08T09:14:19.943Z</time></trkpt><trkpt lat="45.3739098" lon="9.2811515"><ele>93.0</ele><time>2026-04-08T09:14:20.944Z</time></trkpt><trkpt lat="45.3741128" lon="9.2809134"><ele>93.0</ele><time>2026-04-08T09:14:21.943Z</time></trkpt><trkpt lat="45.3743134" lon="9.2806756"><ele>93.0</ele><time>2026-04-08T09:14:22.943Z</time></trkpt><trkpt lat="45.3745164" lon="9.2804398"><ele>93.5</ele><time>2026-04-08T09:14:23.943Z</time></trkpt><trkpt lat="45.3747209" lon="9.280202"><ele>94.0</ele><time>2026-04-08T09:14:24.943Z</time></trkpt><trkpt lat="45.3749244" lon="9.2799658"><ele>94.5</ele><time>2026-04-08T09:14:25.943Z</time></trkpt><trkpt lat="45.3751296" lon="9.27973"><ele>95.0</ele><time>2026-04-08T09:14:26.943Z</time></trkpt><trkpt lat="45.3753344" lon="9.2794927"><ele>95.0</ele><time>2026-04-08T09:14:27.943Z</time></trkpt><trkpt lat="45.3755396" lon="9.2792528"><ele>95.0</ele><time>2026-04-08T09:14:28.944Z</time></trkpt><trkpt lat="45.3757431" lon="9.2790145"><ele>94.5</ele><time>2026-04-08T09:14:29.944Z</time></trkpt><trkpt lat="45.3759465" lon="9.2787795"><ele>94.0</ele><time>2026-04-08T09:14:30.943Z</time></trkpt><trkpt lat="45.3761503" lon="9.2785419"><ele>94.0</ele><time>2026-04-08T09:14:31.944Z</time></trkpt><trkpt lat="45.3763525" lon="9.2783033"><ele>94.0</ele><time>2026-04-08T09:14:32.944Z</time></trkpt><trkpt lat="45.3765572" lon="9.2780636"><ele>95.0</ele><time>2026-04-08T09:14:33.944Z</time></trkpt><trkpt lat="45.3767601" lon="9.2778244"><ele>96.0</ele><time>2026-04-08T09:14:34.943Z</time></trkpt><trkpt lat="45.3769622" lon="9.2775868"><ele>96.0</ele><time>2026-04-08T09:14:35.943Z</time></trkpt><trkpt lat="45.3771628" lon="9.2773492"><ele>96.0</ele><time>2026-04-08T09:14:36.943Z</time></trkpt><trkpt lat="45.3773644" lon="9.2771136"><ele>96.0</ele><time>2026-04-08T09:14:37.944Z</time></trkpt><trkpt lat="45.377567" lon="9.2768809"><ele>96.0</ele><time>2026-04-08T09:14:38.943Z</time></trkpt><trkpt lat="45.3777732" lon="9.2766543"><ele>96.0</ele><time>2026-04-08T09:14:39.943Z</time></trkpt><trkpt lat="45.3779807" lon="9.2764243"><ele>96.0</ele><time>2026-04-08T09:14:40.944Z</time></trkpt><trkpt lat="45.3781845" lon="9.2761914"><ele>96.0</ele><time>2026-04-08T09:14:41.943Z</time></trkpt><trkpt lat="45.378388" lon="9.275957"><ele>96.0</ele><time>2026-04-08T09:14:42.944Z</time></trkpt><trkpt lat="45.3785941" lon="9.2757201"><ele>96.0</ele><time>2026-04-08T09:14:43.943Z</time></trkpt><trkpt lat="45.3787967" lon="9.2754807"><ele>96.0</ele><time>2026-04-08T09:14:44.943Z</time></trkpt><trkpt lat="45.3789986" lon="9.2752423"><ele>95.5</ele><time>2026-04-08T09:14:45.944Z</time></trkpt><trkpt lat="45.3792016" lon="9.2750048"><ele>95.0</ele><time>2026-04-08T09:14:46.943Z</time></trkpt><trkpt lat="45.3794054" lon="9.2747683"><ele>94.5</ele><time>2026-04-08T09:14:47.943Z</time></trkpt><trkpt lat="45.3796087" lon="9.2745308"><ele>94.0</ele><time>2026-04-08T09:14:48.943Z</time></trkpt><trkpt lat="45.3798125" lon="9.2742946"><ele>94.0</ele><time>2026-04-08T09:14:49.942Z</time></trkpt><trkpt lat="45.3800162" lon="9.2740558"><ele>94.0</ele><time>2026-04-08T09:14:50.943Z</time></trkpt><trkpt lat="45.3802206" lon="9.2738173"><ele>94.0</ele><time>2026-04-08T09:14:51.943Z</time></trkpt><trkpt lat="45.3804248" lon="9.2735806"><ele>94.0</ele><time>2026-04-08T09:14:52.943Z</time></trkpt><trkpt lat="45.3806275" lon="9.2733418"><ele>95.0</ele><time>2026-04-08T09:14:53.943Z</time></trkpt><trkpt lat="45.3808305" lon="9.2731038"><ele>96.0</ele><time>2026-04-08T09:14:54.943Z</time></trkpt><trkpt lat="45.3810322" lon="9.272868"><ele>96.0</ele><time>2026-04-08T09:14:55.943Z</time></trkpt><trkpt lat="45.3812336" lon="9.2726305"><ele>96.0</ele><time>2026-04-08T09:14:56.943Z</time></trkpt><trkpt lat="45.3814346" lon="9.2723952"><ele>96.0</ele><time>2026-04-08T09:14:57.943Z</time></trkpt><trkpt lat="45.3816368" lon="9.272159"><ele>96.0</ele><time>2026-04-08T09:14:58.944Z</time></trkpt><trkpt lat="45.38184" lon="9.2719221"><ele>96.0</ele><time>2026-04-08T09:14:59.943Z</time></trkpt><trkpt lat="45.3820421" lon="9.2716864"><ele>96.0</ele><time>2026-04-08T09:15:00.943Z</time></trkpt><trkpt lat="45.3822468" lon="9.2714486"><ele>95.0</ele><time>2026-04-08T09:15:01.943Z</time></trkpt><trkpt lat="45.3824509" lon="9.2712094"><ele>94.0</ele><time>2026-04-08T09:15:02.943Z</time></trkpt><trkpt lat="45.3826553" lon="9.270969"><ele>94.0</ele><time>2026-04-08T09:15:03.943Z</time></trkpt><trkpt lat="45.3828578" lon="9.2707296"><ele>94.0</ele><time>2026-04-08T09:15:04.943Z</time></trkpt><trkpt lat="45.3830613" lon="9.2704948"><ele>95.5</ele><time>2026-04-08T09:15:05.943Z</time></trkpt><trkpt lat="45.3832648" lon="9.2702578"><ele>97.0</ele><time>2026-04-08T09:15:06.944Z</time></trkpt><trkpt lat="45.3834682" lon="9.2700204"><ele>97.0</ele><time>2026-04-08T09:15:07.944Z</time></trkpt><trkpt lat="45.3836711" lon="9.26978"><ele>97.0</ele><time>2026-04-08T09:15:08.943Z</time></trkpt><trkpt lat="45.3838706" lon="9.2695406"><ele>97.5</ele><time>2026-04-08T09:15:09.944Z</time></trkpt><trkpt lat="45.384074" lon="9.2693015"><ele>98.0</ele><time>2026-04-08T09:15:10.943Z</time></trkpt><trkpt lat="45.3842778" lon="9.2690612"><ele>98.0</ele><time>2026-04-08T09:15:11.944Z</time></trkpt><trkpt lat="45.3844827" lon="9.2688239"><ele>98.0</ele><time>2026-04-08T09:15:12.943Z</time></trkpt><trkpt lat="45.3846868" lon="9.2685872"><ele>97.5</ele><time>2026-04-08T09:15:13.943Z</time></trkpt><trkpt lat="45.3848876" lon="9.2683456"><ele>97.0</ele><time>2026-04-08T09:15:14.943Z</time></trkpt><trkpt lat="45.3850916" lon="9.2681046"><ele>97.0</ele><time>2026-04-08T09:15:15.944Z</time></trkpt><trkpt lat="45.385295" lon="9.2678644"><ele>97.0</ele><time>2026-04-08T09:15:16.943Z</time></trkpt><trkpt lat="45.3854994" lon="9.2676232"><ele>97.0</ele><time>2026-04-08T09:15:17.944Z</time></trkpt><trkpt lat="45.3857025" lon="9.2673844"><ele>97.0</ele><time>2026-04-08T09:15:18.943Z</time></trkpt><trkpt lat="45.3859053" lon="9.2671452"><ele>97.0</ele><time>2026-04-08T09:15:19.943Z</time></trkpt><trkpt lat="45.3861058" lon="9.2669039"><ele>97.0</ele><time>2026-04-08T09:15:20.944Z</time></trkpt><trkpt lat="45.3863071" lon="9.2666625"><ele>97.0</ele><time>2026-04-08T09:15:21.943Z</time></trkpt><trkpt lat="45.3865092" lon="9.266411"><ele>97.0</ele><time>2026-04-08T09:15:22.942Z</time></trkpt><trkpt lat="45.3867123" lon="9.2661564"><ele>97.0</ele><time>2026-04-08T09:15:23.943Z</time></trkpt><trkpt lat="45.3869191" lon="9.2658988"><ele>97.0</ele><time>2026-04-08T09:15:24.943Z</time></trkpt><trkpt lat="45.3871278" lon="9.2656416"><ele>97.5</ele><time>2026-04-08T09:15:25.943Z</time></trkpt><trkpt lat="45.3873408" lon="9.2653841"><ele>98.0</ele><time>2026-04-08T09:15:26.944Z</time></trkpt><trkpt lat="45.3875548" lon="9.2651275"><ele>98.0</ele><time>2026-04-08T09:15:27.943Z</time></trkpt><trkpt lat="45.3877715" lon="9.2648722"><ele>98.0</ele><time>2026-04-08T09:15:28.944Z</time></trkpt><trkpt lat="45.3879887" lon="9.2646205"><ele>96.5</ele><time>2026-04-08T09:15:29.943Z</time></trkpt><trkpt lat="45.3882067" lon="9.2643681"><ele>95.0</ele><time>2026-04-08T09:15:30.943Z</time></trkpt><trkpt lat="45.3884255" lon="9.2641184"><ele>95.5</ele><time>2026-04-08T09:15:31.943Z</time></trkpt><trkpt lat="45.3886402" lon="9.263869"><ele>96.0</ele><time>2026-04-08T09:15:32.943Z</time></trkpt><trkpt lat="45.388855" lon="9.2636233"><ele>96.0</ele><time>2026-04-08T09:15:33.943Z</time></trkpt><trkpt lat="45.3890735" lon="9.2633829"><ele>96.0</ele><time>2026-04-08T09:15:34.944Z</time></trkpt><trkpt lat="45.3892959" lon="9.2631545"><ele>96.0</ele><time>2026-04-08T09:15:35.943Z</time></trkpt><trkpt lat="45.3895226" lon="9.2629346"><ele>96.0</ele><time>2026-04-08T09:15:36.942Z</time></trkpt><trkpt lat="45.3897534" lon="9.2627263"><ele>96.0</ele><time>2026-04-08T09:15:37.943Z</time></trkpt><trkpt lat="45.389987" lon="9.2625259"><ele>96.0</ele><time>2026-04-08T09:15:38.943Z</time></trkpt><trkpt lat="45.3902247" lon="9.2623338"><ele>97.5</ele><time>2026-04-08T09:15:39.943Z</time></trkpt><trkpt lat="45.390466" lon="9.2621503"><ele>99.0</ele><time>2026-04-08T09:15:40.943Z</time></trkpt><trkpt lat="45.3907113" lon="9.2619765"><ele>99.0</ele><time>2026-04-08T09:15:41.943Z</time></trkpt><trkpt lat="45.3909582" lon="9.2618159"><ele>99.0</ele><time>2026-04-08T09:15:42.943Z</time></trkpt><trkpt lat="45.391211" lon="9.2616554"><ele>99.0</ele><time>2026-04-08T09:15:43.943Z</time></trkpt><trkpt lat="45.3914733" lon="9.2614932"><ele>99.0</ele><time>2026-04-08T09:15:44.943Z</time></trkpt><trkpt lat="45.3917431" lon="9.2613362"><ele>98.5</ele><time>2026-04-08T09:15:45.944Z</time></trkpt><trkpt lat="45.3920215" lon="9.2611823"><ele>98.0</ele><time>2026-04-08T09:15:46.944Z</time></trkpt><trkpt lat="45.3923095" lon="9.2610402"><ele>99.5</ele><time>2026-04-08T09:15:47.944Z</time></trkpt><trkpt lat="45.392591" lon="9.2609175"><ele>101.0</ele><time>2026-04-08T09:15:48.941Z</time></trkpt><trkpt lat="45.3928624" lon="9.2608138"><ele>101.0</ele><time>2026-04-08T09:15:49.943Z</time></trkpt><trkpt lat="45.3931135" lon="9.2607312"><ele>101.0</ele><time>2026-04-08T09:15:50.943Z</time></trkpt><trkpt lat="45.3933399" lon="9.2606659"><ele>101.0</ele><time>2026-04-08T09:15:51.943Z</time></trkpt><trkpt lat="45.3935379" lon="9.2606129"><ele>101.0</ele><time>2026-04-08T09:15:52.944Z</time></trkpt><trkpt lat="45.3937173" lon="9.2605734"><ele>101.0</ele><time>2026-04-08T09:15:53.943Z</time></trkpt><trkpt lat="45.3938868" lon="9.2605432"><ele>101.33333333333333</ele><time>2026-04-08T09:15:54.943Z</time></trkpt><trkpt lat="45.3940501" lon="9.2605184"><ele>101.66666666666666</ele><time>2026-04-08T09:15:55.943Z</time></trkpt><trkpt lat="45.394217" lon="9.2604946"><ele>102.0</ele><time>2026-04-08T09:15:56.943Z</time></trkpt><trkpt lat="45.3943912" lon="9.2604629"><ele>102.0</ele><time>2026-04-08T09:15:57.944Z</time></trkpt><trkpt lat="45.3945649" lon="9.2604314"><ele>102.0</ele><time>2026-04-08T09:15:58.944Z</time></trkpt><trkpt lat="45.3947415" lon="9.2604125"><ele>102.0</ele><time>2026-04-08T09:15:59.943Z</time></trkpt><trkpt lat="45.3949152" lon="9.2604008"><ele>101.33333333333334</ele><time>2026-04-08T09:16:00.943Z</time></trkpt><trkpt lat="45.3950904" lon="9.2603982"><ele>100.66666666666667</ele><time>2026-04-08T09:16:01.943Z</time></trkpt><trkpt lat="45.3952676" lon="9.2603989"><ele>100.0</ele><time>2026-04-08T09:16:02.943Z</time></trkpt><trkpt lat="45.3954364" lon="9.2603963"><ele>100.0</ele><time>2026-04-08T09:16:03.943Z</time></trkpt><trkpt lat="45.3955988" lon="9.2603917"><ele>100.0</ele><time>2026-04-08T09:16:04.943Z</time></trkpt><trkpt lat="45.3957575" lon="9.2603867"><ele>100.0</ele><time>2026-04-08T09:16:05.943Z</time></trkpt><trkpt lat="45.3959184" lon="9.2603892"><ele>100.0</ele><time>2026-04-08T09:16:06.943Z</time></trkpt><trkpt lat="45.3960837" lon="9.2603953"><ele>100.0</ele><time>2026-04-08T09:16:07.944Z</time></trkpt><trkpt lat="45.3962535" lon="9.2604078"><ele>100.0</ele><time>2026-04-08T09:16:08.943Z</time></trkpt><trkpt lat="45.3964231" lon="9.2604273"><ele>100.0</ele><time>2026-04-08T09:16:09.943Z</time></trkpt><trkpt lat="45.3965955" lon="9.2604487"><ele>100.0</ele><time>2026-04-08T09:16:10.943Z</time></trkpt><trkpt lat="45.396772" lon="9.2604679"><ele>100.0</ele><time>2026-04-08T09:16:11.943Z</time></trkpt><trkpt lat="45.3969462" lon="9.2604905"><ele>100.0</ele><time>2026-04-08T09:16:12.943Z</time></trkpt><trkpt lat="45.3971161" lon="9.2605095"><ele>100.0</ele><time>2026-04-08T09:16:13.944Z</time></trkpt><trkpt lat="45.3972757" lon="9.2605267"><ele>100.0</ele><time>2026-04-08T09:16:14.943Z</time></trkpt><trkpt lat="45.3974199" lon="9.2605419"><ele>100.0</ele><time>2026-04-08T09:16:15.943Z</time></trkpt><trkpt lat="45.3975517" lon="9.2605587"><ele>100.0</ele><time>2026-04-08T09:16:16.943Z</time></trkpt><trkpt lat="45.3976776" lon="9.2605814"><ele>100.0</ele><time>2026-04-08T09:16:17.943Z</time></trkpt><trkpt lat="45.3978007" lon="9.2605984"><ele>100.0</ele><time>2026-04-08T09:16:18.944Z</time></trkpt><trkpt lat="45.3979242" lon="9.2606184"><ele>100.25</ele><time>2026-04-08T09:16:19.943Z</time></trkpt><trkpt lat="45.3980559" lon="9.2606348"><ele>100.5</ele><time>2026-04-08T09:16:20.943Z</time></trkpt><trkpt lat="45.3982016" lon="9.2606488"><ele>100.75</ele><time>2026-04-08T09:16:21.944Z</time></trkpt><trkpt lat="45.3983564" lon="9.2606643"><ele>101.0</ele><time>2026-04-08T09:16:22.943Z</time></trkpt><trkpt lat="45.3985125" lon="9.260677"><ele>101.0</ele><time>2026-04-08T09:16:23.943Z</time></trkpt><trkpt lat="45.3986655" lon="9.260689"><ele>101.0</ele><time>2026-04-08T09:16:24.944Z</time></trkpt><trkpt lat="45.39882" lon="9.2606942"><ele>101.0</ele><time>2026-04-08T09:16:25.943Z</time></trkpt><trkpt lat="45.3989743" lon="9.2607081"><ele>101.0</ele><time>2026-04-08T09:16:26.943Z</time></trkpt><trkpt lat="45.3991302" lon="9.2607299"><ele>101.0</ele><time>2026-04-08T09:16:27.943Z</time></trkpt><trkpt lat="45.3992881" lon="9.2607521"><ele>101.0</ele><time>2026-04-08T09:16:28.943Z</time></trkpt><trkpt lat="45.3994478" lon="9.2607687"><ele>101.0</ele><time>2026-04-08T09:16:29.944Z</time></trkpt><trkpt lat="45.3996101" lon="9.2607841"><ele>101.0</ele><time>2026-04-08T09:16:30.944Z</time></trkpt><trkpt lat="45.3997815" lon="9.2608026"><ele>101.0</ele><time>2026-04-08T09:16:31.944Z</time></trkpt><trkpt lat="45.3999633" lon="9.2608255"><ele>100.0</ele><time>2026-04-08T09:16:32.943Z</time></trkpt><trkpt lat="45.4001535" lon="9.260853"><ele>99.0</ele><time>2026-04-08T09:16:33.943Z</time></trkpt><trkpt lat="45.4003565" lon="9.2608797"><ele>98.0</ele><time>2026-04-08T09:16:34.943Z</time></trkpt><trkpt lat="45.4005744" lon="9.2609052"><ele>98.0</ele><time>2026-04-08T09:16:35.943Z</time></trkpt><trkpt lat="45.4008004" lon="9.2609293"><ele>98.0</ele><time>2026-04-08T09:16:36.943Z</time></trkpt><trkpt lat="45.401027" lon="9.2609541"><ele>98.0</ele><time>2026-04-08T09:16:37.943Z</time></trkpt><trkpt lat="45.4012532" lon="9.2609775"><ele>98.0</ele><time>2026-04-08T09:16:38.943Z</time></trkpt><trkpt lat="45.4014796" lon="9.2610029"><ele>98.5</ele><time>2026-04-08T09:16:39.943Z</time></trkpt><trkpt lat="45.4017128" lon="9.2610289"><ele>99.0</ele><time>2026-04-08T09:16:40.943Z</time></trkpt><trkpt lat="45.4019519" lon="9.2610558"><ele>99.0</ele><time>2026-04-08T09:16:41.944Z</time></trkpt><trkpt lat="45.4021954" lon="9.2610807"><ele>99.0</ele><time>2026-04-08T09:16:42.943Z</time></trkpt><trkpt lat="45.4024423" lon="9.2611064"><ele>99.0</ele><time>2026-04-08T09:16:43.944Z</time></trkpt><trkpt lat="45.4026943" lon="9.2611345"><ele>99.0</ele><time>2026-04-08T09:16:44.944Z</time></trkpt><trkpt lat="45.4029469" lon="9.2611592"><ele>99.5</ele><time>2026-04-08T09:16:45.943Z</time></trkpt><trkpt lat="45.4031987" lon="9.2611906"><ele>100.0</ele><time>2026-04-08T09:16:46.943Z</time></trkpt><trkpt lat="45.4034524" lon="9.2612224"><ele>100.0</ele><time>2026-04-08T09:16:47.943Z</time></trkpt><trkpt lat="45.4037092" lon="9.2612531"><ele>100.0</ele><time>2026-04-08T09:16:48.943Z</time></trkpt><trkpt lat="45.4039662" lon="9.261281"><ele>99.5</ele><time>2026-04-08T09:16:49.943Z</time></trkpt><trkpt lat="45.4042229" lon="9.2613129"><ele>99.0</ele><time>2026-04-08T09:16:50.943Z</time></trkpt><trkpt lat="45.40448" lon="9.2613406"><ele>98.5</ele><time>2026-04-08T09:16:51.944Z</time></trkpt><trkpt lat="45.4047394" lon="9.2613705"><ele>98.0</ele><time>2026-04-08T09:16:52.944Z</time></trkpt><trkpt lat="45.4049983" lon="9.2614024"><ele>98.0</ele><time>2026-04-08T09:16:53.944Z</time></trkpt><trkpt lat="45.4052567" lon="9.261425"><ele>98.0</ele><time>2026-04-08T09:16:54.944Z</time></trkpt><trkpt lat="45.4055135" lon="9.2614423"><ele>98.5</ele><time>2026-04-08T09:16:55.944Z</time></trkpt><trkpt lat="45.4057702" lon="9.2614491"><ele>99.0</ele><time>2026-04-08T09:16:56.943Z</time></trkpt><trkpt lat="45.4060272" lon="9.2614434"><ele>99.0</ele><time>2026-04-08T09:16:57.943Z</time></trkpt><trkpt lat="45.4062897" lon="9.2614185"><ele>99.0</ele><time>2026-04-08T09:16:58.943Z</time></trkpt><trkpt lat="45.4065521" lon="9.2613739"><ele>99.0</ele><time>2026-04-08T09:16:59.943Z</time></trkpt><trkpt lat="45.4068167" lon="9.2613049"><ele>99.0</ele><time>2026-04-08T09:17:00.944Z</time></trkpt><trkpt lat="45.4070766" lon="9.2612116"><ele>98.5</ele><time>2026-04-08T09:17:01.943Z</time></trkpt><trkpt lat="45.4073324" lon="9.2610959"><ele>98.0</ele><time>2026-04-08T09:17:02.943Z</time></trkpt><trkpt lat="45.4075827" lon="9.2609565"><ele>98.0</ele><time>2026-04-08T09:17:03.943Z</time></trkpt><trkpt lat="45.4078277" lon="9.2607974"><ele>98.0</ele><time>2026-04-08T09:17:04.943Z</time></trkpt><trkpt lat="45.4080633" lon="9.2606237"><ele>98.0</ele><time>2026-04-08T09:17:05.943Z</time></trkpt><trkpt lat="45.408291" lon="9.260433"><ele>98.0</ele><time>2026-04-08T09:17:06.943Z</time></trkpt><trkpt lat="45.4085098" lon="9.2602247"><ele>98.0</ele><time>2026-04-08T09:17:07.943Z</time></trkpt><trkpt lat="45.4087197" lon="9.259998"><ele>98.0</ele><time>2026-04-08T09:17:08.944Z</time></trkpt><trkpt lat="45.4089241" lon="9.2597512"><ele>98.0</ele><time>2026-04-08T09:17:09.944Z</time></trkpt><trkpt lat="45.4091242" lon="9.2594959"><ele>98.0</ele><time>2026-04-08T09:17:10.943Z</time></trkpt><trkpt lat="45.4093261" lon="9.259239"><ele>98.0</ele><time>2026-04-08T09:17:11.944Z</time></trkpt><trkpt lat="45.4095315" lon="9.2589841"><ele>98.0</ele><time>2026-04-08T09:17:12.944Z</time></trkpt><trkpt lat="45.4097319" lon="9.258728"><ele>100.0</ele><time>2026-04-08T09:17:13.943Z</time></trkpt><trkpt lat="45.4099292" lon="9.2584738"><ele>102.0</ele><time>2026-04-08T09:17:14.944Z</time></trkpt><trkpt lat="45.4101246" lon="9.2582331"><ele>102.0</ele><time>2026-04-08T09:17:15.943Z</time></trkpt><trkpt lat="45.4103156" lon="9.2579889"><ele>102.0</ele><time>2026-04-08T09:17:16.943Z</time></trkpt><trkpt lat="45.4105114" lon="9.2577539"><ele>102.0</ele><time>2026-04-08T09:17:17.943Z</time></trkpt><trkpt lat="45.4107084" lon="9.2575066"><ele>102.0</ele><time>2026-04-08T09:17:18.943Z</time></trkpt><trkpt lat="45.4109031" lon="9.2572537"><ele>100.5</ele><time>2026-04-08T09:17:19.943Z</time></trkpt><trkpt lat="45.4111058" lon="9.2570032"><ele>99.0</ele><time>2026-04-08T09:17:20.943Z</time></trkpt><trkpt lat="45.41131" lon="9.2567508"><ele>99.5</ele><time>2026-04-08T09:17:21.943Z</time></trkpt><trkpt lat="45.4115155" lon="9.256487"><ele>100.0</ele><time>2026-04-08T09:17:22.942Z</time></trkpt><trkpt lat="45.4117219" lon="9.2562267"><ele>100.0</ele><time>2026-04-08T09:17:23.943Z</time></trkpt><trkpt lat="45.4119282" lon="9.2559666"><ele>100.0</ele><time>2026-04-08T09:17:24.943Z</time></trkpt><trkpt lat="45.4121357" lon="9.2557057"><ele>100.0</ele><time>2026-04-08T09:17:25.944Z</time></trkpt><trkpt lat="45.4123432" lon="9.2554456"><ele>100.0</ele><time>2026-04-08T09:17:26.943Z</time></trkpt><trkpt lat="45.4125512" lon="9.2551807"><ele>100.0</ele><time>2026-04-08T09:17:27.943Z</time></trkpt><trkpt lat="45.412755" lon="9.2549154"><ele>100.0</ele><time>2026-04-08T09:17:28.942Z</time></trkpt><trkpt lat="45.4129596" lon="9.2546507"><ele>100.5</ele><time>2026-04-08T09:17:29.944Z</time></trkpt><trkpt lat="45.413163" lon="9.2543861"><ele>101.0</ele><time>2026-04-08T09:17:30.943Z</time></trkpt><trkpt lat="45.4133642" lon="9.2541192"><ele>102.0</ele><time>2026-04-08T09:17:31.943Z</time></trkpt><trkpt lat="45.4135649" lon="9.2538485"><ele>103.0</ele><time>2026-04-08T09:17:32.943Z</time></trkpt><trkpt lat="45.4137666" lon="9.253576"><ele>103.0</ele><time>2026-04-08T09:17:33.943Z</time></trkpt><trkpt lat="45.4139649" lon="9.2533025"><ele>103.0</ele><time>2026-04-08T09:17:34.943Z</time></trkpt><trkpt lat="45.4141627" lon="9.2530258"><ele>104.5</ele><time>2026-04-08T09:17:35.944Z</time></trkpt><trkpt lat="45.4143597" lon="9.2527457"><ele>106.0</ele><time>2026-04-08T09:17:36.943Z</time></trkpt><trkpt lat="45.4145564" lon="9.2524693"><ele>102.5</ele><time>2026-04-08T09:17:37.944Z</time></trkpt><trkpt lat="45.4147546" lon="9.2521925"><ele>99.0</ele><time>2026-04-08T09:17:38.943Z</time></trkpt><trkpt lat="45.4149504" lon="9.2518992"><ele>99.0</ele><time>2026-04-08T09:17:39.943Z</time></trkpt><trkpt lat="45.4151497" lon="9.2516006"><ele>99.0</ele><time>2026-04-08T09:17:40.944Z</time></trkpt><trkpt lat="45.4153528" lon="9.2512943"><ele>99.5</ele><time>2026-04-08T09:17:41.943Z</time></trkpt><trkpt lat="45.4155572" lon="9.2509906"><ele>100.0</ele><time>2026-04-08T09:17:42.943Z</time></trkpt><trkpt lat="45.4157611" lon="9.2506842"><ele>101.5</ele><time>2026-04-08T09:17:43.943Z</time></trkpt><trkpt lat="45.415964" lon="9.2503763"><ele>103.0</ele><time>2026-04-08T09:17:44.943Z</time></trkpt><trkpt lat="45.4161647" lon="9.2500693"><ele>102.5</ele><time>2026-04-08T09:17:45.943Z</time></trkpt><trkpt lat="45.4163631" lon="9.2497653"><ele>102.0</ele><time>2026-04-08T09:17:46.944Z</time></trkpt><trkpt lat="45.4165634" lon="9.249466"><ele>102.0</ele><time>2026-04-08T09:17:47.944Z</time></trkpt><trkpt lat="45.4167644" lon="9.2491652"><ele>102.0</ele><time>2026-04-08T09:17:48.943Z</time></trkpt><trkpt lat="45.4169644" lon="9.2488633"><ele>100.0</ele><time>2026-04-08T09:17:49.943Z</time></trkpt><trkpt lat="45.417165" lon="9.2485667"><ele>98.0</ele><time>2026-04-08T09:17:50.944Z</time></trkpt><trkpt lat="45.4173699" lon="9.2482779"><ele>99.0</ele><time>2026-04-08T09:17:51.943Z</time></trkpt><trkpt lat="45.4175805" lon="9.2480035"><ele>100.0</ele><time>2026-04-08T09:17:52.943Z</time></trkpt><trkpt lat="45.4178003" lon="9.2477411"><ele>100.5</ele><time>2026-04-08T09:17:53.943Z</time></trkpt><trkpt lat="45.4180255" lon="9.2474929"><ele>101.0</ele><time>2026-04-08T09:17:54.943Z</time></trkpt><trkpt lat="45.4182616" lon="9.2472582"><ele>101.0</ele><time>2026-04-08T09:17:55.943Z</time></trkpt><trkpt lat="45.4185086" lon="9.2470425"><ele>101.0</ele><time>2026-04-08T09:17:56.943Z</time></trkpt><trkpt lat="45.4187613" lon="9.2468503"><ele>103.0</ele><time>2026-04-08T09:17:57.943Z</time></trkpt><trkpt lat="45.4190197" lon="9.2466782"><ele>105.0</ele><time>2026-04-08T09:17:58.943Z</time></trkpt><trkpt lat="45.4192814" lon="9.2465268"><ele>105.0</ele><time>2026-04-08T09:17:59.943Z</time></trkpt><trkpt lat="45.4195456" lon="9.2463986"><ele>105.0</ele><time>2026-04-08T09:18:00.944Z</time></trkpt><trkpt lat="45.4198118" lon="9.2462913"><ele>105.0</ele><time>2026-04-08T09:18:01.944Z</time></trkpt><trkpt lat="45.4200754" lon="9.2462035"><ele>105.0</ele><time>2026-04-08T09:18:02.943Z</time></trkpt><trkpt lat="45.4203387" lon="9.2461359"><ele>106.0</ele><time>2026-04-08T09:18:03.943Z</time></trkpt><trkpt lat="45.4206009" lon="9.2460843"><ele>107.0</ele><time>2026-04-08T09:18:04.943Z</time></trkpt><trkpt lat="45.4208593" lon="9.2460362"><ele>107.0</ele><time>2026-04-08T09:18:05.944Z</time></trkpt><trkpt lat="45.4211184" lon="9.246"><ele>107.0</ele><time>2026-04-08T09:18:06.943Z</time></trkpt><trkpt lat="45.421379" lon="9.2459661"><ele>107.0</ele><time>2026-04-08T09:18:07.943Z</time></trkpt><trkpt lat="45.4216447" lon="9.2459317"><ele>107.0</ele><time>2026-04-08T09:18:08.943Z</time></trkpt><trkpt lat="45.4219108" lon="9.2459005"><ele>106.0</ele><time>2026-04-08T09:18:09.943Z</time></trkpt><trkpt lat="45.4221808" lon="9.2458674"><ele>105.0</ele><time>2026-04-08T09:18:10.943Z</time></trkpt><trkpt lat="45.4224539" lon="9.2458326"><ele>105.0</ele><time>2026-04-08T09:18:11.943Z</time></trkpt><trkpt lat="45.42273" lon="9.2458004"><ele>105.0</ele><time>2026-04-08T09:18:12.943Z</time></trkpt><trkpt lat="45.4230057" lon="9.2457659"><ele>104.0</ele><time>2026-04-08T09:18:13.944Z</time></trkpt><trkpt lat="45.4232844" lon="9.2457303"><ele>103.0</ele><time>2026-04-08T09:18:14.943Z</time></trkpt><trkpt lat="45.4235646" lon="9.2456953"><ele>102.5</ele><time>2026-04-08T09:18:15.943Z</time></trkpt><trkpt lat="45.4238439" lon="9.2456606"><ele>102.0</ele><time>2026-04-08T09:18:16.944Z</time></trkpt><trkpt lat="45.4241251" lon="9.2456316"><ele>103.0</ele><time>2026-04-08T09:18:17.943Z</time></trkpt><trkpt lat="45.4244062" lon="9.2456008"><ele>104.0</ele><time>2026-04-08T09:18:18.943Z</time></trkpt><trkpt lat="45.4246893" lon="9.2455847"><ele>104.0</ele><time>2026-04-08T09:18:19.943Z</time></trkpt><trkpt lat="45.4249719" lon="9.2455731"><ele>104.0</ele><time>2026-04-08T09:18:20.943Z</time></trkpt><trkpt lat="45.4252532" lon="9.2455584"><ele>104.5</ele><time>2026-04-08T09:18:21.944Z</time></trkpt><trkpt lat="45.4255394" lon="9.2455602"><ele>105.0</ele><time>2026-04-08T09:18:22.944Z</time></trkpt><trkpt lat="45.4258292" lon="9.2455943"><ele>104.5</ele><time>2026-04-08T09:18:23.943Z</time></trkpt><trkpt lat="45.4261183" lon="9.2456679"><ele>104.0</ele><time>2026-04-08T09:18:24.943Z</time></trkpt><trkpt lat="45.4264066" lon="9.2457699"><ele>102.5</ele><time>2026-04-08T09:18:25.943Z</time></trkpt><trkpt lat="45.4266911" lon="9.245895"><ele>101.0</ele><time>2026-04-08T09:18:26.944Z</time></trkpt><trkpt lat="45.4269675" lon="9.2460523"><ele>102.5</ele><time>2026-04-08T09:18:27.943Z</time></trkpt><trkpt lat="45.4272331" lon="9.2462387"><ele>104.0</ele><time>2026-04-08T09:18:28.943Z</time></trkpt><trkpt lat="45.4274908" lon="9.2464426"><ele>105.0</ele><time>2026-04-08T09:18:29.943Z</time></trkpt><trkpt lat="45.4277394" lon="9.2466651"><ele>106.0</ele><time>2026-04-08T09:18:30.944Z</time></trkpt><trkpt lat="45.427977" lon="9.2469011"><ele>108.5</ele><time>2026-04-08T09:18:31.943Z</time></trkpt><trkpt lat="45.4282025" lon="9.2471584"><ele>111.0</ele><time>2026-04-08T09:18:32.944Z</time></trkpt><trkpt lat="45.4284138" lon="9.2474326"><ele>111.0</ele><time>2026-04-08T09:18:33.943Z</time></trkpt><trkpt lat="45.4286129" lon="9.2477176"><ele>111.0</ele><time>2026-04-08T09:18:34.944Z</time></trkpt><trkpt lat="45.4288041" lon="9.2480116"><ele>110.5</ele><time>2026-04-08T09:18:35.943Z</time></trkpt><trkpt lat="45.428988" lon="9.248311"><ele>110.0</ele><time>2026-04-08T09:18:36.943Z</time></trkpt><trkpt lat="45.4291713" lon="9.2486111"><ele>110.0</ele><time>2026-04-08T09:18:37.943Z</time></trkpt><trkpt lat="45.4293534" lon="9.2489147"><ele>110.0</ele><time>2026-04-08T09:18:38.943Z</time></trkpt><trkpt lat="45.4295357" lon="9.2492149"><ele>108.5</ele><time>2026-04-08T09:18:39.944Z</time></trkpt><trkpt lat="45.4297179" lon="9.2495145"><ele>107.0</ele><time>2026-04-08T09:18:40.943Z</time></trkpt><trkpt lat="45.4299025" lon="9.2498135"><ele>107.0</ele><time>2026-04-08T09:18:41.943Z</time></trkpt><trkpt lat="45.4300868" lon="9.2501135"><ele>107.0</ele><time>2026-04-08T09:18:42.944Z</time></trkpt><trkpt lat="45.430276" lon="9.2504169"><ele>106.5</ele><time>2026-04-08T09:18:43.943Z</time></trkpt><trkpt lat="45.430466" lon="9.2507218"><ele>106.0</ele><time>2026-04-08T09:18:44.944Z</time></trkpt><trkpt lat="45.4306568" lon="9.2510216"><ele>106.0</ele><time>2026-04-08T09:18:45.943Z</time></trkpt><trkpt lat="45.4308475" lon="9.2513224"><ele>106.0</ele><time>2026-04-08T09:18:46.944Z</time></trkpt><trkpt lat="45.4310359" lon="9.2516145"><ele>106.0</ele><time>2026-04-08T09:18:47.944Z</time></trkpt><trkpt lat="45.4312257" lon="9.2518989"><ele>106.0</ele><time>2026-04-08T09:18:48.943Z</time></trkpt><trkpt lat="45.4314206" lon="9.2521717"><ele>105.0</ele><time>2026-04-08T09:18:49.943Z</time></trkpt><trkpt lat="45.4316232" lon="9.2524298"><ele>104.0</ele><time>2026-04-08T09:18:50.943Z</time></trkpt><trkpt lat="45.4318277" lon="9.2526799"><ele>104.0</ele><time>2026-04-08T09:18:51.943Z</time></trkpt><trkpt lat="45.432032" lon="9.2529224"><ele>104.0</ele><time>2026-04-08T09:18:52.943Z</time></trkpt><trkpt lat="45.4322401" lon="9.2531525"><ele>103.0</ele><time>2026-04-08T09:18:53.943Z</time></trkpt><trkpt lat="45.4324591" lon="9.2533679"><ele>102.0</ele><time>2026-04-08T09:18:54.943Z</time></trkpt><trkpt lat="45.4326788" lon="9.2535796"><ele>102.0</ele><time>2026-04-08T09:18:55.943Z</time></trkpt><trkpt lat="45.4329005" lon="9.2537899"><ele>102.0</ele><time>2026-04-08T09:18:56.943Z</time></trkpt><trkpt lat="45.4331323" lon="9.2539996"><ele>104.5</ele><time>2026-04-08T09:18:57.943Z</time></trkpt><trkpt lat="45.4333687" lon="9.2542071"><ele>107.0</ele><time>2026-04-08T09:18:58.943Z</time></trkpt><trkpt lat="45.4336103" lon="9.2544178"><ele>107.0</ele><time>2026-04-08T09:18:59.944Z</time></trkpt><trkpt lat="45.433862" lon="9.2546134"><ele>107.0</ele><time>2026-04-08T09:19:00.944Z</time></trkpt><trkpt lat="45.4341221" lon="9.2547998"><ele>107.0</ele><time>2026-04-08T09:19:01.943Z</time></trkpt><trkpt lat="45.4343853" lon="9.254978"><ele>107.0</ele><time>2026-04-08T09:19:02.943Z</time></trkpt><trkpt lat="45.4346515" lon="9.2551491"><ele>106.5</ele><time>2026-04-08T09:19:03.943Z</time></trkpt><trkpt lat="45.4349208" lon="9.2553127"><ele>106.0</ele><time>2026-04-08T09:19:04.943Z</time></trkpt><trkpt lat="45.4351939" lon="9.2554668"><ele>106.0</ele><time>2026-04-08T09:19:05.943Z</time></trkpt><trkpt lat="45.4354652" lon="9.2556152"><ele>106.0</ele><time>2026-04-08T09:19:06.943Z</time></trkpt><trkpt lat="45.4357376" lon="9.2557474"><ele>107.0</ele><time>2026-04-08T09:19:07.943Z</time></trkpt><trkpt lat="45.4360123" lon="9.2558718"><ele>108.0</ele><time>2026-04-08T09:19:08.943Z</time></trkpt><trkpt lat="45.4362879" lon="9.2559883"><ele>107.0</ele><time>2026-04-08T09:19:09.943Z</time></trkpt><trkpt lat="45.4365663" lon="9.2560938"><ele>106.0</ele><time>2026-04-08T09:19:10.944Z</time></trkpt><trkpt lat="45.436842" lon="9.2561914"><ele>106.0</ele><time>2026-04-08T09:19:11.944Z</time></trkpt><trkpt lat="45.437124" lon="9.2562852"><ele>106.0</ele><time>2026-04-08T09:19:12.943Z</time></trkpt><trkpt lat="45.4374073" lon="9.2563793"><ele>105.0</ele><time>2026-04-08T09:19:13.943Z</time></trkpt><trkpt lat="45.4376943" lon="9.2564637"><ele>104.0</ele><time>2026-04-08T09:19:14.943Z</time></trkpt><trkpt lat="45.4379825" lon="9.2565423"><ele>104.0</ele><time>2026-04-08T09:19:15.943Z</time></trkpt><trkpt lat="45.4382754" lon="9.2566186"><ele>104.0</ele><time>2026-04-08T09:19:16.943Z</time></trkpt><trkpt lat="45.4385735" lon="9.2567007"><ele>104.0</ele><time>2026-04-08T09:19:17.944Z</time></trkpt><trkpt lat="45.4388705" lon="9.2567829"><ele>104.0</ele><time>2026-04-08T09:19:18.943Z</time></trkpt><trkpt lat="45.4391664" lon="9.2568673"><ele>104.0</ele><time>2026-04-08T09:19:19.943Z</time></trkpt><trkpt lat="45.4394646" lon="9.2569551"><ele>104.0</ele><time>2026-04-08T09:19:20.942Z</time></trkpt><trkpt lat="45.4397608" lon="9.2570374"><ele>104.5</ele><time>2026-04-08T09:19:21.943Z</time></trkpt><trkpt lat="45.4400579" lon="9.2571201"><ele>105.0</ele><time>2026-04-08T09:19:22.944Z</time></trkpt><trkpt lat="45.4403551" lon="9.2572084"><ele>104.0</ele><time>2026-04-08T09:19:23.944Z</time></trkpt><trkpt lat="45.4406515" lon="9.2573024"><ele>103.0</ele><time>2026-04-08T09:19:24.944Z</time></trkpt><trkpt lat="45.4409469" lon="9.2573959"><ele>103.0</ele><time>2026-04-08T09:19:25.944Z</time></trkpt><trkpt lat="45.4412415" lon="9.2574899"><ele>103.0</ele><time>2026-04-08T09:19:26.944Z</time></trkpt><trkpt lat="45.4415371" lon="9.2575804"><ele>103.5</ele><time>2026-04-08T09:19:27.941Z</time></trkpt><trkpt lat="45.4418335" lon="9.2576696"><ele>104.0</ele><time>2026-04-08T09:19:28.942Z</time></trkpt><trkpt lat="45.4421317" lon="9.2577536"><ele>104.0</ele><time>2026-04-08T09:19:29.942Z</time></trkpt><trkpt lat="45.4424292" lon="9.2578366"><ele>104.0</ele><time>2026-04-08T09:19:30.943Z</time></trkpt><trkpt lat="45.442725" lon="9.2579204"><ele>100.5</ele><time>2026-04-08T09:19:31.943Z</time></trkpt><trkpt lat="45.4430129" lon="9.2580034"><ele>97.0</ele><time>2026-04-08T09:19:32.942Z</time></trkpt><trkpt lat="45.4432849" lon="9.2580851"><ele>99.0</ele><time>2026-04-08T09:19:33.943Z</time></trkpt><trkpt lat="45.4435472" lon="9.258162"><ele>101.0</ele><time>2026-04-08T09:19:34.941Z</time></trkpt><trkpt lat="45.4438088" lon="9.2582391"><ele>96.5</ele><time>2026-04-08T09:19:35.943Z</time></trkpt><trkpt lat="45.4440695" lon="9.2583168"><ele>92.0</ele><time>2026-04-08T09:19:36.943Z</time></trkpt><trkpt lat="45.4443288" lon="9.2583897"><ele>92.0</ele><time>2026-04-08T09:19:37.943Z</time></trkpt><trkpt lat="45.4445886" lon="9.2584656"><ele>92.0</ele><time>2026-04-08T09:19:38.943Z</time></trkpt><trkpt lat="45.444847" lon="9.2585455"><ele>91.5</ele><time>2026-04-08T09:19:39.943Z</time></trkpt><trkpt lat="45.4451038" lon="9.2586218"><ele>91.0</ele><time>2026-04-08T09:19:40.943Z</time></trkpt><trkpt lat="45.4453608" lon="9.2586928"><ele>96.0</ele><time>2026-04-08T09:19:41.943Z</time></trkpt><trkpt lat="45.4456179" lon="9.2587624"><ele>101.0</ele><time>2026-04-08T09:19:42.943Z</time></trkpt><trkpt lat="45.4458731" lon="9.2588352"><ele>101.0</ele><time>2026-04-08T09:19:43.943Z</time></trkpt><trkpt lat="45.4461241" lon="9.2589042"><ele>101.0</ele><time>2026-04-08T09:19:44.942Z</time></trkpt><trkpt lat="45.4463676" lon="9.2589722"><ele>103.5</ele><time>2026-04-08T09:19:45.942Z</time></trkpt><trkpt lat="45.4466068" lon="9.2590236"><ele>106.0</ele><time>2026-04-08T09:19:46.943Z</time></trkpt><trkpt lat="45.4468393" lon="9.2590643"><ele>106.0</ele><time>2026-04-08T09:19:47.943Z</time></trkpt><trkpt lat="45.44707" lon="9.2590913"><ele>106.0</ele><time>2026-04-08T09:19:48.944Z</time></trkpt><trkpt lat="45.4473016" lon="9.2591061"><ele>105.66666666666667</ele><time>2026-04-08T09:19:49.943Z</time></trkpt><trkpt lat="45.4475283" lon="9.2591114"><ele>105.33333333333334</ele><time>2026-04-08T09:19:50.943Z</time></trkpt><trkpt lat="45.4477484" lon="9.2591042"><ele>105.0</ele><time>2026-04-08T09:19:51.942Z</time></trkpt><trkpt lat="45.4479684" lon="9.2590876"><ele>105.0</ele><time>2026-04-08T09:19:52.942Z</time></trkpt><trkpt lat="45.4481858" lon="9.2590613"><ele>105.0</ele><time>2026-04-08T09:19:53.944Z</time></trkpt><trkpt lat="45.4484012" lon="9.2590266"><ele>105.0</ele><time>2026-04-08T09:19:54.943Z</time></trkpt><trkpt lat="45.4486166" lon="9.2589794"><ele>106.33333333333334</ele><time>2026-04-08T09:19:55.944Z</time></trkpt><trkpt lat="45.448828" lon="9.2589199"><ele>107.66666666666667</ele><time>2026-04-08T09:19:56.944Z</time></trkpt><trkpt lat="45.4490356" lon="9.2588487"><ele>109.0</ele><time>2026-04-08T09:19:57.943Z</time></trkpt><trkpt lat="45.4492413" lon="9.258775"><ele>109.0</ele><time>2026-04-08T09:19:58.943Z</time></trkpt><trkpt lat="45.4494465" lon="9.2586939"><ele>109.0</ele><time>2026-04-08T09:19:59.94Z</time></trkpt><trkpt lat="45.4496491" lon="9.2586036"><ele>109.0</ele><time>2026-04-08T09:20:00.943Z</time></trkpt><trkpt lat="45.4498482" lon="9.2585037"><ele>110.0</ele><time>2026-04-08T09:20:01.944Z</time></trkpt><trkpt lat="45.4500451" lon="9.2583928"><ele>111.0</ele><time>2026-04-08T09:20:02.943Z</time></trkpt><trkpt lat="45.450237" lon="9.2582675"><ele>112.0</ele><time>2026-04-08T09:20:03.943Z</time></trkpt><trkpt lat="45.4504281" lon="9.2581381"><ele>112.0</ele><time>2026-04-08T09:20:04.943Z</time></trkpt><trkpt lat="45.4506166" lon="9.2580012"><ele>112.0</ele><time>2026-04-08T09:20:05.944Z</time></trkpt><trkpt lat="45.450805" lon="9.2578636"><ele>112.0</ele><time>2026-04-08T09:20:06.941Z</time></trkpt><trkpt lat="45.4509958" lon="9.2577223"><ele>112.0</ele><time>2026-04-08T09:20:07.943Z</time></trkpt><trkpt lat="45.4511911" lon="9.2575611"><ele>112.0</ele><time>2026-04-08T09:20:08.943Z</time></trkpt><trkpt lat="45.4513904" lon="9.2573892"><ele>111.5</ele><time>2026-04-08T09:20:09.943Z</time></trkpt><trkpt lat="45.4515964" lon="9.2572163"><ele>111.0</ele><time>2026-04-08T09:20:10.943Z</time></trkpt><trkpt lat="45.4518132" lon="9.2570327"><ele>111.0</ele><time>2026-04-08T09:20:11.943Z</time></trkpt><trkpt lat="45.4520385" lon="9.2568424"><ele>111.0</ele><time>2026-04-08T09:20:12.943Z</time></trkpt><trkpt lat="45.4522675" lon="9.2566467"><ele>110.5</ele><time>2026-04-08T09:20:13.943Z</time></trkpt><trkpt lat="45.4524968" lon="9.2564583"><ele>110.0</ele><time>2026-04-08T09:20:14.944Z</time></trkpt><trkpt lat="45.4527197" lon="9.2562752"><ele>110.0</ele><time>2026-04-08T09:20:15.943Z</time></trkpt><trkpt lat="45.4529326" lon="9.2560986"><ele>110.0</ele><time>2026-04-08T09:20:16.943Z</time></trkpt><trkpt lat="45.4531377" lon="9.2559259"><ele>110.0</ele><time>2026-04-08T09:20:17.942Z</time></trkpt><trkpt lat="45.4533371" lon="9.2557609"><ele>110.0</ele><time>2026-04-08T09:20:18.942Z</time></trkpt><trkpt lat="45.4535328" lon="9.255597"><ele>110.0</ele><time>2026-04-08T09:20:19.943Z</time></trkpt><trkpt lat="45.4537269" lon="9.2554358"><ele>110.0</ele><time>2026-04-08T09:20:20.943Z</time></trkpt><trkpt lat="45.4539166" lon="9.2552793"><ele>110.0</ele><time>2026-04-08T09:20:21.943Z</time></trkpt><trkpt lat="45.4541018" lon="9.2551254"><ele>110.33333333333333</ele><time>2026-04-08T09:20:22.943Z</time></trkpt><trkpt lat="45.4542891" lon="9.254969"><ele>110.66666666666666</ele><time>2026-04-08T09:20:23.941Z</time></trkpt><trkpt lat="45.454478" lon="9.2548118"><ele>111.0</ele><time>2026-04-08T09:20:24.943Z</time></trkpt><trkpt lat="45.4546671" lon="9.2546533"><ele>112.33333333333334</ele><time>2026-04-08T09:20:25.943Z</time></trkpt><trkpt lat="45.4548572" lon="9.2544931"><ele>113.66666666666667</ele><time>2026-04-08T09:20:26.943Z</time></trkpt><trkpt lat="45.4550474" lon="9.2543294"><ele>115.0</ele><time>2026-04-08T09:20:27.943Z</time></trkpt><trkpt lat="45.4552395" lon="9.2541421"><ele>113.0</ele><time>2026-04-08T09:20:28.943Z</time></trkpt><trkpt lat="45.4554346" lon="9.2539472"><ele>111.0</ele><time>2026-04-08T09:20:29.943Z</time></trkpt><trkpt lat="45.4556423" lon="9.2537606"><ele>111.0</ele><time>2026-04-08T09:20:30.943Z</time></trkpt><trkpt lat="45.4558556" lon="9.2535833"><ele>111.0</ele><time>2026-04-08T09:20:31.942Z</time></trkpt><trkpt lat="45.4560732" lon="9.2534014"><ele>111.5</ele><time>2026-04-08T09:20:32.944Z</time></trkpt><trkpt lat="45.4562958" lon="9.253222"><ele>112.0</ele><time>2026-04-08T09:20:33.944Z</time></trkpt><trkpt lat="45.4565182" lon="9.25304"><ele>112.0</ele><time>2026-04-08T09:20:34.943Z</time></trkpt><trkpt lat="45.4567475" lon="9.2528598"><ele>112.0</ele><time>2026-04-08T09:20:35.944Z</time></trkpt><trkpt lat="45.4569757" lon="9.2526882"><ele>112.5</ele><time>2026-04-08T09:20:36.943Z</time></trkpt><trkpt lat="45.45721" lon="9.2525257"><ele>113.0</ele><time>2026-04-08T09:20:37.943Z</time></trkpt><trkpt lat="45.4574465" lon="9.2523768"><ele>112.0</ele><time>2026-04-08T09:20:38.943Z</time></trkpt><trkpt lat="45.4576867" lon="9.2522379"><ele>111.0</ele><time>2026-04-08T09:20:39.943Z</time></trkpt><trkpt lat="45.45793" lon="9.2521131"><ele>112.5</ele><time>2026-04-08T09:20:40.943Z</time></trkpt><trkpt lat="45.4581758" lon="9.2519943"><ele>114.0</ele><time>2026-04-08T09:20:41.943Z</time></trkpt><trkpt lat="45.4584216" lon="9.2518871"><ele>114.0</ele><time>2026-04-08T09:20:42.944Z</time></trkpt><trkpt lat="45.458669" lon="9.2517895"><ele>114.0</ele><time>2026-04-08T09:20:43.944Z</time></trkpt><trkpt lat="45.4589174" lon="9.2516936"><ele>113.5</ele><time>2026-04-08T09:20:44.944Z</time></trkpt><trkpt lat="45.4591671" lon="9.2516089"><ele>113.0</ele><time>2026-04-08T09:20:45.943Z</time></trkpt><trkpt lat="45.4594181" lon="9.2515358"><ele>113.0</ele><time>2026-04-08T09:20:46.944Z</time></trkpt><trkpt lat="45.4596703" lon="9.2514743"><ele>113.0</ele><time>2026-04-08T09:20:47.943Z</time></trkpt><trkpt lat="45.4599243" lon="9.251424"><ele>113.0</ele><time>2026-04-08T09:20:48.943Z</time></trkpt><trkpt lat="45.4601773" lon="9.2513823"><ele>113.0</ele><time>2026-04-08T09:20:49.944Z</time></trkpt><trkpt lat="45.4604325" lon="9.2513536"><ele>115.0</ele><time>2026-04-08T09:20:50.943Z</time></trkpt><trkpt lat="45.4606844" lon="9.2513361"><ele>117.0</ele><time>2026-04-08T09:20:51.943Z</time></trkpt><trkpt lat="45.460934" lon="9.2513291"><ele>117.0</ele><time>2026-04-08T09:20:52.943Z</time></trkpt><trkpt lat="45.4611844" lon="9.2513335"><ele>117.0</ele><time>2026-04-08T09:20:53.943Z</time></trkpt><trkpt lat="45.4614361" lon="9.2513478"><ele>116.5</ele><time>2026-04-08T09:20:54.943Z</time></trkpt><trkpt lat="45.4616889" lon="9.2513669"><ele>116.0</ele><time>2026-04-08T09:20:55.943Z</time></trkpt><trkpt lat="45.4619412" lon="9.2513975"><ele>113.5</ele><time>2026-04-08T09:20:56.943Z</time></trkpt><trkpt lat="45.4621943" lon="9.2514378"><ele>111.0</ele><time>2026-04-08T09:20:57.944Z</time></trkpt><trkpt lat="45.4624461" lon="9.2514878"><ele>111.0</ele><time>2026-04-08T09:20:58.943Z</time></trkpt><trkpt lat="45.462696" lon="9.2515512"><ele>111.0</ele><time>2026-04-08T09:20:59.944Z</time></trkpt><trkpt lat="45.462945" lon="9.2516175"><ele>109.5</ele><time>2026-04-08T09:21:00.943Z</time></trkpt><trkpt lat="45.4631943" lon="9.2516873"><ele>108.0</ele><time>2026-04-08T09:21:01.943Z</time></trkpt><trkpt lat="45.4634429" lon="9.2517581"><ele>108.0</ele><time>2026-04-08T09:21:02.943Z</time></trkpt><trkpt lat="45.4636907" lon="9.2518301"><ele>108.0</ele><time>2026-04-08T09:21:03.943Z</time></trkpt><trkpt lat="45.4639423" lon="9.2518984"><ele>108.5</ele><time>2026-04-08T09:21:04.943Z</time></trkpt><trkpt lat="45.4641948" lon="9.2519674"><ele>109.0</ele><time>2026-04-08T09:21:05.943Z</time></trkpt><trkpt lat="45.4644496" lon="9.2520319"><ele>111.0</ele><time>2026-04-08T09:21:06.944Z</time></trkpt><trkpt lat="45.4646999" lon="9.2520906"><ele>113.0</ele><time>2026-04-08T09:21:07.942Z</time></trkpt><trkpt lat="45.4649406" lon="9.2521415"><ele>113.0</ele><time>2026-04-08T09:21:08.944Z</time></trkpt><trkpt lat="45.4651765" lon="9.2521845"><ele>113.0</ele><time>2026-04-08T09:21:09.943Z</time></trkpt><trkpt lat="45.4654086" lon="9.252213"><ele>113.5</ele><time>2026-04-08T09:21:10.942Z</time></trkpt><trkpt lat="45.4656389" lon="9.2522323"><ele>114.0</ele><time>2026-04-08T09:21:11.943Z</time></trkpt><trkpt lat="45.4658703" lon="9.2522479"><ele>114.0</ele><time>2026-04-08T09:21:12.943Z</time></trkpt><trkpt lat="45.4661061" lon="9.2522567"><ele>114.0</ele><time>2026-04-08T09:21:13.943Z</time></trkpt><trkpt lat="45.466343" lon="9.2522522"><ele>114.5</ele><time>2026-04-08T09:21:14.944Z</time></trkpt><trkpt lat="45.466578" lon="9.2522393"><ele>115.0</ele><time>2026-04-08T09:21:15.942Z</time></trkpt><trkpt lat="45.4668157" lon="9.2522238"><ele>115.0</ele><time>2026-04-08T09:21:16.942Z</time></trkpt><trkpt lat="45.4670547" lon="9.2522078"><ele>115.0</ele><time>2026-04-08T09:21:17.942Z</time></trkpt><trkpt lat="45.467293" lon="9.2522023"><ele>115.0</ele><time>2026-04-08T09:21:18.942Z</time></trkpt><trkpt lat="45.4675225" lon="9.2521961"><ele>115.0</ele><time>2026-04-08T09:21:19.943Z</time></trkpt><trkpt lat="45.4677504" lon="9.2521893"><ele>115.0</ele><time>2026-04-08T09:21:20.943Z</time></trkpt><trkpt lat="45.4679815" lon="9.2521788"><ele>115.0</ele><time>2026-04-08T09:21:21.942Z</time></trkpt><trkpt lat="45.4682169" lon="9.2521707"><ele>115.0</ele><time>2026-04-08T09:21:22.943Z</time></trkpt><trkpt lat="45.4684561" lon="9.2521649"><ele>115.0</ele><time>2026-04-08T09:21:23.943Z</time></trkpt><trkpt lat="45.4686995" lon="9.2521571"><ele>113.5</ele><time>2026-04-08T09:21:24.942Z</time></trkpt><trkpt lat="45.4689456" lon="9.2521524"><ele>112.0</ele><time>2026-04-08T09:21:25.942Z</time></trkpt><trkpt lat="45.4691926" lon="9.252153"><ele>112.0</ele><time>2026-04-08T09:21:26.943Z</time></trkpt><trkpt lat="45.4694413" lon="9.2521602"><ele>112.0</ele><time>2026-04-08T09:21:27.943Z</time></trkpt><trkpt lat="45.4696884" lon="9.2521714"><ele>113.0</ele><time>2026-04-08T09:21:28.943Z</time></trkpt><trkpt lat="45.469938" lon="9.2521875"><ele>114.0</ele><time>2026-04-08T09:21:29.943Z</time></trkpt><trkpt lat="45.4701909" lon="9.2522118"><ele>113.5</ele><time>2026-04-08T09:21:30.944Z</time></trkpt><trkpt lat="45.4704414" lon="9.252238"><ele>113.0</ele><time>2026-04-08T09:21:31.943Z</time></trkpt><trkpt lat="45.4706906" lon="9.2522698"><ele>114.5</ele><time>2026-04-08T09:21:32.943Z</time></trkpt><trkpt lat="45.4709412" lon="9.2523046"><ele>116.0</ele><time>2026-04-08T09:21:33.943Z</time></trkpt><trkpt lat="45.4711935" lon="9.2523405"><ele>116.5</ele><time>2026-04-08T09:21:34.943Z</time></trkpt><trkpt lat="45.4714444" lon="9.2523869"><ele>117.0</ele><time>2026-04-08T09:21:35.944Z</time></trkpt><trkpt lat="45.471699" lon="9.2524388"><ele>117.0</ele><time>2026-04-08T09:21:36.942Z</time></trkpt><trkpt lat="45.4719556" lon="9.2524969"><ele>117.0</ele><time>2026-04-08T09:21:37.943Z</time></trkpt><trkpt lat="45.4722162" lon="9.252559"><ele>119.0</ele><time>2026-04-08T09:21:38.943Z</time></trkpt><trkpt lat="45.4724791" lon="9.25263"><ele>121.0</ele><time>2026-04-08T09:21:39.944Z</time></trkpt><trkpt lat="45.47274" lon="9.2527133"><ele>120.0</ele><time>2026-04-08T09:21:40.943Z</time></trkpt><trkpt lat="45.4729981" lon="9.2528067"><ele>119.0</ele><time>2026-04-08T09:21:41.943Z</time></trkpt><trkpt lat="45.4732496" lon="9.2529063"><ele>119.0</ele><time>2026-04-08T09:21:42.943Z</time></trkpt><trkpt lat="45.4734979" lon="9.2529996"><ele>119.0</ele><time>2026-04-08T09:21:43.943Z</time></trkpt><trkpt lat="45.4737461" lon="9.2530875"><ele>119.5</ele><time>2026-04-08T09:21:44.941Z</time></trkpt><trkpt lat="45.4739933" lon="9.2531756"><ele>120.0</ele><time>2026-04-08T09:21:45.942Z</time></trkpt><trkpt lat="45.4742366" lon="9.2532598"><ele>120.0</ele><time>2026-04-08T09:21:46.942Z</time></trkpt><trkpt lat="45.4744717" lon="9.2533379"><ele>120.0</ele><time>2026-04-08T09:21:47.942Z</time></trkpt><trkpt lat="45.4746993" lon="9.2534114"><ele>120.0</ele><time>2026-04-08T09:21:48.944Z</time></trkpt><trkpt lat="45.4749186" lon="9.253488"><ele>120.0</ele><time>2026-04-08T09:21:49.943Z</time></trkpt><trkpt lat="45.4751321" lon="9.2535591"><ele>120.0</ele><time>2026-04-08T09:21:50.944Z</time></trkpt><trkpt lat="45.4753415" lon="9.2536229"><ele>119.0</ele><time>2026-04-08T09:21:51.943Z</time></trkpt><trkpt lat="45.4755508" lon="9.2536726"><ele>118.0</ele><time>2026-04-08T09:21:52.943Z</time></trkpt><trkpt lat="45.4757657" lon="9.2537128"><ele>117.0</ele><time>2026-04-08T09:21:53.944Z</time></trkpt><trkpt lat="45.4759869" lon="9.25374"><ele>117.0</ele><time>2026-04-08T09:21:54.943Z</time></trkpt><trkpt lat="45.4762114" lon="9.253758"><ele>117.0</ele><time>2026-04-08T09:21:55.943Z</time></trkpt><trkpt lat="45.4764381" lon="9.25376"><ele>117.0</ele><time>2026-04-08T09:21:56.943Z</time></trkpt><trkpt lat="45.4766691" lon="9.2537474"><ele>117.0</ele><time>2026-04-08T09:21:57.943Z</time></trkpt><trkpt lat="45.4768997" lon="9.2537262"><ele>115.5</ele><time>2026-04-08T09:21:58.943Z</time></trkpt><trkpt lat="45.4771324" lon="9.2536846"><ele>114.0</ele><time>2026-04-08T09:21:59.943Z</time></trkpt><trkpt lat="45.4773601" lon="9.2536302"><ele>114.0</ele><time>2026-04-08T09:22:00.942Z</time></trkpt><trkpt lat="45.4775842" lon="9.2535646"><ele>114.0</ele><time>2026-04-08T09:22:01.943Z</time></trkpt><trkpt lat="45.477802" lon="9.2534923"><ele>115.0</ele><time>2026-04-08T09:22:02.944Z</time></trkpt><trkpt lat="45.4780148" lon="9.2534113"><ele>116.0</ele><time>2026-04-08T09:22:03.942Z</time></trkpt><trkpt lat="45.4782252" lon="9.2533214"><ele>117.0</ele><time>2026-04-08T09:22:04.943Z</time></trkpt><trkpt lat="45.4784381" lon="9.2532258"><ele>117.0</ele><time>2026-04-08T09:22:05.943Z</time></trkpt><trkpt lat="45.4786554" lon="9.2531411"><ele>117.0</ele><time>2026-04-08T09:22:06.942Z</time></trkpt><trkpt lat="45.4788704" lon="9.2530589"><ele>117.0</ele><time>2026-04-08T09:22:07.943Z</time></trkpt><trkpt lat="45.4790789" lon="9.2529773"><ele>117.0</ele><time>2026-04-08T09:22:08.943Z</time></trkpt><trkpt lat="45.4792792" lon="9.2528904"><ele>117.0</ele><time>2026-04-08T09:22:09.942Z</time></trkpt><trkpt lat="45.4794758" lon="9.2528012"><ele>117.0</ele><time>2026-04-08T09:22:10.944Z</time></trkpt><trkpt lat="45.4796712" lon="9.2527182"><ele>117.0</ele><time>2026-04-08T09:22:11.943Z</time></trkpt><trkpt lat="45.4798659" lon="9.252634"><ele>117.0</ele><time>2026-04-08T09:22:12.944Z</time></trkpt><trkpt lat="45.4800561" lon="9.2525553"><ele>117.0</ele><time>2026-04-08T09:22:13.944Z</time></trkpt><trkpt lat="45.4802405" lon="9.2524779"><ele>117.0</ele><time>2026-04-08T09:22:14.943Z</time></trkpt><trkpt lat="45.4804253" lon="9.2523978"><ele>117.0</ele><time>2026-04-08T09:22:15.944Z</time></trkpt><trkpt lat="45.4806087" lon="9.2523123"><ele>117.0</ele><time>2026-04-08T09:22:16.943Z</time></trkpt><trkpt lat="45.4807929" lon="9.2522295"><ele>118.33333333333334</ele><time>2026-04-08T09:22:17.943Z</time></trkpt><trkpt lat="45.4809819" lon="9.2521466"><ele>119.66666666666667</ele><time>2026-04-08T09:22:18.942Z</time></trkpt><trkpt lat="45.4811653" lon="9.2520629"><ele>121.0</ele><time>2026-04-08T09:22:19.941Z</time></trkpt><trkpt lat="45.4813455" lon="9.2519801"><ele>121.0</ele><time>2026-04-08T09:22:20.943Z</time></trkpt><trkpt lat="45.4815223" lon="9.2519002"><ele>121.0</ele><time>2026-04-08T09:22:21.943Z</time></trkpt><trkpt lat="45.4816947" lon="9.2518173"><ele>121.0</ele><time>2026-04-08T09:22:22.944Z</time></trkpt><trkpt lat="45.4818648" lon="9.2517391"><ele>121.0</ele><time>2026-04-08T09:22:23.944Z</time></trkpt><trkpt lat="45.482036" lon="9.2516632"><ele>121.0</ele><time>2026-04-08T09:22:24.944Z</time></trkpt><trkpt lat="45.4822106" lon="9.2515905"><ele>121.0</ele><time>2026-04-08T09:22:25.943Z</time></trkpt><trkpt lat="45.4823863" lon="9.2515299"><ele>120.66666666666667</ele><time>2026-04-08T09:22:26.943Z</time></trkpt><trkpt lat="45.4825608" lon="9.2514759"><ele>120.33333333333334</ele><time>2026-04-08T09:22:27.943Z</time></trkpt><trkpt lat="45.4827386" lon="9.2514216"><ele>120.0</ele><time>2026-04-08T09:22:28.943Z</time></trkpt><trkpt lat="45.4829126" lon="9.2513799"><ele>119.33333333333334</ele><time>2026-04-08T09:22:29.943Z</time></trkpt><trkpt lat="45.4830839" lon="9.2513507"><ele>118.66666666666667</ele><time>2026-04-08T09:22:30.943Z</time></trkpt><trkpt lat="45.483256" lon="9.2513303"><ele>118.0</ele><time>2026-04-08T09:22:31.944Z</time></trkpt><trkpt lat="45.48343" lon="9.2513188"><ele>118.0</ele><time>2026-04-08T09:22:32.944Z</time></trkpt><trkpt lat="45.4836049" lon="9.25131"><ele>118.0</ele><time>2026-04-08T09:22:33.943Z</time></trkpt><trkpt lat="45.4837797" lon="9.2513058"><ele>118.0</ele><time>2026-04-08T09:22:34.943Z</time></trkpt><trkpt lat="45.4839566" lon="9.2513106"><ele>118.66666666666667</ele><time>2026-04-08T09:22:35.943Z</time></trkpt><trkpt lat="45.4841339" lon="9.2513303"><ele>119.33333333333334</ele><time>2026-04-08T09:22:36.944Z</time></trkpt><trkpt lat="45.484308" lon="9.2513583"><ele>120.0</ele><time>2026-04-08T09:22:37.943Z</time></trkpt><trkpt lat="45.4844823" lon="9.2513834"><ele>119.33333333333334</ele><time>2026-04-08T09:22:38.943Z</time></trkpt><trkpt lat="45.4846576" lon="9.2514033"><ele>118.66666666666667</ele><time>2026-04-08T09:22:39.943Z</time></trkpt><trkpt lat="45.4848354" lon="9.2514222"><ele>118.0</ele><time>2026-04-08T09:22:40.944Z</time></trkpt><trkpt lat="45.4850134" lon="9.2514453"><ele>118.0</ele><time>2026-04-08T09:22:41.943Z</time></trkpt><trkpt lat="45.485194" lon="9.2514681"><ele>118.0</ele><time>2026-04-08T09:22:42.944Z</time></trkpt><trkpt lat="45.4853711" lon="9.2514917"><ele>118.0</ele><time>2026-04-08T09:22:43.943Z</time></trkpt><trkpt lat="45.4855453" lon="9.2515142"><ele>118.66666666666667</ele><time>2026-04-08T09:22:44.942Z</time></trkpt><trkpt lat="45.4857089" lon="9.2515359"><ele>119.33333333333334</ele><time>2026-04-08T09:22:45.943Z</time></trkpt><trkpt lat="45.4858733" lon="9.2515568"><ele>120.0</ele><time>2026-04-08T09:22:46.942Z</time></trkpt><trkpt lat="45.4860416" lon="9.2515743"><ele>120.0</ele><time>2026-04-08T09:22:47.943Z</time></trkpt><trkpt lat="45.4862134" lon="9.2516121"><ele>120.0</ele><time>2026-04-08T09:22:48.943Z</time></trkpt><trkpt lat="45.4863815" lon="9.2516985"><ele>120.0</ele><time>2026-04-08T09:22:49.943Z</time></trkpt><trkpt lat="45.4865379" lon="9.2518322"><ele>119.66666666666666</ele><time>2026-04-08T09:22:50.942Z</time></trkpt><trkpt lat="45.4866823" lon="9.2519955"><ele>119.33333333333333</ele><time>2026-04-08T09:22:51.943Z</time></trkpt><trkpt lat="45.4868178" lon="9.2521756"><ele>119.0</ele><time>2026-04-08T09:22:52.942Z</time></trkpt><trkpt lat="45.4869439" lon="9.2523778"><ele>119.0</ele><time>2026-04-08T09:22:53.943Z</time></trkpt><trkpt lat="45.4870326" lon="9.2526195"><ele>119.0</ele><time>2026-04-08T09:22:54.944Z</time></trkpt><trkpt lat="45.4870967" lon="9.2528807"><ele>119.0</ele><time>2026-04-08T09:22:55.944Z</time></trkpt><trkpt lat="45.4871258" lon="9.2531534"><ele>118.33333333333333</ele><time>2026-04-08T09:22:56.942Z</time></trkpt><trkpt lat="45.4871407" lon="9.2534297"><ele>117.66666666666666</ele><time>2026-04-08T09:22:57.942Z</time></trkpt><trkpt lat="45.4871569" lon="9.2537056"><ele>117.0</ele><time>2026-04-08T09:22:58.942Z</time></trkpt><trkpt lat="45.4871729" lon="9.2539814"><ele>117.0</ele><time>2026-04-08T09:22:59.942Z</time></trkpt><trkpt lat="45.4871911" lon="9.2542577"><ele>117.0</ele><time>2026-04-08T09:23:00.942Z</time></trkpt><trkpt lat="45.4872124" lon="9.2545258"><ele>117.0</ele><time>2026-04-08T09:23:01.944Z</time></trkpt><trkpt lat="45.487239" lon="9.2547907"><ele>116.66666666666666</ele><time>2026-04-08T09:23:02.943Z</time></trkpt><trkpt lat="45.4872702" lon="9.2550552"><ele>116.33333333333333</ele><time>2026-04-08T09:23:03.944Z</time></trkpt><trkpt lat="45.4872976" lon="9.2553228"><ele>116.0</ele><time>2026-04-08T09:23:04.942Z</time></trkpt><trkpt lat="45.4873197" lon="9.2555933"><ele>116.66666666666666</ele><time>2026-04-08T09:23:05.942Z</time></trkpt><trkpt lat="45.4873389" lon="9.2558685"><ele>117.33333333333334</ele><time>2026-04-08T09:23:06.943Z</time></trkpt><trkpt lat="45.4873592" lon="9.2561449"><ele>118.0</ele><time>2026-04-08T09:23:07.943Z</time></trkpt><trkpt lat="45.487379" lon="9.256424"><ele>118.0</ele><time>2026-04-08T09:23:08.944Z</time></trkpt><trkpt lat="45.4873984" lon="9.2567018"><ele>118.0</ele><time>2026-04-08T09:23:09.944Z</time></trkpt><trkpt lat="45.4874181" lon="9.2569834"><ele>118.0</ele><time>2026-04-08T09:23:10.942Z</time></trkpt><trkpt lat="45.4874368" lon="9.2572666"><ele>117.33333333333334</ele><time>2026-04-08T09:23:11.943Z</time></trkpt><trkpt lat="45.4874505" lon="9.2575457"><ele>116.66666666666666</ele><time>2026-04-08T09:23:12.943Z</time></trkpt><trkpt lat="45.4874634" lon="9.2578244"><ele>116.0</ele><time>2026-04-08T09:23:13.943Z</time></trkpt><trkpt lat="45.487475" lon="9.2581036"><ele>116.0</ele><time>2026-04-08T09:23:14.944Z</time></trkpt><trkpt lat="45.4874849" lon="9.2583788"><ele>116.0</ele><time>2026-04-08T09:23:15.942Z</time></trkpt><trkpt lat="45.4874962" lon="9.2586504"><ele>116.0</ele><time>2026-04-08T09:23:16.941Z</time></trkpt><trkpt lat="45.4875142" lon="9.2589188"><ele>116.0</ele><time>2026-04-08T09:23:17.942Z</time></trkpt><trkpt lat="45.487543" lon="9.2591823"><ele>116.0</ele><time>2026-04-08T09:23:18.942Z</time></trkpt><trkpt lat="45.4875821" lon="9.2594469"><ele>116.0</ele><time>2026-04-08T09:23:19.943Z</time></trkpt><trkpt lat="45.4876352" lon="9.2597034"><ele>115.66666666666666</ele><time>2026-04-08T09:23:20.942Z</time></trkpt><trkpt lat="45.487702" lon="9.2599571"><ele>115.33333333333334</ele><time>2026-04-08T09:23:21.943Z</time></trkpt><trkpt lat="45.4877862" lon="9.2602007"><ele>115.0</ele><time>2026-04-08T09:23:22.943Z</time></trkpt><trkpt lat="45.4878828" lon="9.2604387"><ele>116.33333333333334</ele><time>2026-04-08T09:23:23.943Z</time></trkpt><trkpt lat="45.4879857" lon="9.2606694"><ele>117.66666666666666</ele><time>2026-04-08T09:23:24.943Z</time></trkpt><trkpt lat="45.4880891" lon="9.2608881"><ele>119.0</ele><time>2026-04-08T09:23:25.942Z</time></trkpt><trkpt lat="45.4881945" lon="9.26109"><ele>119.0</ele><time>2026-04-08T09:23:26.944Z</time></trkpt><trkpt lat="45.4882985" lon="9.2612723"><ele>119.0</ele><time>2026-04-08T09:23:27.942Z</time></trkpt><trkpt lat="45.4884" lon="9.2614376"><ele>119.0</ele><time>2026-04-08T09:23:28.942Z</time></trkpt><trkpt lat="45.4884976" lon="9.2615906"><ele>119.0</ele><time>2026-04-08T09:23:29.943Z</time></trkpt><trkpt lat="45.4885879" lon="9.2617364"><ele>119.0</ele><time>2026-04-08T09:23:30.943Z</time></trkpt><trkpt lat="45.488671" lon="9.2618754"><ele>119.0</ele><time>2026-04-08T09:23:31.943Z</time></trkpt><trkpt lat="45.4887378" lon="9.262001"><ele>119.0</ele><time>2026-04-08T09:23:32.942Z</time></trkpt><trkpt lat="45.4887861" lon="9.2621047"><ele>119.0</ele><time>2026-04-08T09:23:33.942Z</time></trkpt><trkpt lat="45.4888383" lon="9.2622246"><ele>119.0</ele><time>2026-04-08T09:23:35.944Z</time></trkpt><trkpt lat="45.4888852" lon="9.2623834"><ele>119.0</ele><time>2026-04-08T09:23:37.944Z</time></trkpt><trkpt lat="45.4889055" lon="9.2624914"><ele>119.0</ele><time>2026-04-08T09:23:38.943Z</time></trkpt><trkpt lat="45.4889351" lon="9.2626038"><ele>119.0</ele><time>2026-04-08T09:23:39.943Z</time></trkpt><trkpt lat="45.4889843" lon="9.2627102"><ele>118.49999999999999</ele><time>2026-04-08T09:23:40.943Z</time></trkpt><trkpt lat="45.4890506" lon="9.2627881"><ele>118.0</ele><time>2026-04-08T09:23:41.943Z</time></trkpt><trkpt lat="45.489131" lon="9.2628297"><ele>117.5</ele><time>2026-04-08T09:23:42.943Z</time></trkpt><trkpt lat="45.4892166" lon="9.2628357"><ele>117.0</ele><time>2026-04-08T09:23:43.943Z</time></trkpt><trkpt lat="45.4893033" lon="9.2628096"><ele>116.49999999999999</ele><time>2026-04-08T09:23:44.944Z</time></trkpt><trkpt lat="45.4893814" lon="9.2627568"><ele>116.0</ele><time>2026-04-08T09:23:45.943Z</time></trkpt><trkpt lat="45.4894463" lon="9.2626679"><ele>116.0</ele><time>2026-04-08T09:23:46.944Z</time></trkpt><trkpt lat="45.4894924" lon="9.2625576"><ele>116.0</ele><time>2026-04-08T09:23:47.944Z</time></trkpt><trkpt lat="45.4895209" lon="9.26244"><ele>116.0</ele><time>2026-04-08T09:23:48.943Z</time></trkpt><trkpt lat="45.4895376" lon="9.2623406"><ele>116.0</ele><time>2026-04-08T09:23:49.943Z</time></trkpt><trkpt lat="45.4895594" lon="9.2621867"><ele>116.0</ele><time>2026-04-08T09:23:51.944Z</time></trkpt><trkpt lat="45.4896195" lon="9.2620473"><ele>116.19999999999999</ele><time>2026-04-08T09:23:53.942Z</time></trkpt><trkpt lat="45.489727" lon="9.2619496"><ele>116.39999999999999</ele><time>2026-04-08T09:23:55.943Z</time></trkpt><trkpt lat="45.4898416" lon="9.2618963"><ele>116.6</ele><time>2026-04-08T09:23:57.943Z</time></trkpt><trkpt lat="45.4899671" lon="9.2618656"><ele>116.8</ele><time>2026-04-08T09:23:59.944Z</time></trkpt><trkpt lat="45.4900371" lon="9.2618494"><ele>117.0</ele><time>2026-04-08T09:24:00.944Z</time></trkpt><trkpt lat="45.4901089" lon="9.2618384"><ele>117.0</ele><time>2026-04-08T09:24:01.942Z</time></trkpt><trkpt lat="45.4901809" lon="9.2618291"><ele>117.0</ele><time>2026-04-08T09:24:02.943Z</time></trkpt><trkpt lat="45.4902521" lon="9.2618201"><ele>117.0</ele><time>2026-04-08T09:24:03.942Z</time></trkpt><trkpt lat="45.4903176" lon="9.2618179"><ele>117.0</ele><time>2026-04-08T09:24:04.943Z</time></trkpt><trkpt lat="45.4904275" lon="9.2618398"><ele>117.0</ele><time>2026-04-08T09:24:06.941Z</time></trkpt><trkpt lat="45.4905179" lon="9.2618813"><ele>117.0</ele><time>2026-04-08T09:24:08.943Z</time></trkpt><trkpt lat="45.4905883" lon="9.2618654"><ele>117.0</ele><time>2026-04-08T09:24:10.943Z</time></trkpt><trkpt lat="45.4906218" lon="9.261754"><ele>117.0</ele><time>2026-04-08T09:24:13.943Z</time></trkpt><trkpt lat="45.4905631" lon="9.2616755"><ele>117.0</ele><time>2026-04-08T09:24:16.943Z</time></trkpt><trkpt lat="45.4904965" lon="9.2616749"><ele>117.0</ele><time>2026-04-08T09:24:18.943Z</time></trkpt><trkpt lat="45.4904082" lon="9.2616937"><ele>117.0</ele><time>2026-04-08T09:24:20.943Z</time></trkpt><trkpt lat="45.4903349" lon="9.2616887"><ele>117.0</ele><time>2026-04-08T09:24:22.943Z</time></trkpt><trkpt lat="45.4902498" lon="9.2616451"><ele>117.0</ele><time>2026-04-08T09:24:25.944Z</time></trkpt><trkpt lat="45.4901734" lon="9.2616402"><ele>117.0</ele><time>2026-04-08T09:24:28.944Z</time></trkpt><trkpt lat="45.490098" lon="9.2616089"><ele>117.0</ele><time>2026-04-08T09:24:30.943Z</time></trkpt><trkpt lat="45.490049" lon="9.2615376"><ele>117.0</ele><time>2026-04-08T09:24:33.944Z</time></trkpt></trkseg></trk></gpx>